<?xml version="1.0" encoding="UTF-8" standalone="no" ?>
<gpx xmlns="http://www.topografix.com/GPX/1/1" xmlns:xsi="http://www.w3.org/2001/XMLSchema-instance" xsi:schemaLocation="http://www.topografix.com/GPX/1/1 http://www.topografix.com/GPX/1/1/gpx.xsd" version="1.1" creator="VisuGPX - https://www.visugpx.com">
  <metadata>
    <name>O-S-Rouans Chéméré St Cyr St Meme Le Tenu St Philbert La Chevrolière St Aignan</name>
    <desc><![CDATA[O-S-Rouans Chéméré St Cyr St Meme Le Tenu St Philbert La Chevrolière St Aignan]]></desc>
  </metadata>
  <trk>
    <name><![CDATA[2021-05-01 10:51 +02:00]]></name>
    <trkseg>
      <trkpt lat="47.16769" lon="-1.62651">
        <ele>53</ele>
        <time>2021-05-01T08:51:21.000Z</time>
      </trkpt>
      <trkpt lat="47.16779" lon="-1.62657">
        <ele>69</ele>
        <time>2021-05-01T08:54:09.000Z</time>
      </trkpt>
      <trkpt lat="47.16778" lon="-1.62674">
        <ele>69</ele>
        <time>2021-05-01T08:54:12.000Z</time>
      </trkpt>
      <trkpt lat="47.16765" lon="-1.62675">
        <ele>70</ele>
        <time>2021-05-01T08:54:15.000Z</time>
      </trkpt>
      <trkpt lat="47.16754" lon="-1.6267">
        <ele>70</ele>
        <time>2021-05-01T08:54:18.000Z</time>
      </trkpt>
      <trkpt lat="47.16745" lon="-1.62673">
        <ele>70</ele>
        <time>2021-05-01T08:54:20.000Z</time>
      </trkpt>
      <trkpt lat="47.16735" lon="-1.6268">
        <ele>71</ele>
        <time>2021-05-01T08:54:22.000Z</time>
      </trkpt>
      <trkpt lat="47.16724" lon="-1.62688">
        <ele>71</ele>
        <time>2021-05-01T08:54:24.000Z</time>
      </trkpt>
      <trkpt lat="47.16719" lon="-1.62703">
        <ele>71</ele>
        <time>2021-05-01T08:54:26.000Z</time>
      </trkpt>
      <trkpt lat="47.16725" lon="-1.62719">
        <ele>71</ele>
        <time>2021-05-01T08:54:28.000Z</time>
      </trkpt>
      <trkpt lat="47.16733" lon="-1.62734">
        <ele>71</ele>
        <time>2021-05-01T08:54:30.000Z</time>
      </trkpt>
      <trkpt lat="47.16741" lon="-1.62748">
        <ele>70</ele>
        <time>2021-05-01T08:54:32.000Z</time>
      </trkpt>
      <trkpt lat="47.16752" lon="-1.6276">
        <ele>70</ele>
        <time>2021-05-01T08:54:34.000Z</time>
      </trkpt>
      <trkpt lat="47.16763" lon="-1.62772">
        <ele>70</ele>
        <time>2021-05-01T08:54:36.000Z</time>
      </trkpt>
      <trkpt lat="47.16775" lon="-1.62782">
        <ele>69</ele>
        <time>2021-05-01T08:54:38.000Z</time>
      </trkpt>
      <trkpt lat="47.16787" lon="-1.62793">
        <ele>69</ele>
        <time>2021-05-01T08:54:40.000Z</time>
      </trkpt>
      <trkpt lat="47.16799" lon="-1.62804">
        <ele>69</ele>
        <time>2021-05-01T08:54:42.000Z</time>
      </trkpt>
      <trkpt lat="47.1681" lon="-1.62814">
        <ele>70</ele>
        <time>2021-05-01T08:54:44.000Z</time>
      </trkpt>
      <trkpt lat="47.1682" lon="-1.62823">
        <ele>70</ele>
        <time>2021-05-01T08:54:46.000Z</time>
      </trkpt>
      <trkpt lat="47.16831" lon="-1.62834">
        <ele>71</ele>
        <time>2021-05-01T08:54:48.000Z</time>
      </trkpt>
      <trkpt lat="47.16842" lon="-1.62845">
        <ele>71</ele>
        <time>2021-05-01T08:54:50.000Z</time>
      </trkpt>
      <trkpt lat="47.16853" lon="-1.62855">
        <ele>71</ele>
        <time>2021-05-01T08:54:52.000Z</time>
      </trkpt>
      <trkpt lat="47.16863" lon="-1.62866">
        <ele>72</ele>
        <time>2021-05-01T08:54:54.000Z</time>
      </trkpt>
      <trkpt lat="47.16873" lon="-1.62879">
        <ele>72</ele>
        <time>2021-05-01T08:54:56.000Z</time>
      </trkpt>
      <trkpt lat="47.16881" lon="-1.62894">
        <ele>72</ele>
        <time>2021-05-01T08:54:58.000Z</time>
      </trkpt>
      <trkpt lat="47.16886" lon="-1.62911">
        <ele>72</ele>
        <time>2021-05-01T08:55:00.000Z</time>
      </trkpt>
      <trkpt lat="47.16889" lon="-1.6293">
        <ele>72</ele>
        <time>2021-05-01T08:55:02.000Z</time>
      </trkpt>
      <trkpt lat="47.1689" lon="-1.62949">
        <ele>72</ele>
        <time>2021-05-01T08:55:04.000Z</time>
      </trkpt>
      <trkpt lat="47.16891" lon="-1.62968">
        <ele>73</ele>
        <time>2021-05-01T08:55:06.000Z</time>
      </trkpt>
      <trkpt lat="47.16889" lon="-1.62988">
        <ele>73</ele>
        <time>2021-05-01T08:55:08.000Z</time>
      </trkpt>
      <trkpt lat="47.16887" lon="-1.63007">
        <ele>73</ele>
        <time>2021-05-01T08:55:10.000Z</time>
      </trkpt>
      <trkpt lat="47.16886" lon="-1.63026">
        <ele>73</ele>
        <time>2021-05-01T08:55:12.000Z</time>
      </trkpt>
      <trkpt lat="47.16885" lon="-1.63046">
        <ele>74</ele>
        <time>2021-05-01T08:55:14.000Z</time>
      </trkpt>
      <trkpt lat="47.16885" lon="-1.63065">
        <ele>74</ele>
        <time>2021-05-01T08:55:16.000Z</time>
      </trkpt>
      <trkpt lat="47.16889" lon="-1.63081">
        <ele>75</ele>
        <time>2021-05-01T08:55:18.000Z</time>
      </trkpt>
      <trkpt lat="47.16893" lon="-1.63099">
        <ele>74</ele>
        <time>2021-05-01T08:55:20.000Z</time>
      </trkpt>
      <trkpt lat="47.16897" lon="-1.63117">
        <ele>75</ele>
        <time>2021-05-01T08:55:22.000Z</time>
      </trkpt>
      <trkpt lat="47.16901" lon="-1.63134">
        <ele>75</ele>
        <time>2021-05-01T08:55:24.000Z</time>
      </trkpt>
      <trkpt lat="47.16907" lon="-1.6315">
        <ele>75</ele>
        <time>2021-05-01T08:55:26.000Z</time>
      </trkpt>
      <trkpt lat="47.16913" lon="-1.63165">
        <ele>75</ele>
        <time>2021-05-01T08:55:28.000Z</time>
      </trkpt>
      <trkpt lat="47.1692" lon="-1.6318">
        <ele>75</ele>
        <time>2021-05-01T08:55:30.000Z</time>
      </trkpt>
      <trkpt lat="47.16927" lon="-1.63193">
        <ele>76</ele>
        <time>2021-05-01T08:55:32.000Z</time>
      </trkpt>
      <trkpt lat="47.16935" lon="-1.63206">
        <ele>76</ele>
        <time>2021-05-01T08:55:34.000Z</time>
      </trkpt>
      <trkpt lat="47.16944" lon="-1.63218">
        <ele>76</ele>
        <time>2021-05-01T08:55:36.000Z</time>
      </trkpt>
      <trkpt lat="47.16952" lon="-1.63229">
        <ele>76</ele>
        <time>2021-05-01T08:55:38.000Z</time>
      </trkpt>
      <trkpt lat="47.1696" lon="-1.63239">
        <ele>76</ele>
        <time>2021-05-01T08:55:40.000Z</time>
      </trkpt>
      <trkpt lat="47.16967" lon="-1.63252">
        <ele>76</ele>
        <time>2021-05-01T08:55:43.000Z</time>
      </trkpt>
      <trkpt lat="47.16963" lon="-1.63266">
        <ele>76</ele>
        <time>2021-05-01T08:55:45.000Z</time>
      </trkpt>
      <trkpt lat="47.16954" lon="-1.63278">
        <ele>76</ele>
        <time>2021-05-01T08:55:47.000Z</time>
      </trkpt>
      <trkpt lat="47.16947" lon="-1.63293">
        <ele>76</ele>
        <time>2021-05-01T08:55:49.000Z</time>
      </trkpt>
      <trkpt lat="47.16938" lon="-1.63307">
        <ele>75</ele>
        <time>2021-05-01T08:55:51.000Z</time>
      </trkpt>
      <trkpt lat="47.16928" lon="-1.63319">
        <ele>75</ele>
        <time>2021-05-01T08:55:53.000Z</time>
      </trkpt>
      <trkpt lat="47.1692" lon="-1.63332">
        <ele>76</ele>
        <time>2021-05-01T08:55:55.000Z</time>
      </trkpt>
      <trkpt lat="47.1691" lon="-1.63345">
        <ele>76</ele>
        <time>2021-05-01T08:55:57.000Z</time>
      </trkpt>
      <trkpt lat="47.16901" lon="-1.63358">
        <ele>75</ele>
        <time>2021-05-01T08:55:59.000Z</time>
      </trkpt>
      <trkpt lat="47.16893" lon="-1.63372">
        <ele>75</ele>
        <time>2021-05-01T08:56:01.000Z</time>
      </trkpt>
      <trkpt lat="47.16885" lon="-1.63386">
        <ele>74</ele>
        <time>2021-05-01T08:56:03.000Z</time>
      </trkpt>
      <trkpt lat="47.16877" lon="-1.634">
        <ele>75</ele>
        <time>2021-05-01T08:56:05.000Z</time>
      </trkpt>
      <trkpt lat="47.16869" lon="-1.63414">
        <ele>75</ele>
        <time>2021-05-01T08:56:07.000Z</time>
      </trkpt>
      <trkpt lat="47.16861" lon="-1.63428">
        <ele>76</ele>
        <time>2021-05-01T08:56:09.000Z</time>
      </trkpt>
      <trkpt lat="47.16852" lon="-1.63442">
        <ele>76</ele>
        <time>2021-05-01T08:56:11.000Z</time>
      </trkpt>
      <trkpt lat="47.16844" lon="-1.63456">
        <ele>76</ele>
        <time>2021-05-01T08:56:13.000Z</time>
      </trkpt>
      <trkpt lat="47.16835" lon="-1.63471">
        <ele>76</ele>
        <time>2021-05-01T08:56:15.000Z</time>
      </trkpt>
      <trkpt lat="47.16827" lon="-1.63485">
        <ele>76</ele>
        <time>2021-05-01T08:56:17.000Z</time>
      </trkpt>
      <trkpt lat="47.16818" lon="-1.63499">
        <ele>76</ele>
        <time>2021-05-01T08:56:19.000Z</time>
      </trkpt>
      <trkpt lat="47.16809" lon="-1.63514">
        <ele>76</ele>
        <time>2021-05-01T08:56:21.000Z</time>
      </trkpt>
      <trkpt lat="47.168" lon="-1.63527">
        <ele>76</ele>
        <time>2021-05-01T08:56:23.000Z</time>
      </trkpt>
      <trkpt lat="47.16792" lon="-1.63541">
        <ele>76</ele>
        <time>2021-05-01T08:56:25.000Z</time>
      </trkpt>
      <trkpt lat="47.16784" lon="-1.63556">
        <ele>76</ele>
        <time>2021-05-01T08:56:27.000Z</time>
      </trkpt>
      <trkpt lat="47.16776" lon="-1.63571">
        <ele>76</ele>
        <time>2021-05-01T08:56:29.000Z</time>
      </trkpt>
      <trkpt lat="47.16767" lon="-1.63585">
        <ele>76</ele>
        <time>2021-05-01T08:56:31.000Z</time>
      </trkpt>
      <trkpt lat="47.16759" lon="-1.636">
        <ele>76</ele>
        <time>2021-05-01T08:56:33.000Z</time>
      </trkpt>
      <trkpt lat="47.1675" lon="-1.63615">
        <ele>76</ele>
        <time>2021-05-01T08:56:35.000Z</time>
      </trkpt>
      <trkpt lat="47.16744" lon="-1.63628">
        <ele>76</ele>
        <time>2021-05-01T08:56:37.000Z</time>
      </trkpt>
      <trkpt lat="47.16749" lon="-1.63644">
        <ele>75</ele>
        <time>2021-05-01T08:56:39.000Z</time>
      </trkpt>
      <trkpt lat="47.16761" lon="-1.63648">
        <ele>77</ele>
        <time>2021-05-01T08:56:41.000Z</time>
      </trkpt>
      <trkpt lat="47.16774" lon="-1.63652">
        <ele>77</ele>
        <time>2021-05-01T08:56:43.000Z</time>
      </trkpt>
      <trkpt lat="47.16786" lon="-1.63657">
        <ele>77</ele>
        <time>2021-05-01T08:56:45.000Z</time>
      </trkpt>
      <trkpt lat="47.16798" lon="-1.63662">
        <ele>77</ele>
        <time>2021-05-01T08:56:47.000Z</time>
      </trkpt>
      <trkpt lat="47.16811" lon="-1.63666">
        <ele>77</ele>
        <time>2021-05-01T08:56:49.000Z</time>
      </trkpt>
      <trkpt lat="47.16824" lon="-1.63671">
        <ele>77</ele>
        <time>2021-05-01T08:56:51.000Z</time>
      </trkpt>
      <trkpt lat="47.16837" lon="-1.63675">
        <ele>77</ele>
        <time>2021-05-01T08:56:53.000Z</time>
      </trkpt>
      <trkpt lat="47.16849" lon="-1.6368">
        <ele>77</ele>
        <time>2021-05-01T08:56:55.000Z</time>
      </trkpt>
      <trkpt lat="47.16862" lon="-1.63684">
        <ele>77</ele>
        <time>2021-05-01T08:56:57.000Z</time>
      </trkpt>
      <trkpt lat="47.16875" lon="-1.63689">
        <ele>77</ele>
        <time>2021-05-01T08:56:59.000Z</time>
      </trkpt>
      <trkpt lat="47.16888" lon="-1.63694">
        <ele>77</ele>
        <time>2021-05-01T08:57:01.000Z</time>
      </trkpt>
      <trkpt lat="47.16901" lon="-1.63698">
        <ele>77</ele>
        <time>2021-05-01T08:57:03.000Z</time>
      </trkpt>
      <trkpt lat="47.16914" lon="-1.63703">
        <ele>77</ele>
        <time>2021-05-01T08:57:05.000Z</time>
      </trkpt>
      <trkpt lat="47.16927" lon="-1.63709">
        <ele>77</ele>
        <time>2021-05-01T08:57:07.000Z</time>
      </trkpt>
      <trkpt lat="47.16939" lon="-1.63713">
        <ele>76</ele>
        <time>2021-05-01T08:57:09.000Z</time>
      </trkpt>
      <trkpt lat="47.16952" lon="-1.63718">
        <ele>76</ele>
        <time>2021-05-01T08:57:11.000Z</time>
      </trkpt>
      <trkpt lat="47.16965" lon="-1.63723">
        <ele>76</ele>
        <time>2021-05-01T08:57:13.000Z</time>
      </trkpt>
      <trkpt lat="47.16978" lon="-1.63728">
        <ele>76</ele>
        <time>2021-05-01T08:57:15.000Z</time>
      </trkpt>
      <trkpt lat="47.16991" lon="-1.63733">
        <ele>76</ele>
        <time>2021-05-01T08:57:17.000Z</time>
      </trkpt>
      <trkpt lat="47.17004" lon="-1.63737">
        <ele>76</ele>
        <time>2021-05-01T08:57:19.000Z</time>
      </trkpt>
      <trkpt lat="47.17017" lon="-1.63742">
        <ele>76</ele>
        <time>2021-05-01T08:57:21.000Z</time>
      </trkpt>
      <trkpt lat="47.17029" lon="-1.63747">
        <ele>77</ele>
        <time>2021-05-01T08:57:23.000Z</time>
      </trkpt>
      <trkpt lat="47.17041" lon="-1.63753">
        <ele>76</ele>
        <time>2021-05-01T08:57:25.000Z</time>
      </trkpt>
      <trkpt lat="47.17053" lon="-1.63761">
        <ele>77</ele>
        <time>2021-05-01T08:57:27.000Z</time>
      </trkpt>
      <trkpt lat="47.17063" lon="-1.63774">
        <ele>77</ele>
        <time>2021-05-01T08:57:29.000Z</time>
      </trkpt>
      <trkpt lat="47.17068" lon="-1.63789">
        <ele>77</ele>
        <time>2021-05-01T08:57:31.000Z</time>
      </trkpt>
      <trkpt lat="47.17074" lon="-1.63807">
        <ele>77</ele>
        <time>2021-05-01T08:57:33.000Z</time>
      </trkpt>
      <trkpt lat="47.17079" lon="-1.63824">
        <ele>77</ele>
        <time>2021-05-01T08:57:35.000Z</time>
      </trkpt>
      <trkpt lat="47.17085" lon="-1.63841">
        <ele>77</ele>
        <time>2021-05-01T08:57:37.000Z</time>
      </trkpt>
      <trkpt lat="47.17091" lon="-1.63858">
        <ele>76</ele>
        <time>2021-05-01T08:57:39.000Z</time>
      </trkpt>
      <trkpt lat="47.17097" lon="-1.63874">
        <ele>76</ele>
        <time>2021-05-01T08:57:41.000Z</time>
      </trkpt>
      <trkpt lat="47.17103" lon="-1.6389">
        <ele>76</ele>
        <time>2021-05-01T08:57:43.000Z</time>
      </trkpt>
      <trkpt lat="47.17109" lon="-1.63906">
        <ele>76</ele>
        <time>2021-05-01T08:57:45.000Z</time>
      </trkpt>
      <trkpt lat="47.17115" lon="-1.63922">
        <ele>75</ele>
        <time>2021-05-01T08:57:47.000Z</time>
      </trkpt>
      <trkpt lat="47.17122" lon="-1.63934">
        <ele>76</ele>
        <time>2021-05-01T08:57:49.000Z</time>
      </trkpt>
      <trkpt lat="47.17131" lon="-1.6394">
        <ele>76</ele>
        <time>2021-05-01T08:57:51.000Z</time>
      </trkpt>
      <trkpt lat="47.17138" lon="-1.63955">
        <ele>77</ele>
        <time>2021-05-01T08:57:54.000Z</time>
      </trkpt>
      <trkpt lat="47.17139" lon="-1.63972">
        <ele>77</ele>
        <time>2021-05-01T08:57:56.000Z</time>
      </trkpt>
      <trkpt lat="47.17138" lon="-1.6399">
        <ele>77</ele>
        <time>2021-05-01T08:57:58.000Z</time>
      </trkpt>
      <trkpt lat="47.17136" lon="-1.64009">
        <ele>77</ele>
        <time>2021-05-01T08:58:00.000Z</time>
      </trkpt>
      <trkpt lat="47.17134" lon="-1.6403">
        <ele>77</ele>
        <time>2021-05-01T08:58:02.000Z</time>
      </trkpt>
      <trkpt lat="47.17132" lon="-1.6405">
        <ele>77</ele>
        <time>2021-05-01T08:58:04.000Z</time>
      </trkpt>
      <trkpt lat="47.1713" lon="-1.6407">
        <ele>78</ele>
        <time>2021-05-01T08:58:06.000Z</time>
      </trkpt>
      <trkpt lat="47.17128" lon="-1.64089">
        <ele>77</ele>
        <time>2021-05-01T08:58:08.000Z</time>
      </trkpt>
      <trkpt lat="47.17126" lon="-1.64109">
        <ele>77</ele>
        <time>2021-05-01T08:58:10.000Z</time>
      </trkpt>
      <trkpt lat="47.17123" lon="-1.64128">
        <ele>77</ele>
        <time>2021-05-01T08:58:12.000Z</time>
      </trkpt>
      <trkpt lat="47.17121" lon="-1.64148">
        <ele>77</ele>
        <time>2021-05-01T08:58:14.000Z</time>
      </trkpt>
      <trkpt lat="47.17119" lon="-1.64169">
        <ele>77</ele>
        <time>2021-05-01T08:58:16.000Z</time>
      </trkpt>
      <trkpt lat="47.17117" lon="-1.64188">
        <ele>77</ele>
        <time>2021-05-01T08:58:18.000Z</time>
      </trkpt>
      <trkpt lat="47.17115" lon="-1.64207">
        <ele>76</ele>
        <time>2021-05-01T08:58:20.000Z</time>
      </trkpt>
      <trkpt lat="47.17112" lon="-1.64227">
        <ele>76</ele>
        <time>2021-05-01T08:58:22.000Z</time>
      </trkpt>
      <trkpt lat="47.1711" lon="-1.64247">
        <ele>76</ele>
        <time>2021-05-01T08:58:24.000Z</time>
      </trkpt>
      <trkpt lat="47.17108" lon="-1.64268">
        <ele>77</ele>
        <time>2021-05-01T08:58:26.000Z</time>
      </trkpt>
      <trkpt lat="47.17106" lon="-1.64287">
        <ele>77</ele>
        <time>2021-05-01T08:58:28.000Z</time>
      </trkpt>
      <trkpt lat="47.17104" lon="-1.64306">
        <ele>76</ele>
        <time>2021-05-01T08:58:30.000Z</time>
      </trkpt>
      <trkpt lat="47.17102" lon="-1.64326">
        <ele>77</ele>
        <time>2021-05-01T08:58:32.000Z</time>
      </trkpt>
      <trkpt lat="47.171" lon="-1.64346">
        <ele>77</ele>
        <time>2021-05-01T08:58:34.000Z</time>
      </trkpt>
      <trkpt lat="47.17098" lon="-1.64366">
        <ele>77</ele>
        <time>2021-05-01T08:58:36.000Z</time>
      </trkpt>
      <trkpt lat="47.17096" lon="-1.64387">
        <ele>77</ele>
        <time>2021-05-01T08:58:38.000Z</time>
      </trkpt>
      <trkpt lat="47.17095" lon="-1.64406">
        <ele>77</ele>
        <time>2021-05-01T08:58:40.000Z</time>
      </trkpt>
      <trkpt lat="47.17094" lon="-1.64425">
        <ele>77</ele>
        <time>2021-05-01T08:58:42.000Z</time>
      </trkpt>
      <trkpt lat="47.17093" lon="-1.64446">
        <ele>77</ele>
        <time>2021-05-01T08:58:44.000Z</time>
      </trkpt>
      <trkpt lat="47.17091" lon="-1.64466">
        <ele>77</ele>
        <time>2021-05-01T08:58:46.000Z</time>
      </trkpt>
      <trkpt lat="47.1709" lon="-1.64486">
        <ele>76</ele>
        <time>2021-05-01T08:58:48.000Z</time>
      </trkpt>
      <trkpt lat="47.1709" lon="-1.64506">
        <ele>76</ele>
        <time>2021-05-01T08:58:50.000Z</time>
      </trkpt>
      <trkpt lat="47.17089" lon="-1.64527">
        <ele>76</ele>
        <time>2021-05-01T08:58:52.000Z</time>
      </trkpt>
      <trkpt lat="47.17088" lon="-1.64547">
        <ele>76</ele>
        <time>2021-05-01T08:58:54.000Z</time>
      </trkpt>
      <trkpt lat="47.17087" lon="-1.64568">
        <ele>76</ele>
        <time>2021-05-01T08:58:56.000Z</time>
      </trkpt>
      <trkpt lat="47.17087" lon="-1.64589">
        <ele>76</ele>
        <time>2021-05-01T08:58:58.000Z</time>
      </trkpt>
      <trkpt lat="47.17086" lon="-1.64609">
        <ele>76</ele>
        <time>2021-05-01T08:59:00.000Z</time>
      </trkpt>
      <trkpt lat="47.17087" lon="-1.64629">
        <ele>76</ele>
        <time>2021-05-01T08:59:02.000Z</time>
      </trkpt>
      <trkpt lat="47.17087" lon="-1.6465">
        <ele>76</ele>
        <time>2021-05-01T08:59:04.000Z</time>
      </trkpt>
      <trkpt lat="47.17087" lon="-1.64671">
        <ele>76</ele>
        <time>2021-05-01T08:59:06.000Z</time>
      </trkpt>
      <trkpt lat="47.17088" lon="-1.64692">
        <ele>76</ele>
        <time>2021-05-01T08:59:08.000Z</time>
      </trkpt>
      <trkpt lat="47.17088" lon="-1.64712">
        <ele>76</ele>
        <time>2021-05-01T08:59:10.000Z</time>
      </trkpt>
      <trkpt lat="47.17089" lon="-1.64733">
        <ele>76</ele>
        <time>2021-05-01T08:59:12.000Z</time>
      </trkpt>
      <trkpt lat="47.17089" lon="-1.64753">
        <ele>76</ele>
        <time>2021-05-01T08:59:14.000Z</time>
      </trkpt>
      <trkpt lat="47.1709" lon="-1.64773">
        <ele>76</ele>
        <time>2021-05-01T08:59:16.000Z</time>
      </trkpt>
      <trkpt lat="47.17093" lon="-1.64793">
        <ele>76</ele>
        <time>2021-05-01T08:59:18.000Z</time>
      </trkpt>
      <trkpt lat="47.17094" lon="-1.64813">
        <ele>76</ele>
        <time>2021-05-01T08:59:20.000Z</time>
      </trkpt>
      <trkpt lat="47.17095" lon="-1.64832">
        <ele>76</ele>
        <time>2021-05-01T08:59:22.000Z</time>
      </trkpt>
      <trkpt lat="47.17097" lon="-1.64853">
        <ele>75</ele>
        <time>2021-05-01T08:59:24.000Z</time>
      </trkpt>
      <trkpt lat="47.17098" lon="-1.64874">
        <ele>75</ele>
        <time>2021-05-01T08:59:26.000Z</time>
      </trkpt>
      <trkpt lat="47.171" lon="-1.64895">
        <ele>75</ele>
        <time>2021-05-01T08:59:28.000Z</time>
      </trkpt>
      <trkpt lat="47.17101" lon="-1.64914">
        <ele>75</ele>
        <time>2021-05-01T08:59:30.000Z</time>
      </trkpt>
      <trkpt lat="47.17103" lon="-1.64934">
        <ele>75</ele>
        <time>2021-05-01T08:59:32.000Z</time>
      </trkpt>
      <trkpt lat="47.17103" lon="-1.64954">
        <ele>75</ele>
        <time>2021-05-01T08:59:34.000Z</time>
      </trkpt>
      <trkpt lat="47.17105" lon="-1.64974">
        <ele>75</ele>
        <time>2021-05-01T08:59:36.000Z</time>
      </trkpt>
      <trkpt lat="47.17106" lon="-1.64992">
        <ele>75</ele>
        <time>2021-05-01T08:59:38.000Z</time>
      </trkpt>
      <trkpt lat="47.17108" lon="-1.65011">
        <ele>75</ele>
        <time>2021-05-01T08:59:40.000Z</time>
      </trkpt>
      <trkpt lat="47.1711" lon="-1.6503">
        <ele>74</ele>
        <time>2021-05-01T08:59:42.000Z</time>
      </trkpt>
      <trkpt lat="47.17111" lon="-1.65049">
        <ele>74</ele>
        <time>2021-05-01T08:59:44.000Z</time>
      </trkpt>
      <trkpt lat="47.17112" lon="-1.65069">
        <ele>75</ele>
        <time>2021-05-01T08:59:46.000Z</time>
      </trkpt>
      <trkpt lat="47.17114" lon="-1.65089">
        <ele>75</ele>
        <time>2021-05-01T08:59:48.000Z</time>
      </trkpt>
      <trkpt lat="47.17115" lon="-1.65108">
        <ele>75</ele>
        <time>2021-05-01T08:59:50.000Z</time>
      </trkpt>
      <trkpt lat="47.17117" lon="-1.65128">
        <ele>75</ele>
        <time>2021-05-01T08:59:52.000Z</time>
      </trkpt>
      <trkpt lat="47.17118" lon="-1.65147">
        <ele>75</ele>
        <time>2021-05-01T08:59:54.000Z</time>
      </trkpt>
      <trkpt lat="47.17119" lon="-1.65167">
        <ele>75</ele>
        <time>2021-05-01T08:59:56.000Z</time>
      </trkpt>
      <trkpt lat="47.17121" lon="-1.65186">
        <ele>76</ele>
        <time>2021-05-01T08:59:58.000Z</time>
      </trkpt>
      <trkpt lat="47.17122" lon="-1.65205">
        <ele>76</ele>
        <time>2021-05-01T09:00:00.000Z</time>
      </trkpt>
      <trkpt lat="47.17123" lon="-1.65225">
        <ele>76</ele>
        <time>2021-05-01T09:00:02.000Z</time>
      </trkpt>
      <trkpt lat="47.17123" lon="-1.65243">
        <ele>77</ele>
        <time>2021-05-01T09:00:04.000Z</time>
      </trkpt>
      <trkpt lat="47.17126" lon="-1.6526">
        <ele>77</ele>
        <time>2021-05-01T09:00:06.000Z</time>
      </trkpt>
      <trkpt lat="47.17132" lon="-1.65277">
        <ele>77</ele>
        <time>2021-05-01T09:00:08.000Z</time>
      </trkpt>
      <trkpt lat="47.17137" lon="-1.65294">
        <ele>77</ele>
        <time>2021-05-01T09:00:10.000Z</time>
      </trkpt>
      <trkpt lat="47.17137" lon="-1.65311">
        <ele>77</ele>
        <time>2021-05-01T09:00:12.000Z</time>
      </trkpt>
      <trkpt lat="47.17132" lon="-1.65328">
        <ele>77</ele>
        <time>2021-05-01T09:00:14.000Z</time>
      </trkpt>
      <trkpt lat="47.17123" lon="-1.65341">
        <ele>77</ele>
        <time>2021-05-01T09:00:16.000Z</time>
      </trkpt>
      <trkpt lat="47.17118" lon="-1.65358">
        <ele>77</ele>
        <time>2021-05-01T09:00:18.000Z</time>
      </trkpt>
      <trkpt lat="47.17118" lon="-1.65378">
        <ele>77</ele>
        <time>2021-05-01T09:00:20.000Z</time>
      </trkpt>
      <trkpt lat="47.17118" lon="-1.65395">
        <ele>77</ele>
        <time>2021-05-01T09:00:22.000Z</time>
      </trkpt>
      <trkpt lat="47.1712" lon="-1.65413">
        <ele>78</ele>
        <time>2021-05-01T09:00:24.000Z</time>
      </trkpt>
      <trkpt lat="47.1712" lon="-1.6543">
        <ele>79</ele>
        <time>2021-05-01T09:00:26.000Z</time>
      </trkpt>
      <trkpt lat="47.1712" lon="-1.65448">
        <ele>80</ele>
        <time>2021-05-01T09:00:28.000Z</time>
      </trkpt>
      <trkpt lat="47.17119" lon="-1.65464">
        <ele>81</ele>
        <time>2021-05-01T09:00:30.000Z</time>
      </trkpt>
      <trkpt lat="47.17117" lon="-1.6548">
        <ele>81</ele>
        <time>2021-05-01T09:00:32.000Z</time>
      </trkpt>
      <trkpt lat="47.17114" lon="-1.65496">
        <ele>82</ele>
        <time>2021-05-01T09:00:34.000Z</time>
      </trkpt>
      <trkpt lat="47.1711" lon="-1.65511">
        <ele>82</ele>
        <time>2021-05-01T09:00:36.000Z</time>
      </trkpt>
      <trkpt lat="47.17104" lon="-1.65527">
        <ele>83</ele>
        <time>2021-05-01T09:00:38.000Z</time>
      </trkpt>
      <trkpt lat="47.17098" lon="-1.65541">
        <ele>83</ele>
        <time>2021-05-01T09:00:40.000Z</time>
      </trkpt>
      <trkpt lat="47.1709" lon="-1.65555">
        <ele>84</ele>
        <time>2021-05-01T09:00:42.000Z</time>
      </trkpt>
      <trkpt lat="47.17083" lon="-1.65569">
        <ele>84</ele>
        <time>2021-05-01T09:00:44.000Z</time>
      </trkpt>
      <trkpt lat="47.17076" lon="-1.65581">
        <ele>84</ele>
        <time>2021-05-01T09:00:46.000Z</time>
      </trkpt>
      <trkpt lat="47.17069" lon="-1.65595">
        <ele>84</ele>
        <time>2021-05-01T09:00:48.000Z</time>
      </trkpt>
      <trkpt lat="47.17062" lon="-1.65608">
        <ele>84</ele>
        <time>2021-05-01T09:00:50.000Z</time>
      </trkpt>
      <trkpt lat="47.17053" lon="-1.65622">
        <ele>83</ele>
        <time>2021-05-01T09:00:52.000Z</time>
      </trkpt>
      <trkpt lat="47.17045" lon="-1.65637">
        <ele>83</ele>
        <time>2021-05-01T09:00:54.000Z</time>
      </trkpt>
      <trkpt lat="47.17036" lon="-1.65653">
        <ele>83</ele>
        <time>2021-05-01T09:00:56.000Z</time>
      </trkpt>
      <trkpt lat="47.17023" lon="-1.65681">
        <ele>82</ele>
        <time>2021-05-01T09:00:59.000Z</time>
      </trkpt>
      <trkpt lat="47.17014" lon="-1.65699">
        <ele>82</ele>
        <time>2021-05-01T09:01:01.000Z</time>
      </trkpt>
      <trkpt lat="47.17007" lon="-1.65719">
        <ele>82</ele>
        <time>2021-05-01T09:01:03.000Z</time>
      </trkpt>
      <trkpt lat="47.17004" lon="-1.65739">
        <ele>82</ele>
        <time>2021-05-01T09:01:05.000Z</time>
      </trkpt>
      <trkpt lat="47.16999" lon="-1.65758">
        <ele>81</ele>
        <time>2021-05-01T09:01:07.000Z</time>
      </trkpt>
      <trkpt lat="47.16988" lon="-1.6577">
        <ele>81</ele>
        <time>2021-05-01T09:01:09.000Z</time>
      </trkpt>
      <trkpt lat="47.16975" lon="-1.65777">
        <ele>81</ele>
        <time>2021-05-01T09:01:11.000Z</time>
      </trkpt>
      <trkpt lat="47.16964" lon="-1.65787">
        <ele>81</ele>
        <time>2021-05-01T09:01:13.000Z</time>
      </trkpt>
      <trkpt lat="47.16954" lon="-1.65803">
        <ele>81</ele>
        <time>2021-05-01T09:01:15.000Z</time>
      </trkpt>
      <trkpt lat="47.16946" lon="-1.65819">
        <ele>81</ele>
        <time>2021-05-01T09:01:17.000Z</time>
      </trkpt>
      <trkpt lat="47.16937" lon="-1.65836">
        <ele>81</ele>
        <time>2021-05-01T09:01:19.000Z</time>
      </trkpt>
      <trkpt lat="47.16929" lon="-1.65853">
        <ele>81</ele>
        <time>2021-05-01T09:01:21.000Z</time>
      </trkpt>
      <trkpt lat="47.1692" lon="-1.6587">
        <ele>80</ele>
        <time>2021-05-01T09:01:23.000Z</time>
      </trkpt>
      <trkpt lat="47.16908" lon="-1.65896">
        <ele>80</ele>
        <time>2021-05-01T09:01:26.000Z</time>
      </trkpt>
      <trkpt lat="47.16896" lon="-1.65921">
        <ele>80</ele>
        <time>2021-05-01T09:01:29.000Z</time>
      </trkpt>
      <trkpt lat="47.16888" lon="-1.65938">
        <ele>80</ele>
        <time>2021-05-01T09:01:31.000Z</time>
      </trkpt>
      <trkpt lat="47.1688" lon="-1.65955">
        <ele>79</ele>
        <time>2021-05-01T09:01:33.000Z</time>
      </trkpt>
      <trkpt lat="47.16873" lon="-1.65974">
        <ele>79</ele>
        <time>2021-05-01T09:01:35.000Z</time>
      </trkpt>
      <trkpt lat="47.16867" lon="-1.65992">
        <ele>79</ele>
        <time>2021-05-01T09:01:37.000Z</time>
      </trkpt>
      <trkpt lat="47.16862" lon="-1.66011">
        <ele>79</ele>
        <time>2021-05-01T09:01:39.000Z</time>
      </trkpt>
      <trkpt lat="47.16857" lon="-1.6603">
        <ele>79</ele>
        <time>2021-05-01T09:01:41.000Z</time>
      </trkpt>
      <trkpt lat="47.16852" lon="-1.66059">
        <ele>79</ele>
        <time>2021-05-01T09:01:44.000Z</time>
      </trkpt>
      <trkpt lat="47.16849" lon="-1.66079">
        <ele>79</ele>
        <time>2021-05-01T09:01:46.000Z</time>
      </trkpt>
      <trkpt lat="47.16847" lon="-1.66108">
        <ele>78</ele>
        <time>2021-05-01T09:01:49.000Z</time>
      </trkpt>
      <trkpt lat="47.16845" lon="-1.66138">
        <ele>78</ele>
        <time>2021-05-01T09:01:52.000Z</time>
      </trkpt>
      <trkpt lat="47.16846" lon="-1.66158">
        <ele>78</ele>
        <time>2021-05-01T09:01:54.000Z</time>
      </trkpt>
      <trkpt lat="47.16847" lon="-1.66178">
        <ele>78</ele>
        <time>2021-05-01T09:01:56.000Z</time>
      </trkpt>
      <trkpt lat="47.16848" lon="-1.66198">
        <ele>78</ele>
        <time>2021-05-01T09:01:58.000Z</time>
      </trkpt>
      <trkpt lat="47.1685" lon="-1.66227">
        <ele>78</ele>
        <time>2021-05-01T09:02:01.000Z</time>
      </trkpt>
      <trkpt lat="47.16852" lon="-1.66245">
        <ele>78</ele>
        <time>2021-05-01T09:02:03.000Z</time>
      </trkpt>
      <trkpt lat="47.16854" lon="-1.66264">
        <ele>78</ele>
        <time>2021-05-01T09:02:05.000Z</time>
      </trkpt>
      <trkpt lat="47.16855" lon="-1.66284">
        <ele>78</ele>
        <time>2021-05-01T09:02:07.000Z</time>
      </trkpt>
      <trkpt lat="47.16855" lon="-1.66303">
        <ele>78</ele>
        <time>2021-05-01T09:02:09.000Z</time>
      </trkpt>
      <trkpt lat="47.16857" lon="-1.66321">
        <ele>78</ele>
        <time>2021-05-01T09:02:11.000Z</time>
      </trkpt>
      <trkpt lat="47.16858" lon="-1.6634">
        <ele>78</ele>
        <time>2021-05-01T09:02:13.000Z</time>
      </trkpt>
      <trkpt lat="47.1686" lon="-1.66359">
        <ele>78</ele>
        <time>2021-05-01T09:02:15.000Z</time>
      </trkpt>
      <trkpt lat="47.16862" lon="-1.66378">
        <ele>78</ele>
        <time>2021-05-01T09:02:17.000Z</time>
      </trkpt>
      <trkpt lat="47.16864" lon="-1.66396">
        <ele>77</ele>
        <time>2021-05-01T09:02:19.000Z</time>
      </trkpt>
      <trkpt lat="47.16866" lon="-1.66415">
        <ele>77</ele>
        <time>2021-05-01T09:02:21.000Z</time>
      </trkpt>
      <trkpt lat="47.16869" lon="-1.66434">
        <ele>78</ele>
        <time>2021-05-01T09:02:23.000Z</time>
      </trkpt>
      <trkpt lat="47.16871" lon="-1.66453">
        <ele>78</ele>
        <time>2021-05-01T09:02:25.000Z</time>
      </trkpt>
      <trkpt lat="47.16873" lon="-1.66472">
        <ele>78</ele>
        <time>2021-05-01T09:02:27.000Z</time>
      </trkpt>
      <trkpt lat="47.16875" lon="-1.6649">
        <ele>77</ele>
        <time>2021-05-01T09:02:29.000Z</time>
      </trkpt>
      <trkpt lat="47.16877" lon="-1.66509">
        <ele>77</ele>
        <time>2021-05-01T09:02:31.000Z</time>
      </trkpt>
      <trkpt lat="47.16879" lon="-1.66527">
        <ele>77</ele>
        <time>2021-05-01T09:02:33.000Z</time>
      </trkpt>
      <trkpt lat="47.16881" lon="-1.66546">
        <ele>77</ele>
        <time>2021-05-01T09:02:35.000Z</time>
      </trkpt>
      <trkpt lat="47.16883" lon="-1.66565">
        <ele>77</ele>
        <time>2021-05-01T09:02:37.000Z</time>
      </trkpt>
      <trkpt lat="47.16885" lon="-1.66583">
        <ele>77</ele>
        <time>2021-05-01T09:02:39.000Z</time>
      </trkpt>
      <trkpt lat="47.16888" lon="-1.66602">
        <ele>77</ele>
        <time>2021-05-01T09:02:41.000Z</time>
      </trkpt>
      <trkpt lat="47.16889" lon="-1.66621">
        <ele>77</ele>
        <time>2021-05-01T09:02:43.000Z</time>
      </trkpt>
      <trkpt lat="47.16891" lon="-1.66641">
        <ele>76</ele>
        <time>2021-05-01T09:02:45.000Z</time>
      </trkpt>
      <trkpt lat="47.16892" lon="-1.6666">
        <ele>76</ele>
        <time>2021-05-01T09:02:47.000Z</time>
      </trkpt>
      <trkpt lat="47.16892" lon="-1.6668">
        <ele>76</ele>
        <time>2021-05-01T09:02:49.000Z</time>
      </trkpt>
      <trkpt lat="47.16889" lon="-1.66699">
        <ele>76</ele>
        <time>2021-05-01T09:02:51.000Z</time>
      </trkpt>
      <trkpt lat="47.16885" lon="-1.66718">
        <ele>76</ele>
        <time>2021-05-01T09:02:53.000Z</time>
      </trkpt>
      <trkpt lat="47.16878" lon="-1.66738">
        <ele>76</ele>
        <time>2021-05-01T09:02:55.000Z</time>
      </trkpt>
      <trkpt lat="47.16869" lon="-1.66755">
        <ele>76</ele>
        <time>2021-05-01T09:02:57.000Z</time>
      </trkpt>
      <trkpt lat="47.16861" lon="-1.66772">
        <ele>77</ele>
        <time>2021-05-01T09:02:59.000Z</time>
      </trkpt>
      <trkpt lat="47.16852" lon="-1.66789">
        <ele>77</ele>
        <time>2021-05-01T09:03:01.000Z</time>
      </trkpt>
      <trkpt lat="47.16843" lon="-1.66805">
        <ele>77</ele>
        <time>2021-05-01T09:03:03.000Z</time>
      </trkpt>
      <trkpt lat="47.16834" lon="-1.66822">
        <ele>77</ele>
        <time>2021-05-01T09:03:05.000Z</time>
      </trkpt>
      <trkpt lat="47.16825" lon="-1.66839">
        <ele>77</ele>
        <time>2021-05-01T09:03:07.000Z</time>
      </trkpt>
      <trkpt lat="47.16817" lon="-1.66855">
        <ele>77</ele>
        <time>2021-05-01T09:03:09.000Z</time>
      </trkpt>
      <trkpt lat="47.16808" lon="-1.66871">
        <ele>77</ele>
        <time>2021-05-01T09:03:11.000Z</time>
      </trkpt>
      <trkpt lat="47.16798" lon="-1.66886">
        <ele>77</ele>
        <time>2021-05-01T09:03:13.000Z</time>
      </trkpt>
      <trkpt lat="47.16788" lon="-1.66898">
        <ele>76</ele>
        <time>2021-05-01T09:03:15.000Z</time>
      </trkpt>
      <trkpt lat="47.16777" lon="-1.66908">
        <ele>77</ele>
        <time>2021-05-01T09:03:17.000Z</time>
      </trkpt>
      <trkpt lat="47.16764" lon="-1.66914">
        <ele>76</ele>
        <time>2021-05-01T09:03:19.000Z</time>
      </trkpt>
      <trkpt lat="47.16751" lon="-1.66919">
        <ele>77</ele>
        <time>2021-05-01T09:03:21.000Z</time>
      </trkpt>
      <trkpt lat="47.16738" lon="-1.66924">
        <ele>77</ele>
        <time>2021-05-01T09:03:23.000Z</time>
      </trkpt>
      <trkpt lat="47.16725" lon="-1.66928">
        <ele>77</ele>
        <time>2021-05-01T09:03:25.000Z</time>
      </trkpt>
      <trkpt lat="47.16711" lon="-1.66933">
        <ele>76</ele>
        <time>2021-05-01T09:03:27.000Z</time>
      </trkpt>
      <trkpt lat="47.16699" lon="-1.66939">
        <ele>76</ele>
        <time>2021-05-01T09:03:29.000Z</time>
      </trkpt>
      <trkpt lat="47.16687" lon="-1.66948">
        <ele>75</ele>
        <time>2021-05-01T09:03:31.000Z</time>
      </trkpt>
      <trkpt lat="47.16678" lon="-1.66961">
        <ele>75</ele>
        <time>2021-05-01T09:03:33.000Z</time>
      </trkpt>
      <trkpt lat="47.16669" lon="-1.66981">
        <ele>75</ele>
        <time>2021-05-01T09:03:35.000Z</time>
      </trkpt>
      <trkpt lat="47.16664" lon="-1.67001">
        <ele>75</ele>
        <time>2021-05-01T09:03:37.000Z</time>
      </trkpt>
      <trkpt lat="47.16659" lon="-1.6702">
        <ele>75</ele>
        <time>2021-05-01T09:03:39.000Z</time>
      </trkpt>
      <trkpt lat="47.16654" lon="-1.6704">
        <ele>75</ele>
        <time>2021-05-01T09:03:41.000Z</time>
      </trkpt>
      <trkpt lat="47.1665" lon="-1.67059">
        <ele>76</ele>
        <time>2021-05-01T09:03:43.000Z</time>
      </trkpt>
      <trkpt lat="47.16645" lon="-1.67079">
        <ele>76</ele>
        <time>2021-05-01T09:03:45.000Z</time>
      </trkpt>
      <trkpt lat="47.16641" lon="-1.67098">
        <ele>76</ele>
        <time>2021-05-01T09:03:47.000Z</time>
      </trkpt>
      <trkpt lat="47.16637" lon="-1.67116">
        <ele>75</ele>
        <time>2021-05-01T09:03:49.000Z</time>
      </trkpt>
      <trkpt lat="47.16633" lon="-1.67135">
        <ele>75</ele>
        <time>2021-05-01T09:03:51.000Z</time>
      </trkpt>
      <trkpt lat="47.1663" lon="-1.67153">
        <ele>76</ele>
        <time>2021-05-01T09:03:53.000Z</time>
      </trkpt>
      <trkpt lat="47.16627" lon="-1.67171">
        <ele>76</ele>
        <time>2021-05-01T09:03:55.000Z</time>
      </trkpt>
      <trkpt lat="47.16623" lon="-1.67189">
        <ele>75</ele>
        <time>2021-05-01T09:03:57.000Z</time>
      </trkpt>
      <trkpt lat="47.16619" lon="-1.67207">
        <ele>75</ele>
        <time>2021-05-01T09:03:59.000Z</time>
      </trkpt>
      <trkpt lat="47.16615" lon="-1.67225">
        <ele>75</ele>
        <time>2021-05-01T09:04:01.000Z</time>
      </trkpt>
      <trkpt lat="47.16612" lon="-1.67241">
        <ele>75</ele>
        <time>2021-05-01T09:04:03.000Z</time>
      </trkpt>
      <trkpt lat="47.1661" lon="-1.67256">
        <ele>76</ele>
        <time>2021-05-01T09:04:05.000Z</time>
      </trkpt>
      <trkpt lat="47.16617" lon="-1.67265">
        <ele>76</ele>
        <time>2021-05-01T09:04:07.000Z</time>
      </trkpt>
      <trkpt lat="47.16629" lon="-1.67268">
        <ele>76</ele>
        <time>2021-05-01T09:04:09.000Z</time>
      </trkpt>
      <trkpt lat="47.16641" lon="-1.67272">
        <ele>76</ele>
        <time>2021-05-01T09:04:11.000Z</time>
      </trkpt>
      <trkpt lat="47.16653" lon="-1.67277">
        <ele>76</ele>
        <time>2021-05-01T09:04:13.000Z</time>
      </trkpt>
      <trkpt lat="47.16667" lon="-1.67282">
        <ele>77</ele>
        <time>2021-05-01T09:04:15.000Z</time>
      </trkpt>
      <trkpt lat="47.16682" lon="-1.67286">
        <ele>77</ele>
        <time>2021-05-01T09:04:17.000Z</time>
      </trkpt>
      <trkpt lat="47.16696" lon="-1.67293">
        <ele>77</ele>
        <time>2021-05-01T09:04:19.000Z</time>
      </trkpt>
      <trkpt lat="47.16711" lon="-1.67301">
        <ele>77</ele>
        <time>2021-05-01T09:04:21.000Z</time>
      </trkpt>
      <trkpt lat="47.16725" lon="-1.6731">
        <ele>77</ele>
        <time>2021-05-01T09:04:23.000Z</time>
      </trkpt>
      <trkpt lat="47.16738" lon="-1.67319">
        <ele>77</ele>
        <time>2021-05-01T09:04:25.000Z</time>
      </trkpt>
      <trkpt lat="47.16751" lon="-1.67329">
        <ele>77</ele>
        <time>2021-05-01T09:04:27.000Z</time>
      </trkpt>
      <trkpt lat="47.16763" lon="-1.6734">
        <ele>78</ele>
        <time>2021-05-01T09:04:29.000Z</time>
      </trkpt>
      <trkpt lat="47.16776" lon="-1.67352">
        <ele>78</ele>
        <time>2021-05-01T09:04:31.000Z</time>
      </trkpt>
      <trkpt lat="47.16789" lon="-1.67365">
        <ele>78</ele>
        <time>2021-05-01T09:04:33.000Z</time>
      </trkpt>
      <trkpt lat="47.16801" lon="-1.67379">
        <ele>78</ele>
        <time>2021-05-01T09:04:35.000Z</time>
      </trkpt>
      <trkpt lat="47.16813" lon="-1.67393">
        <ele>77</ele>
        <time>2021-05-01T09:04:37.000Z</time>
      </trkpt>
      <trkpt lat="47.16826" lon="-1.67406">
        <ele>77</ele>
        <time>2021-05-01T09:04:39.000Z</time>
      </trkpt>
      <trkpt lat="47.16838" lon="-1.67421">
        <ele>77</ele>
        <time>2021-05-01T09:04:41.000Z</time>
      </trkpt>
      <trkpt lat="47.1685" lon="-1.67435">
        <ele>77</ele>
        <time>2021-05-01T09:04:43.000Z</time>
      </trkpt>
      <trkpt lat="47.16863" lon="-1.67451">
        <ele>77</ele>
        <time>2021-05-01T09:04:45.000Z</time>
      </trkpt>
      <trkpt lat="47.16876" lon="-1.67466">
        <ele>77</ele>
        <time>2021-05-01T09:04:47.000Z</time>
      </trkpt>
      <trkpt lat="47.16888" lon="-1.67481">
        <ele>76</ele>
        <time>2021-05-01T09:04:49.000Z</time>
      </trkpt>
      <trkpt lat="47.16901" lon="-1.67495">
        <ele>76</ele>
        <time>2021-05-01T09:04:51.000Z</time>
      </trkpt>
      <trkpt lat="47.16913" lon="-1.67509">
        <ele>75</ele>
        <time>2021-05-01T09:04:53.000Z</time>
      </trkpt>
      <trkpt lat="47.16925" lon="-1.67525">
        <ele>76</ele>
        <time>2021-05-01T09:04:55.000Z</time>
      </trkpt>
      <trkpt lat="47.16937" lon="-1.67539">
        <ele>76</ele>
        <time>2021-05-01T09:04:57.000Z</time>
      </trkpt>
      <trkpt lat="47.1695" lon="-1.67554">
        <ele>75</ele>
        <time>2021-05-01T09:04:59.000Z</time>
      </trkpt>
      <trkpt lat="47.16961" lon="-1.67567">
        <ele>75</ele>
        <time>2021-05-01T09:05:01.000Z</time>
      </trkpt>
      <trkpt lat="47.16973" lon="-1.67581">
        <ele>75</ele>
        <time>2021-05-01T09:05:03.000Z</time>
      </trkpt>
      <trkpt lat="47.16985" lon="-1.67595">
        <ele>75</ele>
        <time>2021-05-01T09:05:05.000Z</time>
      </trkpt>
      <trkpt lat="47.16998" lon="-1.67609">
        <ele>75</ele>
        <time>2021-05-01T09:05:07.000Z</time>
      </trkpt>
      <trkpt lat="47.17009" lon="-1.67623">
        <ele>75</ele>
        <time>2021-05-01T09:05:09.000Z</time>
      </trkpt>
      <trkpt lat="47.17021" lon="-1.67637">
        <ele>75</ele>
        <time>2021-05-01T09:05:11.000Z</time>
      </trkpt>
      <trkpt lat="47.17034" lon="-1.67651">
        <ele>75</ele>
        <time>2021-05-01T09:05:13.000Z</time>
      </trkpt>
      <trkpt lat="47.17047" lon="-1.67666">
        <ele>75</ele>
        <time>2021-05-01T09:05:15.000Z</time>
      </trkpt>
      <trkpt lat="47.17059" lon="-1.6768">
        <ele>75</ele>
        <time>2021-05-01T09:05:17.000Z</time>
      </trkpt>
      <trkpt lat="47.17071" lon="-1.67695">
        <ele>76</ele>
        <time>2021-05-01T09:05:19.000Z</time>
      </trkpt>
      <trkpt lat="47.17083" lon="-1.67709">
        <ele>77</ele>
        <time>2021-05-01T09:05:21.000Z</time>
      </trkpt>
      <trkpt lat="47.17095" lon="-1.67723">
        <ele>77</ele>
        <time>2021-05-01T09:05:23.000Z</time>
      </trkpt>
      <trkpt lat="47.17107" lon="-1.67737">
        <ele>77</ele>
        <time>2021-05-01T09:05:25.000Z</time>
      </trkpt>
      <trkpt lat="47.17119" lon="-1.6775">
        <ele>77</ele>
        <time>2021-05-01T09:05:27.000Z</time>
      </trkpt>
      <trkpt lat="47.17131" lon="-1.67765">
        <ele>78</ele>
        <time>2021-05-01T09:05:29.000Z</time>
      </trkpt>
      <trkpt lat="47.17143" lon="-1.67778">
        <ele>78</ele>
        <time>2021-05-01T09:05:31.000Z</time>
      </trkpt>
      <trkpt lat="47.17155" lon="-1.67792">
        <ele>78</ele>
        <time>2021-05-01T09:05:33.000Z</time>
      </trkpt>
      <trkpt lat="47.17166" lon="-1.67805">
        <ele>79</ele>
        <time>2021-05-01T09:05:35.000Z</time>
      </trkpt>
      <trkpt lat="47.17177" lon="-1.67818">
        <ele>79</ele>
        <time>2021-05-01T09:05:37.000Z</time>
      </trkpt>
      <trkpt lat="47.17189" lon="-1.67832">
        <ele>79</ele>
        <time>2021-05-01T09:05:39.000Z</time>
      </trkpt>
      <trkpt lat="47.172" lon="-1.67846">
        <ele>78</ele>
        <time>2021-05-01T09:05:41.000Z</time>
      </trkpt>
      <trkpt lat="47.17212" lon="-1.6786">
        <ele>78</ele>
        <time>2021-05-01T09:05:43.000Z</time>
      </trkpt>
      <trkpt lat="47.17223" lon="-1.67873">
        <ele>78</ele>
        <time>2021-05-01T09:05:45.000Z</time>
      </trkpt>
      <trkpt lat="47.17235" lon="-1.67887">
        <ele>78</ele>
        <time>2021-05-01T09:05:47.000Z</time>
      </trkpt>
      <trkpt lat="47.17247" lon="-1.67902">
        <ele>78</ele>
        <time>2021-05-01T09:05:49.000Z</time>
      </trkpt>
      <trkpt lat="47.1726" lon="-1.67916">
        <ele>78</ele>
        <time>2021-05-01T09:05:51.000Z</time>
      </trkpt>
      <trkpt lat="47.17272" lon="-1.6793">
        <ele>78</ele>
        <time>2021-05-01T09:05:53.000Z</time>
      </trkpt>
      <trkpt lat="47.17284" lon="-1.67944">
        <ele>78</ele>
        <time>2021-05-01T09:05:55.000Z</time>
      </trkpt>
      <trkpt lat="47.17296" lon="-1.67958">
        <ele>78</ele>
        <time>2021-05-01T09:05:57.000Z</time>
      </trkpt>
      <trkpt lat="47.17307" lon="-1.67972">
        <ele>78</ele>
        <time>2021-05-01T09:05:59.000Z</time>
      </trkpt>
      <trkpt lat="47.17318" lon="-1.67987">
        <ele>77</ele>
        <time>2021-05-01T09:06:01.000Z</time>
      </trkpt>
      <trkpt lat="47.17327" lon="-1.68004">
        <ele>77</ele>
        <time>2021-05-01T09:06:03.000Z</time>
      </trkpt>
      <trkpt lat="47.17334" lon="-1.68022">
        <ele>77</ele>
        <time>2021-05-01T09:06:05.000Z</time>
      </trkpt>
      <trkpt lat="47.1734" lon="-1.68043">
        <ele>77</ele>
        <time>2021-05-01T09:06:07.000Z</time>
      </trkpt>
      <trkpt lat="47.17345" lon="-1.68064">
        <ele>77</ele>
        <time>2021-05-01T09:06:09.000Z</time>
      </trkpt>
      <trkpt lat="47.17349" lon="-1.68085">
        <ele>77</ele>
        <time>2021-05-01T09:06:11.000Z</time>
      </trkpt>
      <trkpt lat="47.17353" lon="-1.68106">
        <ele>78</ele>
        <time>2021-05-01T09:06:13.000Z</time>
      </trkpt>
      <trkpt lat="47.17357" lon="-1.68128">
        <ele>78</ele>
        <time>2021-05-01T09:06:15.000Z</time>
      </trkpt>
      <trkpt lat="47.1736" lon="-1.6815">
        <ele>78</ele>
        <time>2021-05-01T09:06:17.000Z</time>
      </trkpt>
      <trkpt lat="47.1736" lon="-1.68172">
        <ele>78</ele>
        <time>2021-05-01T09:06:19.000Z</time>
      </trkpt>
      <trkpt lat="47.17359" lon="-1.68195">
        <ele>78</ele>
        <time>2021-05-01T09:06:21.000Z</time>
      </trkpt>
      <trkpt lat="47.17356" lon="-1.68216">
        <ele>79</ele>
        <time>2021-05-01T09:06:23.000Z</time>
      </trkpt>
      <trkpt lat="47.17351" lon="-1.68237">
        <ele>80</ele>
        <time>2021-05-01T09:06:25.000Z</time>
      </trkpt>
      <trkpt lat="47.17347" lon="-1.68258">
        <ele>80</ele>
        <time>2021-05-01T09:06:27.000Z</time>
      </trkpt>
      <trkpt lat="47.17342" lon="-1.68279">
        <ele>80</ele>
        <time>2021-05-01T09:06:29.000Z</time>
      </trkpt>
      <trkpt lat="47.17338" lon="-1.68299">
        <ele>81</ele>
        <time>2021-05-01T09:06:31.000Z</time>
      </trkpt>
      <trkpt lat="47.17334" lon="-1.68318">
        <ele>82</ele>
        <time>2021-05-01T09:06:33.000Z</time>
      </trkpt>
      <trkpt lat="47.17329" lon="-1.68338">
        <ele>82</ele>
        <time>2021-05-01T09:06:35.000Z</time>
      </trkpt>
      <trkpt lat="47.17328" lon="-1.68357">
        <ele>83</ele>
        <time>2021-05-01T09:06:37.000Z</time>
      </trkpt>
      <trkpt lat="47.17336" lon="-1.68372">
        <ele>84</ele>
        <time>2021-05-01T09:06:39.000Z</time>
      </trkpt>
      <trkpt lat="47.17349" lon="-1.68377">
        <ele>84</ele>
        <time>2021-05-01T09:06:41.000Z</time>
      </trkpt>
      <trkpt lat="47.17363" lon="-1.68377">
        <ele>85</ele>
        <time>2021-05-01T09:06:43.000Z</time>
      </trkpt>
      <trkpt lat="47.17375" lon="-1.68383">
        <ele>85</ele>
        <time>2021-05-01T09:06:45.000Z</time>
      </trkpt>
      <trkpt lat="47.17379" lon="-1.68402">
        <ele>85</ele>
        <time>2021-05-01T09:06:47.000Z</time>
      </trkpt>
      <trkpt lat="47.17372" lon="-1.68421">
        <ele>85</ele>
        <time>2021-05-01T09:06:49.000Z</time>
      </trkpt>
      <trkpt lat="47.17361" lon="-1.68432">
        <ele>85</ele>
        <time>2021-05-01T09:06:51.000Z</time>
      </trkpt>
      <trkpt lat="47.17358" lon="-1.68451">
        <ele>85</ele>
        <time>2021-05-01T09:06:53.000Z</time>
      </trkpt>
      <trkpt lat="47.17367" lon="-1.68469">
        <ele>85</ele>
        <time>2021-05-01T09:06:55.000Z</time>
      </trkpt>
      <trkpt lat="47.17379" lon="-1.68486">
        <ele>83</ele>
        <time>2021-05-01T09:06:57.000Z</time>
      </trkpt>
      <trkpt lat="47.17392" lon="-1.68503">
        <ele>81</ele>
        <time>2021-05-01T09:06:59.000Z</time>
      </trkpt>
      <trkpt lat="47.17403" lon="-1.68521">
        <ele>81</ele>
        <time>2021-05-01T09:07:01.000Z</time>
      </trkpt>
      <trkpt lat="47.17414" lon="-1.68539">
        <ele>80</ele>
        <time>2021-05-01T09:07:03.000Z</time>
      </trkpt>
      <trkpt lat="47.17425" lon="-1.68558">
        <ele>79</ele>
        <time>2021-05-01T09:07:05.000Z</time>
      </trkpt>
      <trkpt lat="47.17434" lon="-1.68578">
        <ele>78</ele>
        <time>2021-05-01T09:07:07.000Z</time>
      </trkpt>
      <trkpt lat="47.17443" lon="-1.68599">
        <ele>77</ele>
        <time>2021-05-01T09:07:09.000Z</time>
      </trkpt>
      <trkpt lat="47.17451" lon="-1.6862">
        <ele>77</ele>
        <time>2021-05-01T09:07:11.000Z</time>
      </trkpt>
      <trkpt lat="47.17458" lon="-1.68641">
        <ele>78</ele>
        <time>2021-05-01T09:07:13.000Z</time>
      </trkpt>
      <trkpt lat="47.17465" lon="-1.68662">
        <ele>77</ele>
        <time>2021-05-01T09:07:15.000Z</time>
      </trkpt>
      <trkpt lat="47.17471" lon="-1.68682">
        <ele>77</ele>
        <time>2021-05-01T09:07:17.000Z</time>
      </trkpt>
      <trkpt lat="47.17477" lon="-1.68703">
        <ele>77</ele>
        <time>2021-05-01T09:07:19.000Z</time>
      </trkpt>
      <trkpt lat="47.17482" lon="-1.68724">
        <ele>77</ele>
        <time>2021-05-01T09:07:21.000Z</time>
      </trkpt>
      <trkpt lat="47.17486" lon="-1.68744">
        <ele>77</ele>
        <time>2021-05-01T09:07:23.000Z</time>
      </trkpt>
      <trkpt lat="47.1749" lon="-1.68765">
        <ele>77</ele>
        <time>2021-05-01T09:07:25.000Z</time>
      </trkpt>
      <trkpt lat="47.17494" lon="-1.68786">
        <ele>77</ele>
        <time>2021-05-01T09:07:27.000Z</time>
      </trkpt>
      <trkpt lat="47.17498" lon="-1.68806">
        <ele>78</ele>
        <time>2021-05-01T09:07:29.000Z</time>
      </trkpt>
      <trkpt lat="47.17502" lon="-1.68826">
        <ele>78</ele>
        <time>2021-05-01T09:07:31.000Z</time>
      </trkpt>
      <trkpt lat="47.17507" lon="-1.68848">
        <ele>78</ele>
        <time>2021-05-01T09:07:33.000Z</time>
      </trkpt>
      <trkpt lat="47.17509" lon="-1.6887">
        <ele>78</ele>
        <time>2021-05-01T09:07:35.000Z</time>
      </trkpt>
      <trkpt lat="47.17509" lon="-1.68892">
        <ele>78</ele>
        <time>2021-05-01T09:07:37.000Z</time>
      </trkpt>
      <trkpt lat="47.17506" lon="-1.68914">
        <ele>78</ele>
        <time>2021-05-01T09:07:39.000Z</time>
      </trkpt>
      <trkpt lat="47.17504" lon="-1.68936">
        <ele>78</ele>
        <time>2021-05-01T09:07:41.000Z</time>
      </trkpt>
      <trkpt lat="47.17504" lon="-1.68958">
        <ele>78</ele>
        <time>2021-05-01T09:07:43.000Z</time>
      </trkpt>
      <trkpt lat="47.17504" lon="-1.68981">
        <ele>78</ele>
        <time>2021-05-01T09:07:45.000Z</time>
      </trkpt>
      <trkpt lat="47.17505" lon="-1.69003">
        <ele>78</ele>
        <time>2021-05-01T09:07:47.000Z</time>
      </trkpt>
      <trkpt lat="47.17506" lon="-1.69025">
        <ele>78</ele>
        <time>2021-05-01T09:07:49.000Z</time>
      </trkpt>
      <trkpt lat="47.17507" lon="-1.69047">
        <ele>78</ele>
        <time>2021-05-01T09:07:51.000Z</time>
      </trkpt>
      <trkpt lat="47.17507" lon="-1.6907">
        <ele>77</ele>
        <time>2021-05-01T09:07:53.000Z</time>
      </trkpt>
      <trkpt lat="47.17506" lon="-1.69092">
        <ele>77</ele>
        <time>2021-05-01T09:07:55.000Z</time>
      </trkpt>
      <trkpt lat="47.17506" lon="-1.69113">
        <ele>77</ele>
        <time>2021-05-01T09:07:57.000Z</time>
      </trkpt>
      <trkpt lat="47.17506" lon="-1.69136">
        <ele>77</ele>
        <time>2021-05-01T09:07:59.000Z</time>
      </trkpt>
      <trkpt lat="47.17505" lon="-1.69158">
        <ele>77</ele>
        <time>2021-05-01T09:08:01.000Z</time>
      </trkpt>
      <trkpt lat="47.17504" lon="-1.69179">
        <ele>77</ele>
        <time>2021-05-01T09:08:03.000Z</time>
      </trkpt>
      <trkpt lat="47.17502" lon="-1.69201">
        <ele>77</ele>
        <time>2021-05-01T09:08:05.000Z</time>
      </trkpt>
      <trkpt lat="47.17501" lon="-1.69223">
        <ele>77</ele>
        <time>2021-05-01T09:08:07.000Z</time>
      </trkpt>
      <trkpt lat="47.17501" lon="-1.69245">
        <ele>77</ele>
        <time>2021-05-01T09:08:09.000Z</time>
      </trkpt>
      <trkpt lat="47.17499" lon="-1.69268">
        <ele>77</ele>
        <time>2021-05-01T09:08:11.000Z</time>
      </trkpt>
      <trkpt lat="47.17499" lon="-1.69289">
        <ele>77</ele>
        <time>2021-05-01T09:08:13.000Z</time>
      </trkpt>
      <trkpt lat="47.17497" lon="-1.69312">
        <ele>77</ele>
        <time>2021-05-01T09:08:15.000Z</time>
      </trkpt>
      <trkpt lat="47.17497" lon="-1.69335">
        <ele>76</ele>
        <time>2021-05-01T09:08:17.000Z</time>
      </trkpt>
      <trkpt lat="47.17496" lon="-1.69356">
        <ele>76</ele>
        <time>2021-05-01T09:08:19.000Z</time>
      </trkpt>
      <trkpt lat="47.17496" lon="-1.69379">
        <ele>76</ele>
        <time>2021-05-01T09:08:21.000Z</time>
      </trkpt>
      <trkpt lat="47.17496" lon="-1.69402">
        <ele>76</ele>
        <time>2021-05-01T09:08:23.000Z</time>
      </trkpt>
      <trkpt lat="47.17495" lon="-1.69424">
        <ele>76</ele>
        <time>2021-05-01T09:08:25.000Z</time>
      </trkpt>
      <trkpt lat="47.17496" lon="-1.69447">
        <ele>76</ele>
        <time>2021-05-01T09:08:27.000Z</time>
      </trkpt>
      <trkpt lat="47.17496" lon="-1.69469">
        <ele>76</ele>
        <time>2021-05-01T09:08:29.000Z</time>
      </trkpt>
      <trkpt lat="47.17497" lon="-1.69492">
        <ele>76</ele>
        <time>2021-05-01T09:08:31.000Z</time>
      </trkpt>
      <trkpt lat="47.17498" lon="-1.69515">
        <ele>76</ele>
        <time>2021-05-01T09:08:33.000Z</time>
      </trkpt>
      <trkpt lat="47.17499" lon="-1.69538">
        <ele>76</ele>
        <time>2021-05-01T09:08:35.000Z</time>
      </trkpt>
      <trkpt lat="47.175" lon="-1.6956">
        <ele>76</ele>
        <time>2021-05-01T09:08:37.000Z</time>
      </trkpt>
      <trkpt lat="47.17502" lon="-1.69583">
        <ele>76</ele>
        <time>2021-05-01T09:08:39.000Z</time>
      </trkpt>
      <trkpt lat="47.17504" lon="-1.69606">
        <ele>76</ele>
        <time>2021-05-01T09:08:41.000Z</time>
      </trkpt>
      <trkpt lat="47.17506" lon="-1.69629">
        <ele>76</ele>
        <time>2021-05-01T09:08:43.000Z</time>
      </trkpt>
      <trkpt lat="47.17508" lon="-1.69651">
        <ele>76</ele>
        <time>2021-05-01T09:08:45.000Z</time>
      </trkpt>
      <trkpt lat="47.1751" lon="-1.69674">
        <ele>75</ele>
        <time>2021-05-01T09:08:47.000Z</time>
      </trkpt>
      <trkpt lat="47.17512" lon="-1.69696">
        <ele>75</ele>
        <time>2021-05-01T09:08:49.000Z</time>
      </trkpt>
      <trkpt lat="47.17514" lon="-1.69718">
        <ele>75</ele>
        <time>2021-05-01T09:08:51.000Z</time>
      </trkpt>
      <trkpt lat="47.17516" lon="-1.69739">
        <ele>75</ele>
        <time>2021-05-01T09:08:53.000Z</time>
      </trkpt>
      <trkpt lat="47.17517" lon="-1.69761">
        <ele>75</ele>
        <time>2021-05-01T09:08:55.000Z</time>
      </trkpt>
      <trkpt lat="47.17519" lon="-1.69783">
        <ele>75</ele>
        <time>2021-05-01T09:08:57.000Z</time>
      </trkpt>
      <trkpt lat="47.17522" lon="-1.69804">
        <ele>75</ele>
        <time>2021-05-01T09:08:59.000Z</time>
      </trkpt>
      <trkpt lat="47.17525" lon="-1.69826">
        <ele>75</ele>
        <time>2021-05-01T09:09:01.000Z</time>
      </trkpt>
      <trkpt lat="47.17527" lon="-1.69847">
        <ele>75</ele>
        <time>2021-05-01T09:09:03.000Z</time>
      </trkpt>
      <trkpt lat="47.1753" lon="-1.69868">
        <ele>75</ele>
        <time>2021-05-01T09:09:05.000Z</time>
      </trkpt>
      <trkpt lat="47.17533" lon="-1.69888">
        <ele>75</ele>
        <time>2021-05-01T09:09:07.000Z</time>
      </trkpt>
      <trkpt lat="47.17536" lon="-1.69909">
        <ele>75</ele>
        <time>2021-05-01T09:09:09.000Z</time>
      </trkpt>
      <trkpt lat="47.17539" lon="-1.6993">
        <ele>75</ele>
        <time>2021-05-01T09:09:11.000Z</time>
      </trkpt>
      <trkpt lat="47.17543" lon="-1.69951">
        <ele>75</ele>
        <time>2021-05-01T09:09:13.000Z</time>
      </trkpt>
      <trkpt lat="47.17547" lon="-1.69972">
        <ele>76</ele>
        <time>2021-05-01T09:09:15.000Z</time>
      </trkpt>
      <trkpt lat="47.17552" lon="-1.69992">
        <ele>76</ele>
        <time>2021-05-01T09:09:17.000Z</time>
      </trkpt>
      <trkpt lat="47.17557" lon="-1.70012">
        <ele>76</ele>
        <time>2021-05-01T09:09:19.000Z</time>
      </trkpt>
      <trkpt lat="47.17561" lon="-1.70033">
        <ele>76</ele>
        <time>2021-05-01T09:09:21.000Z</time>
      </trkpt>
      <trkpt lat="47.17565" lon="-1.70054">
        <ele>76</ele>
        <time>2021-05-01T09:09:23.000Z</time>
      </trkpt>
      <trkpt lat="47.1757" lon="-1.70075">
        <ele>76</ele>
        <time>2021-05-01T09:09:25.000Z</time>
      </trkpt>
      <trkpt lat="47.17574" lon="-1.70096">
        <ele>76</ele>
        <time>2021-05-01T09:09:27.000Z</time>
      </trkpt>
      <trkpt lat="47.17579" lon="-1.70117">
        <ele>76</ele>
        <time>2021-05-01T09:09:29.000Z</time>
      </trkpt>
      <trkpt lat="47.17583" lon="-1.70138">
        <ele>76</ele>
        <time>2021-05-01T09:09:31.000Z</time>
      </trkpt>
      <trkpt lat="47.17587" lon="-1.70159">
        <ele>76</ele>
        <time>2021-05-01T09:09:33.000Z</time>
      </trkpt>
      <trkpt lat="47.17591" lon="-1.7018">
        <ele>77</ele>
        <time>2021-05-01T09:09:35.000Z</time>
      </trkpt>
      <trkpt lat="47.17593" lon="-1.70201">
        <ele>76</ele>
        <time>2021-05-01T09:09:37.000Z</time>
      </trkpt>
      <trkpt lat="47.17596" lon="-1.70222">
        <ele>76</ele>
        <time>2021-05-01T09:09:39.000Z</time>
      </trkpt>
      <trkpt lat="47.17597" lon="-1.70243">
        <ele>76</ele>
        <time>2021-05-01T09:09:41.000Z</time>
      </trkpt>
      <trkpt lat="47.17595" lon="-1.70264">
        <ele>76</ele>
        <time>2021-05-01T09:09:43.000Z</time>
      </trkpt>
      <trkpt lat="47.17593" lon="-1.70284">
        <ele>76</ele>
        <time>2021-05-01T09:09:45.000Z</time>
      </trkpt>
      <trkpt lat="47.17587" lon="-1.70303">
        <ele>77</ele>
        <time>2021-05-01T09:09:47.000Z</time>
      </trkpt>
      <trkpt lat="47.17581" lon="-1.70321">
        <ele>77</ele>
        <time>2021-05-01T09:09:49.000Z</time>
      </trkpt>
      <trkpt lat="47.17574" lon="-1.70338">
        <ele>78</ele>
        <time>2021-05-01T09:09:51.000Z</time>
      </trkpt>
      <trkpt lat="47.17569" lon="-1.70355">
        <ele>78</ele>
        <time>2021-05-01T09:09:53.000Z</time>
      </trkpt>
      <trkpt lat="47.17571" lon="-1.70373">
        <ele>78</ele>
        <time>2021-05-01T09:09:55.000Z</time>
      </trkpt>
      <trkpt lat="47.1758" lon="-1.70383">
        <ele>78</ele>
        <time>2021-05-01T09:09:57.000Z</time>
      </trkpt>
      <trkpt lat="47.17595" lon="-1.70383">
        <ele>79</ele>
        <time>2021-05-01T09:09:59.000Z</time>
      </trkpt>
      <trkpt lat="47.17608" lon="-1.70387">
        <ele>80</ele>
        <time>2021-05-01T09:10:01.000Z</time>
      </trkpt>
      <trkpt lat="47.17617" lon="-1.704">
        <ele>80</ele>
        <time>2021-05-01T09:10:03.000Z</time>
      </trkpt>
      <trkpt lat="47.17618" lon="-1.70421">
        <ele>80</ele>
        <time>2021-05-01T09:10:05.000Z</time>
      </trkpt>
      <trkpt lat="47.17613" lon="-1.70442">
        <ele>79</ele>
        <time>2021-05-01T09:10:07.000Z</time>
      </trkpt>
      <trkpt lat="47.1761" lon="-1.70461">
        <ele>79</ele>
        <time>2021-05-01T09:10:09.000Z</time>
      </trkpt>
      <trkpt lat="47.17619" lon="-1.70479">
        <ele>79</ele>
        <time>2021-05-01T09:10:11.000Z</time>
      </trkpt>
      <trkpt lat="47.17629" lon="-1.70495">
        <ele>78</ele>
        <time>2021-05-01T09:10:13.000Z</time>
      </trkpt>
      <trkpt lat="47.17641" lon="-1.7051">
        <ele>77</ele>
        <time>2021-05-01T09:10:15.000Z</time>
      </trkpt>
      <trkpt lat="47.17653" lon="-1.70523">
        <ele>76</ele>
        <time>2021-05-01T09:10:17.000Z</time>
      </trkpt>
      <trkpt lat="47.17666" lon="-1.70535">
        <ele>76</ele>
        <time>2021-05-01T09:10:19.000Z</time>
      </trkpt>
      <trkpt lat="47.17678" lon="-1.70546">
        <ele>76</ele>
        <time>2021-05-01T09:10:21.000Z</time>
      </trkpt>
      <trkpt lat="47.1769" lon="-1.70558">
        <ele>76</ele>
        <time>2021-05-01T09:10:23.000Z</time>
      </trkpt>
      <trkpt lat="47.17702" lon="-1.70569">
        <ele>75</ele>
        <time>2021-05-01T09:10:25.000Z</time>
      </trkpt>
      <trkpt lat="47.17713" lon="-1.70582">
        <ele>75</ele>
        <time>2021-05-01T09:10:27.000Z</time>
      </trkpt>
      <trkpt lat="47.17723" lon="-1.70598">
        <ele>75</ele>
        <time>2021-05-01T09:10:29.000Z</time>
      </trkpt>
      <trkpt lat="47.17732" lon="-1.70614">
        <ele>75</ele>
        <time>2021-05-01T09:10:31.000Z</time>
      </trkpt>
      <trkpt lat="47.17739" lon="-1.70633">
        <ele>74</ele>
        <time>2021-05-01T09:10:33.000Z</time>
      </trkpt>
      <trkpt lat="47.17745" lon="-1.70652">
        <ele>74</ele>
        <time>2021-05-01T09:10:35.000Z</time>
      </trkpt>
      <trkpt lat="47.17752" lon="-1.7067">
        <ele>74</ele>
        <time>2021-05-01T09:10:37.000Z</time>
      </trkpt>
      <trkpt lat="47.17758" lon="-1.70689">
        <ele>74</ele>
        <time>2021-05-01T09:10:39.000Z</time>
      </trkpt>
      <trkpt lat="47.17764" lon="-1.70707">
        <ele>74</ele>
        <time>2021-05-01T09:10:41.000Z</time>
      </trkpt>
      <trkpt lat="47.1777" lon="-1.70725">
        <ele>75</ele>
        <time>2021-05-01T09:10:43.000Z</time>
      </trkpt>
      <trkpt lat="47.17776" lon="-1.70744">
        <ele>75</ele>
        <time>2021-05-01T09:10:45.000Z</time>
      </trkpt>
      <trkpt lat="47.17783" lon="-1.70762">
        <ele>75</ele>
        <time>2021-05-01T09:10:47.000Z</time>
      </trkpt>
      <trkpt lat="47.17788" lon="-1.7078">
        <ele>75</ele>
        <time>2021-05-01T09:10:49.000Z</time>
      </trkpt>
      <trkpt lat="47.17794" lon="-1.70798">
        <ele>75</ele>
        <time>2021-05-01T09:10:51.000Z</time>
      </trkpt>
      <trkpt lat="47.178" lon="-1.70816">
        <ele>75</ele>
        <time>2021-05-01T09:10:53.000Z</time>
      </trkpt>
      <trkpt lat="47.17807" lon="-1.70834">
        <ele>74</ele>
        <time>2021-05-01T09:10:55.000Z</time>
      </trkpt>
      <trkpt lat="47.17812" lon="-1.70852">
        <ele>75</ele>
        <time>2021-05-01T09:10:57.000Z</time>
      </trkpt>
      <trkpt lat="47.17818" lon="-1.7087">
        <ele>75</ele>
        <time>2021-05-01T09:10:59.000Z</time>
      </trkpt>
      <trkpt lat="47.17824" lon="-1.70888">
        <ele>75</ele>
        <time>2021-05-01T09:11:01.000Z</time>
      </trkpt>
      <trkpt lat="47.1783" lon="-1.70906">
        <ele>75</ele>
        <time>2021-05-01T09:11:03.000Z</time>
      </trkpt>
      <trkpt lat="47.17836" lon="-1.70923">
        <ele>75</ele>
        <time>2021-05-01T09:11:05.000Z</time>
      </trkpt>
      <trkpt lat="47.17842" lon="-1.70939">
        <ele>76</ele>
        <time>2021-05-01T09:11:07.000Z</time>
      </trkpt>
      <trkpt lat="47.17848" lon="-1.70956">
        <ele>76</ele>
        <time>2021-05-01T09:11:09.000Z</time>
      </trkpt>
      <trkpt lat="47.17855" lon="-1.70972">
        <ele>76</ele>
        <time>2021-05-01T09:11:11.000Z</time>
      </trkpt>
      <trkpt lat="47.17863" lon="-1.70986">
        <ele>76</ele>
        <time>2021-05-01T09:11:13.000Z</time>
      </trkpt>
      <trkpt lat="47.17871" lon="-1.71">
        <ele>76</ele>
        <time>2021-05-01T09:11:15.000Z</time>
      </trkpt>
      <trkpt lat="47.17878" lon="-1.71015">
        <ele>76</ele>
        <time>2021-05-01T09:11:17.000Z</time>
      </trkpt>
      <trkpt lat="47.17884" lon="-1.71032">
        <ele>76</ele>
        <time>2021-05-01T09:11:19.000Z</time>
      </trkpt>
      <trkpt lat="47.17889" lon="-1.71049">
        <ele>76</ele>
        <time>2021-05-01T09:11:21.000Z</time>
      </trkpt>
      <trkpt lat="47.17895" lon="-1.71067">
        <ele>76</ele>
        <time>2021-05-01T09:11:23.000Z</time>
      </trkpt>
      <trkpt lat="47.179" lon="-1.71085">
        <ele>76</ele>
        <time>2021-05-01T09:11:25.000Z</time>
      </trkpt>
      <trkpt lat="47.17906" lon="-1.71102">
        <ele>76</ele>
        <time>2021-05-01T09:11:27.000Z</time>
      </trkpt>
      <trkpt lat="47.17911" lon="-1.71121">
        <ele>76</ele>
        <time>2021-05-01T09:11:29.000Z</time>
      </trkpt>
      <trkpt lat="47.17916" lon="-1.71139">
        <ele>76</ele>
        <time>2021-05-01T09:11:31.000Z</time>
      </trkpt>
      <trkpt lat="47.1792" lon="-1.71158">
        <ele>76</ele>
        <time>2021-05-01T09:11:33.000Z</time>
      </trkpt>
      <trkpt lat="47.17923" lon="-1.71177">
        <ele>76</ele>
        <time>2021-05-01T09:11:35.000Z</time>
      </trkpt>
      <trkpt lat="47.17926" lon="-1.71197">
        <ele>77</ele>
        <time>2021-05-01T09:11:37.000Z</time>
      </trkpt>
      <trkpt lat="47.17931" lon="-1.71216">
        <ele>76</ele>
        <time>2021-05-01T09:11:39.000Z</time>
      </trkpt>
      <trkpt lat="47.17937" lon="-1.71235">
        <ele>76</ele>
        <time>2021-05-01T09:11:41.000Z</time>
      </trkpt>
      <trkpt lat="47.17943" lon="-1.71254">
        <ele>77</ele>
        <time>2021-05-01T09:11:43.000Z</time>
      </trkpt>
      <trkpt lat="47.17949" lon="-1.71272">
        <ele>77</ele>
        <time>2021-05-01T09:11:45.000Z</time>
      </trkpt>
      <trkpt lat="47.17956" lon="-1.7129">
        <ele>76</ele>
        <time>2021-05-01T09:11:47.000Z</time>
      </trkpt>
      <trkpt lat="47.17962" lon="-1.7131">
        <ele>77</ele>
        <time>2021-05-01T09:11:49.000Z</time>
      </trkpt>
      <trkpt lat="47.17968" lon="-1.71329">
        <ele>77</ele>
        <time>2021-05-01T09:11:51.000Z</time>
      </trkpt>
      <trkpt lat="47.17974" lon="-1.71347">
        <ele>76</ele>
        <time>2021-05-01T09:11:53.000Z</time>
      </trkpt>
      <trkpt lat="47.1798" lon="-1.71366">
        <ele>76</ele>
        <time>2021-05-01T09:11:55.000Z</time>
      </trkpt>
      <trkpt lat="47.17986" lon="-1.71385">
        <ele>76</ele>
        <time>2021-05-01T09:11:57.000Z</time>
      </trkpt>
      <trkpt lat="47.17992" lon="-1.71403">
        <ele>76</ele>
        <time>2021-05-01T09:11:59.000Z</time>
      </trkpt>
      <trkpt lat="47.17998" lon="-1.71421">
        <ele>77</ele>
        <time>2021-05-01T09:12:01.000Z</time>
      </trkpt>
      <trkpt lat="47.18005" lon="-1.71439">
        <ele>76</ele>
        <time>2021-05-01T09:12:03.000Z</time>
      </trkpt>
      <trkpt lat="47.1801" lon="-1.71458">
        <ele>76</ele>
        <time>2021-05-01T09:12:05.000Z</time>
      </trkpt>
      <trkpt lat="47.18016" lon="-1.71477">
        <ele>76</ele>
        <time>2021-05-01T09:12:07.000Z</time>
      </trkpt>
      <trkpt lat="47.18022" lon="-1.71494">
        <ele>77</ele>
        <time>2021-05-01T09:12:09.000Z</time>
      </trkpt>
      <trkpt lat="47.18028" lon="-1.71512">
        <ele>76</ele>
        <time>2021-05-01T09:12:11.000Z</time>
      </trkpt>
      <trkpt lat="47.18034" lon="-1.71531">
        <ele>76</ele>
        <time>2021-05-01T09:12:13.000Z</time>
      </trkpt>
      <trkpt lat="47.1804" lon="-1.71549">
        <ele>76</ele>
        <time>2021-05-01T09:12:15.000Z</time>
      </trkpt>
      <trkpt lat="47.18045" lon="-1.71567">
        <ele>77</ele>
        <time>2021-05-01T09:12:17.000Z</time>
      </trkpt>
      <trkpt lat="47.18051" lon="-1.71585">
        <ele>76</ele>
        <time>2021-05-01T09:12:19.000Z</time>
      </trkpt>
      <trkpt lat="47.18057" lon="-1.71604">
        <ele>76</ele>
        <time>2021-05-01T09:12:21.000Z</time>
      </trkpt>
      <trkpt lat="47.18063" lon="-1.71623">
        <ele>77</ele>
        <time>2021-05-01T09:12:23.000Z</time>
      </trkpt>
      <trkpt lat="47.18069" lon="-1.71641">
        <ele>76</ele>
        <time>2021-05-01T09:12:25.000Z</time>
      </trkpt>
      <trkpt lat="47.18075" lon="-1.7166">
        <ele>76</ele>
        <time>2021-05-01T09:12:27.000Z</time>
      </trkpt>
      <trkpt lat="47.18081" lon="-1.71678">
        <ele>75</ele>
        <time>2021-05-01T09:12:29.000Z</time>
      </trkpt>
      <trkpt lat="47.18088" lon="-1.71697">
        <ele>75</ele>
        <time>2021-05-01T09:12:31.000Z</time>
      </trkpt>
      <trkpt lat="47.18094" lon="-1.71715">
        <ele>75</ele>
        <time>2021-05-01T09:12:33.000Z</time>
      </trkpt>
      <trkpt lat="47.18101" lon="-1.71734">
        <ele>75</ele>
        <time>2021-05-01T09:12:35.000Z</time>
      </trkpt>
      <trkpt lat="47.18109" lon="-1.71753">
        <ele>75</ele>
        <time>2021-05-01T09:12:37.000Z</time>
      </trkpt>
      <trkpt lat="47.18115" lon="-1.71771">
        <ele>75</ele>
        <time>2021-05-01T09:12:39.000Z</time>
      </trkpt>
      <trkpt lat="47.18123" lon="-1.7179">
        <ele>75</ele>
        <time>2021-05-01T09:12:41.000Z</time>
      </trkpt>
      <trkpt lat="47.18129" lon="-1.71809">
        <ele>75</ele>
        <time>2021-05-01T09:12:43.000Z</time>
      </trkpt>
      <trkpt lat="47.18135" lon="-1.71828">
        <ele>74</ele>
        <time>2021-05-01T09:12:45.000Z</time>
      </trkpt>
      <trkpt lat="47.18142" lon="-1.71848">
        <ele>74</ele>
        <time>2021-05-01T09:12:47.000Z</time>
      </trkpt>
      <trkpt lat="47.18148" lon="-1.71868">
        <ele>74</ele>
        <time>2021-05-01T09:12:49.000Z</time>
      </trkpt>
      <trkpt lat="47.18154" lon="-1.71887">
        <ele>74</ele>
        <time>2021-05-01T09:12:51.000Z</time>
      </trkpt>
      <trkpt lat="47.18161" lon="-1.71906">
        <ele>74</ele>
        <time>2021-05-01T09:12:53.000Z</time>
      </trkpt>
      <trkpt lat="47.18167" lon="-1.71925">
        <ele>74</ele>
        <time>2021-05-01T09:12:55.000Z</time>
      </trkpt>
      <trkpt lat="47.18173" lon="-1.71945">
        <ele>74</ele>
        <time>2021-05-01T09:12:57.000Z</time>
      </trkpt>
      <trkpt lat="47.1818" lon="-1.71964">
        <ele>73</ele>
        <time>2021-05-01T09:12:59.000Z</time>
      </trkpt>
      <trkpt lat="47.18185" lon="-1.71984">
        <ele>74</ele>
        <time>2021-05-01T09:13:01.000Z</time>
      </trkpt>
      <trkpt lat="47.18191" lon="-1.72003">
        <ele>74</ele>
        <time>2021-05-01T09:13:03.000Z</time>
      </trkpt>
      <trkpt lat="47.18198" lon="-1.72022">
        <ele>74</ele>
        <time>2021-05-01T09:13:05.000Z</time>
      </trkpt>
      <trkpt lat="47.18203" lon="-1.7204">
        <ele>74</ele>
        <time>2021-05-01T09:13:07.000Z</time>
      </trkpt>
      <trkpt lat="47.18209" lon="-1.7206">
        <ele>74</ele>
        <time>2021-05-01T09:13:09.000Z</time>
      </trkpt>
      <trkpt lat="47.18216" lon="-1.72079">
        <ele>74</ele>
        <time>2021-05-01T09:13:11.000Z</time>
      </trkpt>
      <trkpt lat="47.18221" lon="-1.72098">
        <ele>74</ele>
        <time>2021-05-01T09:13:13.000Z</time>
      </trkpt>
      <trkpt lat="47.18227" lon="-1.72117">
        <ele>74</ele>
        <time>2021-05-01T09:13:15.000Z</time>
      </trkpt>
      <trkpt lat="47.18233" lon="-1.72135">
        <ele>74</ele>
        <time>2021-05-01T09:13:17.000Z</time>
      </trkpt>
      <trkpt lat="47.18239" lon="-1.72154">
        <ele>74</ele>
        <time>2021-05-01T09:13:19.000Z</time>
      </trkpt>
      <trkpt lat="47.18245" lon="-1.72172">
        <ele>74</ele>
        <time>2021-05-01T09:13:21.000Z</time>
      </trkpt>
      <trkpt lat="47.18251" lon="-1.72192">
        <ele>74</ele>
        <time>2021-05-01T09:13:23.000Z</time>
      </trkpt>
      <trkpt lat="47.18256" lon="-1.72212">
        <ele>74</ele>
        <time>2021-05-01T09:13:25.000Z</time>
      </trkpt>
      <trkpt lat="47.18259" lon="-1.72233">
        <ele>74</ele>
        <time>2021-05-01T09:13:27.000Z</time>
      </trkpt>
      <trkpt lat="47.18262" lon="-1.72254">
        <ele>74</ele>
        <time>2021-05-01T09:13:29.000Z</time>
      </trkpt>
      <trkpt lat="47.18264" lon="-1.72276">
        <ele>74</ele>
        <time>2021-05-01T09:13:31.000Z</time>
      </trkpt>
      <trkpt lat="47.18266" lon="-1.72298">
        <ele>74</ele>
        <time>2021-05-01T09:13:33.000Z</time>
      </trkpt>
      <trkpt lat="47.18268" lon="-1.7232">
        <ele>74</ele>
        <time>2021-05-01T09:13:35.000Z</time>
      </trkpt>
      <trkpt lat="47.1827" lon="-1.72341">
        <ele>74</ele>
        <time>2021-05-01T09:13:37.000Z</time>
      </trkpt>
      <trkpt lat="47.18272" lon="-1.72362">
        <ele>74</ele>
        <time>2021-05-01T09:13:39.000Z</time>
      </trkpt>
      <trkpt lat="47.18273" lon="-1.72383">
        <ele>74</ele>
        <time>2021-05-01T09:13:41.000Z</time>
      </trkpt>
      <trkpt lat="47.18274" lon="-1.72403">
        <ele>74</ele>
        <time>2021-05-01T09:13:43.000Z</time>
      </trkpt>
      <trkpt lat="47.18273" lon="-1.72422">
        <ele>75</ele>
        <time>2021-05-01T09:13:45.000Z</time>
      </trkpt>
      <trkpt lat="47.18272" lon="-1.72442">
        <ele>75</ele>
        <time>2021-05-01T09:13:47.000Z</time>
      </trkpt>
      <trkpt lat="47.18269" lon="-1.7246">
        <ele>76</ele>
        <time>2021-05-01T09:13:49.000Z</time>
      </trkpt>
      <trkpt lat="47.18266" lon="-1.72478">
        <ele>76</ele>
        <time>2021-05-01T09:13:51.000Z</time>
      </trkpt>
      <trkpt lat="47.18262" lon="-1.72496">
        <ele>76</ele>
        <time>2021-05-01T09:13:53.000Z</time>
      </trkpt>
      <trkpt lat="47.1826" lon="-1.72513">
        <ele>77</ele>
        <time>2021-05-01T09:13:55.000Z</time>
      </trkpt>
      <trkpt lat="47.18263" lon="-1.72531">
        <ele>78</ele>
        <time>2021-05-01T09:13:57.000Z</time>
      </trkpt>
      <trkpt lat="47.18269" lon="-1.72546">
        <ele>78</ele>
        <time>2021-05-01T09:13:59.000Z</time>
      </trkpt>
      <trkpt lat="47.18281" lon="-1.7255">
        <ele>78</ele>
        <time>2021-05-01T09:14:01.000Z</time>
      </trkpt>
      <trkpt lat="47.18294" lon="-1.72549">
        <ele>79</ele>
        <time>2021-05-01T09:14:03.000Z</time>
      </trkpt>
      <trkpt lat="47.18306" lon="-1.72551">
        <ele>79</ele>
        <time>2021-05-01T09:14:05.000Z</time>
      </trkpt>
      <trkpt lat="47.18315" lon="-1.72565">
        <ele>79</ele>
        <time>2021-05-01T09:14:07.000Z</time>
      </trkpt>
      <trkpt lat="47.18316" lon="-1.72584">
        <ele>79</ele>
        <time>2021-05-01T09:14:09.000Z</time>
      </trkpt>
      <trkpt lat="47.18314" lon="-1.72603">
        <ele>79</ele>
        <time>2021-05-01T09:14:11.000Z</time>
      </trkpt>
      <trkpt lat="47.18313" lon="-1.72623">
        <ele>78</ele>
        <time>2021-05-01T09:14:13.000Z</time>
      </trkpt>
      <trkpt lat="47.18319" lon="-1.72641">
        <ele>78</ele>
        <time>2021-05-01T09:14:15.000Z</time>
      </trkpt>
      <trkpt lat="47.18324" lon="-1.7266">
        <ele>78</ele>
        <time>2021-05-01T09:14:17.000Z</time>
      </trkpt>
      <trkpt lat="47.1833" lon="-1.7268">
        <ele>77</ele>
        <time>2021-05-01T09:14:19.000Z</time>
      </trkpt>
      <trkpt lat="47.18337" lon="-1.727">
        <ele>76</ele>
        <time>2021-05-01T09:14:21.000Z</time>
      </trkpt>
      <trkpt lat="47.18345" lon="-1.72721">
        <ele>76</ele>
        <time>2021-05-01T09:14:23.000Z</time>
      </trkpt>
      <trkpt lat="47.18352" lon="-1.72742">
        <ele>75</ele>
        <time>2021-05-01T09:14:25.000Z</time>
      </trkpt>
      <trkpt lat="47.18359" lon="-1.72762">
        <ele>75</ele>
        <time>2021-05-01T09:14:27.000Z</time>
      </trkpt>
      <trkpt lat="47.18365" lon="-1.72782">
        <ele>75</ele>
        <time>2021-05-01T09:14:29.000Z</time>
      </trkpt>
      <trkpt lat="47.18373" lon="-1.72801">
        <ele>75</ele>
        <time>2021-05-01T09:14:31.000Z</time>
      </trkpt>
      <trkpt lat="47.18379" lon="-1.72821">
        <ele>75</ele>
        <time>2021-05-01T09:14:33.000Z</time>
      </trkpt>
      <trkpt lat="47.18386" lon="-1.7284">
        <ele>75</ele>
        <time>2021-05-01T09:14:35.000Z</time>
      </trkpt>
      <trkpt lat="47.18392" lon="-1.72859">
        <ele>75</ele>
        <time>2021-05-01T09:14:37.000Z</time>
      </trkpt>
      <trkpt lat="47.18399" lon="-1.72877">
        <ele>75</ele>
        <time>2021-05-01T09:14:39.000Z</time>
      </trkpt>
      <trkpt lat="47.18404" lon="-1.72896">
        <ele>75</ele>
        <time>2021-05-01T09:14:41.000Z</time>
      </trkpt>
      <trkpt lat="47.1841" lon="-1.72915">
        <ele>75</ele>
        <time>2021-05-01T09:14:43.000Z</time>
      </trkpt>
      <trkpt lat="47.18415" lon="-1.72935">
        <ele>75</ele>
        <time>2021-05-01T09:14:45.000Z</time>
      </trkpt>
      <trkpt lat="47.18418" lon="-1.72955">
        <ele>75</ele>
        <time>2021-05-01T09:14:47.000Z</time>
      </trkpt>
      <trkpt lat="47.18421" lon="-1.72976">
        <ele>75</ele>
        <time>2021-05-01T09:14:49.000Z</time>
      </trkpt>
      <trkpt lat="47.18424" lon="-1.72997">
        <ele>75</ele>
        <time>2021-05-01T09:14:51.000Z</time>
      </trkpt>
      <trkpt lat="47.18427" lon="-1.73018">
        <ele>75</ele>
        <time>2021-05-01T09:14:53.000Z</time>
      </trkpt>
      <trkpt lat="47.18429" lon="-1.73039">
        <ele>75</ele>
        <time>2021-05-01T09:14:55.000Z</time>
      </trkpt>
      <trkpt lat="47.18432" lon="-1.7306">
        <ele>75</ele>
        <time>2021-05-01T09:14:57.000Z</time>
      </trkpt>
      <trkpt lat="47.18435" lon="-1.73081">
        <ele>75</ele>
        <time>2021-05-01T09:14:59.000Z</time>
      </trkpt>
      <trkpt lat="47.18437" lon="-1.73102">
        <ele>75</ele>
        <time>2021-05-01T09:15:01.000Z</time>
      </trkpt>
      <trkpt lat="47.1844" lon="-1.73123">
        <ele>75</ele>
        <time>2021-05-01T09:15:03.000Z</time>
      </trkpt>
      <trkpt lat="47.18442" lon="-1.73144">
        <ele>75</ele>
        <time>2021-05-01T09:15:05.000Z</time>
      </trkpt>
      <trkpt lat="47.18445" lon="-1.73164">
        <ele>75</ele>
        <time>2021-05-01T09:15:07.000Z</time>
      </trkpt>
      <trkpt lat="47.18448" lon="-1.73184">
        <ele>75</ele>
        <time>2021-05-01T09:15:09.000Z</time>
      </trkpt>
      <trkpt lat="47.18451" lon="-1.73205">
        <ele>74</ele>
        <time>2021-05-01T09:15:11.000Z</time>
      </trkpt>
      <trkpt lat="47.18453" lon="-1.73226">
        <ele>74</ele>
        <time>2021-05-01T09:15:13.000Z</time>
      </trkpt>
      <trkpt lat="47.18456" lon="-1.73247">
        <ele>74</ele>
        <time>2021-05-01T09:15:15.000Z</time>
      </trkpt>
      <trkpt lat="47.18458" lon="-1.73267">
        <ele>74</ele>
        <time>2021-05-01T09:15:17.000Z</time>
      </trkpt>
      <trkpt lat="47.18461" lon="-1.73288">
        <ele>73</ele>
        <time>2021-05-01T09:15:19.000Z</time>
      </trkpt>
      <trkpt lat="47.18463" lon="-1.7331">
        <ele>73</ele>
        <time>2021-05-01T09:15:21.000Z</time>
      </trkpt>
      <trkpt lat="47.18465" lon="-1.73331">
        <ele>73</ele>
        <time>2021-05-01T09:15:23.000Z</time>
      </trkpt>
      <trkpt lat="47.18467" lon="-1.73352">
        <ele>73</ele>
        <time>2021-05-01T09:15:25.000Z</time>
      </trkpt>
      <trkpt lat="47.1847" lon="-1.73373">
        <ele>73</ele>
        <time>2021-05-01T09:15:27.000Z</time>
      </trkpt>
      <trkpt lat="47.18472" lon="-1.73395">
        <ele>72</ele>
        <time>2021-05-01T09:15:29.000Z</time>
      </trkpt>
      <trkpt lat="47.18474" lon="-1.73416">
        <ele>72</ele>
        <time>2021-05-01T09:15:31.000Z</time>
      </trkpt>
      <trkpt lat="47.18476" lon="-1.73438">
        <ele>71</ele>
        <time>2021-05-01T09:15:33.000Z</time>
      </trkpt>
      <trkpt lat="47.18477" lon="-1.73459">
        <ele>71</ele>
        <time>2021-05-01T09:15:35.000Z</time>
      </trkpt>
      <trkpt lat="47.18479" lon="-1.73479">
        <ele>71</ele>
        <time>2021-05-01T09:15:37.000Z</time>
      </trkpt>
      <trkpt lat="47.18481" lon="-1.73498">
        <ele>72</ele>
        <time>2021-05-01T09:15:39.000Z</time>
      </trkpt>
      <trkpt lat="47.18483" lon="-1.73518">
        <ele>72</ele>
        <time>2021-05-01T09:15:41.000Z</time>
      </trkpt>
      <trkpt lat="47.18485" lon="-1.73538">
        <ele>72</ele>
        <time>2021-05-01T09:15:43.000Z</time>
      </trkpt>
      <trkpt lat="47.18487" lon="-1.73558">
        <ele>72</ele>
        <time>2021-05-01T09:15:45.000Z</time>
      </trkpt>
      <trkpt lat="47.18489" lon="-1.73579">
        <ele>72</ele>
        <time>2021-05-01T09:15:47.000Z</time>
      </trkpt>
      <trkpt lat="47.18491" lon="-1.73599">
        <ele>72</ele>
        <time>2021-05-01T09:15:49.000Z</time>
      </trkpt>
      <trkpt lat="47.18493" lon="-1.73619">
        <ele>71</ele>
        <time>2021-05-01T09:15:51.000Z</time>
      </trkpt>
      <trkpt lat="47.18495" lon="-1.73639">
        <ele>71</ele>
        <time>2021-05-01T09:15:53.000Z</time>
      </trkpt>
      <trkpt lat="47.18497" lon="-1.73659">
        <ele>72</ele>
        <time>2021-05-01T09:15:55.000Z</time>
      </trkpt>
      <trkpt lat="47.18499" lon="-1.73679">
        <ele>71</ele>
        <time>2021-05-01T09:15:57.000Z</time>
      </trkpt>
      <trkpt lat="47.18501" lon="-1.737">
        <ele>72</ele>
        <time>2021-05-01T09:15:59.000Z</time>
      </trkpt>
      <trkpt lat="47.18503" lon="-1.7372">
        <ele>72</ele>
        <time>2021-05-01T09:16:01.000Z</time>
      </trkpt>
      <trkpt lat="47.18505" lon="-1.7374">
        <ele>72</ele>
        <time>2021-05-01T09:16:03.000Z</time>
      </trkpt>
      <trkpt lat="47.18507" lon="-1.73761">
        <ele>72</ele>
        <time>2021-05-01T09:16:05.000Z</time>
      </trkpt>
      <trkpt lat="47.18509" lon="-1.73781">
        <ele>72</ele>
        <time>2021-05-01T09:16:07.000Z</time>
      </trkpt>
      <trkpt lat="47.1851" lon="-1.73802">
        <ele>72</ele>
        <time>2021-05-01T09:16:09.000Z</time>
      </trkpt>
      <trkpt lat="47.18513" lon="-1.73822">
        <ele>72</ele>
        <time>2021-05-01T09:16:11.000Z</time>
      </trkpt>
      <trkpt lat="47.18515" lon="-1.73842">
        <ele>72</ele>
        <time>2021-05-01T09:16:13.000Z</time>
      </trkpt>
      <trkpt lat="47.18517" lon="-1.73862">
        <ele>73</ele>
        <time>2021-05-01T09:16:15.000Z</time>
      </trkpt>
      <trkpt lat="47.18519" lon="-1.73882">
        <ele>73</ele>
        <time>2021-05-01T09:16:17.000Z</time>
      </trkpt>
      <trkpt lat="47.1852" lon="-1.73901">
        <ele>73</ele>
        <time>2021-05-01T09:16:19.000Z</time>
      </trkpt>
      <trkpt lat="47.18521" lon="-1.73921">
        <ele>73</ele>
        <time>2021-05-01T09:16:21.000Z</time>
      </trkpt>
      <trkpt lat="47.18522" lon="-1.7394">
        <ele>72</ele>
        <time>2021-05-01T09:16:23.000Z</time>
      </trkpt>
      <trkpt lat="47.18522" lon="-1.7396">
        <ele>72</ele>
        <time>2021-05-01T09:16:25.000Z</time>
      </trkpt>
      <trkpt lat="47.18522" lon="-1.7398">
        <ele>72</ele>
        <time>2021-05-01T09:16:27.000Z</time>
      </trkpt>
      <trkpt lat="47.18522" lon="-1.74">
        <ele>72</ele>
        <time>2021-05-01T09:16:29.000Z</time>
      </trkpt>
      <trkpt lat="47.18522" lon="-1.7402">
        <ele>71</ele>
        <time>2021-05-01T09:16:31.000Z</time>
      </trkpt>
      <trkpt lat="47.1852" lon="-1.74041">
        <ele>71</ele>
        <time>2021-05-01T09:16:33.000Z</time>
      </trkpt>
      <trkpt lat="47.18519" lon="-1.74061">
        <ele>71</ele>
        <time>2021-05-01T09:16:35.000Z</time>
      </trkpt>
      <trkpt lat="47.18518" lon="-1.74083">
        <ele>70</ele>
        <time>2021-05-01T09:16:37.000Z</time>
      </trkpt>
      <trkpt lat="47.18518" lon="-1.74104">
        <ele>70</ele>
        <time>2021-05-01T09:16:39.000Z</time>
      </trkpt>
      <trkpt lat="47.1852" lon="-1.74125">
        <ele>70</ele>
        <time>2021-05-01T09:16:41.000Z</time>
      </trkpt>
      <trkpt lat="47.18521" lon="-1.74146">
        <ele>70</ele>
        <time>2021-05-01T09:16:43.000Z</time>
      </trkpt>
      <trkpt lat="47.18517" lon="-1.74165">
        <ele>70</ele>
        <time>2021-05-01T09:16:45.000Z</time>
      </trkpt>
      <trkpt lat="47.18515" lon="-1.74186">
        <ele>70</ele>
        <time>2021-05-01T09:16:47.000Z</time>
      </trkpt>
      <trkpt lat="47.18516" lon="-1.74207">
        <ele>71</ele>
        <time>2021-05-01T09:16:49.000Z</time>
      </trkpt>
      <trkpt lat="47.18517" lon="-1.74227">
        <ele>71</ele>
        <time>2021-05-01T09:16:51.000Z</time>
      </trkpt>
      <trkpt lat="47.18518" lon="-1.74248">
        <ele>71</ele>
        <time>2021-05-01T09:16:53.000Z</time>
      </trkpt>
      <trkpt lat="47.1852" lon="-1.74269">
        <ele>71</ele>
        <time>2021-05-01T09:16:55.000Z</time>
      </trkpt>
      <trkpt lat="47.18521" lon="-1.74288">
        <ele>71</ele>
        <time>2021-05-01T09:16:57.000Z</time>
      </trkpt>
      <trkpt lat="47.18522" lon="-1.74309">
        <ele>71</ele>
        <time>2021-05-01T09:16:59.000Z</time>
      </trkpt>
      <trkpt lat="47.18523" lon="-1.74329">
        <ele>72</ele>
        <time>2021-05-01T09:17:01.000Z</time>
      </trkpt>
      <trkpt lat="47.18524" lon="-1.7435">
        <ele>72</ele>
        <time>2021-05-01T09:17:03.000Z</time>
      </trkpt>
      <trkpt lat="47.18525" lon="-1.74371">
        <ele>72</ele>
        <time>2021-05-01T09:17:05.000Z</time>
      </trkpt>
      <trkpt lat="47.18525" lon="-1.74392">
        <ele>72</ele>
        <time>2021-05-01T09:17:07.000Z</time>
      </trkpt>
      <trkpt lat="47.18525" lon="-1.74413">
        <ele>72</ele>
        <time>2021-05-01T09:17:09.000Z</time>
      </trkpt>
      <trkpt lat="47.18525" lon="-1.74434">
        <ele>72</ele>
        <time>2021-05-01T09:17:11.000Z</time>
      </trkpt>
      <trkpt lat="47.18524" lon="-1.74455">
        <ele>72</ele>
        <time>2021-05-01T09:17:13.000Z</time>
      </trkpt>
      <trkpt lat="47.18524" lon="-1.74475">
        <ele>72</ele>
        <time>2021-05-01T09:17:15.000Z</time>
      </trkpt>
      <trkpt lat="47.18523" lon="-1.74496">
        <ele>72</ele>
        <time>2021-05-01T09:17:17.000Z</time>
      </trkpt>
      <trkpt lat="47.18521" lon="-1.74516">
        <ele>72</ele>
        <time>2021-05-01T09:17:19.000Z</time>
      </trkpt>
      <trkpt lat="47.18519" lon="-1.74537">
        <ele>73</ele>
        <time>2021-05-01T09:17:21.000Z</time>
      </trkpt>
      <trkpt lat="47.18517" lon="-1.74558">
        <ele>72</ele>
        <time>2021-05-01T09:17:23.000Z</time>
      </trkpt>
      <trkpt lat="47.18515" lon="-1.74578">
        <ele>73</ele>
        <time>2021-05-01T09:17:25.000Z</time>
      </trkpt>
      <trkpt lat="47.18513" lon="-1.74598">
        <ele>73</ele>
        <time>2021-05-01T09:17:27.000Z</time>
      </trkpt>
      <trkpt lat="47.1851" lon="-1.74619">
        <ele>73</ele>
        <time>2021-05-01T09:17:29.000Z</time>
      </trkpt>
      <trkpt lat="47.18508" lon="-1.74639">
        <ele>73</ele>
        <time>2021-05-01T09:17:31.000Z</time>
      </trkpt>
      <trkpt lat="47.18506" lon="-1.74659">
        <ele>73</ele>
        <time>2021-05-01T09:17:33.000Z</time>
      </trkpt>
      <trkpt lat="47.18504" lon="-1.74679">
        <ele>73</ele>
        <time>2021-05-01T09:17:35.000Z</time>
      </trkpt>
      <trkpt lat="47.18501" lon="-1.747">
        <ele>72</ele>
        <time>2021-05-01T09:17:37.000Z</time>
      </trkpt>
      <trkpt lat="47.18499" lon="-1.7472">
        <ele>73</ele>
        <time>2021-05-01T09:17:39.000Z</time>
      </trkpt>
      <trkpt lat="47.18496" lon="-1.7474">
        <ele>73</ele>
        <time>2021-05-01T09:17:41.000Z</time>
      </trkpt>
      <trkpt lat="47.18494" lon="-1.7476">
        <ele>73</ele>
        <time>2021-05-01T09:17:43.000Z</time>
      </trkpt>
      <trkpt lat="47.1849" lon="-1.7478">
        <ele>72</ele>
        <time>2021-05-01T09:17:45.000Z</time>
      </trkpt>
      <trkpt lat="47.18487" lon="-1.748">
        <ele>72</ele>
        <time>2021-05-01T09:17:47.000Z</time>
      </trkpt>
      <trkpt lat="47.18484" lon="-1.7482">
        <ele>72</ele>
        <time>2021-05-01T09:17:49.000Z</time>
      </trkpt>
      <trkpt lat="47.18481" lon="-1.74841">
        <ele>72</ele>
        <time>2021-05-01T09:17:51.000Z</time>
      </trkpt>
      <trkpt lat="47.18477" lon="-1.74861">
        <ele>71</ele>
        <time>2021-05-01T09:17:53.000Z</time>
      </trkpt>
      <trkpt lat="47.18473" lon="-1.74882">
        <ele>71</ele>
        <time>2021-05-01T09:17:55.000Z</time>
      </trkpt>
      <trkpt lat="47.18469" lon="-1.74903">
        <ele>71</ele>
        <time>2021-05-01T09:17:57.000Z</time>
      </trkpt>
      <trkpt lat="47.18464" lon="-1.74924">
        <ele>70</ele>
        <time>2021-05-01T09:17:59.000Z</time>
      </trkpt>
      <trkpt lat="47.1846" lon="-1.74946">
        <ele>70</ele>
        <time>2021-05-01T09:18:01.000Z</time>
      </trkpt>
      <trkpt lat="47.18456" lon="-1.74967">
        <ele>70</ele>
        <time>2021-05-01T09:18:03.000Z</time>
      </trkpt>
      <trkpt lat="47.18453" lon="-1.74989">
        <ele>69</ele>
        <time>2021-05-01T09:18:05.000Z</time>
      </trkpt>
      <trkpt lat="47.18449" lon="-1.7501">
        <ele>69</ele>
        <time>2021-05-01T09:18:07.000Z</time>
      </trkpt>
      <trkpt lat="47.18444" lon="-1.75032">
        <ele>69</ele>
        <time>2021-05-01T09:18:09.000Z</time>
      </trkpt>
      <trkpt lat="47.18439" lon="-1.75053">
        <ele>68</ele>
        <time>2021-05-01T09:18:11.000Z</time>
      </trkpt>
      <trkpt lat="47.18436" lon="-1.75075">
        <ele>68</ele>
        <time>2021-05-01T09:18:13.000Z</time>
      </trkpt>
      <trkpt lat="47.18432" lon="-1.75097">
        <ele>68</ele>
        <time>2021-05-01T09:18:15.000Z</time>
      </trkpt>
      <trkpt lat="47.18428" lon="-1.75118">
        <ele>68</ele>
        <time>2021-05-01T09:18:17.000Z</time>
      </trkpt>
      <trkpt lat="47.18424" lon="-1.7514">
        <ele>67</ele>
        <time>2021-05-01T09:18:19.000Z</time>
      </trkpt>
      <trkpt lat="47.1842" lon="-1.75161">
        <ele>67</ele>
        <time>2021-05-01T09:18:21.000Z</time>
      </trkpt>
      <trkpt lat="47.18416" lon="-1.75182">
        <ele>67</ele>
        <time>2021-05-01T09:18:23.000Z</time>
      </trkpt>
      <trkpt lat="47.18412" lon="-1.75202">
        <ele>67</ele>
        <time>2021-05-01T09:18:25.000Z</time>
      </trkpt>
      <trkpt lat="47.18409" lon="-1.75223">
        <ele>67</ele>
        <time>2021-05-01T09:18:27.000Z</time>
      </trkpt>
      <trkpt lat="47.18407" lon="-1.75244">
        <ele>67</ele>
        <time>2021-05-01T09:18:29.000Z</time>
      </trkpt>
      <trkpt lat="47.18404" lon="-1.75264">
        <ele>67</ele>
        <time>2021-05-01T09:18:31.000Z</time>
      </trkpt>
      <trkpt lat="47.18402" lon="-1.75284">
        <ele>67</ele>
        <time>2021-05-01T09:18:33.000Z</time>
      </trkpt>
      <trkpt lat="47.184" lon="-1.75304">
        <ele>67</ele>
        <time>2021-05-01T09:18:35.000Z</time>
      </trkpt>
      <trkpt lat="47.18399" lon="-1.75324">
        <ele>66</ele>
        <time>2021-05-01T09:18:37.000Z</time>
      </trkpt>
      <trkpt lat="47.18398" lon="-1.75345">
        <ele>66</ele>
        <time>2021-05-01T09:18:39.000Z</time>
      </trkpt>
      <trkpt lat="47.18397" lon="-1.75366">
        <ele>66</ele>
        <time>2021-05-01T09:18:41.000Z</time>
      </trkpt>
      <trkpt lat="47.18399" lon="-1.75386">
        <ele>66</ele>
        <time>2021-05-01T09:18:43.000Z</time>
      </trkpt>
      <trkpt lat="47.18402" lon="-1.75406">
        <ele>66</ele>
        <time>2021-05-01T09:18:45.000Z</time>
      </trkpt>
      <trkpt lat="47.18402" lon="-1.75426">
        <ele>66</ele>
        <time>2021-05-01T09:18:47.000Z</time>
      </trkpt>
      <trkpt lat="47.184" lon="-1.75446">
        <ele>66</ele>
        <time>2021-05-01T09:18:49.000Z</time>
      </trkpt>
      <trkpt lat="47.18398" lon="-1.75466">
        <ele>66</ele>
        <time>2021-05-01T09:18:51.000Z</time>
      </trkpt>
      <trkpt lat="47.18397" lon="-1.75485">
        <ele>66</ele>
        <time>2021-05-01T09:18:53.000Z</time>
      </trkpt>
      <trkpt lat="47.18398" lon="-1.75504">
        <ele>67</ele>
        <time>2021-05-01T09:18:55.000Z</time>
      </trkpt>
      <trkpt lat="47.18399" lon="-1.75523">
        <ele>67</ele>
        <time>2021-05-01T09:18:57.000Z</time>
      </trkpt>
      <trkpt lat="47.184" lon="-1.75543">
        <ele>68</ele>
        <time>2021-05-01T09:18:59.000Z</time>
      </trkpt>
      <trkpt lat="47.18402" lon="-1.75563">
        <ele>68</ele>
        <time>2021-05-01T09:19:01.000Z</time>
      </trkpt>
      <trkpt lat="47.18404" lon="-1.75583">
        <ele>69</ele>
        <time>2021-05-01T09:19:03.000Z</time>
      </trkpt>
      <trkpt lat="47.18405" lon="-1.75604">
        <ele>69</ele>
        <time>2021-05-01T09:19:05.000Z</time>
      </trkpt>
      <trkpt lat="47.18406" lon="-1.75624">
        <ele>70</ele>
        <time>2021-05-01T09:19:07.000Z</time>
      </trkpt>
      <trkpt lat="47.18407" lon="-1.75645">
        <ele>70</ele>
        <time>2021-05-01T09:19:09.000Z</time>
      </trkpt>
      <trkpt lat="47.18408" lon="-1.75665">
        <ele>70</ele>
        <time>2021-05-01T09:19:11.000Z</time>
      </trkpt>
      <trkpt lat="47.18407" lon="-1.75686">
        <ele>70</ele>
        <time>2021-05-01T09:19:13.000Z</time>
      </trkpt>
      <trkpt lat="47.18407" lon="-1.75706">
        <ele>70</ele>
        <time>2021-05-01T09:19:15.000Z</time>
      </trkpt>
      <trkpt lat="47.18407" lon="-1.75726">
        <ele>70</ele>
        <time>2021-05-01T09:19:17.000Z</time>
      </trkpt>
      <trkpt lat="47.18405" lon="-1.75746">
        <ele>69</ele>
        <time>2021-05-01T09:19:19.000Z</time>
      </trkpt>
      <trkpt lat="47.18404" lon="-1.75766">
        <ele>69</ele>
        <time>2021-05-01T09:19:21.000Z</time>
      </trkpt>
      <trkpt lat="47.18402" lon="-1.75787">
        <ele>69</ele>
        <time>2021-05-01T09:19:23.000Z</time>
      </trkpt>
      <trkpt lat="47.18401" lon="-1.75807">
        <ele>68</ele>
        <time>2021-05-01T09:19:25.000Z</time>
      </trkpt>
      <trkpt lat="47.18398" lon="-1.75827">
        <ele>68</ele>
        <time>2021-05-01T09:19:27.000Z</time>
      </trkpt>
      <trkpt lat="47.18396" lon="-1.75847">
        <ele>68</ele>
        <time>2021-05-01T09:19:29.000Z</time>
      </trkpt>
      <trkpt lat="47.18394" lon="-1.75868">
        <ele>67</ele>
        <time>2021-05-01T09:19:31.000Z</time>
      </trkpt>
      <trkpt lat="47.18392" lon="-1.75888">
        <ele>67</ele>
        <time>2021-05-01T09:19:33.000Z</time>
      </trkpt>
      <trkpt lat="47.1839" lon="-1.75909">
        <ele>67</ele>
        <time>2021-05-01T09:19:35.000Z</time>
      </trkpt>
      <trkpt lat="47.18387" lon="-1.75929">
        <ele>67</ele>
        <time>2021-05-01T09:19:37.000Z</time>
      </trkpt>
      <trkpt lat="47.18385" lon="-1.7595">
        <ele>66</ele>
        <time>2021-05-01T09:19:39.000Z</time>
      </trkpt>
      <trkpt lat="47.18382" lon="-1.75971">
        <ele>66</ele>
        <time>2021-05-01T09:19:41.000Z</time>
      </trkpt>
      <trkpt lat="47.1838" lon="-1.75992">
        <ele>65</ele>
        <time>2021-05-01T09:19:43.000Z</time>
      </trkpt>
      <trkpt lat="47.18377" lon="-1.76013">
        <ele>65</ele>
        <time>2021-05-01T09:19:45.000Z</time>
      </trkpt>
      <trkpt lat="47.18375" lon="-1.76035">
        <ele>65</ele>
        <time>2021-05-01T09:19:47.000Z</time>
      </trkpt>
      <trkpt lat="47.18372" lon="-1.76055">
        <ele>65</ele>
        <time>2021-05-01T09:19:49.000Z</time>
      </trkpt>
      <trkpt lat="47.1837" lon="-1.76076">
        <ele>64</ele>
        <time>2021-05-01T09:19:51.000Z</time>
      </trkpt>
      <trkpt lat="47.18367" lon="-1.76097">
        <ele>64</ele>
        <time>2021-05-01T09:19:53.000Z</time>
      </trkpt>
      <trkpt lat="47.18365" lon="-1.76118">
        <ele>64</ele>
        <time>2021-05-01T09:19:55.000Z</time>
      </trkpt>
      <trkpt lat="47.18362" lon="-1.76139">
        <ele>64</ele>
        <time>2021-05-01T09:19:57.000Z</time>
      </trkpt>
      <trkpt lat="47.1836" lon="-1.7616">
        <ele>63</ele>
        <time>2021-05-01T09:19:59.000Z</time>
      </trkpt>
      <trkpt lat="47.18358" lon="-1.76181">
        <ele>63</ele>
        <time>2021-05-01T09:20:01.000Z</time>
      </trkpt>
      <trkpt lat="47.18355" lon="-1.76203">
        <ele>63</ele>
        <time>2021-05-01T09:20:03.000Z</time>
      </trkpt>
      <trkpt lat="47.18352" lon="-1.76225">
        <ele>62</ele>
        <time>2021-05-01T09:20:05.000Z</time>
      </trkpt>
      <trkpt lat="47.1835" lon="-1.76246">
        <ele>62</ele>
        <time>2021-05-01T09:20:07.000Z</time>
      </trkpt>
      <trkpt lat="47.18348" lon="-1.76268">
        <ele>62</ele>
        <time>2021-05-01T09:20:09.000Z</time>
      </trkpt>
      <trkpt lat="47.18346" lon="-1.7629">
        <ele>62</ele>
        <time>2021-05-01T09:20:11.000Z</time>
      </trkpt>
      <trkpt lat="47.18345" lon="-1.76311">
        <ele>62</ele>
        <time>2021-05-01T09:20:13.000Z</time>
      </trkpt>
      <trkpt lat="47.18344" lon="-1.76332">
        <ele>62</ele>
        <time>2021-05-01T09:20:15.000Z</time>
      </trkpt>
      <trkpt lat="47.18343" lon="-1.76352">
        <ele>62</ele>
        <time>2021-05-01T09:20:17.000Z</time>
      </trkpt>
      <trkpt lat="47.18342" lon="-1.76373">
        <ele>62</ele>
        <time>2021-05-01T09:20:19.000Z</time>
      </trkpt>
      <trkpt lat="47.1834" lon="-1.76393">
        <ele>62</ele>
        <time>2021-05-01T09:20:21.000Z</time>
      </trkpt>
      <trkpt lat="47.18339" lon="-1.76413">
        <ele>62</ele>
        <time>2021-05-01T09:20:23.000Z</time>
      </trkpt>
      <trkpt lat="47.18338" lon="-1.76434">
        <ele>62</ele>
        <time>2021-05-01T09:20:25.000Z</time>
      </trkpt>
      <trkpt lat="47.18337" lon="-1.76455">
        <ele>62</ele>
        <time>2021-05-01T09:20:27.000Z</time>
      </trkpt>
      <trkpt lat="47.18336" lon="-1.76475">
        <ele>63</ele>
        <time>2021-05-01T09:20:29.000Z</time>
      </trkpt>
      <trkpt lat="47.18336" lon="-1.76496">
        <ele>63</ele>
        <time>2021-05-01T09:20:31.000Z</time>
      </trkpt>
      <trkpt lat="47.18336" lon="-1.76517">
        <ele>63</ele>
        <time>2021-05-01T09:20:33.000Z</time>
      </trkpt>
      <trkpt lat="47.18335" lon="-1.76538">
        <ele>62</ele>
        <time>2021-05-01T09:20:35.000Z</time>
      </trkpt>
      <trkpt lat="47.18336" lon="-1.76559">
        <ele>63</ele>
        <time>2021-05-01T09:20:37.000Z</time>
      </trkpt>
      <trkpt lat="47.18336" lon="-1.76579">
        <ele>63</ele>
        <time>2021-05-01T09:20:39.000Z</time>
      </trkpt>
      <trkpt lat="47.18337" lon="-1.76599">
        <ele>63</ele>
        <time>2021-05-01T09:20:41.000Z</time>
      </trkpt>
      <trkpt lat="47.18338" lon="-1.76619">
        <ele>64</ele>
        <time>2021-05-01T09:20:43.000Z</time>
      </trkpt>
      <trkpt lat="47.18339" lon="-1.76638">
        <ele>64</ele>
        <time>2021-05-01T09:20:45.000Z</time>
      </trkpt>
      <trkpt lat="47.18341" lon="-1.76657">
        <ele>64</ele>
        <time>2021-05-01T09:20:47.000Z</time>
      </trkpt>
      <trkpt lat="47.18344" lon="-1.76675">
        <ele>64</ele>
        <time>2021-05-01T09:20:49.000Z</time>
      </trkpt>
      <trkpt lat="47.18346" lon="-1.76695">
        <ele>64</ele>
        <time>2021-05-01T09:20:51.000Z</time>
      </trkpt>
      <trkpt lat="47.18347" lon="-1.76713">
        <ele>64</ele>
        <time>2021-05-01T09:20:53.000Z</time>
      </trkpt>
      <trkpt lat="47.18349" lon="-1.76732">
        <ele>65</ele>
        <time>2021-05-01T09:20:55.000Z</time>
      </trkpt>
      <trkpt lat="47.18351" lon="-1.7675">
        <ele>65</ele>
        <time>2021-05-01T09:20:57.000Z</time>
      </trkpt>
      <trkpt lat="47.18353" lon="-1.76769">
        <ele>65</ele>
        <time>2021-05-01T09:20:59.000Z</time>
      </trkpt>
      <trkpt lat="47.18356" lon="-1.76788">
        <ele>66</ele>
        <time>2021-05-01T09:21:01.000Z</time>
      </trkpt>
      <trkpt lat="47.18358" lon="-1.76807">
        <ele>66</ele>
        <time>2021-05-01T09:21:03.000Z</time>
      </trkpt>
      <trkpt lat="47.1836" lon="-1.76827">
        <ele>67</ele>
        <time>2021-05-01T09:21:05.000Z</time>
      </trkpt>
      <trkpt lat="47.18362" lon="-1.76846">
        <ele>67</ele>
        <time>2021-05-01T09:21:07.000Z</time>
      </trkpt>
      <trkpt lat="47.18364" lon="-1.76866">
        <ele>67</ele>
        <time>2021-05-01T09:21:09.000Z</time>
      </trkpt>
      <trkpt lat="47.18366" lon="-1.76886">
        <ele>68</ele>
        <time>2021-05-01T09:21:11.000Z</time>
      </trkpt>
      <trkpt lat="47.18368" lon="-1.76905">
        <ele>68</ele>
        <time>2021-05-01T09:21:13.000Z</time>
      </trkpt>
      <trkpt lat="47.1837" lon="-1.76925">
        <ele>68</ele>
        <time>2021-05-01T09:21:15.000Z</time>
      </trkpt>
      <trkpt lat="47.18371" lon="-1.76945">
        <ele>69</ele>
        <time>2021-05-01T09:21:17.000Z</time>
      </trkpt>
      <trkpt lat="47.18373" lon="-1.76965">
        <ele>69</ele>
        <time>2021-05-01T09:21:19.000Z</time>
      </trkpt>
      <trkpt lat="47.18375" lon="-1.76985">
        <ele>70</ele>
        <time>2021-05-01T09:21:21.000Z</time>
      </trkpt>
      <trkpt lat="47.18376" lon="-1.77005">
        <ele>70</ele>
        <time>2021-05-01T09:21:23.000Z</time>
      </trkpt>
      <trkpt lat="47.18376" lon="-1.77025">
        <ele>70</ele>
        <time>2021-05-01T09:21:25.000Z</time>
      </trkpt>
      <trkpt lat="47.18376" lon="-1.77045">
        <ele>70</ele>
        <time>2021-05-01T09:21:27.000Z</time>
      </trkpt>
      <trkpt lat="47.18376" lon="-1.77065">
        <ele>71</ele>
        <time>2021-05-01T09:21:29.000Z</time>
      </trkpt>
      <trkpt lat="47.18375" lon="-1.77084">
        <ele>72</ele>
        <time>2021-05-01T09:21:31.000Z</time>
      </trkpt>
      <trkpt lat="47.18373" lon="-1.77104">
        <ele>72</ele>
        <time>2021-05-01T09:21:33.000Z</time>
      </trkpt>
      <trkpt lat="47.18371" lon="-1.77124">
        <ele>72</ele>
        <time>2021-05-01T09:21:35.000Z</time>
      </trkpt>
      <trkpt lat="47.18368" lon="-1.77145">
        <ele>72</ele>
        <time>2021-05-01T09:21:37.000Z</time>
      </trkpt>
      <trkpt lat="47.18366" lon="-1.77164">
        <ele>72</ele>
        <time>2021-05-01T09:21:39.000Z</time>
      </trkpt>
      <trkpt lat="47.18364" lon="-1.77184">
        <ele>72</ele>
        <time>2021-05-01T09:21:41.000Z</time>
      </trkpt>
      <trkpt lat="47.18362" lon="-1.77205">
        <ele>73</ele>
        <time>2021-05-01T09:21:43.000Z</time>
      </trkpt>
      <trkpt lat="47.18362" lon="-1.77225">
        <ele>73</ele>
        <time>2021-05-01T09:21:45.000Z</time>
      </trkpt>
      <trkpt lat="47.18362" lon="-1.77245">
        <ele>72</ele>
        <time>2021-05-01T09:21:47.000Z</time>
      </trkpt>
      <trkpt lat="47.18362" lon="-1.77265">
        <ele>73</ele>
        <time>2021-05-01T09:21:49.000Z</time>
      </trkpt>
      <trkpt lat="47.18364" lon="-1.77285">
        <ele>73</ele>
        <time>2021-05-01T09:21:51.000Z</time>
      </trkpt>
      <trkpt lat="47.18365" lon="-1.77305">
        <ele>73</ele>
        <time>2021-05-01T09:21:53.000Z</time>
      </trkpt>
      <trkpt lat="47.18366" lon="-1.77326">
        <ele>74</ele>
        <time>2021-05-01T09:21:55.000Z</time>
      </trkpt>
      <trkpt lat="47.18367" lon="-1.77346">
        <ele>73</ele>
        <time>2021-05-01T09:21:57.000Z</time>
      </trkpt>
      <trkpt lat="47.18368" lon="-1.77366">
        <ele>73</ele>
        <time>2021-05-01T09:21:59.000Z</time>
      </trkpt>
      <trkpt lat="47.18368" lon="-1.77386">
        <ele>73</ele>
        <time>2021-05-01T09:22:01.000Z</time>
      </trkpt>
      <trkpt lat="47.1837" lon="-1.77406">
        <ele>73</ele>
        <time>2021-05-01T09:22:03.000Z</time>
      </trkpt>
      <trkpt lat="47.1837" lon="-1.77427">
        <ele>73</ele>
        <time>2021-05-01T09:22:05.000Z</time>
      </trkpt>
      <trkpt lat="47.18371" lon="-1.77447">
        <ele>72</ele>
        <time>2021-05-01T09:22:07.000Z</time>
      </trkpt>
      <trkpt lat="47.18372" lon="-1.77468">
        <ele>73</ele>
        <time>2021-05-01T09:22:09.000Z</time>
      </trkpt>
      <trkpt lat="47.18372" lon="-1.77488">
        <ele>73</ele>
        <time>2021-05-01T09:22:11.000Z</time>
      </trkpt>
      <trkpt lat="47.18372" lon="-1.77508">
        <ele>72</ele>
        <time>2021-05-01T09:22:13.000Z</time>
      </trkpt>
      <trkpt lat="47.18371" lon="-1.77528">
        <ele>72</ele>
        <time>2021-05-01T09:22:15.000Z</time>
      </trkpt>
      <trkpt lat="47.18368" lon="-1.77548">
        <ele>72</ele>
        <time>2021-05-01T09:22:17.000Z</time>
      </trkpt>
      <trkpt lat="47.18365" lon="-1.77568">
        <ele>72</ele>
        <time>2021-05-01T09:22:19.000Z</time>
      </trkpt>
      <trkpt lat="47.18361" lon="-1.77587">
        <ele>72</ele>
        <time>2021-05-01T09:22:21.000Z</time>
      </trkpt>
      <trkpt lat="47.18355" lon="-1.77606">
        <ele>72</ele>
        <time>2021-05-01T09:22:23.000Z</time>
      </trkpt>
      <trkpt lat="47.18349" lon="-1.77625">
        <ele>72</ele>
        <time>2021-05-01T09:22:25.000Z</time>
      </trkpt>
      <trkpt lat="47.18344" lon="-1.77644">
        <ele>72</ele>
        <time>2021-05-01T09:22:27.000Z</time>
      </trkpt>
      <trkpt lat="47.18337" lon="-1.77664">
        <ele>72</ele>
        <time>2021-05-01T09:22:29.000Z</time>
      </trkpt>
      <trkpt lat="47.18331" lon="-1.77683">
        <ele>72</ele>
        <time>2021-05-01T09:22:31.000Z</time>
      </trkpt>
      <trkpt lat="47.18324" lon="-1.77702">
        <ele>72</ele>
        <time>2021-05-01T09:22:33.000Z</time>
      </trkpt>
      <trkpt lat="47.18318" lon="-1.77722">
        <ele>71</ele>
        <time>2021-05-01T09:22:35.000Z</time>
      </trkpt>
      <trkpt lat="47.18312" lon="-1.77741">
        <ele>72</ele>
        <time>2021-05-01T09:22:37.000Z</time>
      </trkpt>
      <trkpt lat="47.18305" lon="-1.77761">
        <ele>72</ele>
        <time>2021-05-01T09:22:39.000Z</time>
      </trkpt>
      <trkpt lat="47.18298" lon="-1.7778">
        <ele>72</ele>
        <time>2021-05-01T09:22:41.000Z</time>
      </trkpt>
      <trkpt lat="47.18292" lon="-1.77799">
        <ele>72</ele>
        <time>2021-05-01T09:22:43.000Z</time>
      </trkpt>
      <trkpt lat="47.18286" lon="-1.77818">
        <ele>72</ele>
        <time>2021-05-01T09:22:45.000Z</time>
      </trkpt>
      <trkpt lat="47.1828" lon="-1.77836">
        <ele>72</ele>
        <time>2021-05-01T09:22:47.000Z</time>
      </trkpt>
      <trkpt lat="47.18276" lon="-1.77854">
        <ele>73</ele>
        <time>2021-05-01T09:22:49.000Z</time>
      </trkpt>
      <trkpt lat="47.18279" lon="-1.77872">
        <ele>73</ele>
        <time>2021-05-01T09:22:51.000Z</time>
      </trkpt>
      <trkpt lat="47.18289" lon="-1.77883">
        <ele>73</ele>
        <time>2021-05-01T09:22:53.000Z</time>
      </trkpt>
      <trkpt lat="47.18299" lon="-1.77891">
        <ele>73</ele>
        <time>2021-05-01T09:22:55.000Z</time>
      </trkpt>
      <trkpt lat="47.18311" lon="-1.77899">
        <ele>73</ele>
        <time>2021-05-01T09:22:57.000Z</time>
      </trkpt>
      <trkpt lat="47.18323" lon="-1.77902">
        <ele>74</ele>
        <time>2021-05-01T09:22:59.000Z</time>
      </trkpt>
      <trkpt lat="47.18334" lon="-1.77901">
        <ele>74</ele>
        <time>2021-05-01T09:23:01.000Z</time>
      </trkpt>
      <trkpt lat="47.18346" lon="-1.77902">
        <ele>75</ele>
        <time>2021-05-01T09:23:03.000Z</time>
      </trkpt>
      <trkpt lat="47.18357" lon="-1.77902">
        <ele>75</ele>
        <time>2021-05-01T09:23:05.000Z</time>
      </trkpt>
      <trkpt lat="47.18368" lon="-1.77901">
        <ele>75</ele>
        <time>2021-05-01T09:23:07.000Z</time>
      </trkpt>
      <trkpt lat="47.18378" lon="-1.77901">
        <ele>76</ele>
        <time>2021-05-01T09:23:09.000Z</time>
      </trkpt>
      <trkpt lat="47.18389" lon="-1.779">
        <ele>77</ele>
        <time>2021-05-01T09:23:11.000Z</time>
      </trkpt>
      <trkpt lat="47.184" lon="-1.779">
        <ele>77</ele>
        <time>2021-05-01T09:23:13.000Z</time>
      </trkpt>
      <trkpt lat="47.18411" lon="-1.779">
        <ele>77</ele>
        <time>2021-05-01T09:23:15.000Z</time>
      </trkpt>
      <trkpt lat="47.18422" lon="-1.779">
        <ele>78</ele>
        <time>2021-05-01T09:23:17.000Z</time>
      </trkpt>
      <trkpt lat="47.18433" lon="-1.77899">
        <ele>78</ele>
        <time>2021-05-01T09:23:19.000Z</time>
      </trkpt>
      <trkpt lat="47.18445" lon="-1.77899">
        <ele>78</ele>
        <time>2021-05-01T09:23:21.000Z</time>
      </trkpt>
      <trkpt lat="47.18455" lon="-1.77898">
        <ele>78</ele>
        <time>2021-05-01T09:23:23.000Z</time>
      </trkpt>
      <trkpt lat="47.18467" lon="-1.77897">
        <ele>78</ele>
        <time>2021-05-01T09:23:25.000Z</time>
      </trkpt>
      <trkpt lat="47.18478" lon="-1.77896">
        <ele>78</ele>
        <time>2021-05-01T09:23:27.000Z</time>
      </trkpt>
      <trkpt lat="47.18489" lon="-1.77895">
        <ele>78</ele>
        <time>2021-05-01T09:23:29.000Z</time>
      </trkpt>
      <trkpt lat="47.185" lon="-1.77892">
        <ele>78</ele>
        <time>2021-05-01T09:23:31.000Z</time>
      </trkpt>
      <trkpt lat="47.18511" lon="-1.77885">
        <ele>78</ele>
        <time>2021-05-01T09:23:33.000Z</time>
      </trkpt>
      <trkpt lat="47.18522" lon="-1.77879">
        <ele>77</ele>
        <time>2021-05-01T09:23:35.000Z</time>
      </trkpt>
      <trkpt lat="47.18535" lon="-1.77884">
        <ele>77</ele>
        <time>2021-05-01T09:23:37.000Z</time>
      </trkpt>
      <trkpt lat="47.18543" lon="-1.77898">
        <ele>77</ele>
        <time>2021-05-01T09:23:39.000Z</time>
      </trkpt>
      <trkpt lat="47.18547" lon="-1.77916">
        <ele>78</ele>
        <time>2021-05-01T09:23:41.000Z</time>
      </trkpt>
      <trkpt lat="47.18555" lon="-1.77929">
        <ele>77</ele>
        <time>2021-05-01T09:23:43.000Z</time>
      </trkpt>
      <trkpt lat="47.1856" lon="-1.77948">
        <ele>76</ele>
        <time>2021-05-01T09:23:45.000Z</time>
      </trkpt>
      <trkpt lat="47.18558" lon="-1.77968">
        <ele>76</ele>
        <time>2021-05-01T09:23:47.000Z</time>
      </trkpt>
      <trkpt lat="47.1855" lon="-1.77985">
        <ele>76</ele>
        <time>2021-05-01T09:23:49.000Z</time>
      </trkpt>
      <trkpt lat="47.1854" lon="-1.78001">
        <ele>76</ele>
        <time>2021-05-01T09:23:51.000Z</time>
      </trkpt>
      <trkpt lat="47.18533" lon="-1.7802">
        <ele>76</ele>
        <time>2021-05-01T09:23:53.000Z</time>
      </trkpt>
      <trkpt lat="47.18529" lon="-1.7804">
        <ele>75</ele>
        <time>2021-05-01T09:23:55.000Z</time>
      </trkpt>
      <trkpt lat="47.18526" lon="-1.78063">
        <ele>75</ele>
        <time>2021-05-01T09:23:57.000Z</time>
      </trkpt>
      <trkpt lat="47.18523" lon="-1.78085">
        <ele>74</ele>
        <time>2021-05-01T09:23:59.000Z</time>
      </trkpt>
      <trkpt lat="47.1852" lon="-1.78107">
        <ele>74</ele>
        <time>2021-05-01T09:24:01.000Z</time>
      </trkpt>
      <trkpt lat="47.18518" lon="-1.78129">
        <ele>74</ele>
        <time>2021-05-01T09:24:03.000Z</time>
      </trkpt>
      <trkpt lat="47.18517" lon="-1.78151">
        <ele>74</ele>
        <time>2021-05-01T09:24:05.000Z</time>
      </trkpt>
      <trkpt lat="47.18516" lon="-1.78173">
        <ele>74</ele>
        <time>2021-05-01T09:24:07.000Z</time>
      </trkpt>
      <trkpt lat="47.18516" lon="-1.78195">
        <ele>74</ele>
        <time>2021-05-01T09:24:09.000Z</time>
      </trkpt>
      <trkpt lat="47.18516" lon="-1.78217">
        <ele>73</ele>
        <time>2021-05-01T09:24:11.000Z</time>
      </trkpt>
      <trkpt lat="47.18517" lon="-1.78239">
        <ele>73</ele>
        <time>2021-05-01T09:24:13.000Z</time>
      </trkpt>
      <trkpt lat="47.18519" lon="-1.7826">
        <ele>73</ele>
        <time>2021-05-01T09:24:15.000Z</time>
      </trkpt>
      <trkpt lat="47.18522" lon="-1.78282">
        <ele>73</ele>
        <time>2021-05-01T09:24:17.000Z</time>
      </trkpt>
      <trkpt lat="47.18524" lon="-1.78303">
        <ele>73</ele>
        <time>2021-05-01T09:24:19.000Z</time>
      </trkpt>
      <trkpt lat="47.18526" lon="-1.78325">
        <ele>72</ele>
        <time>2021-05-01T09:24:21.000Z</time>
      </trkpt>
      <trkpt lat="47.18529" lon="-1.78346">
        <ele>72</ele>
        <time>2021-05-01T09:24:23.000Z</time>
      </trkpt>
      <trkpt lat="47.18531" lon="-1.78367">
        <ele>72</ele>
        <time>2021-05-01T09:24:25.000Z</time>
      </trkpt>
      <trkpt lat="47.18534" lon="-1.78388">
        <ele>72</ele>
        <time>2021-05-01T09:24:27.000Z</time>
      </trkpt>
      <trkpt lat="47.18536" lon="-1.78409">
        <ele>71</ele>
        <time>2021-05-01T09:24:29.000Z</time>
      </trkpt>
      <trkpt lat="47.18538" lon="-1.78431">
        <ele>71</ele>
        <time>2021-05-01T09:24:31.000Z</time>
      </trkpt>
      <trkpt lat="47.18541" lon="-1.78453">
        <ele>70</ele>
        <time>2021-05-01T09:24:33.000Z</time>
      </trkpt>
      <trkpt lat="47.18543" lon="-1.78474">
        <ele>70</ele>
        <time>2021-05-01T09:24:35.000Z</time>
      </trkpt>
      <trkpt lat="47.18545" lon="-1.78496">
        <ele>70</ele>
        <time>2021-05-01T09:24:37.000Z</time>
      </trkpt>
      <trkpt lat="47.18548" lon="-1.78517">
        <ele>69</ele>
        <time>2021-05-01T09:24:39.000Z</time>
      </trkpt>
      <trkpt lat="47.18552" lon="-1.78537">
        <ele>69</ele>
        <time>2021-05-01T09:24:41.000Z</time>
      </trkpt>
      <trkpt lat="47.18557" lon="-1.78556">
        <ele>69</ele>
        <time>2021-05-01T09:24:43.000Z</time>
      </trkpt>
      <trkpt lat="47.18562" lon="-1.78575">
        <ele>70</ele>
        <time>2021-05-01T09:24:45.000Z</time>
      </trkpt>
      <trkpt lat="47.18569" lon="-1.78593">
        <ele>70</ele>
        <time>2021-05-01T09:24:47.000Z</time>
      </trkpt>
      <trkpt lat="47.18575" lon="-1.78609">
        <ele>70</ele>
        <time>2021-05-01T09:24:49.000Z</time>
      </trkpt>
      <trkpt lat="47.18582" lon="-1.78626">
        <ele>70</ele>
        <time>2021-05-01T09:24:51.000Z</time>
      </trkpt>
      <trkpt lat="47.18589" lon="-1.78644">
        <ele>70</ele>
        <time>2021-05-01T09:24:53.000Z</time>
      </trkpt>
      <trkpt lat="47.18594" lon="-1.78663">
        <ele>70</ele>
        <time>2021-05-01T09:24:55.000Z</time>
      </trkpt>
      <trkpt lat="47.18599" lon="-1.78682">
        <ele>69</ele>
        <time>2021-05-01T09:24:57.000Z</time>
      </trkpt>
      <trkpt lat="47.18604" lon="-1.78701">
        <ele>70</ele>
        <time>2021-05-01T09:24:59.000Z</time>
      </trkpt>
      <trkpt lat="47.18609" lon="-1.7872">
        <ele>70</ele>
        <time>2021-05-01T09:25:01.000Z</time>
      </trkpt>
      <trkpt lat="47.18613" lon="-1.78739">
        <ele>70</ele>
        <time>2021-05-01T09:25:03.000Z</time>
      </trkpt>
      <trkpt lat="47.18618" lon="-1.78757">
        <ele>70</ele>
        <time>2021-05-01T09:25:05.000Z</time>
      </trkpt>
      <trkpt lat="47.18622" lon="-1.78775">
        <ele>70</ele>
        <time>2021-05-01T09:25:07.000Z</time>
      </trkpt>
      <trkpt lat="47.18627" lon="-1.78794">
        <ele>70</ele>
        <time>2021-05-01T09:25:09.000Z</time>
      </trkpt>
      <trkpt lat="47.18632" lon="-1.78812">
        <ele>70</ele>
        <time>2021-05-01T09:25:11.000Z</time>
      </trkpt>
      <trkpt lat="47.18639" lon="-1.78828">
        <ele>71</ele>
        <time>2021-05-01T09:25:13.000Z</time>
      </trkpt>
      <trkpt lat="47.18648" lon="-1.78843">
        <ele>71</ele>
        <time>2021-05-01T09:25:15.000Z</time>
      </trkpt>
      <trkpt lat="47.18659" lon="-1.78854">
        <ele>71</ele>
        <time>2021-05-01T09:25:17.000Z</time>
      </trkpt>
      <trkpt lat="47.18671" lon="-1.78863">
        <ele>71</ele>
        <time>2021-05-01T09:25:19.000Z</time>
      </trkpt>
      <trkpt lat="47.18683" lon="-1.78871">
        <ele>70</ele>
        <time>2021-05-01T09:25:21.000Z</time>
      </trkpt>
      <trkpt lat="47.18694" lon="-1.78878">
        <ele>70</ele>
        <time>2021-05-01T09:25:23.000Z</time>
      </trkpt>
      <trkpt lat="47.18704" lon="-1.78886">
        <ele>70</ele>
        <time>2021-05-01T09:25:25.000Z</time>
      </trkpt>
      <trkpt lat="47.18715" lon="-1.78889">
        <ele>70</ele>
        <time>2021-05-01T09:25:27.000Z</time>
      </trkpt>
      <trkpt lat="47.18722" lon="-1.78879">
        <ele>70</ele>
        <time>2021-05-01T09:25:29.000Z</time>
      </trkpt>
      <trkpt lat="47.18726" lon="-1.78862">
        <ele>70</ele>
        <time>2021-05-01T09:25:31.000Z</time>
      </trkpt>
      <trkpt lat="47.18732" lon="-1.78845">
        <ele>70</ele>
        <time>2021-05-01T09:25:33.000Z</time>
      </trkpt>
      <trkpt lat="47.18738" lon="-1.78827">
        <ele>70</ele>
        <time>2021-05-01T09:25:35.000Z</time>
      </trkpt>
      <trkpt lat="47.18744" lon="-1.7881">
        <ele>70</ele>
        <time>2021-05-01T09:25:37.000Z</time>
      </trkpt>
      <trkpt lat="47.18751" lon="-1.78792">
        <ele>71</ele>
        <time>2021-05-01T09:25:39.000Z</time>
      </trkpt>
      <trkpt lat="47.18758" lon="-1.78774">
        <ele>71</ele>
        <time>2021-05-01T09:25:41.000Z</time>
      </trkpt>
      <trkpt lat="47.18766" lon="-1.78758">
        <ele>71</ele>
        <time>2021-05-01T09:25:43.000Z</time>
      </trkpt>
      <trkpt lat="47.18775" lon="-1.78743">
        <ele>71</ele>
        <time>2021-05-01T09:25:45.000Z</time>
      </trkpt>
      <trkpt lat="47.18786" lon="-1.78728">
        <ele>71</ele>
        <time>2021-05-01T09:25:47.000Z</time>
      </trkpt>
      <trkpt lat="47.18797" lon="-1.78714">
        <ele>71</ele>
        <time>2021-05-01T09:25:49.000Z</time>
      </trkpt>
      <trkpt lat="47.18808" lon="-1.78702">
        <ele>71</ele>
        <time>2021-05-01T09:25:51.000Z</time>
      </trkpt>
      <trkpt lat="47.1882" lon="-1.7869">
        <ele>71</ele>
        <time>2021-05-01T09:25:53.000Z</time>
      </trkpt>
      <trkpt lat="47.18832" lon="-1.78678">
        <ele>71</ele>
        <time>2021-05-01T09:25:55.000Z</time>
      </trkpt>
      <trkpt lat="47.18844" lon="-1.78667">
        <ele>71</ele>
        <time>2021-05-01T09:25:57.000Z</time>
      </trkpt>
      <trkpt lat="47.18855" lon="-1.78659">
        <ele>70</ele>
        <time>2021-05-01T09:25:59.000Z</time>
      </trkpt>
      <trkpt lat="47.18866" lon="-1.78668">
        <ele>69</ele>
        <time>2021-05-01T09:26:01.000Z</time>
      </trkpt>
      <trkpt lat="47.18869" lon="-1.78688">
        <ele>69</ele>
        <time>2021-05-01T09:26:03.000Z</time>
      </trkpt>
      <trkpt lat="47.1887" lon="-1.78709">
        <ele>69</ele>
        <time>2021-05-01T09:26:05.000Z</time>
      </trkpt>
      <trkpt lat="47.18872" lon="-1.7873">
        <ele>69</ele>
        <time>2021-05-01T09:26:07.000Z</time>
      </trkpt>
      <trkpt lat="47.18875" lon="-1.78753">
        <ele>69</ele>
        <time>2021-05-01T09:26:09.000Z</time>
      </trkpt>
      <trkpt lat="47.18877" lon="-1.78775">
        <ele>68</ele>
        <time>2021-05-01T09:26:11.000Z</time>
      </trkpt>
      <trkpt lat="47.18879" lon="-1.78798">
        <ele>68</ele>
        <time>2021-05-01T09:26:13.000Z</time>
      </trkpt>
      <trkpt lat="47.18881" lon="-1.7882">
        <ele>67</ele>
        <time>2021-05-01T09:26:15.000Z</time>
      </trkpt>
      <trkpt lat="47.18883" lon="-1.78843">
        <ele>67</ele>
        <time>2021-05-01T09:26:17.000Z</time>
      </trkpt>
      <trkpt lat="47.18885" lon="-1.78865">
        <ele>68</ele>
        <time>2021-05-01T09:26:19.000Z</time>
      </trkpt>
      <trkpt lat="47.18887" lon="-1.78886">
        <ele>68</ele>
        <time>2021-05-01T09:26:21.000Z</time>
      </trkpt>
      <trkpt lat="47.1889" lon="-1.78908">
        <ele>68</ele>
        <time>2021-05-01T09:26:23.000Z</time>
      </trkpt>
      <trkpt lat="47.18891" lon="-1.7893">
        <ele>67</ele>
        <time>2021-05-01T09:26:25.000Z</time>
      </trkpt>
      <trkpt lat="47.18893" lon="-1.78952">
        <ele>67</ele>
        <time>2021-05-01T09:26:27.000Z</time>
      </trkpt>
      <trkpt lat="47.18895" lon="-1.78973">
        <ele>67</ele>
        <time>2021-05-01T09:26:29.000Z</time>
      </trkpt>
      <trkpt lat="47.18897" lon="-1.78995">
        <ele>67</ele>
        <time>2021-05-01T09:26:31.000Z</time>
      </trkpt>
      <trkpt lat="47.18899" lon="-1.79016">
        <ele>67</ele>
        <time>2021-05-01T09:26:33.000Z</time>
      </trkpt>
      <trkpt lat="47.18902" lon="-1.79038">
        <ele>67</ele>
        <time>2021-05-01T09:26:35.000Z</time>
      </trkpt>
      <trkpt lat="47.18904" lon="-1.79059">
        <ele>66</ele>
        <time>2021-05-01T09:26:37.000Z</time>
      </trkpt>
      <trkpt lat="47.18906" lon="-1.7908">
        <ele>66</ele>
        <time>2021-05-01T09:26:39.000Z</time>
      </trkpt>
      <trkpt lat="47.18908" lon="-1.79102">
        <ele>66</ele>
        <time>2021-05-01T09:26:41.000Z</time>
      </trkpt>
      <trkpt lat="47.1891" lon="-1.79122">
        <ele>65</ele>
        <time>2021-05-01T09:26:43.000Z</time>
      </trkpt>
      <trkpt lat="47.18912" lon="-1.79143">
        <ele>65</ele>
        <time>2021-05-01T09:26:45.000Z</time>
      </trkpt>
      <trkpt lat="47.18914" lon="-1.79164">
        <ele>65</ele>
        <time>2021-05-01T09:26:47.000Z</time>
      </trkpt>
      <trkpt lat="47.18918" lon="-1.79185">
        <ele>65</ele>
        <time>2021-05-01T09:26:49.000Z</time>
      </trkpt>
      <trkpt lat="47.18922" lon="-1.79207">
        <ele>65</ele>
        <time>2021-05-01T09:26:51.000Z</time>
      </trkpt>
      <trkpt lat="47.18926" lon="-1.79227">
        <ele>64</ele>
        <time>2021-05-01T09:26:53.000Z</time>
      </trkpt>
      <trkpt lat="47.18931" lon="-1.79246">
        <ele>64</ele>
        <time>2021-05-01T09:26:55.000Z</time>
      </trkpt>
      <trkpt lat="47.18937" lon="-1.79267">
        <ele>64</ele>
        <time>2021-05-01T09:26:57.000Z</time>
      </trkpt>
      <trkpt lat="47.18942" lon="-1.79287">
        <ele>63</ele>
        <time>2021-05-01T09:26:59.000Z</time>
      </trkpt>
      <trkpt lat="47.18944" lon="-1.79308">
        <ele>64</ele>
        <time>2021-05-01T09:27:01.000Z</time>
      </trkpt>
      <trkpt lat="47.18946" lon="-1.79328">
        <ele>64</ele>
        <time>2021-05-01T09:27:03.000Z</time>
      </trkpt>
      <trkpt lat="47.18949" lon="-1.79349">
        <ele>64</ele>
        <time>2021-05-01T09:27:05.000Z</time>
      </trkpt>
      <trkpt lat="47.18952" lon="-1.79368">
        <ele>64</ele>
        <time>2021-05-01T09:27:07.000Z</time>
      </trkpt>
      <trkpt lat="47.18956" lon="-1.79388">
        <ele>64</ele>
        <time>2021-05-01T09:27:09.000Z</time>
      </trkpt>
      <trkpt lat="47.1896" lon="-1.79409">
        <ele>64</ele>
        <time>2021-05-01T09:27:11.000Z</time>
      </trkpt>
      <trkpt lat="47.18963" lon="-1.79429">
        <ele>64</ele>
        <time>2021-05-01T09:27:13.000Z</time>
      </trkpt>
      <trkpt lat="47.18966" lon="-1.79448">
        <ele>64</ele>
        <time>2021-05-01T09:27:15.000Z</time>
      </trkpt>
      <trkpt lat="47.18969" lon="-1.79468">
        <ele>64</ele>
        <time>2021-05-01T09:27:17.000Z</time>
      </trkpt>
      <trkpt lat="47.18972" lon="-1.79488">
        <ele>64</ele>
        <time>2021-05-01T09:27:19.000Z</time>
      </trkpt>
      <trkpt lat="47.18976" lon="-1.79507">
        <ele>65</ele>
        <time>2021-05-01T09:27:21.000Z</time>
      </trkpt>
      <trkpt lat="47.1898" lon="-1.79526">
        <ele>65</ele>
        <time>2021-05-01T09:27:23.000Z</time>
      </trkpt>
      <trkpt lat="47.18984" lon="-1.79545">
        <ele>65</ele>
        <time>2021-05-01T09:27:25.000Z</time>
      </trkpt>
      <trkpt lat="47.18989" lon="-1.79565">
        <ele>64</ele>
        <time>2021-05-01T09:27:27.000Z</time>
      </trkpt>
      <trkpt lat="47.18993" lon="-1.79584">
        <ele>63</ele>
        <time>2021-05-01T09:27:29.000Z</time>
      </trkpt>
      <trkpt lat="47.18997" lon="-1.79602">
        <ele>63</ele>
        <time>2021-05-01T09:27:31.000Z</time>
      </trkpt>
      <trkpt lat="47.19002" lon="-1.79621">
        <ele>63</ele>
        <time>2021-05-01T09:27:33.000Z</time>
      </trkpt>
      <trkpt lat="47.19006" lon="-1.79641">
        <ele>63</ele>
        <time>2021-05-01T09:27:35.000Z</time>
      </trkpt>
      <trkpt lat="47.19011" lon="-1.79661">
        <ele>63</ele>
        <time>2021-05-01T09:27:37.000Z</time>
      </trkpt>
      <trkpt lat="47.19017" lon="-1.7968">
        <ele>62</ele>
        <time>2021-05-01T09:27:39.000Z</time>
      </trkpt>
      <trkpt lat="47.19022" lon="-1.797">
        <ele>62</ele>
        <time>2021-05-01T09:27:41.000Z</time>
      </trkpt>
      <trkpt lat="47.19027" lon="-1.79719">
        <ele>62</ele>
        <time>2021-05-01T09:27:43.000Z</time>
      </trkpt>
      <trkpt lat="47.19033" lon="-1.79738">
        <ele>62</ele>
        <time>2021-05-01T09:27:45.000Z</time>
      </trkpt>
      <trkpt lat="47.19038" lon="-1.79757">
        <ele>62</ele>
        <time>2021-05-01T09:27:47.000Z</time>
      </trkpt>
      <trkpt lat="47.19045" lon="-1.79774">
        <ele>61</ele>
        <time>2021-05-01T09:27:49.000Z</time>
      </trkpt>
      <trkpt lat="47.19053" lon="-1.79791">
        <ele>61</ele>
        <time>2021-05-01T09:27:51.000Z</time>
      </trkpt>
      <trkpt lat="47.1906" lon="-1.79808">
        <ele>62</ele>
        <time>2021-05-01T09:27:53.000Z</time>
      </trkpt>
      <trkpt lat="47.19068" lon="-1.79825">
        <ele>62</ele>
        <time>2021-05-01T09:27:55.000Z</time>
      </trkpt>
      <trkpt lat="47.19075" lon="-1.79842">
        <ele>63</ele>
        <time>2021-05-01T09:27:57.000Z</time>
      </trkpt>
      <trkpt lat="47.19082" lon="-1.79859">
        <ele>63</ele>
        <time>2021-05-01T09:27:59.000Z</time>
      </trkpt>
      <trkpt lat="47.19089" lon="-1.79876">
        <ele>63</ele>
        <time>2021-05-01T09:28:01.000Z</time>
      </trkpt>
      <trkpt lat="47.19096" lon="-1.79893">
        <ele>63</ele>
        <time>2021-05-01T09:28:03.000Z</time>
      </trkpt>
      <trkpt lat="47.19103" lon="-1.7991">
        <ele>64</ele>
        <time>2021-05-01T09:28:05.000Z</time>
      </trkpt>
      <trkpt lat="47.1911" lon="-1.79927">
        <ele>64</ele>
        <time>2021-05-01T09:28:07.000Z</time>
      </trkpt>
      <trkpt lat="47.19118" lon="-1.79944">
        <ele>64</ele>
        <time>2021-05-01T09:28:09.000Z</time>
      </trkpt>
      <trkpt lat="47.19125" lon="-1.7996">
        <ele>63</ele>
        <time>2021-05-01T09:28:11.000Z</time>
      </trkpt>
      <trkpt lat="47.19133" lon="-1.79976">
        <ele>63</ele>
        <time>2021-05-01T09:28:13.000Z</time>
      </trkpt>
      <trkpt lat="47.19139" lon="-1.79992">
        <ele>63</ele>
        <time>2021-05-01T09:28:15.000Z</time>
      </trkpt>
      <trkpt lat="47.19146" lon="-1.80007">
        <ele>62</ele>
        <time>2021-05-01T09:28:17.000Z</time>
      </trkpt>
      <trkpt lat="47.19153" lon="-1.80023">
        <ele>62</ele>
        <time>2021-05-01T09:28:19.000Z</time>
      </trkpt>
      <trkpt lat="47.19161" lon="-1.80038">
        <ele>62</ele>
        <time>2021-05-01T09:28:21.000Z</time>
      </trkpt>
      <trkpt lat="47.19169" lon="-1.80055">
        <ele>62</ele>
        <time>2021-05-01T09:28:23.000Z</time>
      </trkpt>
      <trkpt lat="47.19177" lon="-1.80072">
        <ele>62</ele>
        <time>2021-05-01T09:28:25.000Z</time>
      </trkpt>
      <trkpt lat="47.19186" lon="-1.8009">
        <ele>62</ele>
        <time>2021-05-01T09:28:27.000Z</time>
      </trkpt>
      <trkpt lat="47.19194" lon="-1.80107">
        <ele>62</ele>
        <time>2021-05-01T09:28:29.000Z</time>
      </trkpt>
      <trkpt lat="47.19202" lon="-1.80124">
        <ele>62</ele>
        <time>2021-05-01T09:28:31.000Z</time>
      </trkpt>
      <trkpt lat="47.19209" lon="-1.8014">
        <ele>62</ele>
        <time>2021-05-01T09:28:33.000Z</time>
      </trkpt>
      <trkpt lat="47.19217" lon="-1.80157">
        <ele>62</ele>
        <time>2021-05-01T09:28:35.000Z</time>
      </trkpt>
      <trkpt lat="47.19225" lon="-1.80175">
        <ele>63</ele>
        <time>2021-05-01T09:28:37.000Z</time>
      </trkpt>
      <trkpt lat="47.19232" lon="-1.80195">
        <ele>63</ele>
        <time>2021-05-01T09:28:39.000Z</time>
      </trkpt>
      <trkpt lat="47.19238" lon="-1.80214">
        <ele>63</ele>
        <time>2021-05-01T09:28:41.000Z</time>
      </trkpt>
      <trkpt lat="47.19244" lon="-1.80234">
        <ele>63</ele>
        <time>2021-05-01T09:28:43.000Z</time>
      </trkpt>
      <trkpt lat="47.19249" lon="-1.80255">
        <ele>63</ele>
        <time>2021-05-01T09:28:45.000Z</time>
      </trkpt>
      <trkpt lat="47.19254" lon="-1.80275">
        <ele>63</ele>
        <time>2021-05-01T09:28:47.000Z</time>
      </trkpt>
      <trkpt lat="47.1926" lon="-1.80295">
        <ele>62</ele>
        <time>2021-05-01T09:28:49.000Z</time>
      </trkpt>
      <trkpt lat="47.19266" lon="-1.80315">
        <ele>62</ele>
        <time>2021-05-01T09:28:51.000Z</time>
      </trkpt>
      <trkpt lat="47.19271" lon="-1.80335">
        <ele>61</ele>
        <time>2021-05-01T09:28:53.000Z</time>
      </trkpt>
      <trkpt lat="47.19277" lon="-1.80355">
        <ele>61</ele>
        <time>2021-05-01T09:28:55.000Z</time>
      </trkpt>
      <trkpt lat="47.19283" lon="-1.80375">
        <ele>60</ele>
        <time>2021-05-01T09:28:57.000Z</time>
      </trkpt>
      <trkpt lat="47.19289" lon="-1.80396">
        <ele>60</ele>
        <time>2021-05-01T09:28:59.000Z</time>
      </trkpt>
      <trkpt lat="47.19295" lon="-1.80416">
        <ele>59</ele>
        <time>2021-05-01T09:29:01.000Z</time>
      </trkpt>
      <trkpt lat="47.19302" lon="-1.80436">
        <ele>59</ele>
        <time>2021-05-01T09:29:03.000Z</time>
      </trkpt>
      <trkpt lat="47.1931" lon="-1.80456">
        <ele>59</ele>
        <time>2021-05-01T09:29:05.000Z</time>
      </trkpt>
      <trkpt lat="47.19316" lon="-1.80476">
        <ele>58</ele>
        <time>2021-05-01T09:29:07.000Z</time>
      </trkpt>
      <trkpt lat="47.19323" lon="-1.80496">
        <ele>57</ele>
        <time>2021-05-01T09:29:09.000Z</time>
      </trkpt>
      <trkpt lat="47.1933" lon="-1.80516">
        <ele>57</ele>
        <time>2021-05-01T09:29:11.000Z</time>
      </trkpt>
      <trkpt lat="47.19336" lon="-1.80536">
        <ele>57</ele>
        <time>2021-05-01T09:29:13.000Z</time>
      </trkpt>
      <trkpt lat="47.19342" lon="-1.80556">
        <ele>56</ele>
        <time>2021-05-01T09:29:15.000Z</time>
      </trkpt>
      <trkpt lat="47.19345" lon="-1.80577">
        <ele>57</ele>
        <time>2021-05-01T09:29:17.000Z</time>
      </trkpt>
      <trkpt lat="47.19348" lon="-1.80597">
        <ele>57</ele>
        <time>2021-05-01T09:29:19.000Z</time>
      </trkpt>
      <trkpt lat="47.19351" lon="-1.80619">
        <ele>57</ele>
        <time>2021-05-01T09:29:21.000Z</time>
      </trkpt>
      <trkpt lat="47.19352" lon="-1.8064">
        <ele>57</ele>
        <time>2021-05-01T09:29:23.000Z</time>
      </trkpt>
      <trkpt lat="47.19353" lon="-1.80659">
        <ele>58</ele>
        <time>2021-05-01T09:29:25.000Z</time>
      </trkpt>
      <trkpt lat="47.19353" lon="-1.80679">
        <ele>59</ele>
        <time>2021-05-01T09:29:27.000Z</time>
      </trkpt>
      <trkpt lat="47.1935" lon="-1.807">
        <ele>59</ele>
        <time>2021-05-01T09:29:29.000Z</time>
      </trkpt>
      <trkpt lat="47.19348" lon="-1.80719">
        <ele>59</ele>
        <time>2021-05-01T09:29:31.000Z</time>
      </trkpt>
      <trkpt lat="47.19346" lon="-1.80738">
        <ele>60</ele>
        <time>2021-05-01T09:29:33.000Z</time>
      </trkpt>
      <trkpt lat="47.19348" lon="-1.80757">
        <ele>61</ele>
        <time>2021-05-01T09:29:35.000Z</time>
      </trkpt>
      <trkpt lat="47.19353" lon="-1.80778">
        <ele>60</ele>
        <time>2021-05-01T09:29:37.000Z</time>
      </trkpt>
      <trkpt lat="47.19357" lon="-1.80798">
        <ele>59</ele>
        <time>2021-05-01T09:29:39.000Z</time>
      </trkpt>
      <trkpt lat="47.19361" lon="-1.80819">
        <ele>58</ele>
        <time>2021-05-01T09:29:41.000Z</time>
      </trkpt>
      <trkpt lat="47.19365" lon="-1.80838">
        <ele>58</ele>
        <time>2021-05-01T09:29:43.000Z</time>
      </trkpt>
      <trkpt lat="47.19368" lon="-1.8086">
        <ele>58</ele>
        <time>2021-05-01T09:29:45.000Z</time>
      </trkpt>
      <trkpt lat="47.19371" lon="-1.80881">
        <ele>57</ele>
        <time>2021-05-01T09:29:47.000Z</time>
      </trkpt>
      <trkpt lat="47.19373" lon="-1.80902">
        <ele>57</ele>
        <time>2021-05-01T09:29:49.000Z</time>
      </trkpt>
      <trkpt lat="47.19376" lon="-1.80923">
        <ele>57</ele>
        <time>2021-05-01T09:29:51.000Z</time>
      </trkpt>
      <trkpt lat="47.19379" lon="-1.80945">
        <ele>57</ele>
        <time>2021-05-01T09:29:53.000Z</time>
      </trkpt>
      <trkpt lat="47.19381" lon="-1.80965">
        <ele>57</ele>
        <time>2021-05-01T09:29:55.000Z</time>
      </trkpt>
      <trkpt lat="47.19383" lon="-1.80986">
        <ele>56</ele>
        <time>2021-05-01T09:29:57.000Z</time>
      </trkpt>
      <trkpt lat="47.19385" lon="-1.81007">
        <ele>56</ele>
        <time>2021-05-01T09:29:59.000Z</time>
      </trkpt>
      <trkpt lat="47.19387" lon="-1.81026">
        <ele>55</ele>
        <time>2021-05-01T09:30:01.000Z</time>
      </trkpt>
      <trkpt lat="47.1939" lon="-1.81046">
        <ele>55</ele>
        <time>2021-05-01T09:30:03.000Z</time>
      </trkpt>
      <trkpt lat="47.19391" lon="-1.81064">
        <ele>55</ele>
        <time>2021-05-01T09:30:05.000Z</time>
      </trkpt>
      <trkpt lat="47.19394" lon="-1.81081">
        <ele>55</ele>
        <time>2021-05-01T09:30:07.000Z</time>
      </trkpt>
      <trkpt lat="47.19396" lon="-1.81098">
        <ele>55</ele>
        <time>2021-05-01T09:30:09.000Z</time>
      </trkpt>
      <trkpt lat="47.19401" lon="-1.81112">
        <ele>55</ele>
        <time>2021-05-01T09:30:11.000Z</time>
      </trkpt>
      <trkpt lat="47.19411" lon="-1.81122">
        <ele>55</ele>
        <time>2021-05-01T09:30:13.000Z</time>
      </trkpt>
      <trkpt lat="47.19426" lon="-1.81123">
        <ele>54</ele>
        <time>2021-05-01T09:30:15.000Z</time>
      </trkpt>
      <trkpt lat="47.1944" lon="-1.81123">
        <ele>54</ele>
        <time>2021-05-01T09:30:17.000Z</time>
      </trkpt>
      <trkpt lat="47.19455" lon="-1.81123">
        <ele>54</ele>
        <time>2021-05-01T09:30:19.000Z</time>
      </trkpt>
      <trkpt lat="47.1947" lon="-1.81123">
        <ele>54</ele>
        <time>2021-05-01T09:30:21.000Z</time>
      </trkpt>
      <trkpt lat="47.19484" lon="-1.81123">
        <ele>54</ele>
        <time>2021-05-01T09:30:23.000Z</time>
      </trkpt>
      <trkpt lat="47.19499" lon="-1.81123">
        <ele>54</ele>
        <time>2021-05-01T09:30:25.000Z</time>
      </trkpt>
      <trkpt lat="47.19513" lon="-1.81123">
        <ele>54</ele>
        <time>2021-05-01T09:30:27.000Z</time>
      </trkpt>
      <trkpt lat="47.19527" lon="-1.81122">
        <ele>54</ele>
        <time>2021-05-01T09:30:29.000Z</time>
      </trkpt>
      <trkpt lat="47.19542" lon="-1.81122">
        <ele>54</ele>
        <time>2021-05-01T09:30:31.000Z</time>
      </trkpt>
      <trkpt lat="47.19557" lon="-1.81121">
        <ele>54</ele>
        <time>2021-05-01T09:30:33.000Z</time>
      </trkpt>
      <trkpt lat="47.19571" lon="-1.8112">
        <ele>54</ele>
        <time>2021-05-01T09:30:35.000Z</time>
      </trkpt>
      <trkpt lat="47.19585" lon="-1.8112">
        <ele>54</ele>
        <time>2021-05-01T09:30:37.000Z</time>
      </trkpt>
      <trkpt lat="47.19599" lon="-1.8112">
        <ele>53</ele>
        <time>2021-05-01T09:30:39.000Z</time>
      </trkpt>
      <trkpt lat="47.19614" lon="-1.81119">
        <ele>53</ele>
        <time>2021-05-01T09:30:41.000Z</time>
      </trkpt>
      <trkpt lat="47.19628" lon="-1.81119">
        <ele>54</ele>
        <time>2021-05-01T09:30:43.000Z</time>
      </trkpt>
      <trkpt lat="47.19642" lon="-1.81119">
        <ele>53</ele>
        <time>2021-05-01T09:30:45.000Z</time>
      </trkpt>
      <trkpt lat="47.19656" lon="-1.81119">
        <ele>52</ele>
        <time>2021-05-01T09:30:47.000Z</time>
      </trkpt>
      <trkpt lat="47.1967" lon="-1.81119">
        <ele>52</ele>
        <time>2021-05-01T09:30:49.000Z</time>
      </trkpt>
      <trkpt lat="47.19682" lon="-1.81119">
        <ele>52</ele>
        <time>2021-05-01T09:30:51.000Z</time>
      </trkpt>
      <trkpt lat="47.19692" lon="-1.81119">
        <ele>52</ele>
        <time>2021-05-01T09:30:53.000Z</time>
      </trkpt>
      <trkpt lat="47.19702" lon="-1.81122">
        <ele>52</ele>
        <time>2021-05-01T09:30:56.000Z</time>
      </trkpt>
      <trkpt lat="47.19705" lon="-1.81137">
        <ele>52</ele>
        <time>2021-05-01T09:30:58.000Z</time>
      </trkpt>
      <trkpt lat="47.19708" lon="-1.81155">
        <ele>51</ele>
        <time>2021-05-01T09:31:00.000Z</time>
      </trkpt>
      <trkpt lat="47.1971" lon="-1.81172">
        <ele>51</ele>
        <time>2021-05-01T09:31:02.000Z</time>
      </trkpt>
      <trkpt lat="47.19714" lon="-1.81189">
        <ele>51</ele>
        <time>2021-05-01T09:31:04.000Z</time>
      </trkpt>
      <trkpt lat="47.1972" lon="-1.81205">
        <ele>51</ele>
        <time>2021-05-01T09:31:06.000Z</time>
      </trkpt>
      <trkpt lat="47.19727" lon="-1.8122">
        <ele>51</ele>
        <time>2021-05-01T09:31:08.000Z</time>
      </trkpt>
      <trkpt lat="47.19735" lon="-1.81233">
        <ele>52</ele>
        <time>2021-05-01T09:31:10.000Z</time>
      </trkpt>
      <trkpt lat="47.19744" lon="-1.81247">
        <ele>52</ele>
        <time>2021-05-01T09:31:12.000Z</time>
      </trkpt>
      <trkpt lat="47.19752" lon="-1.8126">
        <ele>52</ele>
        <time>2021-05-01T09:31:14.000Z</time>
      </trkpt>
      <trkpt lat="47.19761" lon="-1.81274">
        <ele>51</ele>
        <time>2021-05-01T09:31:16.000Z</time>
      </trkpt>
      <trkpt lat="47.19767" lon="-1.81289">
        <ele>51</ele>
        <time>2021-05-01T09:31:18.000Z</time>
      </trkpt>
      <trkpt lat="47.19773" lon="-1.81304">
        <ele>51</ele>
        <time>2021-05-01T09:31:20.000Z</time>
      </trkpt>
      <trkpt lat="47.19779" lon="-1.8132">
        <ele>52</ele>
        <time>2021-05-01T09:31:22.000Z</time>
      </trkpt>
      <trkpt lat="47.19783" lon="-1.81335">
        <ele>52</ele>
        <time>2021-05-01T09:31:24.000Z</time>
      </trkpt>
      <trkpt lat="47.19787" lon="-1.81351">
        <ele>53</ele>
        <time>2021-05-01T09:31:26.000Z</time>
      </trkpt>
      <trkpt lat="47.19792" lon="-1.81366">
        <ele>53</ele>
        <time>2021-05-01T09:31:28.000Z</time>
      </trkpt>
      <trkpt lat="47.19796" lon="-1.81381">
        <ele>54</ele>
        <time>2021-05-01T09:31:30.000Z</time>
      </trkpt>
      <trkpt lat="47.19801" lon="-1.81396">
        <ele>54</ele>
        <time>2021-05-01T09:31:32.000Z</time>
      </trkpt>
      <trkpt lat="47.19806" lon="-1.81411">
        <ele>54</ele>
        <time>2021-05-01T09:31:34.000Z</time>
      </trkpt>
      <trkpt lat="47.1981" lon="-1.81426">
        <ele>54</ele>
        <time>2021-05-01T09:31:36.000Z</time>
      </trkpt>
      <trkpt lat="47.19823" lon="-1.81464">
        <ele>55</ele>
        <time>2021-05-01T09:31:41.000Z</time>
      </trkpt>
      <trkpt lat="47.19828" lon="-1.81478">
        <ele>56</ele>
        <time>2021-05-01T09:31:43.000Z</time>
      </trkpt>
      <trkpt lat="47.19834" lon="-1.81492">
        <ele>56</ele>
        <time>2021-05-01T09:31:45.000Z</time>
      </trkpt>
      <trkpt lat="47.19839" lon="-1.81507">
        <ele>57</ele>
        <time>2021-05-01T09:31:47.000Z</time>
      </trkpt>
      <trkpt lat="47.19845" lon="-1.81521">
        <ele>57</ele>
        <time>2021-05-01T09:31:49.000Z</time>
      </trkpt>
      <trkpt lat="47.1985" lon="-1.81536">
        <ele>57</ele>
        <time>2021-05-01T09:31:51.000Z</time>
      </trkpt>
      <trkpt lat="47.19855" lon="-1.81551">
        <ele>57</ele>
        <time>2021-05-01T09:31:53.000Z</time>
      </trkpt>
      <trkpt lat="47.1986" lon="-1.81567">
        <ele>57</ele>
        <time>2021-05-01T09:31:55.000Z</time>
      </trkpt>
      <trkpt lat="47.19865" lon="-1.81582">
        <ele>57</ele>
        <time>2021-05-01T09:31:57.000Z</time>
      </trkpt>
      <trkpt lat="47.1987" lon="-1.81606">
        <ele>58</ele>
        <time>2021-05-01T09:32:00.000Z</time>
      </trkpt>
      <trkpt lat="47.19873" lon="-1.81622">
        <ele>58</ele>
        <time>2021-05-01T09:32:02.000Z</time>
      </trkpt>
      <trkpt lat="47.19876" lon="-1.81639">
        <ele>58</ele>
        <time>2021-05-01T09:32:04.000Z</time>
      </trkpt>
      <trkpt lat="47.19879" lon="-1.81664">
        <ele>58</ele>
        <time>2021-05-01T09:32:07.000Z</time>
      </trkpt>
      <trkpt lat="47.19882" lon="-1.81681">
        <ele>59</ele>
        <time>2021-05-01T09:32:09.000Z</time>
      </trkpt>
      <trkpt lat="47.19884" lon="-1.81697">
        <ele>58</ele>
        <time>2021-05-01T09:32:11.000Z</time>
      </trkpt>
      <trkpt lat="47.19887" lon="-1.81714">
        <ele>58</ele>
        <time>2021-05-01T09:32:13.000Z</time>
      </trkpt>
      <trkpt lat="47.1989" lon="-1.81731">
        <ele>58</ele>
        <time>2021-05-01T09:32:15.000Z</time>
      </trkpt>
      <trkpt lat="47.19894" lon="-1.81748">
        <ele>59</ele>
        <time>2021-05-01T09:32:17.000Z</time>
      </trkpt>
      <trkpt lat="47.19899" lon="-1.81772">
        <ele>59</ele>
        <time>2021-05-01T09:32:20.000Z</time>
      </trkpt>
      <trkpt lat="47.19902" lon="-1.81788">
        <ele>60</ele>
        <time>2021-05-01T09:32:22.000Z</time>
      </trkpt>
      <trkpt lat="47.19907" lon="-1.81812">
        <ele>60</ele>
        <time>2021-05-01T09:32:25.000Z</time>
      </trkpt>
      <trkpt lat="47.19911" lon="-1.81828">
        <ele>61</ele>
        <time>2021-05-01T09:32:27.000Z</time>
      </trkpt>
      <trkpt lat="47.19914" lon="-1.81845">
        <ele>61</ele>
        <time>2021-05-01T09:32:29.000Z</time>
      </trkpt>
      <trkpt lat="47.19917" lon="-1.81862">
        <ele>61</ele>
        <time>2021-05-01T09:32:31.000Z</time>
      </trkpt>
      <trkpt lat="47.1992" lon="-1.81879">
        <ele>61</ele>
        <time>2021-05-01T09:32:33.000Z</time>
      </trkpt>
      <trkpt lat="47.19922" lon="-1.81895">
        <ele>61</ele>
        <time>2021-05-01T09:32:35.000Z</time>
      </trkpt>
      <trkpt lat="47.19925" lon="-1.81911">
        <ele>61</ele>
        <time>2021-05-01T09:32:37.000Z</time>
      </trkpt>
      <trkpt lat="47.19928" lon="-1.81928">
        <ele>62</ele>
        <time>2021-05-01T09:32:39.000Z</time>
      </trkpt>
      <trkpt lat="47.19931" lon="-1.81944">
        <ele>62</ele>
        <time>2021-05-01T09:32:41.000Z</time>
      </trkpt>
      <trkpt lat="47.19934" lon="-1.81961">
        <ele>62</ele>
        <time>2021-05-01T09:32:43.000Z</time>
      </trkpt>
      <trkpt lat="47.19938" lon="-1.81978">
        <ele>62</ele>
        <time>2021-05-01T09:32:45.000Z</time>
      </trkpt>
      <trkpt lat="47.1994" lon="-1.81995">
        <ele>62</ele>
        <time>2021-05-01T09:32:47.000Z</time>
      </trkpt>
      <trkpt lat="47.19943" lon="-1.82012">
        <ele>62</ele>
        <time>2021-05-01T09:32:49.000Z</time>
      </trkpt>
      <trkpt lat="47.19946" lon="-1.8203">
        <ele>63</ele>
        <time>2021-05-01T09:32:51.000Z</time>
      </trkpt>
      <trkpt lat="47.19949" lon="-1.82047">
        <ele>63</ele>
        <time>2021-05-01T09:32:53.000Z</time>
      </trkpt>
      <trkpt lat="47.19952" lon="-1.82065">
        <ele>63</ele>
        <time>2021-05-01T09:32:55.000Z</time>
      </trkpt>
      <trkpt lat="47.19955" lon="-1.82082">
        <ele>63</ele>
        <time>2021-05-01T09:32:57.000Z</time>
      </trkpt>
      <trkpt lat="47.19957" lon="-1.82099">
        <ele>63</ele>
        <time>2021-05-01T09:32:59.000Z</time>
      </trkpt>
      <trkpt lat="47.19958" lon="-1.82116">
        <ele>64</ele>
        <time>2021-05-01T09:33:01.000Z</time>
      </trkpt>
      <trkpt lat="47.19957" lon="-1.82134">
        <ele>64</ele>
        <time>2021-05-01T09:33:03.000Z</time>
      </trkpt>
      <trkpt lat="47.19953" lon="-1.8215">
        <ele>64</ele>
        <time>2021-05-01T09:33:05.000Z</time>
      </trkpt>
      <trkpt lat="47.19948" lon="-1.82166">
        <ele>64</ele>
        <time>2021-05-01T09:33:07.000Z</time>
      </trkpt>
      <trkpt lat="47.19942" lon="-1.82181">
        <ele>64</ele>
        <time>2021-05-01T09:33:09.000Z</time>
      </trkpt>
      <trkpt lat="47.19933" lon="-1.82203">
        <ele>65</ele>
        <time>2021-05-01T09:33:12.000Z</time>
      </trkpt>
      <trkpt lat="47.19926" lon="-1.82218">
        <ele>65</ele>
        <time>2021-05-01T09:33:14.000Z</time>
      </trkpt>
      <trkpt lat="47.19919" lon="-1.82233">
        <ele>66</ele>
        <time>2021-05-01T09:33:16.000Z</time>
      </trkpt>
      <trkpt lat="47.19913" lon="-1.82248">
        <ele>65</ele>
        <time>2021-05-01T09:33:18.000Z</time>
      </trkpt>
      <trkpt lat="47.19904" lon="-1.82269">
        <ele>66</ele>
        <time>2021-05-01T09:33:21.000Z</time>
      </trkpt>
      <trkpt lat="47.19898" lon="-1.82285">
        <ele>66</ele>
        <time>2021-05-01T09:33:23.000Z</time>
      </trkpt>
      <trkpt lat="47.19892" lon="-1.823">
        <ele>66</ele>
        <time>2021-05-01T09:33:25.000Z</time>
      </trkpt>
      <trkpt lat="47.19885" lon="-1.82315">
        <ele>66</ele>
        <time>2021-05-01T09:33:27.000Z</time>
      </trkpt>
      <trkpt lat="47.19879" lon="-1.8233">
        <ele>67</ele>
        <time>2021-05-01T09:33:29.000Z</time>
      </trkpt>
      <trkpt lat="47.19873" lon="-1.82346">
        <ele>67</ele>
        <time>2021-05-01T09:33:31.000Z</time>
      </trkpt>
      <trkpt lat="47.19867" lon="-1.82362">
        <ele>67</ele>
        <time>2021-05-01T09:33:33.000Z</time>
      </trkpt>
      <trkpt lat="47.19861" lon="-1.82378">
        <ele>68</ele>
        <time>2021-05-01T09:33:35.000Z</time>
      </trkpt>
      <trkpt lat="47.19856" lon="-1.82394">
        <ele>67</ele>
        <time>2021-05-01T09:33:37.000Z</time>
      </trkpt>
      <trkpt lat="47.19849" lon="-1.82411">
        <ele>67</ele>
        <time>2021-05-01T09:33:39.000Z</time>
      </trkpt>
      <trkpt lat="47.19844" lon="-1.82426">
        <ele>68</ele>
        <time>2021-05-01T09:33:41.000Z</time>
      </trkpt>
      <trkpt lat="47.19838" lon="-1.82441">
        <ele>68</ele>
        <time>2021-05-01T09:33:43.000Z</time>
      </trkpt>
      <trkpt lat="47.19827" lon="-1.82463">
        <ele>68</ele>
        <time>2021-05-01T09:33:46.000Z</time>
      </trkpt>
      <trkpt lat="47.19815" lon="-1.82483">
        <ele>67</ele>
        <time>2021-05-01T09:33:49.000Z</time>
      </trkpt>
      <trkpt lat="47.19807" lon="-1.82497">
        <ele>67</ele>
        <time>2021-05-01T09:33:51.000Z</time>
      </trkpt>
      <trkpt lat="47.19798" lon="-1.8251">
        <ele>67</ele>
        <time>2021-05-01T09:33:53.000Z</time>
      </trkpt>
      <trkpt lat="47.1979" lon="-1.82523">
        <ele>67</ele>
        <time>2021-05-01T09:33:55.000Z</time>
      </trkpt>
      <trkpt lat="47.19781" lon="-1.82535">
        <ele>67</ele>
        <time>2021-05-01T09:33:57.000Z</time>
      </trkpt>
      <trkpt lat="47.19773" lon="-1.8255">
        <ele>67</ele>
        <time>2021-05-01T09:33:59.000Z</time>
      </trkpt>
      <trkpt lat="47.19765" lon="-1.82564">
        <ele>67</ele>
        <time>2021-05-01T09:34:01.000Z</time>
      </trkpt>
      <trkpt lat="47.19755" lon="-1.82578">
        <ele>67</ele>
        <time>2021-05-01T09:34:03.000Z</time>
      </trkpt>
      <trkpt lat="47.19746" lon="-1.82593">
        <ele>67</ele>
        <time>2021-05-01T09:34:05.000Z</time>
      </trkpt>
      <trkpt lat="47.19738" lon="-1.82608">
        <ele>66</ele>
        <time>2021-05-01T09:34:07.000Z</time>
      </trkpt>
      <trkpt lat="47.19731" lon="-1.82625">
        <ele>66</ele>
        <time>2021-05-01T09:34:09.000Z</time>
      </trkpt>
      <trkpt lat="47.19725" lon="-1.82643">
        <ele>66</ele>
        <time>2021-05-01T09:34:11.000Z</time>
      </trkpt>
      <trkpt lat="47.1972" lon="-1.82663">
        <ele>66</ele>
        <time>2021-05-01T09:34:13.000Z</time>
      </trkpt>
      <trkpt lat="47.19715" lon="-1.82681">
        <ele>66</ele>
        <time>2021-05-01T09:34:15.000Z</time>
      </trkpt>
      <trkpt lat="47.1971" lon="-1.827">
        <ele>66</ele>
        <time>2021-05-01T09:34:17.000Z</time>
      </trkpt>
      <trkpt lat="47.19706" lon="-1.82718">
        <ele>66</ele>
        <time>2021-05-01T09:34:19.000Z</time>
      </trkpt>
      <trkpt lat="47.19702" lon="-1.82736">
        <ele>65</ele>
        <time>2021-05-01T09:34:21.000Z</time>
      </trkpt>
      <trkpt lat="47.19698" lon="-1.82755">
        <ele>65</ele>
        <time>2021-05-01T09:34:23.000Z</time>
      </trkpt>
      <trkpt lat="47.19694" lon="-1.82775">
        <ele>65</ele>
        <time>2021-05-01T09:34:25.000Z</time>
      </trkpt>
      <trkpt lat="47.19688" lon="-1.82804">
        <ele>65</ele>
        <time>2021-05-01T09:34:28.000Z</time>
      </trkpt>
      <trkpt lat="47.19685" lon="-1.82823">
        <ele>65</ele>
        <time>2021-05-01T09:34:30.000Z</time>
      </trkpt>
      <trkpt lat="47.19681" lon="-1.82842">
        <ele>65</ele>
        <time>2021-05-01T09:34:32.000Z</time>
      </trkpt>
      <trkpt lat="47.19677" lon="-1.8286">
        <ele>65</ele>
        <time>2021-05-01T09:34:34.000Z</time>
      </trkpt>
      <trkpt lat="47.19674" lon="-1.82879">
        <ele>65</ele>
        <time>2021-05-01T09:34:36.000Z</time>
      </trkpt>
      <trkpt lat="47.1967" lon="-1.82898">
        <ele>65</ele>
        <time>2021-05-01T09:34:38.000Z</time>
      </trkpt>
      <trkpt lat="47.19667" lon="-1.82918">
        <ele>65</ele>
        <time>2021-05-01T09:34:40.000Z</time>
      </trkpt>
      <trkpt lat="47.19663" lon="-1.82936">
        <ele>65</ele>
        <time>2021-05-01T09:34:42.000Z</time>
      </trkpt>
      <trkpt lat="47.1966" lon="-1.82956">
        <ele>66</ele>
        <time>2021-05-01T09:34:44.000Z</time>
      </trkpt>
      <trkpt lat="47.19656" lon="-1.82974">
        <ele>66</ele>
        <time>2021-05-01T09:34:46.000Z</time>
      </trkpt>
      <trkpt lat="47.19652" lon="-1.82994">
        <ele>66</ele>
        <time>2021-05-01T09:34:48.000Z</time>
      </trkpt>
      <trkpt lat="47.19648" lon="-1.83013">
        <ele>65</ele>
        <time>2021-05-01T09:34:50.000Z</time>
      </trkpt>
      <trkpt lat="47.19645" lon="-1.83032">
        <ele>65</ele>
        <time>2021-05-01T09:34:52.000Z</time>
      </trkpt>
      <trkpt lat="47.19642" lon="-1.83051">
        <ele>65</ele>
        <time>2021-05-01T09:34:54.000Z</time>
      </trkpt>
      <trkpt lat="47.19638" lon="-1.8307">
        <ele>65</ele>
        <time>2021-05-01T09:34:56.000Z</time>
      </trkpt>
      <trkpt lat="47.19634" lon="-1.83088">
        <ele>64</ele>
        <time>2021-05-01T09:34:58.000Z</time>
      </trkpt>
      <trkpt lat="47.19631" lon="-1.83107">
        <ele>64</ele>
        <time>2021-05-01T09:35:00.000Z</time>
      </trkpt>
      <trkpt lat="47.19628" lon="-1.83126">
        <ele>64</ele>
        <time>2021-05-01T09:35:02.000Z</time>
      </trkpt>
      <trkpt lat="47.19625" lon="-1.83146">
        <ele>64</ele>
        <time>2021-05-01T09:35:04.000Z</time>
      </trkpt>
      <trkpt lat="47.19623" lon="-1.83166">
        <ele>64</ele>
        <time>2021-05-01T09:35:06.000Z</time>
      </trkpt>
      <trkpt lat="47.19622" lon="-1.83186">
        <ele>64</ele>
        <time>2021-05-01T09:35:08.000Z</time>
      </trkpt>
      <trkpt lat="47.19622" lon="-1.83205">
        <ele>64</ele>
        <time>2021-05-01T09:35:10.000Z</time>
      </trkpt>
      <trkpt lat="47.19622" lon="-1.83224">
        <ele>64</ele>
        <time>2021-05-01T09:35:12.000Z</time>
      </trkpt>
      <trkpt lat="47.19623" lon="-1.83244">
        <ele>64</ele>
        <time>2021-05-01T09:35:14.000Z</time>
      </trkpt>
      <trkpt lat="47.19624" lon="-1.83264">
        <ele>64</ele>
        <time>2021-05-01T09:35:16.000Z</time>
      </trkpt>
      <trkpt lat="47.19625" lon="-1.83284">
        <ele>64</ele>
        <time>2021-05-01T09:35:18.000Z</time>
      </trkpt>
      <trkpt lat="47.19626" lon="-1.83303">
        <ele>64</ele>
        <time>2021-05-01T09:35:20.000Z</time>
      </trkpt>
      <trkpt lat="47.19627" lon="-1.83323">
        <ele>64</ele>
        <time>2021-05-01T09:35:22.000Z</time>
      </trkpt>
      <trkpt lat="47.19628" lon="-1.83343">
        <ele>64</ele>
        <time>2021-05-01T09:35:24.000Z</time>
      </trkpt>
      <trkpt lat="47.19629" lon="-1.83363">
        <ele>64</ele>
        <time>2021-05-01T09:35:26.000Z</time>
      </trkpt>
      <trkpt lat="47.1963" lon="-1.83382">
        <ele>64</ele>
        <time>2021-05-01T09:35:28.000Z</time>
      </trkpt>
      <trkpt lat="47.1963" lon="-1.83401">
        <ele>63</ele>
        <time>2021-05-01T09:35:30.000Z</time>
      </trkpt>
      <trkpt lat="47.19631" lon="-1.8342">
        <ele>63</ele>
        <time>2021-05-01T09:35:32.000Z</time>
      </trkpt>
      <trkpt lat="47.19632" lon="-1.8344">
        <ele>63</ele>
        <time>2021-05-01T09:35:34.000Z</time>
      </trkpt>
      <trkpt lat="47.19633" lon="-1.83459">
        <ele>63</ele>
        <time>2021-05-01T09:35:36.000Z</time>
      </trkpt>
      <trkpt lat="47.19634" lon="-1.83479">
        <ele>63</ele>
        <time>2021-05-01T09:35:38.000Z</time>
      </trkpt>
      <trkpt lat="47.19635" lon="-1.83498">
        <ele>64</ele>
        <time>2021-05-01T09:35:40.000Z</time>
      </trkpt>
      <trkpt lat="47.19635" lon="-1.83517">
        <ele>64</ele>
        <time>2021-05-01T09:35:42.000Z</time>
      </trkpt>
      <trkpt lat="47.19635" lon="-1.83535">
        <ele>64</ele>
        <time>2021-05-01T09:35:44.000Z</time>
      </trkpt>
      <trkpt lat="47.19634" lon="-1.83554">
        <ele>63</ele>
        <time>2021-05-01T09:35:46.000Z</time>
      </trkpt>
      <trkpt lat="47.19632" lon="-1.83573">
        <ele>64</ele>
        <time>2021-05-01T09:35:48.000Z</time>
      </trkpt>
      <trkpt lat="47.19628" lon="-1.83592">
        <ele>64</ele>
        <time>2021-05-01T09:35:50.000Z</time>
      </trkpt>
      <trkpt lat="47.19623" lon="-1.83611">
        <ele>63</ele>
        <time>2021-05-01T09:35:52.000Z</time>
      </trkpt>
      <trkpt lat="47.19619" lon="-1.83631">
        <ele>63</ele>
        <time>2021-05-01T09:35:54.000Z</time>
      </trkpt>
      <trkpt lat="47.19615" lon="-1.83651">
        <ele>63</ele>
        <time>2021-05-01T09:35:56.000Z</time>
      </trkpt>
      <trkpt lat="47.19611" lon="-1.8367">
        <ele>62</ele>
        <time>2021-05-01T09:35:58.000Z</time>
      </trkpt>
      <trkpt lat="47.1961" lon="-1.83691">
        <ele>62</ele>
        <time>2021-05-01T09:36:00.000Z</time>
      </trkpt>
      <trkpt lat="47.19611" lon="-1.83712">
        <ele>62</ele>
        <time>2021-05-01T09:36:02.000Z</time>
      </trkpt>
      <trkpt lat="47.19613" lon="-1.83731">
        <ele>62</ele>
        <time>2021-05-01T09:36:04.000Z</time>
      </trkpt>
      <trkpt lat="47.19617" lon="-1.83751">
        <ele>62</ele>
        <time>2021-05-01T09:36:06.000Z</time>
      </trkpt>
      <trkpt lat="47.1962" lon="-1.8377">
        <ele>62</ele>
        <time>2021-05-01T09:36:08.000Z</time>
      </trkpt>
      <trkpt lat="47.19624" lon="-1.83789">
        <ele>62</ele>
        <time>2021-05-01T09:36:10.000Z</time>
      </trkpt>
      <trkpt lat="47.19628" lon="-1.83808">
        <ele>62</ele>
        <time>2021-05-01T09:36:12.000Z</time>
      </trkpt>
      <trkpt lat="47.19632" lon="-1.83828">
        <ele>62</ele>
        <time>2021-05-01T09:36:14.000Z</time>
      </trkpt>
      <trkpt lat="47.19635" lon="-1.83847">
        <ele>62</ele>
        <time>2021-05-01T09:36:16.000Z</time>
      </trkpt>
      <trkpt lat="47.19639" lon="-1.83866">
        <ele>62</ele>
        <time>2021-05-01T09:36:18.000Z</time>
      </trkpt>
      <trkpt lat="47.19643" lon="-1.83885">
        <ele>62</ele>
        <time>2021-05-01T09:36:20.000Z</time>
      </trkpt>
      <trkpt lat="47.19647" lon="-1.83905">
        <ele>62</ele>
        <time>2021-05-01T09:36:22.000Z</time>
      </trkpt>
      <trkpt lat="47.1965" lon="-1.83925">
        <ele>62</ele>
        <time>2021-05-01T09:36:24.000Z</time>
      </trkpt>
      <trkpt lat="47.19653" lon="-1.83945">
        <ele>62</ele>
        <time>2021-05-01T09:36:26.000Z</time>
      </trkpt>
      <trkpt lat="47.19657" lon="-1.83964">
        <ele>63</ele>
        <time>2021-05-01T09:36:28.000Z</time>
      </trkpt>
      <trkpt lat="47.19659" lon="-1.83983">
        <ele>62</ele>
        <time>2021-05-01T09:36:30.000Z</time>
      </trkpt>
      <trkpt lat="47.19662" lon="-1.84001">
        <ele>63</ele>
        <time>2021-05-01T09:36:32.000Z</time>
      </trkpt>
      <trkpt lat="47.19664" lon="-1.84021">
        <ele>62</ele>
        <time>2021-05-01T09:36:34.000Z</time>
      </trkpt>
      <trkpt lat="47.19664" lon="-1.8404">
        <ele>63</ele>
        <time>2021-05-01T09:36:36.000Z</time>
      </trkpt>
      <trkpt lat="47.19662" lon="-1.8406">
        <ele>63</ele>
        <time>2021-05-01T09:36:38.000Z</time>
      </trkpt>
      <trkpt lat="47.19658" lon="-1.84079">
        <ele>63</ele>
        <time>2021-05-01T09:36:40.000Z</time>
      </trkpt>
      <trkpt lat="47.19651" lon="-1.84098">
        <ele>63</ele>
        <time>2021-05-01T09:36:42.000Z</time>
      </trkpt>
      <trkpt lat="47.19644" lon="-1.84114">
        <ele>63</ele>
        <time>2021-05-01T09:36:44.000Z</time>
      </trkpt>
      <trkpt lat="47.19637" lon="-1.8413">
        <ele>63</ele>
        <time>2021-05-01T09:36:46.000Z</time>
      </trkpt>
      <trkpt lat="47.19628" lon="-1.84147">
        <ele>63</ele>
        <time>2021-05-01T09:36:48.000Z</time>
      </trkpt>
      <trkpt lat="47.19619" lon="-1.84163">
        <ele>63</ele>
        <time>2021-05-01T09:36:50.000Z</time>
      </trkpt>
      <trkpt lat="47.19611" lon="-1.84178">
        <ele>63</ele>
        <time>2021-05-01T09:36:52.000Z</time>
      </trkpt>
      <trkpt lat="47.19602" lon="-1.84193">
        <ele>63</ele>
        <time>2021-05-01T09:36:54.000Z</time>
      </trkpt>
      <trkpt lat="47.19594" lon="-1.84209">
        <ele>63</ele>
        <time>2021-05-01T09:36:56.000Z</time>
      </trkpt>
      <trkpt lat="47.19585" lon="-1.84224">
        <ele>62</ele>
        <time>2021-05-01T09:36:58.000Z</time>
      </trkpt>
      <trkpt lat="47.19576" lon="-1.8424">
        <ele>62</ele>
        <time>2021-05-01T09:37:00.000Z</time>
      </trkpt>
      <trkpt lat="47.19567" lon="-1.84256">
        <ele>62</ele>
        <time>2021-05-01T09:37:02.000Z</time>
      </trkpt>
      <trkpt lat="47.19559" lon="-1.84272">
        <ele>62</ele>
        <time>2021-05-01T09:37:04.000Z</time>
      </trkpt>
      <trkpt lat="47.1955" lon="-1.84287">
        <ele>62</ele>
        <time>2021-05-01T09:37:06.000Z</time>
      </trkpt>
      <trkpt lat="47.19541" lon="-1.84304">
        <ele>62</ele>
        <time>2021-05-01T09:37:08.000Z</time>
      </trkpt>
      <trkpt lat="47.19531" lon="-1.8432">
        <ele>63</ele>
        <time>2021-05-01T09:37:10.000Z</time>
      </trkpt>
      <trkpt lat="47.19522" lon="-1.84336">
        <ele>63</ele>
        <time>2021-05-01T09:37:12.000Z</time>
      </trkpt>
      <trkpt lat="47.19512" lon="-1.84352">
        <ele>63</ele>
        <time>2021-05-01T09:37:14.000Z</time>
      </trkpt>
      <trkpt lat="47.19503" lon="-1.84369">
        <ele>63</ele>
        <time>2021-05-01T09:37:16.000Z</time>
      </trkpt>
      <trkpt lat="47.19494" lon="-1.84385">
        <ele>63</ele>
        <time>2021-05-01T09:37:18.000Z</time>
      </trkpt>
      <trkpt lat="47.19485" lon="-1.84402">
        <ele>62</ele>
        <time>2021-05-01T09:37:20.000Z</time>
      </trkpt>
      <trkpt lat="47.19476" lon="-1.84418">
        <ele>62</ele>
        <time>2021-05-01T09:37:22.000Z</time>
      </trkpt>
      <trkpt lat="47.19467" lon="-1.84434">
        <ele>62</ele>
        <time>2021-05-01T09:37:24.000Z</time>
      </trkpt>
      <trkpt lat="47.19458" lon="-1.84451">
        <ele>62</ele>
        <time>2021-05-01T09:37:26.000Z</time>
      </trkpt>
      <trkpt lat="47.19449" lon="-1.84466">
        <ele>62</ele>
        <time>2021-05-01T09:37:28.000Z</time>
      </trkpt>
      <trkpt lat="47.1944" lon="-1.84482">
        <ele>62</ele>
        <time>2021-05-01T09:37:30.000Z</time>
      </trkpt>
      <trkpt lat="47.19431" lon="-1.84498">
        <ele>62</ele>
        <time>2021-05-01T09:37:32.000Z</time>
      </trkpt>
      <trkpt lat="47.19421" lon="-1.84514">
        <ele>62</ele>
        <time>2021-05-01T09:37:34.000Z</time>
      </trkpt>
      <trkpt lat="47.19412" lon="-1.84529">
        <ele>61</ele>
        <time>2021-05-01T09:37:36.000Z</time>
      </trkpt>
      <trkpt lat="47.19402" lon="-1.84543">
        <ele>61</ele>
        <time>2021-05-01T09:37:38.000Z</time>
      </trkpt>
      <trkpt lat="47.19392" lon="-1.84556">
        <ele>61</ele>
        <time>2021-05-01T09:37:40.000Z</time>
      </trkpt>
      <trkpt lat="47.19382" lon="-1.84566">
        <ele>62</ele>
        <time>2021-05-01T09:37:42.000Z</time>
      </trkpt>
      <trkpt lat="47.1937" lon="-1.84573">
        <ele>62</ele>
        <time>2021-05-01T09:37:44.000Z</time>
      </trkpt>
      <trkpt lat="47.19355" lon="-1.84574">
        <ele>62</ele>
        <time>2021-05-01T09:37:46.000Z</time>
      </trkpt>
      <trkpt lat="47.19342" lon="-1.84583">
        <ele>62</ele>
        <time>2021-05-01T09:37:48.000Z</time>
      </trkpt>
      <trkpt lat="47.19334" lon="-1.84603">
        <ele>61</ele>
        <time>2021-05-01T09:37:50.000Z</time>
      </trkpt>
      <trkpt lat="47.19332" lon="-1.84626">
        <ele>61</ele>
        <time>2021-05-01T09:37:52.000Z</time>
      </trkpt>
      <trkpt lat="47.19331" lon="-1.84649">
        <ele>60</ele>
        <time>2021-05-01T09:37:54.000Z</time>
      </trkpt>
      <trkpt lat="47.19331" lon="-1.84671">
        <ele>60</ele>
        <time>2021-05-01T09:37:56.000Z</time>
      </trkpt>
      <trkpt lat="47.19331" lon="-1.84693">
        <ele>59</ele>
        <time>2021-05-01T09:37:58.000Z</time>
      </trkpt>
      <trkpt lat="47.19331" lon="-1.84715">
        <ele>59</ele>
        <time>2021-05-01T09:38:00.000Z</time>
      </trkpt>
      <trkpt lat="47.1933" lon="-1.84736">
        <ele>59</ele>
        <time>2021-05-01T09:38:02.000Z</time>
      </trkpt>
      <trkpt lat="47.19328" lon="-1.84758">
        <ele>59</ele>
        <time>2021-05-01T09:38:04.000Z</time>
      </trkpt>
      <trkpt lat="47.19327" lon="-1.84779">
        <ele>59</ele>
        <time>2021-05-01T09:38:06.000Z</time>
      </trkpt>
      <trkpt lat="47.19326" lon="-1.848">
        <ele>58</ele>
        <time>2021-05-01T09:38:08.000Z</time>
      </trkpt>
      <trkpt lat="47.19323" lon="-1.84821">
        <ele>58</ele>
        <time>2021-05-01T09:38:10.000Z</time>
      </trkpt>
      <trkpt lat="47.19319" lon="-1.84842">
        <ele>58</ele>
        <time>2021-05-01T09:38:12.000Z</time>
      </trkpt>
      <trkpt lat="47.19314" lon="-1.84862">
        <ele>58</ele>
        <time>2021-05-01T09:38:14.000Z</time>
      </trkpt>
      <trkpt lat="47.19309" lon="-1.84882">
        <ele>57</ele>
        <time>2021-05-01T09:38:16.000Z</time>
      </trkpt>
      <trkpt lat="47.19302" lon="-1.84902">
        <ele>57</ele>
        <time>2021-05-01T09:38:18.000Z</time>
      </trkpt>
      <trkpt lat="47.19296" lon="-1.84922">
        <ele>58</ele>
        <time>2021-05-01T09:38:20.000Z</time>
      </trkpt>
      <trkpt lat="47.19289" lon="-1.8494">
        <ele>57</ele>
        <time>2021-05-01T09:38:22.000Z</time>
      </trkpt>
      <trkpt lat="47.19283" lon="-1.84959">
        <ele>58</ele>
        <time>2021-05-01T09:38:24.000Z</time>
      </trkpt>
      <trkpt lat="47.19277" lon="-1.8498">
        <ele>58</ele>
        <time>2021-05-01T09:38:26.000Z</time>
      </trkpt>
      <trkpt lat="47.19272" lon="-1.85">
        <ele>57</ele>
        <time>2021-05-01T09:38:28.000Z</time>
      </trkpt>
      <trkpt lat="47.19268" lon="-1.8502">
        <ele>57</ele>
        <time>2021-05-01T09:38:30.000Z</time>
      </trkpt>
      <trkpt lat="47.19265" lon="-1.8504">
        <ele>57</ele>
        <time>2021-05-01T09:38:32.000Z</time>
      </trkpt>
      <trkpt lat="47.19263" lon="-1.8506">
        <ele>57</ele>
        <time>2021-05-01T09:38:34.000Z</time>
      </trkpt>
      <trkpt lat="47.19262" lon="-1.85081">
        <ele>57</ele>
        <time>2021-05-01T09:38:36.000Z</time>
      </trkpt>
      <trkpt lat="47.19265" lon="-1.85102">
        <ele>57</ele>
        <time>2021-05-01T09:38:38.000Z</time>
      </trkpt>
      <trkpt lat="47.19267" lon="-1.85123">
        <ele>56</ele>
        <time>2021-05-01T09:38:40.000Z</time>
      </trkpt>
      <trkpt lat="47.1927" lon="-1.85145">
        <ele>55</ele>
        <time>2021-05-01T09:38:42.000Z</time>
      </trkpt>
      <trkpt lat="47.19271" lon="-1.8517">
        <ele>54</ele>
        <time>2021-05-01T09:38:44.000Z</time>
      </trkpt>
      <trkpt lat="47.19272" lon="-1.85193">
        <ele>53</ele>
        <time>2021-05-01T09:38:46.000Z</time>
      </trkpt>
      <trkpt lat="47.19274" lon="-1.85212">
        <ele>53</ele>
        <time>2021-05-01T09:38:48.000Z</time>
      </trkpt>
      <trkpt lat="47.19276" lon="-1.85227">
        <ele>53</ele>
        <time>2021-05-01T09:38:50.000Z</time>
      </trkpt>
      <trkpt lat="47.1928" lon="-1.85244">
        <ele>53</ele>
        <time>2021-05-01T09:38:53.000Z</time>
      </trkpt>
      <trkpt lat="47.19276" lon="-1.8526">
        <ele>53</ele>
        <time>2021-05-01T09:38:55.000Z</time>
      </trkpt>
      <trkpt lat="47.1927" lon="-1.85278">
        <ele>53</ele>
        <time>2021-05-01T09:38:57.000Z</time>
      </trkpt>
      <trkpt lat="47.19264" lon="-1.85297">
        <ele>53</ele>
        <time>2021-05-01T09:38:59.000Z</time>
      </trkpt>
      <trkpt lat="47.19259" lon="-1.85317">
        <ele>52</ele>
        <time>2021-05-01T09:39:01.000Z</time>
      </trkpt>
      <trkpt lat="47.19252" lon="-1.85334">
        <ele>53</ele>
        <time>2021-05-01T09:39:03.000Z</time>
      </trkpt>
      <trkpt lat="47.19245" lon="-1.85351">
        <ele>52</ele>
        <time>2021-05-01T09:39:05.000Z</time>
      </trkpt>
      <trkpt lat="47.19236" lon="-1.85367">
        <ele>52</ele>
        <time>2021-05-01T09:39:07.000Z</time>
      </trkpt>
      <trkpt lat="47.19228" lon="-1.85383">
        <ele>52</ele>
        <time>2021-05-01T09:39:09.000Z</time>
      </trkpt>
      <trkpt lat="47.19217" lon="-1.85398">
        <ele>51</ele>
        <time>2021-05-01T09:39:11.000Z</time>
      </trkpt>
      <trkpt lat="47.19205" lon="-1.85413">
        <ele>50</ele>
        <time>2021-05-01T09:39:13.000Z</time>
      </trkpt>
      <trkpt lat="47.19193" lon="-1.85427">
        <ele>50</ele>
        <time>2021-05-01T09:39:15.000Z</time>
      </trkpt>
      <trkpt lat="47.19182" lon="-1.8544">
        <ele>50</ele>
        <time>2021-05-01T09:39:17.000Z</time>
      </trkpt>
      <trkpt lat="47.19172" lon="-1.85454">
        <ele>50</ele>
        <time>2021-05-01T09:39:19.000Z</time>
      </trkpt>
      <trkpt lat="47.19161" lon="-1.85468">
        <ele>50</ele>
        <time>2021-05-01T09:39:21.000Z</time>
      </trkpt>
      <trkpt lat="47.19151" lon="-1.85483">
        <ele>51</ele>
        <time>2021-05-01T09:39:23.000Z</time>
      </trkpt>
      <trkpt lat="47.19141" lon="-1.85497">
        <ele>51</ele>
        <time>2021-05-01T09:39:25.000Z</time>
      </trkpt>
      <trkpt lat="47.1913" lon="-1.85511">
        <ele>52</ele>
        <time>2021-05-01T09:39:27.000Z</time>
      </trkpt>
      <trkpt lat="47.19119" lon="-1.85524">
        <ele>52</ele>
        <time>2021-05-01T09:39:29.000Z</time>
      </trkpt>
      <trkpt lat="47.19108" lon="-1.85536">
        <ele>52</ele>
        <time>2021-05-01T09:39:31.000Z</time>
      </trkpt>
      <trkpt lat="47.19097" lon="-1.85547">
        <ele>52</ele>
        <time>2021-05-01T09:39:33.000Z</time>
      </trkpt>
      <trkpt lat="47.19086" lon="-1.85559">
        <ele>53</ele>
        <time>2021-05-01T09:39:35.000Z</time>
      </trkpt>
      <trkpt lat="47.19074" lon="-1.8557">
        <ele>53</ele>
        <time>2021-05-01T09:39:37.000Z</time>
      </trkpt>
      <trkpt lat="47.19061" lon="-1.85582">
        <ele>52</ele>
        <time>2021-05-01T09:39:39.000Z</time>
      </trkpt>
      <trkpt lat="47.19049" lon="-1.85593">
        <ele>52</ele>
        <time>2021-05-01T09:39:41.000Z</time>
      </trkpt>
      <trkpt lat="47.19035" lon="-1.85604">
        <ele>51</ele>
        <time>2021-05-01T09:39:43.000Z</time>
      </trkpt>
      <trkpt lat="47.19022" lon="-1.85616">
        <ele>51</ele>
        <time>2021-05-01T09:39:45.000Z</time>
      </trkpt>
      <trkpt lat="47.19009" lon="-1.85626">
        <ele>52</ele>
        <time>2021-05-01T09:39:47.000Z</time>
      </trkpt>
      <trkpt lat="47.18997" lon="-1.85637">
        <ele>52</ele>
        <time>2021-05-01T09:39:49.000Z</time>
      </trkpt>
      <trkpt lat="47.18984" lon="-1.85647">
        <ele>52</ele>
        <time>2021-05-01T09:39:51.000Z</time>
      </trkpt>
      <trkpt lat="47.1897" lon="-1.85655">
        <ele>52</ele>
        <time>2021-05-01T09:39:53.000Z</time>
      </trkpt>
      <trkpt lat="47.18956" lon="-1.85665">
        <ele>52</ele>
        <time>2021-05-01T09:39:55.000Z</time>
      </trkpt>
      <trkpt lat="47.18943" lon="-1.85675">
        <ele>51</ele>
        <time>2021-05-01T09:39:57.000Z</time>
      </trkpt>
      <trkpt lat="47.1893" lon="-1.85685">
        <ele>51</ele>
        <time>2021-05-01T09:39:59.000Z</time>
      </trkpt>
      <trkpt lat="47.18916" lon="-1.85695">
        <ele>51</ele>
        <time>2021-05-01T09:40:01.000Z</time>
      </trkpt>
      <trkpt lat="47.18904" lon="-1.85704">
        <ele>51</ele>
        <time>2021-05-01T09:40:03.000Z</time>
      </trkpt>
      <trkpt lat="47.18891" lon="-1.85713">
        <ele>50</ele>
        <time>2021-05-01T09:40:05.000Z</time>
      </trkpt>
      <trkpt lat="47.18877" lon="-1.85723">
        <ele>50</ele>
        <time>2021-05-01T09:40:07.000Z</time>
      </trkpt>
      <trkpt lat="47.18864" lon="-1.85732">
        <ele>50</ele>
        <time>2021-05-01T09:40:09.000Z</time>
      </trkpt>
      <trkpt lat="47.18851" lon="-1.85741">
        <ele>50</ele>
        <time>2021-05-01T09:40:11.000Z</time>
      </trkpt>
      <trkpt lat="47.18838" lon="-1.85751">
        <ele>50</ele>
        <time>2021-05-01T09:40:13.000Z</time>
      </trkpt>
      <trkpt lat="47.18825" lon="-1.8576">
        <ele>50</ele>
        <time>2021-05-01T09:40:15.000Z</time>
      </trkpt>
      <trkpt lat="47.18812" lon="-1.85769">
        <ele>50</ele>
        <time>2021-05-01T09:40:17.000Z</time>
      </trkpt>
      <trkpt lat="47.188" lon="-1.85778">
        <ele>50</ele>
        <time>2021-05-01T09:40:19.000Z</time>
      </trkpt>
      <trkpt lat="47.18787" lon="-1.85787">
        <ele>50</ele>
        <time>2021-05-01T09:40:21.000Z</time>
      </trkpt>
      <trkpt lat="47.18774" lon="-1.85797">
        <ele>50</ele>
        <time>2021-05-01T09:40:23.000Z</time>
      </trkpt>
      <trkpt lat="47.18761" lon="-1.85806">
        <ele>50</ele>
        <time>2021-05-01T09:40:25.000Z</time>
      </trkpt>
      <trkpt lat="47.18749" lon="-1.85815">
        <ele>49</ele>
        <time>2021-05-01T09:40:27.000Z</time>
      </trkpt>
      <trkpt lat="47.18736" lon="-1.85824">
        <ele>49</ele>
        <time>2021-05-01T09:40:29.000Z</time>
      </trkpt>
      <trkpt lat="47.18724" lon="-1.85833">
        <ele>49</ele>
        <time>2021-05-01T09:40:31.000Z</time>
      </trkpt>
      <trkpt lat="47.18711" lon="-1.85843">
        <ele>49</ele>
        <time>2021-05-01T09:40:33.000Z</time>
      </trkpt>
      <trkpt lat="47.18698" lon="-1.85852">
        <ele>49</ele>
        <time>2021-05-01T09:40:35.000Z</time>
      </trkpt>
      <trkpt lat="47.18686" lon="-1.85861">
        <ele>49</ele>
        <time>2021-05-01T09:40:37.000Z</time>
      </trkpt>
      <trkpt lat="47.18675" lon="-1.85869">
        <ele>49</ele>
        <time>2021-05-01T09:40:39.000Z</time>
      </trkpt>
      <trkpt lat="47.18664" lon="-1.85877">
        <ele>50</ele>
        <time>2021-05-01T09:40:41.000Z</time>
      </trkpt>
      <trkpt lat="47.18654" lon="-1.85885">
        <ele>50</ele>
        <time>2021-05-01T09:40:43.000Z</time>
      </trkpt>
      <trkpt lat="47.18644" lon="-1.85894">
        <ele>51</ele>
        <time>2021-05-01T09:40:45.000Z</time>
      </trkpt>
      <trkpt lat="47.18635" lon="-1.85904">
        <ele>51</ele>
        <time>2021-05-01T09:40:47.000Z</time>
      </trkpt>
      <trkpt lat="47.18628" lon="-1.85914">
        <ele>52</ele>
        <time>2021-05-01T09:40:49.000Z</time>
      </trkpt>
      <trkpt lat="47.18619" lon="-1.85924">
        <ele>53</ele>
        <time>2021-05-01T09:40:51.000Z</time>
      </trkpt>
      <trkpt lat="47.18611" lon="-1.85934">
        <ele>53</ele>
        <time>2021-05-01T09:40:53.000Z</time>
      </trkpt>
      <trkpt lat="47.18604" lon="-1.85944">
        <ele>53</ele>
        <time>2021-05-01T09:40:55.000Z</time>
      </trkpt>
      <trkpt lat="47.18596" lon="-1.85954">
        <ele>54</ele>
        <time>2021-05-01T09:40:57.000Z</time>
      </trkpt>
      <trkpt lat="47.1859" lon="-1.85967">
        <ele>55</ele>
        <time>2021-05-01T09:40:59.000Z</time>
      </trkpt>
      <trkpt lat="47.18583" lon="-1.8598">
        <ele>56</ele>
        <time>2021-05-01T09:41:01.000Z</time>
      </trkpt>
      <trkpt lat="47.18578" lon="-1.85994">
        <ele>56</ele>
        <time>2021-05-01T09:41:03.000Z</time>
      </trkpt>
      <trkpt lat="47.18572" lon="-1.86006">
        <ele>57</ele>
        <time>2021-05-01T09:41:05.000Z</time>
      </trkpt>
      <trkpt lat="47.18566" lon="-1.86019">
        <ele>58</ele>
        <time>2021-05-01T09:41:07.000Z</time>
      </trkpt>
      <trkpt lat="47.1856" lon="-1.86033">
        <ele>59</ele>
        <time>2021-05-01T09:41:09.000Z</time>
      </trkpt>
      <trkpt lat="47.18554" lon="-1.86046">
        <ele>59</ele>
        <time>2021-05-01T09:41:11.000Z</time>
      </trkpt>
      <trkpt lat="47.18547" lon="-1.8606">
        <ele>60</ele>
        <time>2021-05-01T09:41:13.000Z</time>
      </trkpt>
      <trkpt lat="47.1854" lon="-1.86074">
        <ele>61</ele>
        <time>2021-05-01T09:41:15.000Z</time>
      </trkpt>
      <trkpt lat="47.18533" lon="-1.86088">
        <ele>61</ele>
        <time>2021-05-01T09:41:17.000Z</time>
      </trkpt>
      <trkpt lat="47.18527" lon="-1.86101">
        <ele>61</ele>
        <time>2021-05-01T09:41:19.000Z</time>
      </trkpt>
      <trkpt lat="47.18519" lon="-1.86112">
        <ele>62</ele>
        <time>2021-05-01T09:41:21.000Z</time>
      </trkpt>
      <trkpt lat="47.18512" lon="-1.86123">
        <ele>62</ele>
        <time>2021-05-01T09:41:23.000Z</time>
      </trkpt>
      <trkpt lat="47.18511" lon="-1.86137">
        <ele>62</ele>
        <time>2021-05-01T09:41:25.000Z</time>
      </trkpt>
      <trkpt lat="47.18507" lon="-1.86153">
        <ele>62</ele>
        <time>2021-05-01T09:41:27.000Z</time>
      </trkpt>
      <trkpt lat="47.18503" lon="-1.86169">
        <ele>62</ele>
        <time>2021-05-01T09:41:29.000Z</time>
      </trkpt>
      <trkpt lat="47.18497" lon="-1.86185">
        <ele>62</ele>
        <time>2021-05-01T09:41:31.000Z</time>
      </trkpt>
      <trkpt lat="47.18492" lon="-1.86202">
        <ele>62</ele>
        <time>2021-05-01T09:41:33.000Z</time>
      </trkpt>
      <trkpt lat="47.18487" lon="-1.86219">
        <ele>62</ele>
        <time>2021-05-01T09:41:35.000Z</time>
      </trkpt>
      <trkpt lat="47.18482" lon="-1.86237">
        <ele>62</ele>
        <time>2021-05-01T09:41:37.000Z</time>
      </trkpt>
      <trkpt lat="47.18477" lon="-1.86256">
        <ele>61</ele>
        <time>2021-05-01T09:41:39.000Z</time>
      </trkpt>
      <trkpt lat="47.18474" lon="-1.86277">
        <ele>61</ele>
        <time>2021-05-01T09:41:41.000Z</time>
      </trkpt>
      <trkpt lat="47.18473" lon="-1.86297">
        <ele>60</ele>
        <time>2021-05-01T09:41:43.000Z</time>
      </trkpt>
      <trkpt lat="47.18472" lon="-1.86323">
        <ele>57</ele>
        <time>2021-05-01T09:41:45.000Z</time>
      </trkpt>
      <trkpt lat="47.1847" lon="-1.86337">
        <ele>56</ele>
        <time>2021-05-01T09:41:46.000Z</time>
      </trkpt>
      <trkpt lat="47.18467" lon="-1.86351">
        <ele>55</ele>
        <time>2021-05-01T09:41:47.000Z</time>
      </trkpt>
      <trkpt lat="47.18463" lon="-1.86365">
        <ele>55</ele>
        <time>2021-05-01T09:41:48.000Z</time>
      </trkpt>
      <trkpt lat="47.18458" lon="-1.86378">
        <ele>54</ele>
        <time>2021-05-01T09:41:49.000Z</time>
      </trkpt>
      <trkpt lat="47.18453" lon="-1.8639">
        <ele>54</ele>
        <time>2021-05-01T09:41:50.000Z</time>
      </trkpt>
      <trkpt lat="47.18447" lon="-1.864">
        <ele>54</ele>
        <time>2021-05-01T09:41:51.000Z</time>
      </trkpt>
      <trkpt lat="47.18439" lon="-1.86409">
        <ele>54</ele>
        <time>2021-05-01T09:41:52.000Z</time>
      </trkpt>
      <trkpt lat="47.18431" lon="-1.86417">
        <ele>54</ele>
        <time>2021-05-01T09:41:53.000Z</time>
      </trkpt>
      <trkpt lat="47.18417" lon="-1.86431">
        <ele>54</ele>
        <time>2021-05-01T09:41:55.000Z</time>
      </trkpt>
      <trkpt lat="47.18411" lon="-1.86441">
        <ele>53</ele>
        <time>2021-05-01T09:41:56.000Z</time>
      </trkpt>
      <trkpt lat="47.18406" lon="-1.86465">
        <ele>53</ele>
        <time>2021-05-01T09:41:58.000Z</time>
      </trkpt>
      <trkpt lat="47.18408" lon="-1.86489">
        <ele>53</ele>
        <time>2021-05-01T09:42:00.000Z</time>
      </trkpt>
      <trkpt lat="47.18413" lon="-1.8651">
        <ele>53</ele>
        <time>2021-05-01T09:42:02.000Z</time>
      </trkpt>
      <trkpt lat="47.18416" lon="-1.8653">
        <ele>53</ele>
        <time>2021-05-01T09:42:04.000Z</time>
      </trkpt>
      <trkpt lat="47.18419" lon="-1.8655">
        <ele>53</ele>
        <time>2021-05-01T09:42:06.000Z</time>
      </trkpt>
      <trkpt lat="47.18422" lon="-1.86569">
        <ele>53</ele>
        <time>2021-05-01T09:42:08.000Z</time>
      </trkpt>
      <trkpt lat="47.18423" lon="-1.86587">
        <ele>54</ele>
        <time>2021-05-01T09:42:10.000Z</time>
      </trkpt>
      <trkpt lat="47.18425" lon="-1.86606">
        <ele>54</ele>
        <time>2021-05-01T09:42:12.000Z</time>
      </trkpt>
      <trkpt lat="47.18424" lon="-1.86624">
        <ele>54</ele>
        <time>2021-05-01T09:42:14.000Z</time>
      </trkpt>
      <trkpt lat="47.18423" lon="-1.86641">
        <ele>54</ele>
        <time>2021-05-01T09:42:16.000Z</time>
      </trkpt>
      <trkpt lat="47.18423" lon="-1.86656">
        <ele>55</ele>
        <time>2021-05-01T09:42:18.000Z</time>
      </trkpt>
      <trkpt lat="47.18421" lon="-1.86671">
        <ele>56</ele>
        <time>2021-05-01T09:42:20.000Z</time>
      </trkpt>
      <trkpt lat="47.1842" lon="-1.86686">
        <ele>56</ele>
        <time>2021-05-01T09:42:22.000Z</time>
      </trkpt>
      <trkpt lat="47.18418" lon="-1.867">
        <ele>56</ele>
        <time>2021-05-01T09:42:24.000Z</time>
      </trkpt>
      <trkpt lat="47.18416" lon="-1.86716">
        <ele>57</ele>
        <time>2021-05-01T09:42:26.000Z</time>
      </trkpt>
      <trkpt lat="47.18413" lon="-1.86732">
        <ele>58</ele>
        <time>2021-05-01T09:42:28.000Z</time>
      </trkpt>
      <trkpt lat="47.1841" lon="-1.86748">
        <ele>58</ele>
        <time>2021-05-01T09:42:30.000Z</time>
      </trkpt>
      <trkpt lat="47.18408" lon="-1.86763">
        <ele>59</ele>
        <time>2021-05-01T09:42:32.000Z</time>
      </trkpt>
      <trkpt lat="47.18406" lon="-1.86779">
        <ele>60</ele>
        <time>2021-05-01T09:42:34.000Z</time>
      </trkpt>
      <trkpt lat="47.18403" lon="-1.86794">
        <ele>60</ele>
        <time>2021-05-01T09:42:36.000Z</time>
      </trkpt>
      <trkpt lat="47.18401" lon="-1.86809">
        <ele>61</ele>
        <time>2021-05-01T09:42:38.000Z</time>
      </trkpt>
      <trkpt lat="47.184" lon="-1.86825">
        <ele>61</ele>
        <time>2021-05-01T09:42:40.000Z</time>
      </trkpt>
      <trkpt lat="47.184" lon="-1.8684">
        <ele>62</ele>
        <time>2021-05-01T09:42:42.000Z</time>
      </trkpt>
      <trkpt lat="47.184" lon="-1.86855">
        <ele>62</ele>
        <time>2021-05-01T09:42:44.000Z</time>
      </trkpt>
      <trkpt lat="47.18401" lon="-1.86871">
        <ele>62</ele>
        <time>2021-05-01T09:42:46.000Z</time>
      </trkpt>
      <trkpt lat="47.18402" lon="-1.86887">
        <ele>63</ele>
        <time>2021-05-01T09:42:48.000Z</time>
      </trkpt>
      <trkpt lat="47.18403" lon="-1.86902">
        <ele>63</ele>
        <time>2021-05-01T09:42:50.000Z</time>
      </trkpt>
      <trkpt lat="47.18404" lon="-1.86918">
        <ele>63</ele>
        <time>2021-05-01T09:42:52.000Z</time>
      </trkpt>
      <trkpt lat="47.18405" lon="-1.86933">
        <ele>63</ele>
        <time>2021-05-01T09:42:54.000Z</time>
      </trkpt>
      <trkpt lat="47.18406" lon="-1.86948">
        <ele>64</ele>
        <time>2021-05-01T09:42:56.000Z</time>
      </trkpt>
      <trkpt lat="47.18407" lon="-1.86964">
        <ele>64</ele>
        <time>2021-05-01T09:42:58.000Z</time>
      </trkpt>
      <trkpt lat="47.18409" lon="-1.86977">
        <ele>64</ele>
        <time>2021-05-01T09:43:00.000Z</time>
      </trkpt>
      <trkpt lat="47.18411" lon="-1.86993">
        <ele>64</ele>
        <time>2021-05-01T09:43:02.000Z</time>
      </trkpt>
      <trkpt lat="47.18412" lon="-1.87008">
        <ele>64</ele>
        <time>2021-05-01T09:43:04.000Z</time>
      </trkpt>
      <trkpt lat="47.18414" lon="-1.87023">
        <ele>64</ele>
        <time>2021-05-01T09:43:06.000Z</time>
      </trkpt>
      <trkpt lat="47.18416" lon="-1.87042">
        <ele>64</ele>
        <time>2021-05-01T09:43:08.000Z</time>
      </trkpt>
      <trkpt lat="47.1842" lon="-1.87064">
        <ele>64</ele>
        <time>2021-05-01T09:43:10.000Z</time>
      </trkpt>
      <trkpt lat="47.18425" lon="-1.87085">
        <ele>63</ele>
        <time>2021-05-01T09:43:12.000Z</time>
      </trkpt>
      <trkpt lat="47.18432" lon="-1.87107">
        <ele>62</ele>
        <time>2021-05-01T09:43:14.000Z</time>
      </trkpt>
      <trkpt lat="47.18436" lon="-1.87119">
        <ele>61</ele>
        <time>2021-05-01T09:43:15.000Z</time>
      </trkpt>
      <trkpt lat="47.18443" lon="-1.87142">
        <ele>61</ele>
        <time>2021-05-01T09:43:17.000Z</time>
      </trkpt>
      <trkpt lat="47.1845" lon="-1.87167">
        <ele>60</ele>
        <time>2021-05-01T09:43:19.000Z</time>
      </trkpt>
      <trkpt lat="47.18454" lon="-1.8718">
        <ele>59</ele>
        <time>2021-05-01T09:43:20.000Z</time>
      </trkpt>
      <trkpt lat="47.18457" lon="-1.87192">
        <ele>59</ele>
        <time>2021-05-01T09:43:21.000Z</time>
      </trkpt>
      <trkpt lat="47.18461" lon="-1.87205">
        <ele>59</ele>
        <time>2021-05-01T09:43:22.000Z</time>
      </trkpt>
      <trkpt lat="47.18464" lon="-1.87217">
        <ele>58</ele>
        <time>2021-05-01T09:43:23.000Z</time>
      </trkpt>
      <trkpt lat="47.18469" lon="-1.87241">
        <ele>58</ele>
        <time>2021-05-01T09:43:25.000Z</time>
      </trkpt>
      <trkpt lat="47.18472" lon="-1.87262">
        <ele>58</ele>
        <time>2021-05-01T09:43:27.000Z</time>
      </trkpt>
      <trkpt lat="47.18474" lon="-1.8728">
        <ele>59</ele>
        <time>2021-05-01T09:43:29.000Z</time>
      </trkpt>
      <trkpt lat="47.18476" lon="-1.87297">
        <ele>60</ele>
        <time>2021-05-01T09:43:31.000Z</time>
      </trkpt>
      <trkpt lat="47.18478" lon="-1.87313">
        <ele>61</ele>
        <time>2021-05-01T09:43:33.000Z</time>
      </trkpt>
      <trkpt lat="47.1848" lon="-1.87327">
        <ele>62</ele>
        <time>2021-05-01T09:43:35.000Z</time>
      </trkpt>
      <trkpt lat="47.18482" lon="-1.87342">
        <ele>62</ele>
        <time>2021-05-01T09:43:37.000Z</time>
      </trkpt>
      <trkpt lat="47.18483" lon="-1.87356">
        <ele>63</ele>
        <time>2021-05-01T09:43:39.000Z</time>
      </trkpt>
      <trkpt lat="47.18485" lon="-1.87371">
        <ele>63</ele>
        <time>2021-05-01T09:43:41.000Z</time>
      </trkpt>
      <trkpt lat="47.18488" lon="-1.87386">
        <ele>64</ele>
        <time>2021-05-01T09:43:43.000Z</time>
      </trkpt>
      <trkpt lat="47.18491" lon="-1.87401">
        <ele>64</ele>
        <time>2021-05-01T09:43:45.000Z</time>
      </trkpt>
      <trkpt lat="47.18493" lon="-1.87415">
        <ele>64</ele>
        <time>2021-05-01T09:43:47.000Z</time>
      </trkpt>
      <trkpt lat="47.18494" lon="-1.87429">
        <ele>65</ele>
        <time>2021-05-01T09:43:49.000Z</time>
      </trkpt>
      <trkpt lat="47.1849" lon="-1.87447">
        <ele>67</ele>
        <time>2021-05-01T09:43:52.000Z</time>
      </trkpt>
      <trkpt lat="47.18482" lon="-1.87456">
        <ele>68</ele>
        <time>2021-05-01T09:43:54.000Z</time>
      </trkpt>
      <trkpt lat="47.18473" lon="-1.87463">
        <ele>69</ele>
        <time>2021-05-01T09:43:56.000Z</time>
      </trkpt>
      <trkpt lat="47.18465" lon="-1.87471">
        <ele>70</ele>
        <time>2021-05-01T09:43:58.000Z</time>
      </trkpt>
      <trkpt lat="47.18456" lon="-1.87479">
        <ele>71</ele>
        <time>2021-05-01T09:44:00.000Z</time>
      </trkpt>
      <trkpt lat="47.18447" lon="-1.87487">
        <ele>72</ele>
        <time>2021-05-01T09:44:02.000Z</time>
      </trkpt>
      <trkpt lat="47.18438" lon="-1.87493">
        <ele>73</ele>
        <time>2021-05-01T09:44:04.000Z</time>
      </trkpt>
      <trkpt lat="47.18429" lon="-1.87499">
        <ele>74</ele>
        <time>2021-05-01T09:44:06.000Z</time>
      </trkpt>
      <trkpt lat="47.1842" lon="-1.87503">
        <ele>75</ele>
        <time>2021-05-01T09:44:08.000Z</time>
      </trkpt>
      <trkpt lat="47.1841" lon="-1.87507">
        <ele>75</ele>
        <time>2021-05-01T09:44:10.000Z</time>
      </trkpt>
      <trkpt lat="47.184" lon="-1.8751">
        <ele>76</ele>
        <time>2021-05-01T09:44:12.000Z</time>
      </trkpt>
      <trkpt lat="47.1839" lon="-1.87512">
        <ele>77</ele>
        <time>2021-05-01T09:44:14.000Z</time>
      </trkpt>
      <trkpt lat="47.18381" lon="-1.87514">
        <ele>77</ele>
        <time>2021-05-01T09:44:16.000Z</time>
      </trkpt>
      <trkpt lat="47.1837" lon="-1.87516">
        <ele>78</ele>
        <time>2021-05-01T09:44:18.000Z</time>
      </trkpt>
      <trkpt lat="47.1836" lon="-1.87518">
        <ele>78</ele>
        <time>2021-05-01T09:44:20.000Z</time>
      </trkpt>
      <trkpt lat="47.18351" lon="-1.8752">
        <ele>78</ele>
        <time>2021-05-01T09:44:22.000Z</time>
      </trkpt>
      <trkpt lat="47.1834" lon="-1.87521">
        <ele>78</ele>
        <time>2021-05-01T09:44:24.000Z</time>
      </trkpt>
      <trkpt lat="47.1833" lon="-1.87523">
        <ele>78</ele>
        <time>2021-05-01T09:44:26.000Z</time>
      </trkpt>
      <trkpt lat="47.18319" lon="-1.87525">
        <ele>78</ele>
        <time>2021-05-01T09:44:28.000Z</time>
      </trkpt>
      <trkpt lat="47.18309" lon="-1.87527">
        <ele>78</ele>
        <time>2021-05-01T09:44:30.000Z</time>
      </trkpt>
      <trkpt lat="47.18299" lon="-1.87529">
        <ele>78</ele>
        <time>2021-05-01T09:44:32.000Z</time>
      </trkpt>
      <trkpt lat="47.18288" lon="-1.87532">
        <ele>78</ele>
        <time>2021-05-01T09:44:34.000Z</time>
      </trkpt>
      <trkpt lat="47.18278" lon="-1.87537">
        <ele>78</ele>
        <time>2021-05-01T09:44:36.000Z</time>
      </trkpt>
      <trkpt lat="47.18268" lon="-1.87542">
        <ele>78</ele>
        <time>2021-05-01T09:44:38.000Z</time>
      </trkpt>
      <trkpt lat="47.18257" lon="-1.87548">
        <ele>78</ele>
        <time>2021-05-01T09:44:40.000Z</time>
      </trkpt>
      <trkpt lat="47.18247" lon="-1.87556">
        <ele>78</ele>
        <time>2021-05-01T09:44:42.000Z</time>
      </trkpt>
      <trkpt lat="47.18237" lon="-1.87564">
        <ele>77</ele>
        <time>2021-05-01T09:44:44.000Z</time>
      </trkpt>
      <trkpt lat="47.18226" lon="-1.87574">
        <ele>77</ele>
        <time>2021-05-01T09:44:46.000Z</time>
      </trkpt>
      <trkpt lat="47.18215" lon="-1.87585">
        <ele>76</ele>
        <time>2021-05-01T09:44:48.000Z</time>
      </trkpt>
      <trkpt lat="47.18203" lon="-1.87596">
        <ele>77</ele>
        <time>2021-05-01T09:44:50.000Z</time>
      </trkpt>
      <trkpt lat="47.18191" lon="-1.87607">
        <ele>76</ele>
        <time>2021-05-01T09:44:52.000Z</time>
      </trkpt>
      <trkpt lat="47.18179" lon="-1.87617">
        <ele>76</ele>
        <time>2021-05-01T09:44:54.000Z</time>
      </trkpt>
      <trkpt lat="47.18167" lon="-1.87627">
        <ele>76</ele>
        <time>2021-05-01T09:44:56.000Z</time>
      </trkpt>
      <trkpt lat="47.18156" lon="-1.87635">
        <ele>77</ele>
        <time>2021-05-01T09:44:58.000Z</time>
      </trkpt>
      <trkpt lat="47.18144" lon="-1.87643">
        <ele>77</ele>
        <time>2021-05-01T09:45:00.000Z</time>
      </trkpt>
      <trkpt lat="47.18132" lon="-1.87651">
        <ele>78</ele>
        <time>2021-05-01T09:45:02.000Z</time>
      </trkpt>
      <trkpt lat="47.1812" lon="-1.87659">
        <ele>78</ele>
        <time>2021-05-01T09:45:04.000Z</time>
      </trkpt>
      <trkpt lat="47.18109" lon="-1.87666">
        <ele>79</ele>
        <time>2021-05-01T09:45:06.000Z</time>
      </trkpt>
      <trkpt lat="47.18097" lon="-1.87673">
        <ele>79</ele>
        <time>2021-05-01T09:45:08.000Z</time>
      </trkpt>
      <trkpt lat="47.18086" lon="-1.8768">
        <ele>80</ele>
        <time>2021-05-01T09:45:10.000Z</time>
      </trkpt>
      <trkpt lat="47.18074" lon="-1.87688">
        <ele>80</ele>
        <time>2021-05-01T09:45:12.000Z</time>
      </trkpt>
      <trkpt lat="47.18064" lon="-1.87698">
        <ele>80</ele>
        <time>2021-05-01T09:45:14.000Z</time>
      </trkpt>
      <trkpt lat="47.18053" lon="-1.87708">
        <ele>81</ele>
        <time>2021-05-01T09:45:16.000Z</time>
      </trkpt>
      <trkpt lat="47.18043" lon="-1.87719">
        <ele>81</ele>
        <time>2021-05-01T09:45:18.000Z</time>
      </trkpt>
      <trkpt lat="47.18033" lon="-1.87728">
        <ele>81</ele>
        <time>2021-05-01T09:45:20.000Z</time>
      </trkpt>
      <trkpt lat="47.18022" lon="-1.87737">
        <ele>82</ele>
        <time>2021-05-01T09:45:22.000Z</time>
      </trkpt>
      <trkpt lat="47.18013" lon="-1.87746">
        <ele>82</ele>
        <time>2021-05-01T09:45:24.000Z</time>
      </trkpt>
      <trkpt lat="47.18002" lon="-1.87752">
        <ele>83</ele>
        <time>2021-05-01T09:45:26.000Z</time>
      </trkpt>
      <trkpt lat="47.17991" lon="-1.87758">
        <ele>84</ele>
        <time>2021-05-01T09:45:28.000Z</time>
      </trkpt>
      <trkpt lat="47.1798" lon="-1.87765">
        <ele>84</ele>
        <time>2021-05-01T09:45:30.000Z</time>
      </trkpt>
      <trkpt lat="47.1797" lon="-1.87771">
        <ele>85</ele>
        <time>2021-05-01T09:45:32.000Z</time>
      </trkpt>
      <trkpt lat="47.1796" lon="-1.87777">
        <ele>85</ele>
        <time>2021-05-01T09:45:34.000Z</time>
      </trkpt>
      <trkpt lat="47.1795" lon="-1.87783">
        <ele>86</ele>
        <time>2021-05-01T09:45:36.000Z</time>
      </trkpt>
      <trkpt lat="47.17939" lon="-1.87788">
        <ele>87</ele>
        <time>2021-05-01T09:45:38.000Z</time>
      </trkpt>
      <trkpt lat="47.17929" lon="-1.87794">
        <ele>87</ele>
        <time>2021-05-01T09:45:40.000Z</time>
      </trkpt>
      <trkpt lat="47.17919" lon="-1.87799">
        <ele>87</ele>
        <time>2021-05-01T09:45:42.000Z</time>
      </trkpt>
      <trkpt lat="47.17908" lon="-1.87804">
        <ele>88</ele>
        <time>2021-05-01T09:45:44.000Z</time>
      </trkpt>
      <trkpt lat="47.17898" lon="-1.8781">
        <ele>88</ele>
        <time>2021-05-01T09:45:46.000Z</time>
      </trkpt>
      <trkpt lat="47.17888" lon="-1.87815">
        <ele>88</ele>
        <time>2021-05-01T09:45:48.000Z</time>
      </trkpt>
      <trkpt lat="47.17878" lon="-1.87821">
        <ele>89</ele>
        <time>2021-05-01T09:45:50.000Z</time>
      </trkpt>
      <trkpt lat="47.17869" lon="-1.87826">
        <ele>89</ele>
        <time>2021-05-01T09:45:52.000Z</time>
      </trkpt>
      <trkpt lat="47.17858" lon="-1.87832">
        <ele>90</ele>
        <time>2021-05-01T09:45:54.000Z</time>
      </trkpt>
      <trkpt lat="47.17848" lon="-1.87836">
        <ele>90</ele>
        <time>2021-05-01T09:45:56.000Z</time>
      </trkpt>
      <trkpt lat="47.17838" lon="-1.87842">
        <ele>91</ele>
        <time>2021-05-01T09:45:58.000Z</time>
      </trkpt>
      <trkpt lat="47.17827" lon="-1.87847">
        <ele>91</ele>
        <time>2021-05-01T09:46:00.000Z</time>
      </trkpt>
      <trkpt lat="47.17817" lon="-1.87851">
        <ele>91</ele>
        <time>2021-05-01T09:46:02.000Z</time>
      </trkpt>
      <trkpt lat="47.17808" lon="-1.87855">
        <ele>91</ele>
        <time>2021-05-01T09:46:04.000Z</time>
      </trkpt>
      <trkpt lat="47.17799" lon="-1.87859">
        <ele>91</ele>
        <time>2021-05-01T09:46:06.000Z</time>
      </trkpt>
      <trkpt lat="47.17788" lon="-1.87864">
        <ele>92</ele>
        <time>2021-05-01T09:46:08.000Z</time>
      </trkpt>
      <trkpt lat="47.17778" lon="-1.87869">
        <ele>92</ele>
        <time>2021-05-01T09:46:10.000Z</time>
      </trkpt>
      <trkpt lat="47.17767" lon="-1.87875">
        <ele>92</ele>
        <time>2021-05-01T09:46:12.000Z</time>
      </trkpt>
      <trkpt lat="47.17756" lon="-1.87882">
        <ele>92</ele>
        <time>2021-05-01T09:46:14.000Z</time>
      </trkpt>
      <trkpt lat="47.17747" lon="-1.87889">
        <ele>93</ele>
        <time>2021-05-01T09:46:16.000Z</time>
      </trkpt>
      <trkpt lat="47.17737" lon="-1.87895">
        <ele>93</ele>
        <time>2021-05-01T09:46:18.000Z</time>
      </trkpt>
      <trkpt lat="47.17728" lon="-1.87901">
        <ele>94</ele>
        <time>2021-05-01T09:46:20.000Z</time>
      </trkpt>
      <trkpt lat="47.17718" lon="-1.87907">
        <ele>94</ele>
        <time>2021-05-01T09:46:22.000Z</time>
      </trkpt>
      <trkpt lat="47.17708" lon="-1.87913">
        <ele>94</ele>
        <time>2021-05-01T09:46:24.000Z</time>
      </trkpt>
      <trkpt lat="47.17697" lon="-1.87918">
        <ele>94</ele>
        <time>2021-05-01T09:46:26.000Z</time>
      </trkpt>
      <trkpt lat="47.17686" lon="-1.87921">
        <ele>95</ele>
        <time>2021-05-01T09:46:28.000Z</time>
      </trkpt>
      <trkpt lat="47.17675" lon="-1.87922">
        <ele>95</ele>
        <time>2021-05-01T09:46:30.000Z</time>
      </trkpt>
      <trkpt lat="47.17664" lon="-1.87924">
        <ele>95</ele>
        <time>2021-05-01T09:46:32.000Z</time>
      </trkpt>
      <trkpt lat="47.17653" lon="-1.87927">
        <ele>95</ele>
        <time>2021-05-01T09:46:34.000Z</time>
      </trkpt>
      <trkpt lat="47.17642" lon="-1.87931">
        <ele>95</ele>
        <time>2021-05-01T09:46:36.000Z</time>
      </trkpt>
      <trkpt lat="47.17632" lon="-1.87935">
        <ele>96</ele>
        <time>2021-05-01T09:46:38.000Z</time>
      </trkpt>
      <trkpt lat="47.17622" lon="-1.87939">
        <ele>96</ele>
        <time>2021-05-01T09:46:40.000Z</time>
      </trkpt>
      <trkpt lat="47.17612" lon="-1.87944">
        <ele>96</ele>
        <time>2021-05-01T09:46:42.000Z</time>
      </trkpt>
      <trkpt lat="47.17602" lon="-1.8795">
        <ele>96</ele>
        <time>2021-05-01T09:46:44.000Z</time>
      </trkpt>
      <trkpt lat="47.17593" lon="-1.87956">
        <ele>96</ele>
        <time>2021-05-01T09:46:46.000Z</time>
      </trkpt>
      <trkpt lat="47.17583" lon="-1.87962">
        <ele>96</ele>
        <time>2021-05-01T09:46:48.000Z</time>
      </trkpt>
      <trkpt lat="47.17573" lon="-1.87969">
        <ele>97</ele>
        <time>2021-05-01T09:46:50.000Z</time>
      </trkpt>
      <trkpt lat="47.17564" lon="-1.87975">
        <ele>98</ele>
        <time>2021-05-01T09:46:52.000Z</time>
      </trkpt>
      <trkpt lat="47.17553" lon="-1.87982">
        <ele>99</ele>
        <time>2021-05-01T09:46:54.000Z</time>
      </trkpt>
      <trkpt lat="47.17544" lon="-1.87989">
        <ele>100</ele>
        <time>2021-05-01T09:46:56.000Z</time>
      </trkpt>
      <trkpt lat="47.17534" lon="-1.87994">
        <ele>100</ele>
        <time>2021-05-01T09:46:58.000Z</time>
      </trkpt>
      <trkpt lat="47.17525" lon="-1.88001">
        <ele>101</ele>
        <time>2021-05-01T09:47:00.000Z</time>
      </trkpt>
      <trkpt lat="47.17516" lon="-1.88007">
        <ele>101</ele>
        <time>2021-05-01T09:47:02.000Z</time>
      </trkpt>
      <trkpt lat="47.17506" lon="-1.88012">
        <ele>102</ele>
        <time>2021-05-01T09:47:04.000Z</time>
      </trkpt>
      <trkpt lat="47.17497" lon="-1.88019">
        <ele>103</ele>
        <time>2021-05-01T09:47:06.000Z</time>
      </trkpt>
      <trkpt lat="47.17487" lon="-1.88025">
        <ele>103</ele>
        <time>2021-05-01T09:47:08.000Z</time>
      </trkpt>
      <trkpt lat="47.17477" lon="-1.88032">
        <ele>104</ele>
        <time>2021-05-01T09:47:10.000Z</time>
      </trkpt>
      <trkpt lat="47.17467" lon="-1.88039">
        <ele>104</ele>
        <time>2021-05-01T09:47:12.000Z</time>
      </trkpt>
      <trkpt lat="47.17456" lon="-1.88045">
        <ele>105</ele>
        <time>2021-05-01T09:47:14.000Z</time>
      </trkpt>
      <trkpt lat="47.17447" lon="-1.88051">
        <ele>105</ele>
        <time>2021-05-01T09:47:16.000Z</time>
      </trkpt>
      <trkpt lat="47.17438" lon="-1.88057">
        <ele>106</ele>
        <time>2021-05-01T09:47:18.000Z</time>
      </trkpt>
      <trkpt lat="47.17429" lon="-1.88061">
        <ele>106</ele>
        <time>2021-05-01T09:47:20.000Z</time>
      </trkpt>
      <trkpt lat="47.1742" lon="-1.88064">
        <ele>107</ele>
        <time>2021-05-01T09:47:22.000Z</time>
      </trkpt>
      <trkpt lat="47.1741" lon="-1.88066">
        <ele>107</ele>
        <time>2021-05-01T09:47:24.000Z</time>
      </trkpt>
      <trkpt lat="47.17399" lon="-1.88072">
        <ele>107</ele>
        <time>2021-05-01T09:47:26.000Z</time>
      </trkpt>
      <trkpt lat="47.17389" lon="-1.88079">
        <ele>107</ele>
        <time>2021-05-01T09:47:28.000Z</time>
      </trkpt>
      <trkpt lat="47.17379" lon="-1.88086">
        <ele>107</ele>
        <time>2021-05-01T09:47:30.000Z</time>
      </trkpt>
      <trkpt lat="47.17369" lon="-1.88093">
        <ele>107</ele>
        <time>2021-05-01T09:47:32.000Z</time>
      </trkpt>
      <trkpt lat="47.17358" lon="-1.88101">
        <ele>107</ele>
        <time>2021-05-01T09:47:34.000Z</time>
      </trkpt>
      <trkpt lat="47.17349" lon="-1.88111">
        <ele>107</ele>
        <time>2021-05-01T09:47:36.000Z</time>
      </trkpt>
      <trkpt lat="47.17343" lon="-1.88126">
        <ele>106</ele>
        <time>2021-05-01T09:47:38.000Z</time>
      </trkpt>
      <trkpt lat="47.17343" lon="-1.88145">
        <ele>106</ele>
        <time>2021-05-01T09:47:40.000Z</time>
      </trkpt>
      <trkpt lat="47.17347" lon="-1.88162">
        <ele>106</ele>
        <time>2021-05-01T09:47:42.000Z</time>
      </trkpt>
      <trkpt lat="47.17352" lon="-1.8818">
        <ele>105</ele>
        <time>2021-05-01T09:47:44.000Z</time>
      </trkpt>
      <trkpt lat="47.17357" lon="-1.88199">
        <ele>105</ele>
        <time>2021-05-01T09:47:46.000Z</time>
      </trkpt>
      <trkpt lat="47.17362" lon="-1.88217">
        <ele>104</ele>
        <time>2021-05-01T09:47:48.000Z</time>
      </trkpt>
      <trkpt lat="47.17366" lon="-1.88237">
        <ele>103</ele>
        <time>2021-05-01T09:47:50.000Z</time>
      </trkpt>
      <trkpt lat="47.17368" lon="-1.88259">
        <ele>103</ele>
        <time>2021-05-01T09:47:52.000Z</time>
      </trkpt>
      <trkpt lat="47.17369" lon="-1.88279">
        <ele>103</ele>
        <time>2021-05-01T09:47:54.000Z</time>
      </trkpt>
      <trkpt lat="47.1737" lon="-1.88301">
        <ele>103</ele>
        <time>2021-05-01T09:47:56.000Z</time>
      </trkpt>
      <trkpt lat="47.17371" lon="-1.88323">
        <ele>103</ele>
        <time>2021-05-01T09:47:58.000Z</time>
      </trkpt>
      <trkpt lat="47.17372" lon="-1.88344">
        <ele>103</ele>
        <time>2021-05-01T09:48:00.000Z</time>
      </trkpt>
      <trkpt lat="47.17373" lon="-1.88366">
        <ele>103</ele>
        <time>2021-05-01T09:48:02.000Z</time>
      </trkpt>
      <trkpt lat="47.17374" lon="-1.88387">
        <ele>103</ele>
        <time>2021-05-01T09:48:04.000Z</time>
      </trkpt>
      <trkpt lat="47.17375" lon="-1.88408">
        <ele>103</ele>
        <time>2021-05-01T09:48:06.000Z</time>
      </trkpt>
      <trkpt lat="47.17377" lon="-1.88428">
        <ele>103</ele>
        <time>2021-05-01T09:48:08.000Z</time>
      </trkpt>
      <trkpt lat="47.17378" lon="-1.8845">
        <ele>103</ele>
        <time>2021-05-01T09:48:10.000Z</time>
      </trkpt>
      <trkpt lat="47.17379" lon="-1.88469">
        <ele>103</ele>
        <time>2021-05-01T09:48:12.000Z</time>
      </trkpt>
      <trkpt lat="47.1738" lon="-1.88489">
        <ele>103</ele>
        <time>2021-05-01T09:48:14.000Z</time>
      </trkpt>
      <trkpt lat="47.17381" lon="-1.88509">
        <ele>103</ele>
        <time>2021-05-01T09:48:16.000Z</time>
      </trkpt>
      <trkpt lat="47.17383" lon="-1.88529">
        <ele>103</ele>
        <time>2021-05-01T09:48:18.000Z</time>
      </trkpt>
      <trkpt lat="47.17384" lon="-1.8855">
        <ele>103</ele>
        <time>2021-05-01T09:48:20.000Z</time>
      </trkpt>
      <trkpt lat="47.17385" lon="-1.88569">
        <ele>103</ele>
        <time>2021-05-01T09:48:22.000Z</time>
      </trkpt>
      <trkpt lat="47.17386" lon="-1.88589">
        <ele>103</ele>
        <time>2021-05-01T09:48:24.000Z</time>
      </trkpt>
      <trkpt lat="47.17387" lon="-1.88609">
        <ele>103</ele>
        <time>2021-05-01T09:48:26.000Z</time>
      </trkpt>
      <trkpt lat="47.17388" lon="-1.88629">
        <ele>104</ele>
        <time>2021-05-01T09:48:28.000Z</time>
      </trkpt>
      <trkpt lat="47.17389" lon="-1.88649">
        <ele>103</ele>
        <time>2021-05-01T09:48:30.000Z</time>
      </trkpt>
      <trkpt lat="47.1739" lon="-1.88669">
        <ele>103</ele>
        <time>2021-05-01T09:48:32.000Z</time>
      </trkpt>
      <trkpt lat="47.17391" lon="-1.88689">
        <ele>103</ele>
        <time>2021-05-01T09:48:34.000Z</time>
      </trkpt>
      <trkpt lat="47.17393" lon="-1.88708">
        <ele>104</ele>
        <time>2021-05-01T09:48:36.000Z</time>
      </trkpt>
      <trkpt lat="47.17394" lon="-1.88728">
        <ele>104</ele>
        <time>2021-05-01T09:48:38.000Z</time>
      </trkpt>
      <trkpt lat="47.17395" lon="-1.88747">
        <ele>103</ele>
        <time>2021-05-01T09:48:40.000Z</time>
      </trkpt>
      <trkpt lat="47.17395" lon="-1.88766">
        <ele>104</ele>
        <time>2021-05-01T09:48:42.000Z</time>
      </trkpt>
      <trkpt lat="47.17397" lon="-1.88785">
        <ele>104</ele>
        <time>2021-05-01T09:48:44.000Z</time>
      </trkpt>
      <trkpt lat="47.17398" lon="-1.88804">
        <ele>104</ele>
        <time>2021-05-01T09:48:46.000Z</time>
      </trkpt>
      <trkpt lat="47.17401" lon="-1.88823">
        <ele>103</ele>
        <time>2021-05-01T09:48:48.000Z</time>
      </trkpt>
      <trkpt lat="47.17405" lon="-1.88841">
        <ele>103</ele>
        <time>2021-05-01T09:48:50.000Z</time>
      </trkpt>
      <trkpt lat="47.17409" lon="-1.8886">
        <ele>103</ele>
        <time>2021-05-01T09:48:52.000Z</time>
      </trkpt>
      <trkpt lat="47.17413" lon="-1.88879">
        <ele>103</ele>
        <time>2021-05-01T09:48:54.000Z</time>
      </trkpt>
      <trkpt lat="47.17417" lon="-1.88897">
        <ele>103</ele>
        <time>2021-05-01T09:48:56.000Z</time>
      </trkpt>
      <trkpt lat="47.17421" lon="-1.88916">
        <ele>103</ele>
        <time>2021-05-01T09:48:58.000Z</time>
      </trkpt>
      <trkpt lat="47.17425" lon="-1.88934">
        <ele>103</ele>
        <time>2021-05-01T09:49:00.000Z</time>
      </trkpt>
      <trkpt lat="47.17429" lon="-1.88953">
        <ele>103</ele>
        <time>2021-05-01T09:49:02.000Z</time>
      </trkpt>
      <trkpt lat="47.17434" lon="-1.88971">
        <ele>103</ele>
        <time>2021-05-01T09:49:04.000Z</time>
      </trkpt>
      <trkpt lat="47.17438" lon="-1.8899">
        <ele>104</ele>
        <time>2021-05-01T09:49:06.000Z</time>
      </trkpt>
      <trkpt lat="47.17442" lon="-1.89008">
        <ele>103</ele>
        <time>2021-05-01T09:49:08.000Z</time>
      </trkpt>
      <trkpt lat="47.17446" lon="-1.89027">
        <ele>103</ele>
        <time>2021-05-01T09:49:10.000Z</time>
      </trkpt>
      <trkpt lat="47.1745" lon="-1.89046">
        <ele>103</ele>
        <time>2021-05-01T09:49:12.000Z</time>
      </trkpt>
      <trkpt lat="47.17454" lon="-1.89064">
        <ele>104</ele>
        <time>2021-05-01T09:49:14.000Z</time>
      </trkpt>
      <trkpt lat="47.17458" lon="-1.89082">
        <ele>104</ele>
        <time>2021-05-01T09:49:16.000Z</time>
      </trkpt>
      <trkpt lat="47.17462" lon="-1.891">
        <ele>104</ele>
        <time>2021-05-01T09:49:18.000Z</time>
      </trkpt>
      <trkpt lat="47.17466" lon="-1.89119">
        <ele>104</ele>
        <time>2021-05-01T09:49:20.000Z</time>
      </trkpt>
      <trkpt lat="47.1747" lon="-1.89138">
        <ele>104</ele>
        <time>2021-05-01T09:49:22.000Z</time>
      </trkpt>
      <trkpt lat="47.17474" lon="-1.89156">
        <ele>104</ele>
        <time>2021-05-01T09:49:24.000Z</time>
      </trkpt>
      <trkpt lat="47.17477" lon="-1.89175">
        <ele>104</ele>
        <time>2021-05-01T09:49:26.000Z</time>
      </trkpt>
      <trkpt lat="47.1748" lon="-1.89194">
        <ele>104</ele>
        <time>2021-05-01T09:49:28.000Z</time>
      </trkpt>
      <trkpt lat="47.17481" lon="-1.89213">
        <ele>104</ele>
        <time>2021-05-01T09:49:30.000Z</time>
      </trkpt>
      <trkpt lat="47.17481" lon="-1.89233">
        <ele>103</ele>
        <time>2021-05-01T09:49:32.000Z</time>
      </trkpt>
      <trkpt lat="47.17479" lon="-1.89253">
        <ele>103</ele>
        <time>2021-05-01T09:49:34.000Z</time>
      </trkpt>
      <trkpt lat="47.17478" lon="-1.89272">
        <ele>103</ele>
        <time>2021-05-01T09:49:36.000Z</time>
      </trkpt>
      <trkpt lat="47.17476" lon="-1.89292">
        <ele>103</ele>
        <time>2021-05-01T09:49:38.000Z</time>
      </trkpt>
      <trkpt lat="47.17475" lon="-1.89312">
        <ele>103</ele>
        <time>2021-05-01T09:49:40.000Z</time>
      </trkpt>
      <trkpt lat="47.17474" lon="-1.89332">
        <ele>103</ele>
        <time>2021-05-01T09:49:42.000Z</time>
      </trkpt>
      <trkpt lat="47.17474" lon="-1.89351">
        <ele>104</ele>
        <time>2021-05-01T09:49:44.000Z</time>
      </trkpt>
      <trkpt lat="47.17474" lon="-1.89371">
        <ele>104</ele>
        <time>2021-05-01T09:49:46.000Z</time>
      </trkpt>
      <trkpt lat="47.17475" lon="-1.8939">
        <ele>104</ele>
        <time>2021-05-01T09:49:48.000Z</time>
      </trkpt>
      <trkpt lat="47.17476" lon="-1.8941">
        <ele>104</ele>
        <time>2021-05-01T09:49:50.000Z</time>
      </trkpt>
      <trkpt lat="47.17478" lon="-1.8943">
        <ele>104</ele>
        <time>2021-05-01T09:49:52.000Z</time>
      </trkpt>
      <trkpt lat="47.17479" lon="-1.8945">
        <ele>105</ele>
        <time>2021-05-01T09:49:54.000Z</time>
      </trkpt>
      <trkpt lat="47.17481" lon="-1.89469">
        <ele>105</ele>
        <time>2021-05-01T09:49:56.000Z</time>
      </trkpt>
      <trkpt lat="47.17483" lon="-1.89489">
        <ele>105</ele>
        <time>2021-05-01T09:49:58.000Z</time>
      </trkpt>
      <trkpt lat="47.17484" lon="-1.89509">
        <ele>104</ele>
        <time>2021-05-01T09:50:00.000Z</time>
      </trkpt>
      <trkpt lat="47.17485" lon="-1.89528">
        <ele>104</ele>
        <time>2021-05-01T09:50:02.000Z</time>
      </trkpt>
      <trkpt lat="47.17486" lon="-1.89548">
        <ele>104</ele>
        <time>2021-05-01T09:50:04.000Z</time>
      </trkpt>
      <trkpt lat="47.17487" lon="-1.89567">
        <ele>104</ele>
        <time>2021-05-01T09:50:06.000Z</time>
      </trkpt>
      <trkpt lat="47.17486" lon="-1.89588">
        <ele>104</ele>
        <time>2021-05-01T09:50:08.000Z</time>
      </trkpt>
      <trkpt lat="47.17484" lon="-1.89608">
        <ele>103</ele>
        <time>2021-05-01T09:50:10.000Z</time>
      </trkpt>
      <trkpt lat="47.17481" lon="-1.89628">
        <ele>103</ele>
        <time>2021-05-01T09:50:12.000Z</time>
      </trkpt>
      <trkpt lat="47.17478" lon="-1.89648">
        <ele>103</ele>
        <time>2021-05-01T09:50:14.000Z</time>
      </trkpt>
      <trkpt lat="47.17474" lon="-1.89667">
        <ele>103</ele>
        <time>2021-05-01T09:50:16.000Z</time>
      </trkpt>
      <trkpt lat="47.17469" lon="-1.89687">
        <ele>103</ele>
        <time>2021-05-01T09:50:18.000Z</time>
      </trkpt>
      <trkpt lat="47.17465" lon="-1.89706">
        <ele>103</ele>
        <time>2021-05-01T09:50:20.000Z</time>
      </trkpt>
      <trkpt lat="47.1746" lon="-1.89726">
        <ele>103</ele>
        <time>2021-05-01T09:50:22.000Z</time>
      </trkpt>
      <trkpt lat="47.17456" lon="-1.89745">
        <ele>103</ele>
        <time>2021-05-01T09:50:24.000Z</time>
      </trkpt>
      <trkpt lat="47.17452" lon="-1.89764">
        <ele>103</ele>
        <time>2021-05-01T09:50:26.000Z</time>
      </trkpt>
      <trkpt lat="47.17448" lon="-1.89783">
        <ele>103</ele>
        <time>2021-05-01T09:50:28.000Z</time>
      </trkpt>
      <trkpt lat="47.17443" lon="-1.89802">
        <ele>103</ele>
        <time>2021-05-01T09:50:30.000Z</time>
      </trkpt>
      <trkpt lat="47.17439" lon="-1.89821">
        <ele>103</ele>
        <time>2021-05-01T09:50:32.000Z</time>
      </trkpt>
      <trkpt lat="47.17436" lon="-1.8984">
        <ele>103</ele>
        <time>2021-05-01T09:50:34.000Z</time>
      </trkpt>
      <trkpt lat="47.17431" lon="-1.89858">
        <ele>103</ele>
        <time>2021-05-01T09:50:36.000Z</time>
      </trkpt>
      <trkpt lat="47.17427" lon="-1.89877">
        <ele>104</ele>
        <time>2021-05-01T09:50:38.000Z</time>
      </trkpt>
      <trkpt lat="47.17423" lon="-1.89894">
        <ele>104</ele>
        <time>2021-05-01T09:50:40.000Z</time>
      </trkpt>
      <trkpt lat="47.17419" lon="-1.89911">
        <ele>104</ele>
        <time>2021-05-01T09:50:42.000Z</time>
      </trkpt>
      <trkpt lat="47.17416" lon="-1.89928">
        <ele>104</ele>
        <time>2021-05-01T09:50:44.000Z</time>
      </trkpt>
      <trkpt lat="47.17412" lon="-1.89944">
        <ele>104</ele>
        <time>2021-05-01T09:50:46.000Z</time>
      </trkpt>
      <trkpt lat="47.17409" lon="-1.89958">
        <ele>105</ele>
        <time>2021-05-01T09:50:48.000Z</time>
      </trkpt>
      <trkpt lat="47.17402" lon="-1.89967">
        <ele>105</ele>
        <time>2021-05-01T09:50:50.000Z</time>
      </trkpt>
      <trkpt lat="47.17389" lon="-1.89968">
        <ele>105</ele>
        <time>2021-05-01T09:50:52.000Z</time>
      </trkpt>
      <trkpt lat="47.17375" lon="-1.89969">
        <ele>105</ele>
        <time>2021-05-01T09:50:54.000Z</time>
      </trkpt>
      <trkpt lat="47.17361" lon="-1.89969">
        <ele>105</ele>
        <time>2021-05-01T09:50:56.000Z</time>
      </trkpt>
      <trkpt lat="47.17347" lon="-1.89969">
        <ele>105</ele>
        <time>2021-05-01T09:50:58.000Z</time>
      </trkpt>
      <trkpt lat="47.17333" lon="-1.89969">
        <ele>105</ele>
        <time>2021-05-01T09:51:00.000Z</time>
      </trkpt>
      <trkpt lat="47.1732" lon="-1.8997">
        <ele>105</ele>
        <time>2021-05-01T09:51:02.000Z</time>
      </trkpt>
      <trkpt lat="47.17306" lon="-1.89971">
        <ele>105</ele>
        <time>2021-05-01T09:51:04.000Z</time>
      </trkpt>
      <trkpt lat="47.17292" lon="-1.89971">
        <ele>105</ele>
        <time>2021-05-01T09:51:06.000Z</time>
      </trkpt>
      <trkpt lat="47.17279" lon="-1.89971">
        <ele>105</ele>
        <time>2021-05-01T09:51:08.000Z</time>
      </trkpt>
      <trkpt lat="47.17265" lon="-1.89972">
        <ele>106</ele>
        <time>2021-05-01T09:51:10.000Z</time>
      </trkpt>
      <trkpt lat="47.17251" lon="-1.89971">
        <ele>106</ele>
        <time>2021-05-01T09:51:12.000Z</time>
      </trkpt>
      <trkpt lat="47.17237" lon="-1.89972">
        <ele>106</ele>
        <time>2021-05-01T09:51:14.000Z</time>
      </trkpt>
      <trkpt lat="47.17223" lon="-1.89973">
        <ele>106</ele>
        <time>2021-05-01T09:51:16.000Z</time>
      </trkpt>
      <trkpt lat="47.17209" lon="-1.89973">
        <ele>106</ele>
        <time>2021-05-01T09:51:18.000Z</time>
      </trkpt>
      <trkpt lat="47.17196" lon="-1.89974">
        <ele>106</ele>
        <time>2021-05-01T09:51:20.000Z</time>
      </trkpt>
      <trkpt lat="47.17181" lon="-1.89974">
        <ele>106</ele>
        <time>2021-05-01T09:51:22.000Z</time>
      </trkpt>
      <trkpt lat="47.17166" lon="-1.89974">
        <ele>105</ele>
        <time>2021-05-01T09:51:24.000Z</time>
      </trkpt>
      <trkpt lat="47.17151" lon="-1.89974">
        <ele>104</ele>
        <time>2021-05-01T09:51:26.000Z</time>
      </trkpt>
      <trkpt lat="47.17137" lon="-1.89974">
        <ele>104</ele>
        <time>2021-05-01T09:51:28.000Z</time>
      </trkpt>
      <trkpt lat="47.17122" lon="-1.89974">
        <ele>104</ele>
        <time>2021-05-01T09:51:30.000Z</time>
      </trkpt>
      <trkpt lat="47.17107" lon="-1.89975">
        <ele>103</ele>
        <time>2021-05-01T09:51:32.000Z</time>
      </trkpt>
      <trkpt lat="47.17092" lon="-1.89976">
        <ele>104</ele>
        <time>2021-05-01T09:51:34.000Z</time>
      </trkpt>
      <trkpt lat="47.17077" lon="-1.89976">
        <ele>104</ele>
        <time>2021-05-01T09:51:36.000Z</time>
      </trkpt>
      <trkpt lat="47.17063" lon="-1.89976">
        <ele>103</ele>
        <time>2021-05-01T09:51:38.000Z</time>
      </trkpt>
      <trkpt lat="47.17049" lon="-1.89977">
        <ele>103</ele>
        <time>2021-05-01T09:51:40.000Z</time>
      </trkpt>
      <trkpt lat="47.17034" lon="-1.89977">
        <ele>103</ele>
        <time>2021-05-01T09:51:42.000Z</time>
      </trkpt>
      <trkpt lat="47.17019" lon="-1.89979">
        <ele>103</ele>
        <time>2021-05-01T09:51:44.000Z</time>
      </trkpt>
      <trkpt lat="47.17004" lon="-1.89981">
        <ele>103</ele>
        <time>2021-05-01T09:51:46.000Z</time>
      </trkpt>
      <trkpt lat="47.16989" lon="-1.89984">
        <ele>103</ele>
        <time>2021-05-01T09:51:48.000Z</time>
      </trkpt>
      <trkpt lat="47.16975" lon="-1.89986">
        <ele>103</ele>
        <time>2021-05-01T09:51:50.000Z</time>
      </trkpt>
      <trkpt lat="47.1696" lon="-1.89989">
        <ele>103</ele>
        <time>2021-05-01T09:51:52.000Z</time>
      </trkpt>
      <trkpt lat="47.16946" lon="-1.89992">
        <ele>103</ele>
        <time>2021-05-01T09:51:54.000Z</time>
      </trkpt>
      <trkpt lat="47.16931" lon="-1.89996">
        <ele>103</ele>
        <time>2021-05-01T09:51:56.000Z</time>
      </trkpt>
      <trkpt lat="47.16917" lon="-1.89999">
        <ele>103</ele>
        <time>2021-05-01T09:51:58.000Z</time>
      </trkpt>
      <trkpt lat="47.16902" lon="-1.90002">
        <ele>103</ele>
        <time>2021-05-01T09:52:00.000Z</time>
      </trkpt>
      <trkpt lat="47.16888" lon="-1.90006">
        <ele>103</ele>
        <time>2021-05-01T09:52:02.000Z</time>
      </trkpt>
      <trkpt lat="47.16873" lon="-1.90009">
        <ele>103</ele>
        <time>2021-05-01T09:52:04.000Z</time>
      </trkpt>
      <trkpt lat="47.16859" lon="-1.90012">
        <ele>103</ele>
        <time>2021-05-01T09:52:06.000Z</time>
      </trkpt>
      <trkpt lat="47.16845" lon="-1.90014">
        <ele>103</ele>
        <time>2021-05-01T09:52:08.000Z</time>
      </trkpt>
      <trkpt lat="47.16831" lon="-1.90017">
        <ele>103</ele>
        <time>2021-05-01T09:52:10.000Z</time>
      </trkpt>
      <trkpt lat="47.16816" lon="-1.9002">
        <ele>103</ele>
        <time>2021-05-01T09:52:12.000Z</time>
      </trkpt>
      <trkpt lat="47.16802" lon="-1.90023">
        <ele>103</ele>
        <time>2021-05-01T09:52:14.000Z</time>
      </trkpt>
      <trkpt lat="47.16788" lon="-1.90026">
        <ele>103</ele>
        <time>2021-05-01T09:52:16.000Z</time>
      </trkpt>
      <trkpt lat="47.16773" lon="-1.90029">
        <ele>103</ele>
        <time>2021-05-01T09:52:18.000Z</time>
      </trkpt>
      <trkpt lat="47.16759" lon="-1.90031">
        <ele>103</ele>
        <time>2021-05-01T09:52:20.000Z</time>
      </trkpt>
      <trkpt lat="47.16745" lon="-1.90035">
        <ele>103</ele>
        <time>2021-05-01T09:52:22.000Z</time>
      </trkpt>
      <trkpt lat="47.16731" lon="-1.90039">
        <ele>104</ele>
        <time>2021-05-01T09:52:24.000Z</time>
      </trkpt>
      <trkpt lat="47.16717" lon="-1.90041">
        <ele>104</ele>
        <time>2021-05-01T09:52:26.000Z</time>
      </trkpt>
      <trkpt lat="47.16703" lon="-1.90044">
        <ele>104</ele>
        <time>2021-05-01T09:52:28.000Z</time>
      </trkpt>
      <trkpt lat="47.16689" lon="-1.90047">
        <ele>104</ele>
        <time>2021-05-01T09:52:30.000Z</time>
      </trkpt>
      <trkpt lat="47.16674" lon="-1.9005">
        <ele>103</ele>
        <time>2021-05-01T09:52:32.000Z</time>
      </trkpt>
      <trkpt lat="47.16659" lon="-1.90053">
        <ele>103</ele>
        <time>2021-05-01T09:52:34.000Z</time>
      </trkpt>
      <trkpt lat="47.16645" lon="-1.90057">
        <ele>103</ele>
        <time>2021-05-01T09:52:36.000Z</time>
      </trkpt>
      <trkpt lat="47.1663" lon="-1.90059">
        <ele>103</ele>
        <time>2021-05-01T09:52:38.000Z</time>
      </trkpt>
      <trkpt lat="47.16616" lon="-1.90062">
        <ele>102</ele>
        <time>2021-05-01T09:52:40.000Z</time>
      </trkpt>
      <trkpt lat="47.16601" lon="-1.90065">
        <ele>102</ele>
        <time>2021-05-01T09:52:42.000Z</time>
      </trkpt>
      <trkpt lat="47.16587" lon="-1.90068">
        <ele>102</ele>
        <time>2021-05-01T09:52:44.000Z</time>
      </trkpt>
      <trkpt lat="47.16572" lon="-1.9007">
        <ele>102</ele>
        <time>2021-05-01T09:52:46.000Z</time>
      </trkpt>
      <trkpt lat="47.16558" lon="-1.90074">
        <ele>102</ele>
        <time>2021-05-01T09:52:48.000Z</time>
      </trkpt>
      <trkpt lat="47.16544" lon="-1.90077">
        <ele>102</ele>
        <time>2021-05-01T09:52:50.000Z</time>
      </trkpt>
      <trkpt lat="47.16531" lon="-1.9008">
        <ele>102</ele>
        <time>2021-05-01T09:52:52.000Z</time>
      </trkpt>
      <trkpt lat="47.16519" lon="-1.90083">
        <ele>102</ele>
        <time>2021-05-01T09:52:54.000Z</time>
      </trkpt>
      <trkpt lat="47.16507" lon="-1.90085">
        <ele>103</ele>
        <time>2021-05-01T09:52:56.000Z</time>
      </trkpt>
      <trkpt lat="47.16494" lon="-1.90088">
        <ele>103</ele>
        <time>2021-05-01T09:52:58.000Z</time>
      </trkpt>
      <trkpt lat="47.1648" lon="-1.9009">
        <ele>102</ele>
        <time>2021-05-01T09:53:00.000Z</time>
      </trkpt>
      <trkpt lat="47.16466" lon="-1.90093">
        <ele>103</ele>
        <time>2021-05-01T09:53:02.000Z</time>
      </trkpt>
      <trkpt lat="47.16452" lon="-1.90097">
        <ele>103</ele>
        <time>2021-05-01T09:53:04.000Z</time>
      </trkpt>
      <trkpt lat="47.16437" lon="-1.901">
        <ele>102</ele>
        <time>2021-05-01T09:53:06.000Z</time>
      </trkpt>
      <trkpt lat="47.16423" lon="-1.90104">
        <ele>101</ele>
        <time>2021-05-01T09:53:08.000Z</time>
      </trkpt>
      <trkpt lat="47.16409" lon="-1.90106">
        <ele>101</ele>
        <time>2021-05-01T09:53:10.000Z</time>
      </trkpt>
      <trkpt lat="47.16395" lon="-1.90108">
        <ele>102</ele>
        <time>2021-05-01T09:53:12.000Z</time>
      </trkpt>
      <trkpt lat="47.1638" lon="-1.90112">
        <ele>101</ele>
        <time>2021-05-01T09:53:14.000Z</time>
      </trkpt>
      <trkpt lat="47.16366" lon="-1.90114">
        <ele>101</ele>
        <time>2021-05-01T09:53:16.000Z</time>
      </trkpt>
      <trkpt lat="47.16353" lon="-1.90116">
        <ele>102</ele>
        <time>2021-05-01T09:53:18.000Z</time>
      </trkpt>
      <trkpt lat="47.16339" lon="-1.90118">
        <ele>102</ele>
        <time>2021-05-01T09:53:20.000Z</time>
      </trkpt>
      <trkpt lat="47.16325" lon="-1.90121">
        <ele>102</ele>
        <time>2021-05-01T09:53:22.000Z</time>
      </trkpt>
      <trkpt lat="47.16312" lon="-1.90123">
        <ele>102</ele>
        <time>2021-05-01T09:53:24.000Z</time>
      </trkpt>
      <trkpt lat="47.16299" lon="-1.90126">
        <ele>101</ele>
        <time>2021-05-01T09:53:26.000Z</time>
      </trkpt>
      <trkpt lat="47.16286" lon="-1.90129">
        <ele>102</ele>
        <time>2021-05-01T09:53:28.000Z</time>
      </trkpt>
      <trkpt lat="47.16272" lon="-1.90132">
        <ele>102</ele>
        <time>2021-05-01T09:53:30.000Z</time>
      </trkpt>
      <trkpt lat="47.16259" lon="-1.90135">
        <ele>102</ele>
        <time>2021-05-01T09:53:32.000Z</time>
      </trkpt>
      <trkpt lat="47.16245" lon="-1.90138">
        <ele>101</ele>
        <time>2021-05-01T09:53:34.000Z</time>
      </trkpt>
      <trkpt lat="47.16231" lon="-1.9014">
        <ele>100</ele>
        <time>2021-05-01T09:53:36.000Z</time>
      </trkpt>
      <trkpt lat="47.16217" lon="-1.90143">
        <ele>100</ele>
        <time>2021-05-01T09:53:38.000Z</time>
      </trkpt>
      <trkpt lat="47.16203" lon="-1.90146">
        <ele>99</ele>
        <time>2021-05-01T09:53:40.000Z</time>
      </trkpt>
      <trkpt lat="47.16189" lon="-1.9015">
        <ele>98</ele>
        <time>2021-05-01T09:53:42.000Z</time>
      </trkpt>
      <trkpt lat="47.16173" lon="-1.90152">
        <ele>98</ele>
        <time>2021-05-01T09:53:44.000Z</time>
      </trkpt>
      <trkpt lat="47.16158" lon="-1.90155">
        <ele>98</ele>
        <time>2021-05-01T09:53:46.000Z</time>
      </trkpt>
      <trkpt lat="47.16144" lon="-1.90158">
        <ele>98</ele>
        <time>2021-05-01T09:53:48.000Z</time>
      </trkpt>
      <trkpt lat="47.16129" lon="-1.90161">
        <ele>98</ele>
        <time>2021-05-01T09:53:50.000Z</time>
      </trkpt>
      <trkpt lat="47.16114" lon="-1.90165">
        <ele>97</ele>
        <time>2021-05-01T09:53:52.000Z</time>
      </trkpt>
      <trkpt lat="47.161" lon="-1.90169">
        <ele>97</ele>
        <time>2021-05-01T09:53:54.000Z</time>
      </trkpt>
      <trkpt lat="47.16085" lon="-1.90172">
        <ele>97</ele>
        <time>2021-05-01T09:53:56.000Z</time>
      </trkpt>
      <trkpt lat="47.16071" lon="-1.90176">
        <ele>97</ele>
        <time>2021-05-01T09:53:58.000Z</time>
      </trkpt>
      <trkpt lat="47.16055" lon="-1.90179">
        <ele>98</ele>
        <time>2021-05-01T09:54:00.000Z</time>
      </trkpt>
      <trkpt lat="47.16039" lon="-1.90182">
        <ele>98</ele>
        <time>2021-05-01T09:54:02.000Z</time>
      </trkpt>
      <trkpt lat="47.16023" lon="-1.90185">
        <ele>98</ele>
        <time>2021-05-01T09:54:04.000Z</time>
      </trkpt>
      <trkpt lat="47.16007" lon="-1.90188">
        <ele>98</ele>
        <time>2021-05-01T09:54:06.000Z</time>
      </trkpt>
      <trkpt lat="47.15992" lon="-1.90191">
        <ele>97</ele>
        <time>2021-05-01T09:54:08.000Z</time>
      </trkpt>
      <trkpt lat="47.15976" lon="-1.90195">
        <ele>97</ele>
        <time>2021-05-01T09:54:10.000Z</time>
      </trkpt>
      <trkpt lat="47.15961" lon="-1.90198">
        <ele>96</ele>
        <time>2021-05-01T09:54:12.000Z</time>
      </trkpt>
      <trkpt lat="47.15945" lon="-1.90202">
        <ele>96</ele>
        <time>2021-05-01T09:54:14.000Z</time>
      </trkpt>
      <trkpt lat="47.15929" lon="-1.90205">
        <ele>96</ele>
        <time>2021-05-01T09:54:16.000Z</time>
      </trkpt>
      <trkpt lat="47.15915" lon="-1.90206">
        <ele>97</ele>
        <time>2021-05-01T09:54:18.000Z</time>
      </trkpt>
      <trkpt lat="47.15899" lon="-1.90208">
        <ele>96</ele>
        <time>2021-05-01T09:54:20.000Z</time>
      </trkpt>
      <trkpt lat="47.15883" lon="-1.90206">
        <ele>96</ele>
        <time>2021-05-01T09:54:22.000Z</time>
      </trkpt>
      <trkpt lat="47.15869" lon="-1.90204">
        <ele>95</ele>
        <time>2021-05-01T09:54:24.000Z</time>
      </trkpt>
      <trkpt lat="47.15855" lon="-1.90201">
        <ele>95</ele>
        <time>2021-05-01T09:54:26.000Z</time>
      </trkpt>
      <trkpt lat="47.1584" lon="-1.90199">
        <ele>95</ele>
        <time>2021-05-01T09:54:28.000Z</time>
      </trkpt>
      <trkpt lat="47.15825" lon="-1.90199">
        <ele>95</ele>
        <time>2021-05-01T09:54:30.000Z</time>
      </trkpt>
      <trkpt lat="47.15811" lon="-1.90203">
        <ele>94</ele>
        <time>2021-05-01T09:54:32.000Z</time>
      </trkpt>
      <trkpt lat="47.15797" lon="-1.90211">
        <ele>94</ele>
        <time>2021-05-01T09:54:34.000Z</time>
      </trkpt>
      <trkpt lat="47.15783" lon="-1.90222">
        <ele>94</ele>
        <time>2021-05-01T09:54:36.000Z</time>
      </trkpt>
      <trkpt lat="47.15768" lon="-1.90231">
        <ele>94</ele>
        <time>2021-05-01T09:54:38.000Z</time>
      </trkpt>
      <trkpt lat="47.15753" lon="-1.90238">
        <ele>92</ele>
        <time>2021-05-01T09:54:40.000Z</time>
      </trkpt>
      <trkpt lat="47.15737" lon="-1.90243">
        <ele>91</ele>
        <time>2021-05-01T09:54:42.000Z</time>
      </trkpt>
      <trkpt lat="47.15722" lon="-1.90248">
        <ele>90</ele>
        <time>2021-05-01T09:54:44.000Z</time>
      </trkpt>
      <trkpt lat="47.15706" lon="-1.90252">
        <ele>90</ele>
        <time>2021-05-01T09:54:46.000Z</time>
      </trkpt>
      <trkpt lat="47.15689" lon="-1.90256">
        <ele>89</ele>
        <time>2021-05-01T09:54:48.000Z</time>
      </trkpt>
      <trkpt lat="47.15672" lon="-1.90261">
        <ele>89</ele>
        <time>2021-05-01T09:54:50.000Z</time>
      </trkpt>
      <trkpt lat="47.15655" lon="-1.90264">
        <ele>89</ele>
        <time>2021-05-01T09:54:52.000Z</time>
      </trkpt>
      <trkpt lat="47.15638" lon="-1.90268">
        <ele>88</ele>
        <time>2021-05-01T09:54:54.000Z</time>
      </trkpt>
      <trkpt lat="47.15621" lon="-1.90272">
        <ele>88</ele>
        <time>2021-05-01T09:54:56.000Z</time>
      </trkpt>
      <trkpt lat="47.15604" lon="-1.90275">
        <ele>87</ele>
        <time>2021-05-01T09:54:58.000Z</time>
      </trkpt>
      <trkpt lat="47.15587" lon="-1.90278">
        <ele>88</ele>
        <time>2021-05-01T09:55:00.000Z</time>
      </trkpt>
      <trkpt lat="47.15569" lon="-1.90282">
        <ele>87</ele>
        <time>2021-05-01T09:55:02.000Z</time>
      </trkpt>
      <trkpt lat="47.15553" lon="-1.90286">
        <ele>87</ele>
        <time>2021-05-01T09:55:04.000Z</time>
      </trkpt>
      <trkpt lat="47.15536" lon="-1.90289">
        <ele>86</ele>
        <time>2021-05-01T09:55:06.000Z</time>
      </trkpt>
      <trkpt lat="47.15519" lon="-1.90292">
        <ele>85</ele>
        <time>2021-05-01T09:55:08.000Z</time>
      </trkpt>
      <trkpt lat="47.15501" lon="-1.90296">
        <ele>85</ele>
        <time>2021-05-01T09:55:10.000Z</time>
      </trkpt>
      <trkpt lat="47.15484" lon="-1.90301">
        <ele>85</ele>
        <time>2021-05-01T09:55:12.000Z</time>
      </trkpt>
      <trkpt lat="47.15467" lon="-1.90305">
        <ele>85</ele>
        <time>2021-05-01T09:55:14.000Z</time>
      </trkpt>
      <trkpt lat="47.15451" lon="-1.9031">
        <ele>85</ele>
        <time>2021-05-01T09:55:16.000Z</time>
      </trkpt>
      <trkpt lat="47.15435" lon="-1.90319">
        <ele>85</ele>
        <time>2021-05-01T09:55:18.000Z</time>
      </trkpt>
      <trkpt lat="47.1542" lon="-1.90328">
        <ele>85</ele>
        <time>2021-05-01T09:55:20.000Z</time>
      </trkpt>
      <trkpt lat="47.15404" lon="-1.90333">
        <ele>84</ele>
        <time>2021-05-01T09:55:22.000Z</time>
      </trkpt>
      <trkpt lat="47.15388" lon="-1.90337">
        <ele>84</ele>
        <time>2021-05-01T09:55:24.000Z</time>
      </trkpt>
      <trkpt lat="47.15372" lon="-1.9034">
        <ele>84</ele>
        <time>2021-05-01T09:55:26.000Z</time>
      </trkpt>
      <trkpt lat="47.15356" lon="-1.90344">
        <ele>84</ele>
        <time>2021-05-01T09:55:28.000Z</time>
      </trkpt>
      <trkpt lat="47.15339" lon="-1.90348">
        <ele>83</ele>
        <time>2021-05-01T09:55:30.000Z</time>
      </trkpt>
      <trkpt lat="47.15323" lon="-1.90352">
        <ele>83</ele>
        <time>2021-05-01T09:55:32.000Z</time>
      </trkpt>
      <trkpt lat="47.15306" lon="-1.90355">
        <ele>83</ele>
        <time>2021-05-01T09:55:34.000Z</time>
      </trkpt>
      <trkpt lat="47.1529" lon="-1.90359">
        <ele>83</ele>
        <time>2021-05-01T09:55:36.000Z</time>
      </trkpt>
      <trkpt lat="47.15273" lon="-1.90363">
        <ele>82</ele>
        <time>2021-05-01T09:55:38.000Z</time>
      </trkpt>
      <trkpt lat="47.15256" lon="-1.90367">
        <ele>82</ele>
        <time>2021-05-01T09:55:40.000Z</time>
      </trkpt>
      <trkpt lat="47.1524" lon="-1.9037">
        <ele>82</ele>
        <time>2021-05-01T09:55:42.000Z</time>
      </trkpt>
      <trkpt lat="47.15224" lon="-1.90373">
        <ele>81</ele>
        <time>2021-05-01T09:55:44.000Z</time>
      </trkpt>
      <trkpt lat="47.15208" lon="-1.90377">
        <ele>81</ele>
        <time>2021-05-01T09:55:46.000Z</time>
      </trkpt>
      <trkpt lat="47.15192" lon="-1.90381">
        <ele>81</ele>
        <time>2021-05-01T09:55:48.000Z</time>
      </trkpt>
      <trkpt lat="47.15175" lon="-1.90385">
        <ele>81</ele>
        <time>2021-05-01T09:55:50.000Z</time>
      </trkpt>
      <trkpt lat="47.15159" lon="-1.90389">
        <ele>81</ele>
        <time>2021-05-01T09:55:52.000Z</time>
      </trkpt>
      <trkpt lat="47.15142" lon="-1.90393">
        <ele>80</ele>
        <time>2021-05-01T09:55:54.000Z</time>
      </trkpt>
      <trkpt lat="47.15126" lon="-1.90396">
        <ele>80</ele>
        <time>2021-05-01T09:55:56.000Z</time>
      </trkpt>
      <trkpt lat="47.15111" lon="-1.904">
        <ele>79</ele>
        <time>2021-05-01T09:55:58.000Z</time>
      </trkpt>
      <trkpt lat="47.15095" lon="-1.90403">
        <ele>79</ele>
        <time>2021-05-01T09:56:00.000Z</time>
      </trkpt>
      <trkpt lat="47.15079" lon="-1.90407">
        <ele>79</ele>
        <time>2021-05-01T09:56:02.000Z</time>
      </trkpt>
      <trkpt lat="47.15063" lon="-1.90411">
        <ele>79</ele>
        <time>2021-05-01T09:56:04.000Z</time>
      </trkpt>
      <trkpt lat="47.15047" lon="-1.90415">
        <ele>79</ele>
        <time>2021-05-01T09:56:06.000Z</time>
      </trkpt>
      <trkpt lat="47.1503" lon="-1.90418">
        <ele>78</ele>
        <time>2021-05-01T09:56:08.000Z</time>
      </trkpt>
      <trkpt lat="47.15014" lon="-1.90421">
        <ele>78</ele>
        <time>2021-05-01T09:56:10.000Z</time>
      </trkpt>
      <trkpt lat="47.14998" lon="-1.90425">
        <ele>78</ele>
        <time>2021-05-01T09:56:12.000Z</time>
      </trkpt>
      <trkpt lat="47.14982" lon="-1.90429">
        <ele>79</ele>
        <time>2021-05-01T09:56:14.000Z</time>
      </trkpt>
      <trkpt lat="47.14967" lon="-1.90433">
        <ele>79</ele>
        <time>2021-05-01T09:56:16.000Z</time>
      </trkpt>
      <trkpt lat="47.14951" lon="-1.90436">
        <ele>78</ele>
        <time>2021-05-01T09:56:18.000Z</time>
      </trkpt>
      <trkpt lat="47.14936" lon="-1.9044">
        <ele>78</ele>
        <time>2021-05-01T09:56:20.000Z</time>
      </trkpt>
      <trkpt lat="47.14921" lon="-1.90444">
        <ele>78</ele>
        <time>2021-05-01T09:56:22.000Z</time>
      </trkpt>
      <trkpt lat="47.14906" lon="-1.90448">
        <ele>78</ele>
        <time>2021-05-01T09:56:24.000Z</time>
      </trkpt>
      <trkpt lat="47.1489" lon="-1.90451">
        <ele>78</ele>
        <time>2021-05-01T09:56:26.000Z</time>
      </trkpt>
      <trkpt lat="47.14874" lon="-1.90454">
        <ele>77</ele>
        <time>2021-05-01T09:56:28.000Z</time>
      </trkpt>
      <trkpt lat="47.14858" lon="-1.90458">
        <ele>77</ele>
        <time>2021-05-01T09:56:30.000Z</time>
      </trkpt>
      <trkpt lat="47.14842" lon="-1.90461">
        <ele>77</ele>
        <time>2021-05-01T09:56:32.000Z</time>
      </trkpt>
      <trkpt lat="47.14826" lon="-1.90464">
        <ele>76</ele>
        <time>2021-05-01T09:56:34.000Z</time>
      </trkpt>
      <trkpt lat="47.14811" lon="-1.90468">
        <ele>77</ele>
        <time>2021-05-01T09:56:36.000Z</time>
      </trkpt>
      <trkpt lat="47.14794" lon="-1.90472">
        <ele>77</ele>
        <time>2021-05-01T09:56:38.000Z</time>
      </trkpt>
      <trkpt lat="47.14779" lon="-1.90475">
        <ele>76</ele>
        <time>2021-05-01T09:56:40.000Z</time>
      </trkpt>
      <trkpt lat="47.14763" lon="-1.90478">
        <ele>76</ele>
        <time>2021-05-01T09:56:42.000Z</time>
      </trkpt>
      <trkpt lat="47.14747" lon="-1.90482">
        <ele>76</ele>
        <time>2021-05-01T09:56:44.000Z</time>
      </trkpt>
      <trkpt lat="47.14731" lon="-1.90486">
        <ele>76</ele>
        <time>2021-05-01T09:56:46.000Z</time>
      </trkpt>
      <trkpt lat="47.14715" lon="-1.9049">
        <ele>76</ele>
        <time>2021-05-01T09:56:48.000Z</time>
      </trkpt>
      <trkpt lat="47.14699" lon="-1.90493">
        <ele>76</ele>
        <time>2021-05-01T09:56:50.000Z</time>
      </trkpt>
      <trkpt lat="47.14684" lon="-1.90496">
        <ele>76</ele>
        <time>2021-05-01T09:56:52.000Z</time>
      </trkpt>
      <trkpt lat="47.14668" lon="-1.905">
        <ele>76</ele>
        <time>2021-05-01T09:56:54.000Z</time>
      </trkpt>
      <trkpt lat="47.14652" lon="-1.90504">
        <ele>76</ele>
        <time>2021-05-01T09:56:56.000Z</time>
      </trkpt>
      <trkpt lat="47.14636" lon="-1.90507">
        <ele>76</ele>
        <time>2021-05-01T09:56:58.000Z</time>
      </trkpt>
      <trkpt lat="47.1462" lon="-1.90511">
        <ele>76</ele>
        <time>2021-05-01T09:57:00.000Z</time>
      </trkpt>
      <trkpt lat="47.14604" lon="-1.90515">
        <ele>75</ele>
        <time>2021-05-01T09:57:02.000Z</time>
      </trkpt>
      <trkpt lat="47.14589" lon="-1.90518">
        <ele>75</ele>
        <time>2021-05-01T09:57:04.000Z</time>
      </trkpt>
      <trkpt lat="47.14573" lon="-1.90521">
        <ele>75</ele>
        <time>2021-05-01T09:57:06.000Z</time>
      </trkpt>
      <trkpt lat="47.14557" lon="-1.90525">
        <ele>75</ele>
        <time>2021-05-01T09:57:08.000Z</time>
      </trkpt>
      <trkpt lat="47.14541" lon="-1.90528">
        <ele>75</ele>
        <time>2021-05-01T09:57:10.000Z</time>
      </trkpt>
      <trkpt lat="47.14525" lon="-1.90532">
        <ele>75</ele>
        <time>2021-05-01T09:57:12.000Z</time>
      </trkpt>
      <trkpt lat="47.14509" lon="-1.90535">
        <ele>75</ele>
        <time>2021-05-01T09:57:14.000Z</time>
      </trkpt>
      <trkpt lat="47.14493" lon="-1.90539">
        <ele>75</ele>
        <time>2021-05-01T09:57:16.000Z</time>
      </trkpt>
      <trkpt lat="47.14476" lon="-1.90543">
        <ele>75</ele>
        <time>2021-05-01T09:57:18.000Z</time>
      </trkpt>
      <trkpt lat="47.1446" lon="-1.90547">
        <ele>74</ele>
        <time>2021-05-01T09:57:20.000Z</time>
      </trkpt>
      <trkpt lat="47.14443" lon="-1.9055">
        <ele>74</ele>
        <time>2021-05-01T09:57:22.000Z</time>
      </trkpt>
      <trkpt lat="47.14427" lon="-1.90554">
        <ele>73</ele>
        <time>2021-05-01T09:57:24.000Z</time>
      </trkpt>
      <trkpt lat="47.14411" lon="-1.90558">
        <ele>73</ele>
        <time>2021-05-01T09:57:26.000Z</time>
      </trkpt>
      <trkpt lat="47.14395" lon="-1.90562">
        <ele>73</ele>
        <time>2021-05-01T09:57:28.000Z</time>
      </trkpt>
      <trkpt lat="47.14379" lon="-1.90565">
        <ele>73</ele>
        <time>2021-05-01T09:57:30.000Z</time>
      </trkpt>
      <trkpt lat="47.14363" lon="-1.90569">
        <ele>72</ele>
        <time>2021-05-01T09:57:32.000Z</time>
      </trkpt>
      <trkpt lat="47.14347" lon="-1.90573">
        <ele>72</ele>
        <time>2021-05-01T09:57:34.000Z</time>
      </trkpt>
      <trkpt lat="47.14331" lon="-1.90576">
        <ele>72</ele>
        <time>2021-05-01T09:57:36.000Z</time>
      </trkpt>
      <trkpt lat="47.14315" lon="-1.9058">
        <ele>72</ele>
        <time>2021-05-01T09:57:38.000Z</time>
      </trkpt>
      <trkpt lat="47.143" lon="-1.90583">
        <ele>72</ele>
        <time>2021-05-01T09:57:40.000Z</time>
      </trkpt>
      <trkpt lat="47.14284" lon="-1.90586">
        <ele>71</ele>
        <time>2021-05-01T09:57:42.000Z</time>
      </trkpt>
      <trkpt lat="47.14269" lon="-1.9059">
        <ele>71</ele>
        <time>2021-05-01T09:57:44.000Z</time>
      </trkpt>
      <trkpt lat="47.14253" lon="-1.90594">
        <ele>71</ele>
        <time>2021-05-01T09:57:46.000Z</time>
      </trkpt>
      <trkpt lat="47.14238" lon="-1.90597">
        <ele>71</ele>
        <time>2021-05-01T09:57:48.000Z</time>
      </trkpt>
      <trkpt lat="47.14223" lon="-1.90601">
        <ele>70</ele>
        <time>2021-05-01T09:57:50.000Z</time>
      </trkpt>
      <trkpt lat="47.14208" lon="-1.90604">
        <ele>70</ele>
        <time>2021-05-01T09:57:52.000Z</time>
      </trkpt>
      <trkpt lat="47.14193" lon="-1.90607">
        <ele>70</ele>
        <time>2021-05-01T09:57:54.000Z</time>
      </trkpt>
      <trkpt lat="47.14178" lon="-1.9061">
        <ele>70</ele>
        <time>2021-05-01T09:57:56.000Z</time>
      </trkpt>
      <trkpt lat="47.14164" lon="-1.90612">
        <ele>69</ele>
        <time>2021-05-01T09:57:58.000Z</time>
      </trkpt>
      <trkpt lat="47.14149" lon="-1.90618">
        <ele>69</ele>
        <time>2021-05-01T09:58:00.000Z</time>
      </trkpt>
      <trkpt lat="47.14134" lon="-1.9062">
        <ele>69</ele>
        <time>2021-05-01T09:58:02.000Z</time>
      </trkpt>
      <trkpt lat="47.14118" lon="-1.90621">
        <ele>69</ele>
        <time>2021-05-01T09:58:04.000Z</time>
      </trkpt>
      <trkpt lat="47.14102" lon="-1.90622">
        <ele>68</ele>
        <time>2021-05-01T09:58:06.000Z</time>
      </trkpt>
      <trkpt lat="47.14087" lon="-1.90623">
        <ele>68</ele>
        <time>2021-05-01T09:58:08.000Z</time>
      </trkpt>
      <trkpt lat="47.14071" lon="-1.90624">
        <ele>68</ele>
        <time>2021-05-01T09:58:10.000Z</time>
      </trkpt>
      <trkpt lat="47.14056" lon="-1.90626">
        <ele>68</ele>
        <time>2021-05-01T09:58:12.000Z</time>
      </trkpt>
      <trkpt lat="47.1404" lon="-1.90628">
        <ele>68</ele>
        <time>2021-05-01T09:58:14.000Z</time>
      </trkpt>
      <trkpt lat="47.14025" lon="-1.9063">
        <ele>68</ele>
        <time>2021-05-01T09:58:16.000Z</time>
      </trkpt>
      <trkpt lat="47.1401" lon="-1.90634">
        <ele>68</ele>
        <time>2021-05-01T09:58:18.000Z</time>
      </trkpt>
      <trkpt lat="47.13994" lon="-1.90637">
        <ele>68</ele>
        <time>2021-05-01T09:58:20.000Z</time>
      </trkpt>
      <trkpt lat="47.13979" lon="-1.90639">
        <ele>68</ele>
        <time>2021-05-01T09:58:22.000Z</time>
      </trkpt>
      <trkpt lat="47.13963" lon="-1.90643">
        <ele>68</ele>
        <time>2021-05-01T09:58:24.000Z</time>
      </trkpt>
      <trkpt lat="47.13947" lon="-1.90646">
        <ele>67</ele>
        <time>2021-05-01T09:58:26.000Z</time>
      </trkpt>
      <trkpt lat="47.13931" lon="-1.9065">
        <ele>67</ele>
        <time>2021-05-01T09:58:28.000Z</time>
      </trkpt>
      <trkpt lat="47.13916" lon="-1.90654">
        <ele>67</ele>
        <time>2021-05-01T09:58:30.000Z</time>
      </trkpt>
      <trkpt lat="47.13901" lon="-1.90658">
        <ele>67</ele>
        <time>2021-05-01T09:58:32.000Z</time>
      </trkpt>
      <trkpt lat="47.13886" lon="-1.90662">
        <ele>67</ele>
        <time>2021-05-01T09:58:34.000Z</time>
      </trkpt>
      <trkpt lat="47.13871" lon="-1.90666">
        <ele>67</ele>
        <time>2021-05-01T09:58:36.000Z</time>
      </trkpt>
      <trkpt lat="47.13856" lon="-1.9067">
        <ele>67</ele>
        <time>2021-05-01T09:58:38.000Z</time>
      </trkpt>
      <trkpt lat="47.13841" lon="-1.90674">
        <ele>67</ele>
        <time>2021-05-01T09:58:40.000Z</time>
      </trkpt>
      <trkpt lat="47.13826" lon="-1.90677">
        <ele>66</ele>
        <time>2021-05-01T09:58:42.000Z</time>
      </trkpt>
      <trkpt lat="47.13811" lon="-1.90681">
        <ele>66</ele>
        <time>2021-05-01T09:58:44.000Z</time>
      </trkpt>
      <trkpt lat="47.13795" lon="-1.90684">
        <ele>65</ele>
        <time>2021-05-01T09:58:46.000Z</time>
      </trkpt>
      <trkpt lat="47.13779" lon="-1.9069">
        <ele>64</ele>
        <time>2021-05-01T09:58:48.000Z</time>
      </trkpt>
      <trkpt lat="47.13763" lon="-1.90699">
        <ele>64</ele>
        <time>2021-05-01T09:58:50.000Z</time>
      </trkpt>
      <trkpt lat="47.13749" lon="-1.90714">
        <ele>63</ele>
        <time>2021-05-01T09:58:52.000Z</time>
      </trkpt>
      <trkpt lat="47.13738" lon="-1.90733">
        <ele>62</ele>
        <time>2021-05-01T09:58:54.000Z</time>
      </trkpt>
      <trkpt lat="47.13729" lon="-1.90754">
        <ele>62</ele>
        <time>2021-05-01T09:58:56.000Z</time>
      </trkpt>
      <trkpt lat="47.13721" lon="-1.90774">
        <ele>62</ele>
        <time>2021-05-01T09:58:58.000Z</time>
      </trkpt>
      <trkpt lat="47.13712" lon="-1.90795">
        <ele>62</ele>
        <time>2021-05-01T09:59:00.000Z</time>
      </trkpt>
      <trkpt lat="47.13704" lon="-1.90816">
        <ele>62</ele>
        <time>2021-05-01T09:59:02.000Z</time>
      </trkpt>
      <trkpt lat="47.13695" lon="-1.90836">
        <ele>61</ele>
        <time>2021-05-01T09:59:04.000Z</time>
      </trkpt>
      <trkpt lat="47.13686" lon="-1.90857">
        <ele>61</ele>
        <time>2021-05-01T09:59:06.000Z</time>
      </trkpt>
      <trkpt lat="47.13677" lon="-1.90877">
        <ele>60</ele>
        <time>2021-05-01T09:59:08.000Z</time>
      </trkpt>
      <trkpt lat="47.13668" lon="-1.90897">
        <ele>60</ele>
        <time>2021-05-01T09:59:10.000Z</time>
      </trkpt>
      <trkpt lat="47.1366" lon="-1.90917">
        <ele>60</ele>
        <time>2021-05-01T09:59:12.000Z</time>
      </trkpt>
      <trkpt lat="47.13652" lon="-1.90936">
        <ele>60</ele>
        <time>2021-05-01T09:59:14.000Z</time>
      </trkpt>
      <trkpt lat="47.13644" lon="-1.90955">
        <ele>60</ele>
        <time>2021-05-01T09:59:16.000Z</time>
      </trkpt>
      <trkpt lat="47.13636" lon="-1.90974">
        <ele>59</ele>
        <time>2021-05-01T09:59:18.000Z</time>
      </trkpt>
      <trkpt lat="47.13627" lon="-1.90993">
        <ele>59</ele>
        <time>2021-05-01T09:59:20.000Z</time>
      </trkpt>
      <trkpt lat="47.13619" lon="-1.91012">
        <ele>60</ele>
        <time>2021-05-01T09:59:22.000Z</time>
      </trkpt>
      <trkpt lat="47.13608" lon="-1.91028">
        <ele>60</ele>
        <time>2021-05-01T09:59:24.000Z</time>
      </trkpt>
      <trkpt lat="47.13595" lon="-1.9104">
        <ele>60</ele>
        <time>2021-05-01T09:59:26.000Z</time>
      </trkpt>
      <trkpt lat="47.13581" lon="-1.91048">
        <ele>60</ele>
        <time>2021-05-01T09:59:28.000Z</time>
      </trkpt>
      <trkpt lat="47.13565" lon="-1.9105">
        <ele>61</ele>
        <time>2021-05-01T09:59:30.000Z</time>
      </trkpt>
      <trkpt lat="47.1355" lon="-1.91052">
        <ele>60</ele>
        <time>2021-05-01T09:59:32.000Z</time>
      </trkpt>
      <trkpt lat="47.13533" lon="-1.91053">
        <ele>60</ele>
        <time>2021-05-01T09:59:34.000Z</time>
      </trkpt>
      <trkpt lat="47.13518" lon="-1.91055">
        <ele>60</ele>
        <time>2021-05-01T09:59:36.000Z</time>
      </trkpt>
      <trkpt lat="47.13502" lon="-1.91057">
        <ele>59</ele>
        <time>2021-05-01T09:59:38.000Z</time>
      </trkpt>
      <trkpt lat="47.13486" lon="-1.91059">
        <ele>59</ele>
        <time>2021-05-01T09:59:40.000Z</time>
      </trkpt>
      <trkpt lat="47.1347" lon="-1.9106">
        <ele>59</ele>
        <time>2021-05-01T09:59:42.000Z</time>
      </trkpt>
      <trkpt lat="47.13455" lon="-1.91061">
        <ele>59</ele>
        <time>2021-05-01T09:59:44.000Z</time>
      </trkpt>
      <trkpt lat="47.13439" lon="-1.91061">
        <ele>59</ele>
        <time>2021-05-01T09:59:46.000Z</time>
      </trkpt>
      <trkpt lat="47.13424" lon="-1.91059">
        <ele>59</ele>
        <time>2021-05-01T09:59:48.000Z</time>
      </trkpt>
      <trkpt lat="47.13409" lon="-1.91054">
        <ele>60</ele>
        <time>2021-05-01T09:59:50.000Z</time>
      </trkpt>
      <trkpt lat="47.13395" lon="-1.91045">
        <ele>60</ele>
        <time>2021-05-01T09:59:52.000Z</time>
      </trkpt>
      <trkpt lat="47.13382" lon="-1.91033">
        <ele>59</ele>
        <time>2021-05-01T09:59:54.000Z</time>
      </trkpt>
      <trkpt lat="47.13369" lon="-1.91019">
        <ele>59</ele>
        <time>2021-05-01T09:59:56.000Z</time>
      </trkpt>
      <trkpt lat="47.13356" lon="-1.91008">
        <ele>59</ele>
        <time>2021-05-01T09:59:58.000Z</time>
      </trkpt>
      <trkpt lat="47.1334" lon="-1.91001">
        <ele>58</ele>
        <time>2021-05-01T10:00:00.000Z</time>
      </trkpt>
      <trkpt lat="47.13325" lon="-1.90999">
        <ele>58</ele>
        <time>2021-05-01T10:00:02.000Z</time>
      </trkpt>
      <trkpt lat="47.1331" lon="-1.91002">
        <ele>58</ele>
        <time>2021-05-01T10:00:04.000Z</time>
      </trkpt>
      <trkpt lat="47.13295" lon="-1.91006">
        <ele>58</ele>
        <time>2021-05-01T10:00:06.000Z</time>
      </trkpt>
      <trkpt lat="47.1328" lon="-1.91011">
        <ele>58</ele>
        <time>2021-05-01T10:00:08.000Z</time>
      </trkpt>
      <trkpt lat="47.13265" lon="-1.91015">
        <ele>58</ele>
        <time>2021-05-01T10:00:10.000Z</time>
      </trkpt>
      <trkpt lat="47.1325" lon="-1.91019">
        <ele>58</ele>
        <time>2021-05-01T10:00:12.000Z</time>
      </trkpt>
      <trkpt lat="47.13236" lon="-1.91023">
        <ele>58</ele>
        <time>2021-05-01T10:00:14.000Z</time>
      </trkpt>
      <trkpt lat="47.13221" lon="-1.91027">
        <ele>58</ele>
        <time>2021-05-01T10:00:16.000Z</time>
      </trkpt>
      <trkpt lat="47.13207" lon="-1.91031">
        <ele>58</ele>
        <time>2021-05-01T10:00:18.000Z</time>
      </trkpt>
      <trkpt lat="47.13193" lon="-1.91034">
        <ele>58</ele>
        <time>2021-05-01T10:00:20.000Z</time>
      </trkpt>
      <trkpt lat="47.13179" lon="-1.91039">
        <ele>58</ele>
        <time>2021-05-01T10:00:22.000Z</time>
      </trkpt>
      <trkpt lat="47.13165" lon="-1.91043">
        <ele>58</ele>
        <time>2021-05-01T10:00:24.000Z</time>
      </trkpt>
      <trkpt lat="47.1315" lon="-1.91047">
        <ele>58</ele>
        <time>2021-05-01T10:00:26.000Z</time>
      </trkpt>
      <trkpt lat="47.13134" lon="-1.91051">
        <ele>58</ele>
        <time>2021-05-01T10:00:28.000Z</time>
      </trkpt>
      <trkpt lat="47.1312" lon="-1.91054">
        <ele>58</ele>
        <time>2021-05-01T10:00:30.000Z</time>
      </trkpt>
      <trkpt lat="47.13105" lon="-1.91057">
        <ele>58</ele>
        <time>2021-05-01T10:00:32.000Z</time>
      </trkpt>
      <trkpt lat="47.13089" lon="-1.91059">
        <ele>58</ele>
        <time>2021-05-01T10:00:34.000Z</time>
      </trkpt>
      <trkpt lat="47.13074" lon="-1.9106">
        <ele>58</ele>
        <time>2021-05-01T10:00:36.000Z</time>
      </trkpt>
      <trkpt lat="47.13059" lon="-1.9106">
        <ele>59</ele>
        <time>2021-05-01T10:00:38.000Z</time>
      </trkpt>
      <trkpt lat="47.13044" lon="-1.9106">
        <ele>59</ele>
        <time>2021-05-01T10:00:40.000Z</time>
      </trkpt>
      <trkpt lat="47.1303" lon="-1.9106">
        <ele>59</ele>
        <time>2021-05-01T10:00:42.000Z</time>
      </trkpt>
      <trkpt lat="47.13015" lon="-1.91059">
        <ele>58</ele>
        <time>2021-05-01T10:00:44.000Z</time>
      </trkpt>
      <trkpt lat="47.13" lon="-1.91059">
        <ele>58</ele>
        <time>2021-05-01T10:00:46.000Z</time>
      </trkpt>
      <trkpt lat="47.12985" lon="-1.91059">
        <ele>58</ele>
        <time>2021-05-01T10:00:48.000Z</time>
      </trkpt>
      <trkpt lat="47.1297" lon="-1.91059">
        <ele>58</ele>
        <time>2021-05-01T10:00:50.000Z</time>
      </trkpt>
      <trkpt lat="47.12955" lon="-1.91059">
        <ele>58</ele>
        <time>2021-05-01T10:00:52.000Z</time>
      </trkpt>
      <trkpt lat="47.1294" lon="-1.91059">
        <ele>58</ele>
        <time>2021-05-01T10:00:54.000Z</time>
      </trkpt>
      <trkpt lat="47.12926" lon="-1.91059">
        <ele>58</ele>
        <time>2021-05-01T10:00:56.000Z</time>
      </trkpt>
      <trkpt lat="47.12911" lon="-1.91059">
        <ele>58</ele>
        <time>2021-05-01T10:00:58.000Z</time>
      </trkpt>
      <trkpt lat="47.12896" lon="-1.91059">
        <ele>58</ele>
        <time>2021-05-01T10:01:00.000Z</time>
      </trkpt>
      <trkpt lat="47.12882" lon="-1.91059">
        <ele>58</ele>
        <time>2021-05-01T10:01:02.000Z</time>
      </trkpt>
      <trkpt lat="47.12867" lon="-1.91059">
        <ele>58</ele>
        <time>2021-05-01T10:01:04.000Z</time>
      </trkpt>
      <trkpt lat="47.12853" lon="-1.91059">
        <ele>58</ele>
        <time>2021-05-01T10:01:06.000Z</time>
      </trkpt>
      <trkpt lat="47.12838" lon="-1.91061">
        <ele>57</ele>
        <time>2021-05-01T10:01:08.000Z</time>
      </trkpt>
      <trkpt lat="47.12824" lon="-1.91066">
        <ele>57</ele>
        <time>2021-05-01T10:01:10.000Z</time>
      </trkpt>
      <trkpt lat="47.12812" lon="-1.91076">
        <ele>57</ele>
        <time>2021-05-01T10:01:12.000Z</time>
      </trkpt>
      <trkpt lat="47.128" lon="-1.91087">
        <ele>57</ele>
        <time>2021-05-01T10:01:14.000Z</time>
      </trkpt>
      <trkpt lat="47.12788" lon="-1.91091">
        <ele>57</ele>
        <time>2021-05-01T10:01:16.000Z</time>
      </trkpt>
      <trkpt lat="47.12776" lon="-1.91081">
        <ele>57</ele>
        <time>2021-05-01T10:01:18.000Z</time>
      </trkpt>
      <trkpt lat="47.12763" lon="-1.91071">
        <ele>57</ele>
        <time>2021-05-01T10:01:20.000Z</time>
      </trkpt>
      <trkpt lat="47.1275" lon="-1.91062">
        <ele>57</ele>
        <time>2021-05-01T10:01:22.000Z</time>
      </trkpt>
      <trkpt lat="47.12735" lon="-1.9106">
        <ele>57</ele>
        <time>2021-05-01T10:01:24.000Z</time>
      </trkpt>
      <trkpt lat="47.1272" lon="-1.91059">
        <ele>57</ele>
        <time>2021-05-01T10:01:26.000Z</time>
      </trkpt>
      <trkpt lat="47.12705" lon="-1.91059">
        <ele>58</ele>
        <time>2021-05-01T10:01:28.000Z</time>
      </trkpt>
      <trkpt lat="47.12691" lon="-1.91061">
        <ele>57</ele>
        <time>2021-05-01T10:01:30.000Z</time>
      </trkpt>
      <trkpt lat="47.12677" lon="-1.91066">
        <ele>57</ele>
        <time>2021-05-01T10:01:32.000Z</time>
      </trkpt>
      <trkpt lat="47.12662" lon="-1.91067">
        <ele>57</ele>
        <time>2021-05-01T10:01:34.000Z</time>
      </trkpt>
      <trkpt lat="47.12646" lon="-1.91066">
        <ele>57</ele>
        <time>2021-05-01T10:01:36.000Z</time>
      </trkpt>
      <trkpt lat="47.12631" lon="-1.91067">
        <ele>57</ele>
        <time>2021-05-01T10:01:38.000Z</time>
      </trkpt>
      <trkpt lat="47.12617" lon="-1.91067">
        <ele>57</ele>
        <time>2021-05-01T10:01:40.000Z</time>
      </trkpt>
      <trkpt lat="47.12602" lon="-1.91066">
        <ele>58</ele>
        <time>2021-05-01T10:01:42.000Z</time>
      </trkpt>
      <trkpt lat="47.12587" lon="-1.91065">
        <ele>58</ele>
        <time>2021-05-01T10:01:44.000Z</time>
      </trkpt>
      <trkpt lat="47.12573" lon="-1.91065">
        <ele>57</ele>
        <time>2021-05-01T10:01:46.000Z</time>
      </trkpt>
      <trkpt lat="47.12558" lon="-1.91066">
        <ele>57</ele>
        <time>2021-05-01T10:01:48.000Z</time>
      </trkpt>
      <trkpt lat="47.12543" lon="-1.91066">
        <ele>57</ele>
        <time>2021-05-01T10:01:50.000Z</time>
      </trkpt>
      <trkpt lat="47.12528" lon="-1.91066">
        <ele>56</ele>
        <time>2021-05-01T10:01:52.000Z</time>
      </trkpt>
      <trkpt lat="47.12513" lon="-1.91065">
        <ele>56</ele>
        <time>2021-05-01T10:01:54.000Z</time>
      </trkpt>
      <trkpt lat="47.12499" lon="-1.91068">
        <ele>56</ele>
        <time>2021-05-01T10:01:56.000Z</time>
      </trkpt>
      <trkpt lat="47.12486" lon="-1.91073">
        <ele>56</ele>
        <time>2021-05-01T10:01:58.000Z</time>
      </trkpt>
      <trkpt lat="47.12473" lon="-1.91077">
        <ele>56</ele>
        <time>2021-05-01T10:02:00.000Z</time>
      </trkpt>
      <trkpt lat="47.1246" lon="-1.9108">
        <ele>56</ele>
        <time>2021-05-01T10:02:02.000Z</time>
      </trkpt>
      <trkpt lat="47.12446" lon="-1.91082">
        <ele>56</ele>
        <time>2021-05-01T10:02:04.000Z</time>
      </trkpt>
      <trkpt lat="47.12432" lon="-1.91088">
        <ele>57</ele>
        <time>2021-05-01T10:02:06.000Z</time>
      </trkpt>
      <trkpt lat="47.12419" lon="-1.91095">
        <ele>56</ele>
        <time>2021-05-01T10:02:08.000Z</time>
      </trkpt>
      <trkpt lat="47.12405" lon="-1.91103">
        <ele>56</ele>
        <time>2021-05-01T10:02:10.000Z</time>
      </trkpt>
      <trkpt lat="47.12394" lon="-1.91116">
        <ele>56</ele>
        <time>2021-05-01T10:02:12.000Z</time>
      </trkpt>
      <trkpt lat="47.12384" lon="-1.91133">
        <ele>55</ele>
        <time>2021-05-01T10:02:14.000Z</time>
      </trkpt>
      <trkpt lat="47.12375" lon="-1.9115">
        <ele>54</ele>
        <time>2021-05-01T10:02:16.000Z</time>
      </trkpt>
      <trkpt lat="47.12366" lon="-1.91168">
        <ele>54</ele>
        <time>2021-05-01T10:02:18.000Z</time>
      </trkpt>
      <trkpt lat="47.12357" lon="-1.91185">
        <ele>53</ele>
        <time>2021-05-01T10:02:20.000Z</time>
      </trkpt>
      <trkpt lat="47.12348" lon="-1.91203">
        <ele>53</ele>
        <time>2021-05-01T10:02:22.000Z</time>
      </trkpt>
      <trkpt lat="47.12339" lon="-1.9122">
        <ele>54</ele>
        <time>2021-05-01T10:02:24.000Z</time>
      </trkpt>
      <trkpt lat="47.1233" lon="-1.91238">
        <ele>54</ele>
        <time>2021-05-01T10:02:26.000Z</time>
      </trkpt>
      <trkpt lat="47.12322" lon="-1.91255">
        <ele>54</ele>
        <time>2021-05-01T10:02:28.000Z</time>
      </trkpt>
      <trkpt lat="47.12313" lon="-1.91272">
        <ele>55</ele>
        <time>2021-05-01T10:02:30.000Z</time>
      </trkpt>
      <trkpt lat="47.12305" lon="-1.9129">
        <ele>54</ele>
        <time>2021-05-01T10:02:32.000Z</time>
      </trkpt>
      <trkpt lat="47.12296" lon="-1.91306">
        <ele>54</ele>
        <time>2021-05-01T10:02:34.000Z</time>
      </trkpt>
      <trkpt lat="47.12288" lon="-1.91323">
        <ele>54</ele>
        <time>2021-05-01T10:02:36.000Z</time>
      </trkpt>
      <trkpt lat="47.1228" lon="-1.91339">
        <ele>54</ele>
        <time>2021-05-01T10:02:38.000Z</time>
      </trkpt>
      <trkpt lat="47.12272" lon="-1.91354">
        <ele>54</ele>
        <time>2021-05-01T10:02:40.000Z</time>
      </trkpt>
      <trkpt lat="47.12262" lon="-1.9137">
        <ele>55</ele>
        <time>2021-05-01T10:02:42.000Z</time>
      </trkpt>
      <trkpt lat="47.12253" lon="-1.91384">
        <ele>54</ele>
        <time>2021-05-01T10:02:44.000Z</time>
      </trkpt>
      <trkpt lat="47.12245" lon="-1.91397">
        <ele>55</ele>
        <time>2021-05-01T10:02:46.000Z</time>
      </trkpt>
      <trkpt lat="47.1224" lon="-1.91408">
        <ele>55</ele>
        <time>2021-05-01T10:02:48.000Z</time>
      </trkpt>
      <trkpt lat="47.12231" lon="-1.91419">
        <ele>56</ele>
        <time>2021-05-01T10:02:51.000Z</time>
      </trkpt>
      <trkpt lat="47.12222" lon="-1.91407">
        <ele>55</ele>
        <time>2021-05-01T10:02:53.000Z</time>
      </trkpt>
      <trkpt lat="47.12212" lon="-1.91395">
        <ele>55</ele>
        <time>2021-05-01T10:02:55.000Z</time>
      </trkpt>
      <trkpt lat="47.122" lon="-1.91382">
        <ele>54</ele>
        <time>2021-05-01T10:02:57.000Z</time>
      </trkpt>
      <trkpt lat="47.12188" lon="-1.9137">
        <ele>55</ele>
        <time>2021-05-01T10:02:59.000Z</time>
      </trkpt>
      <trkpt lat="47.12178" lon="-1.91356">
        <ele>55</ele>
        <time>2021-05-01T10:03:01.000Z</time>
      </trkpt>
      <trkpt lat="47.12167" lon="-1.91343">
        <ele>56</ele>
        <time>2021-05-01T10:03:03.000Z</time>
      </trkpt>
      <trkpt lat="47.12157" lon="-1.9133">
        <ele>56</ele>
        <time>2021-05-01T10:03:05.000Z</time>
      </trkpt>
      <trkpt lat="47.12148" lon="-1.91319">
        <ele>56</ele>
        <time>2021-05-01T10:03:07.000Z</time>
      </trkpt>
      <trkpt lat="47.12139" lon="-1.91307">
        <ele>56</ele>
        <time>2021-05-01T10:03:09.000Z</time>
      </trkpt>
      <trkpt lat="47.1213" lon="-1.91295">
        <ele>55</ele>
        <time>2021-05-01T10:03:11.000Z</time>
      </trkpt>
      <trkpt lat="47.1212" lon="-1.9129">
        <ele>55</ele>
        <time>2021-05-01T10:03:13.000Z</time>
      </trkpt>
      <trkpt lat="47.12111" lon="-1.913">
        <ele>56</ele>
        <time>2021-05-01T10:03:15.000Z</time>
      </trkpt>
      <trkpt lat="47.12106" lon="-1.91317">
        <ele>56</ele>
        <time>2021-05-01T10:03:17.000Z</time>
      </trkpt>
      <trkpt lat="47.121" lon="-1.91333">
        <ele>57</ele>
        <time>2021-05-01T10:03:19.000Z</time>
      </trkpt>
      <trkpt lat="47.12093" lon="-1.91348">
        <ele>57</ele>
        <time>2021-05-01T10:03:21.000Z</time>
      </trkpt>
      <trkpt lat="47.12085" lon="-1.91362">
        <ele>58</ele>
        <time>2021-05-01T10:03:23.000Z</time>
      </trkpt>
      <trkpt lat="47.12078" lon="-1.91376">
        <ele>59</ele>
        <time>2021-05-01T10:03:25.000Z</time>
      </trkpt>
      <trkpt lat="47.12069" lon="-1.91389">
        <ele>59</ele>
        <time>2021-05-01T10:03:27.000Z</time>
      </trkpt>
      <trkpt lat="47.1206" lon="-1.91401">
        <ele>59</ele>
        <time>2021-05-01T10:03:29.000Z</time>
      </trkpt>
      <trkpt lat="47.12049" lon="-1.91412">
        <ele>60</ele>
        <time>2021-05-01T10:03:31.000Z</time>
      </trkpt>
      <trkpt lat="47.12036" lon="-1.91419">
        <ele>61</ele>
        <time>2021-05-01T10:03:33.000Z</time>
      </trkpt>
      <trkpt lat="47.12023" lon="-1.91425">
        <ele>61</ele>
        <time>2021-05-01T10:03:35.000Z</time>
      </trkpt>
      <trkpt lat="47.12009" lon="-1.9143">
        <ele>61</ele>
        <time>2021-05-01T10:03:37.000Z</time>
      </trkpt>
      <trkpt lat="47.11995" lon="-1.91437">
        <ele>61</ele>
        <time>2021-05-01T10:03:39.000Z</time>
      </trkpt>
      <trkpt lat="47.11983" lon="-1.91446">
        <ele>61</ele>
        <time>2021-05-01T10:03:41.000Z</time>
      </trkpt>
      <trkpt lat="47.11972" lon="-1.91456">
        <ele>61</ele>
        <time>2021-05-01T10:03:43.000Z</time>
      </trkpt>
      <trkpt lat="47.11962" lon="-1.91467">
        <ele>61</ele>
        <time>2021-05-01T10:03:45.000Z</time>
      </trkpt>
      <trkpt lat="47.11952" lon="-1.91479">
        <ele>61</ele>
        <time>2021-05-01T10:03:47.000Z</time>
      </trkpt>
      <trkpt lat="47.11941" lon="-1.91491">
        <ele>61</ele>
        <time>2021-05-01T10:03:49.000Z</time>
      </trkpt>
      <trkpt lat="47.11931" lon="-1.91503">
        <ele>61</ele>
        <time>2021-05-01T10:03:51.000Z</time>
      </trkpt>
      <trkpt lat="47.1192" lon="-1.91517">
        <ele>61</ele>
        <time>2021-05-01T10:03:53.000Z</time>
      </trkpt>
      <trkpt lat="47.11911" lon="-1.91532">
        <ele>61</ele>
        <time>2021-05-01T10:03:55.000Z</time>
      </trkpt>
      <trkpt lat="47.11902" lon="-1.91547">
        <ele>61</ele>
        <time>2021-05-01T10:03:57.000Z</time>
      </trkpt>
      <trkpt lat="47.11892" lon="-1.91563">
        <ele>61</ele>
        <time>2021-05-01T10:03:59.000Z</time>
      </trkpt>
      <trkpt lat="47.11883" lon="-1.91578">
        <ele>61</ele>
        <time>2021-05-01T10:04:01.000Z</time>
      </trkpt>
      <trkpt lat="47.11874" lon="-1.91592">
        <ele>60</ele>
        <time>2021-05-01T10:04:03.000Z</time>
      </trkpt>
      <trkpt lat="47.11863" lon="-1.91602">
        <ele>61</ele>
        <time>2021-05-01T10:04:05.000Z</time>
      </trkpt>
      <trkpt lat="47.1185" lon="-1.91608">
        <ele>61</ele>
        <time>2021-05-01T10:04:07.000Z</time>
      </trkpt>
      <trkpt lat="47.11836" lon="-1.91612">
        <ele>61</ele>
        <time>2021-05-01T10:04:09.000Z</time>
      </trkpt>
      <trkpt lat="47.11823" lon="-1.91616">
        <ele>61</ele>
        <time>2021-05-01T10:04:11.000Z</time>
      </trkpt>
      <trkpt lat="47.1181" lon="-1.9162">
        <ele>61</ele>
        <time>2021-05-01T10:04:13.000Z</time>
      </trkpt>
      <trkpt lat="47.11798" lon="-1.91623">
        <ele>61</ele>
        <time>2021-05-01T10:04:15.000Z</time>
      </trkpt>
      <trkpt lat="47.11787" lon="-1.91629">
        <ele>61</ele>
        <time>2021-05-01T10:04:17.000Z</time>
      </trkpt>
      <trkpt lat="47.1178" lon="-1.91641">
        <ele>60</ele>
        <time>2021-05-01T10:04:19.000Z</time>
      </trkpt>
      <trkpt lat="47.11768" lon="-1.91646">
        <ele>60</ele>
        <time>2021-05-01T10:04:21.000Z</time>
      </trkpt>
      <trkpt lat="47.11755" lon="-1.91641">
        <ele>59</ele>
        <time>2021-05-01T10:04:23.000Z</time>
      </trkpt>
      <trkpt lat="47.11742" lon="-1.91637">
        <ele>59</ele>
        <time>2021-05-01T10:04:25.000Z</time>
      </trkpt>
      <trkpt lat="47.11729" lon="-1.91633">
        <ele>59</ele>
        <time>2021-05-01T10:04:27.000Z</time>
      </trkpt>
      <trkpt lat="47.11716" lon="-1.91629">
        <ele>59</ele>
        <time>2021-05-01T10:04:29.000Z</time>
      </trkpt>
      <trkpt lat="47.11702" lon="-1.91626">
        <ele>58</ele>
        <time>2021-05-01T10:04:31.000Z</time>
      </trkpt>
      <trkpt lat="47.11688" lon="-1.91623">
        <ele>59</ele>
        <time>2021-05-01T10:04:33.000Z</time>
      </trkpt>
      <trkpt lat="47.11675" lon="-1.91619">
        <ele>59</ele>
        <time>2021-05-01T10:04:35.000Z</time>
      </trkpt>
      <trkpt lat="47.11661" lon="-1.91616">
        <ele>59</ele>
        <time>2021-05-01T10:04:37.000Z</time>
      </trkpt>
      <trkpt lat="47.11648" lon="-1.91613">
        <ele>59</ele>
        <time>2021-05-01T10:04:39.000Z</time>
      </trkpt>
      <trkpt lat="47.11634" lon="-1.9161">
        <ele>58</ele>
        <time>2021-05-01T10:04:41.000Z</time>
      </trkpt>
      <trkpt lat="47.1162" lon="-1.91608">
        <ele>58</ele>
        <time>2021-05-01T10:04:43.000Z</time>
      </trkpt>
      <trkpt lat="47.11606" lon="-1.91607">
        <ele>59</ele>
        <time>2021-05-01T10:04:45.000Z</time>
      </trkpt>
      <trkpt lat="47.11593" lon="-1.91607">
        <ele>59</ele>
        <time>2021-05-01T10:04:47.000Z</time>
      </trkpt>
      <trkpt lat="47.11579" lon="-1.91608">
        <ele>59</ele>
        <time>2021-05-01T10:04:49.000Z</time>
      </trkpt>
      <trkpt lat="47.11566" lon="-1.91608">
        <ele>59</ele>
        <time>2021-05-01T10:04:51.000Z</time>
      </trkpt>
      <trkpt lat="47.11553" lon="-1.91611">
        <ele>59</ele>
        <time>2021-05-01T10:04:53.000Z</time>
      </trkpt>
      <trkpt lat="47.1154" lon="-1.91615">
        <ele>59</ele>
        <time>2021-05-01T10:04:55.000Z</time>
      </trkpt>
      <trkpt lat="47.11528" lon="-1.91619">
        <ele>60</ele>
        <time>2021-05-01T10:04:57.000Z</time>
      </trkpt>
      <trkpt lat="47.11515" lon="-1.91623">
        <ele>60</ele>
        <time>2021-05-01T10:04:59.000Z</time>
      </trkpt>
      <trkpt lat="47.11502" lon="-1.91627">
        <ele>60</ele>
        <time>2021-05-01T10:05:01.000Z</time>
      </trkpt>
      <trkpt lat="47.11489" lon="-1.91631">
        <ele>60</ele>
        <time>2021-05-01T10:05:03.000Z</time>
      </trkpt>
      <trkpt lat="47.11476" lon="-1.91635">
        <ele>60</ele>
        <time>2021-05-01T10:05:05.000Z</time>
      </trkpt>
      <trkpt lat="47.11463" lon="-1.91639">
        <ele>61</ele>
        <time>2021-05-01T10:05:07.000Z</time>
      </trkpt>
      <trkpt lat="47.11451" lon="-1.91644">
        <ele>61</ele>
        <time>2021-05-01T10:05:09.000Z</time>
      </trkpt>
      <trkpt lat="47.11438" lon="-1.9165">
        <ele>61</ele>
        <time>2021-05-01T10:05:11.000Z</time>
      </trkpt>
      <trkpt lat="47.11426" lon="-1.91655">
        <ele>60</ele>
        <time>2021-05-01T10:05:13.000Z</time>
      </trkpt>
      <trkpt lat="47.11414" lon="-1.91661">
        <ele>60</ele>
        <time>2021-05-01T10:05:15.000Z</time>
      </trkpt>
      <trkpt lat="47.11403" lon="-1.91667">
        <ele>60</ele>
        <time>2021-05-01T10:05:17.000Z</time>
      </trkpt>
      <trkpt lat="47.11389" lon="-1.91674">
        <ele>60</ele>
        <time>2021-05-01T10:05:19.000Z</time>
      </trkpt>
      <trkpt lat="47.11376" lon="-1.91681">
        <ele>60</ele>
        <time>2021-05-01T10:05:21.000Z</time>
      </trkpt>
      <trkpt lat="47.11363" lon="-1.91686">
        <ele>60</ele>
        <time>2021-05-01T10:05:23.000Z</time>
      </trkpt>
      <trkpt lat="47.11351" lon="-1.91691">
        <ele>60</ele>
        <time>2021-05-01T10:05:25.000Z</time>
      </trkpt>
      <trkpt lat="47.11337" lon="-1.91695">
        <ele>60</ele>
        <time>2021-05-01T10:05:27.000Z</time>
      </trkpt>
      <trkpt lat="47.11324" lon="-1.91699">
        <ele>60</ele>
        <time>2021-05-01T10:05:29.000Z</time>
      </trkpt>
      <trkpt lat="47.1131" lon="-1.91703">
        <ele>60</ele>
        <time>2021-05-01T10:05:31.000Z</time>
      </trkpt>
      <trkpt lat="47.11296" lon="-1.91707">
        <ele>60</ele>
        <time>2021-05-01T10:05:33.000Z</time>
      </trkpt>
      <trkpt lat="47.11283" lon="-1.9171">
        <ele>60</ele>
        <time>2021-05-01T10:05:35.000Z</time>
      </trkpt>
      <trkpt lat="47.1127" lon="-1.91714">
        <ele>60</ele>
        <time>2021-05-01T10:05:37.000Z</time>
      </trkpt>
      <trkpt lat="47.11257" lon="-1.91716">
        <ele>60</ele>
        <time>2021-05-01T10:05:39.000Z</time>
      </trkpt>
      <trkpt lat="47.11244" lon="-1.91717">
        <ele>59</ele>
        <time>2021-05-01T10:05:41.000Z</time>
      </trkpt>
      <trkpt lat="47.11231" lon="-1.91718">
        <ele>59</ele>
        <time>2021-05-01T10:05:43.000Z</time>
      </trkpt>
      <trkpt lat="47.11218" lon="-1.91719">
        <ele>59</ele>
        <time>2021-05-01T10:05:45.000Z</time>
      </trkpt>
      <trkpt lat="47.11206" lon="-1.9172">
        <ele>60</ele>
        <time>2021-05-01T10:05:47.000Z</time>
      </trkpt>
      <trkpt lat="47.11193" lon="-1.91722">
        <ele>60</ele>
        <time>2021-05-01T10:05:49.000Z</time>
      </trkpt>
      <trkpt lat="47.11181" lon="-1.91723">
        <ele>60</ele>
        <time>2021-05-01T10:05:51.000Z</time>
      </trkpt>
      <trkpt lat="47.11168" lon="-1.91725">
        <ele>60</ele>
        <time>2021-05-01T10:05:53.000Z</time>
      </trkpt>
      <trkpt lat="47.11155" lon="-1.91727">
        <ele>61</ele>
        <time>2021-05-01T10:05:55.000Z</time>
      </trkpt>
      <trkpt lat="47.11141" lon="-1.9173">
        <ele>61</ele>
        <time>2021-05-01T10:05:57.000Z</time>
      </trkpt>
      <trkpt lat="47.11128" lon="-1.91733">
        <ele>62</ele>
        <time>2021-05-01T10:05:59.000Z</time>
      </trkpt>
      <trkpt lat="47.11115" lon="-1.91737">
        <ele>62</ele>
        <time>2021-05-01T10:06:01.000Z</time>
      </trkpt>
      <trkpt lat="47.11102" lon="-1.91741">
        <ele>63</ele>
        <time>2021-05-01T10:06:03.000Z</time>
      </trkpt>
      <trkpt lat="47.11088" lon="-1.91745">
        <ele>63</ele>
        <time>2021-05-01T10:06:05.000Z</time>
      </trkpt>
      <trkpt lat="47.11075" lon="-1.91749">
        <ele>64</ele>
        <time>2021-05-01T10:06:07.000Z</time>
      </trkpt>
      <trkpt lat="47.11062" lon="-1.91753">
        <ele>64</ele>
        <time>2021-05-01T10:06:09.000Z</time>
      </trkpt>
      <trkpt lat="47.11049" lon="-1.91757">
        <ele>64</ele>
        <time>2021-05-01T10:06:11.000Z</time>
      </trkpt>
      <trkpt lat="47.11036" lon="-1.9176">
        <ele>64</ele>
        <time>2021-05-01T10:06:13.000Z</time>
      </trkpt>
      <trkpt lat="47.11022" lon="-1.91763">
        <ele>65</ele>
        <time>2021-05-01T10:06:15.000Z</time>
      </trkpt>
      <trkpt lat="47.11009" lon="-1.91763">
        <ele>65</ele>
        <time>2021-05-01T10:06:17.000Z</time>
      </trkpt>
      <trkpt lat="47.10996" lon="-1.91762">
        <ele>65</ele>
        <time>2021-05-01T10:06:19.000Z</time>
      </trkpt>
      <trkpt lat="47.10983" lon="-1.91761">
        <ele>65</ele>
        <time>2021-05-01T10:06:21.000Z</time>
      </trkpt>
      <trkpt lat="47.1097" lon="-1.91758">
        <ele>65</ele>
        <time>2021-05-01T10:06:23.000Z</time>
      </trkpt>
      <trkpt lat="47.10957" lon="-1.91755">
        <ele>65</ele>
        <time>2021-05-01T10:06:25.000Z</time>
      </trkpt>
      <trkpt lat="47.10945" lon="-1.91752">
        <ele>65</ele>
        <time>2021-05-01T10:06:27.000Z</time>
      </trkpt>
      <trkpt lat="47.10932" lon="-1.91748">
        <ele>65</ele>
        <time>2021-05-01T10:06:29.000Z</time>
      </trkpt>
      <trkpt lat="47.10919" lon="-1.91746">
        <ele>65</ele>
        <time>2021-05-01T10:06:31.000Z</time>
      </trkpt>
      <trkpt lat="47.10906" lon="-1.91745">
        <ele>66</ele>
        <time>2021-05-01T10:06:33.000Z</time>
      </trkpt>
      <trkpt lat="47.10893" lon="-1.91746">
        <ele>65</ele>
        <time>2021-05-01T10:06:35.000Z</time>
      </trkpt>
      <trkpt lat="47.10878" lon="-1.9175">
        <ele>66</ele>
        <time>2021-05-01T10:06:37.000Z</time>
      </trkpt>
      <trkpt lat="47.10864" lon="-1.91755">
        <ele>65</ele>
        <time>2021-05-01T10:06:39.000Z</time>
      </trkpt>
      <trkpt lat="47.10851" lon="-1.91766">
        <ele>65</ele>
        <time>2021-05-01T10:06:41.000Z</time>
      </trkpt>
      <trkpt lat="47.10836" lon="-1.91775">
        <ele>65</ele>
        <time>2021-05-01T10:06:43.000Z</time>
      </trkpt>
      <trkpt lat="47.10821" lon="-1.91779">
        <ele>65</ele>
        <time>2021-05-01T10:06:45.000Z</time>
      </trkpt>
      <trkpt lat="47.10805" lon="-1.91779">
        <ele>65</ele>
        <time>2021-05-01T10:06:47.000Z</time>
      </trkpt>
      <trkpt lat="47.10789" lon="-1.91778">
        <ele>66</ele>
        <time>2021-05-01T10:06:49.000Z</time>
      </trkpt>
      <trkpt lat="47.10773" lon="-1.91777">
        <ele>66</ele>
        <time>2021-05-01T10:06:51.000Z</time>
      </trkpt>
      <trkpt lat="47.10757" lon="-1.91773">
        <ele>66</ele>
        <time>2021-05-01T10:06:53.000Z</time>
      </trkpt>
      <trkpt lat="47.10742" lon="-1.9177">
        <ele>67</ele>
        <time>2021-05-01T10:06:55.000Z</time>
      </trkpt>
      <trkpt lat="47.10728" lon="-1.91767">
        <ele>67</ele>
        <time>2021-05-01T10:06:57.000Z</time>
      </trkpt>
      <trkpt lat="47.10713" lon="-1.91764">
        <ele>68</ele>
        <time>2021-05-01T10:06:59.000Z</time>
      </trkpt>
      <trkpt lat="47.10698" lon="-1.91761">
        <ele>68</ele>
        <time>2021-05-01T10:07:01.000Z</time>
      </trkpt>
      <trkpt lat="47.10684" lon="-1.91757">
        <ele>67</ele>
        <time>2021-05-01T10:07:03.000Z</time>
      </trkpt>
      <trkpt lat="47.1067" lon="-1.91754">
        <ele>67</ele>
        <time>2021-05-01T10:07:05.000Z</time>
      </trkpt>
      <trkpt lat="47.10655" lon="-1.9175">
        <ele>67</ele>
        <time>2021-05-01T10:07:07.000Z</time>
      </trkpt>
      <trkpt lat="47.1064" lon="-1.91745">
        <ele>67</ele>
        <time>2021-05-01T10:07:09.000Z</time>
      </trkpt>
      <trkpt lat="47.10626" lon="-1.9174">
        <ele>67</ele>
        <time>2021-05-01T10:07:11.000Z</time>
      </trkpt>
      <trkpt lat="47.10612" lon="-1.91737">
        <ele>66</ele>
        <time>2021-05-01T10:07:13.000Z</time>
      </trkpt>
      <trkpt lat="47.10598" lon="-1.91734">
        <ele>66</ele>
        <time>2021-05-01T10:07:15.000Z</time>
      </trkpt>
      <trkpt lat="47.10583" lon="-1.9173">
        <ele>67</ele>
        <time>2021-05-01T10:07:17.000Z</time>
      </trkpt>
      <trkpt lat="47.10568" lon="-1.91727">
        <ele>67</ele>
        <time>2021-05-01T10:07:19.000Z</time>
      </trkpt>
      <trkpt lat="47.10553" lon="-1.91724">
        <ele>67</ele>
        <time>2021-05-01T10:07:21.000Z</time>
      </trkpt>
      <trkpt lat="47.10538" lon="-1.91721">
        <ele>66</ele>
        <time>2021-05-01T10:07:23.000Z</time>
      </trkpt>
      <trkpt lat="47.10523" lon="-1.91717">
        <ele>67</ele>
        <time>2021-05-01T10:07:25.000Z</time>
      </trkpt>
      <trkpt lat="47.10507" lon="-1.91713">
        <ele>66</ele>
        <time>2021-05-01T10:07:27.000Z</time>
      </trkpt>
      <trkpt lat="47.10492" lon="-1.91711">
        <ele>66</ele>
        <time>2021-05-01T10:07:29.000Z</time>
      </trkpt>
      <trkpt lat="47.10477" lon="-1.91708">
        <ele>66</ele>
        <time>2021-05-01T10:07:31.000Z</time>
      </trkpt>
      <trkpt lat="47.10462" lon="-1.91706">
        <ele>66</ele>
        <time>2021-05-01T10:07:33.000Z</time>
      </trkpt>
      <trkpt lat="47.10448" lon="-1.91704">
        <ele>66</ele>
        <time>2021-05-01T10:07:35.000Z</time>
      </trkpt>
      <trkpt lat="47.10434" lon="-1.91703">
        <ele>66</ele>
        <time>2021-05-01T10:07:37.000Z</time>
      </trkpt>
      <trkpt lat="47.10419" lon="-1.91702">
        <ele>66</ele>
        <time>2021-05-01T10:07:39.000Z</time>
      </trkpt>
      <trkpt lat="47.10405" lon="-1.917">
        <ele>67</ele>
        <time>2021-05-01T10:07:41.000Z</time>
      </trkpt>
      <trkpt lat="47.10389" lon="-1.91699">
        <ele>67</ele>
        <time>2021-05-01T10:07:43.000Z</time>
      </trkpt>
      <trkpt lat="47.10374" lon="-1.91697">
        <ele>67</ele>
        <time>2021-05-01T10:07:45.000Z</time>
      </trkpt>
      <trkpt lat="47.10358" lon="-1.91696">
        <ele>67</ele>
        <time>2021-05-01T10:07:47.000Z</time>
      </trkpt>
      <trkpt lat="47.10344" lon="-1.91695">
        <ele>67</ele>
        <time>2021-05-01T10:07:49.000Z</time>
      </trkpt>
      <trkpt lat="47.10329" lon="-1.91695">
        <ele>67</ele>
        <time>2021-05-01T10:07:51.000Z</time>
      </trkpt>
      <trkpt lat="47.10314" lon="-1.91698">
        <ele>66</ele>
        <time>2021-05-01T10:07:53.000Z</time>
      </trkpt>
      <trkpt lat="47.103" lon="-1.91704">
        <ele>66</ele>
        <time>2021-05-01T10:07:55.000Z</time>
      </trkpt>
      <trkpt lat="47.10287" lon="-1.91713">
        <ele>65</ele>
        <time>2021-05-01T10:07:57.000Z</time>
      </trkpt>
      <trkpt lat="47.10274" lon="-1.91722">
        <ele>65</ele>
        <time>2021-05-01T10:07:59.000Z</time>
      </trkpt>
      <trkpt lat="47.10261" lon="-1.91731">
        <ele>65</ele>
        <time>2021-05-01T10:08:01.000Z</time>
      </trkpt>
      <trkpt lat="47.10247" lon="-1.91739">
        <ele>65</ele>
        <time>2021-05-01T10:08:03.000Z</time>
      </trkpt>
      <trkpt lat="47.10233" lon="-1.91744">
        <ele>66</ele>
        <time>2021-05-01T10:08:05.000Z</time>
      </trkpt>
      <trkpt lat="47.10219" lon="-1.91746">
        <ele>66</ele>
        <time>2021-05-01T10:08:07.000Z</time>
      </trkpt>
      <trkpt lat="47.10205" lon="-1.91744">
        <ele>66</ele>
        <time>2021-05-01T10:08:09.000Z</time>
      </trkpt>
      <trkpt lat="47.1019" lon="-1.91739">
        <ele>66</ele>
        <time>2021-05-01T10:08:11.000Z</time>
      </trkpt>
      <trkpt lat="47.10176" lon="-1.91733">
        <ele>66</ele>
        <time>2021-05-01T10:08:13.000Z</time>
      </trkpt>
      <trkpt lat="47.10161" lon="-1.91728">
        <ele>67</ele>
        <time>2021-05-01T10:08:15.000Z</time>
      </trkpt>
      <trkpt lat="47.10148" lon="-1.91723">
        <ele>66</ele>
        <time>2021-05-01T10:08:17.000Z</time>
      </trkpt>
      <trkpt lat="47.10133" lon="-1.91718">
        <ele>66</ele>
        <time>2021-05-01T10:08:19.000Z</time>
      </trkpt>
      <trkpt lat="47.10119" lon="-1.91717">
        <ele>66</ele>
        <time>2021-05-01T10:08:21.000Z</time>
      </trkpt>
      <trkpt lat="47.10104" lon="-1.91717">
        <ele>66</ele>
        <time>2021-05-01T10:08:23.000Z</time>
      </trkpt>
      <trkpt lat="47.10091" lon="-1.91718">
        <ele>67</ele>
        <time>2021-05-01T10:08:25.000Z</time>
      </trkpt>
      <trkpt lat="47.10076" lon="-1.9172">
        <ele>67</ele>
        <time>2021-05-01T10:08:27.000Z</time>
      </trkpt>
      <trkpt lat="47.10062" lon="-1.91722">
        <ele>67</ele>
        <time>2021-05-01T10:08:29.000Z</time>
      </trkpt>
      <trkpt lat="47.10048" lon="-1.91724">
        <ele>67</ele>
        <time>2021-05-01T10:08:31.000Z</time>
      </trkpt>
      <trkpt lat="47.10034" lon="-1.91725">
        <ele>67</ele>
        <time>2021-05-01T10:08:33.000Z</time>
      </trkpt>
      <trkpt lat="47.1002" lon="-1.91727">
        <ele>67</ele>
        <time>2021-05-01T10:08:35.000Z</time>
      </trkpt>
      <trkpt lat="47.10006" lon="-1.91729">
        <ele>67</ele>
        <time>2021-05-01T10:08:37.000Z</time>
      </trkpt>
      <trkpt lat="47.09993" lon="-1.91731">
        <ele>68</ele>
        <time>2021-05-01T10:08:39.000Z</time>
      </trkpt>
      <trkpt lat="47.09979" lon="-1.91733">
        <ele>68</ele>
        <time>2021-05-01T10:08:41.000Z</time>
      </trkpt>
      <trkpt lat="47.09966" lon="-1.91735">
        <ele>68</ele>
        <time>2021-05-01T10:08:43.000Z</time>
      </trkpt>
      <trkpt lat="47.09952" lon="-1.91736">
        <ele>68</ele>
        <time>2021-05-01T10:08:45.000Z</time>
      </trkpt>
      <trkpt lat="47.09939" lon="-1.91736">
        <ele>68</ele>
        <time>2021-05-01T10:08:47.000Z</time>
      </trkpt>
      <trkpt lat="47.09925" lon="-1.91735">
        <ele>67</ele>
        <time>2021-05-01T10:08:49.000Z</time>
      </trkpt>
      <trkpt lat="47.09911" lon="-1.91732">
        <ele>67</ele>
        <time>2021-05-01T10:08:51.000Z</time>
      </trkpt>
      <trkpt lat="47.09897" lon="-1.91728">
        <ele>67</ele>
        <time>2021-05-01T10:08:53.000Z</time>
      </trkpt>
      <trkpt lat="47.09884" lon="-1.91724">
        <ele>68</ele>
        <time>2021-05-01T10:08:55.000Z</time>
      </trkpt>
      <trkpt lat="47.0987" lon="-1.91721">
        <ele>68</ele>
        <time>2021-05-01T10:08:57.000Z</time>
      </trkpt>
      <trkpt lat="47.09857" lon="-1.91717">
        <ele>69</ele>
        <time>2021-05-01T10:08:59.000Z</time>
      </trkpt>
      <trkpt lat="47.09844" lon="-1.91712">
        <ele>69</ele>
        <time>2021-05-01T10:09:01.000Z</time>
      </trkpt>
      <trkpt lat="47.09831" lon="-1.91709">
        <ele>69</ele>
        <time>2021-05-01T10:09:03.000Z</time>
      </trkpt>
      <trkpt lat="47.09819" lon="-1.91708">
        <ele>69</ele>
        <time>2021-05-01T10:09:05.000Z</time>
      </trkpt>
      <trkpt lat="47.09809" lon="-1.91719">
        <ele>69</ele>
        <time>2021-05-01T10:09:07.000Z</time>
      </trkpt>
      <trkpt lat="47.09805" lon="-1.91736">
        <ele>70</ele>
        <time>2021-05-01T10:09:09.000Z</time>
      </trkpt>
      <trkpt lat="47.098" lon="-1.91752">
        <ele>70</ele>
        <time>2021-05-01T10:09:11.000Z</time>
      </trkpt>
      <trkpt lat="47.09791" lon="-1.91767">
        <ele>70</ele>
        <time>2021-05-01T10:09:13.000Z</time>
      </trkpt>
      <trkpt lat="47.09783" lon="-1.91782">
        <ele>69</ele>
        <time>2021-05-01T10:09:15.000Z</time>
      </trkpt>
      <trkpt lat="47.09776" lon="-1.91799">
        <ele>69</ele>
        <time>2021-05-01T10:09:17.000Z</time>
      </trkpt>
      <trkpt lat="47.09769" lon="-1.91815">
        <ele>70</ele>
        <time>2021-05-01T10:09:19.000Z</time>
      </trkpt>
      <trkpt lat="47.09762" lon="-1.91832">
        <ele>70</ele>
        <time>2021-05-01T10:09:21.000Z</time>
      </trkpt>
      <trkpt lat="47.09754" lon="-1.91848">
        <ele>70</ele>
        <time>2021-05-01T10:09:23.000Z</time>
      </trkpt>
      <trkpt lat="47.09746" lon="-1.91864">
        <ele>70</ele>
        <time>2021-05-01T10:09:25.000Z</time>
      </trkpt>
      <trkpt lat="47.09738" lon="-1.91881">
        <ele>70</ele>
        <time>2021-05-01T10:09:27.000Z</time>
      </trkpt>
      <trkpt lat="47.09731" lon="-1.91898">
        <ele>70</ele>
        <time>2021-05-01T10:09:29.000Z</time>
      </trkpt>
      <trkpt lat="47.09724" lon="-1.91915">
        <ele>70</ele>
        <time>2021-05-01T10:09:31.000Z</time>
      </trkpt>
      <trkpt lat="47.09717" lon="-1.91931">
        <ele>70</ele>
        <time>2021-05-01T10:09:33.000Z</time>
      </trkpt>
      <trkpt lat="47.09709" lon="-1.91946">
        <ele>71</ele>
        <time>2021-05-01T10:09:35.000Z</time>
      </trkpt>
      <trkpt lat="47.09702" lon="-1.91963">
        <ele>70</ele>
        <time>2021-05-01T10:09:37.000Z</time>
      </trkpt>
      <trkpt lat="47.09693" lon="-1.91979">
        <ele>70</ele>
        <time>2021-05-01T10:09:39.000Z</time>
      </trkpt>
      <trkpt lat="47.09685" lon="-1.91996">
        <ele>71</ele>
        <time>2021-05-01T10:09:41.000Z</time>
      </trkpt>
      <trkpt lat="47.09676" lon="-1.92011">
        <ele>70</ele>
        <time>2021-05-01T10:09:43.000Z</time>
      </trkpt>
      <trkpt lat="47.09667" lon="-1.92025">
        <ele>70</ele>
        <time>2021-05-01T10:09:45.000Z</time>
      </trkpt>
      <trkpt lat="47.09657" lon="-1.9204">
        <ele>71</ele>
        <time>2021-05-01T10:09:47.000Z</time>
      </trkpt>
      <trkpt lat="47.09647" lon="-1.92055">
        <ele>71</ele>
        <time>2021-05-01T10:09:49.000Z</time>
      </trkpt>
      <trkpt lat="47.09637" lon="-1.92069">
        <ele>71</ele>
        <time>2021-05-01T10:09:51.000Z</time>
      </trkpt>
      <trkpt lat="47.09627" lon="-1.92084">
        <ele>71</ele>
        <time>2021-05-01T10:09:53.000Z</time>
      </trkpt>
      <trkpt lat="47.09617" lon="-1.92096">
        <ele>71</ele>
        <time>2021-05-01T10:09:55.000Z</time>
      </trkpt>
      <trkpt lat="47.09605" lon="-1.92107">
        <ele>70</ele>
        <time>2021-05-01T10:09:57.000Z</time>
      </trkpt>
      <trkpt lat="47.09591" lon="-1.92114">
        <ele>70</ele>
        <time>2021-05-01T10:09:59.000Z</time>
      </trkpt>
      <trkpt lat="47.09578" lon="-1.92118">
        <ele>70</ele>
        <time>2021-05-01T10:10:01.000Z</time>
      </trkpt>
      <trkpt lat="47.09564" lon="-1.9212">
        <ele>69</ele>
        <time>2021-05-01T10:10:03.000Z</time>
      </trkpt>
      <trkpt lat="47.0955" lon="-1.92123">
        <ele>69</ele>
        <time>2021-05-01T10:10:05.000Z</time>
      </trkpt>
      <trkpt lat="47.09537" lon="-1.92126">
        <ele>69</ele>
        <time>2021-05-01T10:10:07.000Z</time>
      </trkpt>
      <trkpt lat="47.09524" lon="-1.92129">
        <ele>68</ele>
        <time>2021-05-01T10:10:09.000Z</time>
      </trkpt>
      <trkpt lat="47.0951" lon="-1.92133">
        <ele>68</ele>
        <time>2021-05-01T10:10:11.000Z</time>
      </trkpt>
      <trkpt lat="47.09497" lon="-1.92135">
        <ele>68</ele>
        <time>2021-05-01T10:10:13.000Z</time>
      </trkpt>
      <trkpt lat="47.09483" lon="-1.92138">
        <ele>68</ele>
        <time>2021-05-01T10:10:15.000Z</time>
      </trkpt>
      <trkpt lat="47.0947" lon="-1.92143">
        <ele>67</ele>
        <time>2021-05-01T10:10:17.000Z</time>
      </trkpt>
      <trkpt lat="47.09457" lon="-1.92148">
        <ele>68</ele>
        <time>2021-05-01T10:10:19.000Z</time>
      </trkpt>
      <trkpt lat="47.09444" lon="-1.92153">
        <ele>68</ele>
        <time>2021-05-01T10:10:21.000Z</time>
      </trkpt>
      <trkpt lat="47.09432" lon="-1.9216">
        <ele>69</ele>
        <time>2021-05-01T10:10:23.000Z</time>
      </trkpt>
      <trkpt lat="47.09422" lon="-1.92166">
        <ele>69</ele>
        <time>2021-05-01T10:10:25.000Z</time>
      </trkpt>
      <trkpt lat="47.09411" lon="-1.92174">
        <ele>69</ele>
        <time>2021-05-01T10:10:28.000Z</time>
      </trkpt>
      <trkpt lat="47.09403" lon="-1.92182">
        <ele>69</ele>
        <time>2021-05-01T10:10:32.000Z</time>
      </trkpt>
      <trkpt lat="47.09393" lon="-1.92182">
        <ele>70</ele>
        <time>2021-05-01T10:10:35.000Z</time>
      </trkpt>
      <trkpt lat="47.09384" lon="-1.92177">
        <ele>70</ele>
        <time>2021-05-01T10:10:37.000Z</time>
      </trkpt>
      <trkpt lat="47.09375" lon="-1.92171">
        <ele>70</ele>
        <time>2021-05-01T10:10:39.000Z</time>
      </trkpt>
      <trkpt lat="47.09365" lon="-1.92166">
        <ele>70</ele>
        <time>2021-05-01T10:10:41.000Z</time>
      </trkpt>
      <trkpt lat="47.09353" lon="-1.9216">
        <ele>70</ele>
        <time>2021-05-01T10:10:43.000Z</time>
      </trkpt>
      <trkpt lat="47.09341" lon="-1.92153">
        <ele>71</ele>
        <time>2021-05-01T10:10:45.000Z</time>
      </trkpt>
      <trkpt lat="47.09328" lon="-1.92145">
        <ele>71</ele>
        <time>2021-05-01T10:10:47.000Z</time>
      </trkpt>
      <trkpt lat="47.09309" lon="-1.92134">
        <ele>71</ele>
        <time>2021-05-01T10:10:50.000Z</time>
      </trkpt>
      <trkpt lat="47.09296" lon="-1.92126">
        <ele>72</ele>
        <time>2021-05-01T10:10:52.000Z</time>
      </trkpt>
      <trkpt lat="47.09283" lon="-1.92118">
        <ele>72</ele>
        <time>2021-05-01T10:10:54.000Z</time>
      </trkpt>
      <trkpt lat="47.09264" lon="-1.92105">
        <ele>72</ele>
        <time>2021-05-01T10:10:57.000Z</time>
      </trkpt>
      <trkpt lat="47.09251" lon="-1.92096">
        <ele>72</ele>
        <time>2021-05-01T10:10:59.000Z</time>
      </trkpt>
      <trkpt lat="47.09238" lon="-1.92086">
        <ele>72</ele>
        <time>2021-05-01T10:11:01.000Z</time>
      </trkpt>
      <trkpt lat="47.09227" lon="-1.92076">
        <ele>72</ele>
        <time>2021-05-01T10:11:03.000Z</time>
      </trkpt>
      <trkpt lat="47.09214" lon="-1.92065">
        <ele>72</ele>
        <time>2021-05-01T10:11:05.000Z</time>
      </trkpt>
      <trkpt lat="47.09197" lon="-1.92047">
        <ele>72</ele>
        <time>2021-05-01T10:11:08.000Z</time>
      </trkpt>
      <trkpt lat="47.09185" lon="-1.92034">
        <ele>72</ele>
        <time>2021-05-01T10:11:10.000Z</time>
      </trkpt>
      <trkpt lat="47.09169" lon="-1.92015">
        <ele>72</ele>
        <time>2021-05-01T10:11:13.000Z</time>
      </trkpt>
      <trkpt lat="47.09158" lon="-1.92001">
        <ele>72</ele>
        <time>2021-05-01T10:11:15.000Z</time>
      </trkpt>
      <trkpt lat="47.09147" lon="-1.91987">
        <ele>72</ele>
        <time>2021-05-01T10:11:17.000Z</time>
      </trkpt>
      <trkpt lat="47.09136" lon="-1.91973">
        <ele>72</ele>
        <time>2021-05-01T10:11:19.000Z</time>
      </trkpt>
      <trkpt lat="47.09126" lon="-1.91959">
        <ele>72</ele>
        <time>2021-05-01T10:11:21.000Z</time>
      </trkpt>
      <trkpt lat="47.09115" lon="-1.91945">
        <ele>72</ele>
        <time>2021-05-01T10:11:23.000Z</time>
      </trkpt>
      <trkpt lat="47.09105" lon="-1.91931">
        <ele>72</ele>
        <time>2021-05-01T10:11:25.000Z</time>
      </trkpt>
      <trkpt lat="47.09093" lon="-1.91917">
        <ele>71</ele>
        <time>2021-05-01T10:11:27.000Z</time>
      </trkpt>
      <trkpt lat="47.09083" lon="-1.91904">
        <ele>72</ele>
        <time>2021-05-01T10:11:29.000Z</time>
      </trkpt>
      <trkpt lat="47.09071" lon="-1.91891">
        <ele>71</ele>
        <time>2021-05-01T10:11:31.000Z</time>
      </trkpt>
      <trkpt lat="47.0906" lon="-1.91879">
        <ele>71</ele>
        <time>2021-05-01T10:11:33.000Z</time>
      </trkpt>
      <trkpt lat="47.09048" lon="-1.91867">
        <ele>72</ele>
        <time>2021-05-01T10:11:35.000Z</time>
      </trkpt>
      <trkpt lat="47.09036" lon="-1.91855">
        <ele>71</ele>
        <time>2021-05-01T10:11:37.000Z</time>
      </trkpt>
      <trkpt lat="47.09023" lon="-1.91844">
        <ele>71</ele>
        <time>2021-05-01T10:11:39.000Z</time>
      </trkpt>
      <trkpt lat="47.09012" lon="-1.91834">
        <ele>71</ele>
        <time>2021-05-01T10:11:41.000Z</time>
      </trkpt>
      <trkpt lat="47.09001" lon="-1.91824">
        <ele>71</ele>
        <time>2021-05-01T10:11:43.000Z</time>
      </trkpt>
      <trkpt lat="47.08992" lon="-1.91817">
        <ele>72</ele>
        <time>2021-05-01T10:11:45.000Z</time>
      </trkpt>
      <trkpt lat="47.08983" lon="-1.91815">
        <ele>71</ele>
        <time>2021-05-01T10:11:49.000Z</time>
      </trkpt>
      <trkpt lat="47.08982" lon="-1.91829">
        <ele>71</ele>
        <time>2021-05-01T10:11:55.000Z</time>
      </trkpt>
      <trkpt lat="47.08983" lon="-1.91814">
        <ele>71</ele>
        <time>2021-05-01T10:14:39.000Z</time>
      </trkpt>
      <trkpt lat="47.08974" lon="-1.91799">
        <ele>71</ele>
        <time>2021-05-01T10:14:43.000Z</time>
      </trkpt>
      <trkpt lat="47.08965" lon="-1.91791">
        <ele>71</ele>
        <time>2021-05-01T10:14:45.000Z</time>
      </trkpt>
      <trkpt lat="47.08955" lon="-1.91783">
        <ele>72</ele>
        <time>2021-05-01T10:14:47.000Z</time>
      </trkpt>
      <trkpt lat="47.08945" lon="-1.91774">
        <ele>72</ele>
        <time>2021-05-01T10:14:49.000Z</time>
      </trkpt>
      <trkpt lat="47.08934" lon="-1.91765">
        <ele>72</ele>
        <time>2021-05-01T10:14:51.000Z</time>
      </trkpt>
      <trkpt lat="47.08923" lon="-1.91756">
        <ele>72</ele>
        <time>2021-05-01T10:14:53.000Z</time>
      </trkpt>
      <trkpt lat="47.08912" lon="-1.91746">
        <ele>72</ele>
        <time>2021-05-01T10:14:55.000Z</time>
      </trkpt>
      <trkpt lat="47.089" lon="-1.91736">
        <ele>71</ele>
        <time>2021-05-01T10:14:57.000Z</time>
      </trkpt>
      <trkpt lat="47.08888" lon="-1.91726">
        <ele>71</ele>
        <time>2021-05-01T10:14:59.000Z</time>
      </trkpt>
      <trkpt lat="47.08876" lon="-1.91715">
        <ele>71</ele>
        <time>2021-05-01T10:15:01.000Z</time>
      </trkpt>
      <trkpt lat="47.08864" lon="-1.91704">
        <ele>71</ele>
        <time>2021-05-01T10:15:03.000Z</time>
      </trkpt>
      <trkpt lat="47.08851" lon="-1.91692">
        <ele>71</ele>
        <time>2021-05-01T10:15:05.000Z</time>
      </trkpt>
      <trkpt lat="47.08839" lon="-1.91681">
        <ele>70</ele>
        <time>2021-05-01T10:15:07.000Z</time>
      </trkpt>
      <trkpt lat="47.08826" lon="-1.9167">
        <ele>70</ele>
        <time>2021-05-01T10:15:09.000Z</time>
      </trkpt>
      <trkpt lat="47.08813" lon="-1.91659">
        <ele>70</ele>
        <time>2021-05-01T10:15:11.000Z</time>
      </trkpt>
      <trkpt lat="47.08801" lon="-1.91648">
        <ele>70</ele>
        <time>2021-05-01T10:15:13.000Z</time>
      </trkpt>
      <trkpt lat="47.08788" lon="-1.91637">
        <ele>70</ele>
        <time>2021-05-01T10:15:15.000Z</time>
      </trkpt>
      <trkpt lat="47.08776" lon="-1.91626">
        <ele>70</ele>
        <time>2021-05-01T10:15:17.000Z</time>
      </trkpt>
      <trkpt lat="47.08765" lon="-1.91615">
        <ele>70</ele>
        <time>2021-05-01T10:15:19.000Z</time>
      </trkpt>
      <trkpt lat="47.08753" lon="-1.91604">
        <ele>70</ele>
        <time>2021-05-01T10:15:21.000Z</time>
      </trkpt>
      <trkpt lat="47.08741" lon="-1.91594">
        <ele>71</ele>
        <time>2021-05-01T10:15:23.000Z</time>
      </trkpt>
      <trkpt lat="47.08728" lon="-1.91583">
        <ele>71</ele>
        <time>2021-05-01T10:15:25.000Z</time>
      </trkpt>
      <trkpt lat="47.08715" lon="-1.91571">
        <ele>72</ele>
        <time>2021-05-01T10:15:27.000Z</time>
      </trkpt>
      <trkpt lat="47.08702" lon="-1.91561">
        <ele>72</ele>
        <time>2021-05-01T10:15:29.000Z</time>
      </trkpt>
      <trkpt lat="47.08689" lon="-1.9155">
        <ele>71</ele>
        <time>2021-05-01T10:15:31.000Z</time>
      </trkpt>
      <trkpt lat="47.08677" lon="-1.9154">
        <ele>71</ele>
        <time>2021-05-01T10:15:33.000Z</time>
      </trkpt>
      <trkpt lat="47.08664" lon="-1.91532">
        <ele>71</ele>
        <time>2021-05-01T10:15:35.000Z</time>
      </trkpt>
      <trkpt lat="47.08649" lon="-1.91525">
        <ele>71</ele>
        <time>2021-05-01T10:15:37.000Z</time>
      </trkpt>
      <trkpt lat="47.08636" lon="-1.91518">
        <ele>71</ele>
        <time>2021-05-01T10:15:39.000Z</time>
      </trkpt>
      <trkpt lat="47.08622" lon="-1.91512">
        <ele>71</ele>
        <time>2021-05-01T10:15:41.000Z</time>
      </trkpt>
      <trkpt lat="47.08609" lon="-1.91505">
        <ele>71</ele>
        <time>2021-05-01T10:15:43.000Z</time>
      </trkpt>
      <trkpt lat="47.08595" lon="-1.91499">
        <ele>71</ele>
        <time>2021-05-01T10:15:45.000Z</time>
      </trkpt>
      <trkpt lat="47.08581" lon="-1.91493">
        <ele>71</ele>
        <time>2021-05-01T10:15:47.000Z</time>
      </trkpt>
      <trkpt lat="47.08568" lon="-1.91487">
        <ele>71</ele>
        <time>2021-05-01T10:15:49.000Z</time>
      </trkpt>
      <trkpt lat="47.08555" lon="-1.9148">
        <ele>72</ele>
        <time>2021-05-01T10:15:51.000Z</time>
      </trkpt>
      <trkpt lat="47.08541" lon="-1.91474">
        <ele>72</ele>
        <time>2021-05-01T10:15:53.000Z</time>
      </trkpt>
      <trkpt lat="47.08528" lon="-1.91467">
        <ele>72</ele>
        <time>2021-05-01T10:15:55.000Z</time>
      </trkpt>
      <trkpt lat="47.08514" lon="-1.91459">
        <ele>72</ele>
        <time>2021-05-01T10:15:57.000Z</time>
      </trkpt>
      <trkpt lat="47.08501" lon="-1.91452">
        <ele>72</ele>
        <time>2021-05-01T10:15:59.000Z</time>
      </trkpt>
      <trkpt lat="47.08488" lon="-1.91444">
        <ele>72</ele>
        <time>2021-05-01T10:16:01.000Z</time>
      </trkpt>
      <trkpt lat="47.08475" lon="-1.91436">
        <ele>72</ele>
        <time>2021-05-01T10:16:03.000Z</time>
      </trkpt>
      <trkpt lat="47.08461" lon="-1.91429">
        <ele>72</ele>
        <time>2021-05-01T10:16:05.000Z</time>
      </trkpt>
      <trkpt lat="47.08449" lon="-1.91421">
        <ele>72</ele>
        <time>2021-05-01T10:16:07.000Z</time>
      </trkpt>
      <trkpt lat="47.08436" lon="-1.91413">
        <ele>72</ele>
        <time>2021-05-01T10:16:09.000Z</time>
      </trkpt>
      <trkpt lat="47.08423" lon="-1.91407">
        <ele>72</ele>
        <time>2021-05-01T10:16:11.000Z</time>
      </trkpt>
      <trkpt lat="47.08409" lon="-1.91401">
        <ele>72</ele>
        <time>2021-05-01T10:16:13.000Z</time>
      </trkpt>
      <trkpt lat="47.08395" lon="-1.91396">
        <ele>72</ele>
        <time>2021-05-01T10:16:15.000Z</time>
      </trkpt>
      <trkpt lat="47.08382" lon="-1.9139">
        <ele>73</ele>
        <time>2021-05-01T10:16:17.000Z</time>
      </trkpt>
      <trkpt lat="47.08369" lon="-1.91385">
        <ele>72</ele>
        <time>2021-05-01T10:16:19.000Z</time>
      </trkpt>
      <trkpt lat="47.08355" lon="-1.9138">
        <ele>72</ele>
        <time>2021-05-01T10:16:21.000Z</time>
      </trkpt>
      <trkpt lat="47.08342" lon="-1.91373">
        <ele>72</ele>
        <time>2021-05-01T10:16:23.000Z</time>
      </trkpt>
      <trkpt lat="47.08328" lon="-1.91368">
        <ele>72</ele>
        <time>2021-05-01T10:16:25.000Z</time>
      </trkpt>
      <trkpt lat="47.08314" lon="-1.91362">
        <ele>72</ele>
        <time>2021-05-01T10:16:27.000Z</time>
      </trkpt>
      <trkpt lat="47.083" lon="-1.91357">
        <ele>72</ele>
        <time>2021-05-01T10:16:29.000Z</time>
      </trkpt>
      <trkpt lat="47.08286" lon="-1.91351">
        <ele>72</ele>
        <time>2021-05-01T10:16:31.000Z</time>
      </trkpt>
      <trkpt lat="47.08273" lon="-1.91346">
        <ele>72</ele>
        <time>2021-05-01T10:16:33.000Z</time>
      </trkpt>
      <trkpt lat="47.08259" lon="-1.9134">
        <ele>72</ele>
        <time>2021-05-01T10:16:35.000Z</time>
      </trkpt>
      <trkpt lat="47.08246" lon="-1.91334">
        <ele>72</ele>
        <time>2021-05-01T10:16:37.000Z</time>
      </trkpt>
      <trkpt lat="47.08232" lon="-1.91329">
        <ele>73</ele>
        <time>2021-05-01T10:16:39.000Z</time>
      </trkpt>
      <trkpt lat="47.08219" lon="-1.91324">
        <ele>73</ele>
        <time>2021-05-01T10:16:41.000Z</time>
      </trkpt>
      <trkpt lat="47.08206" lon="-1.91318">
        <ele>73</ele>
        <time>2021-05-01T10:16:43.000Z</time>
      </trkpt>
      <trkpt lat="47.08193" lon="-1.91313">
        <ele>73</ele>
        <time>2021-05-01T10:16:45.000Z</time>
      </trkpt>
      <trkpt lat="47.08181" lon="-1.91308">
        <ele>72</ele>
        <time>2021-05-01T10:16:47.000Z</time>
      </trkpt>
      <trkpt lat="47.08168" lon="-1.91302">
        <ele>73</ele>
        <time>2021-05-01T10:16:49.000Z</time>
      </trkpt>
      <trkpt lat="47.08155" lon="-1.91297">
        <ele>73</ele>
        <time>2021-05-01T10:16:51.000Z</time>
      </trkpt>
      <trkpt lat="47.08142" lon="-1.91291">
        <ele>73</ele>
        <time>2021-05-01T10:16:53.000Z</time>
      </trkpt>
      <trkpt lat="47.08129" lon="-1.91286">
        <ele>73</ele>
        <time>2021-05-01T10:16:55.000Z</time>
      </trkpt>
      <trkpt lat="47.08116" lon="-1.9128">
        <ele>73</ele>
        <time>2021-05-01T10:16:57.000Z</time>
      </trkpt>
      <trkpt lat="47.08103" lon="-1.91274">
        <ele>74</ele>
        <time>2021-05-01T10:16:59.000Z</time>
      </trkpt>
      <trkpt lat="47.0809" lon="-1.91268">
        <ele>73</ele>
        <time>2021-05-01T10:17:01.000Z</time>
      </trkpt>
      <trkpt lat="47.08076" lon="-1.91262">
        <ele>73</ele>
        <time>2021-05-01T10:17:03.000Z</time>
      </trkpt>
      <trkpt lat="47.08063" lon="-1.91255">
        <ele>73</ele>
        <time>2021-05-01T10:17:05.000Z</time>
      </trkpt>
      <trkpt lat="47.08051" lon="-1.91247">
        <ele>73</ele>
        <time>2021-05-01T10:17:07.000Z</time>
      </trkpt>
      <trkpt lat="47.08038" lon="-1.91239">
        <ele>73</ele>
        <time>2021-05-01T10:17:09.000Z</time>
      </trkpt>
      <trkpt lat="47.08026" lon="-1.9123">
        <ele>73</ele>
        <time>2021-05-01T10:17:11.000Z</time>
      </trkpt>
      <trkpt lat="47.08013" lon="-1.91221">
        <ele>73</ele>
        <time>2021-05-01T10:17:13.000Z</time>
      </trkpt>
      <trkpt lat="47.08" lon="-1.91212">
        <ele>73</ele>
        <time>2021-05-01T10:17:15.000Z</time>
      </trkpt>
      <trkpt lat="47.07988" lon="-1.91204">
        <ele>73</ele>
        <time>2021-05-01T10:17:17.000Z</time>
      </trkpt>
      <trkpt lat="47.07975" lon="-1.91196">
        <ele>73</ele>
        <time>2021-05-01T10:17:19.000Z</time>
      </trkpt>
      <trkpt lat="47.07962" lon="-1.91189">
        <ele>73</ele>
        <time>2021-05-01T10:17:21.000Z</time>
      </trkpt>
      <trkpt lat="47.07949" lon="-1.91182">
        <ele>73</ele>
        <time>2021-05-01T10:17:23.000Z</time>
      </trkpt>
      <trkpt lat="47.07935" lon="-1.91176">
        <ele>73</ele>
        <time>2021-05-01T10:17:25.000Z</time>
      </trkpt>
      <trkpt lat="47.07922" lon="-1.91171">
        <ele>73</ele>
        <time>2021-05-01T10:17:27.000Z</time>
      </trkpt>
      <trkpt lat="47.07908" lon="-1.91166">
        <ele>73</ele>
        <time>2021-05-01T10:17:29.000Z</time>
      </trkpt>
      <trkpt lat="47.07895" lon="-1.91161">
        <ele>73</ele>
        <time>2021-05-01T10:17:31.000Z</time>
      </trkpt>
      <trkpt lat="47.07881" lon="-1.91157">
        <ele>73</ele>
        <time>2021-05-01T10:17:33.000Z</time>
      </trkpt>
      <trkpt lat="47.07867" lon="-1.91151">
        <ele>73</ele>
        <time>2021-05-01T10:17:35.000Z</time>
      </trkpt>
      <trkpt lat="47.07853" lon="-1.91146">
        <ele>73</ele>
        <time>2021-05-01T10:17:37.000Z</time>
      </trkpt>
      <trkpt lat="47.0784" lon="-1.91141">
        <ele>74</ele>
        <time>2021-05-01T10:17:39.000Z</time>
      </trkpt>
      <trkpt lat="47.07826" lon="-1.91135">
        <ele>74</ele>
        <time>2021-05-01T10:17:41.000Z</time>
      </trkpt>
      <trkpt lat="47.07813" lon="-1.91129">
        <ele>75</ele>
        <time>2021-05-01T10:17:43.000Z</time>
      </trkpt>
      <trkpt lat="47.07799" lon="-1.91123">
        <ele>74</ele>
        <time>2021-05-01T10:17:45.000Z</time>
      </trkpt>
      <trkpt lat="47.07785" lon="-1.91116">
        <ele>74</ele>
        <time>2021-05-01T10:17:47.000Z</time>
      </trkpt>
      <trkpt lat="47.07772" lon="-1.91109">
        <ele>74</ele>
        <time>2021-05-01T10:17:49.000Z</time>
      </trkpt>
      <trkpt lat="47.07759" lon="-1.91102">
        <ele>73</ele>
        <time>2021-05-01T10:17:51.000Z</time>
      </trkpt>
      <trkpt lat="47.07745" lon="-1.91096">
        <ele>73</ele>
        <time>2021-05-01T10:17:53.000Z</time>
      </trkpt>
      <trkpt lat="47.07732" lon="-1.91089">
        <ele>73</ele>
        <time>2021-05-01T10:17:55.000Z</time>
      </trkpt>
      <trkpt lat="47.07718" lon="-1.91082">
        <ele>73</ele>
        <time>2021-05-01T10:17:57.000Z</time>
      </trkpt>
      <trkpt lat="47.07704" lon="-1.91075">
        <ele>73</ele>
        <time>2021-05-01T10:17:59.000Z</time>
      </trkpt>
      <trkpt lat="47.0769" lon="-1.91068">
        <ele>73</ele>
        <time>2021-05-01T10:18:01.000Z</time>
      </trkpt>
      <trkpt lat="47.07676" lon="-1.91061">
        <ele>74</ele>
        <time>2021-05-01T10:18:03.000Z</time>
      </trkpt>
      <trkpt lat="47.07662" lon="-1.91053">
        <ele>74</ele>
        <time>2021-05-01T10:18:05.000Z</time>
      </trkpt>
      <trkpt lat="47.07648" lon="-1.91047">
        <ele>74</ele>
        <time>2021-05-01T10:18:07.000Z</time>
      </trkpt>
      <trkpt lat="47.07634" lon="-1.91041">
        <ele>74</ele>
        <time>2021-05-01T10:18:09.000Z</time>
      </trkpt>
      <trkpt lat="47.07621" lon="-1.91034">
        <ele>74</ele>
        <time>2021-05-01T10:18:11.000Z</time>
      </trkpt>
      <trkpt lat="47.07607" lon="-1.91027">
        <ele>73</ele>
        <time>2021-05-01T10:18:13.000Z</time>
      </trkpt>
      <trkpt lat="47.07593" lon="-1.9102">
        <ele>73</ele>
        <time>2021-05-01T10:18:15.000Z</time>
      </trkpt>
      <trkpt lat="47.07579" lon="-1.91013">
        <ele>73</ele>
        <time>2021-05-01T10:18:17.000Z</time>
      </trkpt>
      <trkpt lat="47.07565" lon="-1.91006">
        <ele>73</ele>
        <time>2021-05-01T10:18:19.000Z</time>
      </trkpt>
      <trkpt lat="47.07551" lon="-1.90999">
        <ele>73</ele>
        <time>2021-05-01T10:18:21.000Z</time>
      </trkpt>
      <trkpt lat="47.07537" lon="-1.90992">
        <ele>73</ele>
        <time>2021-05-01T10:18:23.000Z</time>
      </trkpt>
      <trkpt lat="47.07523" lon="-1.90985">
        <ele>74</ele>
        <time>2021-05-01T10:18:25.000Z</time>
      </trkpt>
      <trkpt lat="47.07509" lon="-1.90978">
        <ele>74</ele>
        <time>2021-05-01T10:18:27.000Z</time>
      </trkpt>
      <trkpt lat="47.07496" lon="-1.90971">
        <ele>73</ele>
        <time>2021-05-01T10:18:29.000Z</time>
      </trkpt>
      <trkpt lat="47.07482" lon="-1.90964">
        <ele>73</ele>
        <time>2021-05-01T10:18:31.000Z</time>
      </trkpt>
      <trkpt lat="47.07469" lon="-1.90958">
        <ele>73</ele>
        <time>2021-05-01T10:18:33.000Z</time>
      </trkpt>
      <trkpt lat="47.07456" lon="-1.90951">
        <ele>74</ele>
        <time>2021-05-01T10:18:35.000Z</time>
      </trkpt>
      <trkpt lat="47.07443" lon="-1.90945">
        <ele>74</ele>
        <time>2021-05-01T10:18:37.000Z</time>
      </trkpt>
      <trkpt lat="47.07429" lon="-1.90937">
        <ele>74</ele>
        <time>2021-05-01T10:18:39.000Z</time>
      </trkpt>
      <trkpt lat="47.07416" lon="-1.90931">
        <ele>74</ele>
        <time>2021-05-01T10:18:41.000Z</time>
      </trkpt>
      <trkpt lat="47.07402" lon="-1.90923">
        <ele>73</ele>
        <time>2021-05-01T10:18:43.000Z</time>
      </trkpt>
      <trkpt lat="47.07389" lon="-1.90916">
        <ele>73</ele>
        <time>2021-05-01T10:18:45.000Z</time>
      </trkpt>
      <trkpt lat="47.07375" lon="-1.90908">
        <ele>73</ele>
        <time>2021-05-01T10:18:47.000Z</time>
      </trkpt>
      <trkpt lat="47.07362" lon="-1.90897">
        <ele>73</ele>
        <time>2021-05-01T10:18:49.000Z</time>
      </trkpt>
      <trkpt lat="47.07349" lon="-1.90888">
        <ele>73</ele>
        <time>2021-05-01T10:18:51.000Z</time>
      </trkpt>
      <trkpt lat="47.07336" lon="-1.90876">
        <ele>73</ele>
        <time>2021-05-01T10:18:53.000Z</time>
      </trkpt>
      <trkpt lat="47.07324" lon="-1.90864">
        <ele>73</ele>
        <time>2021-05-01T10:18:55.000Z</time>
      </trkpt>
      <trkpt lat="47.07312" lon="-1.90852">
        <ele>72</ele>
        <time>2021-05-01T10:18:57.000Z</time>
      </trkpt>
      <trkpt lat="47.07299" lon="-1.90839">
        <ele>72</ele>
        <time>2021-05-01T10:18:59.000Z</time>
      </trkpt>
      <trkpt lat="47.07287" lon="-1.90826">
        <ele>72</ele>
        <time>2021-05-01T10:19:01.000Z</time>
      </trkpt>
      <trkpt lat="47.07276" lon="-1.90812">
        <ele>72</ele>
        <time>2021-05-01T10:19:03.000Z</time>
      </trkpt>
      <trkpt lat="47.07263" lon="-1.90799">
        <ele>72</ele>
        <time>2021-05-01T10:19:05.000Z</time>
      </trkpt>
      <trkpt lat="47.07251" lon="-1.90786">
        <ele>71</ele>
        <time>2021-05-01T10:19:07.000Z</time>
      </trkpt>
      <trkpt lat="47.07239" lon="-1.90773">
        <ele>71</ele>
        <time>2021-05-01T10:19:09.000Z</time>
      </trkpt>
      <trkpt lat="47.07227" lon="-1.9076">
        <ele>71</ele>
        <time>2021-05-01T10:19:11.000Z</time>
      </trkpt>
      <trkpt lat="47.07214" lon="-1.90747">
        <ele>71</ele>
        <time>2021-05-01T10:19:13.000Z</time>
      </trkpt>
      <trkpt lat="47.07202" lon="-1.90734">
        <ele>71</ele>
        <time>2021-05-01T10:19:15.000Z</time>
      </trkpt>
      <trkpt lat="47.07189" lon="-1.90722">
        <ele>71</ele>
        <time>2021-05-01T10:19:17.000Z</time>
      </trkpt>
      <trkpt lat="47.07176" lon="-1.9071">
        <ele>71</ele>
        <time>2021-05-01T10:19:19.000Z</time>
      </trkpt>
      <trkpt lat="47.07163" lon="-1.907">
        <ele>71</ele>
        <time>2021-05-01T10:19:21.000Z</time>
      </trkpt>
      <trkpt lat="47.07149" lon="-1.9069">
        <ele>71</ele>
        <time>2021-05-01T10:19:23.000Z</time>
      </trkpt>
      <trkpt lat="47.07136" lon="-1.90681">
        <ele>71</ele>
        <time>2021-05-01T10:19:25.000Z</time>
      </trkpt>
      <trkpt lat="47.07122" lon="-1.90671">
        <ele>71</ele>
        <time>2021-05-01T10:19:27.000Z</time>
      </trkpt>
      <trkpt lat="47.07109" lon="-1.90662">
        <ele>71</ele>
        <time>2021-05-01T10:19:29.000Z</time>
      </trkpt>
      <trkpt lat="47.07096" lon="-1.90655">
        <ele>72</ele>
        <time>2021-05-01T10:19:31.000Z</time>
      </trkpt>
      <trkpt lat="47.07083" lon="-1.90646">
        <ele>72</ele>
        <time>2021-05-01T10:19:33.000Z</time>
      </trkpt>
      <trkpt lat="47.0707" lon="-1.90639">
        <ele>72</ele>
        <time>2021-05-01T10:19:35.000Z</time>
      </trkpt>
      <trkpt lat="47.07057" lon="-1.90631">
        <ele>72</ele>
        <time>2021-05-01T10:19:37.000Z</time>
      </trkpt>
      <trkpt lat="47.07044" lon="-1.90623">
        <ele>72</ele>
        <time>2021-05-01T10:19:39.000Z</time>
      </trkpt>
      <trkpt lat="47.07031" lon="-1.90616">
        <ele>72</ele>
        <time>2021-05-01T10:19:41.000Z</time>
      </trkpt>
      <trkpt lat="47.07019" lon="-1.9061">
        <ele>72</ele>
        <time>2021-05-01T10:19:43.000Z</time>
      </trkpt>
      <trkpt lat="47.07007" lon="-1.90604">
        <ele>72</ele>
        <time>2021-05-01T10:19:45.000Z</time>
      </trkpt>
      <trkpt lat="47.06995" lon="-1.90598">
        <ele>73</ele>
        <time>2021-05-01T10:19:47.000Z</time>
      </trkpt>
      <trkpt lat="47.06982" lon="-1.90591">
        <ele>73</ele>
        <time>2021-05-01T10:19:49.000Z</time>
      </trkpt>
      <trkpt lat="47.06969" lon="-1.90585">
        <ele>73</ele>
        <time>2021-05-01T10:19:51.000Z</time>
      </trkpt>
      <trkpt lat="47.06957" lon="-1.90579">
        <ele>73</ele>
        <time>2021-05-01T10:19:53.000Z</time>
      </trkpt>
      <trkpt lat="47.06944" lon="-1.90572">
        <ele>72</ele>
        <time>2021-05-01T10:19:55.000Z</time>
      </trkpt>
      <trkpt lat="47.06931" lon="-1.90566">
        <ele>72</ele>
        <time>2021-05-01T10:19:57.000Z</time>
      </trkpt>
      <trkpt lat="47.06919" lon="-1.90561">
        <ele>72</ele>
        <time>2021-05-01T10:19:59.000Z</time>
      </trkpt>
      <trkpt lat="47.06908" lon="-1.90555">
        <ele>72</ele>
        <time>2021-05-01T10:20:01.000Z</time>
      </trkpt>
      <trkpt lat="47.06896" lon="-1.90551">
        <ele>72</ele>
        <time>2021-05-01T10:20:03.000Z</time>
      </trkpt>
      <trkpt lat="47.06887" lon="-1.90546">
        <ele>72</ele>
        <time>2021-05-01T10:20:05.000Z</time>
      </trkpt>
      <trkpt lat="47.06875" lon="-1.90539">
        <ele>72</ele>
        <time>2021-05-01T10:20:08.000Z</time>
      </trkpt>
      <trkpt lat="47.06866" lon="-1.90533">
        <ele>73</ele>
        <time>2021-05-01T10:20:10.000Z</time>
      </trkpt>
      <trkpt lat="47.06856" lon="-1.90523">
        <ele>73</ele>
        <time>2021-05-01T10:20:12.000Z</time>
      </trkpt>
      <trkpt lat="47.06846" lon="-1.9051">
        <ele>72</ele>
        <time>2021-05-01T10:20:14.000Z</time>
      </trkpt>
      <trkpt lat="47.06835" lon="-1.90497">
        <ele>72</ele>
        <time>2021-05-01T10:20:16.000Z</time>
      </trkpt>
      <trkpt lat="47.06824" lon="-1.90484">
        <ele>72</ele>
        <time>2021-05-01T10:20:18.000Z</time>
      </trkpt>
      <trkpt lat="47.06813" lon="-1.90471">
        <ele>72</ele>
        <time>2021-05-01T10:20:20.000Z</time>
      </trkpt>
      <trkpt lat="47.06802" lon="-1.90459">
        <ele>72</ele>
        <time>2021-05-01T10:20:22.000Z</time>
      </trkpt>
      <trkpt lat="47.06791" lon="-1.90447">
        <ele>72</ele>
        <time>2021-05-01T10:20:24.000Z</time>
      </trkpt>
      <trkpt lat="47.06781" lon="-1.90434">
        <ele>73</ele>
        <time>2021-05-01T10:20:26.000Z</time>
      </trkpt>
      <trkpt lat="47.0677" lon="-1.9042">
        <ele>73</ele>
        <time>2021-05-01T10:20:28.000Z</time>
      </trkpt>
      <trkpt lat="47.0676" lon="-1.90407">
        <ele>73</ele>
        <time>2021-05-01T10:20:30.000Z</time>
      </trkpt>
      <trkpt lat="47.06749" lon="-1.90394">
        <ele>73</ele>
        <time>2021-05-01T10:20:32.000Z</time>
      </trkpt>
      <trkpt lat="47.06739" lon="-1.9038">
        <ele>73</ele>
        <time>2021-05-01T10:20:34.000Z</time>
      </trkpt>
      <trkpt lat="47.06729" lon="-1.90366">
        <ele>73</ele>
        <time>2021-05-01T10:20:36.000Z</time>
      </trkpt>
      <trkpt lat="47.06719" lon="-1.90353">
        <ele>73</ele>
        <time>2021-05-01T10:20:38.000Z</time>
      </trkpt>
      <trkpt lat="47.06709" lon="-1.9034">
        <ele>73</ele>
        <time>2021-05-01T10:20:40.000Z</time>
      </trkpt>
      <trkpt lat="47.06699" lon="-1.90327">
        <ele>73</ele>
        <time>2021-05-01T10:20:42.000Z</time>
      </trkpt>
      <trkpt lat="47.0669" lon="-1.90314">
        <ele>73</ele>
        <time>2021-05-01T10:20:44.000Z</time>
      </trkpt>
      <trkpt lat="47.0668" lon="-1.903">
        <ele>73</ele>
        <time>2021-05-01T10:20:46.000Z</time>
      </trkpt>
      <trkpt lat="47.06671" lon="-1.90287">
        <ele>73</ele>
        <time>2021-05-01T10:20:48.000Z</time>
      </trkpt>
      <trkpt lat="47.06662" lon="-1.90273">
        <ele>73</ele>
        <time>2021-05-01T10:20:50.000Z</time>
      </trkpt>
      <trkpt lat="47.06653" lon="-1.9026">
        <ele>73</ele>
        <time>2021-05-01T10:20:52.000Z</time>
      </trkpt>
      <trkpt lat="47.06644" lon="-1.90246">
        <ele>74</ele>
        <time>2021-05-01T10:20:54.000Z</time>
      </trkpt>
      <trkpt lat="47.06635" lon="-1.90233">
        <ele>74</ele>
        <time>2021-05-01T10:20:56.000Z</time>
      </trkpt>
      <trkpt lat="47.06626" lon="-1.9022">
        <ele>74</ele>
        <time>2021-05-01T10:20:58.000Z</time>
      </trkpt>
      <trkpt lat="47.06617" lon="-1.90206">
        <ele>74</ele>
        <time>2021-05-01T10:21:00.000Z</time>
      </trkpt>
      <trkpt lat="47.06608" lon="-1.90192">
        <ele>74</ele>
        <time>2021-05-01T10:21:02.000Z</time>
      </trkpt>
      <trkpt lat="47.06599" lon="-1.90179">
        <ele>74</ele>
        <time>2021-05-01T10:21:04.000Z</time>
      </trkpt>
      <trkpt lat="47.06589" lon="-1.90166">
        <ele>74</ele>
        <time>2021-05-01T10:21:06.000Z</time>
      </trkpt>
      <trkpt lat="47.06581" lon="-1.90152">
        <ele>74</ele>
        <time>2021-05-01T10:21:08.000Z</time>
      </trkpt>
      <trkpt lat="47.06571" lon="-1.90139">
        <ele>74</ele>
        <time>2021-05-01T10:21:10.000Z</time>
      </trkpt>
      <trkpt lat="47.06562" lon="-1.90125">
        <ele>74</ele>
        <time>2021-05-01T10:21:12.000Z</time>
      </trkpt>
      <trkpt lat="47.06553" lon="-1.90112">
        <ele>74</ele>
        <time>2021-05-01T10:21:14.000Z</time>
      </trkpt>
      <trkpt lat="47.06543" lon="-1.901">
        <ele>74</ele>
        <time>2021-05-01T10:21:16.000Z</time>
      </trkpt>
      <trkpt lat="47.06533" lon="-1.90087">
        <ele>74</ele>
        <time>2021-05-01T10:21:18.000Z</time>
      </trkpt>
      <trkpt lat="47.06522" lon="-1.90075">
        <ele>74</ele>
        <time>2021-05-01T10:21:20.000Z</time>
      </trkpt>
      <trkpt lat="47.06511" lon="-1.90064">
        <ele>74</ele>
        <time>2021-05-01T10:21:22.000Z</time>
      </trkpt>
      <trkpt lat="47.065" lon="-1.90053">
        <ele>74</ele>
        <time>2021-05-01T10:21:24.000Z</time>
      </trkpt>
      <trkpt lat="47.06489" lon="-1.90043">
        <ele>74</ele>
        <time>2021-05-01T10:21:26.000Z</time>
      </trkpt>
      <trkpt lat="47.06479" lon="-1.90032">
        <ele>74</ele>
        <time>2021-05-01T10:21:28.000Z</time>
      </trkpt>
      <trkpt lat="47.06468" lon="-1.90021">
        <ele>74</ele>
        <time>2021-05-01T10:21:30.000Z</time>
      </trkpt>
      <trkpt lat="47.06457" lon="-1.9001">
        <ele>74</ele>
        <time>2021-05-01T10:21:32.000Z</time>
      </trkpt>
      <trkpt lat="47.06447" lon="-1.89999">
        <ele>74</ele>
        <time>2021-05-01T10:21:34.000Z</time>
      </trkpt>
      <trkpt lat="47.06436" lon="-1.89988">
        <ele>74</ele>
        <time>2021-05-01T10:21:36.000Z</time>
      </trkpt>
      <trkpt lat="47.06426" lon="-1.89976">
        <ele>74</ele>
        <time>2021-05-01T10:21:38.000Z</time>
      </trkpt>
      <trkpt lat="47.06416" lon="-1.89963">
        <ele>74</ele>
        <time>2021-05-01T10:21:40.000Z</time>
      </trkpt>
      <trkpt lat="47.06406" lon="-1.89951">
        <ele>74</ele>
        <time>2021-05-01T10:21:42.000Z</time>
      </trkpt>
      <trkpt lat="47.06395" lon="-1.89938">
        <ele>74</ele>
        <time>2021-05-01T10:21:44.000Z</time>
      </trkpt>
      <trkpt lat="47.06386" lon="-1.89925">
        <ele>74</ele>
        <time>2021-05-01T10:21:46.000Z</time>
      </trkpt>
      <trkpt lat="47.06376" lon="-1.89912">
        <ele>74</ele>
        <time>2021-05-01T10:21:48.000Z</time>
      </trkpt>
      <trkpt lat="47.06366" lon="-1.899">
        <ele>74</ele>
        <time>2021-05-01T10:21:50.000Z</time>
      </trkpt>
      <trkpt lat="47.06356" lon="-1.89887">
        <ele>75</ele>
        <time>2021-05-01T10:21:52.000Z</time>
      </trkpt>
      <trkpt lat="47.06347" lon="-1.89875">
        <ele>75</ele>
        <time>2021-05-01T10:21:54.000Z</time>
      </trkpt>
      <trkpt lat="47.06337" lon="-1.89863">
        <ele>75</ele>
        <time>2021-05-01T10:21:56.000Z</time>
      </trkpt>
      <trkpt lat="47.06328" lon="-1.8985">
        <ele>75</ele>
        <time>2021-05-01T10:21:58.000Z</time>
      </trkpt>
      <trkpt lat="47.06318" lon="-1.89838">
        <ele>75</ele>
        <time>2021-05-01T10:22:00.000Z</time>
      </trkpt>
      <trkpt lat="47.06308" lon="-1.89826">
        <ele>75</ele>
        <time>2021-05-01T10:22:02.000Z</time>
      </trkpt>
      <trkpt lat="47.06299" lon="-1.89814">
        <ele>75</ele>
        <time>2021-05-01T10:22:04.000Z</time>
      </trkpt>
      <trkpt lat="47.06289" lon="-1.89801">
        <ele>75</ele>
        <time>2021-05-01T10:22:06.000Z</time>
      </trkpt>
      <trkpt lat="47.0628" lon="-1.89789">
        <ele>75</ele>
        <time>2021-05-01T10:22:08.000Z</time>
      </trkpt>
      <trkpt lat="47.06269" lon="-1.89777">
        <ele>75</ele>
        <time>2021-05-01T10:22:10.000Z</time>
      </trkpt>
      <trkpt lat="47.06258" lon="-1.89767">
        <ele>75</ele>
        <time>2021-05-01T10:22:12.000Z</time>
      </trkpt>
      <trkpt lat="47.06248" lon="-1.89758">
        <ele>75</ele>
        <time>2021-05-01T10:22:14.000Z</time>
      </trkpt>
      <trkpt lat="47.06237" lon="-1.89748">
        <ele>75</ele>
        <time>2021-05-01T10:22:16.000Z</time>
      </trkpt>
      <trkpt lat="47.06225" lon="-1.8974">
        <ele>76</ele>
        <time>2021-05-01T10:22:18.000Z</time>
      </trkpt>
      <trkpt lat="47.06214" lon="-1.89732">
        <ele>76</ele>
        <time>2021-05-01T10:22:20.000Z</time>
      </trkpt>
      <trkpt lat="47.06202" lon="-1.89724">
        <ele>76</ele>
        <time>2021-05-01T10:22:22.000Z</time>
      </trkpt>
      <trkpt lat="47.0619" lon="-1.89715">
        <ele>76</ele>
        <time>2021-05-01T10:22:24.000Z</time>
      </trkpt>
      <trkpt lat="47.06178" lon="-1.89706">
        <ele>76</ele>
        <time>2021-05-01T10:22:26.000Z</time>
      </trkpt>
      <trkpt lat="47.06166" lon="-1.89698">
        <ele>76</ele>
        <time>2021-05-01T10:22:28.000Z</time>
      </trkpt>
      <trkpt lat="47.06155" lon="-1.89689">
        <ele>76</ele>
        <time>2021-05-01T10:22:30.000Z</time>
      </trkpt>
      <trkpt lat="47.06143" lon="-1.89681">
        <ele>76</ele>
        <time>2021-05-01T10:22:32.000Z</time>
      </trkpt>
      <trkpt lat="47.06132" lon="-1.89672">
        <ele>76</ele>
        <time>2021-05-01T10:22:34.000Z</time>
      </trkpt>
      <trkpt lat="47.06121" lon="-1.89663">
        <ele>76</ele>
        <time>2021-05-01T10:22:36.000Z</time>
      </trkpt>
      <trkpt lat="47.0611" lon="-1.89653">
        <ele>77</ele>
        <time>2021-05-01T10:22:38.000Z</time>
      </trkpt>
      <trkpt lat="47.06098" lon="-1.89643">
        <ele>77</ele>
        <time>2021-05-01T10:22:40.000Z</time>
      </trkpt>
      <trkpt lat="47.06087" lon="-1.89633">
        <ele>77</ele>
        <time>2021-05-01T10:22:42.000Z</time>
      </trkpt>
      <trkpt lat="47.06076" lon="-1.89624">
        <ele>77</ele>
        <time>2021-05-01T10:22:44.000Z</time>
      </trkpt>
      <trkpt lat="47.06065" lon="-1.89612">
        <ele>76</ele>
        <time>2021-05-01T10:22:46.000Z</time>
      </trkpt>
      <trkpt lat="47.06054" lon="-1.89601">
        <ele>76</ele>
        <time>2021-05-01T10:22:48.000Z</time>
      </trkpt>
      <trkpt lat="47.06043" lon="-1.8959">
        <ele>76</ele>
        <time>2021-05-01T10:22:50.000Z</time>
      </trkpt>
      <trkpt lat="47.06032" lon="-1.89579">
        <ele>76</ele>
        <time>2021-05-01T10:22:52.000Z</time>
      </trkpt>
      <trkpt lat="47.06022" lon="-1.89568">
        <ele>76</ele>
        <time>2021-05-01T10:22:54.000Z</time>
      </trkpt>
      <trkpt lat="47.06011" lon="-1.89556">
        <ele>76</ele>
        <time>2021-05-01T10:22:56.000Z</time>
      </trkpt>
      <trkpt lat="47.06" lon="-1.89544">
        <ele>76</ele>
        <time>2021-05-01T10:22:58.000Z</time>
      </trkpt>
      <trkpt lat="47.0599" lon="-1.89533">
        <ele>77</ele>
        <time>2021-05-01T10:23:00.000Z</time>
      </trkpt>
      <trkpt lat="47.05979" lon="-1.89523">
        <ele>77</ele>
        <time>2021-05-01T10:23:02.000Z</time>
      </trkpt>
      <trkpt lat="47.05968" lon="-1.89512">
        <ele>77</ele>
        <time>2021-05-01T10:23:04.000Z</time>
      </trkpt>
      <trkpt lat="47.05957" lon="-1.89502">
        <ele>77</ele>
        <time>2021-05-01T10:23:06.000Z</time>
      </trkpt>
      <trkpt lat="47.05946" lon="-1.89491">
        <ele>77</ele>
        <time>2021-05-01T10:23:08.000Z</time>
      </trkpt>
      <trkpt lat="47.05934" lon="-1.89482">
        <ele>77</ele>
        <time>2021-05-01T10:23:10.000Z</time>
      </trkpt>
      <trkpt lat="47.05923" lon="-1.89472">
        <ele>77</ele>
        <time>2021-05-01T10:23:12.000Z</time>
      </trkpt>
      <trkpt lat="47.05912" lon="-1.89462">
        <ele>77</ele>
        <time>2021-05-01T10:23:14.000Z</time>
      </trkpt>
      <trkpt lat="47.05901" lon="-1.89452">
        <ele>77</ele>
        <time>2021-05-01T10:23:16.000Z</time>
      </trkpt>
      <trkpt lat="47.0589" lon="-1.89443">
        <ele>77</ele>
        <time>2021-05-01T10:23:18.000Z</time>
      </trkpt>
      <trkpt lat="47.05879" lon="-1.89434">
        <ele>77</ele>
        <time>2021-05-01T10:23:20.000Z</time>
      </trkpt>
      <trkpt lat="47.05867" lon="-1.89423">
        <ele>77</ele>
        <time>2021-05-01T10:23:22.000Z</time>
      </trkpt>
      <trkpt lat="47.05856" lon="-1.89414">
        <ele>78</ele>
        <time>2021-05-01T10:23:24.000Z</time>
      </trkpt>
      <trkpt lat="47.05845" lon="-1.89404">
        <ele>78</ele>
        <time>2021-05-01T10:23:26.000Z</time>
      </trkpt>
      <trkpt lat="47.05834" lon="-1.89395">
        <ele>78</ele>
        <time>2021-05-01T10:23:28.000Z</time>
      </trkpt>
      <trkpt lat="47.05823" lon="-1.89385">
        <ele>78</ele>
        <time>2021-05-01T10:23:30.000Z</time>
      </trkpt>
      <trkpt lat="47.05812" lon="-1.89375">
        <ele>78</ele>
        <time>2021-05-01T10:23:32.000Z</time>
      </trkpt>
      <trkpt lat="47.05802" lon="-1.89366">
        <ele>78</ele>
        <time>2021-05-01T10:23:34.000Z</time>
      </trkpt>
      <trkpt lat="47.05791" lon="-1.89357">
        <ele>78</ele>
        <time>2021-05-01T10:23:36.000Z</time>
      </trkpt>
      <trkpt lat="47.05781" lon="-1.89348">
        <ele>78</ele>
        <time>2021-05-01T10:23:38.000Z</time>
      </trkpt>
      <trkpt lat="47.05771" lon="-1.89339">
        <ele>78</ele>
        <time>2021-05-01T10:23:40.000Z</time>
      </trkpt>
      <trkpt lat="47.0576" lon="-1.8933">
        <ele>78</ele>
        <time>2021-05-01T10:23:42.000Z</time>
      </trkpt>
      <trkpt lat="47.05749" lon="-1.89324">
        <ele>78</ele>
        <time>2021-05-01T10:23:44.000Z</time>
      </trkpt>
      <trkpt lat="47.05737" lon="-1.89325">
        <ele>78</ele>
        <time>2021-05-01T10:23:46.000Z</time>
      </trkpt>
      <trkpt lat="47.05724" lon="-1.89326">
        <ele>77</ele>
        <time>2021-05-01T10:23:48.000Z</time>
      </trkpt>
      <trkpt lat="47.0571" lon="-1.89327">
        <ele>78</ele>
        <time>2021-05-01T10:23:50.000Z</time>
      </trkpt>
      <trkpt lat="47.05697" lon="-1.89328">
        <ele>78</ele>
        <time>2021-05-01T10:23:52.000Z</time>
      </trkpt>
      <trkpt lat="47.05684" lon="-1.89329">
        <ele>78</ele>
        <time>2021-05-01T10:23:54.000Z</time>
      </trkpt>
      <trkpt lat="47.0567" lon="-1.89329">
        <ele>78</ele>
        <time>2021-05-01T10:23:56.000Z</time>
      </trkpt>
      <trkpt lat="47.05657" lon="-1.8933">
        <ele>78</ele>
        <time>2021-05-01T10:23:58.000Z</time>
      </trkpt>
      <trkpt lat="47.05644" lon="-1.8933">
        <ele>78</ele>
        <time>2021-05-01T10:24:00.000Z</time>
      </trkpt>
      <trkpt lat="47.05631" lon="-1.89331">
        <ele>78</ele>
        <time>2021-05-01T10:24:02.000Z</time>
      </trkpt>
      <trkpt lat="47.05617" lon="-1.89332">
        <ele>78</ele>
        <time>2021-05-01T10:24:04.000Z</time>
      </trkpt>
      <trkpt lat="47.05603" lon="-1.89333">
        <ele>78</ele>
        <time>2021-05-01T10:24:06.000Z</time>
      </trkpt>
      <trkpt lat="47.0559" lon="-1.89334">
        <ele>78</ele>
        <time>2021-05-01T10:24:08.000Z</time>
      </trkpt>
      <trkpt lat="47.05577" lon="-1.89335">
        <ele>78</ele>
        <time>2021-05-01T10:24:10.000Z</time>
      </trkpt>
      <trkpt lat="47.05564" lon="-1.89336">
        <ele>77</ele>
        <time>2021-05-01T10:24:12.000Z</time>
      </trkpt>
      <trkpt lat="47.0555" lon="-1.89336">
        <ele>77</ele>
        <time>2021-05-01T10:24:14.000Z</time>
      </trkpt>
      <trkpt lat="47.05537" lon="-1.89338">
        <ele>78</ele>
        <time>2021-05-01T10:24:16.000Z</time>
      </trkpt>
      <trkpt lat="47.05525" lon="-1.89338">
        <ele>78</ele>
        <time>2021-05-01T10:24:18.000Z</time>
      </trkpt>
      <trkpt lat="47.05512" lon="-1.8934">
        <ele>78</ele>
        <time>2021-05-01T10:24:20.000Z</time>
      </trkpt>
      <trkpt lat="47.05499" lon="-1.89343">
        <ele>78</ele>
        <time>2021-05-01T10:24:22.000Z</time>
      </trkpt>
      <trkpt lat="47.05486" lon="-1.89346">
        <ele>78</ele>
        <time>2021-05-01T10:24:24.000Z</time>
      </trkpt>
      <trkpt lat="47.05473" lon="-1.8935">
        <ele>79</ele>
        <time>2021-05-01T10:24:26.000Z</time>
      </trkpt>
      <trkpt lat="47.0546" lon="-1.89353">
        <ele>79</ele>
        <time>2021-05-01T10:24:28.000Z</time>
      </trkpt>
      <trkpt lat="47.05447" lon="-1.89356">
        <ele>79</ele>
        <time>2021-05-01T10:24:30.000Z</time>
      </trkpt>
      <trkpt lat="47.05434" lon="-1.89356">
        <ele>79</ele>
        <time>2021-05-01T10:24:32.000Z</time>
      </trkpt>
      <trkpt lat="47.05421" lon="-1.89356">
        <ele>79</ele>
        <time>2021-05-01T10:24:34.000Z</time>
      </trkpt>
      <trkpt lat="47.05408" lon="-1.89354">
        <ele>79</ele>
        <time>2021-05-01T10:24:36.000Z</time>
      </trkpt>
      <trkpt lat="47.05395" lon="-1.89352">
        <ele>79</ele>
        <time>2021-05-01T10:24:38.000Z</time>
      </trkpt>
      <trkpt lat="47.05383" lon="-1.89349">
        <ele>80</ele>
        <time>2021-05-01T10:24:40.000Z</time>
      </trkpt>
      <trkpt lat="47.0537" lon="-1.89347">
        <ele>80</ele>
        <time>2021-05-01T10:24:42.000Z</time>
      </trkpt>
      <trkpt lat="47.05357" lon="-1.89344">
        <ele>79</ele>
        <time>2021-05-01T10:24:44.000Z</time>
      </trkpt>
      <trkpt lat="47.05344" lon="-1.89341">
        <ele>80</ele>
        <time>2021-05-01T10:24:46.000Z</time>
      </trkpt>
      <trkpt lat="47.05331" lon="-1.89339">
        <ele>79</ele>
        <time>2021-05-01T10:24:48.000Z</time>
      </trkpt>
      <trkpt lat="47.05318" lon="-1.89337">
        <ele>79</ele>
        <time>2021-05-01T10:24:50.000Z</time>
      </trkpt>
      <trkpt lat="47.05305" lon="-1.89334">
        <ele>79</ele>
        <time>2021-05-01T10:24:52.000Z</time>
      </trkpt>
      <trkpt lat="47.05292" lon="-1.89332">
        <ele>79</ele>
        <time>2021-05-01T10:24:54.000Z</time>
      </trkpt>
      <trkpt lat="47.0528" lon="-1.8933">
        <ele>79</ele>
        <time>2021-05-01T10:24:56.000Z</time>
      </trkpt>
      <trkpt lat="47.05267" lon="-1.89328">
        <ele>80</ele>
        <time>2021-05-01T10:24:58.000Z</time>
      </trkpt>
      <trkpt lat="47.05254" lon="-1.89326">
        <ele>80</ele>
        <time>2021-05-01T10:25:00.000Z</time>
      </trkpt>
      <trkpt lat="47.05241" lon="-1.89323">
        <ele>80</ele>
        <time>2021-05-01T10:25:02.000Z</time>
      </trkpt>
      <trkpt lat="47.05229" lon="-1.89321">
        <ele>80</ele>
        <time>2021-05-01T10:25:04.000Z</time>
      </trkpt>
      <trkpt lat="47.05216" lon="-1.89319">
        <ele>80</ele>
        <time>2021-05-01T10:25:06.000Z</time>
      </trkpt>
      <trkpt lat="47.05203" lon="-1.89319">
        <ele>80</ele>
        <time>2021-05-01T10:25:08.000Z</time>
      </trkpt>
      <trkpt lat="47.05191" lon="-1.89319">
        <ele>80</ele>
        <time>2021-05-01T10:25:10.000Z</time>
      </trkpt>
      <trkpt lat="47.05178" lon="-1.89319">
        <ele>80</ele>
        <time>2021-05-01T10:25:12.000Z</time>
      </trkpt>
      <trkpt lat="47.05165" lon="-1.89321">
        <ele>80</ele>
        <time>2021-05-01T10:25:14.000Z</time>
      </trkpt>
      <trkpt lat="47.05153" lon="-1.89323">
        <ele>80</ele>
        <time>2021-05-01T10:25:16.000Z</time>
      </trkpt>
      <trkpt lat="47.05139" lon="-1.89325">
        <ele>80</ele>
        <time>2021-05-01T10:25:18.000Z</time>
      </trkpt>
      <trkpt lat="47.05127" lon="-1.89327">
        <ele>79</ele>
        <time>2021-05-01T10:25:20.000Z</time>
      </trkpt>
      <trkpt lat="47.05113" lon="-1.8933">
        <ele>79</ele>
        <time>2021-05-01T10:25:22.000Z</time>
      </trkpt>
      <trkpt lat="47.05101" lon="-1.89332">
        <ele>79</ele>
        <time>2021-05-01T10:25:24.000Z</time>
      </trkpt>
      <trkpt lat="47.05088" lon="-1.89334">
        <ele>79</ele>
        <time>2021-05-01T10:25:26.000Z</time>
      </trkpt>
      <trkpt lat="47.05074" lon="-1.89335">
        <ele>79</ele>
        <time>2021-05-01T10:25:28.000Z</time>
      </trkpt>
      <trkpt lat="47.05061" lon="-1.89336">
        <ele>79</ele>
        <time>2021-05-01T10:25:30.000Z</time>
      </trkpt>
      <trkpt lat="47.05048" lon="-1.89336">
        <ele>79</ele>
        <time>2021-05-01T10:25:32.000Z</time>
      </trkpt>
      <trkpt lat="47.05035" lon="-1.89335">
        <ele>79</ele>
        <time>2021-05-01T10:25:34.000Z</time>
      </trkpt>
      <trkpt lat="47.05022" lon="-1.8933">
        <ele>79</ele>
        <time>2021-05-01T10:25:36.000Z</time>
      </trkpt>
      <trkpt lat="47.05008" lon="-1.89326">
        <ele>78</ele>
        <time>2021-05-01T10:25:38.000Z</time>
      </trkpt>
      <trkpt lat="47.04995" lon="-1.89322">
        <ele>78</ele>
        <time>2021-05-01T10:25:40.000Z</time>
      </trkpt>
      <trkpt lat="47.04981" lon="-1.89321">
        <ele>78</ele>
        <time>2021-05-01T10:25:42.000Z</time>
      </trkpt>
      <trkpt lat="47.04967" lon="-1.89322">
        <ele>78</ele>
        <time>2021-05-01T10:25:44.000Z</time>
      </trkpt>
      <trkpt lat="47.04954" lon="-1.89325">
        <ele>78</ele>
        <time>2021-05-01T10:25:46.000Z</time>
      </trkpt>
      <trkpt lat="47.0494" lon="-1.89328">
        <ele>79</ele>
        <time>2021-05-01T10:25:48.000Z</time>
      </trkpt>
      <trkpt lat="47.04927" lon="-1.89331">
        <ele>79</ele>
        <time>2021-05-01T10:25:50.000Z</time>
      </trkpt>
      <trkpt lat="47.04914" lon="-1.89335">
        <ele>79</ele>
        <time>2021-05-01T10:25:52.000Z</time>
      </trkpt>
      <trkpt lat="47.04901" lon="-1.89338">
        <ele>80</ele>
        <time>2021-05-01T10:25:54.000Z</time>
      </trkpt>
      <trkpt lat="47.04889" lon="-1.89342">
        <ele>80</ele>
        <time>2021-05-01T10:25:56.000Z</time>
      </trkpt>
      <trkpt lat="47.04876" lon="-1.89345">
        <ele>80</ele>
        <time>2021-05-01T10:25:58.000Z</time>
      </trkpt>
      <trkpt lat="47.04863" lon="-1.89349">
        <ele>80</ele>
        <time>2021-05-01T10:26:00.000Z</time>
      </trkpt>
      <trkpt lat="47.0485" lon="-1.89353">
        <ele>81</ele>
        <time>2021-05-01T10:26:02.000Z</time>
      </trkpt>
      <trkpt lat="47.04838" lon="-1.89356">
        <ele>81</ele>
        <time>2021-05-01T10:26:04.000Z</time>
      </trkpt>
      <trkpt lat="47.04825" lon="-1.8936">
        <ele>81</ele>
        <time>2021-05-01T10:26:06.000Z</time>
      </trkpt>
      <trkpt lat="47.04813" lon="-1.89364">
        <ele>81</ele>
        <time>2021-05-01T10:26:08.000Z</time>
      </trkpt>
      <trkpt lat="47.04801" lon="-1.89368">
        <ele>81</ele>
        <time>2021-05-01T10:26:10.000Z</time>
      </trkpt>
      <trkpt lat="47.04788" lon="-1.89373">
        <ele>82</ele>
        <time>2021-05-01T10:26:12.000Z</time>
      </trkpt>
      <trkpt lat="47.04776" lon="-1.89378">
        <ele>82</ele>
        <time>2021-05-01T10:26:14.000Z</time>
      </trkpt>
      <trkpt lat="47.04764" lon="-1.89384">
        <ele>82</ele>
        <time>2021-05-01T10:26:16.000Z</time>
      </trkpt>
      <trkpt lat="47.04752" lon="-1.8939">
        <ele>82</ele>
        <time>2021-05-01T10:26:18.000Z</time>
      </trkpt>
      <trkpt lat="47.0474" lon="-1.89396">
        <ele>82</ele>
        <time>2021-05-01T10:26:20.000Z</time>
      </trkpt>
      <trkpt lat="47.04728" lon="-1.89401">
        <ele>82</ele>
        <time>2021-05-01T10:26:22.000Z</time>
      </trkpt>
      <trkpt lat="47.04716" lon="-1.89407">
        <ele>82</ele>
        <time>2021-05-01T10:26:24.000Z</time>
      </trkpt>
      <trkpt lat="47.04704" lon="-1.89412">
        <ele>82</ele>
        <time>2021-05-01T10:26:26.000Z</time>
      </trkpt>
      <trkpt lat="47.04692" lon="-1.89418">
        <ele>82</ele>
        <time>2021-05-01T10:26:28.000Z</time>
      </trkpt>
      <trkpt lat="47.0468" lon="-1.89424">
        <ele>82</ele>
        <time>2021-05-01T10:26:30.000Z</time>
      </trkpt>
      <trkpt lat="47.04668" lon="-1.8943">
        <ele>82</ele>
        <time>2021-05-01T10:26:32.000Z</time>
      </trkpt>
      <trkpt lat="47.04656" lon="-1.89436">
        <ele>82</ele>
        <time>2021-05-01T10:26:34.000Z</time>
      </trkpt>
      <trkpt lat="47.04643" lon="-1.89441">
        <ele>82</ele>
        <time>2021-05-01T10:26:36.000Z</time>
      </trkpt>
      <trkpt lat="47.04631" lon="-1.89447">
        <ele>82</ele>
        <time>2021-05-01T10:26:38.000Z</time>
      </trkpt>
      <trkpt lat="47.04619" lon="-1.89452">
        <ele>82</ele>
        <time>2021-05-01T10:26:40.000Z</time>
      </trkpt>
      <trkpt lat="47.04607" lon="-1.89456">
        <ele>82</ele>
        <time>2021-05-01T10:26:42.000Z</time>
      </trkpt>
      <trkpt lat="47.04594" lon="-1.89461">
        <ele>83</ele>
        <time>2021-05-01T10:26:44.000Z</time>
      </trkpt>
      <trkpt lat="47.04581" lon="-1.89464">
        <ele>83</ele>
        <time>2021-05-01T10:26:46.000Z</time>
      </trkpt>
      <trkpt lat="47.04568" lon="-1.89467">
        <ele>82</ele>
        <time>2021-05-01T10:26:48.000Z</time>
      </trkpt>
      <trkpt lat="47.04555" lon="-1.89469">
        <ele>82</ele>
        <time>2021-05-01T10:26:50.000Z</time>
      </trkpt>
      <trkpt lat="47.04542" lon="-1.89472">
        <ele>82</ele>
        <time>2021-05-01T10:26:52.000Z</time>
      </trkpt>
      <trkpt lat="47.04529" lon="-1.89474">
        <ele>82</ele>
        <time>2021-05-01T10:26:54.000Z</time>
      </trkpt>
      <trkpt lat="47.04516" lon="-1.89478">
        <ele>82</ele>
        <time>2021-05-01T10:26:56.000Z</time>
      </trkpt>
      <trkpt lat="47.04504" lon="-1.8948">
        <ele>82</ele>
        <time>2021-05-01T10:26:58.000Z</time>
      </trkpt>
      <trkpt lat="47.04491" lon="-1.89483">
        <ele>82</ele>
        <time>2021-05-01T10:27:00.000Z</time>
      </trkpt>
      <trkpt lat="47.04478" lon="-1.89485">
        <ele>82</ele>
        <time>2021-05-01T10:27:02.000Z</time>
      </trkpt>
      <trkpt lat="47.04465" lon="-1.89489">
        <ele>82</ele>
        <time>2021-05-01T10:27:04.000Z</time>
      </trkpt>
      <trkpt lat="47.04452" lon="-1.89492">
        <ele>82</ele>
        <time>2021-05-01T10:27:06.000Z</time>
      </trkpt>
      <trkpt lat="47.04439" lon="-1.89494">
        <ele>82</ele>
        <time>2021-05-01T10:27:08.000Z</time>
      </trkpt>
      <trkpt lat="47.04426" lon="-1.89498">
        <ele>82</ele>
        <time>2021-05-01T10:27:10.000Z</time>
      </trkpt>
      <trkpt lat="47.04413" lon="-1.895">
        <ele>81</ele>
        <time>2021-05-01T10:27:12.000Z</time>
      </trkpt>
      <trkpt lat="47.044" lon="-1.89503">
        <ele>81</ele>
        <time>2021-05-01T10:27:14.000Z</time>
      </trkpt>
      <trkpt lat="47.04387" lon="-1.89505">
        <ele>81</ele>
        <time>2021-05-01T10:27:16.000Z</time>
      </trkpt>
      <trkpt lat="47.04374" lon="-1.89506">
        <ele>81</ele>
        <time>2021-05-01T10:27:18.000Z</time>
      </trkpt>
      <trkpt lat="47.04361" lon="-1.89507">
        <ele>81</ele>
        <time>2021-05-01T10:27:20.000Z</time>
      </trkpt>
      <trkpt lat="47.04348" lon="-1.89508">
        <ele>81</ele>
        <time>2021-05-01T10:27:22.000Z</time>
      </trkpt>
      <trkpt lat="47.04335" lon="-1.8951">
        <ele>80</ele>
        <time>2021-05-01T10:27:24.000Z</time>
      </trkpt>
      <trkpt lat="47.04322" lon="-1.89511">
        <ele>81</ele>
        <time>2021-05-01T10:27:26.000Z</time>
      </trkpt>
      <trkpt lat="47.04309" lon="-1.89514">
        <ele>80</ele>
        <time>2021-05-01T10:27:28.000Z</time>
      </trkpt>
      <trkpt lat="47.04296" lon="-1.89516">
        <ele>81</ele>
        <time>2021-05-01T10:27:30.000Z</time>
      </trkpt>
      <trkpt lat="47.04283" lon="-1.89519">
        <ele>81</ele>
        <time>2021-05-01T10:27:32.000Z</time>
      </trkpt>
      <trkpt lat="47.04271" lon="-1.89523">
        <ele>81</ele>
        <time>2021-05-01T10:27:34.000Z</time>
      </trkpt>
      <trkpt lat="47.04258" lon="-1.89527">
        <ele>81</ele>
        <time>2021-05-01T10:27:36.000Z</time>
      </trkpt>
      <trkpt lat="47.04245" lon="-1.89531">
        <ele>81</ele>
        <time>2021-05-01T10:27:38.000Z</time>
      </trkpt>
      <trkpt lat="47.04231" lon="-1.89535">
        <ele>81</ele>
        <time>2021-05-01T10:27:40.000Z</time>
      </trkpt>
      <trkpt lat="47.04219" lon="-1.89538">
        <ele>81</ele>
        <time>2021-05-01T10:27:42.000Z</time>
      </trkpt>
      <trkpt lat="47.04206" lon="-1.89543">
        <ele>81</ele>
        <time>2021-05-01T10:27:44.000Z</time>
      </trkpt>
      <trkpt lat="47.04194" lon="-1.89547">
        <ele>82</ele>
        <time>2021-05-01T10:27:46.000Z</time>
      </trkpt>
      <trkpt lat="47.04182" lon="-1.8955">
        <ele>82</ele>
        <time>2021-05-01T10:27:48.000Z</time>
      </trkpt>
      <trkpt lat="47.04169" lon="-1.89554">
        <ele>82</ele>
        <time>2021-05-01T10:27:50.000Z</time>
      </trkpt>
      <trkpt lat="47.04156" lon="-1.89558">
        <ele>82</ele>
        <time>2021-05-01T10:27:52.000Z</time>
      </trkpt>
      <trkpt lat="47.04144" lon="-1.89562">
        <ele>82</ele>
        <time>2021-05-01T10:27:54.000Z</time>
      </trkpt>
      <trkpt lat="47.04132" lon="-1.89566">
        <ele>82</ele>
        <time>2021-05-01T10:27:56.000Z</time>
      </trkpt>
      <trkpt lat="47.04119" lon="-1.8957">
        <ele>83</ele>
        <time>2021-05-01T10:27:58.000Z</time>
      </trkpt>
      <trkpt lat="47.04107" lon="-1.89574">
        <ele>83</ele>
        <time>2021-05-01T10:28:00.000Z</time>
      </trkpt>
      <trkpt lat="47.04094" lon="-1.89578">
        <ele>83</ele>
        <time>2021-05-01T10:28:02.000Z</time>
      </trkpt>
      <trkpt lat="47.04082" lon="-1.89582">
        <ele>84</ele>
        <time>2021-05-01T10:28:04.000Z</time>
      </trkpt>
      <trkpt lat="47.0407" lon="-1.89586">
        <ele>84</ele>
        <time>2021-05-01T10:28:06.000Z</time>
      </trkpt>
      <trkpt lat="47.04058" lon="-1.89589">
        <ele>84</ele>
        <time>2021-05-01T10:28:08.000Z</time>
      </trkpt>
      <trkpt lat="47.04045" lon="-1.89593">
        <ele>84</ele>
        <time>2021-05-01T10:28:10.000Z</time>
      </trkpt>
      <trkpt lat="47.04033" lon="-1.89597">
        <ele>84</ele>
        <time>2021-05-01T10:28:12.000Z</time>
      </trkpt>
      <trkpt lat="47.04021" lon="-1.89601">
        <ele>85</ele>
        <time>2021-05-01T10:28:14.000Z</time>
      </trkpt>
      <trkpt lat="47.04009" lon="-1.89605">
        <ele>85</ele>
        <time>2021-05-01T10:28:16.000Z</time>
      </trkpt>
      <trkpt lat="47.03996" lon="-1.89608">
        <ele>85</ele>
        <time>2021-05-01T10:28:18.000Z</time>
      </trkpt>
      <trkpt lat="47.03984" lon="-1.89612">
        <ele>85</ele>
        <time>2021-05-01T10:28:20.000Z</time>
      </trkpt>
      <trkpt lat="47.03972" lon="-1.89616">
        <ele>85</ele>
        <time>2021-05-01T10:28:22.000Z</time>
      </trkpt>
      <trkpt lat="47.0396" lon="-1.8962">
        <ele>86</ele>
        <time>2021-05-01T10:28:24.000Z</time>
      </trkpt>
      <trkpt lat="47.03948" lon="-1.89624">
        <ele>86</ele>
        <time>2021-05-01T10:28:26.000Z</time>
      </trkpt>
      <trkpt lat="47.03936" lon="-1.89627">
        <ele>86</ele>
        <time>2021-05-01T10:28:28.000Z</time>
      </trkpt>
      <trkpt lat="47.03924" lon="-1.89631">
        <ele>86</ele>
        <time>2021-05-01T10:28:30.000Z</time>
      </trkpt>
      <trkpt lat="47.03912" lon="-1.89635">
        <ele>86</ele>
        <time>2021-05-01T10:28:32.000Z</time>
      </trkpt>
      <trkpt lat="47.03899" lon="-1.89639">
        <ele>86</ele>
        <time>2021-05-01T10:28:34.000Z</time>
      </trkpt>
      <trkpt lat="47.03887" lon="-1.89643">
        <ele>86</ele>
        <time>2021-05-01T10:28:36.000Z</time>
      </trkpt>
      <trkpt lat="47.03875" lon="-1.89647">
        <ele>87</ele>
        <time>2021-05-01T10:28:38.000Z</time>
      </trkpt>
      <trkpt lat="47.03863" lon="-1.89651">
        <ele>87</ele>
        <time>2021-05-01T10:28:40.000Z</time>
      </trkpt>
      <trkpt lat="47.0385" lon="-1.89655">
        <ele>87</ele>
        <time>2021-05-01T10:28:42.000Z</time>
      </trkpt>
      <trkpt lat="47.03837" lon="-1.89659">
        <ele>87</ele>
        <time>2021-05-01T10:28:44.000Z</time>
      </trkpt>
      <trkpt lat="47.03825" lon="-1.89663">
        <ele>87</ele>
        <time>2021-05-01T10:28:46.000Z</time>
      </trkpt>
      <trkpt lat="47.03811" lon="-1.89667">
        <ele>86</ele>
        <time>2021-05-01T10:28:48.000Z</time>
      </trkpt>
      <trkpt lat="47.03798" lon="-1.89671">
        <ele>86</ele>
        <time>2021-05-01T10:28:50.000Z</time>
      </trkpt>
      <trkpt lat="47.03786" lon="-1.89675">
        <ele>87</ele>
        <time>2021-05-01T10:28:52.000Z</time>
      </trkpt>
      <trkpt lat="47.03773" lon="-1.89681">
        <ele>86</ele>
        <time>2021-05-01T10:28:54.000Z</time>
      </trkpt>
      <trkpt lat="47.03759" lon="-1.89687">
        <ele>87</ele>
        <time>2021-05-01T10:28:56.000Z</time>
      </trkpt>
      <trkpt lat="47.03747" lon="-1.89695">
        <ele>87</ele>
        <time>2021-05-01T10:28:58.000Z</time>
      </trkpt>
      <trkpt lat="47.03735" lon="-1.89705">
        <ele>87</ele>
        <time>2021-05-01T10:29:00.000Z</time>
      </trkpt>
      <trkpt lat="47.03723" lon="-1.89715">
        <ele>87</ele>
        <time>2021-05-01T10:29:02.000Z</time>
      </trkpt>
      <trkpt lat="47.03711" lon="-1.89727">
        <ele>88</ele>
        <time>2021-05-01T10:29:04.000Z</time>
      </trkpt>
      <trkpt lat="47.037" lon="-1.89737">
        <ele>87</ele>
        <time>2021-05-01T10:29:06.000Z</time>
      </trkpt>
      <trkpt lat="47.03689" lon="-1.89748">
        <ele>87</ele>
        <time>2021-05-01T10:29:08.000Z</time>
      </trkpt>
      <trkpt lat="47.03678" lon="-1.89759">
        <ele>87</ele>
        <time>2021-05-01T10:29:10.000Z</time>
      </trkpt>
      <trkpt lat="47.03666" lon="-1.8977">
        <ele>86</ele>
        <time>2021-05-01T10:29:12.000Z</time>
      </trkpt>
      <trkpt lat="47.03655" lon="-1.89781">
        <ele>86</ele>
        <time>2021-05-01T10:29:14.000Z</time>
      </trkpt>
      <trkpt lat="47.03643" lon="-1.89792">
        <ele>87</ele>
        <time>2021-05-01T10:29:16.000Z</time>
      </trkpt>
      <trkpt lat="47.03632" lon="-1.89803">
        <ele>86</ele>
        <time>2021-05-01T10:29:18.000Z</time>
      </trkpt>
      <trkpt lat="47.03621" lon="-1.89814">
        <ele>86</ele>
        <time>2021-05-01T10:29:20.000Z</time>
      </trkpt>
      <trkpt lat="47.0361" lon="-1.89825">
        <ele>86</ele>
        <time>2021-05-01T10:29:22.000Z</time>
      </trkpt>
      <trkpt lat="47.03599" lon="-1.89835">
        <ele>86</ele>
        <time>2021-05-01T10:29:24.000Z</time>
      </trkpt>
      <trkpt lat="47.03588" lon="-1.89845">
        <ele>86</ele>
        <time>2021-05-01T10:29:26.000Z</time>
      </trkpt>
      <trkpt lat="47.03578" lon="-1.89856">
        <ele>86</ele>
        <time>2021-05-01T10:29:28.000Z</time>
      </trkpt>
      <trkpt lat="47.03566" lon="-1.89866">
        <ele>86</ele>
        <time>2021-05-01T10:29:30.000Z</time>
      </trkpt>
      <trkpt lat="47.03555" lon="-1.89875">
        <ele>86</ele>
        <time>2021-05-01T10:29:32.000Z</time>
      </trkpt>
      <trkpt lat="47.03544" lon="-1.89886">
        <ele>86</ele>
        <time>2021-05-01T10:29:34.000Z</time>
      </trkpt>
      <trkpt lat="47.03533" lon="-1.89898">
        <ele>86</ele>
        <time>2021-05-01T10:29:36.000Z</time>
      </trkpt>
      <trkpt lat="47.03522" lon="-1.8991">
        <ele>86</ele>
        <time>2021-05-01T10:29:38.000Z</time>
      </trkpt>
      <trkpt lat="47.03511" lon="-1.89921">
        <ele>85</ele>
        <time>2021-05-01T10:29:40.000Z</time>
      </trkpt>
      <trkpt lat="47.03499" lon="-1.89932">
        <ele>85</ele>
        <time>2021-05-01T10:29:42.000Z</time>
      </trkpt>
      <trkpt lat="47.03487" lon="-1.89944">
        <ele>84</ele>
        <time>2021-05-01T10:29:44.000Z</time>
      </trkpt>
      <trkpt lat="47.03475" lon="-1.89955">
        <ele>84</ele>
        <time>2021-05-01T10:29:46.000Z</time>
      </trkpt>
      <trkpt lat="47.03463" lon="-1.89967">
        <ele>84</ele>
        <time>2021-05-01T10:29:48.000Z</time>
      </trkpt>
      <trkpt lat="47.03451" lon="-1.89978">
        <ele>83</ele>
        <time>2021-05-01T10:29:50.000Z</time>
      </trkpt>
      <trkpt lat="47.03439" lon="-1.8999">
        <ele>83</ele>
        <time>2021-05-01T10:29:52.000Z</time>
      </trkpt>
      <trkpt lat="47.03427" lon="-1.90001">
        <ele>82</ele>
        <time>2021-05-01T10:29:54.000Z</time>
      </trkpt>
      <trkpt lat="47.03415" lon="-1.90014">
        <ele>81</ele>
        <time>2021-05-01T10:29:56.000Z</time>
      </trkpt>
      <trkpt lat="47.03401" lon="-1.90027">
        <ele>80</ele>
        <time>2021-05-01T10:29:58.000Z</time>
      </trkpt>
      <trkpt lat="47.03388" lon="-1.9004">
        <ele>79</ele>
        <time>2021-05-01T10:30:00.000Z</time>
      </trkpt>
      <trkpt lat="47.03373" lon="-1.90053">
        <ele>78</ele>
        <time>2021-05-01T10:30:02.000Z</time>
      </trkpt>
      <trkpt lat="47.03359" lon="-1.90067">
        <ele>78</ele>
        <time>2021-05-01T10:30:04.000Z</time>
      </trkpt>
      <trkpt lat="47.03344" lon="-1.90082">
        <ele>77</ele>
        <time>2021-05-01T10:30:06.000Z</time>
      </trkpt>
      <trkpt lat="47.03329" lon="-1.90096">
        <ele>76</ele>
        <time>2021-05-01T10:30:08.000Z</time>
      </trkpt>
      <trkpt lat="47.03314" lon="-1.90111">
        <ele>76</ele>
        <time>2021-05-01T10:30:10.000Z</time>
      </trkpt>
      <trkpt lat="47.03306" lon="-1.90118">
        <ele>75</ele>
        <time>2021-05-01T10:30:11.000Z</time>
      </trkpt>
      <trkpt lat="47.03299" lon="-1.90126">
        <ele>74</ele>
        <time>2021-05-01T10:30:12.000Z</time>
      </trkpt>
      <trkpt lat="47.03291" lon="-1.90134">
        <ele>74</ele>
        <time>2021-05-01T10:30:13.000Z</time>
      </trkpt>
      <trkpt lat="47.03283" lon="-1.90141">
        <ele>73</ele>
        <time>2021-05-01T10:30:14.000Z</time>
      </trkpt>
      <trkpt lat="47.03276" lon="-1.90149">
        <ele>72</ele>
        <time>2021-05-01T10:30:15.000Z</time>
      </trkpt>
      <trkpt lat="47.0327" lon="-1.9016">
        <ele>72</ele>
        <time>2021-05-01T10:30:16.000Z</time>
      </trkpt>
      <trkpt lat="47.03267" lon="-1.90174">
        <ele>71</ele>
        <time>2021-05-01T10:30:17.000Z</time>
      </trkpt>
      <trkpt lat="47.03265" lon="-1.90187">
        <ele>70</ele>
        <time>2021-05-01T10:30:18.000Z</time>
      </trkpt>
      <trkpt lat="47.03263" lon="-1.902">
        <ele>69</ele>
        <time>2021-05-01T10:30:19.000Z</time>
      </trkpt>
      <trkpt lat="47.03261" lon="-1.90214">
        <ele>69</ele>
        <time>2021-05-01T10:30:20.000Z</time>
      </trkpt>
      <trkpt lat="47.03258" lon="-1.90227">
        <ele>68</ele>
        <time>2021-05-01T10:30:21.000Z</time>
      </trkpt>
      <trkpt lat="47.03254" lon="-1.90239">
        <ele>68</ele>
        <time>2021-05-01T10:30:22.000Z</time>
      </trkpt>
      <trkpt lat="47.03249" lon="-1.9025">
        <ele>68</ele>
        <time>2021-05-01T10:30:23.000Z</time>
      </trkpt>
      <trkpt lat="47.03243" lon="-1.9026">
        <ele>67</ele>
        <time>2021-05-01T10:30:24.000Z</time>
      </trkpt>
      <trkpt lat="47.03237" lon="-1.9027">
        <ele>67</ele>
        <time>2021-05-01T10:30:25.000Z</time>
      </trkpt>
      <trkpt lat="47.03224" lon="-1.90288">
        <ele>67</ele>
        <time>2021-05-01T10:30:27.000Z</time>
      </trkpt>
      <trkpt lat="47.03211" lon="-1.90304">
        <ele>67</ele>
        <time>2021-05-01T10:30:29.000Z</time>
      </trkpt>
      <trkpt lat="47.03199" lon="-1.9032">
        <ele>66</ele>
        <time>2021-05-01T10:30:31.000Z</time>
      </trkpt>
      <trkpt lat="47.03187" lon="-1.90334">
        <ele>66</ele>
        <time>2021-05-01T10:30:33.000Z</time>
      </trkpt>
      <trkpt lat="47.03175" lon="-1.90348">
        <ele>66</ele>
        <time>2021-05-01T10:30:35.000Z</time>
      </trkpt>
      <trkpt lat="47.03162" lon="-1.90361">
        <ele>66</ele>
        <time>2021-05-01T10:30:37.000Z</time>
      </trkpt>
      <trkpt lat="47.03149" lon="-1.90373">
        <ele>66</ele>
        <time>2021-05-01T10:30:39.000Z</time>
      </trkpt>
      <trkpt lat="47.03137" lon="-1.90383">
        <ele>65</ele>
        <time>2021-05-01T10:30:41.000Z</time>
      </trkpt>
      <trkpt lat="47.03124" lon="-1.90391">
        <ele>65</ele>
        <time>2021-05-01T10:30:43.000Z</time>
      </trkpt>
      <trkpt lat="47.03111" lon="-1.904">
        <ele>65</ele>
        <time>2021-05-01T10:30:45.000Z</time>
      </trkpt>
      <trkpt lat="47.03097" lon="-1.90409">
        <ele>64</ele>
        <time>2021-05-01T10:30:47.000Z</time>
      </trkpt>
      <trkpt lat="47.03083" lon="-1.90417">
        <ele>63</ele>
        <time>2021-05-01T10:30:49.000Z</time>
      </trkpt>
      <trkpt lat="47.03069" lon="-1.90426">
        <ele>62</ele>
        <time>2021-05-01T10:30:51.000Z</time>
      </trkpt>
      <trkpt lat="47.03054" lon="-1.90435">
        <ele>61</ele>
        <time>2021-05-01T10:30:53.000Z</time>
      </trkpt>
      <trkpt lat="47.0304" lon="-1.90444">
        <ele>61</ele>
        <time>2021-05-01T10:30:55.000Z</time>
      </trkpt>
      <trkpt lat="47.03026" lon="-1.90456">
        <ele>60</ele>
        <time>2021-05-01T10:30:57.000Z</time>
      </trkpt>
      <trkpt lat="47.03014" lon="-1.90468">
        <ele>59</ele>
        <time>2021-05-01T10:30:59.000Z</time>
      </trkpt>
      <trkpt lat="47.03002" lon="-1.90482">
        <ele>58</ele>
        <time>2021-05-01T10:31:01.000Z</time>
      </trkpt>
      <trkpt lat="47.02993" lon="-1.90496">
        <ele>58</ele>
        <time>2021-05-01T10:31:03.000Z</time>
      </trkpt>
      <trkpt lat="47.02979" lon="-1.90492">
        <ele>58</ele>
        <time>2021-05-01T10:31:05.000Z</time>
      </trkpt>
      <trkpt lat="47.02976" lon="-1.90473">
        <ele>58</ele>
        <time>2021-05-01T10:31:07.000Z</time>
      </trkpt>
      <trkpt lat="47.02976" lon="-1.90453">
        <ele>57</ele>
        <time>2021-05-01T10:31:09.000Z</time>
      </trkpt>
      <trkpt lat="47.02974" lon="-1.90432">
        <ele>57</ele>
        <time>2021-05-01T10:31:11.000Z</time>
      </trkpt>
      <trkpt lat="47.02972" lon="-1.90411">
        <ele>58</ele>
        <time>2021-05-01T10:31:13.000Z</time>
      </trkpt>
      <trkpt lat="47.02969" lon="-1.90391">
        <ele>57</ele>
        <time>2021-05-01T10:31:15.000Z</time>
      </trkpt>
      <trkpt lat="47.02966" lon="-1.90371">
        <ele>57</ele>
        <time>2021-05-01T10:31:17.000Z</time>
      </trkpt>
      <trkpt lat="47.02963" lon="-1.90351">
        <ele>57</ele>
        <time>2021-05-01T10:31:19.000Z</time>
      </trkpt>
      <trkpt lat="47.0296" lon="-1.90331">
        <ele>57</ele>
        <time>2021-05-01T10:31:21.000Z</time>
      </trkpt>
      <trkpt lat="47.02958" lon="-1.90311">
        <ele>57</ele>
        <time>2021-05-01T10:31:23.000Z</time>
      </trkpt>
      <trkpt lat="47.02955" lon="-1.90291">
        <ele>57</ele>
        <time>2021-05-01T10:31:25.000Z</time>
      </trkpt>
      <trkpt lat="47.02952" lon="-1.9027">
        <ele>57</ele>
        <time>2021-05-01T10:31:27.000Z</time>
      </trkpt>
      <trkpt lat="47.0295" lon="-1.90251">
        <ele>57</ele>
        <time>2021-05-01T10:31:29.000Z</time>
      </trkpt>
      <trkpt lat="47.02947" lon="-1.90231">
        <ele>57</ele>
        <time>2021-05-01T10:31:31.000Z</time>
      </trkpt>
      <trkpt lat="47.02944" lon="-1.90211">
        <ele>57</ele>
        <time>2021-05-01T10:31:33.000Z</time>
      </trkpt>
      <trkpt lat="47.02941" lon="-1.90191">
        <ele>57</ele>
        <time>2021-05-01T10:31:35.000Z</time>
      </trkpt>
      <trkpt lat="47.02939" lon="-1.9017">
        <ele>57</ele>
        <time>2021-05-01T10:31:37.000Z</time>
      </trkpt>
      <trkpt lat="47.02936" lon="-1.9015">
        <ele>57</ele>
        <time>2021-05-01T10:31:39.000Z</time>
      </trkpt>
      <trkpt lat="47.02934" lon="-1.9013">
        <ele>56</ele>
        <time>2021-05-01T10:31:41.000Z</time>
      </trkpt>
      <trkpt lat="47.02931" lon="-1.90109">
        <ele>56</ele>
        <time>2021-05-01T10:31:43.000Z</time>
      </trkpt>
      <trkpt lat="47.02928" lon="-1.90089">
        <ele>56</ele>
        <time>2021-05-01T10:31:45.000Z</time>
      </trkpt>
      <trkpt lat="47.02925" lon="-1.90068">
        <ele>56</ele>
        <time>2021-05-01T10:31:47.000Z</time>
      </trkpt>
      <trkpt lat="47.02922" lon="-1.90046">
        <ele>56</ele>
        <time>2021-05-01T10:31:49.000Z</time>
      </trkpt>
      <trkpt lat="47.0292" lon="-1.90024">
        <ele>56</ele>
        <time>2021-05-01T10:31:51.000Z</time>
      </trkpt>
      <trkpt lat="47.02916" lon="-1.90003">
        <ele>56</ele>
        <time>2021-05-01T10:31:53.000Z</time>
      </trkpt>
      <trkpt lat="47.02913" lon="-1.89982">
        <ele>56</ele>
        <time>2021-05-01T10:31:55.000Z</time>
      </trkpt>
      <trkpt lat="47.02911" lon="-1.89961">
        <ele>55</ele>
        <time>2021-05-01T10:31:57.000Z</time>
      </trkpt>
      <trkpt lat="47.02908" lon="-1.89939">
        <ele>56</ele>
        <time>2021-05-01T10:31:59.000Z</time>
      </trkpt>
      <trkpt lat="47.02905" lon="-1.89919">
        <ele>55</ele>
        <time>2021-05-01T10:32:01.000Z</time>
      </trkpt>
      <trkpt lat="47.02902" lon="-1.89898">
        <ele>55</ele>
        <time>2021-05-01T10:32:03.000Z</time>
      </trkpt>
      <trkpt lat="47.02899" lon="-1.89878">
        <ele>55</ele>
        <time>2021-05-01T10:32:05.000Z</time>
      </trkpt>
      <trkpt lat="47.02896" lon="-1.89857">
        <ele>55</ele>
        <time>2021-05-01T10:32:07.000Z</time>
      </trkpt>
      <trkpt lat="47.02894" lon="-1.89837">
        <ele>56</ele>
        <time>2021-05-01T10:32:09.000Z</time>
      </trkpt>
      <trkpt lat="47.02891" lon="-1.89817">
        <ele>56</ele>
        <time>2021-05-01T10:32:11.000Z</time>
      </trkpt>
      <trkpt lat="47.02888" lon="-1.89797">
        <ele>56</ele>
        <time>2021-05-01T10:32:13.000Z</time>
      </trkpt>
      <trkpt lat="47.02886" lon="-1.89777">
        <ele>56</ele>
        <time>2021-05-01T10:32:15.000Z</time>
      </trkpt>
      <trkpt lat="47.02883" lon="-1.89758">
        <ele>56</ele>
        <time>2021-05-01T10:32:17.000Z</time>
      </trkpt>
      <trkpt lat="47.0288" lon="-1.89739">
        <ele>56</ele>
        <time>2021-05-01T10:32:19.000Z</time>
      </trkpt>
      <trkpt lat="47.02878" lon="-1.8972">
        <ele>56</ele>
        <time>2021-05-01T10:32:21.000Z</time>
      </trkpt>
      <trkpt lat="47.02875" lon="-1.897">
        <ele>56</ele>
        <time>2021-05-01T10:32:23.000Z</time>
      </trkpt>
      <trkpt lat="47.02872" lon="-1.8968">
        <ele>56</ele>
        <time>2021-05-01T10:32:25.000Z</time>
      </trkpt>
      <trkpt lat="47.0287" lon="-1.8966">
        <ele>56</ele>
        <time>2021-05-01T10:32:27.000Z</time>
      </trkpt>
      <trkpt lat="47.02867" lon="-1.89641">
        <ele>56</ele>
        <time>2021-05-01T10:32:29.000Z</time>
      </trkpt>
      <trkpt lat="47.02864" lon="-1.89621">
        <ele>55</ele>
        <time>2021-05-01T10:32:31.000Z</time>
      </trkpt>
      <trkpt lat="47.02862" lon="-1.89602">
        <ele>55</ele>
        <time>2021-05-01T10:32:33.000Z</time>
      </trkpt>
      <trkpt lat="47.02859" lon="-1.89583">
        <ele>56</ele>
        <time>2021-05-01T10:32:35.000Z</time>
      </trkpt>
      <trkpt lat="47.02856" lon="-1.89562">
        <ele>56</ele>
        <time>2021-05-01T10:32:37.000Z</time>
      </trkpt>
      <trkpt lat="47.02853" lon="-1.89541">
        <ele>55</ele>
        <time>2021-05-01T10:32:39.000Z</time>
      </trkpt>
      <trkpt lat="47.0285" lon="-1.89521">
        <ele>55</ele>
        <time>2021-05-01T10:32:41.000Z</time>
      </trkpt>
      <trkpt lat="47.02848" lon="-1.895">
        <ele>55</ele>
        <time>2021-05-01T10:32:43.000Z</time>
      </trkpt>
      <trkpt lat="47.02845" lon="-1.8948">
        <ele>55</ele>
        <time>2021-05-01T10:32:45.000Z</time>
      </trkpt>
      <trkpt lat="47.02842" lon="-1.8946">
        <ele>55</ele>
        <time>2021-05-01T10:32:47.000Z</time>
      </trkpt>
      <trkpt lat="47.02839" lon="-1.89439">
        <ele>55</ele>
        <time>2021-05-01T10:32:49.000Z</time>
      </trkpt>
      <trkpt lat="47.02837" lon="-1.89419">
        <ele>55</ele>
        <time>2021-05-01T10:32:51.000Z</time>
      </trkpt>
      <trkpt lat="47.02834" lon="-1.89399">
        <ele>55</ele>
        <time>2021-05-01T10:32:53.000Z</time>
      </trkpt>
      <trkpt lat="47.02831" lon="-1.89378">
        <ele>56</ele>
        <time>2021-05-01T10:32:55.000Z</time>
      </trkpt>
      <trkpt lat="47.02829" lon="-1.89358">
        <ele>55</ele>
        <time>2021-05-01T10:32:57.000Z</time>
      </trkpt>
      <trkpt lat="47.02826" lon="-1.89338">
        <ele>55</ele>
        <time>2021-05-01T10:32:59.000Z</time>
      </trkpt>
      <trkpt lat="47.02823" lon="-1.89317">
        <ele>55</ele>
        <time>2021-05-01T10:33:01.000Z</time>
      </trkpt>
      <trkpt lat="47.0282" lon="-1.89296">
        <ele>55</ele>
        <time>2021-05-01T10:33:03.000Z</time>
      </trkpt>
      <trkpt lat="47.02818" lon="-1.89275">
        <ele>55</ele>
        <time>2021-05-01T10:33:05.000Z</time>
      </trkpt>
      <trkpt lat="47.02815" lon="-1.89254">
        <ele>55</ele>
        <time>2021-05-01T10:33:07.000Z</time>
      </trkpt>
      <trkpt lat="47.02811" lon="-1.89233">
        <ele>55</ele>
        <time>2021-05-01T10:33:09.000Z</time>
      </trkpt>
      <trkpt lat="47.02809" lon="-1.89213">
        <ele>55</ele>
        <time>2021-05-01T10:33:11.000Z</time>
      </trkpt>
      <trkpt lat="47.02806" lon="-1.89192">
        <ele>55</ele>
        <time>2021-05-01T10:33:13.000Z</time>
      </trkpt>
      <trkpt lat="47.02803" lon="-1.89171">
        <ele>55</ele>
        <time>2021-05-01T10:33:15.000Z</time>
      </trkpt>
      <trkpt lat="47.028" lon="-1.89151">
        <ele>55</ele>
        <time>2021-05-01T10:33:17.000Z</time>
      </trkpt>
      <trkpt lat="47.02798" lon="-1.89132">
        <ele>55</ele>
        <time>2021-05-01T10:33:19.000Z</time>
      </trkpt>
      <trkpt lat="47.02795" lon="-1.89113">
        <ele>55</ele>
        <time>2021-05-01T10:33:21.000Z</time>
      </trkpt>
      <trkpt lat="47.02792" lon="-1.89093">
        <ele>55</ele>
        <time>2021-05-01T10:33:23.000Z</time>
      </trkpt>
      <trkpt lat="47.0279" lon="-1.89073">
        <ele>55</ele>
        <time>2021-05-01T10:33:25.000Z</time>
      </trkpt>
      <trkpt lat="47.02787" lon="-1.89053">
        <ele>55</ele>
        <time>2021-05-01T10:33:27.000Z</time>
      </trkpt>
      <trkpt lat="47.02785" lon="-1.89033">
        <ele>54</ele>
        <time>2021-05-01T10:33:29.000Z</time>
      </trkpt>
      <trkpt lat="47.02782" lon="-1.89013">
        <ele>54</ele>
        <time>2021-05-01T10:33:31.000Z</time>
      </trkpt>
      <trkpt lat="47.02779" lon="-1.88994">
        <ele>55</ele>
        <time>2021-05-01T10:33:33.000Z</time>
      </trkpt>
      <trkpt lat="47.02776" lon="-1.88975">
        <ele>55</ele>
        <time>2021-05-01T10:33:35.000Z</time>
      </trkpt>
      <trkpt lat="47.02774" lon="-1.88956">
        <ele>55</ele>
        <time>2021-05-01T10:33:37.000Z</time>
      </trkpt>
      <trkpt lat="47.02771" lon="-1.88937">
        <ele>55</ele>
        <time>2021-05-01T10:33:39.000Z</time>
      </trkpt>
      <trkpt lat="47.02768" lon="-1.88918">
        <ele>55</ele>
        <time>2021-05-01T10:33:41.000Z</time>
      </trkpt>
      <trkpt lat="47.02766" lon="-1.88899">
        <ele>55</ele>
        <time>2021-05-01T10:33:43.000Z</time>
      </trkpt>
      <trkpt lat="47.02763" lon="-1.88879">
        <ele>54</ele>
        <time>2021-05-01T10:33:45.000Z</time>
      </trkpt>
      <trkpt lat="47.02761" lon="-1.88859">
        <ele>54</ele>
        <time>2021-05-01T10:33:47.000Z</time>
      </trkpt>
      <trkpt lat="47.02758" lon="-1.8884">
        <ele>54</ele>
        <time>2021-05-01T10:33:49.000Z</time>
      </trkpt>
      <trkpt lat="47.02756" lon="-1.88821">
        <ele>54</ele>
        <time>2021-05-01T10:33:51.000Z</time>
      </trkpt>
      <trkpt lat="47.02753" lon="-1.88802">
        <ele>54</ele>
        <time>2021-05-01T10:33:53.000Z</time>
      </trkpt>
      <trkpt lat="47.0275" lon="-1.88782">
        <ele>54</ele>
        <time>2021-05-01T10:33:55.000Z</time>
      </trkpt>
      <trkpt lat="47.02747" lon="-1.88762">
        <ele>54</ele>
        <time>2021-05-01T10:33:57.000Z</time>
      </trkpt>
      <trkpt lat="47.02745" lon="-1.88743">
        <ele>54</ele>
        <time>2021-05-01T10:33:59.000Z</time>
      </trkpt>
      <trkpt lat="47.02742" lon="-1.88724">
        <ele>54</ele>
        <time>2021-05-01T10:34:01.000Z</time>
      </trkpt>
      <trkpt lat="47.0274" lon="-1.88705">
        <ele>54</ele>
        <time>2021-05-01T10:34:03.000Z</time>
      </trkpt>
      <trkpt lat="47.02737" lon="-1.88686">
        <ele>54</ele>
        <time>2021-05-01T10:34:05.000Z</time>
      </trkpt>
      <trkpt lat="47.02735" lon="-1.88667">
        <ele>54</ele>
        <time>2021-05-01T10:34:07.000Z</time>
      </trkpt>
      <trkpt lat="47.02732" lon="-1.88648">
        <ele>54</ele>
        <time>2021-05-01T10:34:09.000Z</time>
      </trkpt>
      <trkpt lat="47.02729" lon="-1.88628">
        <ele>54</ele>
        <time>2021-05-01T10:34:11.000Z</time>
      </trkpt>
      <trkpt lat="47.02727" lon="-1.88609">
        <ele>54</ele>
        <time>2021-05-01T10:34:13.000Z</time>
      </trkpt>
      <trkpt lat="47.02724" lon="-1.88589">
        <ele>54</ele>
        <time>2021-05-01T10:34:15.000Z</time>
      </trkpt>
      <trkpt lat="47.02722" lon="-1.88571">
        <ele>54</ele>
        <time>2021-05-01T10:34:17.000Z</time>
      </trkpt>
      <trkpt lat="47.02719" lon="-1.88552">
        <ele>54</ele>
        <time>2021-05-01T10:34:19.000Z</time>
      </trkpt>
      <trkpt lat="47.02716" lon="-1.88533">
        <ele>54</ele>
        <time>2021-05-01T10:34:21.000Z</time>
      </trkpt>
      <trkpt lat="47.02714" lon="-1.88514">
        <ele>54</ele>
        <time>2021-05-01T10:34:23.000Z</time>
      </trkpt>
      <trkpt lat="47.02711" lon="-1.88495">
        <ele>54</ele>
        <time>2021-05-01T10:34:25.000Z</time>
      </trkpt>
      <trkpt lat="47.02709" lon="-1.88476">
        <ele>54</ele>
        <time>2021-05-01T10:34:27.000Z</time>
      </trkpt>
      <trkpt lat="47.02706" lon="-1.88457">
        <ele>54</ele>
        <time>2021-05-01T10:34:29.000Z</time>
      </trkpt>
      <trkpt lat="47.02703" lon="-1.88437">
        <ele>54</ele>
        <time>2021-05-01T10:34:31.000Z</time>
      </trkpt>
      <trkpt lat="47.02701" lon="-1.88418">
        <ele>54</ele>
        <time>2021-05-01T10:34:33.000Z</time>
      </trkpt>
      <trkpt lat="47.02698" lon="-1.88398">
        <ele>54</ele>
        <time>2021-05-01T10:34:35.000Z</time>
      </trkpt>
      <trkpt lat="47.02696" lon="-1.88379">
        <ele>54</ele>
        <time>2021-05-01T10:34:37.000Z</time>
      </trkpt>
      <trkpt lat="47.02693" lon="-1.88359">
        <ele>54</ele>
        <time>2021-05-01T10:34:39.000Z</time>
      </trkpt>
      <trkpt lat="47.0269" lon="-1.88339">
        <ele>54</ele>
        <time>2021-05-01T10:34:41.000Z</time>
      </trkpt>
      <trkpt lat="47.02688" lon="-1.88319">
        <ele>54</ele>
        <time>2021-05-01T10:34:43.000Z</time>
      </trkpt>
      <trkpt lat="47.02685" lon="-1.88298">
        <ele>54</ele>
        <time>2021-05-01T10:34:45.000Z</time>
      </trkpt>
      <trkpt lat="47.02682" lon="-1.88278">
        <ele>54</ele>
        <time>2021-05-01T10:34:47.000Z</time>
      </trkpt>
      <trkpt lat="47.02679" lon="-1.88257">
        <ele>54</ele>
        <time>2021-05-01T10:34:49.000Z</time>
      </trkpt>
      <trkpt lat="47.02677" lon="-1.88237">
        <ele>54</ele>
        <time>2021-05-01T10:34:51.000Z</time>
      </trkpt>
      <trkpt lat="47.02674" lon="-1.88217">
        <ele>54</ele>
        <time>2021-05-01T10:34:53.000Z</time>
      </trkpt>
      <trkpt lat="47.02671" lon="-1.88197">
        <ele>54</ele>
        <time>2021-05-01T10:34:55.000Z</time>
      </trkpt>
      <trkpt lat="47.02668" lon="-1.88176">
        <ele>54</ele>
        <time>2021-05-01T10:34:57.000Z</time>
      </trkpt>
      <trkpt lat="47.02666" lon="-1.88156">
        <ele>54</ele>
        <time>2021-05-01T10:34:59.000Z</time>
      </trkpt>
      <trkpt lat="47.02663" lon="-1.88135">
        <ele>54</ele>
        <time>2021-05-01T10:35:01.000Z</time>
      </trkpt>
      <trkpt lat="47.0266" lon="-1.88115">
        <ele>53</ele>
        <time>2021-05-01T10:35:03.000Z</time>
      </trkpt>
      <trkpt lat="47.02657" lon="-1.88095">
        <ele>53</ele>
        <time>2021-05-01T10:35:05.000Z</time>
      </trkpt>
      <trkpt lat="47.02654" lon="-1.88073">
        <ele>53</ele>
        <time>2021-05-01T10:35:07.000Z</time>
      </trkpt>
      <trkpt lat="47.02651" lon="-1.88053">
        <ele>54</ele>
        <time>2021-05-01T10:35:09.000Z</time>
      </trkpt>
      <trkpt lat="47.02648" lon="-1.88032">
        <ele>54</ele>
        <time>2021-05-01T10:35:11.000Z</time>
      </trkpt>
      <trkpt lat="47.02643" lon="-1.88013">
        <ele>54</ele>
        <time>2021-05-01T10:35:13.000Z</time>
      </trkpt>
      <trkpt lat="47.02639" lon="-1.87993">
        <ele>54</ele>
        <time>2021-05-01T10:35:15.000Z</time>
      </trkpt>
      <trkpt lat="47.02632" lon="-1.87976">
        <ele>54</ele>
        <time>2021-05-01T10:35:17.000Z</time>
      </trkpt>
      <trkpt lat="47.02624" lon="-1.87958">
        <ele>54</ele>
        <time>2021-05-01T10:35:19.000Z</time>
      </trkpt>
      <trkpt lat="47.02616" lon="-1.87941">
        <ele>54</ele>
        <time>2021-05-01T10:35:21.000Z</time>
      </trkpt>
      <trkpt lat="47.02606" lon="-1.87925">
        <ele>54</ele>
        <time>2021-05-01T10:35:23.000Z</time>
      </trkpt>
      <trkpt lat="47.02597" lon="-1.8791">
        <ele>54</ele>
        <time>2021-05-01T10:35:25.000Z</time>
      </trkpt>
      <trkpt lat="47.02587" lon="-1.87895">
        <ele>54</ele>
        <time>2021-05-01T10:35:27.000Z</time>
      </trkpt>
      <trkpt lat="47.02578" lon="-1.87879">
        <ele>54</ele>
        <time>2021-05-01T10:35:29.000Z</time>
      </trkpt>
      <trkpt lat="47.02569" lon="-1.87864">
        <ele>54</ele>
        <time>2021-05-01T10:35:31.000Z</time>
      </trkpt>
      <trkpt lat="47.0256" lon="-1.87848">
        <ele>54</ele>
        <time>2021-05-01T10:35:33.000Z</time>
      </trkpt>
      <trkpt lat="47.02551" lon="-1.87833">
        <ele>54</ele>
        <time>2021-05-01T10:35:35.000Z</time>
      </trkpt>
      <trkpt lat="47.02543" lon="-1.87818">
        <ele>54</ele>
        <time>2021-05-01T10:35:37.000Z</time>
      </trkpt>
      <trkpt lat="47.02536" lon="-1.87801">
        <ele>54</ele>
        <time>2021-05-01T10:35:39.000Z</time>
      </trkpt>
      <trkpt lat="47.02528" lon="-1.87787">
        <ele>54</ele>
        <time>2021-05-01T10:35:41.000Z</time>
      </trkpt>
      <trkpt lat="47.02518" lon="-1.87773">
        <ele>54</ele>
        <time>2021-05-01T10:35:43.000Z</time>
      </trkpt>
      <trkpt lat="47.02508" lon="-1.87759">
        <ele>54</ele>
        <time>2021-05-01T10:35:45.000Z</time>
      </trkpt>
      <trkpt lat="47.02498" lon="-1.87744">
        <ele>53</ele>
        <time>2021-05-01T10:35:47.000Z</time>
      </trkpt>
      <trkpt lat="47.0249" lon="-1.87728">
        <ele>54</ele>
        <time>2021-05-01T10:35:49.000Z</time>
      </trkpt>
      <trkpt lat="47.02481" lon="-1.87713">
        <ele>54</ele>
        <time>2021-05-01T10:35:51.000Z</time>
      </trkpt>
      <trkpt lat="47.02473" lon="-1.87697">
        <ele>54</ele>
        <time>2021-05-01T10:35:53.000Z</time>
      </trkpt>
      <trkpt lat="47.02471" lon="-1.87677">
        <ele>54</ele>
        <time>2021-05-01T10:35:55.000Z</time>
      </trkpt>
      <trkpt lat="47.02474" lon="-1.87658">
        <ele>54</ele>
        <time>2021-05-01T10:35:57.000Z</time>
      </trkpt>
      <trkpt lat="47.02476" lon="-1.87638">
        <ele>54</ele>
        <time>2021-05-01T10:35:59.000Z</time>
      </trkpt>
      <trkpt lat="47.0248" lon="-1.87618">
        <ele>54</ele>
        <time>2021-05-01T10:36:01.000Z</time>
      </trkpt>
      <trkpt lat="47.02484" lon="-1.87599">
        <ele>54</ele>
        <time>2021-05-01T10:36:03.000Z</time>
      </trkpt>
      <trkpt lat="47.02488" lon="-1.87581">
        <ele>53</ele>
        <time>2021-05-01T10:36:05.000Z</time>
      </trkpt>
      <trkpt lat="47.02486" lon="-1.8756">
        <ele>53</ele>
        <time>2021-05-01T10:36:07.000Z</time>
      </trkpt>
      <trkpt lat="47.02483" lon="-1.87541">
        <ele>53</ele>
        <time>2021-05-01T10:36:09.000Z</time>
      </trkpt>
      <trkpt lat="47.02479" lon="-1.87521">
        <ele>53</ele>
        <time>2021-05-01T10:36:11.000Z</time>
      </trkpt>
      <trkpt lat="47.02477" lon="-1.87501">
        <ele>53</ele>
        <time>2021-05-01T10:36:13.000Z</time>
      </trkpt>
      <trkpt lat="47.02473" lon="-1.87482">
        <ele>53</ele>
        <time>2021-05-01T10:36:15.000Z</time>
      </trkpt>
      <trkpt lat="47.0247" lon="-1.87463">
        <ele>52</ele>
        <time>2021-05-01T10:36:17.000Z</time>
      </trkpt>
      <trkpt lat="47.02466" lon="-1.87444">
        <ele>53</ele>
        <time>2021-05-01T10:36:19.000Z</time>
      </trkpt>
      <trkpt lat="47.0246" lon="-1.87426">
        <ele>53</ele>
        <time>2021-05-01T10:36:21.000Z</time>
      </trkpt>
      <trkpt lat="47.02454" lon="-1.87407">
        <ele>53</ele>
        <time>2021-05-01T10:36:23.000Z</time>
      </trkpt>
      <trkpt lat="47.0245" lon="-1.87388">
        <ele>54</ele>
        <time>2021-05-01T10:36:25.000Z</time>
      </trkpt>
      <trkpt lat="47.02446" lon="-1.87369">
        <ele>54</ele>
        <time>2021-05-01T10:36:27.000Z</time>
      </trkpt>
      <trkpt lat="47.02444" lon="-1.8735">
        <ele>54</ele>
        <time>2021-05-01T10:36:29.000Z</time>
      </trkpt>
      <trkpt lat="47.02444" lon="-1.8733">
        <ele>55</ele>
        <time>2021-05-01T10:36:31.000Z</time>
      </trkpt>
      <trkpt lat="47.02443" lon="-1.87311">
        <ele>55</ele>
        <time>2021-05-01T10:36:33.000Z</time>
      </trkpt>
      <trkpt lat="47.02442" lon="-1.87291">
        <ele>55</ele>
        <time>2021-05-01T10:36:35.000Z</time>
      </trkpt>
      <trkpt lat="47.02441" lon="-1.87272">
        <ele>55</ele>
        <time>2021-05-01T10:36:37.000Z</time>
      </trkpt>
      <trkpt lat="47.02441" lon="-1.87253">
        <ele>55</ele>
        <time>2021-05-01T10:36:39.000Z</time>
      </trkpt>
      <trkpt lat="47.0244" lon="-1.87233">
        <ele>55</ele>
        <time>2021-05-01T10:36:41.000Z</time>
      </trkpt>
      <trkpt lat="47.02439" lon="-1.87214">
        <ele>55</ele>
        <time>2021-05-01T10:36:43.000Z</time>
      </trkpt>
      <trkpt lat="47.02438" lon="-1.87195">
        <ele>55</ele>
        <time>2021-05-01T10:36:45.000Z</time>
      </trkpt>
      <trkpt lat="47.02436" lon="-1.87176">
        <ele>55</ele>
        <time>2021-05-01T10:36:47.000Z</time>
      </trkpt>
      <trkpt lat="47.02435" lon="-1.87157">
        <ele>55</ele>
        <time>2021-05-01T10:36:49.000Z</time>
      </trkpt>
      <trkpt lat="47.02434" lon="-1.87138">
        <ele>55</ele>
        <time>2021-05-01T10:36:51.000Z</time>
      </trkpt>
      <trkpt lat="47.02433" lon="-1.8712">
        <ele>55</ele>
        <time>2021-05-01T10:36:53.000Z</time>
      </trkpt>
      <trkpt lat="47.02431" lon="-1.871">
        <ele>55</ele>
        <time>2021-05-01T10:36:55.000Z</time>
      </trkpt>
      <trkpt lat="47.02429" lon="-1.87081">
        <ele>55</ele>
        <time>2021-05-01T10:36:57.000Z</time>
      </trkpt>
      <trkpt lat="47.02426" lon="-1.87062">
        <ele>55</ele>
        <time>2021-05-01T10:36:59.000Z</time>
      </trkpt>
      <trkpt lat="47.02424" lon="-1.87043">
        <ele>55</ele>
        <time>2021-05-01T10:37:01.000Z</time>
      </trkpt>
      <trkpt lat="47.0242" lon="-1.87024">
        <ele>55</ele>
        <time>2021-05-01T10:37:03.000Z</time>
      </trkpt>
      <trkpt lat="47.02415" lon="-1.87005">
        <ele>55</ele>
        <time>2021-05-01T10:37:05.000Z</time>
      </trkpt>
      <trkpt lat="47.0241" lon="-1.86986">
        <ele>55</ele>
        <time>2021-05-01T10:37:07.000Z</time>
      </trkpt>
      <trkpt lat="47.02404" lon="-1.86968">
        <ele>54</ele>
        <time>2021-05-01T10:37:09.000Z</time>
      </trkpt>
      <trkpt lat="47.02399" lon="-1.8695">
        <ele>54</ele>
        <time>2021-05-01T10:37:11.000Z</time>
      </trkpt>
      <trkpt lat="47.02393" lon="-1.86932">
        <ele>54</ele>
        <time>2021-05-01T10:37:13.000Z</time>
      </trkpt>
      <trkpt lat="47.02387" lon="-1.86915">
        <ele>55</ele>
        <time>2021-05-01T10:37:15.000Z</time>
      </trkpt>
      <trkpt lat="47.02382" lon="-1.86898">
        <ele>55</ele>
        <time>2021-05-01T10:37:17.000Z</time>
      </trkpt>
      <trkpt lat="47.02377" lon="-1.8688">
        <ele>56</ele>
        <time>2021-05-01T10:37:19.000Z</time>
      </trkpt>
      <trkpt lat="47.02372" lon="-1.86863">
        <ele>56</ele>
        <time>2021-05-01T10:37:21.000Z</time>
      </trkpt>
      <trkpt lat="47.02368" lon="-1.86847">
        <ele>56</ele>
        <time>2021-05-01T10:37:23.000Z</time>
      </trkpt>
      <trkpt lat="47.02363" lon="-1.8683">
        <ele>57</ele>
        <time>2021-05-01T10:37:25.000Z</time>
      </trkpt>
      <trkpt lat="47.0236" lon="-1.86814">
        <ele>57</ele>
        <time>2021-05-01T10:37:27.000Z</time>
      </trkpt>
      <trkpt lat="47.02356" lon="-1.86798">
        <ele>58</ele>
        <time>2021-05-01T10:37:29.000Z</time>
      </trkpt>
      <trkpt lat="47.02353" lon="-1.86782">
        <ele>58</ele>
        <time>2021-05-01T10:37:31.000Z</time>
      </trkpt>
      <trkpt lat="47.02349" lon="-1.86766">
        <ele>58</ele>
        <time>2021-05-01T10:37:33.000Z</time>
      </trkpt>
      <trkpt lat="47.02345" lon="-1.8675">
        <ele>58</ele>
        <time>2021-05-01T10:37:35.000Z</time>
      </trkpt>
      <trkpt lat="47.02342" lon="-1.86735">
        <ele>58</ele>
        <time>2021-05-01T10:37:37.000Z</time>
      </trkpt>
      <trkpt lat="47.02339" lon="-1.8672">
        <ele>58</ele>
        <time>2021-05-01T10:37:39.000Z</time>
      </trkpt>
      <trkpt lat="47.02336" lon="-1.86705">
        <ele>58</ele>
        <time>2021-05-01T10:37:41.000Z</time>
      </trkpt>
      <trkpt lat="47.02333" lon="-1.8669">
        <ele>59</ele>
        <time>2021-05-01T10:37:43.000Z</time>
      </trkpt>
      <trkpt lat="47.0233" lon="-1.86676">
        <ele>59</ele>
        <time>2021-05-01T10:37:45.000Z</time>
      </trkpt>
      <trkpt lat="47.02327" lon="-1.86661">
        <ele>60</ele>
        <time>2021-05-01T10:37:47.000Z</time>
      </trkpt>
      <trkpt lat="47.02324" lon="-1.86645">
        <ele>60</ele>
        <time>2021-05-01T10:37:49.000Z</time>
      </trkpt>
      <trkpt lat="47.0232" lon="-1.8663">
        <ele>60</ele>
        <time>2021-05-01T10:37:51.000Z</time>
      </trkpt>
      <trkpt lat="47.02316" lon="-1.86615">
        <ele>60</ele>
        <time>2021-05-01T10:37:53.000Z</time>
      </trkpt>
      <trkpt lat="47.02313" lon="-1.866">
        <ele>61</ele>
        <time>2021-05-01T10:37:55.000Z</time>
      </trkpt>
      <trkpt lat="47.0231" lon="-1.86584">
        <ele>62</ele>
        <time>2021-05-01T10:37:57.000Z</time>
      </trkpt>
      <trkpt lat="47.02307" lon="-1.86568">
        <ele>62</ele>
        <time>2021-05-01T10:37:59.000Z</time>
      </trkpt>
      <trkpt lat="47.02304" lon="-1.86553">
        <ele>62</ele>
        <time>2021-05-01T10:38:01.000Z</time>
      </trkpt>
      <trkpt lat="47.02301" lon="-1.86537">
        <ele>63</ele>
        <time>2021-05-01T10:38:03.000Z</time>
      </trkpt>
      <trkpt lat="47.02297" lon="-1.8652">
        <ele>63</ele>
        <time>2021-05-01T10:38:05.000Z</time>
      </trkpt>
      <trkpt lat="47.02295" lon="-1.86505">
        <ele>64</ele>
        <time>2021-05-01T10:38:07.000Z</time>
      </trkpt>
      <trkpt lat="47.02293" lon="-1.86489">
        <ele>64</ele>
        <time>2021-05-01T10:38:09.000Z</time>
      </trkpt>
      <trkpt lat="47.02292" lon="-1.86473">
        <ele>64</ele>
        <time>2021-05-01T10:38:11.000Z</time>
      </trkpt>
      <trkpt lat="47.0229" lon="-1.86456">
        <ele>65</ele>
        <time>2021-05-01T10:38:13.000Z</time>
      </trkpt>
      <trkpt lat="47.0229" lon="-1.86439">
        <ele>65</ele>
        <time>2021-05-01T10:38:15.000Z</time>
      </trkpt>
      <trkpt lat="47.02289" lon="-1.86422">
        <ele>65</ele>
        <time>2021-05-01T10:38:17.000Z</time>
      </trkpt>
      <trkpt lat="47.02289" lon="-1.86406">
        <ele>66</ele>
        <time>2021-05-01T10:38:19.000Z</time>
      </trkpt>
      <trkpt lat="47.02289" lon="-1.86389">
        <ele>66</ele>
        <time>2021-05-01T10:38:21.000Z</time>
      </trkpt>
      <trkpt lat="47.02289" lon="-1.86373">
        <ele>66</ele>
        <time>2021-05-01T10:38:23.000Z</time>
      </trkpt>
      <trkpt lat="47.02289" lon="-1.86356">
        <ele>65</ele>
        <time>2021-05-01T10:38:25.000Z</time>
      </trkpt>
      <trkpt lat="47.02289" lon="-1.8634">
        <ele>65</ele>
        <time>2021-05-01T10:38:27.000Z</time>
      </trkpt>
      <trkpt lat="47.02289" lon="-1.86325">
        <ele>66</ele>
        <time>2021-05-01T10:38:29.000Z</time>
      </trkpt>
      <trkpt lat="47.02289" lon="-1.86308">
        <ele>66</ele>
        <time>2021-05-01T10:38:31.000Z</time>
      </trkpt>
      <trkpt lat="47.0229" lon="-1.86292">
        <ele>66</ele>
        <time>2021-05-01T10:38:33.000Z</time>
      </trkpt>
      <trkpt lat="47.02291" lon="-1.86276">
        <ele>67</ele>
        <time>2021-05-01T10:38:35.000Z</time>
      </trkpt>
      <trkpt lat="47.02295" lon="-1.86261">
        <ele>67</ele>
        <time>2021-05-01T10:38:37.000Z</time>
      </trkpt>
      <trkpt lat="47.02301" lon="-1.86248">
        <ele>67</ele>
        <time>2021-05-01T10:38:39.000Z</time>
      </trkpt>
      <trkpt lat="47.0231" lon="-1.86237">
        <ele>67</ele>
        <time>2021-05-01T10:38:41.000Z</time>
      </trkpt>
      <trkpt lat="47.0232" lon="-1.86227">
        <ele>67</ele>
        <time>2021-05-01T10:38:43.000Z</time>
      </trkpt>
      <trkpt lat="47.02329" lon="-1.86218">
        <ele>67</ele>
        <time>2021-05-01T10:38:45.000Z</time>
      </trkpt>
      <trkpt lat="47.02339" lon="-1.8621">
        <ele>67</ele>
        <time>2021-05-01T10:38:47.000Z</time>
      </trkpt>
      <trkpt lat="47.02348" lon="-1.86201">
        <ele>67</ele>
        <time>2021-05-01T10:38:49.000Z</time>
      </trkpt>
      <trkpt lat="47.02358" lon="-1.86193">
        <ele>67</ele>
        <time>2021-05-01T10:38:51.000Z</time>
      </trkpt>
      <trkpt lat="47.02367" lon="-1.86184">
        <ele>67</ele>
        <time>2021-05-01T10:38:53.000Z</time>
      </trkpt>
      <trkpt lat="47.02376" lon="-1.86175">
        <ele>68</ele>
        <time>2021-05-01T10:38:55.000Z</time>
      </trkpt>
      <trkpt lat="47.02385" lon="-1.86164">
        <ele>68</ele>
        <time>2021-05-01T10:38:57.000Z</time>
      </trkpt>
      <trkpt lat="47.02394" lon="-1.86154">
        <ele>68</ele>
        <time>2021-05-01T10:38:59.000Z</time>
      </trkpt>
      <trkpt lat="47.02402" lon="-1.86143">
        <ele>68</ele>
        <time>2021-05-01T10:39:01.000Z</time>
      </trkpt>
      <trkpt lat="47.02411" lon="-1.8613">
        <ele>68</ele>
        <time>2021-05-01T10:39:03.000Z</time>
      </trkpt>
      <trkpt lat="47.02419" lon="-1.86116">
        <ele>68</ele>
        <time>2021-05-01T10:39:05.000Z</time>
      </trkpt>
      <trkpt lat="47.02427" lon="-1.86103">
        <ele>68</ele>
        <time>2021-05-01T10:39:07.000Z</time>
      </trkpt>
      <trkpt lat="47.02436" lon="-1.86089">
        <ele>68</ele>
        <time>2021-05-01T10:39:09.000Z</time>
      </trkpt>
      <trkpt lat="47.02444" lon="-1.86076">
        <ele>68</ele>
        <time>2021-05-01T10:39:11.000Z</time>
      </trkpt>
      <trkpt lat="47.02451" lon="-1.86064">
        <ele>68</ele>
        <time>2021-05-01T10:39:13.000Z</time>
      </trkpt>
      <trkpt lat="47.02459" lon="-1.86051">
        <ele>68</ele>
        <time>2021-05-01T10:39:15.000Z</time>
      </trkpt>
      <trkpt lat="47.02467" lon="-1.86038">
        <ele>68</ele>
        <time>2021-05-01T10:39:17.000Z</time>
      </trkpt>
      <trkpt lat="47.02475" lon="-1.86025">
        <ele>68</ele>
        <time>2021-05-01T10:39:19.000Z</time>
      </trkpt>
      <trkpt lat="47.02482" lon="-1.86012">
        <ele>68</ele>
        <time>2021-05-01T10:39:21.000Z</time>
      </trkpt>
      <trkpt lat="47.0249" lon="-1.85999">
        <ele>67</ele>
        <time>2021-05-01T10:39:23.000Z</time>
      </trkpt>
      <trkpt lat="47.02498" lon="-1.85986">
        <ele>67</ele>
        <time>2021-05-01T10:39:25.000Z</time>
      </trkpt>
      <trkpt lat="47.02506" lon="-1.85974">
        <ele>67</ele>
        <time>2021-05-01T10:39:27.000Z</time>
      </trkpt>
      <trkpt lat="47.02514" lon="-1.85961">
        <ele>67</ele>
        <time>2021-05-01T10:39:29.000Z</time>
      </trkpt>
      <trkpt lat="47.02522" lon="-1.85948">
        <ele>68</ele>
        <time>2021-05-01T10:39:31.000Z</time>
      </trkpt>
      <trkpt lat="47.02529" lon="-1.85935">
        <ele>68</ele>
        <time>2021-05-01T10:39:33.000Z</time>
      </trkpt>
      <trkpt lat="47.02537" lon="-1.85922">
        <ele>68</ele>
        <time>2021-05-01T10:39:35.000Z</time>
      </trkpt>
      <trkpt lat="47.02545" lon="-1.85909">
        <ele>68</ele>
        <time>2021-05-01T10:39:37.000Z</time>
      </trkpt>
      <trkpt lat="47.02553" lon="-1.85896">
        <ele>68</ele>
        <time>2021-05-01T10:39:39.000Z</time>
      </trkpt>
      <trkpt lat="47.02561" lon="-1.85882">
        <ele>68</ele>
        <time>2021-05-01T10:39:41.000Z</time>
      </trkpt>
      <trkpt lat="47.02569" lon="-1.85869">
        <ele>68</ele>
        <time>2021-05-01T10:39:43.000Z</time>
      </trkpt>
      <trkpt lat="47.02578" lon="-1.85855">
        <ele>68</ele>
        <time>2021-05-01T10:39:45.000Z</time>
      </trkpt>
      <trkpt lat="47.02586" lon="-1.85842">
        <ele>68</ele>
        <time>2021-05-01T10:39:47.000Z</time>
      </trkpt>
      <trkpt lat="47.02594" lon="-1.85828">
        <ele>67</ele>
        <time>2021-05-01T10:39:49.000Z</time>
      </trkpt>
      <trkpt lat="47.02603" lon="-1.85815">
        <ele>68</ele>
        <time>2021-05-01T10:39:51.000Z</time>
      </trkpt>
      <trkpt lat="47.0261" lon="-1.85802">
        <ele>68</ele>
        <time>2021-05-01T10:39:53.000Z</time>
      </trkpt>
      <trkpt lat="47.02618" lon="-1.85788">
        <ele>68</ele>
        <time>2021-05-01T10:39:55.000Z</time>
      </trkpt>
      <trkpt lat="47.02626" lon="-1.85775">
        <ele>68</ele>
        <time>2021-05-01T10:39:57.000Z</time>
      </trkpt>
      <trkpt lat="47.02633" lon="-1.85763">
        <ele>68</ele>
        <time>2021-05-01T10:39:59.000Z</time>
      </trkpt>
      <trkpt lat="47.02641" lon="-1.85749">
        <ele>68</ele>
        <time>2021-05-01T10:40:01.000Z</time>
      </trkpt>
      <trkpt lat="47.0265" lon="-1.85736">
        <ele>68</ele>
        <time>2021-05-01T10:40:03.000Z</time>
      </trkpt>
      <trkpt lat="47.02658" lon="-1.85722">
        <ele>67</ele>
        <time>2021-05-01T10:40:05.000Z</time>
      </trkpt>
      <trkpt lat="47.02667" lon="-1.85708">
        <ele>67</ele>
        <time>2021-05-01T10:40:07.000Z</time>
      </trkpt>
      <trkpt lat="47.02676" lon="-1.85694">
        <ele>67</ele>
        <time>2021-05-01T10:40:09.000Z</time>
      </trkpt>
      <trkpt lat="47.02685" lon="-1.85681">
        <ele>66</ele>
        <time>2021-05-01T10:40:11.000Z</time>
      </trkpt>
      <trkpt lat="47.02696" lon="-1.85669">
        <ele>66</ele>
        <time>2021-05-01T10:40:13.000Z</time>
      </trkpt>
      <trkpt lat="47.02708" lon="-1.85658">
        <ele>65</ele>
        <time>2021-05-01T10:40:15.000Z</time>
      </trkpt>
      <trkpt lat="47.02721" lon="-1.8565">
        <ele>64</ele>
        <time>2021-05-01T10:40:17.000Z</time>
      </trkpt>
      <trkpt lat="47.02735" lon="-1.85642">
        <ele>63</ele>
        <time>2021-05-01T10:40:19.000Z</time>
      </trkpt>
      <trkpt lat="47.02749" lon="-1.85636">
        <ele>63</ele>
        <time>2021-05-01T10:40:21.000Z</time>
      </trkpt>
      <trkpt lat="47.02764" lon="-1.8563">
        <ele>62</ele>
        <time>2021-05-01T10:40:23.000Z</time>
      </trkpt>
      <trkpt lat="47.02779" lon="-1.85624">
        <ele>62</ele>
        <time>2021-05-01T10:40:25.000Z</time>
      </trkpt>
      <trkpt lat="47.02794" lon="-1.85616">
        <ele>62</ele>
        <time>2021-05-01T10:40:27.000Z</time>
      </trkpt>
      <trkpt lat="47.02807" lon="-1.85607">
        <ele>62</ele>
        <time>2021-05-01T10:40:29.000Z</time>
      </trkpt>
      <trkpt lat="47.02819" lon="-1.85595">
        <ele>62</ele>
        <time>2021-05-01T10:40:31.000Z</time>
      </trkpt>
      <trkpt lat="47.0283" lon="-1.85583">
        <ele>63</ele>
        <time>2021-05-01T10:40:33.000Z</time>
      </trkpt>
      <trkpt lat="47.02839" lon="-1.8557">
        <ele>64</ele>
        <time>2021-05-01T10:40:35.000Z</time>
      </trkpt>
      <trkpt lat="47.02848" lon="-1.85556">
        <ele>64</ele>
        <time>2021-05-01T10:40:37.000Z</time>
      </trkpt>
      <trkpt lat="47.02857" lon="-1.85543">
        <ele>64</ele>
        <time>2021-05-01T10:40:39.000Z</time>
      </trkpt>
      <trkpt lat="47.02866" lon="-1.8553">
        <ele>65</ele>
        <time>2021-05-01T10:40:41.000Z</time>
      </trkpt>
      <trkpt lat="47.02874" lon="-1.85516">
        <ele>65</ele>
        <time>2021-05-01T10:40:43.000Z</time>
      </trkpt>
      <trkpt lat="47.02882" lon="-1.85504">
        <ele>65</ele>
        <time>2021-05-01T10:40:45.000Z</time>
      </trkpt>
      <trkpt lat="47.0289" lon="-1.85491">
        <ele>66</ele>
        <time>2021-05-01T10:40:47.000Z</time>
      </trkpt>
      <trkpt lat="47.02898" lon="-1.8548">
        <ele>66</ele>
        <time>2021-05-01T10:40:49.000Z</time>
      </trkpt>
      <trkpt lat="47.02906" lon="-1.85469">
        <ele>66</ele>
        <time>2021-05-01T10:40:51.000Z</time>
      </trkpt>
      <trkpt lat="47.02914" lon="-1.85457">
        <ele>65</ele>
        <time>2021-05-01T10:40:53.000Z</time>
      </trkpt>
      <trkpt lat="47.02922" lon="-1.85445">
        <ele>65</ele>
        <time>2021-05-01T10:40:55.000Z</time>
      </trkpt>
      <trkpt lat="47.0293" lon="-1.85432">
        <ele>66</ele>
        <time>2021-05-01T10:40:57.000Z</time>
      </trkpt>
      <trkpt lat="47.02938" lon="-1.8542">
        <ele>66</ele>
        <time>2021-05-01T10:40:59.000Z</time>
      </trkpt>
      <trkpt lat="47.02946" lon="-1.85408">
        <ele>66</ele>
        <time>2021-05-01T10:41:01.000Z</time>
      </trkpt>
      <trkpt lat="47.02954" lon="-1.85397">
        <ele>66</ele>
        <time>2021-05-01T10:41:03.000Z</time>
      </trkpt>
      <trkpt lat="47.02961" lon="-1.85385">
        <ele>67</ele>
        <time>2021-05-01T10:41:05.000Z</time>
      </trkpt>
      <trkpt lat="47.02969" lon="-1.85373">
        <ele>67</ele>
        <time>2021-05-01T10:41:07.000Z</time>
      </trkpt>
      <trkpt lat="47.02977" lon="-1.85361">
        <ele>67</ele>
        <time>2021-05-01T10:41:09.000Z</time>
      </trkpt>
      <trkpt lat="47.02984" lon="-1.8535">
        <ele>67</ele>
        <time>2021-05-01T10:41:11.000Z</time>
      </trkpt>
      <trkpt lat="47.02992" lon="-1.85338">
        <ele>68</ele>
        <time>2021-05-01T10:41:13.000Z</time>
      </trkpt>
      <trkpt lat="47.02999" lon="-1.85327">
        <ele>68</ele>
        <time>2021-05-01T10:41:15.000Z</time>
      </trkpt>
      <trkpt lat="47.03006" lon="-1.85315">
        <ele>68</ele>
        <time>2021-05-01T10:41:17.000Z</time>
      </trkpt>
      <trkpt lat="47.03014" lon="-1.85304">
        <ele>68</ele>
        <time>2021-05-01T10:41:19.000Z</time>
      </trkpt>
      <trkpt lat="47.03021" lon="-1.85293">
        <ele>69</ele>
        <time>2021-05-01T10:41:21.000Z</time>
      </trkpt>
      <trkpt lat="47.03029" lon="-1.85281">
        <ele>69</ele>
        <time>2021-05-01T10:41:23.000Z</time>
      </trkpt>
      <trkpt lat="47.03036" lon="-1.8527">
        <ele>69</ele>
        <time>2021-05-01T10:41:25.000Z</time>
      </trkpt>
      <trkpt lat="47.03043" lon="-1.85259">
        <ele>69</ele>
        <time>2021-05-01T10:41:27.000Z</time>
      </trkpt>
      <trkpt lat="47.03051" lon="-1.85247">
        <ele>70</ele>
        <time>2021-05-01T10:41:29.000Z</time>
      </trkpt>
      <trkpt lat="47.03058" lon="-1.85236">
        <ele>70</ele>
        <time>2021-05-01T10:41:31.000Z</time>
      </trkpt>
      <trkpt lat="47.03065" lon="-1.85224">
        <ele>70</ele>
        <time>2021-05-01T10:41:33.000Z</time>
      </trkpt>
      <trkpt lat="47.03072" lon="-1.85212">
        <ele>71</ele>
        <time>2021-05-01T10:41:35.000Z</time>
      </trkpt>
      <trkpt lat="47.03079" lon="-1.85199">
        <ele>71</ele>
        <time>2021-05-01T10:41:37.000Z</time>
      </trkpt>
      <trkpt lat="47.03085" lon="-1.85186">
        <ele>72</ele>
        <time>2021-05-01T10:41:39.000Z</time>
      </trkpt>
      <trkpt lat="47.0309" lon="-1.85173">
        <ele>72</ele>
        <time>2021-05-01T10:41:41.000Z</time>
      </trkpt>
      <trkpt lat="47.03096" lon="-1.85159">
        <ele>73</ele>
        <time>2021-05-01T10:41:43.000Z</time>
      </trkpt>
      <trkpt lat="47.031" lon="-1.85145">
        <ele>73</ele>
        <time>2021-05-01T10:41:45.000Z</time>
      </trkpt>
      <trkpt lat="47.03105" lon="-1.8513">
        <ele>74</ele>
        <time>2021-05-01T10:41:47.000Z</time>
      </trkpt>
      <trkpt lat="47.03108" lon="-1.85113">
        <ele>74</ele>
        <time>2021-05-01T10:41:49.000Z</time>
      </trkpt>
      <trkpt lat="47.03111" lon="-1.85097">
        <ele>75</ele>
        <time>2021-05-01T10:41:51.000Z</time>
      </trkpt>
      <trkpt lat="47.03113" lon="-1.8508">
        <ele>75</ele>
        <time>2021-05-01T10:41:53.000Z</time>
      </trkpt>
      <trkpt lat="47.03114" lon="-1.85064">
        <ele>75</ele>
        <time>2021-05-01T10:41:55.000Z</time>
      </trkpt>
      <trkpt lat="47.03115" lon="-1.85046">
        <ele>75</ele>
        <time>2021-05-01T10:41:57.000Z</time>
      </trkpt>
      <trkpt lat="47.03115" lon="-1.85029">
        <ele>75</ele>
        <time>2021-05-01T10:41:59.000Z</time>
      </trkpt>
      <trkpt lat="47.03115" lon="-1.85012">
        <ele>75</ele>
        <time>2021-05-01T10:42:01.000Z</time>
      </trkpt>
      <trkpt lat="47.03114" lon="-1.84994">
        <ele>75</ele>
        <time>2021-05-01T10:42:03.000Z</time>
      </trkpt>
      <trkpt lat="47.03113" lon="-1.84977">
        <ele>75</ele>
        <time>2021-05-01T10:42:05.000Z</time>
      </trkpt>
      <trkpt lat="47.03112" lon="-1.84959">
        <ele>76</ele>
        <time>2021-05-01T10:42:07.000Z</time>
      </trkpt>
      <trkpt lat="47.0311" lon="-1.84942">
        <ele>76</ele>
        <time>2021-05-01T10:42:09.000Z</time>
      </trkpt>
      <trkpt lat="47.03109" lon="-1.84924">
        <ele>76</ele>
        <time>2021-05-01T10:42:11.000Z</time>
      </trkpt>
      <trkpt lat="47.03108" lon="-1.84907">
        <ele>76</ele>
        <time>2021-05-01T10:42:13.000Z</time>
      </trkpt>
      <trkpt lat="47.03109" lon="-1.84889">
        <ele>76</ele>
        <time>2021-05-01T10:42:15.000Z</time>
      </trkpt>
      <trkpt lat="47.03109" lon="-1.84871">
        <ele>76</ele>
        <time>2021-05-01T10:42:17.000Z</time>
      </trkpt>
      <trkpt lat="47.03111" lon="-1.84853">
        <ele>76</ele>
        <time>2021-05-01T10:42:19.000Z</time>
      </trkpt>
      <trkpt lat="47.03113" lon="-1.84835">
        <ele>76</ele>
        <time>2021-05-01T10:42:21.000Z</time>
      </trkpt>
      <trkpt lat="47.03116" lon="-1.84817">
        <ele>76</ele>
        <time>2021-05-01T10:42:23.000Z</time>
      </trkpt>
      <trkpt lat="47.03119" lon="-1.84798">
        <ele>76</ele>
        <time>2021-05-01T10:42:25.000Z</time>
      </trkpt>
      <trkpt lat="47.03122" lon="-1.8478">
        <ele>77</ele>
        <time>2021-05-01T10:42:27.000Z</time>
      </trkpt>
      <trkpt lat="47.03124" lon="-1.84761">
        <ele>77</ele>
        <time>2021-05-01T10:42:29.000Z</time>
      </trkpt>
      <trkpt lat="47.03126" lon="-1.84743">
        <ele>77</ele>
        <time>2021-05-01T10:42:31.000Z</time>
      </trkpt>
      <trkpt lat="47.03127" lon="-1.84724">
        <ele>77</ele>
        <time>2021-05-01T10:42:33.000Z</time>
      </trkpt>
      <trkpt lat="47.03127" lon="-1.84706">
        <ele>77</ele>
        <time>2021-05-01T10:42:35.000Z</time>
      </trkpt>
      <trkpt lat="47.03128" lon="-1.84687">
        <ele>77</ele>
        <time>2021-05-01T10:42:37.000Z</time>
      </trkpt>
      <trkpt lat="47.03128" lon="-1.84668">
        <ele>77</ele>
        <time>2021-05-01T10:42:39.000Z</time>
      </trkpt>
      <trkpt lat="47.03128" lon="-1.84648">
        <ele>77</ele>
        <time>2021-05-01T10:42:41.000Z</time>
      </trkpt>
      <trkpt lat="47.03128" lon="-1.8463">
        <ele>77</ele>
        <time>2021-05-01T10:42:43.000Z</time>
      </trkpt>
      <trkpt lat="47.03128" lon="-1.84611">
        <ele>77</ele>
        <time>2021-05-01T10:42:45.000Z</time>
      </trkpt>
      <trkpt lat="47.03128" lon="-1.84593">
        <ele>77</ele>
        <time>2021-05-01T10:42:47.000Z</time>
      </trkpt>
      <trkpt lat="47.03128" lon="-1.84574">
        <ele>77</ele>
        <time>2021-05-01T10:42:49.000Z</time>
      </trkpt>
      <trkpt lat="47.03129" lon="-1.84556">
        <ele>77</ele>
        <time>2021-05-01T10:42:51.000Z</time>
      </trkpt>
      <trkpt lat="47.03129" lon="-1.84538">
        <ele>77</ele>
        <time>2021-05-01T10:42:53.000Z</time>
      </trkpt>
      <trkpt lat="47.03129" lon="-1.84519">
        <ele>77</ele>
        <time>2021-05-01T10:42:55.000Z</time>
      </trkpt>
      <trkpt lat="47.03129" lon="-1.84501">
        <ele>77</ele>
        <time>2021-05-01T10:42:57.000Z</time>
      </trkpt>
      <trkpt lat="47.03129" lon="-1.84482">
        <ele>77</ele>
        <time>2021-05-01T10:42:59.000Z</time>
      </trkpt>
      <trkpt lat="47.03129" lon="-1.84464">
        <ele>77</ele>
        <time>2021-05-01T10:43:01.000Z</time>
      </trkpt>
      <trkpt lat="47.0313" lon="-1.84445">
        <ele>77</ele>
        <time>2021-05-01T10:43:03.000Z</time>
      </trkpt>
      <trkpt lat="47.0313" lon="-1.84426">
        <ele>77</ele>
        <time>2021-05-01T10:43:05.000Z</time>
      </trkpt>
      <trkpt lat="47.0313" lon="-1.84408">
        <ele>77</ele>
        <time>2021-05-01T10:43:07.000Z</time>
      </trkpt>
      <trkpt lat="47.0313" lon="-1.8439">
        <ele>78</ele>
        <time>2021-05-01T10:43:09.000Z</time>
      </trkpt>
      <trkpt lat="47.0313" lon="-1.84371">
        <ele>78</ele>
        <time>2021-05-01T10:43:11.000Z</time>
      </trkpt>
      <trkpt lat="47.03131" lon="-1.84353">
        <ele>78</ele>
        <time>2021-05-01T10:43:13.000Z</time>
      </trkpt>
      <trkpt lat="47.03131" lon="-1.84334">
        <ele>77</ele>
        <time>2021-05-01T10:43:15.000Z</time>
      </trkpt>
      <trkpt lat="47.03131" lon="-1.84315">
        <ele>78</ele>
        <time>2021-05-01T10:43:17.000Z</time>
      </trkpt>
      <trkpt lat="47.03131" lon="-1.84296">
        <ele>77</ele>
        <time>2021-05-01T10:43:19.000Z</time>
      </trkpt>
      <trkpt lat="47.03131" lon="-1.84277">
        <ele>77</ele>
        <time>2021-05-01T10:43:21.000Z</time>
      </trkpt>
      <trkpt lat="47.03131" lon="-1.84258">
        <ele>77</ele>
        <time>2021-05-01T10:43:23.000Z</time>
      </trkpt>
      <trkpt lat="47.03131" lon="-1.8424">
        <ele>78</ele>
        <time>2021-05-01T10:43:25.000Z</time>
      </trkpt>
      <trkpt lat="47.03132" lon="-1.84222">
        <ele>78</ele>
        <time>2021-05-01T10:43:27.000Z</time>
      </trkpt>
      <trkpt lat="47.03132" lon="-1.84205">
        <ele>77</ele>
        <time>2021-05-01T10:43:29.000Z</time>
      </trkpt>
      <trkpt lat="47.03132" lon="-1.84186">
        <ele>77</ele>
        <time>2021-05-01T10:43:31.000Z</time>
      </trkpt>
      <trkpt lat="47.03132" lon="-1.84168">
        <ele>76</ele>
        <time>2021-05-01T10:43:33.000Z</time>
      </trkpt>
      <trkpt lat="47.03132" lon="-1.84151">
        <ele>77</ele>
        <time>2021-05-01T10:43:35.000Z</time>
      </trkpt>
      <trkpt lat="47.03132" lon="-1.84133">
        <ele>77</ele>
        <time>2021-05-01T10:43:37.000Z</time>
      </trkpt>
      <trkpt lat="47.03132" lon="-1.84114">
        <ele>77</ele>
        <time>2021-05-01T10:43:39.000Z</time>
      </trkpt>
      <trkpt lat="47.03132" lon="-1.84095">
        <ele>77</ele>
        <time>2021-05-01T10:43:41.000Z</time>
      </trkpt>
      <trkpt lat="47.03132" lon="-1.84077">
        <ele>77</ele>
        <time>2021-05-01T10:43:43.000Z</time>
      </trkpt>
      <trkpt lat="47.03132" lon="-1.84059">
        <ele>77</ele>
        <time>2021-05-01T10:43:45.000Z</time>
      </trkpt>
      <trkpt lat="47.03132" lon="-1.8404">
        <ele>77</ele>
        <time>2021-05-01T10:43:47.000Z</time>
      </trkpt>
      <trkpt lat="47.03133" lon="-1.84022">
        <ele>77</ele>
        <time>2021-05-01T10:43:49.000Z</time>
      </trkpt>
      <trkpt lat="47.03133" lon="-1.84004">
        <ele>77</ele>
        <time>2021-05-01T10:43:51.000Z</time>
      </trkpt>
      <trkpt lat="47.03133" lon="-1.83986">
        <ele>77</ele>
        <time>2021-05-01T10:43:53.000Z</time>
      </trkpt>
      <trkpt lat="47.03133" lon="-1.83968">
        <ele>78</ele>
        <time>2021-05-01T10:43:55.000Z</time>
      </trkpt>
      <trkpt lat="47.03133" lon="-1.83949">
        <ele>77</ele>
        <time>2021-05-01T10:43:57.000Z</time>
      </trkpt>
      <trkpt lat="47.03133" lon="-1.8393">
        <ele>78</ele>
        <time>2021-05-01T10:43:59.000Z</time>
      </trkpt>
      <trkpt lat="47.03133" lon="-1.83912">
        <ele>78</ele>
        <time>2021-05-01T10:44:01.000Z</time>
      </trkpt>
      <trkpt lat="47.03134" lon="-1.83893">
        <ele>78</ele>
        <time>2021-05-01T10:44:03.000Z</time>
      </trkpt>
      <trkpt lat="47.03134" lon="-1.83875">
        <ele>78</ele>
        <time>2021-05-01T10:44:05.000Z</time>
      </trkpt>
      <trkpt lat="47.03134" lon="-1.83856">
        <ele>78</ele>
        <time>2021-05-01T10:44:07.000Z</time>
      </trkpt>
      <trkpt lat="47.03134" lon="-1.83837">
        <ele>78</ele>
        <time>2021-05-01T10:44:09.000Z</time>
      </trkpt>
      <trkpt lat="47.03134" lon="-1.83818">
        <ele>78</ele>
        <time>2021-05-01T10:44:11.000Z</time>
      </trkpt>
      <trkpt lat="47.03135" lon="-1.838">
        <ele>78</ele>
        <time>2021-05-01T10:44:13.000Z</time>
      </trkpt>
      <trkpt lat="47.03135" lon="-1.83781">
        <ele>79</ele>
        <time>2021-05-01T10:44:15.000Z</time>
      </trkpt>
      <trkpt lat="47.03135" lon="-1.83762">
        <ele>79</ele>
        <time>2021-05-01T10:44:17.000Z</time>
      </trkpt>
      <trkpt lat="47.03135" lon="-1.83743">
        <ele>79</ele>
        <time>2021-05-01T10:44:19.000Z</time>
      </trkpt>
      <trkpt lat="47.03135" lon="-1.83726">
        <ele>79</ele>
        <time>2021-05-01T10:44:21.000Z</time>
      </trkpt>
      <trkpt lat="47.03136" lon="-1.83707">
        <ele>79</ele>
        <time>2021-05-01T10:44:23.000Z</time>
      </trkpt>
      <trkpt lat="47.03137" lon="-1.83689">
        <ele>79</ele>
        <time>2021-05-01T10:44:25.000Z</time>
      </trkpt>
      <trkpt lat="47.03138" lon="-1.8367">
        <ele>79</ele>
        <time>2021-05-01T10:44:27.000Z</time>
      </trkpt>
      <trkpt lat="47.03139" lon="-1.83652">
        <ele>79</ele>
        <time>2021-05-01T10:44:29.000Z</time>
      </trkpt>
      <trkpt lat="47.03142" lon="-1.83634">
        <ele>78</ele>
        <time>2021-05-01T10:44:31.000Z</time>
      </trkpt>
      <trkpt lat="47.03144" lon="-1.83616">
        <ele>78</ele>
        <time>2021-05-01T10:44:33.000Z</time>
      </trkpt>
      <trkpt lat="47.03146" lon="-1.83598">
        <ele>78</ele>
        <time>2021-05-01T10:44:35.000Z</time>
      </trkpt>
      <trkpt lat="47.03149" lon="-1.8358">
        <ele>78</ele>
        <time>2021-05-01T10:44:37.000Z</time>
      </trkpt>
      <trkpt lat="47.03151" lon="-1.83562">
        <ele>79</ele>
        <time>2021-05-01T10:44:39.000Z</time>
      </trkpt>
      <trkpt lat="47.03153" lon="-1.83543">
        <ele>79</ele>
        <time>2021-05-01T10:44:41.000Z</time>
      </trkpt>
      <trkpt lat="47.03155" lon="-1.83525">
        <ele>78</ele>
        <time>2021-05-01T10:44:43.000Z</time>
      </trkpt>
      <trkpt lat="47.03158" lon="-1.83506">
        <ele>78</ele>
        <time>2021-05-01T10:44:45.000Z</time>
      </trkpt>
      <trkpt lat="47.0316" lon="-1.83487">
        <ele>77</ele>
        <time>2021-05-01T10:44:47.000Z</time>
      </trkpt>
      <trkpt lat="47.03163" lon="-1.83469">
        <ele>77</ele>
        <time>2021-05-01T10:44:49.000Z</time>
      </trkpt>
      <trkpt lat="47.03165" lon="-1.8345">
        <ele>76</ele>
        <time>2021-05-01T10:44:51.000Z</time>
      </trkpt>
      <trkpt lat="47.03166" lon="-1.83431">
        <ele>76</ele>
        <time>2021-05-01T10:44:53.000Z</time>
      </trkpt>
      <trkpt lat="47.03166" lon="-1.83411">
        <ele>76</ele>
        <time>2021-05-01T10:44:55.000Z</time>
      </trkpt>
      <trkpt lat="47.03164" lon="-1.83391">
        <ele>75</ele>
        <time>2021-05-01T10:44:57.000Z</time>
      </trkpt>
      <trkpt lat="47.03161" lon="-1.83371">
        <ele>75</ele>
        <time>2021-05-01T10:44:59.000Z</time>
      </trkpt>
      <trkpt lat="47.03157" lon="-1.83352">
        <ele>74</ele>
        <time>2021-05-01T10:45:01.000Z</time>
      </trkpt>
      <trkpt lat="47.03152" lon="-1.83333">
        <ele>74</ele>
        <time>2021-05-01T10:45:03.000Z</time>
      </trkpt>
      <trkpt lat="47.03146" lon="-1.83314">
        <ele>74</ele>
        <time>2021-05-01T10:45:05.000Z</time>
      </trkpt>
      <trkpt lat="47.0314" lon="-1.83296">
        <ele>73</ele>
        <time>2021-05-01T10:45:07.000Z</time>
      </trkpt>
      <trkpt lat="47.03134" lon="-1.83277">
        <ele>73</ele>
        <time>2021-05-01T10:45:09.000Z</time>
      </trkpt>
      <trkpt lat="47.03129" lon="-1.83259">
        <ele>73</ele>
        <time>2021-05-01T10:45:11.000Z</time>
      </trkpt>
      <trkpt lat="47.03123" lon="-1.8324">
        <ele>73</ele>
        <time>2021-05-01T10:45:13.000Z</time>
      </trkpt>
      <trkpt lat="47.03118" lon="-1.83222">
        <ele>73</ele>
        <time>2021-05-01T10:45:15.000Z</time>
      </trkpt>
      <trkpt lat="47.03111" lon="-1.83203">
        <ele>73</ele>
        <time>2021-05-01T10:45:17.000Z</time>
      </trkpt>
      <trkpt lat="47.03106" lon="-1.83184">
        <ele>72</ele>
        <time>2021-05-01T10:45:19.000Z</time>
      </trkpt>
      <trkpt lat="47.031" lon="-1.83166">
        <ele>72</ele>
        <time>2021-05-01T10:45:21.000Z</time>
      </trkpt>
      <trkpt lat="47.03094" lon="-1.83148">
        <ele>72</ele>
        <time>2021-05-01T10:45:23.000Z</time>
      </trkpt>
      <trkpt lat="47.03088" lon="-1.83129">
        <ele>71</ele>
        <time>2021-05-01T10:45:25.000Z</time>
      </trkpt>
      <trkpt lat="47.03081" lon="-1.8311">
        <ele>71</ele>
        <time>2021-05-01T10:45:27.000Z</time>
      </trkpt>
      <trkpt lat="47.03074" lon="-1.83092">
        <ele>71</ele>
        <time>2021-05-01T10:45:29.000Z</time>
      </trkpt>
      <trkpt lat="47.03066" lon="-1.83074">
        <ele>70</ele>
        <time>2021-05-01T10:45:31.000Z</time>
      </trkpt>
      <trkpt lat="47.03058" lon="-1.83057">
        <ele>70</ele>
        <time>2021-05-01T10:45:33.000Z</time>
      </trkpt>
      <trkpt lat="47.0305" lon="-1.8304">
        <ele>70</ele>
        <time>2021-05-01T10:45:35.000Z</time>
      </trkpt>
      <trkpt lat="47.03041" lon="-1.83024">
        <ele>70</ele>
        <time>2021-05-01T10:45:37.000Z</time>
      </trkpt>
      <trkpt lat="47.03033" lon="-1.83008">
        <ele>69</ele>
        <time>2021-05-01T10:45:39.000Z</time>
      </trkpt>
      <trkpt lat="47.03024" lon="-1.82991">
        <ele>69</ele>
        <time>2021-05-01T10:45:41.000Z</time>
      </trkpt>
      <trkpt lat="47.03016" lon="-1.82976">
        <ele>69</ele>
        <time>2021-05-01T10:45:43.000Z</time>
      </trkpt>
      <trkpt lat="47.03007" lon="-1.8296">
        <ele>69</ele>
        <time>2021-05-01T10:45:45.000Z</time>
      </trkpt>
      <trkpt lat="47.02999" lon="-1.82944">
        <ele>69</ele>
        <time>2021-05-01T10:45:47.000Z</time>
      </trkpt>
      <trkpt lat="47.02991" lon="-1.82928">
        <ele>69</ele>
        <time>2021-05-01T10:45:49.000Z</time>
      </trkpt>
      <trkpt lat="47.02983" lon="-1.82911">
        <ele>69</ele>
        <time>2021-05-01T10:45:51.000Z</time>
      </trkpt>
      <trkpt lat="47.02976" lon="-1.82894">
        <ele>69</ele>
        <time>2021-05-01T10:45:53.000Z</time>
      </trkpt>
      <trkpt lat="47.02969" lon="-1.82877">
        <ele>69</ele>
        <time>2021-05-01T10:45:55.000Z</time>
      </trkpt>
      <trkpt lat="47.02961" lon="-1.8286">
        <ele>69</ele>
        <time>2021-05-01T10:45:57.000Z</time>
      </trkpt>
      <trkpt lat="47.02954" lon="-1.82843">
        <ele>69</ele>
        <time>2021-05-01T10:45:59.000Z</time>
      </trkpt>
      <trkpt lat="47.02948" lon="-1.82825">
        <ele>68</ele>
        <time>2021-05-01T10:46:01.000Z</time>
      </trkpt>
      <trkpt lat="47.02941" lon="-1.82808">
        <ele>68</ele>
        <time>2021-05-01T10:46:03.000Z</time>
      </trkpt>
      <trkpt lat="47.02934" lon="-1.82792">
        <ele>68</ele>
        <time>2021-05-01T10:46:05.000Z</time>
      </trkpt>
      <trkpt lat="47.02927" lon="-1.82773">
        <ele>68</ele>
        <time>2021-05-01T10:46:07.000Z</time>
      </trkpt>
      <trkpt lat="47.0292" lon="-1.82756">
        <ele>69</ele>
        <time>2021-05-01T10:46:09.000Z</time>
      </trkpt>
      <trkpt lat="47.02914" lon="-1.82739">
        <ele>69</ele>
        <time>2021-05-01T10:46:11.000Z</time>
      </trkpt>
      <trkpt lat="47.02906" lon="-1.82719">
        <ele>69</ele>
        <time>2021-05-01T10:46:13.000Z</time>
      </trkpt>
      <trkpt lat="47.02899" lon="-1.82703">
        <ele>68</ele>
        <time>2021-05-01T10:46:15.000Z</time>
      </trkpt>
      <trkpt lat="47.02892" lon="-1.82686">
        <ele>68</ele>
        <time>2021-05-01T10:46:17.000Z</time>
      </trkpt>
      <trkpt lat="47.02885" lon="-1.82669">
        <ele>68</ele>
        <time>2021-05-01T10:46:19.000Z</time>
      </trkpt>
      <trkpt lat="47.02878" lon="-1.82653">
        <ele>68</ele>
        <time>2021-05-01T10:46:21.000Z</time>
      </trkpt>
      <trkpt lat="47.02871" lon="-1.82637">
        <ele>69</ele>
        <time>2021-05-01T10:46:23.000Z</time>
      </trkpt>
      <trkpt lat="47.02864" lon="-1.82621">
        <ele>69</ele>
        <time>2021-05-01T10:46:25.000Z</time>
      </trkpt>
      <trkpt lat="47.02856" lon="-1.82604">
        <ele>69</ele>
        <time>2021-05-01T10:46:27.000Z</time>
      </trkpt>
      <trkpt lat="47.02848" lon="-1.82589">
        <ele>69</ele>
        <time>2021-05-01T10:46:29.000Z</time>
      </trkpt>
      <trkpt lat="47.0284" lon="-1.82575">
        <ele>69</ele>
        <time>2021-05-01T10:46:31.000Z</time>
      </trkpt>
      <trkpt lat="47.02832" lon="-1.8256">
        <ele>69</ele>
        <time>2021-05-01T10:46:33.000Z</time>
      </trkpt>
      <trkpt lat="47.02824" lon="-1.82545">
        <ele>69</ele>
        <time>2021-05-01T10:46:35.000Z</time>
      </trkpt>
      <trkpt lat="47.02816" lon="-1.82531">
        <ele>70</ele>
        <time>2021-05-01T10:46:37.000Z</time>
      </trkpt>
      <trkpt lat="47.02808" lon="-1.82518">
        <ele>70</ele>
        <time>2021-05-01T10:46:39.000Z</time>
      </trkpt>
      <trkpt lat="47.028" lon="-1.82505">
        <ele>70</ele>
        <time>2021-05-01T10:46:41.000Z</time>
      </trkpt>
      <trkpt lat="47.02791" lon="-1.82492">
        <ele>71</ele>
        <time>2021-05-01T10:46:43.000Z</time>
      </trkpt>
      <trkpt lat="47.02783" lon="-1.8248">
        <ele>71</ele>
        <time>2021-05-01T10:46:45.000Z</time>
      </trkpt>
      <trkpt lat="47.02775" lon="-1.82466">
        <ele>72</ele>
        <time>2021-05-01T10:46:47.000Z</time>
      </trkpt>
      <trkpt lat="47.02766" lon="-1.82453">
        <ele>72</ele>
        <time>2021-05-01T10:46:49.000Z</time>
      </trkpt>
      <trkpt lat="47.02757" lon="-1.82441">
        <ele>73</ele>
        <time>2021-05-01T10:46:51.000Z</time>
      </trkpt>
      <trkpt lat="47.02749" lon="-1.82428">
        <ele>73</ele>
        <time>2021-05-01T10:46:53.000Z</time>
      </trkpt>
      <trkpt lat="47.02741" lon="-1.82416">
        <ele>73</ele>
        <time>2021-05-01T10:46:55.000Z</time>
      </trkpt>
      <trkpt lat="47.02733" lon="-1.82403">
        <ele>74</ele>
        <time>2021-05-01T10:46:57.000Z</time>
      </trkpt>
      <trkpt lat="47.02724" lon="-1.8239">
        <ele>74</ele>
        <time>2021-05-01T10:46:59.000Z</time>
      </trkpt>
      <trkpt lat="47.02716" lon="-1.82378">
        <ele>74</ele>
        <time>2021-05-01T10:47:01.000Z</time>
      </trkpt>
      <trkpt lat="47.02708" lon="-1.82365">
        <ele>74</ele>
        <time>2021-05-01T10:47:03.000Z</time>
      </trkpt>
      <trkpt lat="47.027" lon="-1.82353">
        <ele>75</ele>
        <time>2021-05-01T10:47:05.000Z</time>
      </trkpt>
      <trkpt lat="47.02691" lon="-1.8234">
        <ele>75</ele>
        <time>2021-05-01T10:47:07.000Z</time>
      </trkpt>
      <trkpt lat="47.02683" lon="-1.82328">
        <ele>75</ele>
        <time>2021-05-01T10:47:09.000Z</time>
      </trkpt>
      <trkpt lat="47.02675" lon="-1.82315">
        <ele>75</ele>
        <time>2021-05-01T10:47:11.000Z</time>
      </trkpt>
      <trkpt lat="47.02666" lon="-1.82302">
        <ele>76</ele>
        <time>2021-05-01T10:47:13.000Z</time>
      </trkpt>
      <trkpt lat="47.02658" lon="-1.82289">
        <ele>76</ele>
        <time>2021-05-01T10:47:15.000Z</time>
      </trkpt>
      <trkpt lat="47.0265" lon="-1.82276">
        <ele>76</ele>
        <time>2021-05-01T10:47:17.000Z</time>
      </trkpt>
      <trkpt lat="47.02643" lon="-1.82262">
        <ele>76</ele>
        <time>2021-05-01T10:47:19.000Z</time>
      </trkpt>
      <trkpt lat="47.02637" lon="-1.82247">
        <ele>76</ele>
        <time>2021-05-01T10:47:21.000Z</time>
      </trkpt>
      <trkpt lat="47.02631" lon="-1.82232">
        <ele>76</ele>
        <time>2021-05-01T10:47:23.000Z</time>
      </trkpt>
      <trkpt lat="47.02626" lon="-1.82217">
        <ele>76</ele>
        <time>2021-05-01T10:47:25.000Z</time>
      </trkpt>
      <trkpt lat="47.02621" lon="-1.82201">
        <ele>76</ele>
        <time>2021-05-01T10:47:27.000Z</time>
      </trkpt>
      <trkpt lat="47.02616" lon="-1.82186">
        <ele>76</ele>
        <time>2021-05-01T10:47:29.000Z</time>
      </trkpt>
      <trkpt lat="47.02611" lon="-1.8217">
        <ele>77</ele>
        <time>2021-05-01T10:47:31.000Z</time>
      </trkpt>
      <trkpt lat="47.02606" lon="-1.82155">
        <ele>77</ele>
        <time>2021-05-01T10:47:33.000Z</time>
      </trkpt>
      <trkpt lat="47.02601" lon="-1.8214">
        <ele>77</ele>
        <time>2021-05-01T10:47:35.000Z</time>
      </trkpt>
      <trkpt lat="47.02596" lon="-1.82126">
        <ele>77</ele>
        <time>2021-05-01T10:47:37.000Z</time>
      </trkpt>
      <trkpt lat="47.02591" lon="-1.82112">
        <ele>76</ele>
        <time>2021-05-01T10:47:39.000Z</time>
      </trkpt>
      <trkpt lat="47.02586" lon="-1.82098">
        <ele>76</ele>
        <time>2021-05-01T10:47:41.000Z</time>
      </trkpt>
      <trkpt lat="47.02581" lon="-1.82085">
        <ele>75</ele>
        <time>2021-05-01T10:47:43.000Z</time>
      </trkpt>
      <trkpt lat="47.02575" lon="-1.82067">
        <ele>76</ele>
        <time>2021-05-01T10:47:46.000Z</time>
      </trkpt>
      <trkpt lat="47.0257" lon="-1.82051">
        <ele>75</ele>
        <time>2021-05-01T10:47:48.000Z</time>
      </trkpt>
      <trkpt lat="47.02564" lon="-1.82034">
        <ele>74</ele>
        <time>2021-05-01T10:47:50.000Z</time>
      </trkpt>
      <trkpt lat="47.02558" lon="-1.82016">
        <ele>74</ele>
        <time>2021-05-01T10:47:52.000Z</time>
      </trkpt>
      <trkpt lat="47.02552" lon="-1.81998">
        <ele>74</ele>
        <time>2021-05-01T10:47:54.000Z</time>
      </trkpt>
      <trkpt lat="47.02546" lon="-1.8198">
        <ele>73</ele>
        <time>2021-05-01T10:47:56.000Z</time>
      </trkpt>
      <trkpt lat="47.0254" lon="-1.81962">
        <ele>73</ele>
        <time>2021-05-01T10:47:58.000Z</time>
      </trkpt>
      <trkpt lat="47.02534" lon="-1.81945">
        <ele>73</ele>
        <time>2021-05-01T10:48:00.000Z</time>
      </trkpt>
      <trkpt lat="47.02528" lon="-1.81926">
        <ele>73</ele>
        <time>2021-05-01T10:48:02.000Z</time>
      </trkpt>
      <trkpt lat="47.02522" lon="-1.81908">
        <ele>72</ele>
        <time>2021-05-01T10:48:04.000Z</time>
      </trkpt>
      <trkpt lat="47.02516" lon="-1.8189">
        <ele>72</ele>
        <time>2021-05-01T10:48:06.000Z</time>
      </trkpt>
      <trkpt lat="47.0251" lon="-1.81871">
        <ele>72</ele>
        <time>2021-05-01T10:48:08.000Z</time>
      </trkpt>
      <trkpt lat="47.02503" lon="-1.81853">
        <ele>71</ele>
        <time>2021-05-01T10:48:10.000Z</time>
      </trkpt>
      <trkpt lat="47.02496" lon="-1.81834">
        <ele>71</ele>
        <time>2021-05-01T10:48:12.000Z</time>
      </trkpt>
      <trkpt lat="47.0249" lon="-1.81815">
        <ele>71</ele>
        <time>2021-05-01T10:48:14.000Z</time>
      </trkpt>
      <trkpt lat="47.02484" lon="-1.81796">
        <ele>71</ele>
        <time>2021-05-01T10:48:16.000Z</time>
      </trkpt>
      <trkpt lat="47.02477" lon="-1.81778">
        <ele>70</ele>
        <time>2021-05-01T10:48:18.000Z</time>
      </trkpt>
      <trkpt lat="47.02471" lon="-1.81759">
        <ele>70</ele>
        <time>2021-05-01T10:48:20.000Z</time>
      </trkpt>
      <trkpt lat="47.02465" lon="-1.81741">
        <ele>70</ele>
        <time>2021-05-01T10:48:22.000Z</time>
      </trkpt>
      <trkpt lat="47.02459" lon="-1.81723">
        <ele>70</ele>
        <time>2021-05-01T10:48:24.000Z</time>
      </trkpt>
      <trkpt lat="47.02453" lon="-1.81706">
        <ele>70</ele>
        <time>2021-05-01T10:48:26.000Z</time>
      </trkpt>
      <trkpt lat="47.02446" lon="-1.81688">
        <ele>70</ele>
        <time>2021-05-01T10:48:28.000Z</time>
      </trkpt>
      <trkpt lat="47.02441" lon="-1.81671">
        <ele>70</ele>
        <time>2021-05-01T10:48:30.000Z</time>
      </trkpt>
      <trkpt lat="47.02433" lon="-1.81646">
        <ele>70</ele>
        <time>2021-05-01T10:48:33.000Z</time>
      </trkpt>
      <trkpt lat="47.02427" lon="-1.81629">
        <ele>70</ele>
        <time>2021-05-01T10:48:35.000Z</time>
      </trkpt>
      <trkpt lat="47.02422" lon="-1.81612">
        <ele>71</ele>
        <time>2021-05-01T10:48:37.000Z</time>
      </trkpt>
      <trkpt lat="47.02416" lon="-1.81594">
        <ele>70</ele>
        <time>2021-05-01T10:48:39.000Z</time>
      </trkpt>
      <trkpt lat="47.0241" lon="-1.81578">
        <ele>70</ele>
        <time>2021-05-01T10:48:41.000Z</time>
      </trkpt>
      <trkpt lat="47.02405" lon="-1.81561">
        <ele>70</ele>
        <time>2021-05-01T10:48:43.000Z</time>
      </trkpt>
      <trkpt lat="47.02399" lon="-1.81545">
        <ele>70</ele>
        <time>2021-05-01T10:48:45.000Z</time>
      </trkpt>
      <trkpt lat="47.02393" lon="-1.81529">
        <ele>69</ele>
        <time>2021-05-01T10:48:47.000Z</time>
      </trkpt>
      <trkpt lat="47.02387" lon="-1.81511">
        <ele>69</ele>
        <time>2021-05-01T10:48:49.000Z</time>
      </trkpt>
      <trkpt lat="47.02377" lon="-1.81484">
        <ele>69</ele>
        <time>2021-05-01T10:48:52.000Z</time>
      </trkpt>
      <trkpt lat="47.02371" lon="-1.81465">
        <ele>68</ele>
        <time>2021-05-01T10:48:54.000Z</time>
      </trkpt>
      <trkpt lat="47.02364" lon="-1.81445">
        <ele>68</ele>
        <time>2021-05-01T10:48:56.000Z</time>
      </trkpt>
      <trkpt lat="47.02354" lon="-1.81414">
        <ele>67</ele>
        <time>2021-05-01T10:48:59.000Z</time>
      </trkpt>
      <trkpt lat="47.02347" lon="-1.81394">
        <ele>66</ele>
        <time>2021-05-01T10:49:01.000Z</time>
      </trkpt>
      <trkpt lat="47.02337" lon="-1.81364">
        <ele>66</ele>
        <time>2021-05-01T10:49:04.000Z</time>
      </trkpt>
      <trkpt lat="47.02329" lon="-1.81344">
        <ele>65</ele>
        <time>2021-05-01T10:49:06.000Z</time>
      </trkpt>
      <trkpt lat="47.02322" lon="-1.81323">
        <ele>65</ele>
        <time>2021-05-01T10:49:08.000Z</time>
      </trkpt>
      <trkpt lat="47.02315" lon="-1.81301">
        <ele>64</ele>
        <time>2021-05-01T10:49:10.000Z</time>
      </trkpt>
      <trkpt lat="47.02308" lon="-1.81281">
        <ele>64</ele>
        <time>2021-05-01T10:49:12.000Z</time>
      </trkpt>
      <trkpt lat="47.02298" lon="-1.81251">
        <ele>63</ele>
        <time>2021-05-01T10:49:15.000Z</time>
      </trkpt>
      <trkpt lat="47.02291" lon="-1.81231">
        <ele>63</ele>
        <time>2021-05-01T10:49:17.000Z</time>
      </trkpt>
      <trkpt lat="47.02285" lon="-1.81211">
        <ele>63</ele>
        <time>2021-05-01T10:49:19.000Z</time>
      </trkpt>
      <trkpt lat="47.02275" lon="-1.81183">
        <ele>63</ele>
        <time>2021-05-01T10:49:22.000Z</time>
      </trkpt>
      <trkpt lat="47.02269" lon="-1.81164">
        <ele>63</ele>
        <time>2021-05-01T10:49:24.000Z</time>
      </trkpt>
      <trkpt lat="47.02263" lon="-1.81146">
        <ele>62</ele>
        <time>2021-05-01T10:49:26.000Z</time>
      </trkpt>
      <trkpt lat="47.02256" lon="-1.81129">
        <ele>62</ele>
        <time>2021-05-01T10:49:28.000Z</time>
      </trkpt>
      <trkpt lat="47.02247" lon="-1.81103">
        <ele>62</ele>
        <time>2021-05-01T10:49:31.000Z</time>
      </trkpt>
      <trkpt lat="47.02241" lon="-1.81086">
        <ele>63</ele>
        <time>2021-05-01T10:49:33.000Z</time>
      </trkpt>
      <trkpt lat="47.02231" lon="-1.81064">
        <ele>64</ele>
        <time>2021-05-01T10:49:36.000Z</time>
      </trkpt>
      <trkpt lat="47.02225" lon="-1.81049">
        <ele>64</ele>
        <time>2021-05-01T10:49:38.000Z</time>
      </trkpt>
      <trkpt lat="47.02217" lon="-1.81036">
        <ele>64</ele>
        <time>2021-05-01T10:49:40.000Z</time>
      </trkpt>
      <trkpt lat="47.02209" lon="-1.81023">
        <ele>65</ele>
        <time>2021-05-01T10:49:42.000Z</time>
      </trkpt>
      <trkpt lat="47.02201" lon="-1.8101">
        <ele>65</ele>
        <time>2021-05-01T10:49:44.000Z</time>
      </trkpt>
      <trkpt lat="47.02194" lon="-1.80996">
        <ele>65</ele>
        <time>2021-05-01T10:49:46.000Z</time>
      </trkpt>
      <trkpt lat="47.02187" lon="-1.80982">
        <ele>66</ele>
        <time>2021-05-01T10:49:48.000Z</time>
      </trkpt>
      <trkpt lat="47.0218" lon="-1.80968">
        <ele>66</ele>
        <time>2021-05-01T10:49:50.000Z</time>
      </trkpt>
      <trkpt lat="47.02168" lon="-1.80948">
        <ele>67</ele>
        <time>2021-05-01T10:49:53.000Z</time>
      </trkpt>
      <trkpt lat="47.02161" lon="-1.80934">
        <ele>67</ele>
        <time>2021-05-01T10:49:55.000Z</time>
      </trkpt>
      <trkpt lat="47.02154" lon="-1.8092">
        <ele>68</ele>
        <time>2021-05-01T10:49:57.000Z</time>
      </trkpt>
      <trkpt lat="47.02146" lon="-1.80906">
        <ele>68</ele>
        <time>2021-05-01T10:49:59.000Z</time>
      </trkpt>
      <trkpt lat="47.0214" lon="-1.80892">
        <ele>69</ele>
        <time>2021-05-01T10:50:01.000Z</time>
      </trkpt>
      <trkpt lat="47.02132" lon="-1.80877">
        <ele>69</ele>
        <time>2021-05-01T10:50:03.000Z</time>
      </trkpt>
      <trkpt lat="47.02126" lon="-1.80861">
        <ele>70</ele>
        <time>2021-05-01T10:50:05.000Z</time>
      </trkpt>
      <trkpt lat="47.02121" lon="-1.80844">
        <ele>70</ele>
        <time>2021-05-01T10:50:07.000Z</time>
      </trkpt>
      <trkpt lat="47.02118" lon="-1.80826">
        <ele>70</ele>
        <time>2021-05-01T10:50:09.000Z</time>
      </trkpt>
      <trkpt lat="47.02116" lon="-1.80808">
        <ele>70</ele>
        <time>2021-05-01T10:50:11.000Z</time>
      </trkpt>
      <trkpt lat="47.02116" lon="-1.80791">
        <ele>70</ele>
        <time>2021-05-01T10:50:13.000Z</time>
      </trkpt>
      <trkpt lat="47.02115" lon="-1.80773">
        <ele>70</ele>
        <time>2021-05-01T10:50:15.000Z</time>
      </trkpt>
      <trkpt lat="47.02114" lon="-1.80756">
        <ele>70</ele>
        <time>2021-05-01T10:50:17.000Z</time>
      </trkpt>
      <trkpt lat="47.02114" lon="-1.80739">
        <ele>70</ele>
        <time>2021-05-01T10:50:19.000Z</time>
      </trkpt>
      <trkpt lat="47.02114" lon="-1.80721">
        <ele>71</ele>
        <time>2021-05-01T10:50:21.000Z</time>
      </trkpt>
      <trkpt lat="47.02114" lon="-1.80704">
        <ele>71</ele>
        <time>2021-05-01T10:50:23.000Z</time>
      </trkpt>
      <trkpt lat="47.02114" lon="-1.80686">
        <ele>70</ele>
        <time>2021-05-01T10:50:25.000Z</time>
      </trkpt>
      <trkpt lat="47.02115" lon="-1.80668">
        <ele>70</ele>
        <time>2021-05-01T10:50:27.000Z</time>
      </trkpt>
      <trkpt lat="47.02114" lon="-1.80639">
        <ele>70</ele>
        <time>2021-05-01T10:50:30.000Z</time>
      </trkpt>
      <trkpt lat="47.02113" lon="-1.80619">
        <ele>69</ele>
        <time>2021-05-01T10:50:32.000Z</time>
      </trkpt>
      <trkpt lat="47.02113" lon="-1.80598">
        <ele>69</ele>
        <time>2021-05-01T10:50:34.000Z</time>
      </trkpt>
      <trkpt lat="47.02113" lon="-1.80578">
        <ele>68</ele>
        <time>2021-05-01T10:50:36.000Z</time>
      </trkpt>
      <trkpt lat="47.02112" lon="-1.80556">
        <ele>67</ele>
        <time>2021-05-01T10:50:38.000Z</time>
      </trkpt>
      <trkpt lat="47.02112" lon="-1.80533">
        <ele>67</ele>
        <time>2021-05-01T10:50:40.000Z</time>
      </trkpt>
      <trkpt lat="47.02111" lon="-1.80509">
        <ele>66</ele>
        <time>2021-05-01T10:50:42.000Z</time>
      </trkpt>
      <trkpt lat="47.02111" lon="-1.80486">
        <ele>66</ele>
        <time>2021-05-01T10:50:44.000Z</time>
      </trkpt>
      <trkpt lat="47.02111" lon="-1.80463">
        <ele>65</ele>
        <time>2021-05-01T10:50:46.000Z</time>
      </trkpt>
      <trkpt lat="47.0211" lon="-1.80439">
        <ele>64</ele>
        <time>2021-05-01T10:50:48.000Z</time>
      </trkpt>
      <trkpt lat="47.0211" lon="-1.80415">
        <ele>63</ele>
        <time>2021-05-01T10:50:50.000Z</time>
      </trkpt>
      <trkpt lat="47.02109" lon="-1.80389">
        <ele>62</ele>
        <time>2021-05-01T10:50:52.000Z</time>
      </trkpt>
      <trkpt lat="47.02109" lon="-1.80364">
        <ele>62</ele>
        <time>2021-05-01T10:50:54.000Z</time>
      </trkpt>
      <trkpt lat="47.02108" lon="-1.80338">
        <ele>60</ele>
        <time>2021-05-01T10:50:56.000Z</time>
      </trkpt>
      <trkpt lat="47.02108" lon="-1.80313">
        <ele>60</ele>
        <time>2021-05-01T10:50:58.000Z</time>
      </trkpt>
      <trkpt lat="47.02107" lon="-1.80287">
        <ele>59</ele>
        <time>2021-05-01T10:51:00.000Z</time>
      </trkpt>
      <trkpt lat="47.02107" lon="-1.80261">
        <ele>59</ele>
        <time>2021-05-01T10:51:02.000Z</time>
      </trkpt>
      <trkpt lat="47.02106" lon="-1.80223">
        <ele>58</ele>
        <time>2021-05-01T10:51:05.000Z</time>
      </trkpt>
      <trkpt lat="47.02106" lon="-1.80198">
        <ele>58</ele>
        <time>2021-05-01T10:51:07.000Z</time>
      </trkpt>
      <trkpt lat="47.02106" lon="-1.80174">
        <ele>58</ele>
        <time>2021-05-01T10:51:09.000Z</time>
      </trkpt>
      <trkpt lat="47.02106" lon="-1.80149">
        <ele>57</ele>
        <time>2021-05-01T10:51:11.000Z</time>
      </trkpt>
      <trkpt lat="47.02105" lon="-1.80125">
        <ele>57</ele>
        <time>2021-05-01T10:51:13.000Z</time>
      </trkpt>
      <trkpt lat="47.02105" lon="-1.80101">
        <ele>56</ele>
        <time>2021-05-01T10:51:15.000Z</time>
      </trkpt>
      <trkpt lat="47.02104" lon="-1.80076">
        <ele>56</ele>
        <time>2021-05-01T10:51:17.000Z</time>
      </trkpt>
      <trkpt lat="47.02104" lon="-1.80052">
        <ele>56</ele>
        <time>2021-05-01T10:51:19.000Z</time>
      </trkpt>
      <trkpt lat="47.02104" lon="-1.80028">
        <ele>56</ele>
        <time>2021-05-01T10:51:21.000Z</time>
      </trkpt>
      <trkpt lat="47.02103" lon="-1.80004">
        <ele>56</ele>
        <time>2021-05-01T10:51:23.000Z</time>
      </trkpt>
      <trkpt lat="47.02102" lon="-1.79979">
        <ele>56</ele>
        <time>2021-05-01T10:51:25.000Z</time>
      </trkpt>
      <trkpt lat="47.021" lon="-1.79956">
        <ele>56</ele>
        <time>2021-05-01T10:51:27.000Z</time>
      </trkpt>
      <trkpt lat="47.02098" lon="-1.79932">
        <ele>55</ele>
        <time>2021-05-01T10:51:29.000Z</time>
      </trkpt>
      <trkpt lat="47.02096" lon="-1.79909">
        <ele>54</ele>
        <time>2021-05-01T10:51:31.000Z</time>
      </trkpt>
      <trkpt lat="47.02094" lon="-1.79875">
        <ele>54</ele>
        <time>2021-05-01T10:51:34.000Z</time>
      </trkpt>
      <trkpt lat="47.02093" lon="-1.79853">
        <ele>54</ele>
        <time>2021-05-01T10:51:36.000Z</time>
      </trkpt>
      <trkpt lat="47.02092" lon="-1.79831">
        <ele>55</ele>
        <time>2021-05-01T10:51:38.000Z</time>
      </trkpt>
      <trkpt lat="47.0209" lon="-1.79809">
        <ele>55</ele>
        <time>2021-05-01T10:51:40.000Z</time>
      </trkpt>
      <trkpt lat="47.02088" lon="-1.79789">
        <ele>55</ele>
        <time>2021-05-01T10:51:42.000Z</time>
      </trkpt>
      <trkpt lat="47.02088" lon="-1.79769">
        <ele>55</ele>
        <time>2021-05-01T10:51:44.000Z</time>
      </trkpt>
      <trkpt lat="47.02087" lon="-1.7975">
        <ele>56</ele>
        <time>2021-05-01T10:51:46.000Z</time>
      </trkpt>
      <trkpt lat="47.02087" lon="-1.79731">
        <ele>56</ele>
        <time>2021-05-01T10:51:48.000Z</time>
      </trkpt>
      <trkpt lat="47.02088" lon="-1.79713">
        <ele>56</ele>
        <time>2021-05-01T10:51:50.000Z</time>
      </trkpt>
      <trkpt lat="47.02088" lon="-1.79693">
        <ele>56</ele>
        <time>2021-05-01T10:51:52.000Z</time>
      </trkpt>
      <trkpt lat="47.02087" lon="-1.79674">
        <ele>56</ele>
        <time>2021-05-01T10:51:54.000Z</time>
      </trkpt>
      <trkpt lat="47.02087" lon="-1.79655">
        <ele>55</ele>
        <time>2021-05-01T10:51:56.000Z</time>
      </trkpt>
      <trkpt lat="47.02087" lon="-1.79635">
        <ele>55</ele>
        <time>2021-05-01T10:51:58.000Z</time>
      </trkpt>
      <trkpt lat="47.02086" lon="-1.79616">
        <ele>55</ele>
        <time>2021-05-01T10:52:00.000Z</time>
      </trkpt>
      <trkpt lat="47.02086" lon="-1.79597">
        <ele>55</ele>
        <time>2021-05-01T10:52:02.000Z</time>
      </trkpt>
      <trkpt lat="47.02086" lon="-1.79578">
        <ele>55</ele>
        <time>2021-05-01T10:52:04.000Z</time>
      </trkpt>
      <trkpt lat="47.02086" lon="-1.79558">
        <ele>55</ele>
        <time>2021-05-01T10:52:06.000Z</time>
      </trkpt>
      <trkpt lat="47.02088" lon="-1.79537">
        <ele>54</ele>
        <time>2021-05-01T10:52:08.000Z</time>
      </trkpt>
      <trkpt lat="47.02089" lon="-1.79516">
        <ele>54</ele>
        <time>2021-05-01T10:52:10.000Z</time>
      </trkpt>
      <trkpt lat="47.02089" lon="-1.79495">
        <ele>54</ele>
        <time>2021-05-01T10:52:12.000Z</time>
      </trkpt>
      <trkpt lat="47.0209" lon="-1.79473">
        <ele>54</ele>
        <time>2021-05-01T10:52:14.000Z</time>
      </trkpt>
      <trkpt lat="47.02091" lon="-1.79453">
        <ele>54</ele>
        <time>2021-05-01T10:52:16.000Z</time>
      </trkpt>
      <trkpt lat="47.02092" lon="-1.79433">
        <ele>53</ele>
        <time>2021-05-01T10:52:18.000Z</time>
      </trkpt>
      <trkpt lat="47.02092" lon="-1.79415">
        <ele>52</ele>
        <time>2021-05-01T10:52:20.000Z</time>
      </trkpt>
      <trkpt lat="47.02095" lon="-1.79398">
        <ele>52</ele>
        <time>2021-05-01T10:52:22.000Z</time>
      </trkpt>
      <trkpt lat="47.02101" lon="-1.7938">
        <ele>52</ele>
        <time>2021-05-01T10:52:24.000Z</time>
      </trkpt>
      <trkpt lat="47.02106" lon="-1.7936">
        <ele>52</ele>
        <time>2021-05-01T10:52:26.000Z</time>
      </trkpt>
      <trkpt lat="47.02111" lon="-1.7934">
        <ele>52</ele>
        <time>2021-05-01T10:52:28.000Z</time>
      </trkpt>
      <trkpt lat="47.02116" lon="-1.79321">
        <ele>53</ele>
        <time>2021-05-01T10:52:30.000Z</time>
      </trkpt>
      <trkpt lat="47.0212" lon="-1.79302">
        <ele>53</ele>
        <time>2021-05-01T10:52:32.000Z</time>
      </trkpt>
      <trkpt lat="47.02125" lon="-1.79284">
        <ele>53</ele>
        <time>2021-05-01T10:52:34.000Z</time>
      </trkpt>
      <trkpt lat="47.02129" lon="-1.79266">
        <ele>53</ele>
        <time>2021-05-01T10:52:36.000Z</time>
      </trkpt>
      <trkpt lat="47.02133" lon="-1.79248">
        <ele>53</ele>
        <time>2021-05-01T10:52:38.000Z</time>
      </trkpt>
      <trkpt lat="47.02137" lon="-1.7923">
        <ele>53</ele>
        <time>2021-05-01T10:52:40.000Z</time>
      </trkpt>
      <trkpt lat="47.02142" lon="-1.79213">
        <ele>54</ele>
        <time>2021-05-01T10:52:42.000Z</time>
      </trkpt>
      <trkpt lat="47.02147" lon="-1.79195">
        <ele>54</ele>
        <time>2021-05-01T10:52:44.000Z</time>
      </trkpt>
      <trkpt lat="47.02152" lon="-1.79175">
        <ele>54</ele>
        <time>2021-05-01T10:52:46.000Z</time>
      </trkpt>
      <trkpt lat="47.02156" lon="-1.79156">
        <ele>53</ele>
        <time>2021-05-01T10:52:48.000Z</time>
      </trkpt>
      <trkpt lat="47.02162" lon="-1.79137">
        <ele>52</ele>
        <time>2021-05-01T10:52:50.000Z</time>
      </trkpt>
      <trkpt lat="47.02167" lon="-1.79118">
        <ele>52</ele>
        <time>2021-05-01T10:52:52.000Z</time>
      </trkpt>
      <trkpt lat="47.02172" lon="-1.791">
        <ele>52</ele>
        <time>2021-05-01T10:52:54.000Z</time>
      </trkpt>
      <trkpt lat="47.02178" lon="-1.79081">
        <ele>51</ele>
        <time>2021-05-01T10:52:56.000Z</time>
      </trkpt>
      <trkpt lat="47.02183" lon="-1.79063">
        <ele>51</ele>
        <time>2021-05-01T10:52:58.000Z</time>
      </trkpt>
      <trkpt lat="47.02189" lon="-1.79047">
        <ele>51</ele>
        <time>2021-05-01T10:53:00.000Z</time>
      </trkpt>
      <trkpt lat="47.02191" lon="-1.7903">
        <ele>51</ele>
        <time>2021-05-01T10:53:02.000Z</time>
      </trkpt>
      <trkpt lat="47.02186" lon="-1.79013">
        <ele>52</ele>
        <time>2021-05-01T10:53:04.000Z</time>
      </trkpt>
      <trkpt lat="47.0218" lon="-1.78997">
        <ele>53</ele>
        <time>2021-05-01T10:53:06.000Z</time>
      </trkpt>
      <trkpt lat="47.02175" lon="-1.7898">
        <ele>52</ele>
        <time>2021-05-01T10:53:08.000Z</time>
      </trkpt>
      <trkpt lat="47.0217" lon="-1.78964">
        <ele>52</ele>
        <time>2021-05-01T10:53:10.000Z</time>
      </trkpt>
      <trkpt lat="47.02165" lon="-1.78948">
        <ele>53</ele>
        <time>2021-05-01T10:53:12.000Z</time>
      </trkpt>
      <trkpt lat="47.02161" lon="-1.78931">
        <ele>53</ele>
        <time>2021-05-01T10:53:14.000Z</time>
      </trkpt>
      <trkpt lat="47.02156" lon="-1.78915">
        <ele>54</ele>
        <time>2021-05-01T10:53:16.000Z</time>
      </trkpt>
      <trkpt lat="47.02151" lon="-1.78899">
        <ele>54</ele>
        <time>2021-05-01T10:53:18.000Z</time>
      </trkpt>
      <trkpt lat="47.02147" lon="-1.78882">
        <ele>54</ele>
        <time>2021-05-01T10:53:20.000Z</time>
      </trkpt>
      <trkpt lat="47.02142" lon="-1.78867">
        <ele>55</ele>
        <time>2021-05-01T10:53:22.000Z</time>
      </trkpt>
      <trkpt lat="47.02138" lon="-1.78852">
        <ele>56</ele>
        <time>2021-05-01T10:53:24.000Z</time>
      </trkpt>
      <trkpt lat="47.02132" lon="-1.78836">
        <ele>55</ele>
        <time>2021-05-01T10:53:26.000Z</time>
      </trkpt>
      <trkpt lat="47.02127" lon="-1.7882">
        <ele>55</ele>
        <time>2021-05-01T10:53:28.000Z</time>
      </trkpt>
      <trkpt lat="47.02123" lon="-1.78804">
        <ele>56</ele>
        <time>2021-05-01T10:53:30.000Z</time>
      </trkpt>
      <trkpt lat="47.02118" lon="-1.78789">
        <ele>56</ele>
        <time>2021-05-01T10:53:32.000Z</time>
      </trkpt>
      <trkpt lat="47.02113" lon="-1.78774">
        <ele>56</ele>
        <time>2021-05-01T10:53:34.000Z</time>
      </trkpt>
      <trkpt lat="47.02108" lon="-1.78758">
        <ele>56</ele>
        <time>2021-05-01T10:53:36.000Z</time>
      </trkpt>
      <trkpt lat="47.02104" lon="-1.78743">
        <ele>55</ele>
        <time>2021-05-01T10:53:38.000Z</time>
      </trkpt>
      <trkpt lat="47.02098" lon="-1.78728">
        <ele>55</ele>
        <time>2021-05-01T10:53:40.000Z</time>
      </trkpt>
      <trkpt lat="47.02093" lon="-1.78713">
        <ele>55</ele>
        <time>2021-05-01T10:53:42.000Z</time>
      </trkpt>
      <trkpt lat="47.02086" lon="-1.78698">
        <ele>54</ele>
        <time>2021-05-01T10:53:44.000Z</time>
      </trkpt>
      <trkpt lat="47.02079" lon="-1.78683">
        <ele>54</ele>
        <time>2021-05-01T10:53:46.000Z</time>
      </trkpt>
      <trkpt lat="47.0207" lon="-1.78668">
        <ele>53</ele>
        <time>2021-05-01T10:53:48.000Z</time>
      </trkpt>
      <trkpt lat="47.02061" lon="-1.78655">
        <ele>53</ele>
        <time>2021-05-01T10:53:50.000Z</time>
      </trkpt>
      <trkpt lat="47.02051" lon="-1.78641">
        <ele>53</ele>
        <time>2021-05-01T10:53:52.000Z</time>
      </trkpt>
      <trkpt lat="47.0204" lon="-1.78628">
        <ele>52</ele>
        <time>2021-05-01T10:53:54.000Z</time>
      </trkpt>
      <trkpt lat="47.02029" lon="-1.78614">
        <ele>52</ele>
        <time>2021-05-01T10:53:56.000Z</time>
      </trkpt>
      <trkpt lat="47.02017" lon="-1.786">
        <ele>52</ele>
        <time>2021-05-01T10:53:58.000Z</time>
      </trkpt>
      <trkpt lat="47.02005" lon="-1.78585">
        <ele>51</ele>
        <time>2021-05-01T10:54:00.000Z</time>
      </trkpt>
      <trkpt lat="47.01994" lon="-1.78571">
        <ele>51</ele>
        <time>2021-05-01T10:54:02.000Z</time>
      </trkpt>
      <trkpt lat="47.01982" lon="-1.78558">
        <ele>51</ele>
        <time>2021-05-01T10:54:04.000Z</time>
      </trkpt>
      <trkpt lat="47.01971" lon="-1.78544">
        <ele>51</ele>
        <time>2021-05-01T10:54:06.000Z</time>
      </trkpt>
      <trkpt lat="47.0196" lon="-1.78531">
        <ele>51</ele>
        <time>2021-05-01T10:54:08.000Z</time>
      </trkpt>
      <trkpt lat="47.0195" lon="-1.78519">
        <ele>52</ele>
        <time>2021-05-01T10:54:10.000Z</time>
      </trkpt>
      <trkpt lat="47.0194" lon="-1.78506">
        <ele>52</ele>
        <time>2021-05-01T10:54:12.000Z</time>
      </trkpt>
      <trkpt lat="47.01931" lon="-1.78495">
        <ele>52</ele>
        <time>2021-05-01T10:54:14.000Z</time>
      </trkpt>
      <trkpt lat="47.01922" lon="-1.78484">
        <ele>53</ele>
        <time>2021-05-01T10:54:16.000Z</time>
      </trkpt>
      <trkpt lat="47.01912" lon="-1.78473">
        <ele>53</ele>
        <time>2021-05-01T10:54:18.000Z</time>
      </trkpt>
      <trkpt lat="47.01903" lon="-1.78462">
        <ele>54</ele>
        <time>2021-05-01T10:54:20.000Z</time>
      </trkpt>
      <trkpt lat="47.01894" lon="-1.78451">
        <ele>54</ele>
        <time>2021-05-01T10:54:22.000Z</time>
      </trkpt>
      <trkpt lat="47.01885" lon="-1.78439">
        <ele>55</ele>
        <time>2021-05-01T10:54:24.000Z</time>
      </trkpt>
      <trkpt lat="47.01875" lon="-1.78428">
        <ele>55</ele>
        <time>2021-05-01T10:54:26.000Z</time>
      </trkpt>
      <trkpt lat="47.01865" lon="-1.78416">
        <ele>56</ele>
        <time>2021-05-01T10:54:28.000Z</time>
      </trkpt>
      <trkpt lat="47.01856" lon="-1.78405">
        <ele>56</ele>
        <time>2021-05-01T10:54:30.000Z</time>
      </trkpt>
      <trkpt lat="47.01847" lon="-1.78393">
        <ele>57</ele>
        <time>2021-05-01T10:54:32.000Z</time>
      </trkpt>
      <trkpt lat="47.01837" lon="-1.78382">
        <ele>57</ele>
        <time>2021-05-01T10:54:34.000Z</time>
      </trkpt>
      <trkpt lat="47.01828" lon="-1.7837">
        <ele>57</ele>
        <time>2021-05-01T10:54:36.000Z</time>
      </trkpt>
      <trkpt lat="47.01818" lon="-1.78359">
        <ele>58</ele>
        <time>2021-05-01T10:54:38.000Z</time>
      </trkpt>
      <trkpt lat="47.01809" lon="-1.78348">
        <ele>58</ele>
        <time>2021-05-01T10:54:40.000Z</time>
      </trkpt>
      <trkpt lat="47.01799" lon="-1.78336">
        <ele>58</ele>
        <time>2021-05-01T10:54:42.000Z</time>
      </trkpt>
      <trkpt lat="47.0179" lon="-1.78325">
        <ele>58</ele>
        <time>2021-05-01T10:54:44.000Z</time>
      </trkpt>
      <trkpt lat="47.01781" lon="-1.78314">
        <ele>59</ele>
        <time>2021-05-01T10:54:46.000Z</time>
      </trkpt>
      <trkpt lat="47.01771" lon="-1.78302">
        <ele>59</ele>
        <time>2021-05-01T10:54:48.000Z</time>
      </trkpt>
      <trkpt lat="47.01762" lon="-1.78291">
        <ele>59</ele>
        <time>2021-05-01T10:54:50.000Z</time>
      </trkpt>
      <trkpt lat="47.01753" lon="-1.7828">
        <ele>59</ele>
        <time>2021-05-01T10:54:52.000Z</time>
      </trkpt>
      <trkpt lat="47.01743" lon="-1.78269">
        <ele>60</ele>
        <time>2021-05-01T10:54:54.000Z</time>
      </trkpt>
      <trkpt lat="47.01735" lon="-1.78257">
        <ele>60</ele>
        <time>2021-05-01T10:54:56.000Z</time>
      </trkpt>
      <trkpt lat="47.01725" lon="-1.78247">
        <ele>60</ele>
        <time>2021-05-01T10:54:58.000Z</time>
      </trkpt>
      <trkpt lat="47.01715" lon="-1.78236">
        <ele>59</ele>
        <time>2021-05-01T10:55:00.000Z</time>
      </trkpt>
      <trkpt lat="47.01706" lon="-1.78225">
        <ele>59</ele>
        <time>2021-05-01T10:55:02.000Z</time>
      </trkpt>
      <trkpt lat="47.01696" lon="-1.78213">
        <ele>60</ele>
        <time>2021-05-01T10:55:04.000Z</time>
      </trkpt>
      <trkpt lat="47.01686" lon="-1.78201">
        <ele>60</ele>
        <time>2021-05-01T10:55:06.000Z</time>
      </trkpt>
      <trkpt lat="47.01677" lon="-1.78189">
        <ele>60</ele>
        <time>2021-05-01T10:55:08.000Z</time>
      </trkpt>
      <trkpt lat="47.01667" lon="-1.78178">
        <ele>60</ele>
        <time>2021-05-01T10:55:10.000Z</time>
      </trkpt>
      <trkpt lat="47.01658" lon="-1.78166">
        <ele>60</ele>
        <time>2021-05-01T10:55:12.000Z</time>
      </trkpt>
      <trkpt lat="47.01648" lon="-1.78155">
        <ele>59</ele>
        <time>2021-05-01T10:55:14.000Z</time>
      </trkpt>
      <trkpt lat="47.01638" lon="-1.78143">
        <ele>59</ele>
        <time>2021-05-01T10:55:16.000Z</time>
      </trkpt>
      <trkpt lat="47.01628" lon="-1.7813">
        <ele>59</ele>
        <time>2021-05-01T10:55:18.000Z</time>
      </trkpt>
      <trkpt lat="47.01618" lon="-1.78119">
        <ele>59</ele>
        <time>2021-05-01T10:55:20.000Z</time>
      </trkpt>
      <trkpt lat="47.01608" lon="-1.78107">
        <ele>60</ele>
        <time>2021-05-01T10:55:22.000Z</time>
      </trkpt>
      <trkpt lat="47.01599" lon="-1.78095">
        <ele>60</ele>
        <time>2021-05-01T10:55:24.000Z</time>
      </trkpt>
      <trkpt lat="47.0159" lon="-1.78084">
        <ele>60</ele>
        <time>2021-05-01T10:55:26.000Z</time>
      </trkpt>
      <trkpt lat="47.0158" lon="-1.78073">
        <ele>60</ele>
        <time>2021-05-01T10:55:28.000Z</time>
      </trkpt>
      <trkpt lat="47.01571" lon="-1.78062">
        <ele>61</ele>
        <time>2021-05-01T10:55:30.000Z</time>
      </trkpt>
      <trkpt lat="47.01562" lon="-1.78051">
        <ele>61</ele>
        <time>2021-05-01T10:55:32.000Z</time>
      </trkpt>
      <trkpt lat="47.01553" lon="-1.7804">
        <ele>62</ele>
        <time>2021-05-01T10:55:34.000Z</time>
      </trkpt>
      <trkpt lat="47.01544" lon="-1.78028">
        <ele>62</ele>
        <time>2021-05-01T10:55:36.000Z</time>
      </trkpt>
      <trkpt lat="47.01535" lon="-1.78017">
        <ele>63</ele>
        <time>2021-05-01T10:55:38.000Z</time>
      </trkpt>
      <trkpt lat="47.01525" lon="-1.78005">
        <ele>64</ele>
        <time>2021-05-01T10:55:40.000Z</time>
      </trkpt>
      <trkpt lat="47.01516" lon="-1.77993">
        <ele>64</ele>
        <time>2021-05-01T10:55:42.000Z</time>
      </trkpt>
      <trkpt lat="47.01506" lon="-1.77981">
        <ele>65</ele>
        <time>2021-05-01T10:55:44.000Z</time>
      </trkpt>
      <trkpt lat="47.01497" lon="-1.77971">
        <ele>65</ele>
        <time>2021-05-01T10:55:46.000Z</time>
      </trkpt>
      <trkpt lat="47.01488" lon="-1.77959">
        <ele>65</ele>
        <time>2021-05-01T10:55:48.000Z</time>
      </trkpt>
      <trkpt lat="47.01479" lon="-1.77947">
        <ele>66</ele>
        <time>2021-05-01T10:55:50.000Z</time>
      </trkpt>
      <trkpt lat="47.0147" lon="-1.77936">
        <ele>66</ele>
        <time>2021-05-01T10:55:52.000Z</time>
      </trkpt>
      <trkpt lat="47.01461" lon="-1.77925">
        <ele>67</ele>
        <time>2021-05-01T10:55:54.000Z</time>
      </trkpt>
      <trkpt lat="47.01453" lon="-1.77913">
        <ele>68</ele>
        <time>2021-05-01T10:55:56.000Z</time>
      </trkpt>
      <trkpt lat="47.01449" lon="-1.77898">
        <ele>68</ele>
        <time>2021-05-01T10:55:58.000Z</time>
      </trkpt>
      <trkpt lat="47.01451" lon="-1.7788">
        <ele>67</ele>
        <time>2021-05-01T10:56:00.000Z</time>
      </trkpt>
      <trkpt lat="47.01454" lon="-1.77861">
        <ele>66</ele>
        <time>2021-05-01T10:56:02.000Z</time>
      </trkpt>
      <trkpt lat="47.01455" lon="-1.77842">
        <ele>66</ele>
        <time>2021-05-01T10:56:04.000Z</time>
      </trkpt>
      <trkpt lat="47.01456" lon="-1.77824">
        <ele>66</ele>
        <time>2021-05-01T10:56:06.000Z</time>
      </trkpt>
      <trkpt lat="47.01455" lon="-1.77805">
        <ele>66</ele>
        <time>2021-05-01T10:56:08.000Z</time>
      </trkpt>
      <trkpt lat="47.01454" lon="-1.77786">
        <ele>65</ele>
        <time>2021-05-01T10:56:10.000Z</time>
      </trkpt>
      <trkpt lat="47.01454" lon="-1.77768">
        <ele>65</ele>
        <time>2021-05-01T10:56:12.000Z</time>
      </trkpt>
      <trkpt lat="47.01453" lon="-1.77749">
        <ele>65</ele>
        <time>2021-05-01T10:56:14.000Z</time>
      </trkpt>
      <trkpt lat="47.0145" lon="-1.77731">
        <ele>65</ele>
        <time>2021-05-01T10:56:16.000Z</time>
      </trkpt>
      <trkpt lat="47.01447" lon="-1.77713">
        <ele>65</ele>
        <time>2021-05-01T10:56:18.000Z</time>
      </trkpt>
      <trkpt lat="47.01445" lon="-1.77694">
        <ele>65</ele>
        <time>2021-05-01T10:56:20.000Z</time>
      </trkpt>
      <trkpt lat="47.01446" lon="-1.77675">
        <ele>65</ele>
        <time>2021-05-01T10:56:22.000Z</time>
      </trkpt>
      <trkpt lat="47.01448" lon="-1.77657">
        <ele>65</ele>
        <time>2021-05-01T10:56:24.000Z</time>
      </trkpt>
      <trkpt lat="47.01452" lon="-1.77638">
        <ele>65</ele>
        <time>2021-05-01T10:56:26.000Z</time>
      </trkpt>
      <trkpt lat="47.01457" lon="-1.7762">
        <ele>65</ele>
        <time>2021-05-01T10:56:28.000Z</time>
      </trkpt>
      <trkpt lat="47.01461" lon="-1.77603">
        <ele>65</ele>
        <time>2021-05-01T10:56:30.000Z</time>
      </trkpt>
      <trkpt lat="47.01466" lon="-1.77586">
        <ele>65</ele>
        <time>2021-05-01T10:56:32.000Z</time>
      </trkpt>
      <trkpt lat="47.01471" lon="-1.77569">
        <ele>66</ele>
        <time>2021-05-01T10:56:34.000Z</time>
      </trkpt>
      <trkpt lat="47.01477" lon="-1.77552">
        <ele>66</ele>
        <time>2021-05-01T10:56:36.000Z</time>
      </trkpt>
      <trkpt lat="47.01484" lon="-1.77536">
        <ele>66</ele>
        <time>2021-05-01T10:56:38.000Z</time>
      </trkpt>
      <trkpt lat="47.01492" lon="-1.77522">
        <ele>66</ele>
        <time>2021-05-01T10:56:40.000Z</time>
      </trkpt>
      <trkpt lat="47.01501" lon="-1.77509">
        <ele>65</ele>
        <time>2021-05-01T10:56:42.000Z</time>
      </trkpt>
      <trkpt lat="47.01512" lon="-1.77496">
        <ele>65</ele>
        <time>2021-05-01T10:56:44.000Z</time>
      </trkpt>
      <trkpt lat="47.01521" lon="-1.77483">
        <ele>64</ele>
        <time>2021-05-01T10:56:46.000Z</time>
      </trkpt>
      <trkpt lat="47.01531" lon="-1.77471">
        <ele>64</ele>
        <time>2021-05-01T10:56:48.000Z</time>
      </trkpt>
      <trkpt lat="47.01541" lon="-1.77458">
        <ele>63</ele>
        <time>2021-05-01T10:56:50.000Z</time>
      </trkpt>
      <trkpt lat="47.01549" lon="-1.77444">
        <ele>63</ele>
        <time>2021-05-01T10:56:52.000Z</time>
      </trkpt>
      <trkpt lat="47.01556" lon="-1.77428">
        <ele>63</ele>
        <time>2021-05-01T10:56:54.000Z</time>
      </trkpt>
      <trkpt lat="47.01562" lon="-1.77411">
        <ele>63</ele>
        <time>2021-05-01T10:56:56.000Z</time>
      </trkpt>
      <trkpt lat="47.01567" lon="-1.77394">
        <ele>64</ele>
        <time>2021-05-01T10:56:58.000Z</time>
      </trkpt>
      <trkpt lat="47.01571" lon="-1.77376">
        <ele>64</ele>
        <time>2021-05-01T10:57:00.000Z</time>
      </trkpt>
      <trkpt lat="47.01573" lon="-1.77358">
        <ele>64</ele>
        <time>2021-05-01T10:57:02.000Z</time>
      </trkpt>
      <trkpt lat="47.01576" lon="-1.7734">
        <ele>64</ele>
        <time>2021-05-01T10:57:04.000Z</time>
      </trkpt>
      <trkpt lat="47.01578" lon="-1.77323">
        <ele>64</ele>
        <time>2021-05-01T10:57:06.000Z</time>
      </trkpt>
      <trkpt lat="47.01581" lon="-1.77305">
        <ele>64</ele>
        <time>2021-05-01T10:57:08.000Z</time>
      </trkpt>
      <trkpt lat="47.01584" lon="-1.77287">
        <ele>65</ele>
        <time>2021-05-01T10:57:10.000Z</time>
      </trkpt>
      <trkpt lat="47.01587" lon="-1.77269">
        <ele>65</ele>
        <time>2021-05-01T10:57:12.000Z</time>
      </trkpt>
      <trkpt lat="47.0159" lon="-1.77252">
        <ele>65</ele>
        <time>2021-05-01T10:57:14.000Z</time>
      </trkpt>
      <trkpt lat="47.01594" lon="-1.77235">
        <ele>65</ele>
        <time>2021-05-01T10:57:16.000Z</time>
      </trkpt>
      <trkpt lat="47.01598" lon="-1.77218">
        <ele>65</ele>
        <time>2021-05-01T10:57:18.000Z</time>
      </trkpt>
      <trkpt lat="47.01603" lon="-1.77201">
        <ele>65</ele>
        <time>2021-05-01T10:57:20.000Z</time>
      </trkpt>
      <trkpt lat="47.01608" lon="-1.77184">
        <ele>65</ele>
        <time>2021-05-01T10:57:22.000Z</time>
      </trkpt>
      <trkpt lat="47.01614" lon="-1.77166">
        <ele>65</ele>
        <time>2021-05-01T10:57:24.000Z</time>
      </trkpt>
      <trkpt lat="47.0162" lon="-1.77149">
        <ele>65</ele>
        <time>2021-05-01T10:57:26.000Z</time>
      </trkpt>
      <trkpt lat="47.01626" lon="-1.77131">
        <ele>64</ele>
        <time>2021-05-01T10:57:28.000Z</time>
      </trkpt>
      <trkpt lat="47.01631" lon="-1.77112">
        <ele>64</ele>
        <time>2021-05-01T10:57:30.000Z</time>
      </trkpt>
      <trkpt lat="47.01635" lon="-1.77093">
        <ele>64</ele>
        <time>2021-05-01T10:57:32.000Z</time>
      </trkpt>
      <trkpt lat="47.01638" lon="-1.77074">
        <ele>64</ele>
        <time>2021-05-01T10:57:34.000Z</time>
      </trkpt>
      <trkpt lat="47.0164" lon="-1.77056">
        <ele>63</ele>
        <time>2021-05-01T10:57:36.000Z</time>
      </trkpt>
      <trkpt lat="47.01642" lon="-1.77037">
        <ele>64</ele>
        <time>2021-05-01T10:57:38.000Z</time>
      </trkpt>
      <trkpt lat="47.01642" lon="-1.77018">
        <ele>64</ele>
        <time>2021-05-01T10:57:40.000Z</time>
      </trkpt>
      <trkpt lat="47.01642" lon="-1.76999">
        <ele>64</ele>
        <time>2021-05-01T10:57:42.000Z</time>
      </trkpt>
      <trkpt lat="47.01641" lon="-1.76979">
        <ele>65</ele>
        <time>2021-05-01T10:57:44.000Z</time>
      </trkpt>
      <trkpt lat="47.0164" lon="-1.76961">
        <ele>65</ele>
        <time>2021-05-01T10:57:46.000Z</time>
      </trkpt>
      <trkpt lat="47.01639" lon="-1.76942">
        <ele>65</ele>
        <time>2021-05-01T10:57:48.000Z</time>
      </trkpt>
      <trkpt lat="47.01637" lon="-1.76924">
        <ele>66</ele>
        <time>2021-05-01T10:57:50.000Z</time>
      </trkpt>
      <trkpt lat="47.01636" lon="-1.76905">
        <ele>66</ele>
        <time>2021-05-01T10:57:52.000Z</time>
      </trkpt>
      <trkpt lat="47.01635" lon="-1.76887">
        <ele>66</ele>
        <time>2021-05-01T10:57:54.000Z</time>
      </trkpt>
      <trkpt lat="47.01634" lon="-1.76869">
        <ele>66</ele>
        <time>2021-05-01T10:57:56.000Z</time>
      </trkpt>
      <trkpt lat="47.01633" lon="-1.76851">
        <ele>67</ele>
        <time>2021-05-01T10:57:58.000Z</time>
      </trkpt>
      <trkpt lat="47.01632" lon="-1.76832">
        <ele>67</ele>
        <time>2021-05-01T10:58:00.000Z</time>
      </trkpt>
      <trkpt lat="47.01631" lon="-1.76814">
        <ele>67</ele>
        <time>2021-05-01T10:58:02.000Z</time>
      </trkpt>
      <trkpt lat="47.0163" lon="-1.76796">
        <ele>67</ele>
        <time>2021-05-01T10:58:04.000Z</time>
      </trkpt>
      <trkpt lat="47.01629" lon="-1.76778">
        <ele>67</ele>
        <time>2021-05-01T10:58:06.000Z</time>
      </trkpt>
      <trkpt lat="47.01628" lon="-1.7676">
        <ele>68</ele>
        <time>2021-05-01T10:58:08.000Z</time>
      </trkpt>
      <trkpt lat="47.01626" lon="-1.76741">
        <ele>69</ele>
        <time>2021-05-01T10:58:10.000Z</time>
      </trkpt>
      <trkpt lat="47.01624" lon="-1.76723">
        <ele>69</ele>
        <time>2021-05-01T10:58:12.000Z</time>
      </trkpt>
      <trkpt lat="47.01621" lon="-1.76705">
        <ele>69</ele>
        <time>2021-05-01T10:58:14.000Z</time>
      </trkpt>
      <trkpt lat="47.01619" lon="-1.76686">
        <ele>69</ele>
        <time>2021-05-01T10:58:16.000Z</time>
      </trkpt>
      <trkpt lat="47.01616" lon="-1.76668">
        <ele>69</ele>
        <time>2021-05-01T10:58:18.000Z</time>
      </trkpt>
      <trkpt lat="47.01613" lon="-1.76649">
        <ele>69</ele>
        <time>2021-05-01T10:58:20.000Z</time>
      </trkpt>
      <trkpt lat="47.01609" lon="-1.76632">
        <ele>69</ele>
        <time>2021-05-01T10:58:22.000Z</time>
      </trkpt>
      <trkpt lat="47.01603" lon="-1.76615">
        <ele>69</ele>
        <time>2021-05-01T10:58:24.000Z</time>
      </trkpt>
      <trkpt lat="47.01598" lon="-1.76599">
        <ele>69</ele>
        <time>2021-05-01T10:58:26.000Z</time>
      </trkpt>
      <trkpt lat="47.01591" lon="-1.76583">
        <ele>70</ele>
        <time>2021-05-01T10:58:28.000Z</time>
      </trkpt>
      <trkpt lat="47.01585" lon="-1.76568">
        <ele>71</ele>
        <time>2021-05-01T10:58:30.000Z</time>
      </trkpt>
      <trkpt lat="47.01578" lon="-1.76552">
        <ele>71</ele>
        <time>2021-05-01T10:58:32.000Z</time>
      </trkpt>
      <trkpt lat="47.01571" lon="-1.76536">
        <ele>72</ele>
        <time>2021-05-01T10:58:34.000Z</time>
      </trkpt>
      <trkpt lat="47.01564" lon="-1.76519">
        <ele>72</ele>
        <time>2021-05-01T10:58:36.000Z</time>
      </trkpt>
      <trkpt lat="47.01558" lon="-1.76503">
        <ele>72</ele>
        <time>2021-05-01T10:58:38.000Z</time>
      </trkpt>
      <trkpt lat="47.01552" lon="-1.76485">
        <ele>72</ele>
        <time>2021-05-01T10:58:40.000Z</time>
      </trkpt>
      <trkpt lat="47.01546" lon="-1.76469">
        <ele>72</ele>
        <time>2021-05-01T10:58:42.000Z</time>
      </trkpt>
      <trkpt lat="47.01541" lon="-1.76453">
        <ele>72</ele>
        <time>2021-05-01T10:58:44.000Z</time>
      </trkpt>
      <trkpt lat="47.01535" lon="-1.76439">
        <ele>73</ele>
        <time>2021-05-01T10:58:46.000Z</time>
      </trkpt>
      <trkpt lat="47.01529" lon="-1.76422">
        <ele>72</ele>
        <time>2021-05-01T10:58:48.000Z</time>
      </trkpt>
      <trkpt lat="47.01522" lon="-1.76406">
        <ele>71</ele>
        <time>2021-05-01T10:58:50.000Z</time>
      </trkpt>
      <trkpt lat="47.01515" lon="-1.76389">
        <ele>71</ele>
        <time>2021-05-01T10:58:52.000Z</time>
      </trkpt>
      <trkpt lat="47.01508" lon="-1.7637">
        <ele>71</ele>
        <time>2021-05-01T10:58:54.000Z</time>
      </trkpt>
      <trkpt lat="47.01501" lon="-1.76352">
        <ele>71</ele>
        <time>2021-05-01T10:58:56.000Z</time>
      </trkpt>
      <trkpt lat="47.01493" lon="-1.76332">
        <ele>70</ele>
        <time>2021-05-01T10:58:58.000Z</time>
      </trkpt>
      <trkpt lat="47.01485" lon="-1.76313">
        <ele>68</ele>
        <time>2021-05-01T10:59:00.000Z</time>
      </trkpt>
      <trkpt lat="47.01478" lon="-1.76294">
        <ele>68</ele>
        <time>2021-05-01T10:59:02.000Z</time>
      </trkpt>
      <trkpt lat="47.01471" lon="-1.76276">
        <ele>67</ele>
        <time>2021-05-01T10:59:04.000Z</time>
      </trkpt>
      <trkpt lat="47.01464" lon="-1.76258">
        <ele>67</ele>
        <time>2021-05-01T10:59:06.000Z</time>
      </trkpt>
      <trkpt lat="47.01457" lon="-1.7624">
        <ele>67</ele>
        <time>2021-05-01T10:59:08.000Z</time>
      </trkpt>
      <trkpt lat="47.0145" lon="-1.76222">
        <ele>66</ele>
        <time>2021-05-01T10:59:10.000Z</time>
      </trkpt>
      <trkpt lat="47.01443" lon="-1.76204">
        <ele>66</ele>
        <time>2021-05-01T10:59:12.000Z</time>
      </trkpt>
      <trkpt lat="47.01436" lon="-1.76186">
        <ele>65</ele>
        <time>2021-05-01T10:59:14.000Z</time>
      </trkpt>
      <trkpt lat="47.01429" lon="-1.76168">
        <ele>65</ele>
        <time>2021-05-01T10:59:16.000Z</time>
      </trkpt>
      <trkpt lat="47.01422" lon="-1.76149">
        <ele>64</ele>
        <time>2021-05-01T10:59:18.000Z</time>
      </trkpt>
      <trkpt lat="47.01414" lon="-1.76131">
        <ele>64</ele>
        <time>2021-05-01T10:59:20.000Z</time>
      </trkpt>
      <trkpt lat="47.01407" lon="-1.76113">
        <ele>63</ele>
        <time>2021-05-01T10:59:22.000Z</time>
      </trkpt>
      <trkpt lat="47.014" lon="-1.76096">
        <ele>63</ele>
        <time>2021-05-01T10:59:24.000Z</time>
      </trkpt>
      <trkpt lat="47.01394" lon="-1.76079">
        <ele>63</ele>
        <time>2021-05-01T10:59:26.000Z</time>
      </trkpt>
      <trkpt lat="47.01387" lon="-1.76062">
        <ele>63</ele>
        <time>2021-05-01T10:59:28.000Z</time>
      </trkpt>
      <trkpt lat="47.0138" lon="-1.76044">
        <ele>63</ele>
        <time>2021-05-01T10:59:30.000Z</time>
      </trkpt>
      <trkpt lat="47.01373" lon="-1.76027">
        <ele>63</ele>
        <time>2021-05-01T10:59:32.000Z</time>
      </trkpt>
      <trkpt lat="47.01366" lon="-1.76009">
        <ele>63</ele>
        <time>2021-05-01T10:59:34.000Z</time>
      </trkpt>
      <trkpt lat="47.0136" lon="-1.75992">
        <ele>63</ele>
        <time>2021-05-01T10:59:36.000Z</time>
      </trkpt>
      <trkpt lat="47.01353" lon="-1.75976">
        <ele>63</ele>
        <time>2021-05-01T10:59:38.000Z</time>
      </trkpt>
      <trkpt lat="47.01347" lon="-1.75959">
        <ele>62</ele>
        <time>2021-05-01T10:59:40.000Z</time>
      </trkpt>
      <trkpt lat="47.0134" lon="-1.75942">
        <ele>62</ele>
        <time>2021-05-01T10:59:42.000Z</time>
      </trkpt>
      <trkpt lat="47.01333" lon="-1.75925">
        <ele>61</ele>
        <time>2021-05-01T10:59:44.000Z</time>
      </trkpt>
      <trkpt lat="47.01326" lon="-1.75908">
        <ele>61</ele>
        <time>2021-05-01T10:59:46.000Z</time>
      </trkpt>
      <trkpt lat="47.01319" lon="-1.7589">
        <ele>61</ele>
        <time>2021-05-01T10:59:48.000Z</time>
      </trkpt>
      <trkpt lat="47.01312" lon="-1.75872">
        <ele>60</ele>
        <time>2021-05-01T10:59:50.000Z</time>
      </trkpt>
      <trkpt lat="47.01305" lon="-1.75854">
        <ele>60</ele>
        <time>2021-05-01T10:59:52.000Z</time>
      </trkpt>
      <trkpt lat="47.01297" lon="-1.75835">
        <ele>60</ele>
        <time>2021-05-01T10:59:54.000Z</time>
      </trkpt>
      <trkpt lat="47.0129" lon="-1.75817">
        <ele>59</ele>
        <time>2021-05-01T10:59:56.000Z</time>
      </trkpt>
      <trkpt lat="47.01282" lon="-1.75799">
        <ele>60</ele>
        <time>2021-05-01T10:59:58.000Z</time>
      </trkpt>
      <trkpt lat="47.01275" lon="-1.75781">
        <ele>60</ele>
        <time>2021-05-01T11:00:00.000Z</time>
      </trkpt>
      <trkpt lat="47.01268" lon="-1.75765">
        <ele>61</ele>
        <time>2021-05-01T11:00:02.000Z</time>
      </trkpt>
      <trkpt lat="47.01262" lon="-1.75747">
        <ele>62</ele>
        <time>2021-05-01T11:00:04.000Z</time>
      </trkpt>
      <trkpt lat="47.01256" lon="-1.75728">
        <ele>63</ele>
        <time>2021-05-01T11:00:06.000Z</time>
      </trkpt>
      <trkpt lat="47.0125" lon="-1.75712">
        <ele>63</ele>
        <time>2021-05-01T11:00:08.000Z</time>
      </trkpt>
      <trkpt lat="47.01244" lon="-1.75697">
        <ele>65</ele>
        <time>2021-05-01T11:00:10.000Z</time>
      </trkpt>
      <trkpt lat="47.01237" lon="-1.7568">
        <ele>65</ele>
        <time>2021-05-01T11:00:12.000Z</time>
      </trkpt>
      <trkpt lat="47.01229" lon="-1.75664">
        <ele>65</ele>
        <time>2021-05-01T11:00:14.000Z</time>
      </trkpt>
      <trkpt lat="47.01221" lon="-1.75646">
        <ele>66</ele>
        <time>2021-05-01T11:00:16.000Z</time>
      </trkpt>
      <trkpt lat="47.01214" lon="-1.75629">
        <ele>66</ele>
        <time>2021-05-01T11:00:18.000Z</time>
      </trkpt>
      <trkpt lat="47.01207" lon="-1.75612">
        <ele>66</ele>
        <time>2021-05-01T11:00:20.000Z</time>
      </trkpt>
      <trkpt lat="47.01201" lon="-1.75597">
        <ele>67</ele>
        <time>2021-05-01T11:00:22.000Z</time>
      </trkpt>
      <trkpt lat="47.01195" lon="-1.75583">
        <ele>67</ele>
        <time>2021-05-01T11:00:24.000Z</time>
      </trkpt>
      <trkpt lat="47.01189" lon="-1.75568">
        <ele>68</ele>
        <time>2021-05-01T11:00:26.000Z</time>
      </trkpt>
      <trkpt lat="47.01183" lon="-1.7555">
        <ele>67</ele>
        <time>2021-05-01T11:00:28.000Z</time>
      </trkpt>
      <trkpt lat="47.01176" lon="-1.75532">
        <ele>66</ele>
        <time>2021-05-01T11:00:30.000Z</time>
      </trkpt>
      <trkpt lat="47.01169" lon="-1.75514">
        <ele>66</ele>
        <time>2021-05-01T11:00:32.000Z</time>
      </trkpt>
      <trkpt lat="47.01162" lon="-1.75497">
        <ele>65</ele>
        <time>2021-05-01T11:00:34.000Z</time>
      </trkpt>
      <trkpt lat="47.01156" lon="-1.75481">
        <ele>65</ele>
        <time>2021-05-01T11:00:36.000Z</time>
      </trkpt>
      <trkpt lat="47.0115" lon="-1.75465">
        <ele>65</ele>
        <time>2021-05-01T11:00:38.000Z</time>
      </trkpt>
      <trkpt lat="47.01143" lon="-1.75448">
        <ele>65</ele>
        <time>2021-05-01T11:00:40.000Z</time>
      </trkpt>
      <trkpt lat="47.01137" lon="-1.75432">
        <ele>65</ele>
        <time>2021-05-01T11:00:42.000Z</time>
      </trkpt>
      <trkpt lat="47.01131" lon="-1.75417">
        <ele>65</ele>
        <time>2021-05-01T11:00:44.000Z</time>
      </trkpt>
      <trkpt lat="47.01125" lon="-1.754">
        <ele>65</ele>
        <time>2021-05-01T11:00:46.000Z</time>
      </trkpt>
      <trkpt lat="47.01119" lon="-1.75385">
        <ele>66</ele>
        <time>2021-05-01T11:00:48.000Z</time>
      </trkpt>
      <trkpt lat="47.01113" lon="-1.75371">
        <ele>66</ele>
        <time>2021-05-01T11:00:50.000Z</time>
      </trkpt>
      <trkpt lat="47.01106" lon="-1.75355">
        <ele>66</ele>
        <time>2021-05-01T11:00:52.000Z</time>
      </trkpt>
      <trkpt lat="47.011" lon="-1.75339">
        <ele>66</ele>
        <time>2021-05-01T11:00:54.000Z</time>
      </trkpt>
      <trkpt lat="47.01093" lon="-1.75323">
        <ele>66</ele>
        <time>2021-05-01T11:00:56.000Z</time>
      </trkpt>
      <trkpt lat="47.01088" lon="-1.75308">
        <ele>66</ele>
        <time>2021-05-01T11:00:58.000Z</time>
      </trkpt>
      <trkpt lat="47.01081" lon="-1.75292">
        <ele>66</ele>
        <time>2021-05-01T11:01:00.000Z</time>
      </trkpt>
      <trkpt lat="47.01074" lon="-1.75274">
        <ele>65</ele>
        <time>2021-05-01T11:01:02.000Z</time>
      </trkpt>
      <trkpt lat="47.01068" lon="-1.75259">
        <ele>65</ele>
        <time>2021-05-01T11:01:04.000Z</time>
      </trkpt>
      <trkpt lat="47.01062" lon="-1.75243">
        <ele>65</ele>
        <time>2021-05-01T11:01:06.000Z</time>
      </trkpt>
      <trkpt lat="47.01057" lon="-1.75227">
        <ele>66</ele>
        <time>2021-05-01T11:01:08.000Z</time>
      </trkpt>
      <trkpt lat="47.01052" lon="-1.7521">
        <ele>66</ele>
        <time>2021-05-01T11:01:10.000Z</time>
      </trkpt>
      <trkpt lat="47.01049" lon="-1.75192">
        <ele>66</ele>
        <time>2021-05-01T11:01:12.000Z</time>
      </trkpt>
      <trkpt lat="47.01047" lon="-1.75174">
        <ele>67</ele>
        <time>2021-05-01T11:01:14.000Z</time>
      </trkpt>
      <trkpt lat="47.01046" lon="-1.75155">
        <ele>67</ele>
        <time>2021-05-01T11:01:16.000Z</time>
      </trkpt>
      <trkpt lat="47.01045" lon="-1.75137">
        <ele>67</ele>
        <time>2021-05-01T11:01:18.000Z</time>
      </trkpt>
      <trkpt lat="47.01045" lon="-1.75118">
        <ele>67</ele>
        <time>2021-05-01T11:01:20.000Z</time>
      </trkpt>
      <trkpt lat="47.01045" lon="-1.75101">
        <ele>66</ele>
        <time>2021-05-01T11:01:22.000Z</time>
      </trkpt>
      <trkpt lat="47.01045" lon="-1.75083">
        <ele>66</ele>
        <time>2021-05-01T11:01:24.000Z</time>
      </trkpt>
      <trkpt lat="47.01045" lon="-1.75064">
        <ele>66</ele>
        <time>2021-05-01T11:01:26.000Z</time>
      </trkpt>
      <trkpt lat="47.01045" lon="-1.75047">
        <ele>66</ele>
        <time>2021-05-01T11:01:28.000Z</time>
      </trkpt>
      <trkpt lat="47.01044" lon="-1.75028">
        <ele>66</ele>
        <time>2021-05-01T11:01:30.000Z</time>
      </trkpt>
      <trkpt lat="47.01043" lon="-1.7501">
        <ele>66</ele>
        <time>2021-05-01T11:01:32.000Z</time>
      </trkpt>
      <trkpt lat="47.01043" lon="-1.74993">
        <ele>66</ele>
        <time>2021-05-01T11:01:34.000Z</time>
      </trkpt>
      <trkpt lat="47.01043" lon="-1.74974">
        <ele>66</ele>
        <time>2021-05-01T11:01:36.000Z</time>
      </trkpt>
      <trkpt lat="47.01043" lon="-1.74955">
        <ele>65</ele>
        <time>2021-05-01T11:01:38.000Z</time>
      </trkpt>
      <trkpt lat="47.01043" lon="-1.74937">
        <ele>65</ele>
        <time>2021-05-01T11:01:40.000Z</time>
      </trkpt>
      <trkpt lat="47.01042" lon="-1.74919">
        <ele>65</ele>
        <time>2021-05-01T11:01:42.000Z</time>
      </trkpt>
      <trkpt lat="47.01042" lon="-1.74901">
        <ele>64</ele>
        <time>2021-05-01T11:01:44.000Z</time>
      </trkpt>
      <trkpt lat="47.01042" lon="-1.74884">
        <ele>64</ele>
        <time>2021-05-01T11:01:46.000Z</time>
      </trkpt>
      <trkpt lat="47.01042" lon="-1.74866">
        <ele>64</ele>
        <time>2021-05-01T11:01:48.000Z</time>
      </trkpt>
      <trkpt lat="47.01042" lon="-1.74848">
        <ele>64</ele>
        <time>2021-05-01T11:01:50.000Z</time>
      </trkpt>
      <trkpt lat="47.01042" lon="-1.7483">
        <ele>64</ele>
        <time>2021-05-01T11:01:52.000Z</time>
      </trkpt>
      <trkpt lat="47.01042" lon="-1.74812">
        <ele>65</ele>
        <time>2021-05-01T11:01:54.000Z</time>
      </trkpt>
      <trkpt lat="47.01041" lon="-1.74794">
        <ele>65</ele>
        <time>2021-05-01T11:01:56.000Z</time>
      </trkpt>
      <trkpt lat="47.0104" lon="-1.74776">
        <ele>66</ele>
        <time>2021-05-01T11:01:58.000Z</time>
      </trkpt>
      <trkpt lat="47.01039" lon="-1.74758">
        <ele>67</ele>
        <time>2021-05-01T11:02:00.000Z</time>
      </trkpt>
      <trkpt lat="47.01039" lon="-1.7474">
        <ele>67</ele>
        <time>2021-05-01T11:02:02.000Z</time>
      </trkpt>
      <trkpt lat="47.01039" lon="-1.74722">
        <ele>67</ele>
        <time>2021-05-01T11:02:04.000Z</time>
      </trkpt>
      <trkpt lat="47.01039" lon="-1.74703">
        <ele>67</ele>
        <time>2021-05-01T11:02:06.000Z</time>
      </trkpt>
      <trkpt lat="47.01038" lon="-1.74684">
        <ele>67</ele>
        <time>2021-05-01T11:02:08.000Z</time>
      </trkpt>
      <trkpt lat="47.01038" lon="-1.74665">
        <ele>67</ele>
        <time>2021-05-01T11:02:10.000Z</time>
      </trkpt>
      <trkpt lat="47.01038" lon="-1.74646">
        <ele>66</ele>
        <time>2021-05-01T11:02:12.000Z</time>
      </trkpt>
      <trkpt lat="47.01038" lon="-1.74628">
        <ele>66</ele>
        <time>2021-05-01T11:02:14.000Z</time>
      </trkpt>
      <trkpt lat="47.01038" lon="-1.7461">
        <ele>66</ele>
        <time>2021-05-01T11:02:16.000Z</time>
      </trkpt>
      <trkpt lat="47.01037" lon="-1.74592">
        <ele>66</ele>
        <time>2021-05-01T11:02:18.000Z</time>
      </trkpt>
      <trkpt lat="47.01038" lon="-1.74573">
        <ele>66</ele>
        <time>2021-05-01T11:02:20.000Z</time>
      </trkpt>
      <trkpt lat="47.0104" lon="-1.74554">
        <ele>66</ele>
        <time>2021-05-01T11:02:22.000Z</time>
      </trkpt>
      <trkpt lat="47.01043" lon="-1.74537">
        <ele>65</ele>
        <time>2021-05-01T11:02:24.000Z</time>
      </trkpt>
      <trkpt lat="47.01049" lon="-1.7452">
        <ele>65</ele>
        <time>2021-05-01T11:02:26.000Z</time>
      </trkpt>
      <trkpt lat="47.01055" lon="-1.74504">
        <ele>64</ele>
        <time>2021-05-01T11:02:28.000Z</time>
      </trkpt>
      <trkpt lat="47.01061" lon="-1.74488">
        <ele>64</ele>
        <time>2021-05-01T11:02:30.000Z</time>
      </trkpt>
      <trkpt lat="47.01066" lon="-1.74472">
        <ele>64</ele>
        <time>2021-05-01T11:02:32.000Z</time>
      </trkpt>
      <trkpt lat="47.01072" lon="-1.74456">
        <ele>64</ele>
        <time>2021-05-01T11:02:34.000Z</time>
      </trkpt>
      <trkpt lat="47.01077" lon="-1.74439">
        <ele>65</ele>
        <time>2021-05-01T11:02:36.000Z</time>
      </trkpt>
      <trkpt lat="47.01081" lon="-1.74421">
        <ele>64</ele>
        <time>2021-05-01T11:02:38.000Z</time>
      </trkpt>
      <trkpt lat="47.01086" lon="-1.74403">
        <ele>65</ele>
        <time>2021-05-01T11:02:40.000Z</time>
      </trkpt>
      <trkpt lat="47.0109" lon="-1.74384">
        <ele>65</ele>
        <time>2021-05-01T11:02:42.000Z</time>
      </trkpt>
      <trkpt lat="47.01095" lon="-1.74366">
        <ele>64</ele>
        <time>2021-05-01T11:02:44.000Z</time>
      </trkpt>
      <trkpt lat="47.01099" lon="-1.74349">
        <ele>64</ele>
        <time>2021-05-01T11:02:46.000Z</time>
      </trkpt>
      <trkpt lat="47.01104" lon="-1.74331">
        <ele>65</ele>
        <time>2021-05-01T11:02:48.000Z</time>
      </trkpt>
      <trkpt lat="47.01109" lon="-1.74313">
        <ele>65</ele>
        <time>2021-05-01T11:02:50.000Z</time>
      </trkpt>
      <trkpt lat="47.01113" lon="-1.74295">
        <ele>65</ele>
        <time>2021-05-01T11:02:52.000Z</time>
      </trkpt>
      <trkpt lat="47.01118" lon="-1.74277">
        <ele>65</ele>
        <time>2021-05-01T11:02:54.000Z</time>
      </trkpt>
      <trkpt lat="47.01122" lon="-1.7426">
        <ele>65</ele>
        <time>2021-05-01T11:02:56.000Z</time>
      </trkpt>
      <trkpt lat="47.01127" lon="-1.74244">
        <ele>65</ele>
        <time>2021-05-01T11:02:58.000Z</time>
      </trkpt>
      <trkpt lat="47.0113" lon="-1.74227">
        <ele>66</ele>
        <time>2021-05-01T11:03:00.000Z</time>
      </trkpt>
      <trkpt lat="47.01134" lon="-1.7421">
        <ele>66</ele>
        <time>2021-05-01T11:03:02.000Z</time>
      </trkpt>
      <trkpt lat="47.01138" lon="-1.74193">
        <ele>66</ele>
        <time>2021-05-01T11:03:04.000Z</time>
      </trkpt>
      <trkpt lat="47.01143" lon="-1.74175">
        <ele>66</ele>
        <time>2021-05-01T11:03:06.000Z</time>
      </trkpt>
      <trkpt lat="47.01148" lon="-1.74158">
        <ele>66</ele>
        <time>2021-05-01T11:03:08.000Z</time>
      </trkpt>
      <trkpt lat="47.01152" lon="-1.74141">
        <ele>66</ele>
        <time>2021-05-01T11:03:10.000Z</time>
      </trkpt>
      <trkpt lat="47.01156" lon="-1.74124">
        <ele>66</ele>
        <time>2021-05-01T11:03:12.000Z</time>
      </trkpt>
      <trkpt lat="47.0116" lon="-1.74107">
        <ele>66</ele>
        <time>2021-05-01T11:03:14.000Z</time>
      </trkpt>
      <trkpt lat="47.01164" lon="-1.74091">
        <ele>67</ele>
        <time>2021-05-01T11:03:16.000Z</time>
      </trkpt>
      <trkpt lat="47.01167" lon="-1.74076">
        <ele>68</ele>
        <time>2021-05-01T11:03:18.000Z</time>
      </trkpt>
      <trkpt lat="47.0117" lon="-1.74061">
        <ele>68</ele>
        <time>2021-05-01T11:03:20.000Z</time>
      </trkpt>
      <trkpt lat="47.01173" lon="-1.74046">
        <ele>69</ele>
        <time>2021-05-01T11:03:22.000Z</time>
      </trkpt>
      <trkpt lat="47.01176" lon="-1.74031">
        <ele>70</ele>
        <time>2021-05-01T11:03:24.000Z</time>
      </trkpt>
      <trkpt lat="47.01179" lon="-1.74016">
        <ele>71</ele>
        <time>2021-05-01T11:03:26.000Z</time>
      </trkpt>
      <trkpt lat="47.01182" lon="-1.74">
        <ele>72</ele>
        <time>2021-05-01T11:03:28.000Z</time>
      </trkpt>
      <trkpt lat="47.01187" lon="-1.73981">
        <ele>72</ele>
        <time>2021-05-01T11:03:30.000Z</time>
      </trkpt>
      <trkpt lat="47.01193" lon="-1.73962">
        <ele>72</ele>
        <time>2021-05-01T11:03:32.000Z</time>
      </trkpt>
      <trkpt lat="47.01198" lon="-1.73943">
        <ele>71</ele>
        <time>2021-05-01T11:03:34.000Z</time>
      </trkpt>
      <trkpt lat="47.01201" lon="-1.73925">
        <ele>71</ele>
        <time>2021-05-01T11:03:36.000Z</time>
      </trkpt>
      <trkpt lat="47.01204" lon="-1.73908">
        <ele>70</ele>
        <time>2021-05-01T11:03:38.000Z</time>
      </trkpt>
      <trkpt lat="47.01206" lon="-1.7389">
        <ele>70</ele>
        <time>2021-05-01T11:03:40.000Z</time>
      </trkpt>
      <trkpt lat="47.01207" lon="-1.7387">
        <ele>69</ele>
        <time>2021-05-01T11:03:42.000Z</time>
      </trkpt>
      <trkpt lat="47.01208" lon="-1.73852">
        <ele>68</ele>
        <time>2021-05-01T11:03:44.000Z</time>
      </trkpt>
      <trkpt lat="47.01209" lon="-1.73835">
        <ele>67</ele>
        <time>2021-05-01T11:03:46.000Z</time>
      </trkpt>
      <trkpt lat="47.0121" lon="-1.73817">
        <ele>66</ele>
        <time>2021-05-01T11:03:48.000Z</time>
      </trkpt>
      <trkpt lat="47.01211" lon="-1.738">
        <ele>66</ele>
        <time>2021-05-01T11:03:50.000Z</time>
      </trkpt>
      <trkpt lat="47.01212" lon="-1.73783">
        <ele>66</ele>
        <time>2021-05-01T11:03:52.000Z</time>
      </trkpt>
      <trkpt lat="47.01213" lon="-1.73766">
        <ele>66</ele>
        <time>2021-05-01T11:03:54.000Z</time>
      </trkpt>
      <trkpt lat="47.01213" lon="-1.73748">
        <ele>65</ele>
        <time>2021-05-01T11:03:56.000Z</time>
      </trkpt>
      <trkpt lat="47.01214" lon="-1.7373">
        <ele>66</ele>
        <time>2021-05-01T11:03:58.000Z</time>
      </trkpt>
      <trkpt lat="47.01216" lon="-1.73712">
        <ele>65</ele>
        <time>2021-05-01T11:04:00.000Z</time>
      </trkpt>
      <trkpt lat="47.01217" lon="-1.73694">
        <ele>65</ele>
        <time>2021-05-01T11:04:02.000Z</time>
      </trkpt>
      <trkpt lat="47.01217" lon="-1.73677">
        <ele>65</ele>
        <time>2021-05-01T11:04:04.000Z</time>
      </trkpt>
      <trkpt lat="47.01218" lon="-1.73658">
        <ele>65</ele>
        <time>2021-05-01T11:04:06.000Z</time>
      </trkpt>
      <trkpt lat="47.01218" lon="-1.73641">
        <ele>66</ele>
        <time>2021-05-01T11:04:08.000Z</time>
      </trkpt>
      <trkpt lat="47.01219" lon="-1.73624">
        <ele>67</ele>
        <time>2021-05-01T11:04:10.000Z</time>
      </trkpt>
      <trkpt lat="47.01219" lon="-1.73607">
        <ele>67</ele>
        <time>2021-05-01T11:04:12.000Z</time>
      </trkpt>
      <trkpt lat="47.0122" lon="-1.7359">
        <ele>67</ele>
        <time>2021-05-01T11:04:14.000Z</time>
      </trkpt>
      <trkpt lat="47.01221" lon="-1.73573">
        <ele>67</ele>
        <time>2021-05-01T11:04:16.000Z</time>
      </trkpt>
      <trkpt lat="47.01222" lon="-1.73557">
        <ele>68</ele>
        <time>2021-05-01T11:04:18.000Z</time>
      </trkpt>
      <trkpt lat="47.01223" lon="-1.7354">
        <ele>68</ele>
        <time>2021-05-01T11:04:20.000Z</time>
      </trkpt>
      <trkpt lat="47.01224" lon="-1.73524">
        <ele>68</ele>
        <time>2021-05-01T11:04:22.000Z</time>
      </trkpt>
      <trkpt lat="47.01224" lon="-1.73508">
        <ele>68</ele>
        <time>2021-05-01T11:04:24.000Z</time>
      </trkpt>
      <trkpt lat="47.01224" lon="-1.73495">
        <ele>67</ele>
        <time>2021-05-01T11:04:26.000Z</time>
      </trkpt>
      <trkpt lat="47.01216" lon="-1.73485">
        <ele>67</ele>
        <time>2021-05-01T11:04:29.000Z</time>
      </trkpt>
      <trkpt lat="47.01206" lon="-1.73482">
        <ele>67</ele>
        <time>2021-05-01T11:04:31.000Z</time>
      </trkpt>
      <trkpt lat="47.01194" lon="-1.73479">
        <ele>67</ele>
        <time>2021-05-01T11:04:33.000Z</time>
      </trkpt>
      <trkpt lat="47.01182" lon="-1.73477">
        <ele>67</ele>
        <time>2021-05-01T11:04:35.000Z</time>
      </trkpt>
      <trkpt lat="47.0117" lon="-1.73473">
        <ele>68</ele>
        <time>2021-05-01T11:04:37.000Z</time>
      </trkpt>
      <trkpt lat="47.01158" lon="-1.73469">
        <ele>67</ele>
        <time>2021-05-01T11:04:39.000Z</time>
      </trkpt>
      <trkpt lat="47.01146" lon="-1.73467">
        <ele>67</ele>
        <time>2021-05-01T11:04:41.000Z</time>
      </trkpt>
      <trkpt lat="47.01134" lon="-1.73464">
        <ele>67</ele>
        <time>2021-05-01T11:04:43.000Z</time>
      </trkpt>
      <trkpt lat="47.01122" lon="-1.73459">
        <ele>67</ele>
        <time>2021-05-01T11:04:45.000Z</time>
      </trkpt>
      <trkpt lat="47.0111" lon="-1.73454">
        <ele>67</ele>
        <time>2021-05-01T11:04:47.000Z</time>
      </trkpt>
      <trkpt lat="47.01101" lon="-1.73441">
        <ele>67</ele>
        <time>2021-05-01T11:04:49.000Z</time>
      </trkpt>
      <trkpt lat="47.01106" lon="-1.73426">
        <ele>67</ele>
        <time>2021-05-01T11:04:51.000Z</time>
      </trkpt>
      <trkpt lat="47.01112" lon="-1.73414">
        <ele>66</ele>
        <time>2021-05-01T11:04:53.000Z</time>
      </trkpt>
      <trkpt lat="47.01118" lon="-1.73401">
        <ele>66</ele>
        <time>2021-05-01T11:04:55.000Z</time>
      </trkpt>
      <trkpt lat="47.01124" lon="-1.73388">
        <ele>66</ele>
        <time>2021-05-01T11:04:57.000Z</time>
      </trkpt>
      <trkpt lat="47.0113" lon="-1.73372">
        <ele>66</ele>
        <time>2021-05-01T11:04:59.000Z</time>
      </trkpt>
      <trkpt lat="47.01136" lon="-1.73356">
        <ele>66</ele>
        <time>2021-05-01T11:05:01.000Z</time>
      </trkpt>
      <trkpt lat="47.01144" lon="-1.73341">
        <ele>67</ele>
        <time>2021-05-01T11:05:03.000Z</time>
      </trkpt>
      <trkpt lat="47.01151" lon="-1.73324">
        <ele>66</ele>
        <time>2021-05-01T11:05:05.000Z</time>
      </trkpt>
      <trkpt lat="47.01158" lon="-1.73309">
        <ele>67</ele>
        <time>2021-05-01T11:05:07.000Z</time>
      </trkpt>
      <trkpt lat="47.01164" lon="-1.73294">
        <ele>67</ele>
        <time>2021-05-01T11:05:09.000Z</time>
      </trkpt>
      <trkpt lat="47.01171" lon="-1.73279">
        <ele>66</ele>
        <time>2021-05-01T11:05:11.000Z</time>
      </trkpt>
      <trkpt lat="47.01177" lon="-1.73264">
        <ele>67</ele>
        <time>2021-05-01T11:05:13.000Z</time>
      </trkpt>
      <trkpt lat="47.01184" lon="-1.73248">
        <ele>67</ele>
        <time>2021-05-01T11:05:15.000Z</time>
      </trkpt>
      <trkpt lat="47.0119" lon="-1.73232">
        <ele>67</ele>
        <time>2021-05-01T11:05:17.000Z</time>
      </trkpt>
      <trkpt lat="47.01197" lon="-1.73216">
        <ele>67</ele>
        <time>2021-05-01T11:05:19.000Z</time>
      </trkpt>
      <trkpt lat="47.01204" lon="-1.732">
        <ele>67</ele>
        <time>2021-05-01T11:05:21.000Z</time>
      </trkpt>
      <trkpt lat="47.01211" lon="-1.73184">
        <ele>67</ele>
        <time>2021-05-01T11:05:23.000Z</time>
      </trkpt>
      <trkpt lat="47.01218" lon="-1.73169">
        <ele>67</ele>
        <time>2021-05-01T11:05:25.000Z</time>
      </trkpt>
      <trkpt lat="47.01225" lon="-1.73154">
        <ele>67</ele>
        <time>2021-05-01T11:05:27.000Z</time>
      </trkpt>
      <trkpt lat="47.01232" lon="-1.73139">
        <ele>67</ele>
        <time>2021-05-01T11:05:29.000Z</time>
      </trkpt>
      <trkpt lat="47.01238" lon="-1.73124">
        <ele>67</ele>
        <time>2021-05-01T11:05:31.000Z</time>
      </trkpt>
      <trkpt lat="47.01244" lon="-1.73108">
        <ele>67</ele>
        <time>2021-05-01T11:05:33.000Z</time>
      </trkpt>
      <trkpt lat="47.01252" lon="-1.73093">
        <ele>66</ele>
        <time>2021-05-01T11:05:35.000Z</time>
      </trkpt>
      <trkpt lat="47.01258" lon="-1.73078">
        <ele>67</ele>
        <time>2021-05-01T11:05:37.000Z</time>
      </trkpt>
      <trkpt lat="47.01265" lon="-1.73063">
        <ele>67</ele>
        <time>2021-05-01T11:05:39.000Z</time>
      </trkpt>
      <trkpt lat="47.01272" lon="-1.73048">
        <ele>67</ele>
        <time>2021-05-01T11:05:41.000Z</time>
      </trkpt>
      <trkpt lat="47.01279" lon="-1.73033">
        <ele>67</ele>
        <time>2021-05-01T11:05:43.000Z</time>
      </trkpt>
      <trkpt lat="47.01286" lon="-1.73018">
        <ele>67</ele>
        <time>2021-05-01T11:05:45.000Z</time>
      </trkpt>
      <trkpt lat="47.01292" lon="-1.73003">
        <ele>67</ele>
        <time>2021-05-01T11:05:47.000Z</time>
      </trkpt>
      <trkpt lat="47.01298" lon="-1.72988">
        <ele>67</ele>
        <time>2021-05-01T11:05:49.000Z</time>
      </trkpt>
      <trkpt lat="47.01305" lon="-1.72973">
        <ele>67</ele>
        <time>2021-05-01T11:05:51.000Z</time>
      </trkpt>
      <trkpt lat="47.01312" lon="-1.72957">
        <ele>67</ele>
        <time>2021-05-01T11:05:53.000Z</time>
      </trkpt>
      <trkpt lat="47.01318" lon="-1.72942">
        <ele>67</ele>
        <time>2021-05-01T11:05:55.000Z</time>
      </trkpt>
      <trkpt lat="47.01325" lon="-1.72927">
        <ele>67</ele>
        <time>2021-05-01T11:05:57.000Z</time>
      </trkpt>
      <trkpt lat="47.01332" lon="-1.72912">
        <ele>67</ele>
        <time>2021-05-01T11:05:59.000Z</time>
      </trkpt>
      <trkpt lat="47.01338" lon="-1.72897">
        <ele>67</ele>
        <time>2021-05-01T11:06:01.000Z</time>
      </trkpt>
      <trkpt lat="47.01345" lon="-1.72883">
        <ele>68</ele>
        <time>2021-05-01T11:06:03.000Z</time>
      </trkpt>
      <trkpt lat="47.01351" lon="-1.72868">
        <ele>68</ele>
        <time>2021-05-01T11:06:05.000Z</time>
      </trkpt>
      <trkpt lat="47.01357" lon="-1.72852">
        <ele>68</ele>
        <time>2021-05-01T11:06:07.000Z</time>
      </trkpt>
      <trkpt lat="47.01363" lon="-1.72838">
        <ele>68</ele>
        <time>2021-05-01T11:06:09.000Z</time>
      </trkpt>
      <trkpt lat="47.0137" lon="-1.72823">
        <ele>68</ele>
        <time>2021-05-01T11:06:11.000Z</time>
      </trkpt>
      <trkpt lat="47.01377" lon="-1.72808">
        <ele>68</ele>
        <time>2021-05-01T11:06:13.000Z</time>
      </trkpt>
      <trkpt lat="47.01384" lon="-1.72792">
        <ele>68</ele>
        <time>2021-05-01T11:06:15.000Z</time>
      </trkpt>
      <trkpt lat="47.0139" lon="-1.72777">
        <ele>69</ele>
        <time>2021-05-01T11:06:17.000Z</time>
      </trkpt>
      <trkpt lat="47.01396" lon="-1.72763">
        <ele>69</ele>
        <time>2021-05-01T11:06:19.000Z</time>
      </trkpt>
      <trkpt lat="47.01403" lon="-1.72748">
        <ele>69</ele>
        <time>2021-05-01T11:06:21.000Z</time>
      </trkpt>
      <trkpt lat="47.01409" lon="-1.72733">
        <ele>69</ele>
        <time>2021-05-01T11:06:23.000Z</time>
      </trkpt>
      <trkpt lat="47.01415" lon="-1.72719">
        <ele>69</ele>
        <time>2021-05-01T11:06:25.000Z</time>
      </trkpt>
      <trkpt lat="47.01421" lon="-1.72704">
        <ele>69</ele>
        <time>2021-05-01T11:06:27.000Z</time>
      </trkpt>
      <trkpt lat="47.01428" lon="-1.72689">
        <ele>69</ele>
        <time>2021-05-01T11:06:29.000Z</time>
      </trkpt>
      <trkpt lat="47.01435" lon="-1.72675">
        <ele>69</ele>
        <time>2021-05-01T11:06:31.000Z</time>
      </trkpt>
      <trkpt lat="47.01441" lon="-1.7266">
        <ele>69</ele>
        <time>2021-05-01T11:06:33.000Z</time>
      </trkpt>
      <trkpt lat="47.01448" lon="-1.72645">
        <ele>68</ele>
        <time>2021-05-01T11:06:35.000Z</time>
      </trkpt>
      <trkpt lat="47.01455" lon="-1.72631">
        <ele>68</ele>
        <time>2021-05-01T11:06:37.000Z</time>
      </trkpt>
      <trkpt lat="47.01461" lon="-1.72617">
        <ele>69</ele>
        <time>2021-05-01T11:06:39.000Z</time>
      </trkpt>
      <trkpt lat="47.01466" lon="-1.72604">
        <ele>69</ele>
        <time>2021-05-01T11:06:41.000Z</time>
      </trkpt>
      <trkpt lat="47.01472" lon="-1.7259">
        <ele>69</ele>
        <time>2021-05-01T11:06:43.000Z</time>
      </trkpt>
      <trkpt lat="47.01477" lon="-1.72576">
        <ele>70</ele>
        <time>2021-05-01T11:06:45.000Z</time>
      </trkpt>
      <trkpt lat="47.01483" lon="-1.72561">
        <ele>70</ele>
        <time>2021-05-01T11:06:47.000Z</time>
      </trkpt>
      <trkpt lat="47.01489" lon="-1.72545">
        <ele>71</ele>
        <time>2021-05-01T11:06:49.000Z</time>
      </trkpt>
      <trkpt lat="47.01497" lon="-1.72528">
        <ele>71</ele>
        <time>2021-05-01T11:06:51.000Z</time>
      </trkpt>
      <trkpt lat="47.01504" lon="-1.72513">
        <ele>72</ele>
        <time>2021-05-01T11:06:53.000Z</time>
      </trkpt>
      <trkpt lat="47.01511" lon="-1.72497">
        <ele>72</ele>
        <time>2021-05-01T11:06:55.000Z</time>
      </trkpt>
      <trkpt lat="47.01518" lon="-1.72482">
        <ele>72</ele>
        <time>2021-05-01T11:06:57.000Z</time>
      </trkpt>
      <trkpt lat="47.01524" lon="-1.72467">
        <ele>72</ele>
        <time>2021-05-01T11:06:59.000Z</time>
      </trkpt>
      <trkpt lat="47.01531" lon="-1.72452">
        <ele>72</ele>
        <time>2021-05-01T11:07:01.000Z</time>
      </trkpt>
      <trkpt lat="47.01537" lon="-1.72436">
        <ele>72</ele>
        <time>2021-05-01T11:07:03.000Z</time>
      </trkpt>
      <trkpt lat="47.01544" lon="-1.72422">
        <ele>72</ele>
        <time>2021-05-01T11:07:05.000Z</time>
      </trkpt>
      <trkpt lat="47.0155" lon="-1.72407">
        <ele>72</ele>
        <time>2021-05-01T11:07:07.000Z</time>
      </trkpt>
      <trkpt lat="47.01557" lon="-1.72393">
        <ele>72</ele>
        <time>2021-05-01T11:07:09.000Z</time>
      </trkpt>
      <trkpt lat="47.01563" lon="-1.72378">
        <ele>73</ele>
        <time>2021-05-01T11:07:11.000Z</time>
      </trkpt>
      <trkpt lat="47.01569" lon="-1.72364">
        <ele>73</ele>
        <time>2021-05-01T11:07:13.000Z</time>
      </trkpt>
      <trkpt lat="47.01576" lon="-1.72348">
        <ele>74</ele>
        <time>2021-05-01T11:07:15.000Z</time>
      </trkpt>
      <trkpt lat="47.01583" lon="-1.72332">
        <ele>74</ele>
        <time>2021-05-01T11:07:17.000Z</time>
      </trkpt>
      <trkpt lat="47.0159" lon="-1.72317">
        <ele>73</ele>
        <time>2021-05-01T11:07:19.000Z</time>
      </trkpt>
      <trkpt lat="47.01596" lon="-1.72303">
        <ele>73</ele>
        <time>2021-05-01T11:07:21.000Z</time>
      </trkpt>
      <trkpt lat="47.01602" lon="-1.72288">
        <ele>73</ele>
        <time>2021-05-01T11:07:23.000Z</time>
      </trkpt>
      <trkpt lat="47.01609" lon="-1.72272">
        <ele>73</ele>
        <time>2021-05-01T11:07:25.000Z</time>
      </trkpt>
      <trkpt lat="47.01616" lon="-1.72256">
        <ele>74</ele>
        <time>2021-05-01T11:07:27.000Z</time>
      </trkpt>
      <trkpt lat="47.01621" lon="-1.7224">
        <ele>74</ele>
        <time>2021-05-01T11:07:29.000Z</time>
      </trkpt>
      <trkpt lat="47.01626" lon="-1.72224">
        <ele>74</ele>
        <time>2021-05-01T11:07:31.000Z</time>
      </trkpt>
      <trkpt lat="47.01631" lon="-1.72209">
        <ele>75</ele>
        <time>2021-05-01T11:07:33.000Z</time>
      </trkpt>
      <trkpt lat="47.01636" lon="-1.72193">
        <ele>75</ele>
        <time>2021-05-01T11:07:35.000Z</time>
      </trkpt>
      <trkpt lat="47.01641" lon="-1.72177">
        <ele>75</ele>
        <time>2021-05-01T11:07:37.000Z</time>
      </trkpt>
      <trkpt lat="47.01646" lon="-1.72161">
        <ele>75</ele>
        <time>2021-05-01T11:07:39.000Z</time>
      </trkpt>
      <trkpt lat="47.01652" lon="-1.72145">
        <ele>74</ele>
        <time>2021-05-01T11:07:41.000Z</time>
      </trkpt>
      <trkpt lat="47.01658" lon="-1.72128">
        <ele>75</ele>
        <time>2021-05-01T11:07:43.000Z</time>
      </trkpt>
      <trkpt lat="47.01665" lon="-1.72111">
        <ele>75</ele>
        <time>2021-05-01T11:07:45.000Z</time>
      </trkpt>
      <trkpt lat="47.0167" lon="-1.72095">
        <ele>75</ele>
        <time>2021-05-01T11:07:47.000Z</time>
      </trkpt>
      <trkpt lat="47.01676" lon="-1.72079">
        <ele>75</ele>
        <time>2021-05-01T11:07:49.000Z</time>
      </trkpt>
      <trkpt lat="47.01682" lon="-1.72063">
        <ele>74</ele>
        <time>2021-05-01T11:07:51.000Z</time>
      </trkpt>
      <trkpt lat="47.01688" lon="-1.72048">
        <ele>75</ele>
        <time>2021-05-01T11:07:53.000Z</time>
      </trkpt>
      <trkpt lat="47.01692" lon="-1.72032">
        <ele>75</ele>
        <time>2021-05-01T11:07:55.000Z</time>
      </trkpt>
      <trkpt lat="47.01697" lon="-1.72017">
        <ele>75</ele>
        <time>2021-05-01T11:07:57.000Z</time>
      </trkpt>
      <trkpt lat="47.01701" lon="-1.72002">
        <ele>76</ele>
        <time>2021-05-01T11:07:59.000Z</time>
      </trkpt>
      <trkpt lat="47.01706" lon="-1.71987">
        <ele>76</ele>
        <time>2021-05-01T11:08:01.000Z</time>
      </trkpt>
      <trkpt lat="47.01711" lon="-1.71972">
        <ele>76</ele>
        <time>2021-05-01T11:08:03.000Z</time>
      </trkpt>
      <trkpt lat="47.01716" lon="-1.71957">
        <ele>76</ele>
        <time>2021-05-01T11:08:05.000Z</time>
      </trkpt>
      <trkpt lat="47.01721" lon="-1.71941">
        <ele>75</ele>
        <time>2021-05-01T11:08:07.000Z</time>
      </trkpt>
      <trkpt lat="47.01726" lon="-1.71925">
        <ele>76</ele>
        <time>2021-05-01T11:08:09.000Z</time>
      </trkpt>
      <trkpt lat="47.01732" lon="-1.71907">
        <ele>77</ele>
        <time>2021-05-01T11:08:11.000Z</time>
      </trkpt>
      <trkpt lat="47.01738" lon="-1.71891">
        <ele>77</ele>
        <time>2021-05-01T11:08:13.000Z</time>
      </trkpt>
      <trkpt lat="47.01743" lon="-1.71876">
        <ele>78</ele>
        <time>2021-05-01T11:08:15.000Z</time>
      </trkpt>
      <trkpt lat="47.01749" lon="-1.7186">
        <ele>78</ele>
        <time>2021-05-01T11:08:17.000Z</time>
      </trkpt>
      <trkpt lat="47.01754" lon="-1.71844">
        <ele>79</ele>
        <time>2021-05-01T11:08:19.000Z</time>
      </trkpt>
      <trkpt lat="47.01759" lon="-1.71828">
        <ele>79</ele>
        <time>2021-05-01T11:08:21.000Z</time>
      </trkpt>
      <trkpt lat="47.01765" lon="-1.71813">
        <ele>79</ele>
        <time>2021-05-01T11:08:23.000Z</time>
      </trkpt>
      <trkpt lat="47.0177" lon="-1.71797">
        <ele>79</ele>
        <time>2021-05-01T11:08:25.000Z</time>
      </trkpt>
      <trkpt lat="47.01776" lon="-1.71781">
        <ele>79</ele>
        <time>2021-05-01T11:08:27.000Z</time>
      </trkpt>
      <trkpt lat="47.01781" lon="-1.71765">
        <ele>79</ele>
        <time>2021-05-01T11:08:29.000Z</time>
      </trkpt>
      <trkpt lat="47.01785" lon="-1.71751">
        <ele>80</ele>
        <time>2021-05-01T11:08:31.000Z</time>
      </trkpt>
      <trkpt lat="47.01789" lon="-1.71737">
        <ele>80</ele>
        <time>2021-05-01T11:08:33.000Z</time>
      </trkpt>
      <trkpt lat="47.01794" lon="-1.71721">
        <ele>80</ele>
        <time>2021-05-01T11:08:35.000Z</time>
      </trkpt>
      <trkpt lat="47.01799" lon="-1.71706">
        <ele>80</ele>
        <time>2021-05-01T11:08:37.000Z</time>
      </trkpt>
      <trkpt lat="47.01804" lon="-1.7169">
        <ele>80</ele>
        <time>2021-05-01T11:08:39.000Z</time>
      </trkpt>
      <trkpt lat="47.01808" lon="-1.71675">
        <ele>81</ele>
        <time>2021-05-01T11:08:41.000Z</time>
      </trkpt>
      <trkpt lat="47.01814" lon="-1.71657">
        <ele>81</ele>
        <time>2021-05-01T11:08:43.000Z</time>
      </trkpt>
      <trkpt lat="47.01822" lon="-1.7164">
        <ele>81</ele>
        <time>2021-05-01T11:08:45.000Z</time>
      </trkpt>
      <trkpt lat="47.0183" lon="-1.71623">
        <ele>80</ele>
        <time>2021-05-01T11:08:47.000Z</time>
      </trkpt>
      <trkpt lat="47.01838" lon="-1.71607">
        <ele>80</ele>
        <time>2021-05-01T11:08:49.000Z</time>
      </trkpt>
      <trkpt lat="47.01845" lon="-1.71593">
        <ele>79</ele>
        <time>2021-05-01T11:08:51.000Z</time>
      </trkpt>
      <trkpt lat="47.01853" lon="-1.71578">
        <ele>79</ele>
        <time>2021-05-01T11:08:53.000Z</time>
      </trkpt>
      <trkpt lat="47.01862" lon="-1.71565">
        <ele>78</ele>
        <time>2021-05-01T11:08:55.000Z</time>
      </trkpt>
      <trkpt lat="47.01871" lon="-1.71551">
        <ele>79</ele>
        <time>2021-05-01T11:08:57.000Z</time>
      </trkpt>
      <trkpt lat="47.01879" lon="-1.71537">
        <ele>78</ele>
        <time>2021-05-01T11:08:59.000Z</time>
      </trkpt>
      <trkpt lat="47.01888" lon="-1.71523">
        <ele>77</ele>
        <time>2021-05-01T11:09:01.000Z</time>
      </trkpt>
      <trkpt lat="47.01897" lon="-1.7151">
        <ele>77</ele>
        <time>2021-05-01T11:09:03.000Z</time>
      </trkpt>
      <trkpt lat="47.01906" lon="-1.71496">
        <ele>76</ele>
        <time>2021-05-01T11:09:05.000Z</time>
      </trkpt>
      <trkpt lat="47.01915" lon="-1.71482">
        <ele>76</ele>
        <time>2021-05-01T11:09:07.000Z</time>
      </trkpt>
      <trkpt lat="47.01924" lon="-1.71468">
        <ele>76</ele>
        <time>2021-05-01T11:09:09.000Z</time>
      </trkpt>
      <trkpt lat="47.01933" lon="-1.71454">
        <ele>75</ele>
        <time>2021-05-01T11:09:11.000Z</time>
      </trkpt>
      <trkpt lat="47.01942" lon="-1.71441">
        <ele>75</ele>
        <time>2021-05-01T11:09:13.000Z</time>
      </trkpt>
      <trkpt lat="47.01951" lon="-1.71427">
        <ele>75</ele>
        <time>2021-05-01T11:09:15.000Z</time>
      </trkpt>
      <trkpt lat="47.0196" lon="-1.71413">
        <ele>75</ele>
        <time>2021-05-01T11:09:17.000Z</time>
      </trkpt>
      <trkpt lat="47.01969" lon="-1.714">
        <ele>75</ele>
        <time>2021-05-01T11:09:19.000Z</time>
      </trkpt>
      <trkpt lat="47.01978" lon="-1.71386">
        <ele>75</ele>
        <time>2021-05-01T11:09:21.000Z</time>
      </trkpt>
      <trkpt lat="47.01987" lon="-1.71374">
        <ele>75</ele>
        <time>2021-05-01T11:09:23.000Z</time>
      </trkpt>
      <trkpt lat="47.01996" lon="-1.71363">
        <ele>74</ele>
        <time>2021-05-01T11:09:25.000Z</time>
      </trkpt>
      <trkpt lat="47.02006" lon="-1.71352">
        <ele>74</ele>
        <time>2021-05-01T11:09:27.000Z</time>
      </trkpt>
      <trkpt lat="47.02016" lon="-1.71341">
        <ele>74</ele>
        <time>2021-05-01T11:09:29.000Z</time>
      </trkpt>
      <trkpt lat="47.02026" lon="-1.7133">
        <ele>74</ele>
        <time>2021-05-01T11:09:31.000Z</time>
      </trkpt>
      <trkpt lat="47.02036" lon="-1.71319">
        <ele>74</ele>
        <time>2021-05-01T11:09:33.000Z</time>
      </trkpt>
      <trkpt lat="47.02046" lon="-1.71305">
        <ele>75</ele>
        <time>2021-05-01T11:09:35.000Z</time>
      </trkpt>
      <trkpt lat="47.02053" lon="-1.71292">
        <ele>75</ele>
        <time>2021-05-01T11:09:37.000Z</time>
      </trkpt>
      <trkpt lat="47.0206" lon="-1.71276">
        <ele>75</ele>
        <time>2021-05-01T11:09:39.000Z</time>
      </trkpt>
      <trkpt lat="47.02068" lon="-1.71259">
        <ele>74</ele>
        <time>2021-05-01T11:09:41.000Z</time>
      </trkpt>
      <trkpt lat="47.02075" lon="-1.71244">
        <ele>74</ele>
        <time>2021-05-01T11:09:43.000Z</time>
      </trkpt>
      <trkpt lat="47.02083" lon="-1.71229">
        <ele>75</ele>
        <time>2021-05-01T11:09:45.000Z</time>
      </trkpt>
      <trkpt lat="47.0209" lon="-1.71213">
        <ele>74</ele>
        <time>2021-05-01T11:09:47.000Z</time>
      </trkpt>
      <trkpt lat="47.02098" lon="-1.71196">
        <ele>74</ele>
        <time>2021-05-01T11:09:49.000Z</time>
      </trkpt>
      <trkpt lat="47.02105" lon="-1.7118">
        <ele>74</ele>
        <time>2021-05-01T11:09:51.000Z</time>
      </trkpt>
      <trkpt lat="47.0211" lon="-1.71163">
        <ele>74</ele>
        <time>2021-05-01T11:09:53.000Z</time>
      </trkpt>
      <trkpt lat="47.02116" lon="-1.71146">
        <ele>74</ele>
        <time>2021-05-01T11:09:55.000Z</time>
      </trkpt>
      <trkpt lat="47.02121" lon="-1.71129">
        <ele>75</ele>
        <time>2021-05-01T11:09:57.000Z</time>
      </trkpt>
      <trkpt lat="47.02126" lon="-1.71113">
        <ele>75</ele>
        <time>2021-05-01T11:09:59.000Z</time>
      </trkpt>
      <trkpt lat="47.02133" lon="-1.71097">
        <ele>75</ele>
        <time>2021-05-01T11:10:01.000Z</time>
      </trkpt>
      <trkpt lat="47.0214" lon="-1.71082">
        <ele>75</ele>
        <time>2021-05-01T11:10:03.000Z</time>
      </trkpt>
      <trkpt lat="47.02148" lon="-1.71066">
        <ele>75</ele>
        <time>2021-05-01T11:10:05.000Z</time>
      </trkpt>
      <trkpt lat="47.02156" lon="-1.7105">
        <ele>75</ele>
        <time>2021-05-01T11:10:07.000Z</time>
      </trkpt>
      <trkpt lat="47.02163" lon="-1.71036">
        <ele>74</ele>
        <time>2021-05-01T11:10:09.000Z</time>
      </trkpt>
      <trkpt lat="47.02171" lon="-1.71021">
        <ele>74</ele>
        <time>2021-05-01T11:10:11.000Z</time>
      </trkpt>
      <trkpt lat="47.02178" lon="-1.71006">
        <ele>73</ele>
        <time>2021-05-01T11:10:13.000Z</time>
      </trkpt>
      <trkpt lat="47.02186" lon="-1.70991">
        <ele>73</ele>
        <time>2021-05-01T11:10:15.000Z</time>
      </trkpt>
      <trkpt lat="47.02194" lon="-1.70977">
        <ele>73</ele>
        <time>2021-05-01T11:10:17.000Z</time>
      </trkpt>
      <trkpt lat="47.02202" lon="-1.70964">
        <ele>73</ele>
        <time>2021-05-01T11:10:19.000Z</time>
      </trkpt>
      <trkpt lat="47.02209" lon="-1.70949">
        <ele>74</ele>
        <time>2021-05-01T11:10:21.000Z</time>
      </trkpt>
      <trkpt lat="47.02216" lon="-1.70936">
        <ele>74</ele>
        <time>2021-05-01T11:10:23.000Z</time>
      </trkpt>
      <trkpt lat="47.02224" lon="-1.70922">
        <ele>73</ele>
        <time>2021-05-01T11:10:25.000Z</time>
      </trkpt>
      <trkpt lat="47.02234" lon="-1.70908">
        <ele>73</ele>
        <time>2021-05-01T11:10:27.000Z</time>
      </trkpt>
      <trkpt lat="47.02242" lon="-1.70894">
        <ele>73</ele>
        <time>2021-05-01T11:10:29.000Z</time>
      </trkpt>
      <trkpt lat="47.02251" lon="-1.70881">
        <ele>74</ele>
        <time>2021-05-01T11:10:31.000Z</time>
      </trkpt>
      <trkpt lat="47.02259" lon="-1.70867">
        <ele>74</ele>
        <time>2021-05-01T11:10:33.000Z</time>
      </trkpt>
      <trkpt lat="47.02268" lon="-1.70853">
        <ele>74</ele>
        <time>2021-05-01T11:10:35.000Z</time>
      </trkpt>
      <trkpt lat="47.02278" lon="-1.70839">
        <ele>74</ele>
        <time>2021-05-01T11:10:37.000Z</time>
      </trkpt>
      <trkpt lat="47.02288" lon="-1.70823">
        <ele>74</ele>
        <time>2021-05-01T11:10:39.000Z</time>
      </trkpt>
      <trkpt lat="47.02298" lon="-1.70809">
        <ele>73</ele>
        <time>2021-05-01T11:10:41.000Z</time>
      </trkpt>
      <trkpt lat="47.02307" lon="-1.70795">
        <ele>73</ele>
        <time>2021-05-01T11:10:43.000Z</time>
      </trkpt>
      <trkpt lat="47.02316" lon="-1.70782">
        <ele>72</ele>
        <time>2021-05-01T11:10:45.000Z</time>
      </trkpt>
      <trkpt lat="47.02325" lon="-1.70768">
        <ele>72</ele>
        <time>2021-05-01T11:10:47.000Z</time>
      </trkpt>
      <trkpt lat="47.02334" lon="-1.70755">
        <ele>72</ele>
        <time>2021-05-01T11:10:49.000Z</time>
      </trkpt>
      <trkpt lat="47.02343" lon="-1.70742">
        <ele>72</ele>
        <time>2021-05-01T11:10:51.000Z</time>
      </trkpt>
      <trkpt lat="47.02351" lon="-1.70728">
        <ele>71</ele>
        <time>2021-05-01T11:10:53.000Z</time>
      </trkpt>
      <trkpt lat="47.0236" lon="-1.70715">
        <ele>71</ele>
        <time>2021-05-01T11:10:55.000Z</time>
      </trkpt>
      <trkpt lat="47.02369" lon="-1.70702">
        <ele>71</ele>
        <time>2021-05-01T11:10:57.000Z</time>
      </trkpt>
      <trkpt lat="47.02378" lon="-1.70689">
        <ele>71</ele>
        <time>2021-05-01T11:10:59.000Z</time>
      </trkpt>
      <trkpt lat="47.02387" lon="-1.70676">
        <ele>71</ele>
        <time>2021-05-01T11:11:01.000Z</time>
      </trkpt>
      <trkpt lat="47.02396" lon="-1.70662">
        <ele>71</ele>
        <time>2021-05-01T11:11:03.000Z</time>
      </trkpt>
      <trkpt lat="47.02405" lon="-1.70648">
        <ele>71</ele>
        <time>2021-05-01T11:11:05.000Z</time>
      </trkpt>
      <trkpt lat="47.02414" lon="-1.70634">
        <ele>72</ele>
        <time>2021-05-01T11:11:07.000Z</time>
      </trkpt>
      <trkpt lat="47.02422" lon="-1.70621">
        <ele>72</ele>
        <time>2021-05-01T11:11:09.000Z</time>
      </trkpt>
      <trkpt lat="47.02429" lon="-1.70607">
        <ele>73</ele>
        <time>2021-05-01T11:11:11.000Z</time>
      </trkpt>
      <trkpt lat="47.02437" lon="-1.70594">
        <ele>73</ele>
        <time>2021-05-01T11:11:13.000Z</time>
      </trkpt>
      <trkpt lat="47.02446" lon="-1.70582">
        <ele>73</ele>
        <time>2021-05-01T11:11:15.000Z</time>
      </trkpt>
      <trkpt lat="47.02455" lon="-1.70569">
        <ele>73</ele>
        <time>2021-05-01T11:11:17.000Z</time>
      </trkpt>
      <trkpt lat="47.02465" lon="-1.70556">
        <ele>73</ele>
        <time>2021-05-01T11:11:19.000Z</time>
      </trkpt>
      <trkpt lat="47.02476" lon="-1.70545">
        <ele>73</ele>
        <time>2021-05-01T11:11:21.000Z</time>
      </trkpt>
      <trkpt lat="47.02487" lon="-1.70534">
        <ele>72</ele>
        <time>2021-05-01T11:11:23.000Z</time>
      </trkpt>
      <trkpt lat="47.02498" lon="-1.70524">
        <ele>73</ele>
        <time>2021-05-01T11:11:25.000Z</time>
      </trkpt>
      <trkpt lat="47.02509" lon="-1.70515">
        <ele>72</ele>
        <time>2021-05-01T11:11:27.000Z</time>
      </trkpt>
      <trkpt lat="47.0252" lon="-1.70505">
        <ele>72</ele>
        <time>2021-05-01T11:11:29.000Z</time>
      </trkpt>
      <trkpt lat="47.02532" lon="-1.70494">
        <ele>72</ele>
        <time>2021-05-01T11:11:31.000Z</time>
      </trkpt>
      <trkpt lat="47.02542" lon="-1.70485">
        <ele>72</ele>
        <time>2021-05-01T11:11:33.000Z</time>
      </trkpt>
      <trkpt lat="47.02553" lon="-1.70474">
        <ele>72</ele>
        <time>2021-05-01T11:11:35.000Z</time>
      </trkpt>
      <trkpt lat="47.02564" lon="-1.70465">
        <ele>73</ele>
        <time>2021-05-01T11:11:37.000Z</time>
      </trkpt>
      <trkpt lat="47.02574" lon="-1.70455">
        <ele>73</ele>
        <time>2021-05-01T11:11:39.000Z</time>
      </trkpt>
      <trkpt lat="47.02584" lon="-1.70445">
        <ele>73</ele>
        <time>2021-05-01T11:11:41.000Z</time>
      </trkpt>
      <trkpt lat="47.02595" lon="-1.70437">
        <ele>73</ele>
        <time>2021-05-01T11:11:43.000Z</time>
      </trkpt>
      <trkpt lat="47.02605" lon="-1.70427">
        <ele>73</ele>
        <time>2021-05-01T11:11:45.000Z</time>
      </trkpt>
      <trkpt lat="47.02615" lon="-1.70417">
        <ele>73</ele>
        <time>2021-05-01T11:11:47.000Z</time>
      </trkpt>
      <trkpt lat="47.02625" lon="-1.70407">
        <ele>73</ele>
        <time>2021-05-01T11:11:49.000Z</time>
      </trkpt>
      <trkpt lat="47.02635" lon="-1.70396">
        <ele>73</ele>
        <time>2021-05-01T11:11:51.000Z</time>
      </trkpt>
      <trkpt lat="47.02644" lon="-1.70385">
        <ele>73</ele>
        <time>2021-05-01T11:11:53.000Z</time>
      </trkpt>
      <trkpt lat="47.02652" lon="-1.70374">
        <ele>74</ele>
        <time>2021-05-01T11:11:55.000Z</time>
      </trkpt>
      <trkpt lat="47.0266" lon="-1.70362">
        <ele>74</ele>
        <time>2021-05-01T11:11:57.000Z</time>
      </trkpt>
      <trkpt lat="47.02668" lon="-1.7035">
        <ele>74</ele>
        <time>2021-05-01T11:11:59.000Z</time>
      </trkpt>
      <trkpt lat="47.02667" lon="-1.70336">
        <ele>73</ele>
        <time>2021-05-01T11:12:01.000Z</time>
      </trkpt>
      <trkpt lat="47.02657" lon="-1.70326">
        <ele>73</ele>
        <time>2021-05-01T11:12:03.000Z</time>
      </trkpt>
      <trkpt lat="47.02645" lon="-1.70319">
        <ele>73</ele>
        <time>2021-05-01T11:12:05.000Z</time>
      </trkpt>
      <trkpt lat="47.02634" lon="-1.70312">
        <ele>73</ele>
        <time>2021-05-01T11:12:07.000Z</time>
      </trkpt>
      <trkpt lat="47.02622" lon="-1.70305">
        <ele>74</ele>
        <time>2021-05-01T11:12:09.000Z</time>
      </trkpt>
      <trkpt lat="47.0261" lon="-1.70298">
        <ele>74</ele>
        <time>2021-05-01T11:12:11.000Z</time>
      </trkpt>
      <trkpt lat="47.02597" lon="-1.70292">
        <ele>74</ele>
        <time>2021-05-01T11:12:13.000Z</time>
      </trkpt>
      <trkpt lat="47.02584" lon="-1.70287">
        <ele>74</ele>
        <time>2021-05-01T11:12:15.000Z</time>
      </trkpt>
      <trkpt lat="47.02572" lon="-1.70282">
        <ele>74</ele>
        <time>2021-05-01T11:12:17.000Z</time>
      </trkpt>
      <trkpt lat="47.02559" lon="-1.7028">
        <ele>74</ele>
        <time>2021-05-01T11:12:19.000Z</time>
      </trkpt>
      <trkpt lat="47.02546" lon="-1.70278">
        <ele>74</ele>
        <time>2021-05-01T11:12:21.000Z</time>
      </trkpt>
      <trkpt lat="47.02533" lon="-1.70274">
        <ele>74</ele>
        <time>2021-05-01T11:12:23.000Z</time>
      </trkpt>
      <trkpt lat="47.0252" lon="-1.70266">
        <ele>73</ele>
        <time>2021-05-01T11:12:25.000Z</time>
      </trkpt>
      <trkpt lat="47.02509" lon="-1.70253">
        <ele>73</ele>
        <time>2021-05-01T11:12:27.000Z</time>
      </trkpt>
      <trkpt lat="47.025" lon="-1.70238">
        <ele>73</ele>
        <time>2021-05-01T11:12:29.000Z</time>
      </trkpt>
      <trkpt lat="47.02491" lon="-1.70222">
        <ele>73</ele>
        <time>2021-05-01T11:12:31.000Z</time>
      </trkpt>
      <trkpt lat="47.02482" lon="-1.70206">
        <ele>73</ele>
        <time>2021-05-01T11:12:33.000Z</time>
      </trkpt>
      <trkpt lat="47.02475" lon="-1.70189">
        <ele>73</ele>
        <time>2021-05-01T11:12:35.000Z</time>
      </trkpt>
      <trkpt lat="47.02467" lon="-1.70173">
        <ele>73</ele>
        <time>2021-05-01T11:12:37.000Z</time>
      </trkpt>
      <trkpt lat="47.0246" lon="-1.70157">
        <ele>73</ele>
        <time>2021-05-01T11:12:39.000Z</time>
      </trkpt>
      <trkpt lat="47.02453" lon="-1.70142">
        <ele>72</ele>
        <time>2021-05-01T11:12:41.000Z</time>
      </trkpt>
      <trkpt lat="47.02446" lon="-1.70126">
        <ele>73</ele>
        <time>2021-05-01T11:12:43.000Z</time>
      </trkpt>
      <trkpt lat="47.02441" lon="-1.70109">
        <ele>72</ele>
        <time>2021-05-01T11:12:45.000Z</time>
      </trkpt>
      <trkpt lat="47.02437" lon="-1.70091">
        <ele>73</ele>
        <time>2021-05-01T11:12:47.000Z</time>
      </trkpt>
      <trkpt lat="47.02435" lon="-1.70072">
        <ele>72</ele>
        <time>2021-05-01T11:12:49.000Z</time>
      </trkpt>
      <trkpt lat="47.02434" lon="-1.70053">
        <ele>72</ele>
        <time>2021-05-01T11:12:51.000Z</time>
      </trkpt>
      <trkpt lat="47.02432" lon="-1.70034">
        <ele>73</ele>
        <time>2021-05-01T11:12:53.000Z</time>
      </trkpt>
      <trkpt lat="47.0243" lon="-1.70016">
        <ele>73</ele>
        <time>2021-05-01T11:12:55.000Z</time>
      </trkpt>
      <trkpt lat="47.02428" lon="-1.69998">
        <ele>73</ele>
        <time>2021-05-01T11:12:57.000Z</time>
      </trkpt>
      <trkpt lat="47.02425" lon="-1.69979">
        <ele>74</ele>
        <time>2021-05-01T11:12:59.000Z</time>
      </trkpt>
      <trkpt lat="47.02423" lon="-1.69961">
        <ele>74</ele>
        <time>2021-05-01T11:13:01.000Z</time>
      </trkpt>
      <trkpt lat="47.02422" lon="-1.69943">
        <ele>74</ele>
        <time>2021-05-01T11:13:03.000Z</time>
      </trkpt>
      <trkpt lat="47.0242" lon="-1.69924">
        <ele>75</ele>
        <time>2021-05-01T11:13:05.000Z</time>
      </trkpt>
      <trkpt lat="47.02418" lon="-1.69905">
        <ele>75</ele>
        <time>2021-05-01T11:13:07.000Z</time>
      </trkpt>
      <trkpt lat="47.02415" lon="-1.69887">
        <ele>75</ele>
        <time>2021-05-01T11:13:09.000Z</time>
      </trkpt>
      <trkpt lat="47.02412" lon="-1.69869">
        <ele>76</ele>
        <time>2021-05-01T11:13:11.000Z</time>
      </trkpt>
      <trkpt lat="47.02407" lon="-1.69852">
        <ele>76</ele>
        <time>2021-05-01T11:13:13.000Z</time>
      </trkpt>
      <trkpt lat="47.02401" lon="-1.69835">
        <ele>76</ele>
        <time>2021-05-01T11:13:15.000Z</time>
      </trkpt>
      <trkpt lat="47.02394" lon="-1.69819">
        <ele>75</ele>
        <time>2021-05-01T11:13:17.000Z</time>
      </trkpt>
      <trkpt lat="47.02386" lon="-1.69805">
        <ele>75</ele>
        <time>2021-05-01T11:13:19.000Z</time>
      </trkpt>
      <trkpt lat="47.02379" lon="-1.69792">
        <ele>75</ele>
        <time>2021-05-01T11:13:21.000Z</time>
      </trkpt>
      <trkpt lat="47.0237" lon="-1.69778">
        <ele>75</ele>
        <time>2021-05-01T11:13:23.000Z</time>
      </trkpt>
      <trkpt lat="47.02363" lon="-1.69765">
        <ele>75</ele>
        <time>2021-05-01T11:13:25.000Z</time>
      </trkpt>
      <trkpt lat="47.02355" lon="-1.69751">
        <ele>76</ele>
        <time>2021-05-01T11:13:27.000Z</time>
      </trkpt>
      <trkpt lat="47.02348" lon="-1.69737">
        <ele>76</ele>
        <time>2021-05-01T11:13:29.000Z</time>
      </trkpt>
      <trkpt lat="47.0234" lon="-1.69725">
        <ele>76</ele>
        <time>2021-05-01T11:13:31.000Z</time>
      </trkpt>
      <trkpt lat="47.02332" lon="-1.69711">
        <ele>76</ele>
        <time>2021-05-01T11:13:33.000Z</time>
      </trkpt>
      <trkpt lat="47.02325" lon="-1.69698">
        <ele>77</ele>
        <time>2021-05-01T11:13:35.000Z</time>
      </trkpt>
      <trkpt lat="47.02317" lon="-1.69684">
        <ele>78</ele>
        <time>2021-05-01T11:13:37.000Z</time>
      </trkpt>
      <trkpt lat="47.02309" lon="-1.69671">
        <ele>78</ele>
        <time>2021-05-01T11:13:39.000Z</time>
      </trkpt>
      <trkpt lat="47.02302" lon="-1.69657">
        <ele>78</ele>
        <time>2021-05-01T11:13:41.000Z</time>
      </trkpt>
      <trkpt lat="47.02294" lon="-1.69643">
        <ele>78</ele>
        <time>2021-05-01T11:13:43.000Z</time>
      </trkpt>
      <trkpt lat="47.02286" lon="-1.69631">
        <ele>77</ele>
        <time>2021-05-01T11:13:45.000Z</time>
      </trkpt>
      <trkpt lat="47.02279" lon="-1.69617">
        <ele>77</ele>
        <time>2021-05-01T11:13:47.000Z</time>
      </trkpt>
      <trkpt lat="47.02271" lon="-1.69603">
        <ele>77</ele>
        <time>2021-05-01T11:13:49.000Z</time>
      </trkpt>
      <trkpt lat="47.02265" lon="-1.69588">
        <ele>77</ele>
        <time>2021-05-01T11:13:51.000Z</time>
      </trkpt>
      <trkpt lat="47.02258" lon="-1.69573">
        <ele>77</ele>
        <time>2021-05-01T11:13:53.000Z</time>
      </trkpt>
      <trkpt lat="47.02253" lon="-1.69558">
        <ele>77</ele>
        <time>2021-05-01T11:13:55.000Z</time>
      </trkpt>
      <trkpt lat="47.02248" lon="-1.69542">
        <ele>78</ele>
        <time>2021-05-01T11:13:57.000Z</time>
      </trkpt>
      <trkpt lat="47.02243" lon="-1.69525">
        <ele>78</ele>
        <time>2021-05-01T11:13:59.000Z</time>
      </trkpt>
      <trkpt lat="47.02238" lon="-1.69508">
        <ele>79</ele>
        <time>2021-05-01T11:14:01.000Z</time>
      </trkpt>
      <trkpt lat="47.02234" lon="-1.69492">
        <ele>79</ele>
        <time>2021-05-01T11:14:03.000Z</time>
      </trkpt>
      <trkpt lat="47.0223" lon="-1.69474">
        <ele>80</ele>
        <time>2021-05-01T11:14:05.000Z</time>
      </trkpt>
      <trkpt lat="47.02227" lon="-1.69456">
        <ele>80</ele>
        <time>2021-05-01T11:14:07.000Z</time>
      </trkpt>
      <trkpt lat="47.02224" lon="-1.6944">
        <ele>80</ele>
        <time>2021-05-01T11:14:09.000Z</time>
      </trkpt>
      <trkpt lat="47.02221" lon="-1.69423">
        <ele>79</ele>
        <time>2021-05-01T11:14:11.000Z</time>
      </trkpt>
      <trkpt lat="47.02218" lon="-1.69405">
        <ele>79</ele>
        <time>2021-05-01T11:14:13.000Z</time>
      </trkpt>
      <trkpt lat="47.02216" lon="-1.69387">
        <ele>78</ele>
        <time>2021-05-01T11:14:15.000Z</time>
      </trkpt>
      <trkpt lat="47.02215" lon="-1.69369">
        <ele>78</ele>
        <time>2021-05-01T11:14:17.000Z</time>
      </trkpt>
      <trkpt lat="47.02215" lon="-1.69351">
        <ele>78</ele>
        <time>2021-05-01T11:14:19.000Z</time>
      </trkpt>
      <trkpt lat="47.02216" lon="-1.69334">
        <ele>78</ele>
        <time>2021-05-01T11:14:21.000Z</time>
      </trkpt>
      <trkpt lat="47.02219" lon="-1.69316">
        <ele>78</ele>
        <time>2021-05-01T11:14:23.000Z</time>
      </trkpt>
      <trkpt lat="47.02222" lon="-1.69298">
        <ele>78</ele>
        <time>2021-05-01T11:14:25.000Z</time>
      </trkpt>
      <trkpt lat="47.02225" lon="-1.69281">
        <ele>78</ele>
        <time>2021-05-01T11:14:27.000Z</time>
      </trkpt>
      <trkpt lat="47.02227" lon="-1.69264">
        <ele>78</ele>
        <time>2021-05-01T11:14:29.000Z</time>
      </trkpt>
      <trkpt lat="47.02229" lon="-1.69246">
        <ele>78</ele>
        <time>2021-05-01T11:14:31.000Z</time>
      </trkpt>
      <trkpt lat="47.02227" lon="-1.69228">
        <ele>77</ele>
        <time>2021-05-01T11:14:33.000Z</time>
      </trkpt>
      <trkpt lat="47.02226" lon="-1.6921">
        <ele>78</ele>
        <time>2021-05-01T11:14:35.000Z</time>
      </trkpt>
      <trkpt lat="47.02222" lon="-1.69193">
        <ele>78</ele>
        <time>2021-05-01T11:14:37.000Z</time>
      </trkpt>
      <trkpt lat="47.02219" lon="-1.69176">
        <ele>78</ele>
        <time>2021-05-01T11:14:39.000Z</time>
      </trkpt>
      <trkpt lat="47.02215" lon="-1.6916">
        <ele>78</ele>
        <time>2021-05-01T11:14:41.000Z</time>
      </trkpt>
      <trkpt lat="47.02211" lon="-1.69143">
        <ele>78</ele>
        <time>2021-05-01T11:14:43.000Z</time>
      </trkpt>
      <trkpt lat="47.02208" lon="-1.69126">
        <ele>79</ele>
        <time>2021-05-01T11:14:45.000Z</time>
      </trkpt>
      <trkpt lat="47.02203" lon="-1.6911">
        <ele>79</ele>
        <time>2021-05-01T11:14:47.000Z</time>
      </trkpt>
      <trkpt lat="47.02198" lon="-1.69095">
        <ele>79</ele>
        <time>2021-05-01T11:14:49.000Z</time>
      </trkpt>
      <trkpt lat="47.02193" lon="-1.69078">
        <ele>79</ele>
        <time>2021-05-01T11:14:51.000Z</time>
      </trkpt>
      <trkpt lat="47.02189" lon="-1.69061">
        <ele>79</ele>
        <time>2021-05-01T11:14:53.000Z</time>
      </trkpt>
      <trkpt lat="47.02188" lon="-1.69044">
        <ele>79</ele>
        <time>2021-05-01T11:14:55.000Z</time>
      </trkpt>
      <trkpt lat="47.02187" lon="-1.69027">
        <ele>79</ele>
        <time>2021-05-01T11:14:57.000Z</time>
      </trkpt>
      <trkpt lat="47.02188" lon="-1.69009">
        <ele>79</ele>
        <time>2021-05-01T11:14:59.000Z</time>
      </trkpt>
      <trkpt lat="47.02188" lon="-1.68992">
        <ele>80</ele>
        <time>2021-05-01T11:15:01.000Z</time>
      </trkpt>
      <trkpt lat="47.02188" lon="-1.68974">
        <ele>80</ele>
        <time>2021-05-01T11:15:03.000Z</time>
      </trkpt>
      <trkpt lat="47.02189" lon="-1.68956">
        <ele>80</ele>
        <time>2021-05-01T11:15:05.000Z</time>
      </trkpt>
      <trkpt lat="47.0219" lon="-1.6894">
        <ele>80</ele>
        <time>2021-05-01T11:15:07.000Z</time>
      </trkpt>
      <trkpt lat="47.0219" lon="-1.68923">
        <ele>80</ele>
        <time>2021-05-01T11:15:09.000Z</time>
      </trkpt>
      <trkpt lat="47.02191" lon="-1.68906">
        <ele>80</ele>
        <time>2021-05-01T11:15:11.000Z</time>
      </trkpt>
      <trkpt lat="47.02193" lon="-1.68889">
        <ele>80</ele>
        <time>2021-05-01T11:15:13.000Z</time>
      </trkpt>
      <trkpt lat="47.02194" lon="-1.68873">
        <ele>80</ele>
        <time>2021-05-01T11:15:15.000Z</time>
      </trkpt>
      <trkpt lat="47.02195" lon="-1.68857">
        <ele>80</ele>
        <time>2021-05-01T11:15:17.000Z</time>
      </trkpt>
      <trkpt lat="47.02196" lon="-1.68841">
        <ele>80</ele>
        <time>2021-05-01T11:15:19.000Z</time>
      </trkpt>
      <trkpt lat="47.02198" lon="-1.68826">
        <ele>81</ele>
        <time>2021-05-01T11:15:21.000Z</time>
      </trkpt>
      <trkpt lat="47.02198" lon="-1.68813">
        <ele>81</ele>
        <time>2021-05-01T11:15:23.000Z</time>
      </trkpt>
      <trkpt lat="47.02198" lon="-1.68799">
        <ele>83</ele>
        <time>2021-05-01T11:15:30.000Z</time>
      </trkpt>
      <trkpt lat="47.022" lon="-1.68782">
        <ele>84</ele>
        <time>2021-05-01T11:15:34.000Z</time>
      </trkpt>
      <trkpt lat="47.02206" lon="-1.68771">
        <ele>84</ele>
        <time>2021-05-01T11:15:36.000Z</time>
      </trkpt>
      <trkpt lat="47.02212" lon="-1.6876">
        <ele>84</ele>
        <time>2021-05-01T11:15:38.000Z</time>
      </trkpt>
      <trkpt lat="47.02219" lon="-1.68748">
        <ele>84</ele>
        <time>2021-05-01T11:15:40.000Z</time>
      </trkpt>
      <trkpt lat="47.02225" lon="-1.68736">
        <ele>85</ele>
        <time>2021-05-01T11:15:42.000Z</time>
      </trkpt>
      <trkpt lat="47.02232" lon="-1.68723">
        <ele>85</ele>
        <time>2021-05-01T11:15:44.000Z</time>
      </trkpt>
      <trkpt lat="47.02239" lon="-1.68711">
        <ele>86</ele>
        <time>2021-05-01T11:15:46.000Z</time>
      </trkpt>
      <trkpt lat="47.02246" lon="-1.687">
        <ele>85</ele>
        <time>2021-05-01T11:15:48.000Z</time>
      </trkpt>
      <trkpt lat="47.02252" lon="-1.68689">
        <ele>86</ele>
        <time>2021-05-01T11:15:50.000Z</time>
      </trkpt>
      <trkpt lat="47.0226" lon="-1.68674">
        <ele>86</ele>
        <time>2021-05-01T11:15:53.000Z</time>
      </trkpt>
      <trkpt lat="47.02266" lon="-1.68663">
        <ele>86</ele>
        <time>2021-05-01T11:15:55.000Z</time>
      </trkpt>
      <trkpt lat="47.02274" lon="-1.68648">
        <ele>87</ele>
        <time>2021-05-01T11:15:58.000Z</time>
      </trkpt>
      <trkpt lat="47.0228" lon="-1.68637">
        <ele>87</ele>
        <time>2021-05-01T11:16:00.000Z</time>
      </trkpt>
      <trkpt lat="47.02286" lon="-1.68626">
        <ele>87</ele>
        <time>2021-05-01T11:16:02.000Z</time>
      </trkpt>
      <trkpt lat="47.02295" lon="-1.68611">
        <ele>88</ele>
        <time>2021-05-01T11:16:05.000Z</time>
      </trkpt>
      <trkpt lat="47.023" lon="-1.686">
        <ele>89</ele>
        <time>2021-05-01T11:16:07.000Z</time>
      </trkpt>
      <trkpt lat="47.02306" lon="-1.6859">
        <ele>89</ele>
        <time>2021-05-01T11:16:09.000Z</time>
      </trkpt>
      <trkpt lat="47.02315" lon="-1.68574">
        <ele>90</ele>
        <time>2021-05-01T11:16:12.000Z</time>
      </trkpt>
      <trkpt lat="47.0232" lon="-1.68564">
        <ele>90</ele>
        <time>2021-05-01T11:16:14.000Z</time>
      </trkpt>
      <trkpt lat="47.02326" lon="-1.68554">
        <ele>90</ele>
        <time>2021-05-01T11:16:16.000Z</time>
      </trkpt>
      <trkpt lat="47.02332" lon="-1.68543">
        <ele>90</ele>
        <time>2021-05-01T11:16:18.000Z</time>
      </trkpt>
      <trkpt lat="47.02338" lon="-1.68532">
        <ele>91</ele>
        <time>2021-05-01T11:16:20.000Z</time>
      </trkpt>
      <trkpt lat="47.02343" lon="-1.68522">
        <ele>91</ele>
        <time>2021-05-01T11:16:22.000Z</time>
      </trkpt>
      <trkpt lat="47.02349" lon="-1.68511">
        <ele>91</ele>
        <time>2021-05-01T11:16:24.000Z</time>
      </trkpt>
      <trkpt lat="47.02355" lon="-1.685">
        <ele>91</ele>
        <time>2021-05-01T11:16:26.000Z</time>
      </trkpt>
      <trkpt lat="47.0236" lon="-1.68489">
        <ele>92</ele>
        <time>2021-05-01T11:16:28.000Z</time>
      </trkpt>
      <trkpt lat="47.02366" lon="-1.68478">
        <ele>92</ele>
        <time>2021-05-01T11:16:30.000Z</time>
      </trkpt>
      <trkpt lat="47.02371" lon="-1.68466">
        <ele>92</ele>
        <time>2021-05-01T11:16:32.000Z</time>
      </trkpt>
      <trkpt lat="47.02376" lon="-1.68454">
        <ele>92</ele>
        <time>2021-05-01T11:16:34.000Z</time>
      </trkpt>
      <trkpt lat="47.02383" lon="-1.68436">
        <ele>92</ele>
        <time>2021-05-01T11:16:37.000Z</time>
      </trkpt>
      <trkpt lat="47.02387" lon="-1.68423">
        <ele>92</ele>
        <time>2021-05-01T11:16:39.000Z</time>
      </trkpt>
      <trkpt lat="47.02392" lon="-1.6841">
        <ele>92</ele>
        <time>2021-05-01T11:16:41.000Z</time>
      </trkpt>
      <trkpt lat="47.02397" lon="-1.68396">
        <ele>92</ele>
        <time>2021-05-01T11:16:43.000Z</time>
      </trkpt>
      <trkpt lat="47.02402" lon="-1.68383">
        <ele>92</ele>
        <time>2021-05-01T11:16:45.000Z</time>
      </trkpt>
      <trkpt lat="47.02406" lon="-1.6837">
        <ele>92</ele>
        <time>2021-05-01T11:16:47.000Z</time>
      </trkpt>
      <trkpt lat="47.02411" lon="-1.68357">
        <ele>92</ele>
        <time>2021-05-01T11:16:49.000Z</time>
      </trkpt>
      <trkpt lat="47.02415" lon="-1.68344">
        <ele>92</ele>
        <time>2021-05-01T11:16:51.000Z</time>
      </trkpt>
      <trkpt lat="47.02421" lon="-1.6833">
        <ele>92</ele>
        <time>2021-05-01T11:16:53.000Z</time>
      </trkpt>
      <trkpt lat="47.02426" lon="-1.68317">
        <ele>92</ele>
        <time>2021-05-01T11:16:55.000Z</time>
      </trkpt>
      <trkpt lat="47.02431" lon="-1.68302">
        <ele>92</ele>
        <time>2021-05-01T11:16:57.000Z</time>
      </trkpt>
      <trkpt lat="47.02436" lon="-1.68288">
        <ele>92</ele>
        <time>2021-05-01T11:16:59.000Z</time>
      </trkpt>
      <trkpt lat="47.02442" lon="-1.68273">
        <ele>91</ele>
        <time>2021-05-01T11:17:01.000Z</time>
      </trkpt>
      <trkpt lat="47.02447" lon="-1.68258">
        <ele>91</ele>
        <time>2021-05-01T11:17:03.000Z</time>
      </trkpt>
      <trkpt lat="47.02453" lon="-1.68243">
        <ele>91</ele>
        <time>2021-05-01T11:17:05.000Z</time>
      </trkpt>
      <trkpt lat="47.02459" lon="-1.68228">
        <ele>91</ele>
        <time>2021-05-01T11:17:07.000Z</time>
      </trkpt>
      <trkpt lat="47.02465" lon="-1.68211">
        <ele>91</ele>
        <time>2021-05-01T11:17:09.000Z</time>
      </trkpt>
      <trkpt lat="47.02471" lon="-1.68195">
        <ele>91</ele>
        <time>2021-05-01T11:17:11.000Z</time>
      </trkpt>
      <trkpt lat="47.02477" lon="-1.68179">
        <ele>90</ele>
        <time>2021-05-01T11:17:13.000Z</time>
      </trkpt>
      <trkpt lat="47.02483" lon="-1.68163">
        <ele>90</ele>
        <time>2021-05-01T11:17:15.000Z</time>
      </trkpt>
      <trkpt lat="47.02489" lon="-1.68146">
        <ele>90</ele>
        <time>2021-05-01T11:17:17.000Z</time>
      </trkpt>
      <trkpt lat="47.02495" lon="-1.6813">
        <ele>90</ele>
        <time>2021-05-01T11:17:19.000Z</time>
      </trkpt>
      <trkpt lat="47.02501" lon="-1.68113">
        <ele>90</ele>
        <time>2021-05-01T11:17:21.000Z</time>
      </trkpt>
      <trkpt lat="47.02507" lon="-1.68097">
        <ele>90</ele>
        <time>2021-05-01T11:17:23.000Z</time>
      </trkpt>
      <trkpt lat="47.02513" lon="-1.68081">
        <ele>90</ele>
        <time>2021-05-01T11:17:25.000Z</time>
      </trkpt>
      <trkpt lat="47.02519" lon="-1.68066">
        <ele>90</ele>
        <time>2021-05-01T11:17:27.000Z</time>
      </trkpt>
      <trkpt lat="47.02524" lon="-1.6805">
        <ele>90</ele>
        <time>2021-05-01T11:17:29.000Z</time>
      </trkpt>
      <trkpt lat="47.0253" lon="-1.68035">
        <ele>90</ele>
        <time>2021-05-01T11:17:31.000Z</time>
      </trkpt>
      <trkpt lat="47.02536" lon="-1.68019">
        <ele>90</ele>
        <time>2021-05-01T11:17:33.000Z</time>
      </trkpt>
      <trkpt lat="47.02542" lon="-1.68002">
        <ele>90</ele>
        <time>2021-05-01T11:17:35.000Z</time>
      </trkpt>
      <trkpt lat="47.02548" lon="-1.67987">
        <ele>90</ele>
        <time>2021-05-01T11:17:37.000Z</time>
      </trkpt>
      <trkpt lat="47.02554" lon="-1.67971">
        <ele>90</ele>
        <time>2021-05-01T11:17:39.000Z</time>
      </trkpt>
      <trkpt lat="47.0256" lon="-1.67955">
        <ele>90</ele>
        <time>2021-05-01T11:17:41.000Z</time>
      </trkpt>
      <trkpt lat="47.02566" lon="-1.67938">
        <ele>90</ele>
        <time>2021-05-01T11:17:43.000Z</time>
      </trkpt>
      <trkpt lat="47.02572" lon="-1.67922">
        <ele>90</ele>
        <time>2021-05-01T11:17:45.000Z</time>
      </trkpt>
      <trkpt lat="47.02578" lon="-1.67906">
        <ele>90</ele>
        <time>2021-05-01T11:17:47.000Z</time>
      </trkpt>
      <trkpt lat="47.02584" lon="-1.6789">
        <ele>90</ele>
        <time>2021-05-01T11:17:49.000Z</time>
      </trkpt>
      <trkpt lat="47.0259" lon="-1.67874">
        <ele>90</ele>
        <time>2021-05-01T11:17:51.000Z</time>
      </trkpt>
      <trkpt lat="47.02596" lon="-1.67857">
        <ele>90</ele>
        <time>2021-05-01T11:17:53.000Z</time>
      </trkpt>
      <trkpt lat="47.02602" lon="-1.67841">
        <ele>90</ele>
        <time>2021-05-01T11:17:55.000Z</time>
      </trkpt>
      <trkpt lat="47.02608" lon="-1.67825">
        <ele>90</ele>
        <time>2021-05-01T11:17:57.000Z</time>
      </trkpt>
      <trkpt lat="47.02614" lon="-1.67808">
        <ele>90</ele>
        <time>2021-05-01T11:17:59.000Z</time>
      </trkpt>
      <trkpt lat="47.02621" lon="-1.67792">
        <ele>90</ele>
        <time>2021-05-01T11:18:01.000Z</time>
      </trkpt>
      <trkpt lat="47.02627" lon="-1.67775">
        <ele>90</ele>
        <time>2021-05-01T11:18:03.000Z</time>
      </trkpt>
      <trkpt lat="47.02632" lon="-1.6776">
        <ele>90</ele>
        <time>2021-05-01T11:18:05.000Z</time>
      </trkpt>
      <trkpt lat="47.02638" lon="-1.67744">
        <ele>90</ele>
        <time>2021-05-01T11:18:07.000Z</time>
      </trkpt>
      <trkpt lat="47.02643" lon="-1.67728">
        <ele>90</ele>
        <time>2021-05-01T11:18:09.000Z</time>
      </trkpt>
      <trkpt lat="47.02649" lon="-1.67713">
        <ele>90</ele>
        <time>2021-05-01T11:18:11.000Z</time>
      </trkpt>
      <trkpt lat="47.02655" lon="-1.67697">
        <ele>90</ele>
        <time>2021-05-01T11:18:13.000Z</time>
      </trkpt>
      <trkpt lat="47.02661" lon="-1.67681">
        <ele>90</ele>
        <time>2021-05-01T11:18:15.000Z</time>
      </trkpt>
      <trkpt lat="47.02667" lon="-1.67666">
        <ele>90</ele>
        <time>2021-05-01T11:18:17.000Z</time>
      </trkpt>
      <trkpt lat="47.02673" lon="-1.6765">
        <ele>90</ele>
        <time>2021-05-01T11:18:19.000Z</time>
      </trkpt>
      <trkpt lat="47.02678" lon="-1.67634">
        <ele>90</ele>
        <time>2021-05-01T11:18:21.000Z</time>
      </trkpt>
      <trkpt lat="47.02684" lon="-1.67618">
        <ele>90</ele>
        <time>2021-05-01T11:18:23.000Z</time>
      </trkpt>
      <trkpt lat="47.0269" lon="-1.67602">
        <ele>90</ele>
        <time>2021-05-01T11:18:25.000Z</time>
      </trkpt>
      <trkpt lat="47.02697" lon="-1.67586">
        <ele>90</ele>
        <time>2021-05-01T11:18:27.000Z</time>
      </trkpt>
      <trkpt lat="47.02702" lon="-1.6757">
        <ele>91</ele>
        <time>2021-05-01T11:18:29.000Z</time>
      </trkpt>
      <trkpt lat="47.02708" lon="-1.67553">
        <ele>90</ele>
        <time>2021-05-01T11:18:31.000Z</time>
      </trkpt>
      <trkpt lat="47.02714" lon="-1.67536">
        <ele>90</ele>
        <time>2021-05-01T11:18:33.000Z</time>
      </trkpt>
      <trkpt lat="47.0272" lon="-1.67519">
        <ele>90</ele>
        <time>2021-05-01T11:18:35.000Z</time>
      </trkpt>
      <trkpt lat="47.02727" lon="-1.67504">
        <ele>90</ele>
        <time>2021-05-01T11:18:37.000Z</time>
      </trkpt>
      <trkpt lat="47.02733" lon="-1.67487">
        <ele>90</ele>
        <time>2021-05-01T11:18:39.000Z</time>
      </trkpt>
      <trkpt lat="47.02739" lon="-1.67471">
        <ele>89</ele>
        <time>2021-05-01T11:18:41.000Z</time>
      </trkpt>
      <trkpt lat="47.02745" lon="-1.67454">
        <ele>89</ele>
        <time>2021-05-01T11:18:43.000Z</time>
      </trkpt>
      <trkpt lat="47.02751" lon="-1.67436">
        <ele>89</ele>
        <time>2021-05-01T11:18:45.000Z</time>
      </trkpt>
      <trkpt lat="47.02758" lon="-1.67419">
        <ele>89</ele>
        <time>2021-05-01T11:18:47.000Z</time>
      </trkpt>
      <trkpt lat="47.02764" lon="-1.67402">
        <ele>89</ele>
        <time>2021-05-01T11:18:49.000Z</time>
      </trkpt>
      <trkpt lat="47.02771" lon="-1.67384">
        <ele>89</ele>
        <time>2021-05-01T11:18:51.000Z</time>
      </trkpt>
      <trkpt lat="47.02778" lon="-1.67366">
        <ele>89</ele>
        <time>2021-05-01T11:18:53.000Z</time>
      </trkpt>
      <trkpt lat="47.02784" lon="-1.67349">
        <ele>89</ele>
        <time>2021-05-01T11:18:55.000Z</time>
      </trkpt>
      <trkpt lat="47.0279" lon="-1.67332">
        <ele>88</ele>
        <time>2021-05-01T11:18:57.000Z</time>
      </trkpt>
      <trkpt lat="47.02796" lon="-1.67315">
        <ele>88</ele>
        <time>2021-05-01T11:18:59.000Z</time>
      </trkpt>
      <trkpt lat="47.02802" lon="-1.67298">
        <ele>87</ele>
        <time>2021-05-01T11:19:01.000Z</time>
      </trkpt>
      <trkpt lat="47.02809" lon="-1.67281">
        <ele>86</ele>
        <time>2021-05-01T11:19:03.000Z</time>
      </trkpt>
      <trkpt lat="47.02815" lon="-1.67264">
        <ele>87</ele>
        <time>2021-05-01T11:19:05.000Z</time>
      </trkpt>
      <trkpt lat="47.02821" lon="-1.67247">
        <ele>86</ele>
        <time>2021-05-01T11:19:07.000Z</time>
      </trkpt>
      <trkpt lat="47.02828" lon="-1.67229">
        <ele>85</ele>
        <time>2021-05-01T11:19:09.000Z</time>
      </trkpt>
      <trkpt lat="47.02834" lon="-1.67212">
        <ele>85</ele>
        <time>2021-05-01T11:19:11.000Z</time>
      </trkpt>
      <trkpt lat="47.02841" lon="-1.67195">
        <ele>85</ele>
        <time>2021-05-01T11:19:13.000Z</time>
      </trkpt>
      <trkpt lat="47.02847" lon="-1.67178">
        <ele>85</ele>
        <time>2021-05-01T11:19:15.000Z</time>
      </trkpt>
      <trkpt lat="47.02853" lon="-1.6716">
        <ele>85</ele>
        <time>2021-05-01T11:19:17.000Z</time>
      </trkpt>
      <trkpt lat="47.0286" lon="-1.67143">
        <ele>85</ele>
        <time>2021-05-01T11:19:19.000Z</time>
      </trkpt>
      <trkpt lat="47.02867" lon="-1.67126">
        <ele>85</ele>
        <time>2021-05-01T11:19:21.000Z</time>
      </trkpt>
      <trkpt lat="47.02874" lon="-1.67108">
        <ele>85</ele>
        <time>2021-05-01T11:19:23.000Z</time>
      </trkpt>
      <trkpt lat="47.0288" lon="-1.67091">
        <ele>85</ele>
        <time>2021-05-01T11:19:25.000Z</time>
      </trkpt>
      <trkpt lat="47.02886" lon="-1.67074">
        <ele>85</ele>
        <time>2021-05-01T11:19:27.000Z</time>
      </trkpt>
      <trkpt lat="47.02892" lon="-1.67057">
        <ele>85</ele>
        <time>2021-05-01T11:19:29.000Z</time>
      </trkpt>
      <trkpt lat="47.02898" lon="-1.67041">
        <ele>85</ele>
        <time>2021-05-01T11:19:31.000Z</time>
      </trkpt>
      <trkpt lat="47.02904" lon="-1.67025">
        <ele>85</ele>
        <time>2021-05-01T11:19:33.000Z</time>
      </trkpt>
      <trkpt lat="47.0291" lon="-1.67008">
        <ele>85</ele>
        <time>2021-05-01T11:19:35.000Z</time>
      </trkpt>
      <trkpt lat="47.02916" lon="-1.66992">
        <ele>85</ele>
        <time>2021-05-01T11:19:37.000Z</time>
      </trkpt>
      <trkpt lat="47.02922" lon="-1.66976">
        <ele>84</ele>
        <time>2021-05-01T11:19:39.000Z</time>
      </trkpt>
      <trkpt lat="47.02928" lon="-1.66959">
        <ele>84</ele>
        <time>2021-05-01T11:19:41.000Z</time>
      </trkpt>
      <trkpt lat="47.02934" lon="-1.66942">
        <ele>84</ele>
        <time>2021-05-01T11:19:43.000Z</time>
      </trkpt>
      <trkpt lat="47.0294" lon="-1.66926">
        <ele>84</ele>
        <time>2021-05-01T11:19:45.000Z</time>
      </trkpt>
      <trkpt lat="47.02946" lon="-1.6691">
        <ele>84</ele>
        <time>2021-05-01T11:19:47.000Z</time>
      </trkpt>
      <trkpt lat="47.02952" lon="-1.66893">
        <ele>84</ele>
        <time>2021-05-01T11:19:49.000Z</time>
      </trkpt>
      <trkpt lat="47.02959" lon="-1.66876">
        <ele>83</ele>
        <time>2021-05-01T11:19:51.000Z</time>
      </trkpt>
      <trkpt lat="47.02965" lon="-1.66859">
        <ele>83</ele>
        <time>2021-05-01T11:19:53.000Z</time>
      </trkpt>
      <trkpt lat="47.02971" lon="-1.66842">
        <ele>83</ele>
        <time>2021-05-01T11:19:55.000Z</time>
      </trkpt>
      <trkpt lat="47.02977" lon="-1.66825">
        <ele>82</ele>
        <time>2021-05-01T11:19:57.000Z</time>
      </trkpt>
      <trkpt lat="47.02983" lon="-1.66809">
        <ele>82</ele>
        <time>2021-05-01T11:19:59.000Z</time>
      </trkpt>
      <trkpt lat="47.02989" lon="-1.66793">
        <ele>82</ele>
        <time>2021-05-01T11:20:01.000Z</time>
      </trkpt>
      <trkpt lat="47.02995" lon="-1.66777">
        <ele>82</ele>
        <time>2021-05-01T11:20:03.000Z</time>
      </trkpt>
      <trkpt lat="47.03001" lon="-1.66761">
        <ele>82</ele>
        <time>2021-05-01T11:20:05.000Z</time>
      </trkpt>
      <trkpt lat="47.03006" lon="-1.66745">
        <ele>82</ele>
        <time>2021-05-01T11:20:07.000Z</time>
      </trkpt>
      <trkpt lat="47.03012" lon="-1.6673">
        <ele>82</ele>
        <time>2021-05-01T11:20:09.000Z</time>
      </trkpt>
      <trkpt lat="47.03018" lon="-1.66714">
        <ele>82</ele>
        <time>2021-05-01T11:20:11.000Z</time>
      </trkpt>
      <trkpt lat="47.03023" lon="-1.66698">
        <ele>82</ele>
        <time>2021-05-01T11:20:13.000Z</time>
      </trkpt>
      <trkpt lat="47.0303" lon="-1.66681">
        <ele>82</ele>
        <time>2021-05-01T11:20:15.000Z</time>
      </trkpt>
      <trkpt lat="47.03036" lon="-1.66663">
        <ele>81</ele>
        <time>2021-05-01T11:20:17.000Z</time>
      </trkpt>
      <trkpt lat="47.03043" lon="-1.66645">
        <ele>80</ele>
        <time>2021-05-01T11:20:19.000Z</time>
      </trkpt>
      <trkpt lat="47.03049" lon="-1.66628">
        <ele>80</ele>
        <time>2021-05-01T11:20:21.000Z</time>
      </trkpt>
      <trkpt lat="47.03056" lon="-1.66609">
        <ele>79</ele>
        <time>2021-05-01T11:20:23.000Z</time>
      </trkpt>
      <trkpt lat="47.03062" lon="-1.6659">
        <ele>79</ele>
        <time>2021-05-01T11:20:25.000Z</time>
      </trkpt>
      <trkpt lat="47.03069" lon="-1.66572">
        <ele>78</ele>
        <time>2021-05-01T11:20:27.000Z</time>
      </trkpt>
      <trkpt lat="47.03076" lon="-1.66553">
        <ele>78</ele>
        <time>2021-05-01T11:20:29.000Z</time>
      </trkpt>
      <trkpt lat="47.03084" lon="-1.66533">
        <ele>77</ele>
        <time>2021-05-01T11:20:31.000Z</time>
      </trkpt>
      <trkpt lat="47.03091" lon="-1.66514">
        <ele>77</ele>
        <time>2021-05-01T11:20:33.000Z</time>
      </trkpt>
      <trkpt lat="47.03099" lon="-1.66494">
        <ele>76</ele>
        <time>2021-05-01T11:20:35.000Z</time>
      </trkpt>
      <trkpt lat="47.03108" lon="-1.66477">
        <ele>76</ele>
        <time>2021-05-01T11:20:37.000Z</time>
      </trkpt>
      <trkpt lat="47.03119" lon="-1.6646">
        <ele>75</ele>
        <time>2021-05-01T11:20:39.000Z</time>
      </trkpt>
      <trkpt lat="47.03131" lon="-1.66444">
        <ele>74</ele>
        <time>2021-05-01T11:20:41.000Z</time>
      </trkpt>
      <trkpt lat="47.03142" lon="-1.66428">
        <ele>74</ele>
        <time>2021-05-01T11:20:43.000Z</time>
      </trkpt>
      <trkpt lat="47.03154" lon="-1.66411">
        <ele>72</ele>
        <time>2021-05-01T11:20:45.000Z</time>
      </trkpt>
      <trkpt lat="47.03165" lon="-1.66393">
        <ele>72</ele>
        <time>2021-05-01T11:20:47.000Z</time>
      </trkpt>
      <trkpt lat="47.03175" lon="-1.66374">
        <ele>71</ele>
        <time>2021-05-01T11:20:49.000Z</time>
      </trkpt>
      <trkpt lat="47.03186" lon="-1.66355">
        <ele>71</ele>
        <time>2021-05-01T11:20:51.000Z</time>
      </trkpt>
      <trkpt lat="47.03196" lon="-1.66335">
        <ele>71</ele>
        <time>2021-05-01T11:20:53.000Z</time>
      </trkpt>
      <trkpt lat="47.03205" lon="-1.66314">
        <ele>70</ele>
        <time>2021-05-01T11:20:55.000Z</time>
      </trkpt>
      <trkpt lat="47.03214" lon="-1.66292">
        <ele>70</ele>
        <time>2021-05-01T11:20:57.000Z</time>
      </trkpt>
      <trkpt lat="47.03224" lon="-1.66271">
        <ele>69</ele>
        <time>2021-05-01T11:20:59.000Z</time>
      </trkpt>
      <trkpt lat="47.03232" lon="-1.66249">
        <ele>69</ele>
        <time>2021-05-01T11:21:01.000Z</time>
      </trkpt>
      <trkpt lat="47.03241" lon="-1.66228">
        <ele>68</ele>
        <time>2021-05-01T11:21:03.000Z</time>
      </trkpt>
      <trkpt lat="47.03249" lon="-1.66207">
        <ele>68</ele>
        <time>2021-05-01T11:21:05.000Z</time>
      </trkpt>
      <trkpt lat="47.03258" lon="-1.66187">
        <ele>68</ele>
        <time>2021-05-01T11:21:07.000Z</time>
      </trkpt>
      <trkpt lat="47.03266" lon="-1.66166">
        <ele>67</ele>
        <time>2021-05-01T11:21:09.000Z</time>
      </trkpt>
      <trkpt lat="47.03274" lon="-1.66147">
        <ele>67</ele>
        <time>2021-05-01T11:21:11.000Z</time>
      </trkpt>
      <trkpt lat="47.03283" lon="-1.66128">
        <ele>67</ele>
        <time>2021-05-01T11:21:13.000Z</time>
      </trkpt>
      <trkpt lat="47.03295" lon="-1.66115">
        <ele>67</ele>
        <time>2021-05-01T11:21:15.000Z</time>
      </trkpt>
      <trkpt lat="47.03309" lon="-1.66105">
        <ele>67</ele>
        <time>2021-05-01T11:21:17.000Z</time>
      </trkpt>
      <trkpt lat="47.03323" lon="-1.66102">
        <ele>66</ele>
        <time>2021-05-01T11:21:19.000Z</time>
      </trkpt>
      <trkpt lat="47.03336" lon="-1.66105">
        <ele>66</ele>
        <time>2021-05-01T11:21:21.000Z</time>
      </trkpt>
      <trkpt lat="47.03349" lon="-1.66112">
        <ele>65</ele>
        <time>2021-05-01T11:21:23.000Z</time>
      </trkpt>
      <trkpt lat="47.03361" lon="-1.6612">
        <ele>65</ele>
        <time>2021-05-01T11:21:25.000Z</time>
      </trkpt>
      <trkpt lat="47.03374" lon="-1.66122">
        <ele>65</ele>
        <time>2021-05-01T11:21:27.000Z</time>
      </trkpt>
      <trkpt lat="47.03385" lon="-1.66111">
        <ele>64</ele>
        <time>2021-05-01T11:21:29.000Z</time>
      </trkpt>
      <trkpt lat="47.03388" lon="-1.66092">
        <ele>64</ele>
        <time>2021-05-01T11:21:31.000Z</time>
      </trkpt>
      <trkpt lat="47.03385" lon="-1.66073">
        <ele>64</ele>
        <time>2021-05-01T11:21:33.000Z</time>
      </trkpt>
      <trkpt lat="47.03385" lon="-1.66055">
        <ele>65</ele>
        <time>2021-05-01T11:21:35.000Z</time>
      </trkpt>
      <trkpt lat="47.03391" lon="-1.66037">
        <ele>65</ele>
        <time>2021-05-01T11:21:37.000Z</time>
      </trkpt>
      <trkpt lat="47.03398" lon="-1.66018">
        <ele>65</ele>
        <time>2021-05-01T11:21:39.000Z</time>
      </trkpt>
      <trkpt lat="47.034" lon="-1.65997">
        <ele>65</ele>
        <time>2021-05-01T11:21:41.000Z</time>
      </trkpt>
      <trkpt lat="47.034" lon="-1.65976">
        <ele>66</ele>
        <time>2021-05-01T11:21:43.000Z</time>
      </trkpt>
      <trkpt lat="47.03399" lon="-1.65956">
        <ele>66</ele>
        <time>2021-05-01T11:21:45.000Z</time>
      </trkpt>
      <trkpt lat="47.03398" lon="-1.65937">
        <ele>67</ele>
        <time>2021-05-01T11:21:47.000Z</time>
      </trkpt>
      <trkpt lat="47.03396" lon="-1.65918">
        <ele>67</ele>
        <time>2021-05-01T11:21:49.000Z</time>
      </trkpt>
      <trkpt lat="47.03392" lon="-1.659">
        <ele>68</ele>
        <time>2021-05-01T11:21:51.000Z</time>
      </trkpt>
      <trkpt lat="47.03387" lon="-1.65882">
        <ele>68</ele>
        <time>2021-05-01T11:21:53.000Z</time>
      </trkpt>
      <trkpt lat="47.03381" lon="-1.65865">
        <ele>69</ele>
        <time>2021-05-01T11:21:55.000Z</time>
      </trkpt>
      <trkpt lat="47.03374" lon="-1.65849">
        <ele>69</ele>
        <time>2021-05-01T11:21:57.000Z</time>
      </trkpt>
      <trkpt lat="47.03366" lon="-1.65834">
        <ele>69</ele>
        <time>2021-05-01T11:21:59.000Z</time>
      </trkpt>
      <trkpt lat="47.03359" lon="-1.65819">
        <ele>70</ele>
        <time>2021-05-01T11:22:01.000Z</time>
      </trkpt>
      <trkpt lat="47.03351" lon="-1.65804">
        <ele>70</ele>
        <time>2021-05-01T11:22:03.000Z</time>
      </trkpt>
      <trkpt lat="47.03344" lon="-1.65789">
        <ele>70</ele>
        <time>2021-05-01T11:22:05.000Z</time>
      </trkpt>
      <trkpt lat="47.03337" lon="-1.65773">
        <ele>70</ele>
        <time>2021-05-01T11:22:07.000Z</time>
      </trkpt>
      <trkpt lat="47.03329" lon="-1.65756">
        <ele>70</ele>
        <time>2021-05-01T11:22:09.000Z</time>
      </trkpt>
      <trkpt lat="47.03322" lon="-1.65737">
        <ele>69</ele>
        <time>2021-05-01T11:22:11.000Z</time>
      </trkpt>
      <trkpt lat="47.03317" lon="-1.65717">
        <ele>69</ele>
        <time>2021-05-01T11:22:13.000Z</time>
      </trkpt>
      <trkpt lat="47.03314" lon="-1.65696">
        <ele>69</ele>
        <time>2021-05-01T11:22:15.000Z</time>
      </trkpt>
      <trkpt lat="47.03312" lon="-1.65676">
        <ele>68</ele>
        <time>2021-05-01T11:22:17.000Z</time>
      </trkpt>
      <trkpt lat="47.03312" lon="-1.65655">
        <ele>68</ele>
        <time>2021-05-01T11:22:19.000Z</time>
      </trkpt>
      <trkpt lat="47.03313" lon="-1.65633">
        <ele>68</ele>
        <time>2021-05-01T11:22:21.000Z</time>
      </trkpt>
      <trkpt lat="47.03313" lon="-1.65612">
        <ele>68</ele>
        <time>2021-05-01T11:22:23.000Z</time>
      </trkpt>
      <trkpt lat="47.03309" lon="-1.65593">
        <ele>67</ele>
        <time>2021-05-01T11:22:25.000Z</time>
      </trkpt>
      <trkpt lat="47.03309" lon="-1.65572">
        <ele>66</ele>
        <time>2021-05-01T11:22:27.000Z</time>
      </trkpt>
      <trkpt lat="47.03318" lon="-1.65555">
        <ele>66</ele>
        <time>2021-05-01T11:22:29.000Z</time>
      </trkpt>
      <trkpt lat="47.03331" lon="-1.65547">
        <ele>65</ele>
        <time>2021-05-01T11:22:31.000Z</time>
      </trkpt>
      <trkpt lat="47.03344" lon="-1.65546">
        <ele>65</ele>
        <time>2021-05-01T11:22:33.000Z</time>
      </trkpt>
      <trkpt lat="47.03356" lon="-1.65539">
        <ele>65</ele>
        <time>2021-05-01T11:22:35.000Z</time>
      </trkpt>
      <trkpt lat="47.03368" lon="-1.65529">
        <ele>65</ele>
        <time>2021-05-01T11:22:37.000Z</time>
      </trkpt>
      <trkpt lat="47.03379" lon="-1.65519">
        <ele>64</ele>
        <time>2021-05-01T11:22:39.000Z</time>
      </trkpt>
      <trkpt lat="47.03392" lon="-1.65513">
        <ele>63</ele>
        <time>2021-05-01T11:22:41.000Z</time>
      </trkpt>
      <trkpt lat="47.03406" lon="-1.6551">
        <ele>62</ele>
        <time>2021-05-01T11:22:43.000Z</time>
      </trkpt>
      <trkpt lat="47.03421" lon="-1.65507">
        <ele>62</ele>
        <time>2021-05-01T11:22:45.000Z</time>
      </trkpt>
      <trkpt lat="47.03435" lon="-1.65502">
        <ele>61</ele>
        <time>2021-05-01T11:22:47.000Z</time>
      </trkpt>
      <trkpt lat="47.03447" lon="-1.65492">
        <ele>61</ele>
        <time>2021-05-01T11:22:49.000Z</time>
      </trkpt>
      <trkpt lat="47.03457" lon="-1.65479">
        <ele>60</ele>
        <time>2021-05-01T11:22:51.000Z</time>
      </trkpt>
      <trkpt lat="47.03468" lon="-1.65467">
        <ele>60</ele>
        <time>2021-05-01T11:22:53.000Z</time>
      </trkpt>
      <trkpt lat="47.03479" lon="-1.65454">
        <ele>59</ele>
        <time>2021-05-01T11:22:55.000Z</time>
      </trkpt>
      <trkpt lat="47.03486" lon="-1.65437">
        <ele>59</ele>
        <time>2021-05-01T11:22:57.000Z</time>
      </trkpt>
      <trkpt lat="47.03493" lon="-1.6542">
        <ele>60</ele>
        <time>2021-05-01T11:22:59.000Z</time>
      </trkpt>
      <trkpt lat="47.03499" lon="-1.65403">
        <ele>59</ele>
        <time>2021-05-01T11:23:01.000Z</time>
      </trkpt>
      <trkpt lat="47.03506" lon="-1.65385">
        <ele>59</ele>
        <time>2021-05-01T11:23:03.000Z</time>
      </trkpt>
      <trkpt lat="47.03512" lon="-1.65366">
        <ele>60</ele>
        <time>2021-05-01T11:23:05.000Z</time>
      </trkpt>
      <trkpt lat="47.03519" lon="-1.65348">
        <ele>60</ele>
        <time>2021-05-01T11:23:07.000Z</time>
      </trkpt>
      <trkpt lat="47.03526" lon="-1.6533">
        <ele>60</ele>
        <time>2021-05-01T11:23:09.000Z</time>
      </trkpt>
      <trkpt lat="47.03532" lon="-1.65313">
        <ele>60</ele>
        <time>2021-05-01T11:23:11.000Z</time>
      </trkpt>
      <trkpt lat="47.03539" lon="-1.65294">
        <ele>60</ele>
        <time>2021-05-01T11:23:13.000Z</time>
      </trkpt>
      <trkpt lat="47.03546" lon="-1.65276">
        <ele>61</ele>
        <time>2021-05-01T11:23:15.000Z</time>
      </trkpt>
      <trkpt lat="47.03553" lon="-1.65257">
        <ele>60</ele>
        <time>2021-05-01T11:23:17.000Z</time>
      </trkpt>
      <trkpt lat="47.0356" lon="-1.65239">
        <ele>60</ele>
        <time>2021-05-01T11:23:19.000Z</time>
      </trkpt>
      <trkpt lat="47.03566" lon="-1.6522">
        <ele>60</ele>
        <time>2021-05-01T11:23:21.000Z</time>
      </trkpt>
      <trkpt lat="47.03573" lon="-1.65202">
        <ele>59</ele>
        <time>2021-05-01T11:23:23.000Z</time>
      </trkpt>
      <trkpt lat="47.0358" lon="-1.65184">
        <ele>59</ele>
        <time>2021-05-01T11:23:25.000Z</time>
      </trkpt>
      <trkpt lat="47.03587" lon="-1.65165">
        <ele>59</ele>
        <time>2021-05-01T11:23:27.000Z</time>
      </trkpt>
      <trkpt lat="47.03594" lon="-1.65144">
        <ele>58</ele>
        <time>2021-05-01T11:23:29.000Z</time>
      </trkpt>
      <trkpt lat="47.03602" lon="-1.65124">
        <ele>57</ele>
        <time>2021-05-01T11:23:31.000Z</time>
      </trkpt>
      <trkpt lat="47.03609" lon="-1.65104">
        <ele>56</ele>
        <time>2021-05-01T11:23:33.000Z</time>
      </trkpt>
      <trkpt lat="47.03616" lon="-1.65085">
        <ele>56</ele>
        <time>2021-05-01T11:23:35.000Z</time>
      </trkpt>
      <trkpt lat="47.03624" lon="-1.65065">
        <ele>56</ele>
        <time>2021-05-01T11:23:37.000Z</time>
      </trkpt>
      <trkpt lat="47.03631" lon="-1.65044">
        <ele>55</ele>
        <time>2021-05-01T11:23:39.000Z</time>
      </trkpt>
      <trkpt lat="47.03639" lon="-1.65024">
        <ele>55</ele>
        <time>2021-05-01T11:23:41.000Z</time>
      </trkpt>
      <trkpt lat="47.03646" lon="-1.65003">
        <ele>54</ele>
        <time>2021-05-01T11:23:43.000Z</time>
      </trkpt>
      <trkpt lat="47.03653" lon="-1.64983">
        <ele>54</ele>
        <time>2021-05-01T11:23:45.000Z</time>
      </trkpt>
      <trkpt lat="47.03658" lon="-1.64962">
        <ele>54</ele>
        <time>2021-05-01T11:23:47.000Z</time>
      </trkpt>
      <trkpt lat="47.03665" lon="-1.64942">
        <ele>53</ele>
        <time>2021-05-01T11:23:49.000Z</time>
      </trkpt>
      <trkpt lat="47.03674" lon="-1.64924">
        <ele>53</ele>
        <time>2021-05-01T11:23:51.000Z</time>
      </trkpt>
      <trkpt lat="47.03682" lon="-1.64906">
        <ele>53</ele>
        <time>2021-05-01T11:23:53.000Z</time>
      </trkpt>
      <trkpt lat="47.0369" lon="-1.64886">
        <ele>53</ele>
        <time>2021-05-01T11:23:55.000Z</time>
      </trkpt>
      <trkpt lat="47.03697" lon="-1.64865">
        <ele>53</ele>
        <time>2021-05-01T11:23:57.000Z</time>
      </trkpt>
      <trkpt lat="47.03704" lon="-1.64846">
        <ele>53</ele>
        <time>2021-05-01T11:23:59.000Z</time>
      </trkpt>
      <trkpt lat="47.03711" lon="-1.64826">
        <ele>52</ele>
        <time>2021-05-01T11:24:01.000Z</time>
      </trkpt>
      <trkpt lat="47.03718" lon="-1.64808">
        <ele>52</ele>
        <time>2021-05-01T11:24:03.000Z</time>
      </trkpt>
      <trkpt lat="47.03725" lon="-1.64789">
        <ele>52</ele>
        <time>2021-05-01T11:24:05.000Z</time>
      </trkpt>
      <trkpt lat="47.0373" lon="-1.6477">
        <ele>52</ele>
        <time>2021-05-01T11:24:07.000Z</time>
      </trkpt>
      <trkpt lat="47.03731" lon="-1.64749">
        <ele>53</ele>
        <time>2021-05-01T11:24:09.000Z</time>
      </trkpt>
      <trkpt lat="47.03733" lon="-1.64729">
        <ele>53</ele>
        <time>2021-05-01T11:24:11.000Z</time>
      </trkpt>
      <trkpt lat="47.0374" lon="-1.64713">
        <ele>52</ele>
        <time>2021-05-01T11:24:13.000Z</time>
      </trkpt>
      <trkpt lat="47.03743" lon="-1.64692">
        <ele>52</ele>
        <time>2021-05-01T11:24:15.000Z</time>
      </trkpt>
      <trkpt lat="47.03745" lon="-1.6467">
        <ele>52</ele>
        <time>2021-05-01T11:24:17.000Z</time>
      </trkpt>
      <trkpt lat="47.03747" lon="-1.64648">
        <ele>52</ele>
        <time>2021-05-01T11:24:19.000Z</time>
      </trkpt>
      <trkpt lat="47.03748" lon="-1.64626">
        <ele>52</ele>
        <time>2021-05-01T11:24:21.000Z</time>
      </trkpt>
      <trkpt lat="47.0375" lon="-1.64604">
        <ele>52</ele>
        <time>2021-05-01T11:24:23.000Z</time>
      </trkpt>
      <trkpt lat="47.03752" lon="-1.64582">
        <ele>52</ele>
        <time>2021-05-01T11:24:25.000Z</time>
      </trkpt>
      <trkpt lat="47.03754" lon="-1.6456">
        <ele>52</ele>
        <time>2021-05-01T11:24:27.000Z</time>
      </trkpt>
      <trkpt lat="47.03756" lon="-1.64538">
        <ele>52</ele>
        <time>2021-05-01T11:24:29.000Z</time>
      </trkpt>
      <trkpt lat="47.03757" lon="-1.64516">
        <ele>52</ele>
        <time>2021-05-01T11:24:31.000Z</time>
      </trkpt>
      <trkpt lat="47.03758" lon="-1.64494">
        <ele>52</ele>
        <time>2021-05-01T11:24:33.000Z</time>
      </trkpt>
      <trkpt lat="47.03757" lon="-1.64472">
        <ele>52</ele>
        <time>2021-05-01T11:24:35.000Z</time>
      </trkpt>
      <trkpt lat="47.03756" lon="-1.64451">
        <ele>53</ele>
        <time>2021-05-01T11:24:37.000Z</time>
      </trkpt>
      <trkpt lat="47.03754" lon="-1.6443">
        <ele>53</ele>
        <time>2021-05-01T11:24:39.000Z</time>
      </trkpt>
      <trkpt lat="47.03749" lon="-1.6441">
        <ele>53</ele>
        <time>2021-05-01T11:24:41.000Z</time>
      </trkpt>
      <trkpt lat="47.03743" lon="-1.6439">
        <ele>52</ele>
        <time>2021-05-01T11:24:43.000Z</time>
      </trkpt>
      <trkpt lat="47.03737" lon="-1.64371">
        <ele>52</ele>
        <time>2021-05-01T11:24:45.000Z</time>
      </trkpt>
      <trkpt lat="47.03729" lon="-1.64353">
        <ele>53</ele>
        <time>2021-05-01T11:24:47.000Z</time>
      </trkpt>
      <trkpt lat="47.03721" lon="-1.64336">
        <ele>54</ele>
        <time>2021-05-01T11:24:49.000Z</time>
      </trkpt>
      <trkpt lat="47.03712" lon="-1.64319">
        <ele>54</ele>
        <time>2021-05-01T11:24:51.000Z</time>
      </trkpt>
      <trkpt lat="47.03704" lon="-1.64303">
        <ele>55</ele>
        <time>2021-05-01T11:24:53.000Z</time>
      </trkpt>
      <trkpt lat="47.03696" lon="-1.64287">
        <ele>55</ele>
        <time>2021-05-01T11:24:55.000Z</time>
      </trkpt>
      <trkpt lat="47.03689" lon="-1.64271">
        <ele>56</ele>
        <time>2021-05-01T11:24:57.000Z</time>
      </trkpt>
      <trkpt lat="47.03681" lon="-1.64257">
        <ele>57</ele>
        <time>2021-05-01T11:24:59.000Z</time>
      </trkpt>
      <trkpt lat="47.03674" lon="-1.64241">
        <ele>56</ele>
        <time>2021-05-01T11:25:01.000Z</time>
      </trkpt>
      <trkpt lat="47.03667" lon="-1.64226">
        <ele>56</ele>
        <time>2021-05-01T11:25:03.000Z</time>
      </trkpt>
      <trkpt lat="47.03658" lon="-1.64213">
        <ele>56</ele>
        <time>2021-05-01T11:25:05.000Z</time>
      </trkpt>
      <trkpt lat="47.03651" lon="-1.642">
        <ele>57</ele>
        <time>2021-05-01T11:25:07.000Z</time>
      </trkpt>
      <trkpt lat="47.03644" lon="-1.64182">
        <ele>56</ele>
        <time>2021-05-01T11:25:09.000Z</time>
      </trkpt>
      <trkpt lat="47.03637" lon="-1.64165">
        <ele>56</ele>
        <time>2021-05-01T11:25:11.000Z</time>
      </trkpt>
      <trkpt lat="47.03636" lon="-1.64145">
        <ele>56</ele>
        <time>2021-05-01T11:25:13.000Z</time>
      </trkpt>
      <trkpt lat="47.03647" lon="-1.64134">
        <ele>55</ele>
        <time>2021-05-01T11:25:15.000Z</time>
      </trkpt>
      <trkpt lat="47.03661" lon="-1.64127">
        <ele>55</ele>
        <time>2021-05-01T11:25:17.000Z</time>
      </trkpt>
      <trkpt lat="47.03675" lon="-1.64123">
        <ele>54</ele>
        <time>2021-05-01T11:25:19.000Z</time>
      </trkpt>
      <trkpt lat="47.03689" lon="-1.64119">
        <ele>54</ele>
        <time>2021-05-01T11:25:21.000Z</time>
      </trkpt>
      <trkpt lat="47.03703" lon="-1.64116">
        <ele>54</ele>
        <time>2021-05-01T11:25:23.000Z</time>
      </trkpt>
      <trkpt lat="47.03717" lon="-1.64113">
        <ele>54</ele>
        <time>2021-05-01T11:25:25.000Z</time>
      </trkpt>
      <trkpt lat="47.0373" lon="-1.64109">
        <ele>53</ele>
        <time>2021-05-01T11:25:27.000Z</time>
      </trkpt>
      <trkpt lat="47.03744" lon="-1.64106">
        <ele>53</ele>
        <time>2021-05-01T11:25:29.000Z</time>
      </trkpt>
      <trkpt lat="47.03758" lon="-1.64104">
        <ele>52</ele>
        <time>2021-05-01T11:25:31.000Z</time>
      </trkpt>
      <trkpt lat="47.03771" lon="-1.641">
        <ele>53</ele>
        <time>2021-05-01T11:25:33.000Z</time>
      </trkpt>
      <trkpt lat="47.03785" lon="-1.64097">
        <ele>53</ele>
        <time>2021-05-01T11:25:35.000Z</time>
      </trkpt>
      <trkpt lat="47.03798" lon="-1.64094">
        <ele>53</ele>
        <time>2021-05-01T11:25:37.000Z</time>
      </trkpt>
      <trkpt lat="47.03818" lon="-1.6409">
        <ele>52</ele>
        <time>2021-05-01T11:25:40.000Z</time>
      </trkpt>
      <trkpt lat="47.03831" lon="-1.64088">
        <ele>53</ele>
        <time>2021-05-01T11:25:42.000Z</time>
      </trkpt>
      <trkpt lat="47.03843" lon="-1.64084">
        <ele>53</ele>
        <time>2021-05-01T11:25:44.000Z</time>
      </trkpt>
      <trkpt lat="47.03857" lon="-1.64085">
        <ele>52</ele>
        <time>2021-05-01T11:25:46.000Z</time>
      </trkpt>
      <trkpt lat="47.03869" lon="-1.64092">
        <ele>53</ele>
        <time>2021-05-01T11:25:48.000Z</time>
      </trkpt>
      <trkpt lat="47.03882" lon="-1.64097">
        <ele>53</ele>
        <time>2021-05-01T11:25:50.000Z</time>
      </trkpt>
      <trkpt lat="47.03895" lon="-1.64102">
        <ele>53</ele>
        <time>2021-05-01T11:25:52.000Z</time>
      </trkpt>
      <trkpt lat="47.03907" lon="-1.6411">
        <ele>53</ele>
        <time>2021-05-01T11:25:54.000Z</time>
      </trkpt>
      <trkpt lat="47.03925" lon="-1.64122">
        <ele>53</ele>
        <time>2021-05-01T11:25:57.000Z</time>
      </trkpt>
      <trkpt lat="47.03938" lon="-1.64129">
        <ele>53</ele>
        <time>2021-05-01T11:25:59.000Z</time>
      </trkpt>
      <trkpt lat="47.0395" lon="-1.64136">
        <ele>52</ele>
        <time>2021-05-01T11:26:01.000Z</time>
      </trkpt>
      <trkpt lat="47.03963" lon="-1.6414">
        <ele>53</ele>
        <time>2021-05-01T11:26:03.000Z</time>
      </trkpt>
      <trkpt lat="47.03984" lon="-1.64139">
        <ele>53</ele>
        <time>2021-05-01T11:26:06.000Z</time>
      </trkpt>
      <trkpt lat="47.03996" lon="-1.64134">
        <ele>55</ele>
        <time>2021-05-01T11:26:08.000Z</time>
      </trkpt>
      <trkpt lat="47.04009" lon="-1.64127">
        <ele>55</ele>
        <time>2021-05-01T11:26:10.000Z</time>
      </trkpt>
      <trkpt lat="47.0402" lon="-1.64121">
        <ele>54</ele>
        <time>2021-05-01T11:26:12.000Z</time>
      </trkpt>
      <trkpt lat="47.04033" lon="-1.64115">
        <ele>52</ele>
        <time>2021-05-01T11:26:14.000Z</time>
      </trkpt>
      <trkpt lat="47.04053" lon="-1.64105">
        <ele>51</ele>
        <time>2021-05-01T11:26:17.000Z</time>
      </trkpt>
      <trkpt lat="47.04067" lon="-1.64099">
        <ele>51</ele>
        <time>2021-05-01T11:26:19.000Z</time>
      </trkpt>
      <trkpt lat="47.04081" lon="-1.64093">
        <ele>50</ele>
        <time>2021-05-01T11:26:21.000Z</time>
      </trkpt>
      <trkpt lat="47.04103" lon="-1.64084">
        <ele>50</ele>
        <time>2021-05-01T11:26:24.000Z</time>
      </trkpt>
      <trkpt lat="47.04116" lon="-1.64078">
        <ele>50</ele>
        <time>2021-05-01T11:26:26.000Z</time>
      </trkpt>
      <trkpt lat="47.04138" lon="-1.64068">
        <ele>50</ele>
        <time>2021-05-01T11:26:29.000Z</time>
      </trkpt>
      <trkpt lat="47.04151" lon="-1.64061">
        <ele>50</ele>
        <time>2021-05-01T11:26:31.000Z</time>
      </trkpt>
      <trkpt lat="47.04164" lon="-1.64056">
        <ele>49</ele>
        <time>2021-05-01T11:26:33.000Z</time>
      </trkpt>
      <trkpt lat="47.04177" lon="-1.6405">
        <ele>49</ele>
        <time>2021-05-01T11:26:35.000Z</time>
      </trkpt>
      <trkpt lat="47.0419" lon="-1.64044">
        <ele>49</ele>
        <time>2021-05-01T11:26:37.000Z</time>
      </trkpt>
      <trkpt lat="47.04209" lon="-1.64036">
        <ele>50</ele>
        <time>2021-05-01T11:26:40.000Z</time>
      </trkpt>
      <trkpt lat="47.04229" lon="-1.64027">
        <ele>49</ele>
        <time>2021-05-01T11:26:43.000Z</time>
      </trkpt>
      <trkpt lat="47.04248" lon="-1.64019">
        <ele>49</ele>
        <time>2021-05-01T11:26:46.000Z</time>
      </trkpt>
      <trkpt lat="47.04261" lon="-1.64013">
        <ele>49</ele>
        <time>2021-05-01T11:26:48.000Z</time>
      </trkpt>
      <trkpt lat="47.04273" lon="-1.64007">
        <ele>49</ele>
        <time>2021-05-01T11:26:50.000Z</time>
      </trkpt>
      <trkpt lat="47.04285" lon="-1.64002">
        <ele>50</ele>
        <time>2021-05-01T11:26:52.000Z</time>
      </trkpt>
      <trkpt lat="47.04297" lon="-1.63997">
        <ele>50</ele>
        <time>2021-05-01T11:26:54.000Z</time>
      </trkpt>
      <trkpt lat="47.04309" lon="-1.63992">
        <ele>50</ele>
        <time>2021-05-01T11:26:56.000Z</time>
      </trkpt>
      <trkpt lat="47.04328" lon="-1.63983">
        <ele>50</ele>
        <time>2021-05-01T11:26:59.000Z</time>
      </trkpt>
      <trkpt lat="47.04341" lon="-1.63977">
        <ele>50</ele>
        <time>2021-05-01T11:27:01.000Z</time>
      </trkpt>
      <trkpt lat="47.04353" lon="-1.63971">
        <ele>50</ele>
        <time>2021-05-01T11:27:03.000Z</time>
      </trkpt>
      <trkpt lat="47.04366" lon="-1.63966">
        <ele>50</ele>
        <time>2021-05-01T11:27:05.000Z</time>
      </trkpt>
      <trkpt lat="47.04378" lon="-1.63961">
        <ele>50</ele>
        <time>2021-05-01T11:27:07.000Z</time>
      </trkpt>
      <trkpt lat="47.0439" lon="-1.63956">
        <ele>50</ele>
        <time>2021-05-01T11:27:09.000Z</time>
      </trkpt>
      <trkpt lat="47.04403" lon="-1.63949">
        <ele>50</ele>
        <time>2021-05-01T11:27:11.000Z</time>
      </trkpt>
      <trkpt lat="47.04416" lon="-1.63943">
        <ele>50</ele>
        <time>2021-05-01T11:27:13.000Z</time>
      </trkpt>
      <trkpt lat="47.04429" lon="-1.63938">
        <ele>49</ele>
        <time>2021-05-01T11:27:15.000Z</time>
      </trkpt>
      <trkpt lat="47.04441" lon="-1.63932">
        <ele>49</ele>
        <time>2021-05-01T11:27:17.000Z</time>
      </trkpt>
      <trkpt lat="47.04459" lon="-1.63922">
        <ele>49</ele>
        <time>2021-05-01T11:27:20.000Z</time>
      </trkpt>
      <trkpt lat="47.0447" lon="-1.63911">
        <ele>49</ele>
        <time>2021-05-01T11:27:22.000Z</time>
      </trkpt>
      <trkpt lat="47.04483" lon="-1.63907">
        <ele>50</ele>
        <time>2021-05-01T11:27:24.000Z</time>
      </trkpt>
      <trkpt lat="47.04495" lon="-1.63904">
        <ele>49</ele>
        <time>2021-05-01T11:27:26.000Z</time>
      </trkpt>
      <trkpt lat="47.04507" lon="-1.63896">
        <ele>49</ele>
        <time>2021-05-01T11:27:28.000Z</time>
      </trkpt>
      <trkpt lat="47.04526" lon="-1.63884">
        <ele>49</ele>
        <time>2021-05-01T11:27:31.000Z</time>
      </trkpt>
      <trkpt lat="47.04538" lon="-1.63877">
        <ele>49</ele>
        <time>2021-05-01T11:27:33.000Z</time>
      </trkpt>
      <trkpt lat="47.0455" lon="-1.63869">
        <ele>49</ele>
        <time>2021-05-01T11:27:35.000Z</time>
      </trkpt>
      <trkpt lat="47.04563" lon="-1.63861">
        <ele>49</ele>
        <time>2021-05-01T11:27:37.000Z</time>
      </trkpt>
      <trkpt lat="47.04575" lon="-1.63854">
        <ele>49</ele>
        <time>2021-05-01T11:27:39.000Z</time>
      </trkpt>
      <trkpt lat="47.04587" lon="-1.63848">
        <ele>50</ele>
        <time>2021-05-01T11:27:41.000Z</time>
      </trkpt>
      <trkpt lat="47.04599" lon="-1.63844">
        <ele>50</ele>
        <time>2021-05-01T11:27:43.000Z</time>
      </trkpt>
      <trkpt lat="47.04611" lon="-1.63841">
        <ele>50</ele>
        <time>2021-05-01T11:27:45.000Z</time>
      </trkpt>
      <trkpt lat="47.04622" lon="-1.63839">
        <ele>50</ele>
        <time>2021-05-01T11:27:47.000Z</time>
      </trkpt>
      <trkpt lat="47.04633" lon="-1.63838">
        <ele>51</ele>
        <time>2021-05-01T11:27:49.000Z</time>
      </trkpt>
      <trkpt lat="47.04644" lon="-1.63836">
        <ele>51</ele>
        <time>2021-05-01T11:27:51.000Z</time>
      </trkpt>
      <trkpt lat="47.04655" lon="-1.63831">
        <ele>52</ele>
        <time>2021-05-01T11:27:53.000Z</time>
      </trkpt>
      <trkpt lat="47.04665" lon="-1.63824">
        <ele>52</ele>
        <time>2021-05-01T11:27:55.000Z</time>
      </trkpt>
      <trkpt lat="47.04675" lon="-1.63818">
        <ele>52</ele>
        <time>2021-05-01T11:27:57.000Z</time>
      </trkpt>
      <trkpt lat="47.04686" lon="-1.63812">
        <ele>53</ele>
        <time>2021-05-01T11:27:59.000Z</time>
      </trkpt>
      <trkpt lat="47.04696" lon="-1.63807">
        <ele>53</ele>
        <time>2021-05-01T11:28:01.000Z</time>
      </trkpt>
      <trkpt lat="47.04707" lon="-1.63803">
        <ele>54</ele>
        <time>2021-05-01T11:28:03.000Z</time>
      </trkpt>
      <trkpt lat="47.04718" lon="-1.63797">
        <ele>54</ele>
        <time>2021-05-01T11:28:05.000Z</time>
      </trkpt>
      <trkpt lat="47.0473" lon="-1.63796">
        <ele>54</ele>
        <time>2021-05-01T11:28:07.000Z</time>
      </trkpt>
      <trkpt lat="47.04742" lon="-1.63798">
        <ele>55</ele>
        <time>2021-05-01T11:28:09.000Z</time>
      </trkpt>
      <trkpt lat="47.0476" lon="-1.63792">
        <ele>55</ele>
        <time>2021-05-01T11:28:12.000Z</time>
      </trkpt>
      <trkpt lat="47.04772" lon="-1.63787">
        <ele>56</ele>
        <time>2021-05-01T11:28:14.000Z</time>
      </trkpt>
      <trkpt lat="47.04784" lon="-1.63783">
        <ele>56</ele>
        <time>2021-05-01T11:28:16.000Z</time>
      </trkpt>
      <trkpt lat="47.04795" lon="-1.6378">
        <ele>57</ele>
        <time>2021-05-01T11:28:18.000Z</time>
      </trkpt>
      <trkpt lat="47.04806" lon="-1.63777">
        <ele>57</ele>
        <time>2021-05-01T11:28:20.000Z</time>
      </trkpt>
      <trkpt lat="47.04817" lon="-1.63775">
        <ele>57</ele>
        <time>2021-05-01T11:28:22.000Z</time>
      </trkpt>
      <trkpt lat="47.04828" lon="-1.63773">
        <ele>57</ele>
        <time>2021-05-01T11:28:24.000Z</time>
      </trkpt>
      <trkpt lat="47.04839" lon="-1.63771">
        <ele>57</ele>
        <time>2021-05-01T11:28:26.000Z</time>
      </trkpt>
      <trkpt lat="47.04851" lon="-1.63769">
        <ele>57</ele>
        <time>2021-05-01T11:28:28.000Z</time>
      </trkpt>
      <trkpt lat="47.04862" lon="-1.63767">
        <ele>57</ele>
        <time>2021-05-01T11:28:30.000Z</time>
      </trkpt>
      <trkpt lat="47.04874" lon="-1.63764">
        <ele>57</ele>
        <time>2021-05-01T11:28:32.000Z</time>
      </trkpt>
      <trkpt lat="47.04886" lon="-1.63762">
        <ele>57</ele>
        <time>2021-05-01T11:28:34.000Z</time>
      </trkpt>
      <trkpt lat="47.04899" lon="-1.6376">
        <ele>56</ele>
        <time>2021-05-01T11:28:36.000Z</time>
      </trkpt>
      <trkpt lat="47.04912" lon="-1.63757">
        <ele>56</ele>
        <time>2021-05-01T11:28:38.000Z</time>
      </trkpt>
      <trkpt lat="47.04924" lon="-1.63752">
        <ele>56</ele>
        <time>2021-05-01T11:28:40.000Z</time>
      </trkpt>
      <trkpt lat="47.04936" lon="-1.63744">
        <ele>56</ele>
        <time>2021-05-01T11:28:42.000Z</time>
      </trkpt>
      <trkpt lat="47.04945" lon="-1.63729">
        <ele>56</ele>
        <time>2021-05-01T11:28:44.000Z</time>
      </trkpt>
      <trkpt lat="47.04948" lon="-1.63711">
        <ele>55</ele>
        <time>2021-05-01T11:28:46.000Z</time>
      </trkpt>
      <trkpt lat="47.04949" lon="-1.63692">
        <ele>55</ele>
        <time>2021-05-01T11:28:48.000Z</time>
      </trkpt>
      <trkpt lat="47.04948" lon="-1.63673">
        <ele>55</ele>
        <time>2021-05-01T11:28:50.000Z</time>
      </trkpt>
      <trkpt lat="47.04947" lon="-1.63653">
        <ele>54</ele>
        <time>2021-05-01T11:28:52.000Z</time>
      </trkpt>
      <trkpt lat="47.04949" lon="-1.63633">
        <ele>54</ele>
        <time>2021-05-01T11:28:54.000Z</time>
      </trkpt>
      <trkpt lat="47.04954" lon="-1.63612">
        <ele>53</ele>
        <time>2021-05-01T11:28:56.000Z</time>
      </trkpt>
      <trkpt lat="47.04962" lon="-1.63594">
        <ele>53</ele>
        <time>2021-05-01T11:28:58.000Z</time>
      </trkpt>
      <trkpt lat="47.04972" lon="-1.63577">
        <ele>52</ele>
        <time>2021-05-01T11:29:00.000Z</time>
      </trkpt>
      <trkpt lat="47.04985" lon="-1.63564">
        <ele>52</ele>
        <time>2021-05-01T11:29:02.000Z</time>
      </trkpt>
      <trkpt lat="47.04998" lon="-1.63554">
        <ele>52</ele>
        <time>2021-05-01T11:29:04.000Z</time>
      </trkpt>
      <trkpt lat="47.05012" lon="-1.63547">
        <ele>52</ele>
        <time>2021-05-01T11:29:06.000Z</time>
      </trkpt>
      <trkpt lat="47.05025" lon="-1.63541">
        <ele>51</ele>
        <time>2021-05-01T11:29:08.000Z</time>
      </trkpt>
      <trkpt lat="47.05039" lon="-1.63536">
        <ele>51</ele>
        <time>2021-05-01T11:29:10.000Z</time>
      </trkpt>
      <trkpt lat="47.05052" lon="-1.63531">
        <ele>51</ele>
        <time>2021-05-01T11:29:12.000Z</time>
      </trkpt>
      <trkpt lat="47.05065" lon="-1.63526">
        <ele>51</ele>
        <time>2021-05-01T11:29:14.000Z</time>
      </trkpt>
      <trkpt lat="47.05078" lon="-1.63521">
        <ele>51</ele>
        <time>2021-05-01T11:29:16.000Z</time>
      </trkpt>
      <trkpt lat="47.05091" lon="-1.63516">
        <ele>51</ele>
        <time>2021-05-01T11:29:18.000Z</time>
      </trkpt>
      <trkpt lat="47.05103" lon="-1.63511">
        <ele>51</ele>
        <time>2021-05-01T11:29:20.000Z</time>
      </trkpt>
      <trkpt lat="47.05116" lon="-1.63506">
        <ele>51</ele>
        <time>2021-05-01T11:29:22.000Z</time>
      </trkpt>
      <trkpt lat="47.0513" lon="-1.63501">
        <ele>51</ele>
        <time>2021-05-01T11:29:24.000Z</time>
      </trkpt>
      <trkpt lat="47.05143" lon="-1.63496">
        <ele>51</ele>
        <time>2021-05-01T11:29:26.000Z</time>
      </trkpt>
      <trkpt lat="47.05156" lon="-1.6349">
        <ele>51</ele>
        <time>2021-05-01T11:29:28.000Z</time>
      </trkpt>
      <trkpt lat="47.05169" lon="-1.63485">
        <ele>51</ele>
        <time>2021-05-01T11:29:30.000Z</time>
      </trkpt>
      <trkpt lat="47.05182" lon="-1.63479">
        <ele>51</ele>
        <time>2021-05-01T11:29:32.000Z</time>
      </trkpt>
      <trkpt lat="47.05196" lon="-1.63474">
        <ele>51</ele>
        <time>2021-05-01T11:29:34.000Z</time>
      </trkpt>
      <trkpt lat="47.05209" lon="-1.63469">
        <ele>51</ele>
        <time>2021-05-01T11:29:36.000Z</time>
      </trkpt>
      <trkpt lat="47.05223" lon="-1.63465">
        <ele>51</ele>
        <time>2021-05-01T11:29:38.000Z</time>
      </trkpt>
      <trkpt lat="47.05236" lon="-1.63461">
        <ele>51</ele>
        <time>2021-05-01T11:29:40.000Z</time>
      </trkpt>
      <trkpt lat="47.05249" lon="-1.63457">
        <ele>51</ele>
        <time>2021-05-01T11:29:42.000Z</time>
      </trkpt>
      <trkpt lat="47.05261" lon="-1.63454">
        <ele>52</ele>
        <time>2021-05-01T11:29:44.000Z</time>
      </trkpt>
      <trkpt lat="47.05274" lon="-1.63451">
        <ele>52</ele>
        <time>2021-05-01T11:29:46.000Z</time>
      </trkpt>
      <trkpt lat="47.05286" lon="-1.63448">
        <ele>52</ele>
        <time>2021-05-01T11:29:48.000Z</time>
      </trkpt>
      <trkpt lat="47.05299" lon="-1.63446">
        <ele>51</ele>
        <time>2021-05-01T11:29:50.000Z</time>
      </trkpt>
      <trkpt lat="47.05311" lon="-1.63446">
        <ele>51</ele>
        <time>2021-05-01T11:29:52.000Z</time>
      </trkpt>
      <trkpt lat="47.05324" lon="-1.63444">
        <ele>51</ele>
        <time>2021-05-01T11:29:54.000Z</time>
      </trkpt>
      <trkpt lat="47.05336" lon="-1.63444">
        <ele>51</ele>
        <time>2021-05-01T11:29:56.000Z</time>
      </trkpt>
      <trkpt lat="47.05348" lon="-1.63442">
        <ele>51</ele>
        <time>2021-05-01T11:29:58.000Z</time>
      </trkpt>
      <trkpt lat="47.0536" lon="-1.63437">
        <ele>51</ele>
        <time>2021-05-01T11:30:00.000Z</time>
      </trkpt>
      <trkpt lat="47.05371" lon="-1.6343">
        <ele>51</ele>
        <time>2021-05-01T11:30:02.000Z</time>
      </trkpt>
      <trkpt lat="47.05384" lon="-1.63428">
        <ele>51</ele>
        <time>2021-05-01T11:30:04.000Z</time>
      </trkpt>
      <trkpt lat="47.05397" lon="-1.63432">
        <ele>51</ele>
        <time>2021-05-01T11:30:06.000Z</time>
      </trkpt>
      <trkpt lat="47.05411" lon="-1.63431">
        <ele>51</ele>
        <time>2021-05-01T11:30:08.000Z</time>
      </trkpt>
      <trkpt lat="47.05424" lon="-1.63428">
        <ele>52</ele>
        <time>2021-05-01T11:30:10.000Z</time>
      </trkpt>
      <trkpt lat="47.05436" lon="-1.63425">
        <ele>52</ele>
        <time>2021-05-01T11:30:12.000Z</time>
      </trkpt>
      <trkpt lat="47.05449" lon="-1.63423">
        <ele>51</ele>
        <time>2021-05-01T11:30:14.000Z</time>
      </trkpt>
      <trkpt lat="47.05462" lon="-1.63421">
        <ele>51</ele>
        <time>2021-05-01T11:30:16.000Z</time>
      </trkpt>
      <trkpt lat="47.05475" lon="-1.63418">
        <ele>51</ele>
        <time>2021-05-01T11:30:18.000Z</time>
      </trkpt>
      <trkpt lat="47.05488" lon="-1.63416">
        <ele>51</ele>
        <time>2021-05-01T11:30:20.000Z</time>
      </trkpt>
      <trkpt lat="47.05502" lon="-1.63415">
        <ele>51</ele>
        <time>2021-05-01T11:30:22.000Z</time>
      </trkpt>
      <trkpt lat="47.05516" lon="-1.63413">
        <ele>51</ele>
        <time>2021-05-01T11:30:24.000Z</time>
      </trkpt>
      <trkpt lat="47.05529" lon="-1.63409">
        <ele>51</ele>
        <time>2021-05-01T11:30:26.000Z</time>
      </trkpt>
      <trkpt lat="47.05542" lon="-1.63405">
        <ele>51</ele>
        <time>2021-05-01T11:30:28.000Z</time>
      </trkpt>
      <trkpt lat="47.05555" lon="-1.63401">
        <ele>51</ele>
        <time>2021-05-01T11:30:30.000Z</time>
      </trkpt>
      <trkpt lat="47.05568" lon="-1.63395">
        <ele>51</ele>
        <time>2021-05-01T11:30:32.000Z</time>
      </trkpt>
      <trkpt lat="47.0558" lon="-1.6339">
        <ele>52</ele>
        <time>2021-05-01T11:30:34.000Z</time>
      </trkpt>
      <trkpt lat="47.05593" lon="-1.63384">
        <ele>52</ele>
        <time>2021-05-01T11:30:36.000Z</time>
      </trkpt>
      <trkpt lat="47.05605" lon="-1.63378">
        <ele>52</ele>
        <time>2021-05-01T11:30:38.000Z</time>
      </trkpt>
      <trkpt lat="47.05617" lon="-1.63372">
        <ele>52</ele>
        <time>2021-05-01T11:30:40.000Z</time>
      </trkpt>
      <trkpt lat="47.0563" lon="-1.63366">
        <ele>51</ele>
        <time>2021-05-01T11:30:42.000Z</time>
      </trkpt>
      <trkpt lat="47.05642" lon="-1.63361">
        <ele>51</ele>
        <time>2021-05-01T11:30:44.000Z</time>
      </trkpt>
      <trkpt lat="47.05653" lon="-1.63356">
        <ele>52</ele>
        <time>2021-05-01T11:30:46.000Z</time>
      </trkpt>
      <trkpt lat="47.05665" lon="-1.6335">
        <ele>52</ele>
        <time>2021-05-01T11:30:48.000Z</time>
      </trkpt>
      <trkpt lat="47.05677" lon="-1.63345">
        <ele>52</ele>
        <time>2021-05-01T11:30:50.000Z</time>
      </trkpt>
      <trkpt lat="47.05689" lon="-1.63339">
        <ele>52</ele>
        <time>2021-05-01T11:30:52.000Z</time>
      </trkpt>
      <trkpt lat="47.05702" lon="-1.63333">
        <ele>51</ele>
        <time>2021-05-01T11:30:54.000Z</time>
      </trkpt>
      <trkpt lat="47.05715" lon="-1.63327">
        <ele>51</ele>
        <time>2021-05-01T11:30:56.000Z</time>
      </trkpt>
      <trkpt lat="47.05727" lon="-1.63322">
        <ele>52</ele>
        <time>2021-05-01T11:30:58.000Z</time>
      </trkpt>
      <trkpt lat="47.0574" lon="-1.63316">
        <ele>52</ele>
        <time>2021-05-01T11:31:00.000Z</time>
      </trkpt>
      <trkpt lat="47.05752" lon="-1.6331">
        <ele>52</ele>
        <time>2021-05-01T11:31:02.000Z</time>
      </trkpt>
      <trkpt lat="47.05765" lon="-1.63305">
        <ele>52</ele>
        <time>2021-05-01T11:31:04.000Z</time>
      </trkpt>
      <trkpt lat="47.05778" lon="-1.63299">
        <ele>52</ele>
        <time>2021-05-01T11:31:06.000Z</time>
      </trkpt>
      <trkpt lat="47.05791" lon="-1.63292">
        <ele>52</ele>
        <time>2021-05-01T11:31:08.000Z</time>
      </trkpt>
      <trkpt lat="47.05803" lon="-1.63286">
        <ele>52</ele>
        <time>2021-05-01T11:31:10.000Z</time>
      </trkpt>
      <trkpt lat="47.05815" lon="-1.6328">
        <ele>52</ele>
        <time>2021-05-01T11:31:12.000Z</time>
      </trkpt>
      <trkpt lat="47.05827" lon="-1.63274">
        <ele>52</ele>
        <time>2021-05-01T11:31:14.000Z</time>
      </trkpt>
      <trkpt lat="47.0584" lon="-1.63268">
        <ele>52</ele>
        <time>2021-05-01T11:31:16.000Z</time>
      </trkpt>
      <trkpt lat="47.05853" lon="-1.63262">
        <ele>52</ele>
        <time>2021-05-01T11:31:18.000Z</time>
      </trkpt>
      <trkpt lat="47.05865" lon="-1.63256">
        <ele>52</ele>
        <time>2021-05-01T11:31:20.000Z</time>
      </trkpt>
      <trkpt lat="47.05878" lon="-1.6325">
        <ele>52</ele>
        <time>2021-05-01T11:31:22.000Z</time>
      </trkpt>
      <trkpt lat="47.05891" lon="-1.63244">
        <ele>52</ele>
        <time>2021-05-01T11:31:24.000Z</time>
      </trkpt>
      <trkpt lat="47.05904" lon="-1.63238">
        <ele>52</ele>
        <time>2021-05-01T11:31:26.000Z</time>
      </trkpt>
      <trkpt lat="47.05916" lon="-1.63233">
        <ele>52</ele>
        <time>2021-05-01T11:31:28.000Z</time>
      </trkpt>
      <trkpt lat="47.05928" lon="-1.63227">
        <ele>52</ele>
        <time>2021-05-01T11:31:30.000Z</time>
      </trkpt>
      <trkpt lat="47.05941" lon="-1.63221">
        <ele>52</ele>
        <time>2021-05-01T11:31:32.000Z</time>
      </trkpt>
      <trkpt lat="47.05953" lon="-1.63215">
        <ele>52</ele>
        <time>2021-05-01T11:31:34.000Z</time>
      </trkpt>
      <trkpt lat="47.05966" lon="-1.63209">
        <ele>52</ele>
        <time>2021-05-01T11:31:36.000Z</time>
      </trkpt>
      <trkpt lat="47.05978" lon="-1.63203">
        <ele>52</ele>
        <time>2021-05-01T11:31:38.000Z</time>
      </trkpt>
      <trkpt lat="47.05991" lon="-1.63197">
        <ele>52</ele>
        <time>2021-05-01T11:31:40.000Z</time>
      </trkpt>
      <trkpt lat="47.06003" lon="-1.63191">
        <ele>52</ele>
        <time>2021-05-01T11:31:42.000Z</time>
      </trkpt>
      <trkpt lat="47.06015" lon="-1.63186">
        <ele>52</ele>
        <time>2021-05-01T11:31:44.000Z</time>
      </trkpt>
      <trkpt lat="47.06027" lon="-1.63183">
        <ele>52</ele>
        <time>2021-05-01T11:31:46.000Z</time>
      </trkpt>
      <trkpt lat="47.06038" lon="-1.63179">
        <ele>52</ele>
        <time>2021-05-01T11:31:48.000Z</time>
      </trkpt>
      <trkpt lat="47.0605" lon="-1.63175">
        <ele>52</ele>
        <time>2021-05-01T11:31:50.000Z</time>
      </trkpt>
      <trkpt lat="47.06056" lon="-1.63189">
        <ele>52</ele>
        <time>2021-05-01T11:31:52.000Z</time>
      </trkpt>
      <trkpt lat="47.06054" lon="-1.63208">
        <ele>52</ele>
        <time>2021-05-01T11:31:54.000Z</time>
      </trkpt>
      <trkpt lat="47.06051" lon="-1.63227">
        <ele>52</ele>
        <time>2021-05-01T11:31:56.000Z</time>
      </trkpt>
      <trkpt lat="47.06048" lon="-1.63246">
        <ele>52</ele>
        <time>2021-05-01T11:31:58.000Z</time>
      </trkpt>
      <trkpt lat="47.06045" lon="-1.63265">
        <ele>53</ele>
        <time>2021-05-01T11:32:00.000Z</time>
      </trkpt>
      <trkpt lat="47.06043" lon="-1.63284">
        <ele>52</ele>
        <time>2021-05-01T11:32:02.000Z</time>
      </trkpt>
      <trkpt lat="47.06041" lon="-1.63302">
        <ele>52</ele>
        <time>2021-05-01T11:32:04.000Z</time>
      </trkpt>
      <trkpt lat="47.06047" lon="-1.63318">
        <ele>53</ele>
        <time>2021-05-01T11:32:06.000Z</time>
      </trkpt>
      <trkpt lat="47.06059" lon="-1.63325">
        <ele>52</ele>
        <time>2021-05-01T11:32:08.000Z</time>
      </trkpt>
      <trkpt lat="47.06071" lon="-1.63328">
        <ele>52</ele>
        <time>2021-05-01T11:32:10.000Z</time>
      </trkpt>
      <trkpt lat="47.06082" lon="-1.63333">
        <ele>52</ele>
        <time>2021-05-01T11:32:12.000Z</time>
      </trkpt>
      <trkpt lat="47.06094" lon="-1.63337">
        <ele>52</ele>
        <time>2021-05-01T11:32:14.000Z</time>
      </trkpt>
      <trkpt lat="47.06105" lon="-1.63342">
        <ele>52</ele>
        <time>2021-05-01T11:32:16.000Z</time>
      </trkpt>
      <trkpt lat="47.06116" lon="-1.63346">
        <ele>52</ele>
        <time>2021-05-01T11:32:18.000Z</time>
      </trkpt>
      <trkpt lat="47.06128" lon="-1.6335">
        <ele>52</ele>
        <time>2021-05-01T11:32:20.000Z</time>
      </trkpt>
      <trkpt lat="47.0614" lon="-1.63354">
        <ele>52</ele>
        <time>2021-05-01T11:32:22.000Z</time>
      </trkpt>
      <trkpt lat="47.06152" lon="-1.63359">
        <ele>52</ele>
        <time>2021-05-01T11:32:24.000Z</time>
      </trkpt>
      <trkpt lat="47.06163" lon="-1.63364">
        <ele>52</ele>
        <time>2021-05-01T11:32:26.000Z</time>
      </trkpt>
      <trkpt lat="47.06175" lon="-1.63368">
        <ele>52</ele>
        <time>2021-05-01T11:32:28.000Z</time>
      </trkpt>
      <trkpt lat="47.06186" lon="-1.63373">
        <ele>51</ele>
        <time>2021-05-01T11:32:30.000Z</time>
      </trkpt>
      <trkpt lat="47.06198" lon="-1.63378">
        <ele>52</ele>
        <time>2021-05-01T11:32:32.000Z</time>
      </trkpt>
      <trkpt lat="47.0621" lon="-1.63382">
        <ele>52</ele>
        <time>2021-05-01T11:32:34.000Z</time>
      </trkpt>
      <trkpt lat="47.06222" lon="-1.63387">
        <ele>52</ele>
        <time>2021-05-01T11:32:36.000Z</time>
      </trkpt>
      <trkpt lat="47.06234" lon="-1.63392">
        <ele>52</ele>
        <time>2021-05-01T11:32:38.000Z</time>
      </trkpt>
      <trkpt lat="47.06246" lon="-1.63396">
        <ele>52</ele>
        <time>2021-05-01T11:32:40.000Z</time>
      </trkpt>
      <trkpt lat="47.06257" lon="-1.634">
        <ele>52</ele>
        <time>2021-05-01T11:32:42.000Z</time>
      </trkpt>
      <trkpt lat="47.06269" lon="-1.63405">
        <ele>52</ele>
        <time>2021-05-01T11:32:44.000Z</time>
      </trkpt>
      <trkpt lat="47.0628" lon="-1.6341">
        <ele>52</ele>
        <time>2021-05-01T11:32:46.000Z</time>
      </trkpt>
      <trkpt lat="47.06292" lon="-1.63414">
        <ele>52</ele>
        <time>2021-05-01T11:32:48.000Z</time>
      </trkpt>
      <trkpt lat="47.06303" lon="-1.6342">
        <ele>52</ele>
        <time>2021-05-01T11:32:50.000Z</time>
      </trkpt>
      <trkpt lat="47.06315" lon="-1.63425">
        <ele>52</ele>
        <time>2021-05-01T11:32:52.000Z</time>
      </trkpt>
      <trkpt lat="47.06326" lon="-1.63432">
        <ele>52</ele>
        <time>2021-05-01T11:32:54.000Z</time>
      </trkpt>
      <trkpt lat="47.06336" lon="-1.63442">
        <ele>52</ele>
        <time>2021-05-01T11:32:56.000Z</time>
      </trkpt>
      <trkpt lat="47.06345" lon="-1.63453">
        <ele>52</ele>
        <time>2021-05-01T11:32:58.000Z</time>
      </trkpt>
      <trkpt lat="47.06354" lon="-1.63464">
        <ele>52</ele>
        <time>2021-05-01T11:33:00.000Z</time>
      </trkpt>
      <trkpt lat="47.06362" lon="-1.63476">
        <ele>53</ele>
        <time>2021-05-01T11:33:02.000Z</time>
      </trkpt>
      <trkpt lat="47.06369" lon="-1.6349">
        <ele>52</ele>
        <time>2021-05-01T11:33:04.000Z</time>
      </trkpt>
      <trkpt lat="47.06375" lon="-1.63505">
        <ele>52</ele>
        <time>2021-05-01T11:33:06.000Z</time>
      </trkpt>
      <trkpt lat="47.06383" lon="-1.63519">
        <ele>52</ele>
        <time>2021-05-01T11:33:08.000Z</time>
      </trkpt>
      <trkpt lat="47.06392" lon="-1.63528">
        <ele>52</ele>
        <time>2021-05-01T11:33:10.000Z</time>
      </trkpt>
      <trkpt lat="47.06402" lon="-1.63537">
        <ele>52</ele>
        <time>2021-05-01T11:33:12.000Z</time>
      </trkpt>
      <trkpt lat="47.06412" lon="-1.63545">
        <ele>52</ele>
        <time>2021-05-01T11:33:14.000Z</time>
      </trkpt>
      <trkpt lat="47.06422" lon="-1.63554">
        <ele>52</ele>
        <time>2021-05-01T11:33:16.000Z</time>
      </trkpt>
      <trkpt lat="47.06432" lon="-1.63563">
        <ele>52</ele>
        <time>2021-05-01T11:33:18.000Z</time>
      </trkpt>
      <trkpt lat="47.06443" lon="-1.63571">
        <ele>51</ele>
        <time>2021-05-01T11:33:20.000Z</time>
      </trkpt>
      <trkpt lat="47.06453" lon="-1.6358">
        <ele>51</ele>
        <time>2021-05-01T11:33:22.000Z</time>
      </trkpt>
      <trkpt lat="47.06463" lon="-1.63589">
        <ele>51</ele>
        <time>2021-05-01T11:33:24.000Z</time>
      </trkpt>
      <trkpt lat="47.06473" lon="-1.63598">
        <ele>51</ele>
        <time>2021-05-01T11:33:26.000Z</time>
      </trkpt>
      <trkpt lat="47.06483" lon="-1.63606">
        <ele>51</ele>
        <time>2021-05-01T11:33:28.000Z</time>
      </trkpt>
      <trkpt lat="47.06493" lon="-1.63613">
        <ele>51</ele>
        <time>2021-05-01T11:33:30.000Z</time>
      </trkpt>
      <trkpt lat="47.06504" lon="-1.63621">
        <ele>51</ele>
        <time>2021-05-01T11:33:32.000Z</time>
      </trkpt>
      <trkpt lat="47.06515" lon="-1.63629">
        <ele>51</ele>
        <time>2021-05-01T11:33:34.000Z</time>
      </trkpt>
      <trkpt lat="47.06526" lon="-1.63637">
        <ele>51</ele>
        <time>2021-05-01T11:33:36.000Z</time>
      </trkpt>
      <trkpt lat="47.06537" lon="-1.63645">
        <ele>51</ele>
        <time>2021-05-01T11:33:38.000Z</time>
      </trkpt>
      <trkpt lat="47.06548" lon="-1.63653">
        <ele>51</ele>
        <time>2021-05-01T11:33:40.000Z</time>
      </trkpt>
      <trkpt lat="47.06559" lon="-1.63661">
        <ele>51</ele>
        <time>2021-05-01T11:33:42.000Z</time>
      </trkpt>
      <trkpt lat="47.0657" lon="-1.63669">
        <ele>51</ele>
        <time>2021-05-01T11:33:44.000Z</time>
      </trkpt>
      <trkpt lat="47.0658" lon="-1.63679">
        <ele>51</ele>
        <time>2021-05-01T11:33:46.000Z</time>
      </trkpt>
      <trkpt lat="47.06589" lon="-1.6369">
        <ele>51</ele>
        <time>2021-05-01T11:33:48.000Z</time>
      </trkpt>
      <trkpt lat="47.06598" lon="-1.63701">
        <ele>51</ele>
        <time>2021-05-01T11:33:50.000Z</time>
      </trkpt>
      <trkpt lat="47.06607" lon="-1.63712">
        <ele>51</ele>
        <time>2021-05-01T11:33:52.000Z</time>
      </trkpt>
      <trkpt lat="47.06616" lon="-1.63724">
        <ele>51</ele>
        <time>2021-05-01T11:33:54.000Z</time>
      </trkpt>
      <trkpt lat="47.06625" lon="-1.63735">
        <ele>51</ele>
        <time>2021-05-01T11:33:56.000Z</time>
      </trkpt>
      <trkpt lat="47.06634" lon="-1.63747">
        <ele>51</ele>
        <time>2021-05-01T11:33:58.000Z</time>
      </trkpt>
      <trkpt lat="47.06644" lon="-1.63759">
        <ele>51</ele>
        <time>2021-05-01T11:34:00.000Z</time>
      </trkpt>
      <trkpt lat="47.06653" lon="-1.6377">
        <ele>51</ele>
        <time>2021-05-01T11:34:02.000Z</time>
      </trkpt>
      <trkpt lat="47.06663" lon="-1.63782">
        <ele>50</ele>
        <time>2021-05-01T11:34:04.000Z</time>
      </trkpt>
      <trkpt lat="47.06673" lon="-1.63794">
        <ele>50</ele>
        <time>2021-05-01T11:34:06.000Z</time>
      </trkpt>
      <trkpt lat="47.06682" lon="-1.63806">
        <ele>50</ele>
        <time>2021-05-01T11:34:08.000Z</time>
      </trkpt>
      <trkpt lat="47.06692" lon="-1.63818">
        <ele>50</ele>
        <time>2021-05-01T11:34:10.000Z</time>
      </trkpt>
      <trkpt lat="47.06702" lon="-1.6383">
        <ele>50</ele>
        <time>2021-05-01T11:34:12.000Z</time>
      </trkpt>
      <trkpt lat="47.06713" lon="-1.63837">
        <ele>50</ele>
        <time>2021-05-01T11:34:14.000Z</time>
      </trkpt>
      <trkpt lat="47.06726" lon="-1.63835">
        <ele>50</ele>
        <time>2021-05-01T11:34:16.000Z</time>
      </trkpt>
      <trkpt lat="47.06738" lon="-1.63825">
        <ele>49</ele>
        <time>2021-05-01T11:34:18.000Z</time>
      </trkpt>
      <trkpt lat="47.06749" lon="-1.63813">
        <ele>49</ele>
        <time>2021-05-01T11:34:20.000Z</time>
      </trkpt>
      <trkpt lat="47.0676" lon="-1.63801">
        <ele>48</ele>
        <time>2021-05-01T11:34:22.000Z</time>
      </trkpt>
      <trkpt lat="47.06771" lon="-1.6379">
        <ele>48</ele>
        <time>2021-05-01T11:34:24.000Z</time>
      </trkpt>
      <trkpt lat="47.06782" lon="-1.6378">
        <ele>48</ele>
        <time>2021-05-01T11:34:26.000Z</time>
      </trkpt>
      <trkpt lat="47.06793" lon="-1.63769">
        <ele>48</ele>
        <time>2021-05-01T11:34:28.000Z</time>
      </trkpt>
      <trkpt lat="47.06804" lon="-1.63759">
        <ele>48</ele>
        <time>2021-05-01T11:34:30.000Z</time>
      </trkpt>
      <trkpt lat="47.06815" lon="-1.63749">
        <ele>48</ele>
        <time>2021-05-01T11:34:32.000Z</time>
      </trkpt>
      <trkpt lat="47.06826" lon="-1.63738">
        <ele>48</ele>
        <time>2021-05-01T11:34:34.000Z</time>
      </trkpt>
      <trkpt lat="47.06835" lon="-1.63725">
        <ele>48</ele>
        <time>2021-05-01T11:34:36.000Z</time>
      </trkpt>
      <trkpt lat="47.06843" lon="-1.6371">
        <ele>48</ele>
        <time>2021-05-01T11:34:38.000Z</time>
      </trkpt>
      <trkpt lat="47.06847" lon="-1.63693">
        <ele>48</ele>
        <time>2021-05-01T11:34:40.000Z</time>
      </trkpt>
      <trkpt lat="47.0685" lon="-1.63675">
        <ele>48</ele>
        <time>2021-05-01T11:34:42.000Z</time>
      </trkpt>
      <trkpt lat="47.06853" lon="-1.63656">
        <ele>48</ele>
        <time>2021-05-01T11:34:44.000Z</time>
      </trkpt>
      <trkpt lat="47.06854" lon="-1.63637">
        <ele>49</ele>
        <time>2021-05-01T11:34:46.000Z</time>
      </trkpt>
      <trkpt lat="47.06856" lon="-1.63618">
        <ele>49</ele>
        <time>2021-05-01T11:34:48.000Z</time>
      </trkpt>
      <trkpt lat="47.06857" lon="-1.63599">
        <ele>49</ele>
        <time>2021-05-01T11:34:50.000Z</time>
      </trkpt>
      <trkpt lat="47.06858" lon="-1.63579">
        <ele>49</ele>
        <time>2021-05-01T11:34:52.000Z</time>
      </trkpt>
      <trkpt lat="47.0686" lon="-1.63561">
        <ele>49</ele>
        <time>2021-05-01T11:34:54.000Z</time>
      </trkpt>
      <trkpt lat="47.06863" lon="-1.63542">
        <ele>50</ele>
        <time>2021-05-01T11:34:56.000Z</time>
      </trkpt>
      <trkpt lat="47.06867" lon="-1.63524">
        <ele>50</ele>
        <time>2021-05-01T11:34:58.000Z</time>
      </trkpt>
      <trkpt lat="47.06872" lon="-1.63507">
        <ele>50</ele>
        <time>2021-05-01T11:35:00.000Z</time>
      </trkpt>
      <trkpt lat="47.06879" lon="-1.6349">
        <ele>50</ele>
        <time>2021-05-01T11:35:02.000Z</time>
      </trkpt>
      <trkpt lat="47.06887" lon="-1.63476">
        <ele>50</ele>
        <time>2021-05-01T11:35:04.000Z</time>
      </trkpt>
      <trkpt lat="47.06897" lon="-1.63464">
        <ele>50</ele>
        <time>2021-05-01T11:35:06.000Z</time>
      </trkpt>
      <trkpt lat="47.06908" lon="-1.63455">
        <ele>50</ele>
        <time>2021-05-01T11:35:08.000Z</time>
      </trkpt>
      <trkpt lat="47.06919" lon="-1.63448">
        <ele>51</ele>
        <time>2021-05-01T11:35:10.000Z</time>
      </trkpt>
      <trkpt lat="47.0693" lon="-1.63441">
        <ele>51</ele>
        <time>2021-05-01T11:35:12.000Z</time>
      </trkpt>
      <trkpt lat="47.06942" lon="-1.63434">
        <ele>51</ele>
        <time>2021-05-01T11:35:14.000Z</time>
      </trkpt>
      <trkpt lat="47.06954" lon="-1.63426">
        <ele>50</ele>
        <time>2021-05-01T11:35:16.000Z</time>
      </trkpt>
      <trkpt lat="47.06966" lon="-1.63416">
        <ele>50</ele>
        <time>2021-05-01T11:35:18.000Z</time>
      </trkpt>
      <trkpt lat="47.06976" lon="-1.63406">
        <ele>50</ele>
        <time>2021-05-01T11:35:20.000Z</time>
      </trkpt>
      <trkpt lat="47.06986" lon="-1.63396">
        <ele>50</ele>
        <time>2021-05-01T11:35:22.000Z</time>
      </trkpt>
      <trkpt lat="47.06996" lon="-1.63386">
        <ele>50</ele>
        <time>2021-05-01T11:35:24.000Z</time>
      </trkpt>
      <trkpt lat="47.07006" lon="-1.63375">
        <ele>50</ele>
        <time>2021-05-01T11:35:26.000Z</time>
      </trkpt>
      <trkpt lat="47.07016" lon="-1.63365">
        <ele>50</ele>
        <time>2021-05-01T11:35:28.000Z</time>
      </trkpt>
      <trkpt lat="47.07026" lon="-1.63356">
        <ele>50</ele>
        <time>2021-05-01T11:35:30.000Z</time>
      </trkpt>
      <trkpt lat="47.07036" lon="-1.63345">
        <ele>50</ele>
        <time>2021-05-01T11:35:32.000Z</time>
      </trkpt>
      <trkpt lat="47.07046" lon="-1.63335">
        <ele>50</ele>
        <time>2021-05-01T11:35:34.000Z</time>
      </trkpt>
      <trkpt lat="47.07055" lon="-1.63323">
        <ele>50</ele>
        <time>2021-05-01T11:35:36.000Z</time>
      </trkpt>
      <trkpt lat="47.07063" lon="-1.6331">
        <ele>49</ele>
        <time>2021-05-01T11:35:38.000Z</time>
      </trkpt>
      <trkpt lat="47.0707" lon="-1.63293">
        <ele>49</ele>
        <time>2021-05-01T11:35:40.000Z</time>
      </trkpt>
      <trkpt lat="47.07077" lon="-1.63276">
        <ele>49</ele>
        <time>2021-05-01T11:35:42.000Z</time>
      </trkpt>
      <trkpt lat="47.07082" lon="-1.63258">
        <ele>49</ele>
        <time>2021-05-01T11:35:44.000Z</time>
      </trkpt>
      <trkpt lat="47.07086" lon="-1.6324">
        <ele>49</ele>
        <time>2021-05-01T11:35:46.000Z</time>
      </trkpt>
      <trkpt lat="47.07088" lon="-1.63222">
        <ele>48</ele>
        <time>2021-05-01T11:35:48.000Z</time>
      </trkpt>
      <trkpt lat="47.0709" lon="-1.63204">
        <ele>48</ele>
        <time>2021-05-01T11:35:50.000Z</time>
      </trkpt>
      <trkpt lat="47.07093" lon="-1.63186">
        <ele>49</ele>
        <time>2021-05-01T11:35:52.000Z</time>
      </trkpt>
      <trkpt lat="47.07097" lon="-1.63169">
        <ele>49</ele>
        <time>2021-05-01T11:35:54.000Z</time>
      </trkpt>
      <trkpt lat="47.07106" lon="-1.63156">
        <ele>50</ele>
        <time>2021-05-01T11:35:56.000Z</time>
      </trkpt>
      <trkpt lat="47.07116" lon="-1.63146">
        <ele>51</ele>
        <time>2021-05-01T11:35:58.000Z</time>
      </trkpt>
      <trkpt lat="47.07127" lon="-1.63136">
        <ele>51</ele>
        <time>2021-05-01T11:36:00.000Z</time>
      </trkpt>
      <trkpt lat="47.07139" lon="-1.63127">
        <ele>51</ele>
        <time>2021-05-01T11:36:02.000Z</time>
      </trkpt>
      <trkpt lat="47.07151" lon="-1.63122">
        <ele>52</ele>
        <time>2021-05-01T11:36:04.000Z</time>
      </trkpt>
      <trkpt lat="47.07163" lon="-1.6312">
        <ele>52</ele>
        <time>2021-05-01T11:36:06.000Z</time>
      </trkpt>
      <trkpt lat="47.07176" lon="-1.6312">
        <ele>53</ele>
        <time>2021-05-01T11:36:08.000Z</time>
      </trkpt>
      <trkpt lat="47.07188" lon="-1.63121">
        <ele>53</ele>
        <time>2021-05-01T11:36:10.000Z</time>
      </trkpt>
      <trkpt lat="47.07201" lon="-1.63125">
        <ele>54</ele>
        <time>2021-05-01T11:36:12.000Z</time>
      </trkpt>
      <trkpt lat="47.07213" lon="-1.63134">
        <ele>55</ele>
        <time>2021-05-01T11:36:14.000Z</time>
      </trkpt>
      <trkpt lat="47.07224" lon="-1.63142">
        <ele>54</ele>
        <time>2021-05-01T11:36:16.000Z</time>
      </trkpt>
      <trkpt lat="47.07236" lon="-1.63151">
        <ele>55</ele>
        <time>2021-05-01T11:36:18.000Z</time>
      </trkpt>
      <trkpt lat="47.07248" lon="-1.63161">
        <ele>55</ele>
        <time>2021-05-01T11:36:20.000Z</time>
      </trkpt>
      <trkpt lat="47.07259" lon="-1.6317">
        <ele>55</ele>
        <time>2021-05-01T11:36:22.000Z</time>
      </trkpt>
      <trkpt lat="47.07269" lon="-1.6318">
        <ele>55</ele>
        <time>2021-05-01T11:36:24.000Z</time>
      </trkpt>
      <trkpt lat="47.07279" lon="-1.63192">
        <ele>55</ele>
        <time>2021-05-01T11:36:26.000Z</time>
      </trkpt>
      <trkpt lat="47.07287" lon="-1.63206">
        <ele>55</ele>
        <time>2021-05-01T11:36:28.000Z</time>
      </trkpt>
      <trkpt lat="47.07296" lon="-1.6322">
        <ele>55</ele>
        <time>2021-05-01T11:36:30.000Z</time>
      </trkpt>
      <trkpt lat="47.07304" lon="-1.63232">
        <ele>55</ele>
        <time>2021-05-01T11:36:32.000Z</time>
      </trkpt>
      <trkpt lat="47.07312" lon="-1.63245">
        <ele>55</ele>
        <time>2021-05-01T11:36:34.000Z</time>
      </trkpt>
      <trkpt lat="47.0732" lon="-1.63257">
        <ele>55</ele>
        <time>2021-05-01T11:36:36.000Z</time>
      </trkpt>
      <trkpt lat="47.0733" lon="-1.63266">
        <ele>55</ele>
        <time>2021-05-01T11:36:38.000Z</time>
      </trkpt>
      <trkpt lat="47.0734" lon="-1.63275">
        <ele>55</ele>
        <time>2021-05-01T11:36:40.000Z</time>
      </trkpt>
      <trkpt lat="47.07351" lon="-1.63284">
        <ele>55</ele>
        <time>2021-05-01T11:36:42.000Z</time>
      </trkpt>
      <trkpt lat="47.07362" lon="-1.63293">
        <ele>55</ele>
        <time>2021-05-01T11:36:44.000Z</time>
      </trkpt>
      <trkpt lat="47.07373" lon="-1.63301">
        <ele>55</ele>
        <time>2021-05-01T11:36:46.000Z</time>
      </trkpt>
      <trkpt lat="47.07383" lon="-1.63309">
        <ele>55</ele>
        <time>2021-05-01T11:36:48.000Z</time>
      </trkpt>
      <trkpt lat="47.07394" lon="-1.63316">
        <ele>55</ele>
        <time>2021-05-01T11:36:50.000Z</time>
      </trkpt>
      <trkpt lat="47.07404" lon="-1.63324">
        <ele>54</ele>
        <time>2021-05-01T11:36:52.000Z</time>
      </trkpt>
      <trkpt lat="47.07415" lon="-1.63331">
        <ele>54</ele>
        <time>2021-05-01T11:36:54.000Z</time>
      </trkpt>
      <trkpt lat="47.07426" lon="-1.63338">
        <ele>54</ele>
        <time>2021-05-01T11:36:56.000Z</time>
      </trkpt>
      <trkpt lat="47.07437" lon="-1.63345">
        <ele>53</ele>
        <time>2021-05-01T11:36:58.000Z</time>
      </trkpt>
      <trkpt lat="47.07448" lon="-1.63352">
        <ele>53</ele>
        <time>2021-05-01T11:37:00.000Z</time>
      </trkpt>
      <trkpt lat="47.0746" lon="-1.6336">
        <ele>53</ele>
        <time>2021-05-01T11:37:02.000Z</time>
      </trkpt>
      <trkpt lat="47.0747" lon="-1.63366">
        <ele>53</ele>
        <time>2021-05-01T11:37:04.000Z</time>
      </trkpt>
      <trkpt lat="47.07481" lon="-1.63373">
        <ele>53</ele>
        <time>2021-05-01T11:37:06.000Z</time>
      </trkpt>
      <trkpt lat="47.07492" lon="-1.6338">
        <ele>53</ele>
        <time>2021-05-01T11:37:08.000Z</time>
      </trkpt>
      <trkpt lat="47.07503" lon="-1.63387">
        <ele>53</ele>
        <time>2021-05-01T11:37:10.000Z</time>
      </trkpt>
      <trkpt lat="47.07515" lon="-1.63394">
        <ele>53</ele>
        <time>2021-05-01T11:37:12.000Z</time>
      </trkpt>
      <trkpt lat="47.07526" lon="-1.63401">
        <ele>53</ele>
        <time>2021-05-01T11:37:14.000Z</time>
      </trkpt>
      <trkpt lat="47.07537" lon="-1.63408">
        <ele>53</ele>
        <time>2021-05-01T11:37:16.000Z</time>
      </trkpt>
      <trkpt lat="47.07549" lon="-1.63414">
        <ele>53</ele>
        <time>2021-05-01T11:37:18.000Z</time>
      </trkpt>
      <trkpt lat="47.0756" lon="-1.6342">
        <ele>53</ele>
        <time>2021-05-01T11:37:20.000Z</time>
      </trkpt>
      <trkpt lat="47.07571" lon="-1.63425">
        <ele>53</ele>
        <time>2021-05-01T11:37:22.000Z</time>
      </trkpt>
      <trkpt lat="47.07583" lon="-1.6343">
        <ele>53</ele>
        <time>2021-05-01T11:37:24.000Z</time>
      </trkpt>
      <trkpt lat="47.07596" lon="-1.63432">
        <ele>53</ele>
        <time>2021-05-01T11:37:26.000Z</time>
      </trkpt>
      <trkpt lat="47.07608" lon="-1.6343">
        <ele>53</ele>
        <time>2021-05-01T11:37:28.000Z</time>
      </trkpt>
      <trkpt lat="47.07621" lon="-1.63427">
        <ele>52</ele>
        <time>2021-05-01T11:37:30.000Z</time>
      </trkpt>
      <trkpt lat="47.07633" lon="-1.63424">
        <ele>52</ele>
        <time>2021-05-01T11:37:32.000Z</time>
      </trkpt>
      <trkpt lat="47.07645" lon="-1.6342">
        <ele>52</ele>
        <time>2021-05-01T11:37:34.000Z</time>
      </trkpt>
      <trkpt lat="47.07657" lon="-1.63416">
        <ele>51</ele>
        <time>2021-05-01T11:37:36.000Z</time>
      </trkpt>
      <trkpt lat="47.07669" lon="-1.63412">
        <ele>51</ele>
        <time>2021-05-01T11:37:38.000Z</time>
      </trkpt>
      <trkpt lat="47.07681" lon="-1.63409">
        <ele>51</ele>
        <time>2021-05-01T11:37:40.000Z</time>
      </trkpt>
      <trkpt lat="47.07692" lon="-1.63405">
        <ele>51</ele>
        <time>2021-05-01T11:37:42.000Z</time>
      </trkpt>
      <trkpt lat="47.07703" lon="-1.63398">
        <ele>51</ele>
        <time>2021-05-01T11:37:44.000Z</time>
      </trkpt>
      <trkpt lat="47.07712" lon="-1.63388">
        <ele>51</ele>
        <time>2021-05-01T11:37:46.000Z</time>
      </trkpt>
      <trkpt lat="47.07722" lon="-1.63377">
        <ele>51</ele>
        <time>2021-05-01T11:37:48.000Z</time>
      </trkpt>
      <trkpt lat="47.07731" lon="-1.63367">
        <ele>51</ele>
        <time>2021-05-01T11:37:50.000Z</time>
      </trkpt>
      <trkpt lat="47.0774" lon="-1.63356">
        <ele>51</ele>
        <time>2021-05-01T11:37:52.000Z</time>
      </trkpt>
      <trkpt lat="47.0775" lon="-1.63344">
        <ele>51</ele>
        <time>2021-05-01T11:37:54.000Z</time>
      </trkpt>
      <trkpt lat="47.07758" lon="-1.63333">
        <ele>51</ele>
        <time>2021-05-01T11:37:56.000Z</time>
      </trkpt>
      <trkpt lat="47.07767" lon="-1.63322">
        <ele>51</ele>
        <time>2021-05-01T11:37:58.000Z</time>
      </trkpt>
      <trkpt lat="47.07777" lon="-1.63311">
        <ele>51</ele>
        <time>2021-05-01T11:38:00.000Z</time>
      </trkpt>
      <trkpt lat="47.07787" lon="-1.63299">
        <ele>51</ele>
        <time>2021-05-01T11:38:02.000Z</time>
      </trkpt>
      <trkpt lat="47.07797" lon="-1.63287">
        <ele>51</ele>
        <time>2021-05-01T11:38:04.000Z</time>
      </trkpt>
      <trkpt lat="47.07806" lon="-1.63276">
        <ele>51</ele>
        <time>2021-05-01T11:38:06.000Z</time>
      </trkpt>
      <trkpt lat="47.07815" lon="-1.63265">
        <ele>51</ele>
        <time>2021-05-01T11:38:08.000Z</time>
      </trkpt>
      <trkpt lat="47.07823" lon="-1.63252">
        <ele>51</ele>
        <time>2021-05-01T11:38:10.000Z</time>
      </trkpt>
      <trkpt lat="47.07828" lon="-1.63236">
        <ele>50</ele>
        <time>2021-05-01T11:38:12.000Z</time>
      </trkpt>
      <trkpt lat="47.07827" lon="-1.63217">
        <ele>50</ele>
        <time>2021-05-01T11:38:14.000Z</time>
      </trkpt>
      <trkpt lat="47.07822" lon="-1.63201">
        <ele>50</ele>
        <time>2021-05-01T11:38:16.000Z</time>
      </trkpt>
      <trkpt lat="47.07816" lon="-1.63186">
        <ele>50</ele>
        <time>2021-05-01T11:38:18.000Z</time>
      </trkpt>
      <trkpt lat="47.07808" lon="-1.63171">
        <ele>51</ele>
        <time>2021-05-01T11:38:20.000Z</time>
      </trkpt>
      <trkpt lat="47.07802" lon="-1.63157">
        <ele>51</ele>
        <time>2021-05-01T11:38:22.000Z</time>
      </trkpt>
      <trkpt lat="47.07797" lon="-1.63143">
        <ele>51</ele>
        <time>2021-05-01T11:38:24.000Z</time>
      </trkpt>
      <trkpt lat="47.07798" lon="-1.63128">
        <ele>52</ele>
        <time>2021-05-01T11:38:26.000Z</time>
      </trkpt>
      <trkpt lat="47.07808" lon="-1.63123">
        <ele>52</ele>
        <time>2021-05-01T11:38:28.000Z</time>
      </trkpt>
      <trkpt lat="47.07821" lon="-1.63123">
        <ele>53</ele>
        <time>2021-05-01T11:38:30.000Z</time>
      </trkpt>
      <trkpt lat="47.07834" lon="-1.63123">
        <ele>53</ele>
        <time>2021-05-01T11:38:32.000Z</time>
      </trkpt>
      <trkpt lat="47.07848" lon="-1.63122">
        <ele>53</ele>
        <time>2021-05-01T11:38:34.000Z</time>
      </trkpt>
      <trkpt lat="47.07861" lon="-1.63121">
        <ele>53</ele>
        <time>2021-05-01T11:38:36.000Z</time>
      </trkpt>
      <trkpt lat="47.07874" lon="-1.6312">
        <ele>53</ele>
        <time>2021-05-01T11:38:38.000Z</time>
      </trkpt>
      <trkpt lat="47.07886" lon="-1.63118">
        <ele>53</ele>
        <time>2021-05-01T11:38:40.000Z</time>
      </trkpt>
      <trkpt lat="47.07898" lon="-1.63118">
        <ele>53</ele>
        <time>2021-05-01T11:38:42.000Z</time>
      </trkpt>
      <trkpt lat="47.0791" lon="-1.63117">
        <ele>54</ele>
        <time>2021-05-01T11:38:44.000Z</time>
      </trkpt>
      <trkpt lat="47.07921" lon="-1.63115">
        <ele>53</ele>
        <time>2021-05-01T11:38:46.000Z</time>
      </trkpt>
      <trkpt lat="47.07932" lon="-1.63114">
        <ele>54</ele>
        <time>2021-05-01T11:38:48.000Z</time>
      </trkpt>
      <trkpt lat="47.07943" lon="-1.63113">
        <ele>55</ele>
        <time>2021-05-01T11:38:50.000Z</time>
      </trkpt>
      <trkpt lat="47.07956" lon="-1.63112">
        <ele>55</ele>
        <time>2021-05-01T11:38:52.000Z</time>
      </trkpt>
      <trkpt lat="47.07968" lon="-1.63111">
        <ele>55</ele>
        <time>2021-05-01T11:38:54.000Z</time>
      </trkpt>
      <trkpt lat="47.07979" lon="-1.6311">
        <ele>55</ele>
        <time>2021-05-01T11:38:56.000Z</time>
      </trkpt>
      <trkpt lat="47.07991" lon="-1.63109">
        <ele>55</ele>
        <time>2021-05-01T11:38:58.000Z</time>
      </trkpt>
      <trkpt lat="47.08003" lon="-1.63108">
        <ele>55</ele>
        <time>2021-05-01T11:39:00.000Z</time>
      </trkpt>
      <trkpt lat="47.08015" lon="-1.63106">
        <ele>55</ele>
        <time>2021-05-01T11:39:02.000Z</time>
      </trkpt>
      <trkpt lat="47.08027" lon="-1.63105">
        <ele>55</ele>
        <time>2021-05-01T11:39:04.000Z</time>
      </trkpt>
      <trkpt lat="47.08039" lon="-1.63104">
        <ele>55</ele>
        <time>2021-05-01T11:39:06.000Z</time>
      </trkpt>
      <trkpt lat="47.0805" lon="-1.63103">
        <ele>54</ele>
        <time>2021-05-01T11:39:08.000Z</time>
      </trkpt>
      <trkpt lat="47.08063" lon="-1.63102">
        <ele>53</ele>
        <time>2021-05-01T11:39:10.000Z</time>
      </trkpt>
      <trkpt lat="47.08074" lon="-1.63101">
        <ele>53</ele>
        <time>2021-05-01T11:39:12.000Z</time>
      </trkpt>
      <trkpt lat="47.08087" lon="-1.631">
        <ele>53</ele>
        <time>2021-05-01T11:39:14.000Z</time>
      </trkpt>
      <trkpt lat="47.08099" lon="-1.63099">
        <ele>52</ele>
        <time>2021-05-01T11:39:16.000Z</time>
      </trkpt>
      <trkpt lat="47.08112" lon="-1.63098">
        <ele>52</ele>
        <time>2021-05-01T11:39:18.000Z</time>
      </trkpt>
      <trkpt lat="47.08125" lon="-1.63096">
        <ele>52</ele>
        <time>2021-05-01T11:39:20.000Z</time>
      </trkpt>
      <trkpt lat="47.08137" lon="-1.63095">
        <ele>52</ele>
        <time>2021-05-01T11:39:22.000Z</time>
      </trkpt>
      <trkpt lat="47.08149" lon="-1.63094">
        <ele>52</ele>
        <time>2021-05-01T11:39:24.000Z</time>
      </trkpt>
      <trkpt lat="47.08161" lon="-1.63093">
        <ele>51</ele>
        <time>2021-05-01T11:39:26.000Z</time>
      </trkpt>
      <trkpt lat="47.08174" lon="-1.63091">
        <ele>51</ele>
        <time>2021-05-01T11:39:28.000Z</time>
      </trkpt>
      <trkpt lat="47.08186" lon="-1.6309">
        <ele>52</ele>
        <time>2021-05-01T11:39:30.000Z</time>
      </trkpt>
      <trkpt lat="47.08198" lon="-1.63089">
        <ele>51</ele>
        <time>2021-05-01T11:39:32.000Z</time>
      </trkpt>
      <trkpt lat="47.08211" lon="-1.63088">
        <ele>51</ele>
        <time>2021-05-01T11:39:34.000Z</time>
      </trkpt>
      <trkpt lat="47.08223" lon="-1.63087">
        <ele>51</ele>
        <time>2021-05-01T11:39:36.000Z</time>
      </trkpt>
      <trkpt lat="47.08236" lon="-1.63086">
        <ele>50</ele>
        <time>2021-05-01T11:39:38.000Z</time>
      </trkpt>
      <trkpt lat="47.08248" lon="-1.63085">
        <ele>51</ele>
        <time>2021-05-01T11:39:40.000Z</time>
      </trkpt>
      <trkpt lat="47.0826" lon="-1.63084">
        <ele>50</ele>
        <time>2021-05-01T11:39:42.000Z</time>
      </trkpt>
      <trkpt lat="47.08273" lon="-1.63083">
        <ele>51</ele>
        <time>2021-05-01T11:39:44.000Z</time>
      </trkpt>
      <trkpt lat="47.08285" lon="-1.63083">
        <ele>51</ele>
        <time>2021-05-01T11:39:46.000Z</time>
      </trkpt>
      <trkpt lat="47.08297" lon="-1.63081">
        <ele>52</ele>
        <time>2021-05-01T11:39:48.000Z</time>
      </trkpt>
      <trkpt lat="47.0831" lon="-1.63079">
        <ele>52</ele>
        <time>2021-05-01T11:39:50.000Z</time>
      </trkpt>
      <trkpt lat="47.08322" lon="-1.63078">
        <ele>51</ele>
        <time>2021-05-01T11:39:52.000Z</time>
      </trkpt>
      <trkpt lat="47.08335" lon="-1.63077">
        <ele>50</ele>
        <time>2021-05-01T11:39:54.000Z</time>
      </trkpt>
      <trkpt lat="47.08348" lon="-1.63077">
        <ele>50</ele>
        <time>2021-05-01T11:39:56.000Z</time>
      </trkpt>
      <trkpt lat="47.08361" lon="-1.63076">
        <ele>50</ele>
        <time>2021-05-01T11:39:58.000Z</time>
      </trkpt>
      <trkpt lat="47.08373" lon="-1.63073">
        <ele>51</ele>
        <time>2021-05-01T11:40:00.000Z</time>
      </trkpt>
      <trkpt lat="47.08385" lon="-1.63071">
        <ele>51</ele>
        <time>2021-05-01T11:40:02.000Z</time>
      </trkpt>
      <trkpt lat="47.08397" lon="-1.63066">
        <ele>51</ele>
        <time>2021-05-01T11:40:04.000Z</time>
      </trkpt>
      <trkpt lat="47.08408" lon="-1.63057">
        <ele>52</ele>
        <time>2021-05-01T11:40:06.000Z</time>
      </trkpt>
      <trkpt lat="47.08418" lon="-1.63046">
        <ele>53</ele>
        <time>2021-05-01T11:40:08.000Z</time>
      </trkpt>
      <trkpt lat="47.08428" lon="-1.63033">
        <ele>52</ele>
        <time>2021-05-01T11:40:10.000Z</time>
      </trkpt>
      <trkpt lat="47.08437" lon="-1.63019">
        <ele>52</ele>
        <time>2021-05-01T11:40:12.000Z</time>
      </trkpt>
      <trkpt lat="47.08445" lon="-1.63006">
        <ele>51</ele>
        <time>2021-05-01T11:40:14.000Z</time>
      </trkpt>
      <trkpt lat="47.08454" lon="-1.62992">
        <ele>51</ele>
        <time>2021-05-01T11:40:16.000Z</time>
      </trkpt>
      <trkpt lat="47.08463" lon="-1.62977">
        <ele>51</ele>
        <time>2021-05-01T11:40:18.000Z</time>
      </trkpt>
      <trkpt lat="47.08471" lon="-1.62963">
        <ele>50</ele>
        <time>2021-05-01T11:40:20.000Z</time>
      </trkpt>
      <trkpt lat="47.0848" lon="-1.62949">
        <ele>51</ele>
        <time>2021-05-01T11:40:22.000Z</time>
      </trkpt>
      <trkpt lat="47.08488" lon="-1.62935">
        <ele>50</ele>
        <time>2021-05-01T11:40:24.000Z</time>
      </trkpt>
      <trkpt lat="47.08496" lon="-1.62921">
        <ele>50</ele>
        <time>2021-05-01T11:40:26.000Z</time>
      </trkpt>
      <trkpt lat="47.08504" lon="-1.62907">
        <ele>50</ele>
        <time>2021-05-01T11:40:28.000Z</time>
      </trkpt>
      <trkpt lat="47.08513" lon="-1.62893">
        <ele>50</ele>
        <time>2021-05-01T11:40:30.000Z</time>
      </trkpt>
      <trkpt lat="47.08522" lon="-1.62879">
        <ele>49</ele>
        <time>2021-05-01T11:40:32.000Z</time>
      </trkpt>
      <trkpt lat="47.08531" lon="-1.62866">
        <ele>49</ele>
        <time>2021-05-01T11:40:34.000Z</time>
      </trkpt>
      <trkpt lat="47.08539" lon="-1.62852">
        <ele>50</ele>
        <time>2021-05-01T11:40:36.000Z</time>
      </trkpt>
      <trkpt lat="47.08547" lon="-1.6284">
        <ele>50</ele>
        <time>2021-05-01T11:40:38.000Z</time>
      </trkpt>
      <trkpt lat="47.08557" lon="-1.6283">
        <ele>51</ele>
        <time>2021-05-01T11:40:40.000Z</time>
      </trkpt>
      <trkpt lat="47.08568" lon="-1.62821">
        <ele>50</ele>
        <time>2021-05-01T11:40:42.000Z</time>
      </trkpt>
      <trkpt lat="47.08577" lon="-1.62811">
        <ele>50</ele>
        <time>2021-05-01T11:40:44.000Z</time>
      </trkpt>
      <trkpt lat="47.0858" lon="-1.62796">
        <ele>50</ele>
        <time>2021-05-01T11:40:46.000Z</time>
      </trkpt>
      <trkpt lat="47.08579" lon="-1.62778">
        <ele>50</ele>
        <time>2021-05-01T11:40:48.000Z</time>
      </trkpt>
      <trkpt lat="47.08579" lon="-1.62761">
        <ele>51</ele>
        <time>2021-05-01T11:40:50.000Z</time>
      </trkpt>
      <trkpt lat="47.0858" lon="-1.62743">
        <ele>51</ele>
        <time>2021-05-01T11:40:52.000Z</time>
      </trkpt>
      <trkpt lat="47.0858" lon="-1.62725">
        <ele>51</ele>
        <time>2021-05-01T11:40:54.000Z</time>
      </trkpt>
      <trkpt lat="47.0858" lon="-1.62708">
        <ele>51</ele>
        <time>2021-05-01T11:40:56.000Z</time>
      </trkpt>
      <trkpt lat="47.08581" lon="-1.6269">
        <ele>51</ele>
        <time>2021-05-01T11:40:58.000Z</time>
      </trkpt>
      <trkpt lat="47.08582" lon="-1.62672">
        <ele>51</ele>
        <time>2021-05-01T11:41:00.000Z</time>
      </trkpt>
      <trkpt lat="47.08583" lon="-1.62654">
        <ele>52</ele>
        <time>2021-05-01T11:41:02.000Z</time>
      </trkpt>
      <trkpt lat="47.08583" lon="-1.62636">
        <ele>52</ele>
        <time>2021-05-01T11:41:04.000Z</time>
      </trkpt>
      <trkpt lat="47.08584" lon="-1.62617">
        <ele>51</ele>
        <time>2021-05-01T11:41:06.000Z</time>
      </trkpt>
      <trkpt lat="47.08584" lon="-1.62599">
        <ele>51</ele>
        <time>2021-05-01T11:41:08.000Z</time>
      </trkpt>
      <trkpt lat="47.08585" lon="-1.62582">
        <ele>52</ele>
        <time>2021-05-01T11:41:10.000Z</time>
      </trkpt>
      <trkpt lat="47.08585" lon="-1.62564">
        <ele>52</ele>
        <time>2021-05-01T11:41:12.000Z</time>
      </trkpt>
      <trkpt lat="47.08586" lon="-1.62547">
        <ele>52</ele>
        <time>2021-05-01T11:41:14.000Z</time>
      </trkpt>
      <trkpt lat="47.08587" lon="-1.62529">
        <ele>53</ele>
        <time>2021-05-01T11:41:16.000Z</time>
      </trkpt>
      <trkpt lat="47.08588" lon="-1.62511">
        <ele>53</ele>
        <time>2021-05-01T11:41:18.000Z</time>
      </trkpt>
      <trkpt lat="47.08589" lon="-1.62492">
        <ele>53</ele>
        <time>2021-05-01T11:41:20.000Z</time>
      </trkpt>
      <trkpt lat="47.08589" lon="-1.62473">
        <ele>53</ele>
        <time>2021-05-01T11:41:22.000Z</time>
      </trkpt>
      <trkpt lat="47.0859" lon="-1.62455">
        <ele>52</ele>
        <time>2021-05-01T11:41:24.000Z</time>
      </trkpt>
      <trkpt lat="47.08592" lon="-1.62437">
        <ele>53</ele>
        <time>2021-05-01T11:41:26.000Z</time>
      </trkpt>
      <trkpt lat="47.08592" lon="-1.62419">
        <ele>53</ele>
        <time>2021-05-01T11:41:28.000Z</time>
      </trkpt>
      <trkpt lat="47.08593" lon="-1.62401">
        <ele>53</ele>
        <time>2021-05-01T11:41:30.000Z</time>
      </trkpt>
      <trkpt lat="47.08594" lon="-1.62383">
        <ele>53</ele>
        <time>2021-05-01T11:41:32.000Z</time>
      </trkpt>
      <trkpt lat="47.08596" lon="-1.62365">
        <ele>53</ele>
        <time>2021-05-01T11:41:34.000Z</time>
      </trkpt>
      <trkpt lat="47.08604" lon="-1.62352">
        <ele>53</ele>
        <time>2021-05-01T11:41:36.000Z</time>
      </trkpt>
      <trkpt lat="47.08617" lon="-1.62345">
        <ele>53</ele>
        <time>2021-05-01T11:41:38.000Z</time>
      </trkpt>
      <trkpt lat="47.0863" lon="-1.62339">
        <ele>52</ele>
        <time>2021-05-01T11:41:40.000Z</time>
      </trkpt>
      <trkpt lat="47.08642" lon="-1.62334">
        <ele>52</ele>
        <time>2021-05-01T11:41:42.000Z</time>
      </trkpt>
      <trkpt lat="47.08654" lon="-1.62329">
        <ele>52</ele>
        <time>2021-05-01T11:41:44.000Z</time>
      </trkpt>
      <trkpt lat="47.08667" lon="-1.62323">
        <ele>52</ele>
        <time>2021-05-01T11:41:46.000Z</time>
      </trkpt>
      <trkpt lat="47.08679" lon="-1.62318">
        <ele>52</ele>
        <time>2021-05-01T11:41:48.000Z</time>
      </trkpt>
      <trkpt lat="47.08692" lon="-1.62313">
        <ele>52</ele>
        <time>2021-05-01T11:41:50.000Z</time>
      </trkpt>
      <trkpt lat="47.08704" lon="-1.62308">
        <ele>52</ele>
        <time>2021-05-01T11:41:52.000Z</time>
      </trkpt>
      <trkpt lat="47.08715" lon="-1.62303">
        <ele>52</ele>
        <time>2021-05-01T11:41:54.000Z</time>
      </trkpt>
      <trkpt lat="47.08727" lon="-1.62297">
        <ele>51</ele>
        <time>2021-05-01T11:41:56.000Z</time>
      </trkpt>
      <trkpt lat="47.0874" lon="-1.62292">
        <ele>51</ele>
        <time>2021-05-01T11:41:58.000Z</time>
      </trkpt>
      <trkpt lat="47.08751" lon="-1.62288">
        <ele>52</ele>
        <time>2021-05-01T11:42:00.000Z</time>
      </trkpt>
      <trkpt lat="47.08762" lon="-1.62283">
        <ele>52</ele>
        <time>2021-05-01T11:42:02.000Z</time>
      </trkpt>
      <trkpt lat="47.08773" lon="-1.62278">
        <ele>52</ele>
        <time>2021-05-01T11:42:04.000Z</time>
      </trkpt>
      <trkpt lat="47.08784" lon="-1.62275">
        <ele>53</ele>
        <time>2021-05-01T11:42:06.000Z</time>
      </trkpt>
      <trkpt lat="47.08796" lon="-1.6227">
        <ele>52</ele>
        <time>2021-05-01T11:42:08.000Z</time>
      </trkpt>
      <trkpt lat="47.08808" lon="-1.62264">
        <ele>52</ele>
        <time>2021-05-01T11:42:10.000Z</time>
      </trkpt>
      <trkpt lat="47.0882" lon="-1.62259">
        <ele>52</ele>
        <time>2021-05-01T11:42:12.000Z</time>
      </trkpt>
      <trkpt lat="47.08832" lon="-1.62254">
        <ele>52</ele>
        <time>2021-05-01T11:42:14.000Z</time>
      </trkpt>
      <trkpt lat="47.08844" lon="-1.62249">
        <ele>52</ele>
        <time>2021-05-01T11:42:16.000Z</time>
      </trkpt>
      <trkpt lat="47.08856" lon="-1.62244">
        <ele>52</ele>
        <time>2021-05-01T11:42:18.000Z</time>
      </trkpt>
      <trkpt lat="47.08868" lon="-1.62238">
        <ele>52</ele>
        <time>2021-05-01T11:42:20.000Z</time>
      </trkpt>
      <trkpt lat="47.0888" lon="-1.62233">
        <ele>51</ele>
        <time>2021-05-01T11:42:22.000Z</time>
      </trkpt>
      <trkpt lat="47.08892" lon="-1.62228">
        <ele>52</ele>
        <time>2021-05-01T11:42:24.000Z</time>
      </trkpt>
      <trkpt lat="47.08904" lon="-1.62223">
        <ele>52</ele>
        <time>2021-05-01T11:42:26.000Z</time>
      </trkpt>
      <trkpt lat="47.08917" lon="-1.62218">
        <ele>51</ele>
        <time>2021-05-01T11:42:28.000Z</time>
      </trkpt>
      <trkpt lat="47.08928" lon="-1.62214">
        <ele>51</ele>
        <time>2021-05-01T11:42:30.000Z</time>
      </trkpt>
      <trkpt lat="47.0894" lon="-1.62209">
        <ele>51</ele>
        <time>2021-05-01T11:42:32.000Z</time>
      </trkpt>
      <trkpt lat="47.08951" lon="-1.62204">
        <ele>51</ele>
        <time>2021-05-01T11:42:34.000Z</time>
      </trkpt>
      <trkpt lat="47.08962" lon="-1.622">
        <ele>51</ele>
        <time>2021-05-01T11:42:36.000Z</time>
      </trkpt>
      <trkpt lat="47.08973" lon="-1.62195">
        <ele>52</ele>
        <time>2021-05-01T11:42:38.000Z</time>
      </trkpt>
      <trkpt lat="47.08985" lon="-1.62191">
        <ele>52</ele>
        <time>2021-05-01T11:42:40.000Z</time>
      </trkpt>
      <trkpt lat="47.08996" lon="-1.62186">
        <ele>52</ele>
        <time>2021-05-01T11:42:42.000Z</time>
      </trkpt>
      <trkpt lat="47.09008" lon="-1.62181">
        <ele>52</ele>
        <time>2021-05-01T11:42:44.000Z</time>
      </trkpt>
      <trkpt lat="47.09019" lon="-1.62176">
        <ele>52</ele>
        <time>2021-05-01T11:42:46.000Z</time>
      </trkpt>
      <trkpt lat="47.0903" lon="-1.62171">
        <ele>52</ele>
        <time>2021-05-01T11:42:48.000Z</time>
      </trkpt>
      <trkpt lat="47.09042" lon="-1.62166">
        <ele>52</ele>
        <time>2021-05-01T11:42:50.000Z</time>
      </trkpt>
      <trkpt lat="47.09053" lon="-1.62161">
        <ele>52</ele>
        <time>2021-05-01T11:42:52.000Z</time>
      </trkpt>
      <trkpt lat="47.09065" lon="-1.62157">
        <ele>52</ele>
        <time>2021-05-01T11:42:54.000Z</time>
      </trkpt>
      <trkpt lat="47.09077" lon="-1.62152">
        <ele>52</ele>
        <time>2021-05-01T11:42:56.000Z</time>
      </trkpt>
      <trkpt lat="47.09088" lon="-1.62148">
        <ele>52</ele>
        <time>2021-05-01T11:42:58.000Z</time>
      </trkpt>
      <trkpt lat="47.091" lon="-1.62143">
        <ele>51</ele>
        <time>2021-05-01T11:43:00.000Z</time>
      </trkpt>
      <trkpt lat="47.09112" lon="-1.62137">
        <ele>51</ele>
        <time>2021-05-01T11:43:02.000Z</time>
      </trkpt>
      <trkpt lat="47.09124" lon="-1.62132">
        <ele>51</ele>
        <time>2021-05-01T11:43:04.000Z</time>
      </trkpt>
      <trkpt lat="47.09135" lon="-1.62128">
        <ele>51</ele>
        <time>2021-05-01T11:43:06.000Z</time>
      </trkpt>
      <trkpt lat="47.09147" lon="-1.62123">
        <ele>51</ele>
        <time>2021-05-01T11:43:08.000Z</time>
      </trkpt>
      <trkpt lat="47.09158" lon="-1.62118">
        <ele>51</ele>
        <time>2021-05-01T11:43:10.000Z</time>
      </trkpt>
      <trkpt lat="47.09169" lon="-1.62113">
        <ele>51</ele>
        <time>2021-05-01T11:43:12.000Z</time>
      </trkpt>
      <trkpt lat="47.0918" lon="-1.62105">
        <ele>51</ele>
        <time>2021-05-01T11:43:14.000Z</time>
      </trkpt>
      <trkpt lat="47.09183" lon="-1.6209">
        <ele>52</ele>
        <time>2021-05-01T11:43:16.000Z</time>
      </trkpt>
      <trkpt lat="47.09178" lon="-1.62074">
        <ele>52</ele>
        <time>2021-05-01T11:43:18.000Z</time>
      </trkpt>
      <trkpt lat="47.09171" lon="-1.6206">
        <ele>53</ele>
        <time>2021-05-01T11:43:20.000Z</time>
      </trkpt>
      <trkpt lat="47.09165" lon="-1.62044">
        <ele>53</ele>
        <time>2021-05-01T11:43:22.000Z</time>
      </trkpt>
      <trkpt lat="47.09159" lon="-1.62028">
        <ele>53</ele>
        <time>2021-05-01T11:43:24.000Z</time>
      </trkpt>
      <trkpt lat="47.09153" lon="-1.62013">
        <ele>54</ele>
        <time>2021-05-01T11:43:26.000Z</time>
      </trkpt>
      <trkpt lat="47.09148" lon="-1.61997">
        <ele>54</ele>
        <time>2021-05-01T11:43:28.000Z</time>
      </trkpt>
      <trkpt lat="47.09142" lon="-1.61981">
        <ele>54</ele>
        <time>2021-05-01T11:43:30.000Z</time>
      </trkpt>
      <trkpt lat="47.09137" lon="-1.61964">
        <ele>54</ele>
        <time>2021-05-01T11:43:32.000Z</time>
      </trkpt>
      <trkpt lat="47.09131" lon="-1.61949">
        <ele>54</ele>
        <time>2021-05-01T11:43:34.000Z</time>
      </trkpt>
      <trkpt lat="47.09125" lon="-1.61935">
        <ele>54</ele>
        <time>2021-05-01T11:43:36.000Z</time>
      </trkpt>
      <trkpt lat="47.09119" lon="-1.61919">
        <ele>54</ele>
        <time>2021-05-01T11:43:38.000Z</time>
      </trkpt>
      <trkpt lat="47.09113" lon="-1.61903">
        <ele>55</ele>
        <time>2021-05-01T11:43:40.000Z</time>
      </trkpt>
      <trkpt lat="47.09107" lon="-1.61887">
        <ele>55</ele>
        <time>2021-05-01T11:43:42.000Z</time>
      </trkpt>
      <trkpt lat="47.09101" lon="-1.61871">
        <ele>55</ele>
        <time>2021-05-01T11:43:44.000Z</time>
      </trkpt>
      <trkpt lat="47.09095" lon="-1.61854">
        <ele>55</ele>
        <time>2021-05-01T11:43:46.000Z</time>
      </trkpt>
      <trkpt lat="47.09089" lon="-1.61837">
        <ele>55</ele>
        <time>2021-05-01T11:43:48.000Z</time>
      </trkpt>
      <trkpt lat="47.09083" lon="-1.6182">
        <ele>55</ele>
        <time>2021-05-01T11:43:50.000Z</time>
      </trkpt>
      <trkpt lat="47.09078" lon="-1.61804">
        <ele>56</ele>
        <time>2021-05-01T11:43:52.000Z</time>
      </trkpt>
      <trkpt lat="47.09072" lon="-1.61788">
        <ele>56</ele>
        <time>2021-05-01T11:43:54.000Z</time>
      </trkpt>
      <trkpt lat="47.09066" lon="-1.61772">
        <ele>56</ele>
        <time>2021-05-01T11:43:56.000Z</time>
      </trkpt>
      <trkpt lat="47.0906" lon="-1.61755">
        <ele>55</ele>
        <time>2021-05-01T11:43:58.000Z</time>
      </trkpt>
      <trkpt lat="47.09054" lon="-1.6174">
        <ele>55</ele>
        <time>2021-05-01T11:44:00.000Z</time>
      </trkpt>
      <trkpt lat="47.09049" lon="-1.61724">
        <ele>56</ele>
        <time>2021-05-01T11:44:02.000Z</time>
      </trkpt>
      <trkpt lat="47.09043" lon="-1.61707">
        <ele>55</ele>
        <time>2021-05-01T11:44:04.000Z</time>
      </trkpt>
      <trkpt lat="47.09037" lon="-1.61691">
        <ele>55</ele>
        <time>2021-05-01T11:44:06.000Z</time>
      </trkpt>
      <trkpt lat="47.09032" lon="-1.61675">
        <ele>55</ele>
        <time>2021-05-01T11:44:08.000Z</time>
      </trkpt>
      <trkpt lat="47.09026" lon="-1.61658">
        <ele>55</ele>
        <time>2021-05-01T11:44:10.000Z</time>
      </trkpt>
      <trkpt lat="47.0902" lon="-1.61642">
        <ele>55</ele>
        <time>2021-05-01T11:44:12.000Z</time>
      </trkpt>
      <trkpt lat="47.09014" lon="-1.61627">
        <ele>55</ele>
        <time>2021-05-01T11:44:14.000Z</time>
      </trkpt>
      <trkpt lat="47.09008" lon="-1.61611">
        <ele>55</ele>
        <time>2021-05-01T11:44:16.000Z</time>
      </trkpt>
      <trkpt lat="47.09002" lon="-1.61596">
        <ele>55</ele>
        <time>2021-05-01T11:44:18.000Z</time>
      </trkpt>
      <trkpt lat="47.09" lon="-1.6158">
        <ele>55</ele>
        <time>2021-05-01T11:44:20.000Z</time>
      </trkpt>
      <trkpt lat="47.09011" lon="-1.61572">
        <ele>55</ele>
        <time>2021-05-01T11:44:22.000Z</time>
      </trkpt>
      <trkpt lat="47.09023" lon="-1.61566">
        <ele>55</ele>
        <time>2021-05-01T11:44:24.000Z</time>
      </trkpt>
      <trkpt lat="47.09034" lon="-1.61559">
        <ele>55</ele>
        <time>2021-05-01T11:44:26.000Z</time>
      </trkpt>
      <trkpt lat="47.09045" lon="-1.61553">
        <ele>56</ele>
        <time>2021-05-01T11:44:28.000Z</time>
      </trkpt>
      <trkpt lat="47.09057" lon="-1.61547">
        <ele>56</ele>
        <time>2021-05-01T11:44:30.000Z</time>
      </trkpt>
      <trkpt lat="47.09068" lon="-1.61541">
        <ele>56</ele>
        <time>2021-05-01T11:44:32.000Z</time>
      </trkpt>
      <trkpt lat="47.0908" lon="-1.61535">
        <ele>56</ele>
        <time>2021-05-01T11:44:34.000Z</time>
      </trkpt>
      <trkpt lat="47.09091" lon="-1.61528">
        <ele>56</ele>
        <time>2021-05-01T11:44:36.000Z</time>
      </trkpt>
      <trkpt lat="47.09103" lon="-1.61522">
        <ele>56</ele>
        <time>2021-05-01T11:44:38.000Z</time>
      </trkpt>
      <trkpt lat="47.09114" lon="-1.61516">
        <ele>56</ele>
        <time>2021-05-01T11:44:40.000Z</time>
      </trkpt>
      <trkpt lat="47.09124" lon="-1.6151">
        <ele>56</ele>
        <time>2021-05-01T11:44:42.000Z</time>
      </trkpt>
      <trkpt lat="47.09135" lon="-1.61504">
        <ele>56</ele>
        <time>2021-05-01T11:44:44.000Z</time>
      </trkpt>
      <trkpt lat="47.09145" lon="-1.61498">
        <ele>56</ele>
        <time>2021-05-01T11:44:46.000Z</time>
      </trkpt>
      <trkpt lat="47.09156" lon="-1.61491">
        <ele>56</ele>
        <time>2021-05-01T11:44:48.000Z</time>
      </trkpt>
      <trkpt lat="47.09167" lon="-1.61485">
        <ele>56</ele>
        <time>2021-05-01T11:44:50.000Z</time>
      </trkpt>
      <trkpt lat="47.09178" lon="-1.61478">
        <ele>56</ele>
        <time>2021-05-01T11:44:52.000Z</time>
      </trkpt>
      <trkpt lat="47.09189" lon="-1.61472">
        <ele>56</ele>
        <time>2021-05-01T11:44:54.000Z</time>
      </trkpt>
      <trkpt lat="47.092" lon="-1.61466">
        <ele>56</ele>
        <time>2021-05-01T11:44:56.000Z</time>
      </trkpt>
      <trkpt lat="47.09211" lon="-1.61459">
        <ele>56</ele>
        <time>2021-05-01T11:44:58.000Z</time>
      </trkpt>
      <trkpt lat="47.09222" lon="-1.61453">
        <ele>56</ele>
        <time>2021-05-01T11:45:00.000Z</time>
      </trkpt>
      <trkpt lat="47.09233" lon="-1.61446">
        <ele>56</ele>
        <time>2021-05-01T11:45:02.000Z</time>
      </trkpt>
      <trkpt lat="47.09244" lon="-1.61439">
        <ele>56</ele>
        <time>2021-05-01T11:45:04.000Z</time>
      </trkpt>
      <trkpt lat="47.09255" lon="-1.61433">
        <ele>56</ele>
        <time>2021-05-01T11:45:06.000Z</time>
      </trkpt>
      <trkpt lat="47.09266" lon="-1.61428">
        <ele>57</ele>
        <time>2021-05-01T11:45:08.000Z</time>
      </trkpt>
      <trkpt lat="47.09276" lon="-1.61421">
        <ele>57</ele>
        <time>2021-05-01T11:45:10.000Z</time>
      </trkpt>
      <trkpt lat="47.09283" lon="-1.61409">
        <ele>57</ele>
        <time>2021-05-01T11:45:12.000Z</time>
      </trkpt>
      <trkpt lat="47.09281" lon="-1.61393">
        <ele>57</ele>
        <time>2021-05-01T11:45:14.000Z</time>
      </trkpt>
      <trkpt lat="47.09278" lon="-1.61376">
        <ele>56</ele>
        <time>2021-05-01T11:45:16.000Z</time>
      </trkpt>
      <trkpt lat="47.09275" lon="-1.61359">
        <ele>56</ele>
        <time>2021-05-01T11:45:18.000Z</time>
      </trkpt>
      <trkpt lat="47.09272" lon="-1.61341">
        <ele>56</ele>
        <time>2021-05-01T11:45:20.000Z</time>
      </trkpt>
      <trkpt lat="47.09269" lon="-1.61324">
        <ele>56</ele>
        <time>2021-05-01T11:45:22.000Z</time>
      </trkpt>
      <trkpt lat="47.09266" lon="-1.61306">
        <ele>56</ele>
        <time>2021-05-01T11:45:24.000Z</time>
      </trkpt>
      <trkpt lat="47.09262" lon="-1.6129">
        <ele>56</ele>
        <time>2021-05-01T11:45:26.000Z</time>
      </trkpt>
      <trkpt lat="47.09259" lon="-1.61273">
        <ele>57</ele>
        <time>2021-05-01T11:45:28.000Z</time>
      </trkpt>
      <trkpt lat="47.09254" lon="-1.61257">
        <ele>57</ele>
        <time>2021-05-01T11:45:30.000Z</time>
      </trkpt>
      <trkpt lat="47.0925" lon="-1.61241">
        <ele>57</ele>
        <time>2021-05-01T11:45:32.000Z</time>
      </trkpt>
      <trkpt lat="47.09246" lon="-1.61225">
        <ele>57</ele>
        <time>2021-05-01T11:45:34.000Z</time>
      </trkpt>
      <trkpt lat="47.09242" lon="-1.61211">
        <ele>58</ele>
        <time>2021-05-01T11:45:36.000Z</time>
      </trkpt>
      <trkpt lat="47.09237" lon="-1.61195">
        <ele>57</ele>
        <time>2021-05-01T11:45:39.000Z</time>
      </trkpt>
      <trkpt lat="47.0924" lon="-1.61182">
        <ele>57</ele>
        <time>2021-05-01T11:45:43.000Z</time>
      </trkpt>
      <trkpt lat="47.0925" lon="-1.61184">
        <ele>57</ele>
        <time>2021-05-01T11:45:47.000Z</time>
      </trkpt>
      <trkpt lat="47.0926" lon="-1.61183">
        <ele>57</ele>
        <time>2021-05-01T11:45:49.000Z</time>
      </trkpt>
      <trkpt lat="47.09272" lon="-1.61186">
        <ele>57</ele>
        <time>2021-05-01T11:45:51.000Z</time>
      </trkpt>
      <trkpt lat="47.09285" lon="-1.61189">
        <ele>56</ele>
        <time>2021-05-01T11:45:53.000Z</time>
      </trkpt>
      <trkpt lat="47.09298" lon="-1.61192">
        <ele>56</ele>
        <time>2021-05-01T11:45:55.000Z</time>
      </trkpt>
      <trkpt lat="47.09311" lon="-1.61195">
        <ele>55</ele>
        <time>2021-05-01T11:45:57.000Z</time>
      </trkpt>
      <trkpt lat="47.09324" lon="-1.61198">
        <ele>55</ele>
        <time>2021-05-01T11:45:59.000Z</time>
      </trkpt>
      <trkpt lat="47.09336" lon="-1.61201">
        <ele>56</ele>
        <time>2021-05-01T11:46:01.000Z</time>
      </trkpt>
      <trkpt lat="47.09348" lon="-1.61204">
        <ele>56</ele>
        <time>2021-05-01T11:46:03.000Z</time>
      </trkpt>
      <trkpt lat="47.0936" lon="-1.61207">
        <ele>56</ele>
        <time>2021-05-01T11:46:05.000Z</time>
      </trkpt>
      <trkpt lat="47.09372" lon="-1.61213">
        <ele>56</ele>
        <time>2021-05-01T11:46:07.000Z</time>
      </trkpt>
      <trkpt lat="47.09384" lon="-1.61219">
        <ele>56</ele>
        <time>2021-05-01T11:46:09.000Z</time>
      </trkpt>
      <trkpt lat="47.09396" lon="-1.61225">
        <ele>55</ele>
        <time>2021-05-01T11:46:11.000Z</time>
      </trkpt>
      <trkpt lat="47.09408" lon="-1.6123">
        <ele>56</ele>
        <time>2021-05-01T11:46:13.000Z</time>
      </trkpt>
      <trkpt lat="47.0942" lon="-1.6123">
        <ele>55</ele>
        <time>2021-05-01T11:46:15.000Z</time>
      </trkpt>
      <trkpt lat="47.09432" lon="-1.6122">
        <ele>55</ele>
        <time>2021-05-01T11:46:17.000Z</time>
      </trkpt>
      <trkpt lat="47.09442" lon="-1.61208">
        <ele>55</ele>
        <time>2021-05-01T11:46:19.000Z</time>
      </trkpt>
      <trkpt lat="47.09452" lon="-1.61196">
        <ele>55</ele>
        <time>2021-05-01T11:46:21.000Z</time>
      </trkpt>
      <trkpt lat="47.09462" lon="-1.61184">
        <ele>54</ele>
        <time>2021-05-01T11:46:23.000Z</time>
      </trkpt>
      <trkpt lat="47.09473" lon="-1.61174">
        <ele>54</ele>
        <time>2021-05-01T11:46:25.000Z</time>
      </trkpt>
      <trkpt lat="47.09483" lon="-1.61162">
        <ele>54</ele>
        <time>2021-05-01T11:46:27.000Z</time>
      </trkpt>
      <trkpt lat="47.09493" lon="-1.61152">
        <ele>54</ele>
        <time>2021-05-01T11:46:29.000Z</time>
      </trkpt>
      <trkpt lat="47.09506" lon="-1.61145">
        <ele>54</ele>
        <time>2021-05-01T11:46:31.000Z</time>
      </trkpt>
      <trkpt lat="47.09518" lon="-1.6114">
        <ele>54</ele>
        <time>2021-05-01T11:46:33.000Z</time>
      </trkpt>
      <trkpt lat="47.0953" lon="-1.61136">
        <ele>54</ele>
        <time>2021-05-01T11:46:35.000Z</time>
      </trkpt>
      <trkpt lat="47.09542" lon="-1.61134">
        <ele>54</ele>
        <time>2021-05-01T11:46:37.000Z</time>
      </trkpt>
      <trkpt lat="47.09555" lon="-1.61133">
        <ele>55</ele>
        <time>2021-05-01T11:46:39.000Z</time>
      </trkpt>
      <trkpt lat="47.09567" lon="-1.61131">
        <ele>55</ele>
        <time>2021-05-01T11:46:41.000Z</time>
      </trkpt>
      <trkpt lat="47.0958" lon="-1.61129">
        <ele>54</ele>
        <time>2021-05-01T11:46:43.000Z</time>
      </trkpt>
      <trkpt lat="47.09594" lon="-1.61128">
        <ele>53</ele>
        <time>2021-05-01T11:46:45.000Z</time>
      </trkpt>
      <trkpt lat="47.09606" lon="-1.61126">
        <ele>53</ele>
        <time>2021-05-01T11:46:47.000Z</time>
      </trkpt>
      <trkpt lat="47.09619" lon="-1.61124">
        <ele>53</ele>
        <time>2021-05-01T11:46:49.000Z</time>
      </trkpt>
      <trkpt lat="47.09632" lon="-1.61122">
        <ele>53</ele>
        <time>2021-05-01T11:46:51.000Z</time>
      </trkpt>
      <trkpt lat="47.09645" lon="-1.61121">
        <ele>52</ele>
        <time>2021-05-01T11:46:53.000Z</time>
      </trkpt>
      <trkpt lat="47.09658" lon="-1.6112">
        <ele>52</ele>
        <time>2021-05-01T11:46:55.000Z</time>
      </trkpt>
      <trkpt lat="47.0967" lon="-1.61118">
        <ele>52</ele>
        <time>2021-05-01T11:46:57.000Z</time>
      </trkpt>
      <trkpt lat="47.09683" lon="-1.61117">
        <ele>52</ele>
        <time>2021-05-01T11:46:59.000Z</time>
      </trkpt>
      <trkpt lat="47.09696" lon="-1.61115">
        <ele>51</ele>
        <time>2021-05-01T11:47:01.000Z</time>
      </trkpt>
      <trkpt lat="47.0971" lon="-1.61114">
        <ele>51</ele>
        <time>2021-05-01T11:47:03.000Z</time>
      </trkpt>
      <trkpt lat="47.09723" lon="-1.61112">
        <ele>51</ele>
        <time>2021-05-01T11:47:05.000Z</time>
      </trkpt>
      <trkpt lat="47.09736" lon="-1.6111">
        <ele>51</ele>
        <time>2021-05-01T11:47:07.000Z</time>
      </trkpt>
      <trkpt lat="47.09749" lon="-1.61108">
        <ele>51</ele>
        <time>2021-05-01T11:47:09.000Z</time>
      </trkpt>
      <trkpt lat="47.09761" lon="-1.61107">
        <ele>51</ele>
        <time>2021-05-01T11:47:11.000Z</time>
      </trkpt>
      <trkpt lat="47.09774" lon="-1.61105">
        <ele>51</ele>
        <time>2021-05-01T11:47:13.000Z</time>
      </trkpt>
      <trkpt lat="47.09786" lon="-1.61103">
        <ele>52</ele>
        <time>2021-05-01T11:47:15.000Z</time>
      </trkpt>
      <trkpt lat="47.09799" lon="-1.61098">
        <ele>52</ele>
        <time>2021-05-01T11:47:17.000Z</time>
      </trkpt>
      <trkpt lat="47.09811" lon="-1.61092">
        <ele>52</ele>
        <time>2021-05-01T11:47:19.000Z</time>
      </trkpt>
      <trkpt lat="47.09823" lon="-1.61084">
        <ele>52</ele>
        <time>2021-05-01T11:47:21.000Z</time>
      </trkpt>
      <trkpt lat="47.09834" lon="-1.61075">
        <ele>52</ele>
        <time>2021-05-01T11:47:23.000Z</time>
      </trkpt>
      <trkpt lat="47.09843" lon="-1.61065">
        <ele>51</ele>
        <time>2021-05-01T11:47:25.000Z</time>
      </trkpt>
      <trkpt lat="47.09852" lon="-1.61053">
        <ele>51</ele>
        <time>2021-05-01T11:47:27.000Z</time>
      </trkpt>
      <trkpt lat="47.0986" lon="-1.6104">
        <ele>51</ele>
        <time>2021-05-01T11:47:29.000Z</time>
      </trkpt>
      <trkpt lat="47.09867" lon="-1.61026">
        <ele>52</ele>
        <time>2021-05-01T11:47:31.000Z</time>
      </trkpt>
      <trkpt lat="47.09874" lon="-1.61012">
        <ele>52</ele>
        <time>2021-05-01T11:47:33.000Z</time>
      </trkpt>
      <trkpt lat="47.09881" lon="-1.60996">
        <ele>52</ele>
        <time>2021-05-01T11:47:35.000Z</time>
      </trkpt>
      <trkpt lat="47.09887" lon="-1.60981">
        <ele>52</ele>
        <time>2021-05-01T11:47:37.000Z</time>
      </trkpt>
      <trkpt lat="47.09893" lon="-1.60965">
        <ele>52</ele>
        <time>2021-05-01T11:47:39.000Z</time>
      </trkpt>
      <trkpt lat="47.09899" lon="-1.6095">
        <ele>52</ele>
        <time>2021-05-01T11:47:41.000Z</time>
      </trkpt>
      <trkpt lat="47.09905" lon="-1.60934">
        <ele>53</ele>
        <time>2021-05-01T11:47:43.000Z</time>
      </trkpt>
      <trkpt lat="47.09911" lon="-1.60919">
        <ele>53</ele>
        <time>2021-05-01T11:47:45.000Z</time>
      </trkpt>
      <trkpt lat="47.09917" lon="-1.60904">
        <ele>53</ele>
        <time>2021-05-01T11:47:47.000Z</time>
      </trkpt>
      <trkpt lat="47.09923" lon="-1.60889">
        <ele>53</ele>
        <time>2021-05-01T11:47:49.000Z</time>
      </trkpt>
      <trkpt lat="47.09929" lon="-1.60874">
        <ele>53</ele>
        <time>2021-05-01T11:47:51.000Z</time>
      </trkpt>
      <trkpt lat="47.09935" lon="-1.60859">
        <ele>54</ele>
        <time>2021-05-01T11:47:53.000Z</time>
      </trkpt>
      <trkpt lat="47.09941" lon="-1.60844">
        <ele>54</ele>
        <time>2021-05-01T11:47:55.000Z</time>
      </trkpt>
      <trkpt lat="47.09946" lon="-1.60828">
        <ele>54</ele>
        <time>2021-05-01T11:47:57.000Z</time>
      </trkpt>
      <trkpt lat="47.09951" lon="-1.60812">
        <ele>55</ele>
        <time>2021-05-01T11:47:59.000Z</time>
      </trkpt>
      <trkpt lat="47.09956" lon="-1.60797">
        <ele>55</ele>
        <time>2021-05-01T11:48:01.000Z</time>
      </trkpt>
      <trkpt lat="47.09961" lon="-1.60781">
        <ele>55</ele>
        <time>2021-05-01T11:48:03.000Z</time>
      </trkpt>
      <trkpt lat="47.09965" lon="-1.60765">
        <ele>55</ele>
        <time>2021-05-01T11:48:05.000Z</time>
      </trkpt>
      <trkpt lat="47.09971" lon="-1.6075">
        <ele>55</ele>
        <time>2021-05-01T11:48:07.000Z</time>
      </trkpt>
      <trkpt lat="47.09975" lon="-1.60734">
        <ele>55</ele>
        <time>2021-05-01T11:48:09.000Z</time>
      </trkpt>
      <trkpt lat="47.0998" lon="-1.60718">
        <ele>55</ele>
        <time>2021-05-01T11:48:11.000Z</time>
      </trkpt>
      <trkpt lat="47.09984" lon="-1.60703">
        <ele>55</ele>
        <time>2021-05-01T11:48:13.000Z</time>
      </trkpt>
      <trkpt lat="47.09989" lon="-1.60687">
        <ele>55</ele>
        <time>2021-05-01T11:48:15.000Z</time>
      </trkpt>
      <trkpt lat="47.09994" lon="-1.60671">
        <ele>55</ele>
        <time>2021-05-01T11:48:17.000Z</time>
      </trkpt>
      <trkpt lat="47.09999" lon="-1.60654">
        <ele>55</ele>
        <time>2021-05-01T11:48:19.000Z</time>
      </trkpt>
      <trkpt lat="47.10003" lon="-1.60638">
        <ele>54</ele>
        <time>2021-05-01T11:48:21.000Z</time>
      </trkpt>
      <trkpt lat="47.10008" lon="-1.60622">
        <ele>54</ele>
        <time>2021-05-01T11:48:23.000Z</time>
      </trkpt>
      <trkpt lat="47.10013" lon="-1.60606">
        <ele>54</ele>
        <time>2021-05-01T11:48:25.000Z</time>
      </trkpt>
      <trkpt lat="47.10018" lon="-1.6059">
        <ele>54</ele>
        <time>2021-05-01T11:48:27.000Z</time>
      </trkpt>
      <trkpt lat="47.10023" lon="-1.60574">
        <ele>54</ele>
        <time>2021-05-01T11:48:29.000Z</time>
      </trkpt>
      <trkpt lat="47.10027" lon="-1.60557">
        <ele>54</ele>
        <time>2021-05-01T11:48:31.000Z</time>
      </trkpt>
      <trkpt lat="47.10032" lon="-1.60541">
        <ele>54</ele>
        <time>2021-05-01T11:48:33.000Z</time>
      </trkpt>
      <trkpt lat="47.10037" lon="-1.60524">
        <ele>54</ele>
        <time>2021-05-01T11:48:35.000Z</time>
      </trkpt>
      <trkpt lat="47.10042" lon="-1.60507">
        <ele>54</ele>
        <time>2021-05-01T11:48:37.000Z</time>
      </trkpt>
      <trkpt lat="47.10046" lon="-1.6049">
        <ele>55</ele>
        <time>2021-05-01T11:48:39.000Z</time>
      </trkpt>
      <trkpt lat="47.1005" lon="-1.60473">
        <ele>55</ele>
        <time>2021-05-01T11:48:41.000Z</time>
      </trkpt>
      <trkpt lat="47.10053" lon="-1.60455">
        <ele>55</ele>
        <time>2021-05-01T11:48:43.000Z</time>
      </trkpt>
      <trkpt lat="47.10056" lon="-1.60437">
        <ele>55</ele>
        <time>2021-05-01T11:48:45.000Z</time>
      </trkpt>
      <trkpt lat="47.10059" lon="-1.60419">
        <ele>55</ele>
        <time>2021-05-01T11:48:47.000Z</time>
      </trkpt>
      <trkpt lat="47.10061" lon="-1.60401">
        <ele>55</ele>
        <time>2021-05-01T11:48:49.000Z</time>
      </trkpt>
      <trkpt lat="47.10063" lon="-1.60383">
        <ele>55</ele>
        <time>2021-05-01T11:48:51.000Z</time>
      </trkpt>
      <trkpt lat="47.10065" lon="-1.60365">
        <ele>55</ele>
        <time>2021-05-01T11:48:53.000Z</time>
      </trkpt>
      <trkpt lat="47.10067" lon="-1.60346">
        <ele>56</ele>
        <time>2021-05-01T11:48:55.000Z</time>
      </trkpt>
      <trkpt lat="47.10068" lon="-1.60329">
        <ele>56</ele>
        <time>2021-05-01T11:48:57.000Z</time>
      </trkpt>
      <trkpt lat="47.1007" lon="-1.60311">
        <ele>56</ele>
        <time>2021-05-01T11:48:59.000Z</time>
      </trkpt>
      <trkpt lat="47.10071" lon="-1.60294">
        <ele>56</ele>
        <time>2021-05-01T11:49:01.000Z</time>
      </trkpt>
      <trkpt lat="47.10073" lon="-1.60277">
        <ele>56</ele>
        <time>2021-05-01T11:49:03.000Z</time>
      </trkpt>
      <trkpt lat="47.10075" lon="-1.60258">
        <ele>56</ele>
        <time>2021-05-01T11:49:05.000Z</time>
      </trkpt>
      <trkpt lat="47.10076" lon="-1.6024">
        <ele>56</ele>
        <time>2021-05-01T11:49:07.000Z</time>
      </trkpt>
      <trkpt lat="47.10077" lon="-1.60223">
        <ele>56</ele>
        <time>2021-05-01T11:49:09.000Z</time>
      </trkpt>
      <trkpt lat="47.10078" lon="-1.60205">
        <ele>55</ele>
        <time>2021-05-01T11:49:11.000Z</time>
      </trkpt>
      <trkpt lat="47.10079" lon="-1.60188">
        <ele>56</ele>
        <time>2021-05-01T11:49:13.000Z</time>
      </trkpt>
      <trkpt lat="47.10078" lon="-1.6017">
        <ele>56</ele>
        <time>2021-05-01T11:49:15.000Z</time>
      </trkpt>
      <trkpt lat="47.10075" lon="-1.60153">
        <ele>56</ele>
        <time>2021-05-01T11:49:17.000Z</time>
      </trkpt>
      <trkpt lat="47.10071" lon="-1.60135">
        <ele>56</ele>
        <time>2021-05-01T11:49:19.000Z</time>
      </trkpt>
      <trkpt lat="47.10074" lon="-1.60116">
        <ele>56</ele>
        <time>2021-05-01T11:49:21.000Z</time>
      </trkpt>
      <trkpt lat="47.10084" lon="-1.60103">
        <ele>56</ele>
        <time>2021-05-01T11:49:23.000Z</time>
      </trkpt>
      <trkpt lat="47.10096" lon="-1.60096">
        <ele>56</ele>
        <time>2021-05-01T11:49:25.000Z</time>
      </trkpt>
      <trkpt lat="47.10106" lon="-1.60088">
        <ele>56</ele>
        <time>2021-05-01T11:49:27.000Z</time>
      </trkpt>
      <trkpt lat="47.10115" lon="-1.60075">
        <ele>57</ele>
        <time>2021-05-01T11:49:29.000Z</time>
      </trkpt>
      <trkpt lat="47.10123" lon="-1.60062">
        <ele>57</ele>
        <time>2021-05-01T11:49:31.000Z</time>
      </trkpt>
      <trkpt lat="47.1013" lon="-1.60049">
        <ele>59</ele>
        <time>2021-05-01T11:49:33.000Z</time>
      </trkpt>
      <trkpt lat="47.10134" lon="-1.60037">
        <ele>60</ele>
        <time>2021-05-01T11:49:36.000Z</time>
      </trkpt>
      <trkpt lat="47.10139" lon="-1.60024">
        <ele>58</ele>
        <time>2021-05-01T11:49:39.000Z</time>
      </trkpt>
      <trkpt lat="47.10147" lon="-1.60012">
        <ele>58</ele>
        <time>2021-05-01T11:49:41.000Z</time>
      </trkpt>
      <trkpt lat="47.10156" lon="-1.59998">
        <ele>57</ele>
        <time>2021-05-01T11:49:43.000Z</time>
      </trkpt>
      <trkpt lat="47.10164" lon="-1.59984">
        <ele>57</ele>
        <time>2021-05-01T11:49:45.000Z</time>
      </trkpt>
      <trkpt lat="47.10173" lon="-1.5997">
        <ele>56</ele>
        <time>2021-05-01T11:49:47.000Z</time>
      </trkpt>
      <trkpt lat="47.10181" lon="-1.59956">
        <ele>57</ele>
        <time>2021-05-01T11:49:49.000Z</time>
      </trkpt>
      <trkpt lat="47.1019" lon="-1.59943">
        <ele>57</ele>
        <time>2021-05-01T11:49:51.000Z</time>
      </trkpt>
      <trkpt lat="47.10198" lon="-1.59929">
        <ele>56</ele>
        <time>2021-05-01T11:49:53.000Z</time>
      </trkpt>
      <trkpt lat="47.10207" lon="-1.59915">
        <ele>57</ele>
        <time>2021-05-01T11:49:55.000Z</time>
      </trkpt>
      <trkpt lat="47.10214" lon="-1.59901">
        <ele>57</ele>
        <time>2021-05-01T11:49:57.000Z</time>
      </trkpt>
      <trkpt lat="47.10223" lon="-1.59887">
        <ele>58</ele>
        <time>2021-05-01T11:49:59.000Z</time>
      </trkpt>
      <trkpt lat="47.10231" lon="-1.59874">
        <ele>58</ele>
        <time>2021-05-01T11:50:01.000Z</time>
      </trkpt>
      <trkpt lat="47.10238" lon="-1.5986">
        <ele>59</ele>
        <time>2021-05-01T11:50:03.000Z</time>
      </trkpt>
      <trkpt lat="47.10247" lon="-1.59847">
        <ele>60</ele>
        <time>2021-05-01T11:50:05.000Z</time>
      </trkpt>
      <trkpt lat="47.10255" lon="-1.59834">
        <ele>60</ele>
        <time>2021-05-01T11:50:07.000Z</time>
      </trkpt>
      <trkpt lat="47.10264" lon="-1.59821">
        <ele>59</ele>
        <time>2021-05-01T11:50:09.000Z</time>
      </trkpt>
      <trkpt lat="47.10272" lon="-1.59808">
        <ele>58</ele>
        <time>2021-05-01T11:50:11.000Z</time>
      </trkpt>
      <trkpt lat="47.1028" lon="-1.59796">
        <ele>58</ele>
        <time>2021-05-01T11:50:13.000Z</time>
      </trkpt>
      <trkpt lat="47.10287" lon="-1.59784">
        <ele>58</ele>
        <time>2021-05-01T11:50:15.000Z</time>
      </trkpt>
      <trkpt lat="47.10295" lon="-1.59771">
        <ele>58</ele>
        <time>2021-05-01T11:50:17.000Z</time>
      </trkpt>
      <trkpt lat="47.10302" lon="-1.59758">
        <ele>57</ele>
        <time>2021-05-01T11:50:19.000Z</time>
      </trkpt>
      <trkpt lat="47.1031" lon="-1.59744">
        <ele>58</ele>
        <time>2021-05-01T11:50:21.000Z</time>
      </trkpt>
      <trkpt lat="47.10317" lon="-1.59731">
        <ele>59</ele>
        <time>2021-05-01T11:50:23.000Z</time>
      </trkpt>
      <trkpt lat="47.10324" lon="-1.59718">
        <ele>60</ele>
        <time>2021-05-01T11:50:25.000Z</time>
      </trkpt>
      <trkpt lat="47.10332" lon="-1.59705">
        <ele>61</ele>
        <time>2021-05-01T11:50:27.000Z</time>
      </trkpt>
      <trkpt lat="47.1034" lon="-1.59692">
        <ele>62</ele>
        <time>2021-05-01T11:50:29.000Z</time>
      </trkpt>
      <trkpt lat="47.10348" lon="-1.59679">
        <ele>62</ele>
        <time>2021-05-01T11:50:31.000Z</time>
      </trkpt>
      <trkpt lat="47.10356" lon="-1.59667">
        <ele>62</ele>
        <time>2021-05-01T11:50:33.000Z</time>
      </trkpt>
      <trkpt lat="47.10364" lon="-1.59654">
        <ele>62</ele>
        <time>2021-05-01T11:50:35.000Z</time>
      </trkpt>
      <trkpt lat="47.10372" lon="-1.59642">
        <ele>62</ele>
        <time>2021-05-01T11:50:37.000Z</time>
      </trkpt>
      <trkpt lat="47.10379" lon="-1.59629">
        <ele>61</ele>
        <time>2021-05-01T11:50:39.000Z</time>
      </trkpt>
      <trkpt lat="47.10386" lon="-1.59616">
        <ele>62</ele>
        <time>2021-05-01T11:50:41.000Z</time>
      </trkpt>
      <trkpt lat="47.10394" lon="-1.59602">
        <ele>62</ele>
        <time>2021-05-01T11:50:43.000Z</time>
      </trkpt>
      <trkpt lat="47.10401" lon="-1.59589">
        <ele>63</ele>
        <time>2021-05-01T11:50:45.000Z</time>
      </trkpt>
      <trkpt lat="47.10409" lon="-1.59576">
        <ele>60</ele>
        <time>2021-05-01T11:50:47.000Z</time>
      </trkpt>
      <trkpt lat="47.10418" lon="-1.59564">
        <ele>59</ele>
        <time>2021-05-01T11:50:49.000Z</time>
      </trkpt>
      <trkpt lat="47.10425" lon="-1.59551">
        <ele>58</ele>
        <time>2021-05-01T11:50:51.000Z</time>
      </trkpt>
      <trkpt lat="47.10433" lon="-1.59538">
        <ele>57</ele>
        <time>2021-05-01T11:50:53.000Z</time>
      </trkpt>
      <trkpt lat="47.1044" lon="-1.59526">
        <ele>57</ele>
        <time>2021-05-01T11:50:55.000Z</time>
      </trkpt>
      <trkpt lat="47.10448" lon="-1.59515">
        <ele>57</ele>
        <time>2021-05-01T11:50:57.000Z</time>
      </trkpt>
      <trkpt lat="47.10456" lon="-1.59502">
        <ele>56</ele>
        <time>2021-05-01T11:50:59.000Z</time>
      </trkpt>
      <trkpt lat="47.10463" lon="-1.59488">
        <ele>55</ele>
        <time>2021-05-01T11:51:01.000Z</time>
      </trkpt>
      <trkpt lat="47.1047" lon="-1.59475">
        <ele>55</ele>
        <time>2021-05-01T11:51:03.000Z</time>
      </trkpt>
      <trkpt lat="47.10478" lon="-1.59462">
        <ele>55</ele>
        <time>2021-05-01T11:51:05.000Z</time>
      </trkpt>
      <trkpt lat="47.10485" lon="-1.59449">
        <ele>55</ele>
        <time>2021-05-01T11:51:07.000Z</time>
      </trkpt>
      <trkpt lat="47.10493" lon="-1.59437">
        <ele>55</ele>
        <time>2021-05-01T11:51:09.000Z</time>
      </trkpt>
      <trkpt lat="47.105" lon="-1.59424">
        <ele>55</ele>
        <time>2021-05-01T11:51:11.000Z</time>
      </trkpt>
      <trkpt lat="47.10507" lon="-1.59412">
        <ele>55</ele>
        <time>2021-05-01T11:51:13.000Z</time>
      </trkpt>
      <trkpt lat="47.10515" lon="-1.59399">
        <ele>55</ele>
        <time>2021-05-01T11:51:15.000Z</time>
      </trkpt>
      <trkpt lat="47.10522" lon="-1.59387">
        <ele>55</ele>
        <time>2021-05-01T11:51:17.000Z</time>
      </trkpt>
      <trkpt lat="47.1053" lon="-1.59374">
        <ele>55</ele>
        <time>2021-05-01T11:51:19.000Z</time>
      </trkpt>
      <trkpt lat="47.10537" lon="-1.59362">
        <ele>55</ele>
        <time>2021-05-01T11:51:21.000Z</time>
      </trkpt>
      <trkpt lat="47.10544" lon="-1.5935">
        <ele>55</ele>
        <time>2021-05-01T11:51:23.000Z</time>
      </trkpt>
      <trkpt lat="47.10552" lon="-1.59336">
        <ele>55</ele>
        <time>2021-05-01T11:51:25.000Z</time>
      </trkpt>
      <trkpt lat="47.10559" lon="-1.59323">
        <ele>56</ele>
        <time>2021-05-01T11:51:27.000Z</time>
      </trkpt>
      <trkpt lat="47.10566" lon="-1.5931">
        <ele>56</ele>
        <time>2021-05-01T11:51:29.000Z</time>
      </trkpt>
      <trkpt lat="47.10573" lon="-1.59298">
        <ele>56</ele>
        <time>2021-05-01T11:51:31.000Z</time>
      </trkpt>
      <trkpt lat="47.1058" lon="-1.59287">
        <ele>56</ele>
        <time>2021-05-01T11:51:33.000Z</time>
      </trkpt>
      <trkpt lat="47.10589" lon="-1.59276">
        <ele>57</ele>
        <time>2021-05-01T11:51:35.000Z</time>
      </trkpt>
      <trkpt lat="47.10599" lon="-1.59265">
        <ele>57</ele>
        <time>2021-05-01T11:51:37.000Z</time>
      </trkpt>
      <trkpt lat="47.10606" lon="-1.59249">
        <ele>57</ele>
        <time>2021-05-01T11:51:39.000Z</time>
      </trkpt>
      <trkpt lat="47.10614" lon="-1.59233">
        <ele>57</ele>
        <time>2021-05-01T11:51:41.000Z</time>
      </trkpt>
      <trkpt lat="47.10623" lon="-1.59219">
        <ele>57</ele>
        <time>2021-05-01T11:51:43.000Z</time>
      </trkpt>
      <trkpt lat="47.10631" lon="-1.59206">
        <ele>58</ele>
        <time>2021-05-01T11:51:45.000Z</time>
      </trkpt>
      <trkpt lat="47.10639" lon="-1.59191">
        <ele>58</ele>
        <time>2021-05-01T11:51:47.000Z</time>
      </trkpt>
      <trkpt lat="47.10646" lon="-1.59176">
        <ele>58</ele>
        <time>2021-05-01T11:51:49.000Z</time>
      </trkpt>
      <trkpt lat="47.10653" lon="-1.59161">
        <ele>59</ele>
        <time>2021-05-01T11:51:51.000Z</time>
      </trkpt>
      <trkpt lat="47.1066" lon="-1.59146">
        <ele>59</ele>
        <time>2021-05-01T11:51:53.000Z</time>
      </trkpt>
      <trkpt lat="47.10666" lon="-1.5913">
        <ele>60</ele>
        <time>2021-05-01T11:51:55.000Z</time>
      </trkpt>
      <trkpt lat="47.10672" lon="-1.59115">
        <ele>60</ele>
        <time>2021-05-01T11:51:57.000Z</time>
      </trkpt>
      <trkpt lat="47.10677" lon="-1.59099">
        <ele>61</ele>
        <time>2021-05-01T11:51:59.000Z</time>
      </trkpt>
      <trkpt lat="47.10683" lon="-1.59083">
        <ele>61</ele>
        <time>2021-05-01T11:52:01.000Z</time>
      </trkpt>
      <trkpt lat="47.10688" lon="-1.59068">
        <ele>61</ele>
        <time>2021-05-01T11:52:03.000Z</time>
      </trkpt>
      <trkpt lat="47.10693" lon="-1.59052">
        <ele>62</ele>
        <time>2021-05-01T11:52:05.000Z</time>
      </trkpt>
      <trkpt lat="47.10699" lon="-1.59037">
        <ele>62</ele>
        <time>2021-05-01T11:52:07.000Z</time>
      </trkpt>
      <trkpt lat="47.10704" lon="-1.59023">
        <ele>62</ele>
        <time>2021-05-01T11:52:09.000Z</time>
      </trkpt>
      <trkpt lat="47.1071" lon="-1.59008">
        <ele>62</ele>
        <time>2021-05-01T11:52:11.000Z</time>
      </trkpt>
      <trkpt lat="47.10716" lon="-1.58993">
        <ele>62</ele>
        <time>2021-05-01T11:52:13.000Z</time>
      </trkpt>
      <trkpt lat="47.10722" lon="-1.58979">
        <ele>62</ele>
        <time>2021-05-01T11:52:15.000Z</time>
      </trkpt>
      <trkpt lat="47.10728" lon="-1.58964">
        <ele>63</ele>
        <time>2021-05-01T11:52:17.000Z</time>
      </trkpt>
      <trkpt lat="47.10734" lon="-1.58948">
        <ele>63</ele>
        <time>2021-05-01T11:52:19.000Z</time>
      </trkpt>
      <trkpt lat="47.10739" lon="-1.58932">
        <ele>63</ele>
        <time>2021-05-01T11:52:21.000Z</time>
      </trkpt>
      <trkpt lat="47.10746" lon="-1.58918">
        <ele>62</ele>
        <time>2021-05-01T11:52:23.000Z</time>
      </trkpt>
      <trkpt lat="47.10754" lon="-1.58904">
        <ele>62</ele>
        <time>2021-05-01T11:52:25.000Z</time>
      </trkpt>
      <trkpt lat="47.10762" lon="-1.5889">
        <ele>61</ele>
        <time>2021-05-01T11:52:27.000Z</time>
      </trkpt>
      <trkpt lat="47.10771" lon="-1.58878">
        <ele>61</ele>
        <time>2021-05-01T11:52:29.000Z</time>
      </trkpt>
      <trkpt lat="47.10779" lon="-1.58865">
        <ele>61</ele>
        <time>2021-05-01T11:52:31.000Z</time>
      </trkpt>
      <trkpt lat="47.10787" lon="-1.58851">
        <ele>61</ele>
        <time>2021-05-01T11:52:33.000Z</time>
      </trkpt>
      <trkpt lat="47.10795" lon="-1.58838">
        <ele>60</ele>
        <time>2021-05-01T11:52:35.000Z</time>
      </trkpt>
      <trkpt lat="47.10803" lon="-1.58825">
        <ele>60</ele>
        <time>2021-05-01T11:52:37.000Z</time>
      </trkpt>
      <trkpt lat="47.10811" lon="-1.58812">
        <ele>60</ele>
        <time>2021-05-01T11:52:39.000Z</time>
      </trkpt>
      <trkpt lat="47.1082" lon="-1.58799">
        <ele>60</ele>
        <time>2021-05-01T11:52:41.000Z</time>
      </trkpt>
      <trkpt lat="47.10828" lon="-1.58785">
        <ele>59</ele>
        <time>2021-05-01T11:52:43.000Z</time>
      </trkpt>
      <trkpt lat="47.10837" lon="-1.58772">
        <ele>59</ele>
        <time>2021-05-01T11:52:45.000Z</time>
      </trkpt>
      <trkpt lat="47.10846" lon="-1.58759">
        <ele>59</ele>
        <time>2021-05-01T11:52:47.000Z</time>
      </trkpt>
      <trkpt lat="47.10855" lon="-1.58746">
        <ele>59</ele>
        <time>2021-05-01T11:52:49.000Z</time>
      </trkpt>
      <trkpt lat="47.10864" lon="-1.58733">
        <ele>58</ele>
        <time>2021-05-01T11:52:51.000Z</time>
      </trkpt>
      <trkpt lat="47.10873" lon="-1.5872">
        <ele>58</ele>
        <time>2021-05-01T11:52:53.000Z</time>
      </trkpt>
      <trkpt lat="47.10882" lon="-1.58706">
        <ele>58</ele>
        <time>2021-05-01T11:52:55.000Z</time>
      </trkpt>
      <trkpt lat="47.1089" lon="-1.58692">
        <ele>57</ele>
        <time>2021-05-01T11:52:57.000Z</time>
      </trkpt>
      <trkpt lat="47.109" lon="-1.58677">
        <ele>57</ele>
        <time>2021-05-01T11:52:59.000Z</time>
      </trkpt>
      <trkpt lat="47.1091" lon="-1.58663">
        <ele>57</ele>
        <time>2021-05-01T11:53:01.000Z</time>
      </trkpt>
      <trkpt lat="47.1092" lon="-1.5865">
        <ele>56</ele>
        <time>2021-05-01T11:53:03.000Z</time>
      </trkpt>
      <trkpt lat="47.1093" lon="-1.58634">
        <ele>56</ele>
        <time>2021-05-01T11:53:05.000Z</time>
      </trkpt>
      <trkpt lat="47.1094" lon="-1.58619">
        <ele>55</ele>
        <time>2021-05-01T11:53:07.000Z</time>
      </trkpt>
      <trkpt lat="47.10951" lon="-1.58604">
        <ele>55</ele>
        <time>2021-05-01T11:53:09.000Z</time>
      </trkpt>
      <trkpt lat="47.10962" lon="-1.58589">
        <ele>55</ele>
        <time>2021-05-01T11:53:11.000Z</time>
      </trkpt>
      <trkpt lat="47.10972" lon="-1.58573">
        <ele>54</ele>
        <time>2021-05-01T11:53:13.000Z</time>
      </trkpt>
      <trkpt lat="47.10982" lon="-1.58558">
        <ele>54</ele>
        <time>2021-05-01T11:53:15.000Z</time>
      </trkpt>
      <trkpt lat="47.10992" lon="-1.58542">
        <ele>53</ele>
        <time>2021-05-01T11:53:17.000Z</time>
      </trkpt>
      <trkpt lat="47.11002" lon="-1.58527">
        <ele>53</ele>
        <time>2021-05-01T11:53:19.000Z</time>
      </trkpt>
      <trkpt lat="47.11013" lon="-1.58512">
        <ele>53</ele>
        <time>2021-05-01T11:53:21.000Z</time>
      </trkpt>
      <trkpt lat="47.11023" lon="-1.58497">
        <ele>52</ele>
        <time>2021-05-01T11:53:23.000Z</time>
      </trkpt>
      <trkpt lat="47.11032" lon="-1.58482">
        <ele>53</ele>
        <time>2021-05-01T11:53:25.000Z</time>
      </trkpt>
      <trkpt lat="47.11042" lon="-1.58466">
        <ele>53</ele>
        <time>2021-05-01T11:53:27.000Z</time>
      </trkpt>
      <trkpt lat="47.11051" lon="-1.58451">
        <ele>53</ele>
        <time>2021-05-01T11:53:29.000Z</time>
      </trkpt>
      <trkpt lat="47.11061" lon="-1.58436">
        <ele>53</ele>
        <time>2021-05-01T11:53:31.000Z</time>
      </trkpt>
      <trkpt lat="47.11071" lon="-1.58422">
        <ele>53</ele>
        <time>2021-05-01T11:53:33.000Z</time>
      </trkpt>
      <trkpt lat="47.1108" lon="-1.58407">
        <ele>53</ele>
        <time>2021-05-01T11:53:35.000Z</time>
      </trkpt>
      <trkpt lat="47.1109" lon="-1.58394">
        <ele>53</ele>
        <time>2021-05-01T11:53:37.000Z</time>
      </trkpt>
      <trkpt lat="47.11099" lon="-1.58379">
        <ele>53</ele>
        <time>2021-05-01T11:53:39.000Z</time>
      </trkpt>
      <trkpt lat="47.11108" lon="-1.58365">
        <ele>53</ele>
        <time>2021-05-01T11:53:41.000Z</time>
      </trkpt>
      <trkpt lat="47.11117" lon="-1.5835">
        <ele>53</ele>
        <time>2021-05-01T11:53:43.000Z</time>
      </trkpt>
      <trkpt lat="47.11127" lon="-1.58337">
        <ele>53</ele>
        <time>2021-05-01T11:53:45.000Z</time>
      </trkpt>
      <trkpt lat="47.11136" lon="-1.58322">
        <ele>53</ele>
        <time>2021-05-01T11:53:47.000Z</time>
      </trkpt>
      <trkpt lat="47.11146" lon="-1.58308">
        <ele>53</ele>
        <time>2021-05-01T11:53:49.000Z</time>
      </trkpt>
      <trkpt lat="47.11155" lon="-1.58293">
        <ele>53</ele>
        <time>2021-05-01T11:53:51.000Z</time>
      </trkpt>
      <trkpt lat="47.11165" lon="-1.58279">
        <ele>53</ele>
        <time>2021-05-01T11:53:53.000Z</time>
      </trkpt>
      <trkpt lat="47.11174" lon="-1.58264">
        <ele>52</ele>
        <time>2021-05-01T11:53:55.000Z</time>
      </trkpt>
      <trkpt lat="47.11183" lon="-1.58251">
        <ele>52</ele>
        <time>2021-05-01T11:53:57.000Z</time>
      </trkpt>
      <trkpt lat="47.11192" lon="-1.58237">
        <ele>52</ele>
        <time>2021-05-01T11:53:59.000Z</time>
      </trkpt>
      <trkpt lat="47.11202" lon="-1.58223">
        <ele>52</ele>
        <time>2021-05-01T11:54:01.000Z</time>
      </trkpt>
      <trkpt lat="47.11212" lon="-1.5821">
        <ele>52</ele>
        <time>2021-05-01T11:54:03.000Z</time>
      </trkpt>
      <trkpt lat="47.11222" lon="-1.58197">
        <ele>51</ele>
        <time>2021-05-01T11:54:05.000Z</time>
      </trkpt>
      <trkpt lat="47.11232" lon="-1.58185">
        <ele>51</ele>
        <time>2021-05-01T11:54:07.000Z</time>
      </trkpt>
      <trkpt lat="47.11243" lon="-1.58173">
        <ele>51</ele>
        <time>2021-05-01T11:54:09.000Z</time>
      </trkpt>
      <trkpt lat="47.11254" lon="-1.58161">
        <ele>51</ele>
        <time>2021-05-01T11:54:11.000Z</time>
      </trkpt>
      <trkpt lat="47.11265" lon="-1.58151">
        <ele>51</ele>
        <time>2021-05-01T11:54:13.000Z</time>
      </trkpt>
      <trkpt lat="47.11277" lon="-1.58141">
        <ele>51</ele>
        <time>2021-05-01T11:54:15.000Z</time>
      </trkpt>
      <trkpt lat="47.11288" lon="-1.58131">
        <ele>50</ele>
        <time>2021-05-01T11:54:17.000Z</time>
      </trkpt>
      <trkpt lat="47.113" lon="-1.58122">
        <ele>50</ele>
        <time>2021-05-01T11:54:19.000Z</time>
      </trkpt>
      <trkpt lat="47.11313" lon="-1.58113">
        <ele>50</ele>
        <time>2021-05-01T11:54:21.000Z</time>
      </trkpt>
      <trkpt lat="47.11325" lon="-1.58105">
        <ele>50</ele>
        <time>2021-05-01T11:54:23.000Z</time>
      </trkpt>
      <trkpt lat="47.11338" lon="-1.58097">
        <ele>50</ele>
        <time>2021-05-01T11:54:25.000Z</time>
      </trkpt>
      <trkpt lat="47.1135" lon="-1.58089">
        <ele>50</ele>
        <time>2021-05-01T11:54:27.000Z</time>
      </trkpt>
      <trkpt lat="47.11363" lon="-1.58081">
        <ele>50</ele>
        <time>2021-05-01T11:54:29.000Z</time>
      </trkpt>
      <trkpt lat="47.11375" lon="-1.58073">
        <ele>50</ele>
        <time>2021-05-01T11:54:31.000Z</time>
      </trkpt>
      <trkpt lat="47.11388" lon="-1.58065">
        <ele>50</ele>
        <time>2021-05-01T11:54:33.000Z</time>
      </trkpt>
      <trkpt lat="47.11401" lon="-1.58057">
        <ele>50</ele>
        <time>2021-05-01T11:54:35.000Z</time>
      </trkpt>
      <trkpt lat="47.11413" lon="-1.58049">
        <ele>50</ele>
        <time>2021-05-01T11:54:37.000Z</time>
      </trkpt>
      <trkpt lat="47.11426" lon="-1.58041">
        <ele>51</ele>
        <time>2021-05-01T11:54:39.000Z</time>
      </trkpt>
      <trkpt lat="47.11439" lon="-1.58035">
        <ele>51</ele>
        <time>2021-05-01T11:54:41.000Z</time>
      </trkpt>
      <trkpt lat="47.11452" lon="-1.5803">
        <ele>50</ele>
        <time>2021-05-01T11:54:43.000Z</time>
      </trkpt>
      <trkpt lat="47.11466" lon="-1.58026">
        <ele>50</ele>
        <time>2021-05-01T11:54:45.000Z</time>
      </trkpt>
      <trkpt lat="47.1148" lon="-1.58023">
        <ele>50</ele>
        <time>2021-05-01T11:54:47.000Z</time>
      </trkpt>
      <trkpt lat="47.11493" lon="-1.5802">
        <ele>50</ele>
        <time>2021-05-01T11:54:49.000Z</time>
      </trkpt>
      <trkpt lat="47.11506" lon="-1.58018">
        <ele>51</ele>
        <time>2021-05-01T11:54:51.000Z</time>
      </trkpt>
      <trkpt lat="47.11519" lon="-1.58017">
        <ele>52</ele>
        <time>2021-05-01T11:54:53.000Z</time>
      </trkpt>
      <trkpt lat="47.11532" lon="-1.58017">
        <ele>53</ele>
        <time>2021-05-01T11:54:55.000Z</time>
      </trkpt>
      <trkpt lat="47.11544" lon="-1.58018">
        <ele>53</ele>
        <time>2021-05-01T11:54:57.000Z</time>
      </trkpt>
      <trkpt lat="47.11557" lon="-1.58019">
        <ele>53</ele>
        <time>2021-05-01T11:54:59.000Z</time>
      </trkpt>
      <trkpt lat="47.1157" lon="-1.5802">
        <ele>53</ele>
        <time>2021-05-01T11:55:01.000Z</time>
      </trkpt>
      <trkpt lat="47.11583" lon="-1.58021">
        <ele>54</ele>
        <time>2021-05-01T11:55:03.000Z</time>
      </trkpt>
      <trkpt lat="47.11596" lon="-1.58022">
        <ele>54</ele>
        <time>2021-05-01T11:55:05.000Z</time>
      </trkpt>
      <trkpt lat="47.11609" lon="-1.58024">
        <ele>54</ele>
        <time>2021-05-01T11:55:07.000Z</time>
      </trkpt>
      <trkpt lat="47.11621" lon="-1.58027">
        <ele>54</ele>
        <time>2021-05-01T11:55:09.000Z</time>
      </trkpt>
      <trkpt lat="47.11632" lon="-1.58024">
        <ele>53</ele>
        <time>2021-05-01T11:55:11.000Z</time>
      </trkpt>
      <trkpt lat="47.11645" lon="-1.58022">
        <ele>53</ele>
        <time>2021-05-01T11:55:13.000Z</time>
      </trkpt>
      <trkpt lat="47.11657" lon="-1.58025">
        <ele>52</ele>
        <time>2021-05-01T11:55:15.000Z</time>
      </trkpt>
      <trkpt lat="47.11669" lon="-1.58027">
        <ele>52</ele>
        <time>2021-05-01T11:55:17.000Z</time>
      </trkpt>
      <trkpt lat="47.11682" lon="-1.58027">
        <ele>52</ele>
        <time>2021-05-01T11:55:19.000Z</time>
      </trkpt>
      <trkpt lat="47.11694" lon="-1.58028">
        <ele>52</ele>
        <time>2021-05-01T11:55:21.000Z</time>
      </trkpt>
      <trkpt lat="47.11707" lon="-1.58029">
        <ele>52</ele>
        <time>2021-05-01T11:55:23.000Z</time>
      </trkpt>
      <trkpt lat="47.11719" lon="-1.5803">
        <ele>52</ele>
        <time>2021-05-01T11:55:25.000Z</time>
      </trkpt>
      <trkpt lat="47.11732" lon="-1.58032">
        <ele>52</ele>
        <time>2021-05-01T11:55:27.000Z</time>
      </trkpt>
      <trkpt lat="47.11745" lon="-1.58034">
        <ele>53</ele>
        <time>2021-05-01T11:55:29.000Z</time>
      </trkpt>
      <trkpt lat="47.11758" lon="-1.58036">
        <ele>53</ele>
        <time>2021-05-01T11:55:31.000Z</time>
      </trkpt>
      <trkpt lat="47.11771" lon="-1.58039">
        <ele>53</ele>
        <time>2021-05-01T11:55:33.000Z</time>
      </trkpt>
      <trkpt lat="47.11783" lon="-1.58042">
        <ele>53</ele>
        <time>2021-05-01T11:55:35.000Z</time>
      </trkpt>
      <trkpt lat="47.11796" lon="-1.58045">
        <ele>53</ele>
        <time>2021-05-01T11:55:37.000Z</time>
      </trkpt>
      <trkpt lat="47.11809" lon="-1.58048">
        <ele>53</ele>
        <time>2021-05-01T11:55:39.000Z</time>
      </trkpt>
      <trkpt lat="47.11822" lon="-1.58051">
        <ele>53</ele>
        <time>2021-05-01T11:55:41.000Z</time>
      </trkpt>
      <trkpt lat="47.11835" lon="-1.58054">
        <ele>54</ele>
        <time>2021-05-01T11:55:43.000Z</time>
      </trkpt>
      <trkpt lat="47.11847" lon="-1.58057">
        <ele>54</ele>
        <time>2021-05-01T11:55:45.000Z</time>
      </trkpt>
      <trkpt lat="47.11859" lon="-1.58061">
        <ele>54</ele>
        <time>2021-05-01T11:55:47.000Z</time>
      </trkpt>
      <trkpt lat="47.11872" lon="-1.58064">
        <ele>54</ele>
        <time>2021-05-01T11:55:49.000Z</time>
      </trkpt>
      <trkpt lat="47.11884" lon="-1.58067">
        <ele>54</ele>
        <time>2021-05-01T11:55:51.000Z</time>
      </trkpt>
      <trkpt lat="47.11896" lon="-1.5807">
        <ele>54</ele>
        <time>2021-05-01T11:55:53.000Z</time>
      </trkpt>
      <trkpt lat="47.11909" lon="-1.58073">
        <ele>54</ele>
        <time>2021-05-01T11:55:55.000Z</time>
      </trkpt>
      <trkpt lat="47.11921" lon="-1.58076">
        <ele>55</ele>
        <time>2021-05-01T11:55:57.000Z</time>
      </trkpt>
      <trkpt lat="47.11934" lon="-1.58079">
        <ele>55</ele>
        <time>2021-05-01T11:55:59.000Z</time>
      </trkpt>
      <trkpt lat="47.11946" lon="-1.58082">
        <ele>56</ele>
        <time>2021-05-01T11:56:01.000Z</time>
      </trkpt>
      <trkpt lat="47.11958" lon="-1.58085">
        <ele>56</ele>
        <time>2021-05-01T11:56:03.000Z</time>
      </trkpt>
      <trkpt lat="47.1197" lon="-1.58087">
        <ele>56</ele>
        <time>2021-05-01T11:56:05.000Z</time>
      </trkpt>
      <trkpt lat="47.11981" lon="-1.58091">
        <ele>57</ele>
        <time>2021-05-01T11:56:07.000Z</time>
      </trkpt>
      <trkpt lat="47.11992" lon="-1.58095">
        <ele>57</ele>
        <time>2021-05-01T11:56:09.000Z</time>
      </trkpt>
      <trkpt lat="47.12003" lon="-1.58098">
        <ele>57</ele>
        <time>2021-05-01T11:56:11.000Z</time>
      </trkpt>
      <trkpt lat="47.12014" lon="-1.58096">
        <ele>57</ele>
        <time>2021-05-01T11:56:13.000Z</time>
      </trkpt>
      <trkpt lat="47.12024" lon="-1.58097">
        <ele>57</ele>
        <time>2021-05-01T11:56:15.000Z</time>
      </trkpt>
      <trkpt lat="47.12032" lon="-1.58109">
        <ele>58</ele>
        <time>2021-05-01T11:56:17.000Z</time>
      </trkpt>
      <trkpt lat="47.12042" lon="-1.58117">
        <ele>57</ele>
        <time>2021-05-01T11:56:19.000Z</time>
      </trkpt>
      <trkpt lat="47.12054" lon="-1.58124">
        <ele>56</ele>
        <time>2021-05-01T11:56:21.000Z</time>
      </trkpt>
      <trkpt lat="47.12065" lon="-1.58131">
        <ele>55</ele>
        <time>2021-05-01T11:56:23.000Z</time>
      </trkpt>
      <trkpt lat="47.12077" lon="-1.58138">
        <ele>55</ele>
        <time>2021-05-01T11:56:25.000Z</time>
      </trkpt>
      <trkpt lat="47.12089" lon="-1.58146">
        <ele>55</ele>
        <time>2021-05-01T11:56:27.000Z</time>
      </trkpt>
      <trkpt lat="47.121" lon="-1.58153">
        <ele>55</ele>
        <time>2021-05-01T11:56:29.000Z</time>
      </trkpt>
      <trkpt lat="47.12113" lon="-1.58162">
        <ele>55</ele>
        <time>2021-05-01T11:56:31.000Z</time>
      </trkpt>
      <trkpt lat="47.12124" lon="-1.58171">
        <ele>55</ele>
        <time>2021-05-01T11:56:33.000Z</time>
      </trkpt>
      <trkpt lat="47.12135" lon="-1.58183">
        <ele>55</ele>
        <time>2021-05-01T11:56:35.000Z</time>
      </trkpt>
      <trkpt lat="47.12148" lon="-1.58195">
        <ele>54</ele>
        <time>2021-05-01T11:56:37.000Z</time>
      </trkpt>
      <trkpt lat="47.1216" lon="-1.58207">
        <ele>53</ele>
        <time>2021-05-01T11:56:39.000Z</time>
      </trkpt>
      <trkpt lat="47.12172" lon="-1.58219">
        <ele>53</ele>
        <time>2021-05-01T11:56:41.000Z</time>
      </trkpt>
      <trkpt lat="47.12184" lon="-1.5823">
        <ele>53</ele>
        <time>2021-05-01T11:56:43.000Z</time>
      </trkpt>
      <trkpt lat="47.12195" lon="-1.58241">
        <ele>53</ele>
        <time>2021-05-01T11:56:45.000Z</time>
      </trkpt>
      <trkpt lat="47.12206" lon="-1.58252">
        <ele>53</ele>
        <time>2021-05-01T11:56:47.000Z</time>
      </trkpt>
      <trkpt lat="47.12218" lon="-1.58264">
        <ele>53</ele>
        <time>2021-05-01T11:56:49.000Z</time>
      </trkpt>
      <trkpt lat="47.1223" lon="-1.58276">
        <ele>53</ele>
        <time>2021-05-01T11:56:51.000Z</time>
      </trkpt>
      <trkpt lat="47.12242" lon="-1.58287">
        <ele>52</ele>
        <time>2021-05-01T11:56:53.000Z</time>
      </trkpt>
      <trkpt lat="47.12254" lon="-1.58299">
        <ele>52</ele>
        <time>2021-05-01T11:56:55.000Z</time>
      </trkpt>
      <trkpt lat="47.12266" lon="-1.5831">
        <ele>52</ele>
        <time>2021-05-01T11:56:57.000Z</time>
      </trkpt>
      <trkpt lat="47.12278" lon="-1.58322">
        <ele>51</ele>
        <time>2021-05-01T11:56:59.000Z</time>
      </trkpt>
      <trkpt lat="47.12289" lon="-1.58333">
        <ele>51</ele>
        <time>2021-05-01T11:57:01.000Z</time>
      </trkpt>
      <trkpt lat="47.12299" lon="-1.58345">
        <ele>52</ele>
        <time>2021-05-01T11:57:03.000Z</time>
      </trkpt>
      <trkpt lat="47.12302" lon="-1.58364">
        <ele>52</ele>
        <time>2021-05-01T11:57:05.000Z</time>
      </trkpt>
      <trkpt lat="47.12303" lon="-1.58383">
        <ele>52</ele>
        <time>2021-05-01T11:57:07.000Z</time>
      </trkpt>
      <trkpt lat="47.12307" lon="-1.584">
        <ele>52</ele>
        <time>2021-05-01T11:57:09.000Z</time>
      </trkpt>
      <trkpt lat="47.12314" lon="-1.58416">
        <ele>53</ele>
        <time>2021-05-01T11:57:11.000Z</time>
      </trkpt>
      <trkpt lat="47.12324" lon="-1.5843">
        <ele>54</ele>
        <time>2021-05-01T11:57:13.000Z</time>
      </trkpt>
      <trkpt lat="47.12332" lon="-1.58446">
        <ele>55</ele>
        <time>2021-05-01T11:57:15.000Z</time>
      </trkpt>
      <trkpt lat="47.12336" lon="-1.58466">
        <ele>55</ele>
        <time>2021-05-01T11:57:17.000Z</time>
      </trkpt>
      <trkpt lat="47.12341" lon="-1.58486">
        <ele>55</ele>
        <time>2021-05-01T11:57:19.000Z</time>
      </trkpt>
      <trkpt lat="47.12346" lon="-1.58506">
        <ele>54</ele>
        <time>2021-05-01T11:57:21.000Z</time>
      </trkpt>
      <trkpt lat="47.12351" lon="-1.58524">
        <ele>54</ele>
        <time>2021-05-01T11:57:23.000Z</time>
      </trkpt>
      <trkpt lat="47.12355" lon="-1.58542">
        <ele>54</ele>
        <time>2021-05-01T11:57:25.000Z</time>
      </trkpt>
      <trkpt lat="47.12359" lon="-1.58559">
        <ele>53</ele>
        <time>2021-05-01T11:57:27.000Z</time>
      </trkpt>
      <trkpt lat="47.12363" lon="-1.58576">
        <ele>53</ele>
        <time>2021-05-01T11:57:29.000Z</time>
      </trkpt>
      <trkpt lat="47.12367" lon="-1.58594">
        <ele>54</ele>
        <time>2021-05-01T11:57:31.000Z</time>
      </trkpt>
      <trkpt lat="47.12371" lon="-1.58611">
        <ele>54</ele>
        <time>2021-05-01T11:57:33.000Z</time>
      </trkpt>
      <trkpt lat="47.12374" lon="-1.58628">
        <ele>55</ele>
        <time>2021-05-01T11:57:35.000Z</time>
      </trkpt>
      <trkpt lat="47.12378" lon="-1.58648">
        <ele>54</ele>
        <time>2021-05-01T11:57:37.000Z</time>
      </trkpt>
      <trkpt lat="47.12383" lon="-1.58667">
        <ele>54</ele>
        <time>2021-05-01T11:57:39.000Z</time>
      </trkpt>
      <trkpt lat="47.12387" lon="-1.58686">
        <ele>55</ele>
        <time>2021-05-01T11:57:41.000Z</time>
      </trkpt>
      <trkpt lat="47.12391" lon="-1.58705">
        <ele>55</ele>
        <time>2021-05-01T11:57:43.000Z</time>
      </trkpt>
      <trkpt lat="47.12396" lon="-1.58724">
        <ele>55</ele>
        <time>2021-05-01T11:57:45.000Z</time>
      </trkpt>
      <trkpt lat="47.124" lon="-1.58741">
        <ele>55</ele>
        <time>2021-05-01T11:57:47.000Z</time>
      </trkpt>
      <trkpt lat="47.12403" lon="-1.58759">
        <ele>55</ele>
        <time>2021-05-01T11:57:49.000Z</time>
      </trkpt>
      <trkpt lat="47.12406" lon="-1.58777">
        <ele>55</ele>
        <time>2021-05-01T11:57:51.000Z</time>
      </trkpt>
      <trkpt lat="47.12409" lon="-1.58795">
        <ele>55</ele>
        <time>2021-05-01T11:57:53.000Z</time>
      </trkpt>
      <trkpt lat="47.12411" lon="-1.58813">
        <ele>55</ele>
        <time>2021-05-01T11:57:55.000Z</time>
      </trkpt>
      <trkpt lat="47.12413" lon="-1.5883">
        <ele>55</ele>
        <time>2021-05-01T11:57:57.000Z</time>
      </trkpt>
      <trkpt lat="47.12415" lon="-1.58847">
        <ele>56</ele>
        <time>2021-05-01T11:57:59.000Z</time>
      </trkpt>
      <trkpt lat="47.12416" lon="-1.58864">
        <ele>56</ele>
        <time>2021-05-01T11:58:01.000Z</time>
      </trkpt>
      <trkpt lat="47.12418" lon="-1.58881">
        <ele>55</ele>
        <time>2021-05-01T11:58:03.000Z</time>
      </trkpt>
      <trkpt lat="47.1242" lon="-1.58898">
        <ele>55</ele>
        <time>2021-05-01T11:58:05.000Z</time>
      </trkpt>
      <trkpt lat="47.12421" lon="-1.58915">
        <ele>54</ele>
        <time>2021-05-01T11:58:07.000Z</time>
      </trkpt>
      <trkpt lat="47.12423" lon="-1.58934">
        <ele>54</ele>
        <time>2021-05-01T11:58:09.000Z</time>
      </trkpt>
      <trkpt lat="47.12424" lon="-1.58953">
        <ele>53</ele>
        <time>2021-05-01T11:58:11.000Z</time>
      </trkpt>
      <trkpt lat="47.12426" lon="-1.58973">
        <ele>52</ele>
        <time>2021-05-01T11:58:13.000Z</time>
      </trkpt>
      <trkpt lat="47.12427" lon="-1.58993">
        <ele>52</ele>
        <time>2021-05-01T11:58:15.000Z</time>
      </trkpt>
      <trkpt lat="47.12428" lon="-1.59014">
        <ele>51</ele>
        <time>2021-05-01T11:58:17.000Z</time>
      </trkpt>
      <trkpt lat="47.12429" lon="-1.59034">
        <ele>51</ele>
        <time>2021-05-01T11:58:19.000Z</time>
      </trkpt>
      <trkpt lat="47.1243" lon="-1.59054">
        <ele>51</ele>
        <time>2021-05-01T11:58:21.000Z</time>
      </trkpt>
      <trkpt lat="47.12431" lon="-1.59075">
        <ele>51</ele>
        <time>2021-05-01T11:58:23.000Z</time>
      </trkpt>
      <trkpt lat="47.12432" lon="-1.59095">
        <ele>50</ele>
        <time>2021-05-01T11:58:25.000Z</time>
      </trkpt>
      <trkpt lat="47.12433" lon="-1.59115">
        <ele>51</ele>
        <time>2021-05-01T11:58:27.000Z</time>
      </trkpt>
      <trkpt lat="47.12433" lon="-1.59135">
        <ele>50</ele>
        <time>2021-05-01T11:58:29.000Z</time>
      </trkpt>
      <trkpt lat="47.12435" lon="-1.59155">
        <ele>49</ele>
        <time>2021-05-01T11:58:31.000Z</time>
      </trkpt>
      <trkpt lat="47.12438" lon="-1.59173">
        <ele>50</ele>
        <time>2021-05-01T11:58:33.000Z</time>
      </trkpt>
      <trkpt lat="47.12441" lon="-1.59191">
        <ele>50</ele>
        <time>2021-05-01T11:58:35.000Z</time>
      </trkpt>
      <trkpt lat="47.1244" lon="-1.5921">
        <ele>50</ele>
        <time>2021-05-01T11:58:37.000Z</time>
      </trkpt>
      <trkpt lat="47.12438" lon="-1.5923">
        <ele>50</ele>
        <time>2021-05-01T11:58:39.000Z</time>
      </trkpt>
      <trkpt lat="47.12438" lon="-1.5925">
        <ele>50</ele>
        <time>2021-05-01T11:58:41.000Z</time>
      </trkpt>
      <trkpt lat="47.12439" lon="-1.59271">
        <ele>51</ele>
        <time>2021-05-01T11:58:43.000Z</time>
      </trkpt>
      <trkpt lat="47.1244" lon="-1.59291">
        <ele>51</ele>
        <time>2021-05-01T11:58:45.000Z</time>
      </trkpt>
      <trkpt lat="47.12441" lon="-1.59311">
        <ele>51</ele>
        <time>2021-05-01T11:58:47.000Z</time>
      </trkpt>
      <trkpt lat="47.12442" lon="-1.59331">
        <ele>52</ele>
        <time>2021-05-01T11:58:49.000Z</time>
      </trkpt>
      <trkpt lat="47.12443" lon="-1.5935">
        <ele>52</ele>
        <time>2021-05-01T11:58:51.000Z</time>
      </trkpt>
      <trkpt lat="47.12444" lon="-1.59369">
        <ele>53</ele>
        <time>2021-05-01T11:58:53.000Z</time>
      </trkpt>
      <trkpt lat="47.12445" lon="-1.59389">
        <ele>53</ele>
        <time>2021-05-01T11:58:55.000Z</time>
      </trkpt>
      <trkpt lat="47.12446" lon="-1.59409">
        <ele>54</ele>
        <time>2021-05-01T11:58:57.000Z</time>
      </trkpt>
      <trkpt lat="47.12447" lon="-1.59428">
        <ele>53</ele>
        <time>2021-05-01T11:58:59.000Z</time>
      </trkpt>
      <trkpt lat="47.12448" lon="-1.59447">
        <ele>53</ele>
        <time>2021-05-01T11:59:01.000Z</time>
      </trkpt>
      <trkpt lat="47.12449" lon="-1.59466">
        <ele>53</ele>
        <time>2021-05-01T11:59:03.000Z</time>
      </trkpt>
      <trkpt lat="47.1245" lon="-1.59484">
        <ele>53</ele>
        <time>2021-05-01T11:59:05.000Z</time>
      </trkpt>
      <trkpt lat="47.12451" lon="-1.59503">
        <ele>53</ele>
        <time>2021-05-01T11:59:07.000Z</time>
      </trkpt>
      <trkpt lat="47.12451" lon="-1.59521">
        <ele>54</ele>
        <time>2021-05-01T11:59:09.000Z</time>
      </trkpt>
      <trkpt lat="47.12452" lon="-1.5954">
        <ele>54</ele>
        <time>2021-05-01T11:59:11.000Z</time>
      </trkpt>
      <trkpt lat="47.12453" lon="-1.59557">
        <ele>54</ele>
        <time>2021-05-01T11:59:13.000Z</time>
      </trkpt>
      <trkpt lat="47.12454" lon="-1.59576">
        <ele>55</ele>
        <time>2021-05-01T11:59:15.000Z</time>
      </trkpt>
      <trkpt lat="47.12455" lon="-1.59595">
        <ele>55</ele>
        <time>2021-05-01T11:59:17.000Z</time>
      </trkpt>
      <trkpt lat="47.12456" lon="-1.59614">
        <ele>55</ele>
        <time>2021-05-01T11:59:19.000Z</time>
      </trkpt>
      <trkpt lat="47.12457" lon="-1.59633">
        <ele>55</ele>
        <time>2021-05-01T11:59:21.000Z</time>
      </trkpt>
      <trkpt lat="47.12458" lon="-1.59652">
        <ele>55</ele>
        <time>2021-05-01T11:59:23.000Z</time>
      </trkpt>
      <trkpt lat="47.12458" lon="-1.59671">
        <ele>55</ele>
        <time>2021-05-01T11:59:25.000Z</time>
      </trkpt>
      <trkpt lat="47.12459" lon="-1.59691">
        <ele>55</ele>
        <time>2021-05-01T11:59:27.000Z</time>
      </trkpt>
      <trkpt lat="47.1246" lon="-1.59709">
        <ele>55</ele>
        <time>2021-05-01T11:59:29.000Z</time>
      </trkpt>
      <trkpt lat="47.12461" lon="-1.59728">
        <ele>56</ele>
        <time>2021-05-01T11:59:31.000Z</time>
      </trkpt>
      <trkpt lat="47.12461" lon="-1.59746">
        <ele>56</ele>
        <time>2021-05-01T11:59:33.000Z</time>
      </trkpt>
      <trkpt lat="47.12462" lon="-1.59764">
        <ele>56</ele>
        <time>2021-05-01T11:59:35.000Z</time>
      </trkpt>
      <trkpt lat="47.12464" lon="-1.59783">
        <ele>56</ele>
        <time>2021-05-01T11:59:37.000Z</time>
      </trkpt>
      <trkpt lat="47.12465" lon="-1.59801">
        <ele>56</ele>
        <time>2021-05-01T11:59:39.000Z</time>
      </trkpt>
      <trkpt lat="47.12467" lon="-1.5982">
        <ele>56</ele>
        <time>2021-05-01T11:59:41.000Z</time>
      </trkpt>
      <trkpt lat="47.12468" lon="-1.59837">
        <ele>55</ele>
        <time>2021-05-01T11:59:43.000Z</time>
      </trkpt>
      <trkpt lat="47.12468" lon="-1.59856">
        <ele>55</ele>
        <time>2021-05-01T11:59:45.000Z</time>
      </trkpt>
      <trkpt lat="47.12469" lon="-1.59875">
        <ele>55</ele>
        <time>2021-05-01T11:59:47.000Z</time>
      </trkpt>
      <trkpt lat="47.12469" lon="-1.59895">
        <ele>55</ele>
        <time>2021-05-01T11:59:49.000Z</time>
      </trkpt>
      <trkpt lat="47.12469" lon="-1.59913">
        <ele>55</ele>
        <time>2021-05-01T11:59:51.000Z</time>
      </trkpt>
      <trkpt lat="47.12471" lon="-1.59932">
        <ele>54</ele>
        <time>2021-05-01T11:59:53.000Z</time>
      </trkpt>
      <trkpt lat="47.12473" lon="-1.59952">
        <ele>54</ele>
        <time>2021-05-01T11:59:55.000Z</time>
      </trkpt>
      <trkpt lat="47.12474" lon="-1.59971">
        <ele>54</ele>
        <time>2021-05-01T11:59:57.000Z</time>
      </trkpt>
      <trkpt lat="47.12475" lon="-1.5999">
        <ele>53</ele>
        <time>2021-05-01T11:59:59.000Z</time>
      </trkpt>
      <trkpt lat="47.12475" lon="-1.6001">
        <ele>53</ele>
        <time>2021-05-01T12:00:01.000Z</time>
      </trkpt>
      <trkpt lat="47.12477" lon="-1.60029">
        <ele>53</ele>
        <time>2021-05-01T12:00:03.000Z</time>
      </trkpt>
      <trkpt lat="47.12478" lon="-1.60049">
        <ele>52</ele>
        <time>2021-05-01T12:00:05.000Z</time>
      </trkpt>
      <trkpt lat="47.12479" lon="-1.60068">
        <ele>52</ele>
        <time>2021-05-01T12:00:07.000Z</time>
      </trkpt>
      <trkpt lat="47.1248" lon="-1.60087">
        <ele>52</ele>
        <time>2021-05-01T12:00:09.000Z</time>
      </trkpt>
      <trkpt lat="47.1248" lon="-1.60106">
        <ele>51</ele>
        <time>2021-05-01T12:00:11.000Z</time>
      </trkpt>
      <trkpt lat="47.12482" lon="-1.60126">
        <ele>51</ele>
        <time>2021-05-01T12:00:13.000Z</time>
      </trkpt>
      <trkpt lat="47.12483" lon="-1.60146">
        <ele>51</ele>
        <time>2021-05-01T12:00:15.000Z</time>
      </trkpt>
      <trkpt lat="47.12484" lon="-1.60165">
        <ele>50</ele>
        <time>2021-05-01T12:00:17.000Z</time>
      </trkpt>
      <trkpt lat="47.12485" lon="-1.60186">
        <ele>50</ele>
        <time>2021-05-01T12:00:19.000Z</time>
      </trkpt>
      <trkpt lat="47.12487" lon="-1.60206">
        <ele>50</ele>
        <time>2021-05-01T12:00:21.000Z</time>
      </trkpt>
      <trkpt lat="47.1249" lon="-1.60228">
        <ele>50</ele>
        <time>2021-05-01T12:00:23.000Z</time>
      </trkpt>
      <trkpt lat="47.12494" lon="-1.60248">
        <ele>49</ele>
        <time>2021-05-01T12:00:25.000Z</time>
      </trkpt>
      <trkpt lat="47.12498" lon="-1.60267">
        <ele>50</ele>
        <time>2021-05-01T12:00:27.000Z</time>
      </trkpt>
      <trkpt lat="47.12501" lon="-1.60286">
        <ele>50</ele>
        <time>2021-05-01T12:00:29.000Z</time>
      </trkpt>
      <trkpt lat="47.12505" lon="-1.60305">
        <ele>50</ele>
        <time>2021-05-01T12:00:31.000Z</time>
      </trkpt>
      <trkpt lat="47.12509" lon="-1.60323">
        <ele>50</ele>
        <time>2021-05-01T12:00:33.000Z</time>
      </trkpt>
      <trkpt lat="47.12512" lon="-1.60341">
        <ele>51</ele>
        <time>2021-05-01T12:00:35.000Z</time>
      </trkpt>
      <trkpt lat="47.12516" lon="-1.60359">
        <ele>51</ele>
        <time>2021-05-01T12:00:37.000Z</time>
      </trkpt>
      <trkpt lat="47.12519" lon="-1.60377">
        <ele>52</ele>
        <time>2021-05-01T12:00:39.000Z</time>
      </trkpt>
      <trkpt lat="47.12522" lon="-1.60395">
        <ele>51</ele>
        <time>2021-05-01T12:00:41.000Z</time>
      </trkpt>
      <trkpt lat="47.12526" lon="-1.60413">
        <ele>52</ele>
        <time>2021-05-01T12:00:43.000Z</time>
      </trkpt>
      <trkpt lat="47.12529" lon="-1.60432">
        <ele>52</ele>
        <time>2021-05-01T12:00:45.000Z</time>
      </trkpt>
      <trkpt lat="47.12533" lon="-1.6045">
        <ele>52</ele>
        <time>2021-05-01T12:00:47.000Z</time>
      </trkpt>
      <trkpt lat="47.12536" lon="-1.60469">
        <ele>53</ele>
        <time>2021-05-01T12:00:49.000Z</time>
      </trkpt>
      <trkpt lat="47.12539" lon="-1.60488">
        <ele>53</ele>
        <time>2021-05-01T12:00:51.000Z</time>
      </trkpt>
      <trkpt lat="47.12541" lon="-1.60506">
        <ele>53</ele>
        <time>2021-05-01T12:00:53.000Z</time>
      </trkpt>
      <trkpt lat="47.12542" lon="-1.60524">
        <ele>53</ele>
        <time>2021-05-01T12:00:55.000Z</time>
      </trkpt>
      <trkpt lat="47.12543" lon="-1.60542">
        <ele>53</ele>
        <time>2021-05-01T12:00:57.000Z</time>
      </trkpt>
      <trkpt lat="47.12544" lon="-1.60561">
        <ele>54</ele>
        <time>2021-05-01T12:00:59.000Z</time>
      </trkpt>
      <trkpt lat="47.12544" lon="-1.6058">
        <ele>54</ele>
        <time>2021-05-01T12:01:01.000Z</time>
      </trkpt>
      <trkpt lat="47.12545" lon="-1.60598">
        <ele>54</ele>
        <time>2021-05-01T12:01:03.000Z</time>
      </trkpt>
      <trkpt lat="47.12545" lon="-1.60616">
        <ele>54</ele>
        <time>2021-05-01T12:01:05.000Z</time>
      </trkpt>
      <trkpt lat="47.12546" lon="-1.60635">
        <ele>55</ele>
        <time>2021-05-01T12:01:07.000Z</time>
      </trkpt>
      <trkpt lat="47.12546" lon="-1.60654">
        <ele>54</ele>
        <time>2021-05-01T12:01:09.000Z</time>
      </trkpt>
      <trkpt lat="47.12547" lon="-1.60673">
        <ele>54</ele>
        <time>2021-05-01T12:01:11.000Z</time>
      </trkpt>
      <trkpt lat="47.12547" lon="-1.60692">
        <ele>54</ele>
        <time>2021-05-01T12:01:13.000Z</time>
      </trkpt>
      <trkpt lat="47.12546" lon="-1.60711">
        <ele>54</ele>
        <time>2021-05-01T12:01:15.000Z</time>
      </trkpt>
      <trkpt lat="47.12546" lon="-1.6073">
        <ele>54</ele>
        <time>2021-05-01T12:01:17.000Z</time>
      </trkpt>
      <trkpt lat="47.12545" lon="-1.60749">
        <ele>54</ele>
        <time>2021-05-01T12:01:19.000Z</time>
      </trkpt>
      <trkpt lat="47.12543" lon="-1.60767">
        <ele>55</ele>
        <time>2021-05-01T12:01:21.000Z</time>
      </trkpt>
      <trkpt lat="47.12541" lon="-1.60786">
        <ele>55</ele>
        <time>2021-05-01T12:01:23.000Z</time>
      </trkpt>
      <trkpt lat="47.1254" lon="-1.60804">
        <ele>55</ele>
        <time>2021-05-01T12:01:25.000Z</time>
      </trkpt>
      <trkpt lat="47.12538" lon="-1.60821">
        <ele>55</ele>
        <time>2021-05-01T12:01:27.000Z</time>
      </trkpt>
      <trkpt lat="47.12537" lon="-1.60838">
        <ele>55</ele>
        <time>2021-05-01T12:01:29.000Z</time>
      </trkpt>
      <trkpt lat="47.12545" lon="-1.60846">
        <ele>55</ele>
        <time>2021-05-01T12:01:31.000Z</time>
      </trkpt>
      <trkpt lat="47.12557" lon="-1.60843">
        <ele>55</ele>
        <time>2021-05-01T12:01:33.000Z</time>
      </trkpt>
      <trkpt lat="47.12568" lon="-1.60838">
        <ele>55</ele>
        <time>2021-05-01T12:01:35.000Z</time>
      </trkpt>
      <trkpt lat="47.1258" lon="-1.60834">
        <ele>54</ele>
        <time>2021-05-01T12:01:37.000Z</time>
      </trkpt>
      <trkpt lat="47.12593" lon="-1.6083">
        <ele>54</ele>
        <time>2021-05-01T12:01:39.000Z</time>
      </trkpt>
      <trkpt lat="47.12605" lon="-1.60825">
        <ele>54</ele>
        <time>2021-05-01T12:01:41.000Z</time>
      </trkpt>
      <trkpt lat="47.12618" lon="-1.60821">
        <ele>54</ele>
        <time>2021-05-01T12:01:43.000Z</time>
      </trkpt>
      <trkpt lat="47.12631" lon="-1.60816">
        <ele>53</ele>
        <time>2021-05-01T12:01:45.000Z</time>
      </trkpt>
      <trkpt lat="47.12643" lon="-1.60813">
        <ele>54</ele>
        <time>2021-05-01T12:01:47.000Z</time>
      </trkpt>
      <trkpt lat="47.12661" lon="-1.60807">
        <ele>54</ele>
        <time>2021-05-01T12:01:50.000Z</time>
      </trkpt>
      <trkpt lat="47.12673" lon="-1.60803">
        <ele>54</ele>
        <time>2021-05-01T12:01:52.000Z</time>
      </trkpt>
      <trkpt lat="47.12685" lon="-1.60798">
        <ele>55</ele>
        <time>2021-05-01T12:01:54.000Z</time>
      </trkpt>
      <trkpt lat="47.12697" lon="-1.60793">
        <ele>56</ele>
        <time>2021-05-01T12:01:56.000Z</time>
      </trkpt>
      <trkpt lat="47.12708" lon="-1.60788">
        <ele>56</ele>
        <time>2021-05-01T12:01:58.000Z</time>
      </trkpt>
      <trkpt lat="47.12719" lon="-1.60787">
        <ele>55</ele>
        <time>2021-05-01T12:02:00.000Z</time>
      </trkpt>
      <trkpt lat="47.12724" lon="-1.60799">
        <ele>56</ele>
        <time>2021-05-01T12:02:02.000Z</time>
      </trkpt>
      <trkpt lat="47.12722" lon="-1.60819">
        <ele>56</ele>
        <time>2021-05-01T12:02:04.000Z</time>
      </trkpt>
      <trkpt lat="47.12716" lon="-1.60838">
        <ele>57</ele>
        <time>2021-05-01T12:02:06.000Z</time>
      </trkpt>
      <trkpt lat="47.1271" lon="-1.60855">
        <ele>57</ele>
        <time>2021-05-01T12:02:08.000Z</time>
      </trkpt>
      <trkpt lat="47.12705" lon="-1.60872">
        <ele>57</ele>
        <time>2021-05-01T12:02:10.000Z</time>
      </trkpt>
      <trkpt lat="47.127" lon="-1.60891">
        <ele>58</ele>
        <time>2021-05-01T12:02:12.000Z</time>
      </trkpt>
      <trkpt lat="47.12695" lon="-1.60919">
        <ele>58</ele>
        <time>2021-05-01T12:02:15.000Z</time>
      </trkpt>
      <trkpt lat="47.12694" lon="-1.60937">
        <ele>58</ele>
        <time>2021-05-01T12:02:17.000Z</time>
      </trkpt>
      <trkpt lat="47.12693" lon="-1.60956">
        <ele>58</ele>
        <time>2021-05-01T12:02:19.000Z</time>
      </trkpt>
      <trkpt lat="47.12692" lon="-1.60975">
        <ele>58</ele>
        <time>2021-05-01T12:02:21.000Z</time>
      </trkpt>
      <trkpt lat="47.12691" lon="-1.60995">
        <ele>59</ele>
        <time>2021-05-01T12:02:23.000Z</time>
      </trkpt>
      <trkpt lat="47.12691" lon="-1.61014">
        <ele>59</ele>
        <time>2021-05-01T12:02:25.000Z</time>
      </trkpt>
      <trkpt lat="47.1269" lon="-1.61032">
        <ele>59</ele>
        <time>2021-05-01T12:02:27.000Z</time>
      </trkpt>
      <trkpt lat="47.12689" lon="-1.6105">
        <ele>59</ele>
        <time>2021-05-01T12:02:29.000Z</time>
      </trkpt>
      <trkpt lat="47.12688" lon="-1.61069">
        <ele>58</ele>
        <time>2021-05-01T12:02:31.000Z</time>
      </trkpt>
      <trkpt lat="47.12687" lon="-1.61087">
        <ele>58</ele>
        <time>2021-05-01T12:02:33.000Z</time>
      </trkpt>
      <trkpt lat="47.12686" lon="-1.61105">
        <ele>57</ele>
        <time>2021-05-01T12:02:35.000Z</time>
      </trkpt>
      <trkpt lat="47.12684" lon="-1.61124">
        <ele>57</ele>
        <time>2021-05-01T12:02:37.000Z</time>
      </trkpt>
      <trkpt lat="47.12682" lon="-1.61142">
        <ele>58</ele>
        <time>2021-05-01T12:02:39.000Z</time>
      </trkpt>
      <trkpt lat="47.1268" lon="-1.6116">
        <ele>58</ele>
        <time>2021-05-01T12:02:41.000Z</time>
      </trkpt>
      <trkpt lat="47.12677" lon="-1.61179">
        <ele>58</ele>
        <time>2021-05-01T12:02:43.000Z</time>
      </trkpt>
      <trkpt lat="47.12674" lon="-1.61197">
        <ele>58</ele>
        <time>2021-05-01T12:02:45.000Z</time>
      </trkpt>
      <trkpt lat="47.12671" lon="-1.61214">
        <ele>58</ele>
        <time>2021-05-01T12:02:47.000Z</time>
      </trkpt>
      <trkpt lat="47.12669" lon="-1.61233">
        <ele>58</ele>
        <time>2021-05-01T12:02:49.000Z</time>
      </trkpt>
      <trkpt lat="47.1267" lon="-1.61251">
        <ele>58</ele>
        <time>2021-05-01T12:02:51.000Z</time>
      </trkpt>
      <trkpt lat="47.12673" lon="-1.61268">
        <ele>58</ele>
        <time>2021-05-01T12:02:53.000Z</time>
      </trkpt>
      <trkpt lat="47.12678" lon="-1.61286">
        <ele>59</ele>
        <time>2021-05-01T12:02:55.000Z</time>
      </trkpt>
      <trkpt lat="47.12683" lon="-1.61304">
        <ele>58</ele>
        <time>2021-05-01T12:02:57.000Z</time>
      </trkpt>
      <trkpt lat="47.12688" lon="-1.61321">
        <ele>59</ele>
        <time>2021-05-01T12:02:59.000Z</time>
      </trkpt>
      <trkpt lat="47.12693" lon="-1.61339">
        <ele>59</ele>
        <time>2021-05-01T12:03:01.000Z</time>
      </trkpt>
      <trkpt lat="47.12702" lon="-1.61363">
        <ele>59</ele>
        <time>2021-05-01T12:03:04.000Z</time>
      </trkpt>
      <trkpt lat="47.12708" lon="-1.6138">
        <ele>59</ele>
        <time>2021-05-01T12:03:06.000Z</time>
      </trkpt>
      <trkpt lat="47.12715" lon="-1.61397">
        <ele>59</ele>
        <time>2021-05-01T12:03:08.000Z</time>
      </trkpt>
      <trkpt lat="47.12722" lon="-1.61413">
        <ele>59</ele>
        <time>2021-05-01T12:03:10.000Z</time>
      </trkpt>
      <trkpt lat="47.12729" lon="-1.61429">
        <ele>58</ele>
        <time>2021-05-01T12:03:12.000Z</time>
      </trkpt>
      <trkpt lat="47.12736" lon="-1.61446">
        <ele>59</ele>
        <time>2021-05-01T12:03:14.000Z</time>
      </trkpt>
      <trkpt lat="47.12743" lon="-1.61462">
        <ele>59</ele>
        <time>2021-05-01T12:03:16.000Z</time>
      </trkpt>
      <trkpt lat="47.1275" lon="-1.61477">
        <ele>59</ele>
        <time>2021-05-01T12:03:18.000Z</time>
      </trkpt>
      <trkpt lat="47.12761" lon="-1.61502">
        <ele>59</ele>
        <time>2021-05-01T12:03:21.000Z</time>
      </trkpt>
      <trkpt lat="47.12767" lon="-1.61519">
        <ele>59</ele>
        <time>2021-05-01T12:03:23.000Z</time>
      </trkpt>
      <trkpt lat="47.12774" lon="-1.61536">
        <ele>58</ele>
        <time>2021-05-01T12:03:25.000Z</time>
      </trkpt>
      <trkpt lat="47.12781" lon="-1.61552">
        <ele>57</ele>
        <time>2021-05-01T12:03:27.000Z</time>
      </trkpt>
      <trkpt lat="47.12786" lon="-1.61567">
        <ele>58</ele>
        <time>2021-05-01T12:03:29.000Z</time>
      </trkpt>
      <trkpt lat="47.12792" lon="-1.61583">
        <ele>58</ele>
        <time>2021-05-01T12:03:31.000Z</time>
      </trkpt>
      <trkpt lat="47.12798" lon="-1.61598">
        <ele>58</ele>
        <time>2021-05-01T12:03:33.000Z</time>
      </trkpt>
      <trkpt lat="47.12803" lon="-1.61612">
        <ele>57</ele>
        <time>2021-05-01T12:03:35.000Z</time>
      </trkpt>
      <trkpt lat="47.12809" lon="-1.61626">
        <ele>56</ele>
        <time>2021-05-01T12:03:37.000Z</time>
      </trkpt>
      <trkpt lat="47.12813" lon="-1.61638">
        <ele>56</ele>
        <time>2021-05-01T12:03:39.000Z</time>
      </trkpt>
      <trkpt lat="47.1282" lon="-1.61653">
        <ele>56</ele>
        <time>2021-05-01T12:03:44.000Z</time>
      </trkpt>
      <trkpt lat="47.12824" lon="-1.61665">
        <ele>56</ele>
        <time>2021-05-01T12:03:46.000Z</time>
      </trkpt>
      <trkpt lat="47.1283" lon="-1.61678">
        <ele>56</ele>
        <time>2021-05-01T12:03:48.000Z</time>
      </trkpt>
      <trkpt lat="47.1284" lon="-1.617">
        <ele>56</ele>
        <time>2021-05-01T12:03:51.000Z</time>
      </trkpt>
      <trkpt lat="47.12847" lon="-1.61715">
        <ele>56</ele>
        <time>2021-05-01T12:03:53.000Z</time>
      </trkpt>
      <trkpt lat="47.12854" lon="-1.61731">
        <ele>56</ele>
        <time>2021-05-01T12:03:55.000Z</time>
      </trkpt>
      <trkpt lat="47.12861" lon="-1.61747">
        <ele>56</ele>
        <time>2021-05-01T12:03:57.000Z</time>
      </trkpt>
      <trkpt lat="47.12869" lon="-1.61763">
        <ele>55</ele>
        <time>2021-05-01T12:03:59.000Z</time>
      </trkpt>
      <trkpt lat="47.12876" lon="-1.6178">
        <ele>55</ele>
        <time>2021-05-01T12:04:01.000Z</time>
      </trkpt>
      <trkpt lat="47.12882" lon="-1.61796">
        <ele>55</ele>
        <time>2021-05-01T12:04:03.000Z</time>
      </trkpt>
      <trkpt lat="47.12888" lon="-1.61813">
        <ele>54</ele>
        <time>2021-05-01T12:04:05.000Z</time>
      </trkpt>
      <trkpt lat="47.12894" lon="-1.61831">
        <ele>54</ele>
        <time>2021-05-01T12:04:07.000Z</time>
      </trkpt>
      <trkpt lat="47.129" lon="-1.61849">
        <ele>53</ele>
        <time>2021-05-01T12:04:09.000Z</time>
      </trkpt>
      <trkpt lat="47.12905" lon="-1.61867">
        <ele>53</ele>
        <time>2021-05-01T12:04:11.000Z</time>
      </trkpt>
      <trkpt lat="47.12908" lon="-1.61885">
        <ele>53</ele>
        <time>2021-05-01T12:04:13.000Z</time>
      </trkpt>
      <trkpt lat="47.12911" lon="-1.61904">
        <ele>54</ele>
        <time>2021-05-01T12:04:15.000Z</time>
      </trkpt>
      <trkpt lat="47.12912" lon="-1.61923">
        <ele>53</ele>
        <time>2021-05-01T12:04:17.000Z</time>
      </trkpt>
      <trkpt lat="47.12915" lon="-1.61942">
        <ele>54</ele>
        <time>2021-05-01T12:04:19.000Z</time>
      </trkpt>
      <trkpt lat="47.12919" lon="-1.61959">
        <ele>54</ele>
        <time>2021-05-01T12:04:21.000Z</time>
      </trkpt>
      <trkpt lat="47.12924" lon="-1.61977">
        <ele>54</ele>
        <time>2021-05-01T12:04:23.000Z</time>
      </trkpt>
      <trkpt lat="47.12928" lon="-1.61995">
        <ele>54</ele>
        <time>2021-05-01T12:04:25.000Z</time>
      </trkpt>
      <trkpt lat="47.12933" lon="-1.62012">
        <ele>55</ele>
        <time>2021-05-01T12:04:27.000Z</time>
      </trkpt>
      <trkpt lat="47.12937" lon="-1.6203">
        <ele>55</ele>
        <time>2021-05-01T12:04:29.000Z</time>
      </trkpt>
      <trkpt lat="47.12943" lon="-1.62048">
        <ele>55</ele>
        <time>2021-05-01T12:04:31.000Z</time>
      </trkpt>
      <trkpt lat="47.1295" lon="-1.62064">
        <ele>54</ele>
        <time>2021-05-01T12:04:33.000Z</time>
      </trkpt>
      <trkpt lat="47.12957" lon="-1.62079">
        <ele>55</ele>
        <time>2021-05-01T12:04:35.000Z</time>
      </trkpt>
      <trkpt lat="47.12965" lon="-1.62093">
        <ele>55</ele>
        <time>2021-05-01T12:04:37.000Z</time>
      </trkpt>
      <trkpt lat="47.12973" lon="-1.62107">
        <ele>55</ele>
        <time>2021-05-01T12:04:39.000Z</time>
      </trkpt>
      <trkpt lat="47.12981" lon="-1.6212">
        <ele>55</ele>
        <time>2021-05-01T12:04:41.000Z</time>
      </trkpt>
      <trkpt lat="47.12989" lon="-1.62134">
        <ele>55</ele>
        <time>2021-05-01T12:04:43.000Z</time>
      </trkpt>
      <trkpt lat="47.12998" lon="-1.62148">
        <ele>55</ele>
        <time>2021-05-01T12:04:45.000Z</time>
      </trkpt>
      <trkpt lat="47.13006" lon="-1.62161">
        <ele>55</ele>
        <time>2021-05-01T12:04:47.000Z</time>
      </trkpt>
      <trkpt lat="47.13014" lon="-1.62174">
        <ele>55</ele>
        <time>2021-05-01T12:04:49.000Z</time>
      </trkpt>
      <trkpt lat="47.13023" lon="-1.62188">
        <ele>55</ele>
        <time>2021-05-01T12:04:51.000Z</time>
      </trkpt>
      <trkpt lat="47.13031" lon="-1.62201">
        <ele>55</ele>
        <time>2021-05-01T12:04:53.000Z</time>
      </trkpt>
      <trkpt lat="47.1304" lon="-1.62213">
        <ele>55</ele>
        <time>2021-05-01T12:04:55.000Z</time>
      </trkpt>
      <trkpt lat="47.13048" lon="-1.62226">
        <ele>55</ele>
        <time>2021-05-01T12:04:57.000Z</time>
      </trkpt>
      <trkpt lat="47.13056" lon="-1.62238">
        <ele>56</ele>
        <time>2021-05-01T12:04:59.000Z</time>
      </trkpt>
      <trkpt lat="47.13064" lon="-1.6225">
        <ele>56</ele>
        <time>2021-05-01T12:05:01.000Z</time>
      </trkpt>
      <trkpt lat="47.13072" lon="-1.62262">
        <ele>56</ele>
        <time>2021-05-01T12:05:03.000Z</time>
      </trkpt>
      <trkpt lat="47.1308" lon="-1.62273">
        <ele>56</ele>
        <time>2021-05-01T12:05:05.000Z</time>
      </trkpt>
      <trkpt lat="47.13088" lon="-1.62284">
        <ele>56</ele>
        <time>2021-05-01T12:05:07.000Z</time>
      </trkpt>
      <trkpt lat="47.13095" lon="-1.62295">
        <ele>56</ele>
        <time>2021-05-01T12:05:09.000Z</time>
      </trkpt>
      <trkpt lat="47.13103" lon="-1.62303">
        <ele>56</ele>
        <time>2021-05-01T12:05:11.000Z</time>
      </trkpt>
      <trkpt lat="47.13112" lon="-1.62296">
        <ele>56</ele>
        <time>2021-05-01T12:05:13.000Z</time>
      </trkpt>
      <trkpt lat="47.13118" lon="-1.62281">
        <ele>56</ele>
        <time>2021-05-01T12:05:15.000Z</time>
      </trkpt>
      <trkpt lat="47.13124" lon="-1.62266">
        <ele>57</ele>
        <time>2021-05-01T12:05:17.000Z</time>
      </trkpt>
      <trkpt lat="47.13131" lon="-1.62252">
        <ele>57</ele>
        <time>2021-05-01T12:05:19.000Z</time>
      </trkpt>
      <trkpt lat="47.13138" lon="-1.62239">
        <ele>57</ele>
        <time>2021-05-01T12:05:21.000Z</time>
      </trkpt>
      <trkpt lat="47.13144" lon="-1.62225">
        <ele>57</ele>
        <time>2021-05-01T12:05:23.000Z</time>
      </trkpt>
      <trkpt lat="47.13151" lon="-1.62211">
        <ele>57</ele>
        <time>2021-05-01T12:05:25.000Z</time>
      </trkpt>
      <trkpt lat="47.13157" lon="-1.62197">
        <ele>57</ele>
        <time>2021-05-01T12:05:27.000Z</time>
      </trkpt>
      <trkpt lat="47.13163" lon="-1.62184">
        <ele>56</ele>
        <time>2021-05-01T12:05:29.000Z</time>
      </trkpt>
      <trkpt lat="47.1317" lon="-1.6217">
        <ele>57</ele>
        <time>2021-05-01T12:05:31.000Z</time>
      </trkpt>
      <trkpt lat="47.13177" lon="-1.62156">
        <ele>56</ele>
        <time>2021-05-01T12:05:33.000Z</time>
      </trkpt>
      <trkpt lat="47.13184" lon="-1.62142">
        <ele>57</ele>
        <time>2021-05-01T12:05:35.000Z</time>
      </trkpt>
      <trkpt lat="47.13192" lon="-1.6213">
        <ele>58</ele>
        <time>2021-05-01T12:05:37.000Z</time>
      </trkpt>
      <trkpt lat="47.13199" lon="-1.62118">
        <ele>58</ele>
        <time>2021-05-01T12:05:39.000Z</time>
      </trkpt>
      <trkpt lat="47.13206" lon="-1.62104">
        <ele>58</ele>
        <time>2021-05-01T12:05:41.000Z</time>
      </trkpt>
      <trkpt lat="47.13214" lon="-1.62091">
        <ele>58</ele>
        <time>2021-05-01T12:05:43.000Z</time>
      </trkpt>
      <trkpt lat="47.13222" lon="-1.62078">
        <ele>58</ele>
        <time>2021-05-01T12:05:45.000Z</time>
      </trkpt>
      <trkpt lat="47.13231" lon="-1.62065">
        <ele>57</ele>
        <time>2021-05-01T12:05:47.000Z</time>
      </trkpt>
      <trkpt lat="47.13239" lon="-1.62053">
        <ele>57</ele>
        <time>2021-05-01T12:05:49.000Z</time>
      </trkpt>
      <trkpt lat="47.13247" lon="-1.62041">
        <ele>57</ele>
        <time>2021-05-01T12:05:51.000Z</time>
      </trkpt>
      <trkpt lat="47.13256" lon="-1.62029">
        <ele>58</ele>
        <time>2021-05-01T12:05:53.000Z</time>
      </trkpt>
      <trkpt lat="47.13266" lon="-1.62018">
        <ele>58</ele>
        <time>2021-05-01T12:05:55.000Z</time>
      </trkpt>
      <trkpt lat="47.13277" lon="-1.62009">
        <ele>58</ele>
        <time>2021-05-01T12:05:57.000Z</time>
      </trkpt>
      <trkpt lat="47.13287" lon="-1.62">
        <ele>58</ele>
        <time>2021-05-01T12:05:59.000Z</time>
      </trkpt>
      <trkpt lat="47.13297" lon="-1.61992">
        <ele>58</ele>
        <time>2021-05-01T12:06:01.000Z</time>
      </trkpt>
      <trkpt lat="47.13308" lon="-1.61985">
        <ele>58</ele>
        <time>2021-05-01T12:06:03.000Z</time>
      </trkpt>
      <trkpt lat="47.13318" lon="-1.61977">
        <ele>59</ele>
        <time>2021-05-01T12:06:05.000Z</time>
      </trkpt>
      <trkpt lat="47.13328" lon="-1.61969">
        <ele>58</ele>
        <time>2021-05-01T12:06:07.000Z</time>
      </trkpt>
      <trkpt lat="47.13339" lon="-1.61961">
        <ele>58</ele>
        <time>2021-05-01T12:06:09.000Z</time>
      </trkpt>
      <trkpt lat="47.13349" lon="-1.61953">
        <ele>58</ele>
        <time>2021-05-01T12:06:11.000Z</time>
      </trkpt>
      <trkpt lat="47.1336" lon="-1.61944">
        <ele>57</ele>
        <time>2021-05-01T12:06:13.000Z</time>
      </trkpt>
      <trkpt lat="47.13371" lon="-1.61936">
        <ele>57</ele>
        <time>2021-05-01T12:06:15.000Z</time>
      </trkpt>
      <trkpt lat="47.13382" lon="-1.61927">
        <ele>58</ele>
        <time>2021-05-01T12:06:17.000Z</time>
      </trkpt>
      <trkpt lat="47.13393" lon="-1.61919">
        <ele>58</ele>
        <time>2021-05-01T12:06:19.000Z</time>
      </trkpt>
      <trkpt lat="47.13403" lon="-1.61911">
        <ele>58</ele>
        <time>2021-05-01T12:06:21.000Z</time>
      </trkpt>
      <trkpt lat="47.13415" lon="-1.61903">
        <ele>58</ele>
        <time>2021-05-01T12:06:23.000Z</time>
      </trkpt>
      <trkpt lat="47.13425" lon="-1.61894">
        <ele>58</ele>
        <time>2021-05-01T12:06:25.000Z</time>
      </trkpt>
      <trkpt lat="47.13436" lon="-1.61885">
        <ele>58</ele>
        <time>2021-05-01T12:06:27.000Z</time>
      </trkpt>
      <trkpt lat="47.13447" lon="-1.61877">
        <ele>59</ele>
        <time>2021-05-01T12:06:29.000Z</time>
      </trkpt>
      <trkpt lat="47.13458" lon="-1.61869">
        <ele>59</ele>
        <time>2021-05-01T12:06:31.000Z</time>
      </trkpt>
      <trkpt lat="47.13469" lon="-1.61861">
        <ele>59</ele>
        <time>2021-05-01T12:06:33.000Z</time>
      </trkpt>
      <trkpt lat="47.1348" lon="-1.61854">
        <ele>59</ele>
        <time>2021-05-01T12:06:35.000Z</time>
      </trkpt>
      <trkpt lat="47.13492" lon="-1.61847">
        <ele>59</ele>
        <time>2021-05-01T12:06:37.000Z</time>
      </trkpt>
      <trkpt lat="47.13503" lon="-1.61841">
        <ele>59</ele>
        <time>2021-05-01T12:06:39.000Z</time>
      </trkpt>
      <trkpt lat="47.13515" lon="-1.61836">
        <ele>59</ele>
        <time>2021-05-01T12:06:41.000Z</time>
      </trkpt>
      <trkpt lat="47.13527" lon="-1.61831">
        <ele>58</ele>
        <time>2021-05-01T12:06:43.000Z</time>
      </trkpt>
      <trkpt lat="47.13538" lon="-1.61826">
        <ele>58</ele>
        <time>2021-05-01T12:06:45.000Z</time>
      </trkpt>
      <trkpt lat="47.1355" lon="-1.61821">
        <ele>57</ele>
        <time>2021-05-01T12:06:47.000Z</time>
      </trkpt>
      <trkpt lat="47.13562" lon="-1.61814">
        <ele>57</ele>
        <time>2021-05-01T12:06:49.000Z</time>
      </trkpt>
      <trkpt lat="47.13573" lon="-1.61806">
        <ele>58</ele>
        <time>2021-05-01T12:06:51.000Z</time>
      </trkpt>
      <trkpt lat="47.13586" lon="-1.61804">
        <ele>58</ele>
        <time>2021-05-01T12:06:53.000Z</time>
      </trkpt>
      <trkpt lat="47.13598" lon="-1.618">
        <ele>58</ele>
        <time>2021-05-01T12:06:55.000Z</time>
      </trkpt>
      <trkpt lat="47.1361" lon="-1.61795">
        <ele>58</ele>
        <time>2021-05-01T12:06:57.000Z</time>
      </trkpt>
      <trkpt lat="47.13622" lon="-1.6179">
        <ele>58</ele>
        <time>2021-05-01T12:06:59.000Z</time>
      </trkpt>
      <trkpt lat="47.13634" lon="-1.61785">
        <ele>59</ele>
        <time>2021-05-01T12:07:01.000Z</time>
      </trkpt>
      <trkpt lat="47.13645" lon="-1.6178">
        <ele>59</ele>
        <time>2021-05-01T12:07:03.000Z</time>
      </trkpt>
      <trkpt lat="47.13657" lon="-1.61774">
        <ele>59</ele>
        <time>2021-05-01T12:07:05.000Z</time>
      </trkpt>
      <trkpt lat="47.13669" lon="-1.61768">
        <ele>59</ele>
        <time>2021-05-01T12:07:07.000Z</time>
      </trkpt>
      <trkpt lat="47.1368" lon="-1.61761">
        <ele>59</ele>
        <time>2021-05-01T12:07:09.000Z</time>
      </trkpt>
      <trkpt lat="47.13691" lon="-1.61754">
        <ele>59</ele>
        <time>2021-05-01T12:07:11.000Z</time>
      </trkpt>
      <trkpt lat="47.13702" lon="-1.61746">
        <ele>59</ele>
        <time>2021-05-01T12:07:13.000Z</time>
      </trkpt>
      <trkpt lat="47.13712" lon="-1.61739">
        <ele>60</ele>
        <time>2021-05-01T12:07:15.000Z</time>
      </trkpt>
      <trkpt lat="47.13722" lon="-1.61731">
        <ele>60</ele>
        <time>2021-05-01T12:07:17.000Z</time>
      </trkpt>
      <trkpt lat="47.1373" lon="-1.61723">
        <ele>61</ele>
        <time>2021-05-01T12:07:19.000Z</time>
      </trkpt>
      <trkpt lat="47.1374" lon="-1.61722">
        <ele>61</ele>
        <time>2021-05-01T12:07:21.000Z</time>
      </trkpt>
      <trkpt lat="47.13742" lon="-1.61738">
        <ele>61</ele>
        <time>2021-05-01T12:07:23.000Z</time>
      </trkpt>
      <trkpt lat="47.13739" lon="-1.61754">
        <ele>61</ele>
        <time>2021-05-01T12:07:25.000Z</time>
      </trkpt>
      <trkpt lat="47.13735" lon="-1.61772">
        <ele>61</ele>
        <time>2021-05-01T12:07:27.000Z</time>
      </trkpt>
      <trkpt lat="47.13732" lon="-1.61789">
        <ele>61</ele>
        <time>2021-05-01T12:07:29.000Z</time>
      </trkpt>
      <trkpt lat="47.13729" lon="-1.61807">
        <ele>61</ele>
        <time>2021-05-01T12:07:31.000Z</time>
      </trkpt>
      <trkpt lat="47.13726" lon="-1.61824">
        <ele>61</ele>
        <time>2021-05-01T12:07:33.000Z</time>
      </trkpt>
      <trkpt lat="47.13725" lon="-1.61843">
        <ele>61</ele>
        <time>2021-05-01T12:07:35.000Z</time>
      </trkpt>
      <trkpt lat="47.13723" lon="-1.6186">
        <ele>62</ele>
        <time>2021-05-01T12:07:37.000Z</time>
      </trkpt>
      <trkpt lat="47.13723" lon="-1.61877">
        <ele>62</ele>
        <time>2021-05-01T12:07:39.000Z</time>
      </trkpt>
      <trkpt lat="47.13722" lon="-1.61894">
        <ele>62</ele>
        <time>2021-05-01T12:07:41.000Z</time>
      </trkpt>
      <trkpt lat="47.13721" lon="-1.61911">
        <ele>62</ele>
        <time>2021-05-01T12:07:43.000Z</time>
      </trkpt>
      <trkpt lat="47.13721" lon="-1.61929">
        <ele>62</ele>
        <time>2021-05-01T12:07:45.000Z</time>
      </trkpt>
      <trkpt lat="47.13722" lon="-1.61948">
        <ele>62</ele>
        <time>2021-05-01T12:07:47.000Z</time>
      </trkpt>
      <trkpt lat="47.13725" lon="-1.61966">
        <ele>63</ele>
        <time>2021-05-01T12:07:49.000Z</time>
      </trkpt>
      <trkpt lat="47.13728" lon="-1.61983">
        <ele>62</ele>
        <time>2021-05-01T12:07:51.000Z</time>
      </trkpt>
      <trkpt lat="47.1373" lon="-1.62001">
        <ele>62</ele>
        <time>2021-05-01T12:07:53.000Z</time>
      </trkpt>
      <trkpt lat="47.13733" lon="-1.62019">
        <ele>62</ele>
        <time>2021-05-01T12:07:55.000Z</time>
      </trkpt>
      <trkpt lat="47.13735" lon="-1.62035">
        <ele>61</ele>
        <time>2021-05-01T12:07:57.000Z</time>
      </trkpt>
      <trkpt lat="47.13738" lon="-1.62053">
        <ele>62</ele>
        <time>2021-05-01T12:07:59.000Z</time>
      </trkpt>
      <trkpt lat="47.1374" lon="-1.62071">
        <ele>62</ele>
        <time>2021-05-01T12:08:01.000Z</time>
      </trkpt>
      <trkpt lat="47.13742" lon="-1.62089">
        <ele>62</ele>
        <time>2021-05-01T12:08:03.000Z</time>
      </trkpt>
      <trkpt lat="47.13744" lon="-1.62106">
        <ele>62</ele>
        <time>2021-05-01T12:08:05.000Z</time>
      </trkpt>
      <trkpt lat="47.13746" lon="-1.62125">
        <ele>63</ele>
        <time>2021-05-01T12:08:07.000Z</time>
      </trkpt>
      <trkpt lat="47.13747" lon="-1.62142">
        <ele>63</ele>
        <time>2021-05-01T12:08:09.000Z</time>
      </trkpt>
      <trkpt lat="47.13749" lon="-1.62159">
        <ele>63</ele>
        <time>2021-05-01T12:08:11.000Z</time>
      </trkpt>
      <trkpt lat="47.13752" lon="-1.62178">
        <ele>63</ele>
        <time>2021-05-01T12:08:13.000Z</time>
      </trkpt>
      <trkpt lat="47.13754" lon="-1.62196">
        <ele>63</ele>
        <time>2021-05-01T12:08:15.000Z</time>
      </trkpt>
      <trkpt lat="47.13756" lon="-1.62214">
        <ele>64</ele>
        <time>2021-05-01T12:08:17.000Z</time>
      </trkpt>
      <trkpt lat="47.13758" lon="-1.62231">
        <ele>63</ele>
        <time>2021-05-01T12:08:19.000Z</time>
      </trkpt>
      <trkpt lat="47.1376" lon="-1.62249">
        <ele>63</ele>
        <time>2021-05-01T12:08:21.000Z</time>
      </trkpt>
      <trkpt lat="47.13762" lon="-1.62266">
        <ele>64</ele>
        <time>2021-05-01T12:08:23.000Z</time>
      </trkpt>
      <trkpt lat="47.13764" lon="-1.62284">
        <ele>64</ele>
        <time>2021-05-01T12:08:25.000Z</time>
      </trkpt>
      <trkpt lat="47.13765" lon="-1.62302">
        <ele>63</ele>
        <time>2021-05-01T12:08:27.000Z</time>
      </trkpt>
      <trkpt lat="47.13765" lon="-1.62321">
        <ele>63</ele>
        <time>2021-05-01T12:08:29.000Z</time>
      </trkpt>
      <trkpt lat="47.13764" lon="-1.62339">
        <ele>62</ele>
        <time>2021-05-01T12:08:31.000Z</time>
      </trkpt>
      <trkpt lat="47.13763" lon="-1.62359">
        <ele>62</ele>
        <time>2021-05-01T12:08:33.000Z</time>
      </trkpt>
      <trkpt lat="47.13762" lon="-1.62379">
        <ele>62</ele>
        <time>2021-05-01T12:08:35.000Z</time>
      </trkpt>
      <trkpt lat="47.13761" lon="-1.62399">
        <ele>62</ele>
        <time>2021-05-01T12:08:37.000Z</time>
      </trkpt>
      <trkpt lat="47.13762" lon="-1.62421">
        <ele>62</ele>
        <time>2021-05-01T12:08:39.000Z</time>
      </trkpt>
      <trkpt lat="47.13763" lon="-1.62443">
        <ele>63</ele>
        <time>2021-05-01T12:08:41.000Z</time>
      </trkpt>
      <trkpt lat="47.13765" lon="-1.62464">
        <ele>63</ele>
        <time>2021-05-01T12:08:43.000Z</time>
      </trkpt>
      <trkpt lat="47.13767" lon="-1.62485">
        <ele>62</ele>
        <time>2021-05-01T12:08:45.000Z</time>
      </trkpt>
      <trkpt lat="47.13769" lon="-1.62505">
        <ele>61</ele>
        <time>2021-05-01T12:08:47.000Z</time>
      </trkpt>
      <trkpt lat="47.13771" lon="-1.62526">
        <ele>61</ele>
        <time>2021-05-01T12:08:49.000Z</time>
      </trkpt>
      <trkpt lat="47.13773" lon="-1.62544">
        <ele>60</ele>
        <time>2021-05-01T12:08:51.000Z</time>
      </trkpt>
      <trkpt lat="47.13775" lon="-1.62562">
        <ele>60</ele>
        <time>2021-05-01T12:08:53.000Z</time>
      </trkpt>
      <trkpt lat="47.13776" lon="-1.62581">
        <ele>60</ele>
        <time>2021-05-01T12:08:55.000Z</time>
      </trkpt>
      <trkpt lat="47.13778" lon="-1.62598">
        <ele>60</ele>
        <time>2021-05-01T12:08:57.000Z</time>
      </trkpt>
      <trkpt lat="47.1378" lon="-1.62615">
        <ele>60</ele>
        <time>2021-05-01T12:08:59.000Z</time>
      </trkpt>
      <trkpt lat="47.13781" lon="-1.62634">
        <ele>60</ele>
        <time>2021-05-01T12:09:01.000Z</time>
      </trkpt>
      <trkpt lat="47.13783" lon="-1.62651">
        <ele>60</ele>
        <time>2021-05-01T12:09:03.000Z</time>
      </trkpt>
      <trkpt lat="47.13783" lon="-1.62669">
        <ele>60</ele>
        <time>2021-05-01T12:09:05.000Z</time>
      </trkpt>
      <trkpt lat="47.13783" lon="-1.62685">
        <ele>60</ele>
        <time>2021-05-01T12:09:07.000Z</time>
      </trkpt>
      <trkpt lat="47.13782" lon="-1.62702">
        <ele>60</ele>
        <time>2021-05-01T12:09:09.000Z</time>
      </trkpt>
      <trkpt lat="47.13781" lon="-1.62719">
        <ele>61</ele>
        <time>2021-05-01T12:09:11.000Z</time>
      </trkpt>
      <trkpt lat="47.13781" lon="-1.62736">
        <ele>61</ele>
        <time>2021-05-01T12:09:13.000Z</time>
      </trkpt>
      <trkpt lat="47.13781" lon="-1.62754">
        <ele>61</ele>
        <time>2021-05-01T12:09:15.000Z</time>
      </trkpt>
      <trkpt lat="47.13783" lon="-1.62771">
        <ele>61</ele>
        <time>2021-05-01T12:09:17.000Z</time>
      </trkpt>
      <trkpt lat="47.13788" lon="-1.62787">
        <ele>62</ele>
        <time>2021-05-01T12:09:19.000Z</time>
      </trkpt>
      <trkpt lat="47.13794" lon="-1.62803">
        <ele>62</ele>
        <time>2021-05-01T12:09:21.000Z</time>
      </trkpt>
      <trkpt lat="47.138" lon="-1.62819">
        <ele>62</ele>
        <time>2021-05-01T12:09:23.000Z</time>
      </trkpt>
      <trkpt lat="47.13806" lon="-1.62834">
        <ele>63</ele>
        <time>2021-05-01T12:09:25.000Z</time>
      </trkpt>
      <trkpt lat="47.13812" lon="-1.62848">
        <ele>63</ele>
        <time>2021-05-01T12:09:27.000Z</time>
      </trkpt>
      <trkpt lat="47.13817" lon="-1.62863">
        <ele>63</ele>
        <time>2021-05-01T12:09:29.000Z</time>
      </trkpt>
      <trkpt lat="47.13821" lon="-1.62877">
        <ele>64</ele>
        <time>2021-05-01T12:09:31.000Z</time>
      </trkpt>
      <trkpt lat="47.13824" lon="-1.62892">
        <ele>64</ele>
        <time>2021-05-01T12:09:33.000Z</time>
      </trkpt>
      <trkpt lat="47.13824" lon="-1.62908">
        <ele>64</ele>
        <time>2021-05-01T12:09:35.000Z</time>
      </trkpt>
      <trkpt lat="47.13822" lon="-1.62926">
        <ele>64</ele>
        <time>2021-05-01T12:09:37.000Z</time>
      </trkpt>
      <trkpt lat="47.1382" lon="-1.62943">
        <ele>64</ele>
        <time>2021-05-01T12:09:39.000Z</time>
      </trkpt>
      <trkpt lat="47.13819" lon="-1.6296">
        <ele>63</ele>
        <time>2021-05-01T12:09:41.000Z</time>
      </trkpt>
      <trkpt lat="47.13817" lon="-1.62978">
        <ele>63</ele>
        <time>2021-05-01T12:09:43.000Z</time>
      </trkpt>
      <trkpt lat="47.13815" lon="-1.62996">
        <ele>63</ele>
        <time>2021-05-01T12:09:45.000Z</time>
      </trkpt>
      <trkpt lat="47.13815" lon="-1.63014">
        <ele>62</ele>
        <time>2021-05-01T12:09:47.000Z</time>
      </trkpt>
      <trkpt lat="47.13815" lon="-1.63032">
        <ele>62</ele>
        <time>2021-05-01T12:09:49.000Z</time>
      </trkpt>
      <trkpt lat="47.13818" lon="-1.63049">
        <ele>62</ele>
        <time>2021-05-01T12:09:51.000Z</time>
      </trkpt>
      <trkpt lat="47.13828" lon="-1.63058">
        <ele>61</ele>
        <time>2021-05-01T12:09:53.000Z</time>
      </trkpt>
      <trkpt lat="47.1384" lon="-1.63055">
        <ele>60</ele>
        <time>2021-05-01T12:09:55.000Z</time>
      </trkpt>
      <trkpt lat="47.13852" lon="-1.63054">
        <ele>60</ele>
        <time>2021-05-01T12:09:57.000Z</time>
      </trkpt>
      <trkpt lat="47.13864" lon="-1.63052">
        <ele>60</ele>
        <time>2021-05-01T12:09:59.000Z</time>
      </trkpt>
      <trkpt lat="47.13876" lon="-1.63049">
        <ele>60</ele>
        <time>2021-05-01T12:10:01.000Z</time>
      </trkpt>
      <trkpt lat="47.13889" lon="-1.63047">
        <ele>60</ele>
        <time>2021-05-01T12:10:03.000Z</time>
      </trkpt>
      <trkpt lat="47.13902" lon="-1.63043">
        <ele>59</ele>
        <time>2021-05-01T12:10:05.000Z</time>
      </trkpt>
      <trkpt lat="47.13914" lon="-1.63039">
        <ele>59</ele>
        <time>2021-05-01T12:10:07.000Z</time>
      </trkpt>
      <trkpt lat="47.13926" lon="-1.63035">
        <ele>59</ele>
        <time>2021-05-01T12:10:09.000Z</time>
      </trkpt>
      <trkpt lat="47.13937" lon="-1.63029">
        <ele>59</ele>
        <time>2021-05-01T12:10:11.000Z</time>
      </trkpt>
      <trkpt lat="47.13949" lon="-1.63022">
        <ele>60</ele>
        <time>2021-05-01T12:10:13.000Z</time>
      </trkpt>
      <trkpt lat="47.13961" lon="-1.63016">
        <ele>60</ele>
        <time>2021-05-01T12:10:15.000Z</time>
      </trkpt>
      <trkpt lat="47.13972" lon="-1.63009">
        <ele>60</ele>
        <time>2021-05-01T12:10:17.000Z</time>
      </trkpt>
      <trkpt lat="47.13983" lon="-1.63002">
        <ele>61</ele>
        <time>2021-05-01T12:10:19.000Z</time>
      </trkpt>
      <trkpt lat="47.13994" lon="-1.62996">
        <ele>61</ele>
        <time>2021-05-01T12:10:21.000Z</time>
      </trkpt>
      <trkpt lat="47.14005" lon="-1.6299">
        <ele>62</ele>
        <time>2021-05-01T12:10:23.000Z</time>
      </trkpt>
      <trkpt lat="47.14016" lon="-1.62985">
        <ele>62</ele>
        <time>2021-05-01T12:10:25.000Z</time>
      </trkpt>
      <trkpt lat="47.14027" lon="-1.62981">
        <ele>63</ele>
        <time>2021-05-01T12:10:27.000Z</time>
      </trkpt>
      <trkpt lat="47.14038" lon="-1.62978">
        <ele>63</ele>
        <time>2021-05-01T12:10:29.000Z</time>
      </trkpt>
      <trkpt lat="47.14049" lon="-1.62976">
        <ele>63</ele>
        <time>2021-05-01T12:10:31.000Z</time>
      </trkpt>
      <trkpt lat="47.14061" lon="-1.62975">
        <ele>63</ele>
        <time>2021-05-01T12:10:33.000Z</time>
      </trkpt>
      <trkpt lat="47.14072" lon="-1.62973">
        <ele>62</ele>
        <time>2021-05-01T12:10:35.000Z</time>
      </trkpt>
      <trkpt lat="47.14083" lon="-1.62974">
        <ele>63</ele>
        <time>2021-05-01T12:10:37.000Z</time>
      </trkpt>
      <trkpt lat="47.14095" lon="-1.62976">
        <ele>62</ele>
        <time>2021-05-01T12:10:39.000Z</time>
      </trkpt>
      <trkpt lat="47.14106" lon="-1.62978">
        <ele>63</ele>
        <time>2021-05-01T12:10:41.000Z</time>
      </trkpt>
      <trkpt lat="47.14117" lon="-1.62981">
        <ele>63</ele>
        <time>2021-05-01T12:10:43.000Z</time>
      </trkpt>
      <trkpt lat="47.14128" lon="-1.62985">
        <ele>63</ele>
        <time>2021-05-01T12:10:45.000Z</time>
      </trkpt>
      <trkpt lat="47.14139" lon="-1.6299">
        <ele>63</ele>
        <time>2021-05-01T12:10:47.000Z</time>
      </trkpt>
      <trkpt lat="47.1415" lon="-1.62994">
        <ele>63</ele>
        <time>2021-05-01T12:10:49.000Z</time>
      </trkpt>
      <trkpt lat="47.14161" lon="-1.62999">
        <ele>63</ele>
        <time>2021-05-01T12:10:51.000Z</time>
      </trkpt>
      <trkpt lat="47.14172" lon="-1.63005">
        <ele>63</ele>
        <time>2021-05-01T12:10:53.000Z</time>
      </trkpt>
      <trkpt lat="47.14182" lon="-1.6301">
        <ele>63</ele>
        <time>2021-05-01T12:10:55.000Z</time>
      </trkpt>
      <trkpt lat="47.14193" lon="-1.63015">
        <ele>63</ele>
        <time>2021-05-01T12:10:57.000Z</time>
      </trkpt>
      <trkpt lat="47.14204" lon="-1.63021">
        <ele>63</ele>
        <time>2021-05-01T12:10:59.000Z</time>
      </trkpt>
      <trkpt lat="47.14215" lon="-1.63026">
        <ele>63</ele>
        <time>2021-05-01T12:11:01.000Z</time>
      </trkpt>
      <trkpt lat="47.14226" lon="-1.63032">
        <ele>63</ele>
        <time>2021-05-01T12:11:03.000Z</time>
      </trkpt>
      <trkpt lat="47.14237" lon="-1.63038">
        <ele>63</ele>
        <time>2021-05-01T12:11:05.000Z</time>
      </trkpt>
      <trkpt lat="47.14248" lon="-1.63043">
        <ele>63</ele>
        <time>2021-05-01T12:11:07.000Z</time>
      </trkpt>
      <trkpt lat="47.14259" lon="-1.63049">
        <ele>62</ele>
        <time>2021-05-01T12:11:09.000Z</time>
      </trkpt>
      <trkpt lat="47.1427" lon="-1.63055">
        <ele>63</ele>
        <time>2021-05-01T12:11:11.000Z</time>
      </trkpt>
      <trkpt lat="47.14281" lon="-1.63061">
        <ele>63</ele>
        <time>2021-05-01T12:11:13.000Z</time>
      </trkpt>
      <trkpt lat="47.14292" lon="-1.63067">
        <ele>63</ele>
        <time>2021-05-01T12:11:15.000Z</time>
      </trkpt>
      <trkpt lat="47.14303" lon="-1.63072">
        <ele>63</ele>
        <time>2021-05-01T12:11:17.000Z</time>
      </trkpt>
      <trkpt lat="47.14314" lon="-1.63077">
        <ele>63</ele>
        <time>2021-05-01T12:11:19.000Z</time>
      </trkpt>
      <trkpt lat="47.14325" lon="-1.63082">
        <ele>63</ele>
        <time>2021-05-01T12:11:21.000Z</time>
      </trkpt>
      <trkpt lat="47.14337" lon="-1.63088">
        <ele>63</ele>
        <time>2021-05-01T12:11:23.000Z</time>
      </trkpt>
      <trkpt lat="47.14348" lon="-1.63094">
        <ele>63</ele>
        <time>2021-05-01T12:11:25.000Z</time>
      </trkpt>
      <trkpt lat="47.14359" lon="-1.63099">
        <ele>63</ele>
        <time>2021-05-01T12:11:27.000Z</time>
      </trkpt>
      <trkpt lat="47.14371" lon="-1.63104">
        <ele>63</ele>
        <time>2021-05-01T12:11:29.000Z</time>
      </trkpt>
      <trkpt lat="47.14383" lon="-1.6311">
        <ele>63</ele>
        <time>2021-05-01T12:11:31.000Z</time>
      </trkpt>
      <trkpt lat="47.14394" lon="-1.63117">
        <ele>63</ele>
        <time>2021-05-01T12:11:33.000Z</time>
      </trkpt>
      <trkpt lat="47.14405" lon="-1.63123">
        <ele>62</ele>
        <time>2021-05-01T12:11:35.000Z</time>
      </trkpt>
      <trkpt lat="47.14416" lon="-1.63129">
        <ele>62</ele>
        <time>2021-05-01T12:11:37.000Z</time>
      </trkpt>
      <trkpt lat="47.14428" lon="-1.63135">
        <ele>63</ele>
        <time>2021-05-01T12:11:39.000Z</time>
      </trkpt>
      <trkpt lat="47.14439" lon="-1.6314">
        <ele>64</ele>
        <time>2021-05-01T12:11:41.000Z</time>
      </trkpt>
      <trkpt lat="47.1445" lon="-1.63144">
        <ele>64</ele>
        <time>2021-05-01T12:11:43.000Z</time>
      </trkpt>
      <trkpt lat="47.14462" lon="-1.63144">
        <ele>64</ele>
        <time>2021-05-01T12:11:45.000Z</time>
      </trkpt>
      <trkpt lat="47.14474" lon="-1.63145">
        <ele>63</ele>
        <time>2021-05-01T12:11:47.000Z</time>
      </trkpt>
      <trkpt lat="47.14485" lon="-1.63145">
        <ele>63</ele>
        <time>2021-05-01T12:11:49.000Z</time>
      </trkpt>
      <trkpt lat="47.14497" lon="-1.63145">
        <ele>63</ele>
        <time>2021-05-01T12:11:51.000Z</time>
      </trkpt>
      <trkpt lat="47.14508" lon="-1.63145">
        <ele>63</ele>
        <time>2021-05-01T12:11:53.000Z</time>
      </trkpt>
      <trkpt lat="47.14519" lon="-1.63146">
        <ele>64</ele>
        <time>2021-05-01T12:11:55.000Z</time>
      </trkpt>
      <trkpt lat="47.14531" lon="-1.63145">
        <ele>64</ele>
        <time>2021-05-01T12:11:57.000Z</time>
      </trkpt>
      <trkpt lat="47.14542" lon="-1.63144">
        <ele>64</ele>
        <time>2021-05-01T12:11:59.000Z</time>
      </trkpt>
      <trkpt lat="47.14554" lon="-1.63143">
        <ele>64</ele>
        <time>2021-05-01T12:12:01.000Z</time>
      </trkpt>
      <trkpt lat="47.14565" lon="-1.6314">
        <ele>64</ele>
        <time>2021-05-01T12:12:03.000Z</time>
      </trkpt>
      <trkpt lat="47.14576" lon="-1.63134">
        <ele>64</ele>
        <time>2021-05-01T12:12:05.000Z</time>
      </trkpt>
      <trkpt lat="47.14587" lon="-1.63127">
        <ele>65</ele>
        <time>2021-05-01T12:12:07.000Z</time>
      </trkpt>
      <trkpt lat="47.14597" lon="-1.6312">
        <ele>65</ele>
        <time>2021-05-01T12:12:09.000Z</time>
      </trkpt>
      <trkpt lat="47.14608" lon="-1.63112">
        <ele>66</ele>
        <time>2021-05-01T12:12:11.000Z</time>
      </trkpt>
      <trkpt lat="47.14618" lon="-1.63106">
        <ele>66</ele>
        <time>2021-05-01T12:12:13.000Z</time>
      </trkpt>
      <trkpt lat="47.14629" lon="-1.63099">
        <ele>66</ele>
        <time>2021-05-01T12:12:15.000Z</time>
      </trkpt>
      <trkpt lat="47.1464" lon="-1.63093">
        <ele>66</ele>
        <time>2021-05-01T12:12:17.000Z</time>
      </trkpt>
      <trkpt lat="47.1465" lon="-1.63086">
        <ele>66</ele>
        <time>2021-05-01T12:12:19.000Z</time>
      </trkpt>
      <trkpt lat="47.14661" lon="-1.63081">
        <ele>66</ele>
        <time>2021-05-01T12:12:21.000Z</time>
      </trkpt>
      <trkpt lat="47.14672" lon="-1.63076">
        <ele>66</ele>
        <time>2021-05-01T12:12:23.000Z</time>
      </trkpt>
      <trkpt lat="47.14684" lon="-1.63074">
        <ele>66</ele>
        <time>2021-05-01T12:12:25.000Z</time>
      </trkpt>
      <trkpt lat="47.14696" lon="-1.63071">
        <ele>66</ele>
        <time>2021-05-01T12:12:27.000Z</time>
      </trkpt>
      <trkpt lat="47.14707" lon="-1.6307">
        <ele>66</ele>
        <time>2021-05-01T12:12:29.000Z</time>
      </trkpt>
      <trkpt lat="47.14718" lon="-1.63069">
        <ele>66</ele>
        <time>2021-05-01T12:12:31.000Z</time>
      </trkpt>
      <trkpt lat="47.14728" lon="-1.63068">
        <ele>66</ele>
        <time>2021-05-01T12:12:33.000Z</time>
      </trkpt>
      <trkpt lat="47.1474" lon="-1.63068">
        <ele>65</ele>
        <time>2021-05-01T12:12:35.000Z</time>
      </trkpt>
      <trkpt lat="47.14752" lon="-1.63067">
        <ele>66</ele>
        <time>2021-05-01T12:12:37.000Z</time>
      </trkpt>
      <trkpt lat="47.14765" lon="-1.63066">
        <ele>66</ele>
        <time>2021-05-01T12:12:39.000Z</time>
      </trkpt>
      <trkpt lat="47.14777" lon="-1.63066">
        <ele>66</ele>
        <time>2021-05-01T12:12:41.000Z</time>
      </trkpt>
      <trkpt lat="47.1479" lon="-1.63065">
        <ele>66</ele>
        <time>2021-05-01T12:12:43.000Z</time>
      </trkpt>
      <trkpt lat="47.14801" lon="-1.63064">
        <ele>67</ele>
        <time>2021-05-01T12:12:45.000Z</time>
      </trkpt>
      <trkpt lat="47.14814" lon="-1.63063">
        <ele>68</ele>
        <time>2021-05-01T12:12:47.000Z</time>
      </trkpt>
      <trkpt lat="47.14825" lon="-1.63062">
        <ele>68</ele>
        <time>2021-05-01T12:12:49.000Z</time>
      </trkpt>
      <trkpt lat="47.14837" lon="-1.63061">
        <ele>68</ele>
        <time>2021-05-01T12:12:51.000Z</time>
      </trkpt>
      <trkpt lat="47.14848" lon="-1.63061">
        <ele>69</ele>
        <time>2021-05-01T12:12:53.000Z</time>
      </trkpt>
      <trkpt lat="47.1486" lon="-1.63061">
        <ele>69</ele>
        <time>2021-05-01T12:12:55.000Z</time>
      </trkpt>
      <trkpt lat="47.1487" lon="-1.63061">
        <ele>70</ele>
        <time>2021-05-01T12:12:57.000Z</time>
      </trkpt>
      <trkpt lat="47.14882" lon="-1.63067">
        <ele>70</ele>
        <time>2021-05-01T12:13:00.000Z</time>
      </trkpt>
      <trkpt lat="47.14883" lon="-1.63082">
        <ele>72</ele>
        <time>2021-05-01T12:13:02.000Z</time>
      </trkpt>
      <trkpt lat="47.14883" lon="-1.63099">
        <ele>72</ele>
        <time>2021-05-01T12:13:04.000Z</time>
      </trkpt>
      <trkpt lat="47.1488" lon="-1.63118">
        <ele>72</ele>
        <time>2021-05-01T12:13:06.000Z</time>
      </trkpt>
      <trkpt lat="47.14878" lon="-1.63136">
        <ele>71</ele>
        <time>2021-05-01T12:13:08.000Z</time>
      </trkpt>
      <trkpt lat="47.14875" lon="-1.63154">
        <ele>71</ele>
        <time>2021-05-01T12:13:10.000Z</time>
      </trkpt>
      <trkpt lat="47.14874" lon="-1.63172">
        <ele>70</ele>
        <time>2021-05-01T12:13:12.000Z</time>
      </trkpt>
      <trkpt lat="47.14873" lon="-1.6319">
        <ele>70</ele>
        <time>2021-05-01T12:13:14.000Z</time>
      </trkpt>
      <trkpt lat="47.14873" lon="-1.63208">
        <ele>70</ele>
        <time>2021-05-01T12:13:16.000Z</time>
      </trkpt>
      <trkpt lat="47.14873" lon="-1.63226">
        <ele>69</ele>
        <time>2021-05-01T12:13:18.000Z</time>
      </trkpt>
      <trkpt lat="47.14873" lon="-1.63244">
        <ele>69</ele>
        <time>2021-05-01T12:13:20.000Z</time>
      </trkpt>
      <trkpt lat="47.14873" lon="-1.63261">
        <ele>70</ele>
        <time>2021-05-01T12:13:22.000Z</time>
      </trkpt>
      <trkpt lat="47.14873" lon="-1.63279">
        <ele>70</ele>
        <time>2021-05-01T12:13:24.000Z</time>
      </trkpt>
      <trkpt lat="47.14872" lon="-1.63297">
        <ele>71</ele>
        <time>2021-05-01T12:13:26.000Z</time>
      </trkpt>
      <trkpt lat="47.14873" lon="-1.63314">
        <ele>71</ele>
        <time>2021-05-01T12:13:28.000Z</time>
      </trkpt>
      <trkpt lat="47.14874" lon="-1.63331">
        <ele>71</ele>
        <time>2021-05-01T12:13:30.000Z</time>
      </trkpt>
      <trkpt lat="47.14873" lon="-1.63349">
        <ele>72</ele>
        <time>2021-05-01T12:13:32.000Z</time>
      </trkpt>
      <trkpt lat="47.14873" lon="-1.63366">
        <ele>72</ele>
        <time>2021-05-01T12:13:34.000Z</time>
      </trkpt>
      <trkpt lat="47.14872" lon="-1.63384">
        <ele>72</ele>
        <time>2021-05-01T12:13:36.000Z</time>
      </trkpt>
      <trkpt lat="47.14872" lon="-1.63402">
        <ele>71</ele>
        <time>2021-05-01T12:13:38.000Z</time>
      </trkpt>
      <trkpt lat="47.14872" lon="-1.6342">
        <ele>71</ele>
        <time>2021-05-01T12:13:40.000Z</time>
      </trkpt>
      <trkpt lat="47.14872" lon="-1.63438">
        <ele>71</ele>
        <time>2021-05-01T12:13:42.000Z</time>
      </trkpt>
      <trkpt lat="47.14872" lon="-1.63456">
        <ele>70</ele>
        <time>2021-05-01T12:13:44.000Z</time>
      </trkpt>
      <trkpt lat="47.14872" lon="-1.63473">
        <ele>70</ele>
        <time>2021-05-01T12:13:46.000Z</time>
      </trkpt>
      <trkpt lat="47.14872" lon="-1.63492">
        <ele>70</ele>
        <time>2021-05-01T12:13:48.000Z</time>
      </trkpt>
      <trkpt lat="47.14871" lon="-1.63509">
        <ele>70</ele>
        <time>2021-05-01T12:13:50.000Z</time>
      </trkpt>
      <trkpt lat="47.14871" lon="-1.63526">
        <ele>70</ele>
        <time>2021-05-01T12:13:52.000Z</time>
      </trkpt>
      <trkpt lat="47.14871" lon="-1.63544">
        <ele>70</ele>
        <time>2021-05-01T12:13:54.000Z</time>
      </trkpt>
      <trkpt lat="47.1487" lon="-1.63561">
        <ele>71</ele>
        <time>2021-05-01T12:13:56.000Z</time>
      </trkpt>
      <trkpt lat="47.1487" lon="-1.63578">
        <ele>71</ele>
        <time>2021-05-01T12:13:58.000Z</time>
      </trkpt>
      <trkpt lat="47.1487" lon="-1.63596">
        <ele>71</ele>
        <time>2021-05-01T12:14:00.000Z</time>
      </trkpt>
      <trkpt lat="47.1487" lon="-1.63614">
        <ele>71</ele>
        <time>2021-05-01T12:14:02.000Z</time>
      </trkpt>
      <trkpt lat="47.14871" lon="-1.63632">
        <ele>71</ele>
        <time>2021-05-01T12:14:04.000Z</time>
      </trkpt>
      <trkpt lat="47.14871" lon="-1.63651">
        <ele>70</ele>
        <time>2021-05-01T12:14:06.000Z</time>
      </trkpt>
      <trkpt lat="47.14871" lon="-1.63669">
        <ele>70</ele>
        <time>2021-05-01T12:14:08.000Z</time>
      </trkpt>
      <trkpt lat="47.14871" lon="-1.63686">
        <ele>70</ele>
        <time>2021-05-01T12:14:10.000Z</time>
      </trkpt>
      <trkpt lat="47.14871" lon="-1.63704">
        <ele>70</ele>
        <time>2021-05-01T12:14:12.000Z</time>
      </trkpt>
      <trkpt lat="47.14871" lon="-1.63722">
        <ele>70</ele>
        <time>2021-05-01T12:14:14.000Z</time>
      </trkpt>
      <trkpt lat="47.14871" lon="-1.63739">
        <ele>70</ele>
        <time>2021-05-01T12:14:16.000Z</time>
      </trkpt>
      <trkpt lat="47.1487" lon="-1.63757">
        <ele>69</ele>
        <time>2021-05-01T12:14:18.000Z</time>
      </trkpt>
      <trkpt lat="47.14871" lon="-1.63774">
        <ele>69</ele>
        <time>2021-05-01T12:14:20.000Z</time>
      </trkpt>
      <trkpt lat="47.14871" lon="-1.63791">
        <ele>70</ele>
        <time>2021-05-01T12:14:22.000Z</time>
      </trkpt>
      <trkpt lat="47.14871" lon="-1.63809">
        <ele>70</ele>
        <time>2021-05-01T12:14:24.000Z</time>
      </trkpt>
      <trkpt lat="47.14869" lon="-1.63826">
        <ele>70</ele>
        <time>2021-05-01T12:14:26.000Z</time>
      </trkpt>
      <trkpt lat="47.14868" lon="-1.63843">
        <ele>70</ele>
        <time>2021-05-01T12:14:28.000Z</time>
      </trkpt>
      <trkpt lat="47.14868" lon="-1.6386">
        <ele>70</ele>
        <time>2021-05-01T12:14:30.000Z</time>
      </trkpt>
      <trkpt lat="47.14866" lon="-1.63877">
        <ele>70</ele>
        <time>2021-05-01T12:14:32.000Z</time>
      </trkpt>
      <trkpt lat="47.14865" lon="-1.63894">
        <ele>70</ele>
        <time>2021-05-01T12:14:34.000Z</time>
      </trkpt>
      <trkpt lat="47.14862" lon="-1.63911">
        <ele>70</ele>
        <time>2021-05-01T12:14:36.000Z</time>
      </trkpt>
      <trkpt lat="47.14859" lon="-1.63927">
        <ele>70</ele>
        <time>2021-05-01T12:14:38.000Z</time>
      </trkpt>
      <trkpt lat="47.14857" lon="-1.63943">
        <ele>70</ele>
        <time>2021-05-01T12:14:40.000Z</time>
      </trkpt>
      <trkpt lat="47.14856" lon="-1.63959">
        <ele>70</ele>
        <time>2021-05-01T12:14:42.000Z</time>
      </trkpt>
      <trkpt lat="47.14859" lon="-1.63975">
        <ele>70</ele>
        <time>2021-05-01T12:14:44.000Z</time>
      </trkpt>
      <trkpt lat="47.14866" lon="-1.63988">
        <ele>70</ele>
        <time>2021-05-01T12:14:46.000Z</time>
      </trkpt>
      <trkpt lat="47.14874" lon="-1.64">
        <ele>70</ele>
        <time>2021-05-01T12:14:48.000Z</time>
      </trkpt>
      <trkpt lat="47.14883" lon="-1.64012">
        <ele>71</ele>
        <time>2021-05-01T12:14:50.000Z</time>
      </trkpt>
      <trkpt lat="47.14893" lon="-1.64019">
        <ele>71</ele>
        <time>2021-05-01T12:14:52.000Z</time>
      </trkpt>
      <trkpt lat="47.14904" lon="-1.64017">
        <ele>71</ele>
        <time>2021-05-01T12:14:54.000Z</time>
      </trkpt>
      <trkpt lat="47.14912" lon="-1.64006">
        <ele>72</ele>
        <time>2021-05-01T12:14:56.000Z</time>
      </trkpt>
      <trkpt lat="47.14919" lon="-1.63991">
        <ele>72</ele>
        <time>2021-05-01T12:14:58.000Z</time>
      </trkpt>
      <trkpt lat="47.14928" lon="-1.63976">
        <ele>71</ele>
        <time>2021-05-01T12:15:00.000Z</time>
      </trkpt>
      <trkpt lat="47.14936" lon="-1.63962">
        <ele>71</ele>
        <time>2021-05-01T12:15:02.000Z</time>
      </trkpt>
      <trkpt lat="47.14944" lon="-1.63948">
        <ele>70</ele>
        <time>2021-05-01T12:15:04.000Z</time>
      </trkpt>
      <trkpt lat="47.14953" lon="-1.63934">
        <ele>70</ele>
        <time>2021-05-01T12:15:06.000Z</time>
      </trkpt>
      <trkpt lat="47.14961" lon="-1.6392">
        <ele>70</ele>
        <time>2021-05-01T12:15:08.000Z</time>
      </trkpt>
      <trkpt lat="47.14971" lon="-1.63906">
        <ele>69</ele>
        <time>2021-05-01T12:15:10.000Z</time>
      </trkpt>
      <trkpt lat="47.1498" lon="-1.63892">
        <ele>69</ele>
        <time>2021-05-01T12:15:12.000Z</time>
      </trkpt>
      <trkpt lat="47.1499" lon="-1.63879">
        <ele>69</ele>
        <time>2021-05-01T12:15:14.000Z</time>
      </trkpt>
      <trkpt lat="47.15" lon="-1.63865">
        <ele>69</ele>
        <time>2021-05-01T12:15:16.000Z</time>
      </trkpt>
      <trkpt lat="47.1501" lon="-1.63852">
        <ele>68</ele>
        <time>2021-05-01T12:15:18.000Z</time>
      </trkpt>
      <trkpt lat="47.15019" lon="-1.63839">
        <ele>68</ele>
        <time>2021-05-01T12:15:20.000Z</time>
      </trkpt>
      <trkpt lat="47.15029" lon="-1.63826">
        <ele>68</ele>
        <time>2021-05-01T12:15:22.000Z</time>
      </trkpt>
      <trkpt lat="47.15039" lon="-1.63813">
        <ele>68</ele>
        <time>2021-05-01T12:15:24.000Z</time>
      </trkpt>
      <trkpt lat="47.15048" lon="-1.638">
        <ele>68</ele>
        <time>2021-05-01T12:15:26.000Z</time>
      </trkpt>
      <trkpt lat="47.15058" lon="-1.63788">
        <ele>68</ele>
        <time>2021-05-01T12:15:28.000Z</time>
      </trkpt>
      <trkpt lat="47.15067" lon="-1.63776">
        <ele>68</ele>
        <time>2021-05-01T12:15:30.000Z</time>
      </trkpt>
      <trkpt lat="47.15077" lon="-1.63764">
        <ele>68</ele>
        <time>2021-05-01T12:15:32.000Z</time>
      </trkpt>
      <trkpt lat="47.15087" lon="-1.63751">
        <ele>68</ele>
        <time>2021-05-01T12:15:34.000Z</time>
      </trkpt>
      <trkpt lat="47.15097" lon="-1.6374">
        <ele>68</ele>
        <time>2021-05-01T12:15:36.000Z</time>
      </trkpt>
      <trkpt lat="47.15107" lon="-1.63729">
        <ele>68</ele>
        <time>2021-05-01T12:15:38.000Z</time>
      </trkpt>
      <trkpt lat="47.15118" lon="-1.63718">
        <ele>68</ele>
        <time>2021-05-01T12:15:40.000Z</time>
      </trkpt>
      <trkpt lat="47.15128" lon="-1.63707">
        <ele>69</ele>
        <time>2021-05-01T12:15:42.000Z</time>
      </trkpt>
      <trkpt lat="47.15139" lon="-1.63696">
        <ele>69</ele>
        <time>2021-05-01T12:15:44.000Z</time>
      </trkpt>
      <trkpt lat="47.15149" lon="-1.63686">
        <ele>69</ele>
        <time>2021-05-01T12:15:46.000Z</time>
      </trkpt>
      <trkpt lat="47.1516" lon="-1.63676">
        <ele>69</ele>
        <time>2021-05-01T12:15:48.000Z</time>
      </trkpt>
      <trkpt lat="47.15171" lon="-1.63666">
        <ele>69</ele>
        <time>2021-05-01T12:15:50.000Z</time>
      </trkpt>
      <trkpt lat="47.15182" lon="-1.63656">
        <ele>68</ele>
        <time>2021-05-01T12:15:52.000Z</time>
      </trkpt>
      <trkpt lat="47.15193" lon="-1.63646">
        <ele>69</ele>
        <time>2021-05-01T12:15:54.000Z</time>
      </trkpt>
      <trkpt lat="47.15204" lon="-1.63637">
        <ele>69</ele>
        <time>2021-05-01T12:15:56.000Z</time>
      </trkpt>
      <trkpt lat="47.15215" lon="-1.63627">
        <ele>69</ele>
        <time>2021-05-01T12:15:58.000Z</time>
      </trkpt>
      <trkpt lat="47.15226" lon="-1.63617">
        <ele>69</ele>
        <time>2021-05-01T12:16:00.000Z</time>
      </trkpt>
      <trkpt lat="47.15237" lon="-1.63607">
        <ele>68</ele>
        <time>2021-05-01T12:16:02.000Z</time>
      </trkpt>
      <trkpt lat="47.15247" lon="-1.63597">
        <ele>68</ele>
        <time>2021-05-01T12:16:04.000Z</time>
      </trkpt>
      <trkpt lat="47.15258" lon="-1.63588">
        <ele>69</ele>
        <time>2021-05-01T12:16:06.000Z</time>
      </trkpt>
      <trkpt lat="47.15269" lon="-1.63578">
        <ele>69</ele>
        <time>2021-05-01T12:16:08.000Z</time>
      </trkpt>
      <trkpt lat="47.15279" lon="-1.63568">
        <ele>69</ele>
        <time>2021-05-01T12:16:10.000Z</time>
      </trkpt>
      <trkpt lat="47.1529" lon="-1.63559">
        <ele>68</ele>
        <time>2021-05-01T12:16:12.000Z</time>
      </trkpt>
      <trkpt lat="47.153" lon="-1.63549">
        <ele>68</ele>
        <time>2021-05-01T12:16:14.000Z</time>
      </trkpt>
      <trkpt lat="47.15311" lon="-1.63539">
        <ele>68</ele>
        <time>2021-05-01T12:16:16.000Z</time>
      </trkpt>
      <trkpt lat="47.15321" lon="-1.63529">
        <ele>68</ele>
        <time>2021-05-01T12:16:18.000Z</time>
      </trkpt>
      <trkpt lat="47.15332" lon="-1.6352">
        <ele>68</ele>
        <time>2021-05-01T12:16:20.000Z</time>
      </trkpt>
      <trkpt lat="47.15343" lon="-1.63511">
        <ele>68</ele>
        <time>2021-05-01T12:16:22.000Z</time>
      </trkpt>
      <trkpt lat="47.15353" lon="-1.63501">
        <ele>68</ele>
        <time>2021-05-01T12:16:24.000Z</time>
      </trkpt>
      <trkpt lat="47.15364" lon="-1.63492">
        <ele>68</ele>
        <time>2021-05-01T12:16:26.000Z</time>
      </trkpt>
      <trkpt lat="47.15374" lon="-1.63483">
        <ele>68</ele>
        <time>2021-05-01T12:16:28.000Z</time>
      </trkpt>
      <trkpt lat="47.15385" lon="-1.63474">
        <ele>68</ele>
        <time>2021-05-01T12:16:30.000Z</time>
      </trkpt>
      <trkpt lat="47.15395" lon="-1.63465">
        <ele>68</ele>
        <time>2021-05-01T12:16:32.000Z</time>
      </trkpt>
      <trkpt lat="47.15406" lon="-1.63456">
        <ele>68</ele>
        <time>2021-05-01T12:16:34.000Z</time>
      </trkpt>
      <trkpt lat="47.15416" lon="-1.63447">
        <ele>68</ele>
        <time>2021-05-01T12:16:36.000Z</time>
      </trkpt>
      <trkpt lat="47.15427" lon="-1.63437">
        <ele>67</ele>
        <time>2021-05-01T12:16:38.000Z</time>
      </trkpt>
      <trkpt lat="47.15437" lon="-1.63427">
        <ele>67</ele>
        <time>2021-05-01T12:16:40.000Z</time>
      </trkpt>
      <trkpt lat="47.15447" lon="-1.63415">
        <ele>67</ele>
        <time>2021-05-01T12:16:42.000Z</time>
      </trkpt>
      <trkpt lat="47.15458" lon="-1.63405">
        <ele>67</ele>
        <time>2021-05-01T12:16:44.000Z</time>
      </trkpt>
      <trkpt lat="47.15469" lon="-1.63396">
        <ele>66</ele>
        <time>2021-05-01T12:16:46.000Z</time>
      </trkpt>
      <trkpt lat="47.15481" lon="-1.63388">
        <ele>66</ele>
        <time>2021-05-01T12:16:48.000Z</time>
      </trkpt>
      <trkpt lat="47.15493" lon="-1.6338">
        <ele>66</ele>
        <time>2021-05-01T12:16:50.000Z</time>
      </trkpt>
      <trkpt lat="47.15504" lon="-1.63371">
        <ele>65</ele>
        <time>2021-05-01T12:16:52.000Z</time>
      </trkpt>
      <trkpt lat="47.15516" lon="-1.63361">
        <ele>65</ele>
        <time>2021-05-01T12:16:54.000Z</time>
      </trkpt>
      <trkpt lat="47.15528" lon="-1.63351">
        <ele>64</ele>
        <time>2021-05-01T12:16:56.000Z</time>
      </trkpt>
      <trkpt lat="47.1554" lon="-1.63339">
        <ele>64</ele>
        <time>2021-05-01T12:16:58.000Z</time>
      </trkpt>
      <trkpt lat="47.15552" lon="-1.63329">
        <ele>64</ele>
        <time>2021-05-01T12:17:00.000Z</time>
      </trkpt>
      <trkpt lat="47.15564" lon="-1.63318">
        <ele>63</ele>
        <time>2021-05-01T12:17:02.000Z</time>
      </trkpt>
      <trkpt lat="47.15577" lon="-1.63307">
        <ele>62</ele>
        <time>2021-05-01T12:17:04.000Z</time>
      </trkpt>
      <trkpt lat="47.15589" lon="-1.63296">
        <ele>62</ele>
        <time>2021-05-01T12:17:06.000Z</time>
      </trkpt>
      <trkpt lat="47.15602" lon="-1.63285">
        <ele>61</ele>
        <time>2021-05-01T12:17:08.000Z</time>
      </trkpt>
      <trkpt lat="47.15614" lon="-1.63274">
        <ele>61</ele>
        <time>2021-05-01T12:17:10.000Z</time>
      </trkpt>
      <trkpt lat="47.15627" lon="-1.63263">
        <ele>61</ele>
        <time>2021-05-01T12:17:12.000Z</time>
      </trkpt>
      <trkpt lat="47.15638" lon="-1.63253">
        <ele>60</ele>
        <time>2021-05-01T12:17:14.000Z</time>
      </trkpt>
      <trkpt lat="47.1565" lon="-1.63242">
        <ele>60</ele>
        <time>2021-05-01T12:17:16.000Z</time>
      </trkpt>
      <trkpt lat="47.15662" lon="-1.63231">
        <ele>60</ele>
        <time>2021-05-01T12:17:18.000Z</time>
      </trkpt>
      <trkpt lat="47.15674" lon="-1.63221">
        <ele>61</ele>
        <time>2021-05-01T12:17:20.000Z</time>
      </trkpt>
      <trkpt lat="47.15685" lon="-1.63211">
        <ele>61</ele>
        <time>2021-05-01T12:17:22.000Z</time>
      </trkpt>
      <trkpt lat="47.15696" lon="-1.63201">
        <ele>61</ele>
        <time>2021-05-01T12:17:24.000Z</time>
      </trkpt>
      <trkpt lat="47.15708" lon="-1.63191">
        <ele>61</ele>
        <time>2021-05-01T12:17:26.000Z</time>
      </trkpt>
      <trkpt lat="47.15719" lon="-1.63181">
        <ele>61</ele>
        <time>2021-05-01T12:17:28.000Z</time>
      </trkpt>
      <trkpt lat="47.1573" lon="-1.6317">
        <ele>61</ele>
        <time>2021-05-01T12:17:30.000Z</time>
      </trkpt>
      <trkpt lat="47.15741" lon="-1.63159">
        <ele>61</ele>
        <time>2021-05-01T12:17:32.000Z</time>
      </trkpt>
      <trkpt lat="47.1575" lon="-1.63146">
        <ele>61</ele>
        <time>2021-05-01T12:17:34.000Z</time>
      </trkpt>
      <trkpt lat="47.15764" lon="-1.63141">
        <ele>60</ele>
        <time>2021-05-01T12:17:36.000Z</time>
      </trkpt>
      <trkpt lat="47.15776" lon="-1.63131">
        <ele>60</ele>
        <time>2021-05-01T12:17:38.000Z</time>
      </trkpt>
      <trkpt lat="47.15788" lon="-1.63121">
        <ele>59</ele>
        <time>2021-05-01T12:17:40.000Z</time>
      </trkpt>
      <trkpt lat="47.15799" lon="-1.6311">
        <ele>59</ele>
        <time>2021-05-01T12:17:42.000Z</time>
      </trkpt>
      <trkpt lat="47.15812" lon="-1.63099">
        <ele>59</ele>
        <time>2021-05-01T12:17:44.000Z</time>
      </trkpt>
      <trkpt lat="47.15824" lon="-1.63089">
        <ele>58</ele>
        <time>2021-05-01T12:17:46.000Z</time>
      </trkpt>
      <trkpt lat="47.15836" lon="-1.63078">
        <ele>57</ele>
        <time>2021-05-01T12:17:48.000Z</time>
      </trkpt>
      <trkpt lat="47.15849" lon="-1.63066">
        <ele>57</ele>
        <time>2021-05-01T12:17:50.000Z</time>
      </trkpt>
      <trkpt lat="47.15862" lon="-1.63055">
        <ele>57</ele>
        <time>2021-05-01T12:17:52.000Z</time>
      </trkpt>
      <trkpt lat="47.15874" lon="-1.63043">
        <ele>56</ele>
        <time>2021-05-01T12:17:54.000Z</time>
      </trkpt>
      <trkpt lat="47.15887" lon="-1.63031">
        <ele>56</ele>
        <time>2021-05-01T12:17:56.000Z</time>
      </trkpt>
      <trkpt lat="47.15899" lon="-1.6302">
        <ele>56</ele>
        <time>2021-05-01T12:17:58.000Z</time>
      </trkpt>
      <trkpt lat="47.15912" lon="-1.6301">
        <ele>56</ele>
        <time>2021-05-01T12:18:00.000Z</time>
      </trkpt>
      <trkpt lat="47.15923" lon="-1.62999">
        <ele>56</ele>
        <time>2021-05-01T12:18:02.000Z</time>
      </trkpt>
      <trkpt lat="47.15935" lon="-1.62988">
        <ele>57</ele>
        <time>2021-05-01T12:18:04.000Z</time>
      </trkpt>
      <trkpt lat="47.15946" lon="-1.62978">
        <ele>57</ele>
        <time>2021-05-01T12:18:06.000Z</time>
      </trkpt>
      <trkpt lat="47.15958" lon="-1.62968">
        <ele>57</ele>
        <time>2021-05-01T12:18:08.000Z</time>
      </trkpt>
      <trkpt lat="47.15969" lon="-1.62958">
        <ele>58</ele>
        <time>2021-05-01T12:18:10.000Z</time>
      </trkpt>
      <trkpt lat="47.15981" lon="-1.62947">
        <ele>59</ele>
        <time>2021-05-01T12:18:12.000Z</time>
      </trkpt>
      <trkpt lat="47.15992" lon="-1.62937">
        <ele>59</ele>
        <time>2021-05-01T12:18:14.000Z</time>
      </trkpt>
      <trkpt lat="47.16004" lon="-1.62928">
        <ele>59</ele>
        <time>2021-05-01T12:18:16.000Z</time>
      </trkpt>
      <trkpt lat="47.16015" lon="-1.62918">
        <ele>59</ele>
        <time>2021-05-01T12:18:18.000Z</time>
      </trkpt>
      <trkpt lat="47.16025" lon="-1.62908">
        <ele>59</ele>
        <time>2021-05-01T12:18:20.000Z</time>
      </trkpt>
      <trkpt lat="47.16035" lon="-1.629">
        <ele>60</ele>
        <time>2021-05-01T12:18:22.000Z</time>
      </trkpt>
      <trkpt lat="47.16045" lon="-1.62891">
        <ele>61</ele>
        <time>2021-05-01T12:18:24.000Z</time>
      </trkpt>
      <trkpt lat="47.16055" lon="-1.62882">
        <ele>61</ele>
        <time>2021-05-01T12:18:26.000Z</time>
      </trkpt>
      <trkpt lat="47.16065" lon="-1.62873">
        <ele>62</ele>
        <time>2021-05-01T12:18:28.000Z</time>
      </trkpt>
      <trkpt lat="47.16076" lon="-1.62864">
        <ele>62</ele>
        <time>2021-05-01T12:18:30.000Z</time>
      </trkpt>
      <trkpt lat="47.16086" lon="-1.62855">
        <ele>63</ele>
        <time>2021-05-01T12:18:32.000Z</time>
      </trkpt>
      <trkpt lat="47.16096" lon="-1.62846">
        <ele>63</ele>
        <time>2021-05-01T12:18:34.000Z</time>
      </trkpt>
      <trkpt lat="47.16107" lon="-1.62836">
        <ele>63</ele>
        <time>2021-05-01T12:18:36.000Z</time>
      </trkpt>
      <trkpt lat="47.16117" lon="-1.62828">
        <ele>63</ele>
        <time>2021-05-01T12:18:38.000Z</time>
      </trkpt>
      <trkpt lat="47.16127" lon="-1.62819">
        <ele>63</ele>
        <time>2021-05-01T12:18:40.000Z</time>
      </trkpt>
      <trkpt lat="47.16137" lon="-1.6281">
        <ele>64</ele>
        <time>2021-05-01T12:18:42.000Z</time>
      </trkpt>
      <trkpt lat="47.16147" lon="-1.62802">
        <ele>64</ele>
        <time>2021-05-01T12:18:44.000Z</time>
      </trkpt>
      <trkpt lat="47.16156" lon="-1.62793">
        <ele>65</ele>
        <time>2021-05-01T12:18:46.000Z</time>
      </trkpt>
      <trkpt lat="47.16166" lon="-1.62785">
        <ele>65</ele>
        <time>2021-05-01T12:18:48.000Z</time>
      </trkpt>
      <trkpt lat="47.16175" lon="-1.62777">
        <ele>66</ele>
        <time>2021-05-01T12:18:50.000Z</time>
      </trkpt>
      <trkpt lat="47.16184" lon="-1.62768">
        <ele>66</ele>
        <time>2021-05-01T12:18:52.000Z</time>
      </trkpt>
      <trkpt lat="47.16192" lon="-1.62759">
        <ele>66</ele>
        <time>2021-05-01T12:18:54.000Z</time>
      </trkpt>
      <trkpt lat="47.16201" lon="-1.62752">
        <ele>67</ele>
        <time>2021-05-01T12:18:56.000Z</time>
      </trkpt>
      <trkpt lat="47.1621" lon="-1.62744">
        <ele>67</ele>
        <time>2021-05-01T12:18:58.000Z</time>
      </trkpt>
      <trkpt lat="47.16219" lon="-1.62737">
        <ele>68</ele>
        <time>2021-05-01T12:19:00.000Z</time>
      </trkpt>
      <trkpt lat="47.16228" lon="-1.62729">
        <ele>68</ele>
        <time>2021-05-01T12:19:02.000Z</time>
      </trkpt>
      <trkpt lat="47.16237" lon="-1.62722">
        <ele>69</ele>
        <time>2021-05-01T12:19:04.000Z</time>
      </trkpt>
      <trkpt lat="47.16247" lon="-1.62714">
        <ele>70</ele>
        <time>2021-05-01T12:19:06.000Z</time>
      </trkpt>
      <trkpt lat="47.16256" lon="-1.62706">
        <ele>70</ele>
        <time>2021-05-01T12:19:08.000Z</time>
      </trkpt>
      <trkpt lat="47.16265" lon="-1.62699">
        <ele>70</ele>
        <time>2021-05-01T12:19:10.000Z</time>
      </trkpt>
      <trkpt lat="47.16273" lon="-1.62692">
        <ele>70</ele>
        <time>2021-05-01T12:19:12.000Z</time>
      </trkpt>
      <trkpt lat="47.16277" lon="-1.62674">
        <ele>70</ele>
        <time>2021-05-01T12:19:15.000Z</time>
      </trkpt>
      <trkpt lat="47.16277" lon="-1.62658">
        <ele>70</ele>
        <time>2021-05-01T12:19:17.000Z</time>
      </trkpt>
      <trkpt lat="47.16278" lon="-1.62642">
        <ele>71</ele>
        <time>2021-05-01T12:19:19.000Z</time>
      </trkpt>
      <trkpt lat="47.16281" lon="-1.62627">
        <ele>71</ele>
        <time>2021-05-01T12:19:21.000Z</time>
      </trkpt>
      <trkpt lat="47.16284" lon="-1.62612">
        <ele>72</ele>
        <time>2021-05-01T12:19:23.000Z</time>
      </trkpt>
      <trkpt lat="47.16288" lon="-1.62598">
        <ele>72</ele>
        <time>2021-05-01T12:19:25.000Z</time>
      </trkpt>
      <trkpt lat="47.16294" lon="-1.62585">
        <ele>72</ele>
        <time>2021-05-01T12:19:27.000Z</time>
      </trkpt>
      <trkpt lat="47.16302" lon="-1.62575">
        <ele>72</ele>
        <time>2021-05-01T12:19:29.000Z</time>
      </trkpt>
      <trkpt lat="47.16313" lon="-1.62568">
        <ele>72</ele>
        <time>2021-05-01T12:19:31.000Z</time>
      </trkpt>
      <trkpt lat="47.16324" lon="-1.62567">
        <ele>72</ele>
        <time>2021-05-01T12:19:33.000Z</time>
      </trkpt>
      <trkpt lat="47.16334" lon="-1.62571">
        <ele>72</ele>
        <time>2021-05-01T12:19:35.000Z</time>
      </trkpt>
      <trkpt lat="47.16345" lon="-1.62576">
        <ele>72</ele>
        <time>2021-05-01T12:19:37.000Z</time>
      </trkpt>
      <trkpt lat="47.16356" lon="-1.6258">
        <ele>71</ele>
        <time>2021-05-01T12:19:39.000Z</time>
      </trkpt>
      <trkpt lat="47.16367" lon="-1.62581">
        <ele>71</ele>
        <time>2021-05-01T12:19:41.000Z</time>
      </trkpt>
      <trkpt lat="47.16378" lon="-1.6258">
        <ele>71</ele>
        <time>2021-05-01T12:19:43.000Z</time>
      </trkpt>
      <trkpt lat="47.16388" lon="-1.62577">
        <ele>71</ele>
        <time>2021-05-01T12:19:45.000Z</time>
      </trkpt>
      <trkpt lat="47.16398" lon="-1.62571">
        <ele>71</ele>
        <time>2021-05-01T12:19:47.000Z</time>
      </trkpt>
      <trkpt lat="47.16407" lon="-1.62564">
        <ele>71</ele>
        <time>2021-05-01T12:19:49.000Z</time>
      </trkpt>
      <trkpt lat="47.16416" lon="-1.62555">
        <ele>72</ele>
        <time>2021-05-01T12:19:51.000Z</time>
      </trkpt>
      <trkpt lat="47.16425" lon="-1.62546">
        <ele>72</ele>
        <time>2021-05-01T12:19:53.000Z</time>
      </trkpt>
      <trkpt lat="47.16434" lon="-1.62539">
        <ele>72</ele>
        <time>2021-05-01T12:19:55.000Z</time>
      </trkpt>
      <trkpt lat="47.16445" lon="-1.62539">
        <ele>72</ele>
        <time>2021-05-01T12:19:57.000Z</time>
      </trkpt>
      <trkpt lat="47.16455" lon="-1.62542">
        <ele>72</ele>
        <time>2021-05-01T12:19:59.000Z</time>
      </trkpt>
      <trkpt lat="47.16466" lon="-1.62545">
        <ele>72</ele>
        <time>2021-05-01T12:20:01.000Z</time>
      </trkpt>
      <trkpt lat="47.16476" lon="-1.62548">
        <ele>72</ele>
        <time>2021-05-01T12:20:03.000Z</time>
      </trkpt>
      <trkpt lat="47.16487" lon="-1.62552">
        <ele>72</ele>
        <time>2021-05-01T12:20:05.000Z</time>
      </trkpt>
      <trkpt lat="47.16498" lon="-1.62555">
        <ele>72</ele>
        <time>2021-05-01T12:20:07.000Z</time>
      </trkpt>
      <trkpt lat="47.16509" lon="-1.62559">
        <ele>72</ele>
        <time>2021-05-01T12:20:09.000Z</time>
      </trkpt>
      <trkpt lat="47.16521" lon="-1.62562">
        <ele>72</ele>
        <time>2021-05-01T12:20:11.000Z</time>
      </trkpt>
      <trkpt lat="47.16532" lon="-1.62563">
        <ele>72</ele>
        <time>2021-05-01T12:20:13.000Z</time>
      </trkpt>
      <trkpt lat="47.16542" lon="-1.62556">
        <ele>71</ele>
        <time>2021-05-01T12:20:15.000Z</time>
      </trkpt>
      <trkpt lat="47.16552" lon="-1.62544">
        <ele>71</ele>
        <time>2021-05-01T12:20:17.000Z</time>
      </trkpt>
      <trkpt lat="47.16561" lon="-1.6253">
        <ele>71</ele>
        <time>2021-05-01T12:20:19.000Z</time>
      </trkpt>
      <trkpt lat="47.16568" lon="-1.62515">
        <ele>71</ele>
        <time>2021-05-01T12:20:21.000Z</time>
      </trkpt>
      <trkpt lat="47.16575" lon="-1.62498">
        <ele>70</ele>
        <time>2021-05-01T12:20:23.000Z</time>
      </trkpt>
      <trkpt lat="47.16582" lon="-1.6248">
        <ele>70</ele>
        <time>2021-05-01T12:20:25.000Z</time>
      </trkpt>
      <trkpt lat="47.16589" lon="-1.62463">
        <ele>69</ele>
        <time>2021-05-01T12:20:27.000Z</time>
      </trkpt>
      <trkpt lat="47.16596" lon="-1.62446">
        <ele>68</ele>
        <time>2021-05-01T12:20:29.000Z</time>
      </trkpt>
      <trkpt lat="47.16604" lon="-1.62429">
        <ele>68</ele>
        <time>2021-05-01T12:20:31.000Z</time>
      </trkpt>
      <trkpt lat="47.16613" lon="-1.62413">
        <ele>67</ele>
        <time>2021-05-01T12:20:33.000Z</time>
      </trkpt>
      <trkpt lat="47.16622" lon="-1.62397">
        <ele>67</ele>
        <time>2021-05-01T12:20:35.000Z</time>
      </trkpt>
      <trkpt lat="47.16633" lon="-1.62383">
        <ele>66</ele>
        <time>2021-05-01T12:20:37.000Z</time>
      </trkpt>
      <trkpt lat="47.16644" lon="-1.62371">
        <ele>66</ele>
        <time>2021-05-01T12:20:39.000Z</time>
      </trkpt>
      <trkpt lat="47.16656" lon="-1.62362">
        <ele>65</ele>
        <time>2021-05-01T12:20:41.000Z</time>
      </trkpt>
      <trkpt lat="47.16671" lon="-1.62358">
        <ele>65</ele>
        <time>2021-05-01T12:20:43.000Z</time>
      </trkpt>
      <trkpt lat="47.16685" lon="-1.6236">
        <ele>65</ele>
        <time>2021-05-01T12:20:45.000Z</time>
      </trkpt>
      <trkpt lat="47.16697" lon="-1.62368">
        <ele>64</ele>
        <time>2021-05-01T12:20:47.000Z</time>
      </trkpt>
      <trkpt lat="47.16707" lon="-1.6238">
        <ele>64</ele>
        <time>2021-05-01T12:20:49.000Z</time>
      </trkpt>
      <trkpt lat="47.16714" lon="-1.62395">
        <ele>65</ele>
        <time>2021-05-01T12:20:51.000Z</time>
      </trkpt>
      <trkpt lat="47.16721" lon="-1.62405">
        <ele>65</ele>
        <time>2021-05-01T12:20:55.000Z</time>
      </trkpt>
      <trkpt lat="47.16727" lon="-1.62416">
        <ele>65</ele>
        <time>2021-05-01T12:20:58.000Z</time>
      </trkpt>
      <trkpt lat="47.16727" lon="-1.62432">
        <ele>65</ele>
        <time>2021-05-01T12:21:00.000Z</time>
      </trkpt>
      <trkpt lat="47.16722" lon="-1.62448">
        <ele>66</ele>
        <time>2021-05-01T12:21:02.000Z</time>
      </trkpt>
      <trkpt lat="47.16718" lon="-1.62465">
        <ele>65</ele>
        <time>2021-05-01T12:21:04.000Z</time>
      </trkpt>
      <trkpt lat="47.16716" lon="-1.62482">
        <ele>64</ele>
        <time>2021-05-01T12:21:06.000Z</time>
      </trkpt>
      <trkpt lat="47.1672" lon="-1.62495">
        <ele>64</ele>
        <time>2021-05-01T12:21:08.000Z</time>
      </trkpt>
      <trkpt lat="47.16732" lon="-1.625">
        <ele>64</ele>
        <time>2021-05-01T12:21:10.000Z</time>
      </trkpt>
      <trkpt lat="47.16743" lon="-1.62505">
        <ele>63</ele>
        <time>2021-05-01T12:21:12.000Z</time>
      </trkpt>
      <trkpt lat="47.16754" lon="-1.62511">
        <ele>63</ele>
        <time>2021-05-01T12:21:14.000Z</time>
      </trkpt>
      <trkpt lat="47.16764" lon="-1.62517">
        <ele>64</ele>
        <time>2021-05-01T12:21:16.000Z</time>
      </trkpt>
      <trkpt lat="47.16773" lon="-1.62523">
        <ele>64</ele>
        <time>2021-05-01T12:21:18.000Z</time>
      </trkpt>
      <trkpt lat="47.16783" lon="-1.62529">
        <ele>64</ele>
        <time>2021-05-01T12:21:20.000Z</time>
      </trkpt>
      <trkpt lat="47.16791" lon="-1.62535">
        <ele>65</ele>
        <time>2021-05-01T12:21:22.000Z</time>
      </trkpt>
      <trkpt lat="47.16802" lon="-1.62542">
        <ele>66</ele>
        <time>2021-05-01T12:21:25.000Z</time>
      </trkpt>
      <trkpt lat="47.16807" lon="-1.62553">
        <ele>66</ele>
        <time>2021-05-01T12:21:31.000Z</time>
      </trkpt>
    </trkseg>
  </trk>
</gpx>